<?xml version="1.0" encoding="UTF-8" standalone="no" ?>
<gpx xmlns="http://www.topografix.com/GPX/1/1" xmlns:xsi="http://www.w3.org/2001/XMLSchema-instance" xsi:schemaLocation="http://www.topografix.com/GPX/1/1 http://www.topografix.com/GPX/1/1/gpx.xsd" version="1.1" creator="VisuGPX - https://www.visugpx.com">
  <metadata>
    <name>PABO </name>
    <desc><![CDATA[Cyclemeter Vélo (Route) 27 mai 2022 à 09:01:25]]></desc>
  </metadata>
  <trk>
    <name><![CDATA[Nouveau parcours]]></name>
    <trkseg>
      <trkpt lat="48.54809" lon="-3.65233">
        <ele>143.1</ele>
        <time>2022-05-27T07:04:31Z</time>
      </trkpt>
      <trkpt lat="48.54812" lon="-3.6526">
        <ele>143.2</ele>
        <time>2022-05-27T07:04:41Z</time>
      </trkpt>
      <trkpt lat="48.54782" lon="-3.65312">
        <ele>143.3</ele>
        <time>2022-05-27T07:04:53Z</time>
      </trkpt>
      <trkpt lat="48.54751" lon="-3.65368">
        <ele>143.4</ele>
        <time>2022-05-27T07:05:04Z</time>
      </trkpt>
      <trkpt lat="48.54719" lon="-3.65423">
        <ele>143.5</ele>
        <time>2022-05-27T07:05:15Z</time>
      </trkpt>
      <trkpt lat="48.54686" lon="-3.6547">
        <ele>143.6</ele>
        <time>2022-05-27T07:05:25Z</time>
      </trkpt>
      <trkpt lat="48.5464" lon="-3.65497">
        <ele>143.7</ele>
        <time>2022-05-27T07:05:36Z</time>
      </trkpt>
      <trkpt lat="48.54597" lon="-3.65513">
        <ele>143.8</ele>
        <time>2022-05-27T07:05:46Z</time>
      </trkpt>
      <trkpt lat="48.54586" lon="-3.65535">
        <ele>143.8</ele>
        <time>2022-05-27T07:05:50Z</time>
      </trkpt>
      <trkpt lat="48.54573" lon="-3.65606">
        <ele>143.9</ele>
        <time>2022-05-27T07:06:01Z</time>
      </trkpt>
      <trkpt lat="48.54555" lon="-3.65671">
        <ele>144</ele>
        <time>2022-05-27T07:06:11Z</time>
      </trkpt>
      <trkpt lat="48.5455" lon="-3.6574">
        <ele>144.1</ele>
        <time>2022-05-27T07:06:21Z</time>
      </trkpt>
      <trkpt lat="48.54543" lon="-3.65789">
        <ele>144.2</ele>
        <time>2022-05-27T07:06:28Z</time>
      </trkpt>
      <trkpt lat="48.54516" lon="-3.65845">
        <ele>144.3</ele>
        <time>2022-05-27T07:06:37Z</time>
      </trkpt>
      <trkpt lat="48.54492" lon="-3.65901">
        <ele>144.4</ele>
        <time>2022-05-27T07:06:46Z</time>
      </trkpt>
      <trkpt lat="48.54467" lon="-3.65967">
        <ele>144.5</ele>
        <time>2022-05-27T07:06:56Z</time>
      </trkpt>
      <trkpt lat="48.5445" lon="-3.6603">
        <ele>144.5</ele>
        <time>2022-05-27T07:07:05Z</time>
      </trkpt>
      <trkpt lat="48.54446" lon="-3.66087">
        <ele>144.6</ele>
        <time>2022-05-27T07:07:13Z</time>
      </trkpt>
      <trkpt lat="48.54444" lon="-3.66101">
        <ele>144.5</ele>
        <time>2022-05-27T07:07:15Z</time>
      </trkpt>
      <trkpt lat="48.5443" lon="-3.66169">
        <ele>143.9</ele>
        <time>2022-05-27T07:07:24Z</time>
      </trkpt>
      <trkpt lat="48.54418" lon="-3.66241">
        <ele>143.4</ele>
        <time>2022-05-27T07:07:33Z</time>
      </trkpt>
      <trkpt lat="48.5441" lon="-3.66317">
        <ele>142.9</ele>
        <time>2022-05-27T07:07:41Z</time>
      </trkpt>
      <trkpt lat="48.54406" lon="-3.66336">
        <ele>142.8</ele>
        <time>2022-05-27T07:07:43Z</time>
      </trkpt>
      <trkpt lat="48.54394" lon="-3.66381">
        <ele>142.1</ele>
        <time>2022-05-27T07:07:48Z</time>
      </trkpt>
      <trkpt lat="48.54373" lon="-3.66442">
        <ele>141</ele>
        <time>2022-05-27T07:07:56Z</time>
      </trkpt>
      <trkpt lat="48.54361" lon="-3.66475">
        <ele>140.3</ele>
        <time>2022-05-27T07:08:00Z</time>
      </trkpt>
      <trkpt lat="48.5436" lon="-3.66483">
        <ele>140</ele>
        <time>2022-05-27T07:08:01Z</time>
      </trkpt>
      <trkpt lat="48.54365" lon="-3.66519">
        <ele>138.3</ele>
        <time>2022-05-27T07:08:06Z</time>
      </trkpt>
      <trkpt lat="48.54373" lon="-3.66527">
        <ele>138.2</ele>
        <time>2022-05-27T07:08:08Z</time>
      </trkpt>
      <trkpt lat="48.5439" lon="-3.66532">
        <ele>138</ele>
        <time>2022-05-27T07:08:12Z</time>
      </trkpt>
      <trkpt lat="48.54418" lon="-3.66538">
        <ele>139.9</ele>
        <time>2022-05-27T07:08:18Z</time>
      </trkpt>
      <trkpt lat="48.54452" lon="-3.66544">
        <ele>139.7</ele>
        <time>2022-05-27T07:08:24Z</time>
      </trkpt>
      <trkpt lat="48.54464" lon="-3.66545">
        <ele>139.5</ele>
        <time>2022-05-27T07:08:26Z</time>
      </trkpt>
      <trkpt lat="48.54507" lon="-3.66526">
        <ele>138.8</ele>
        <time>2022-05-27T07:08:33Z</time>
      </trkpt>
      <trkpt lat="48.54553" lon="-3.66492">
        <ele>138.1</ele>
        <time>2022-05-27T07:08:41Z</time>
      </trkpt>
      <trkpt lat="48.54591" lon="-3.66479">
        <ele>137.5</ele>
        <time>2022-05-27T07:08:47Z</time>
      </trkpt>
      <trkpt lat="48.54598" lon="-3.66478">
        <ele>137.3</ele>
        <time>2022-05-27T07:08:48Z</time>
      </trkpt>
      <trkpt lat="48.54612" lon="-3.66476">
        <ele>136.6</ele>
        <time>2022-05-27T07:08:50Z</time>
      </trkpt>
      <trkpt lat="48.54619" lon="-3.66473">
        <ele>136.2</ele>
        <time>2022-05-27T07:08:51Z</time>
      </trkpt>
      <trkpt lat="48.5464" lon="-3.66473">
        <ele>135</ele>
        <time>2022-05-27T07:08:54Z</time>
      </trkpt>
      <trkpt lat="48.54667" lon="-3.66474">
        <ele>133</ele>
        <time>2022-05-27T07:08:58Z</time>
      </trkpt>
      <trkpt lat="48.54684" lon="-3.66474">
        <ele>131.9</ele>
        <time>2022-05-27T07:09:00Z</time>
      </trkpt>
      <trkpt lat="48.54701" lon="-3.66472">
        <ele>130.4</ele>
        <time>2022-05-27T07:09:02Z</time>
      </trkpt>
      <trkpt lat="48.54719" lon="-3.66467">
        <ele>129</ele>
        <time>2022-05-27T07:09:04Z</time>
      </trkpt>
      <trkpt lat="48.54737" lon="-3.66467">
        <ele>127.8</ele>
        <time>2022-05-27T07:09:06Z</time>
      </trkpt>
      <trkpt lat="48.54745" lon="-3.66468">
        <ele>127.5</ele>
        <time>2022-05-27T07:09:07Z</time>
      </trkpt>
      <trkpt lat="48.54784" lon="-3.66485">
        <ele>126.5</ele>
        <time>2022-05-27T07:09:12Z</time>
      </trkpt>
      <trkpt lat="48.54807" lon="-3.66486">
        <ele>125.8</ele>
        <time>2022-05-27T07:09:15Z</time>
      </trkpt>
      <trkpt lat="48.54827" lon="-3.66477">
        <ele>125.4</ele>
        <time>2022-05-27T07:09:18Z</time>
      </trkpt>
      <trkpt lat="48.54851" lon="-3.66449">
        <ele>128.9</ele>
        <time>2022-05-27T07:09:24Z</time>
      </trkpt>
      <trkpt lat="48.54862" lon="-3.66436">
        <ele>130.3</ele>
        <time>2022-05-27T07:09:27Z</time>
      </trkpt>
      <trkpt lat="48.54889" lon="-3.66405">
        <ele>134.3</ele>
        <time>2022-05-27T07:09:36Z</time>
      </trkpt>
      <trkpt lat="48.54901" lon="-3.66391">
        <ele>135.6</ele>
        <time>2022-05-27T07:09:40Z</time>
      </trkpt>
      <trkpt lat="48.54928" lon="-3.66367">
        <ele>138.1</ele>
        <time>2022-05-27T07:09:48Z</time>
      </trkpt>
      <trkpt lat="48.54941" lon="-3.66355">
        <ele>139.2</ele>
        <time>2022-05-27T07:09:52Z</time>
      </trkpt>
      <trkpt lat="48.54964" lon="-3.66334">
        <ele>141.3</ele>
        <time>2022-05-27T07:09:59Z</time>
      </trkpt>
      <trkpt lat="48.55" lon="-3.6631">
        <ele>144.3</ele>
        <time>2022-05-27T07:10:09Z</time>
      </trkpt>
      <trkpt lat="48.55007" lon="-3.66305">
        <ele>144.7</ele>
        <time>2022-05-27T07:10:11Z</time>
      </trkpt>
      <trkpt lat="48.55019" lon="-3.66296">
        <ele>145.4</ele>
        <time>2022-05-27T07:10:14Z</time>
      </trkpt>
      <trkpt lat="48.5505" lon="-3.66274">
        <ele>146.7</ele>
        <time>2022-05-27T07:10:22Z</time>
      </trkpt>
      <trkpt lat="48.55093" lon="-3.66249">
        <ele>148.4</ele>
        <time>2022-05-27T07:10:32Z</time>
      </trkpt>
      <trkpt lat="48.55123" lon="-3.66233">
        <ele>149.2</ele>
        <time>2022-05-27T07:10:39Z</time>
      </trkpt>
      <trkpt lat="48.55168" lon="-3.66209">
        <ele>150.4</ele>
        <time>2022-05-27T07:10:49Z</time>
      </trkpt>
      <trkpt lat="48.55201" lon="-3.66205">
        <ele>151.2</ele>
        <time>2022-05-27T07:10:56Z</time>
      </trkpt>
      <trkpt lat="48.55215" lon="-3.66202">
        <ele>151.3</ele>
        <time>2022-05-27T07:10:59Z</time>
      </trkpt>
      <trkpt lat="48.55258" lon="-3.66174">
        <ele>151.7</ele>
        <time>2022-05-27T07:11:08Z</time>
      </trkpt>
      <trkpt lat="48.55297" lon="-3.66138">
        <ele>152</ele>
        <time>2022-05-27T07:11:16Z</time>
      </trkpt>
      <trkpt lat="48.55342" lon="-3.66107">
        <ele>152.3</ele>
        <time>2022-05-27T07:11:25Z</time>
      </trkpt>
      <trkpt lat="48.55389" lon="-3.66089">
        <ele>152.7</ele>
        <time>2022-05-27T07:11:34Z</time>
      </trkpt>
      <trkpt lat="48.5541" lon="-3.66083">
        <ele>152.9</ele>
        <time>2022-05-27T07:11:38Z</time>
      </trkpt>
      <trkpt lat="48.55435" lon="-3.66077">
        <ele>153.4</ele>
        <time>2022-05-27T07:11:43Z</time>
      </trkpt>
      <trkpt lat="48.55441" lon="-3.66076">
        <ele>153.5</ele>
        <time>2022-05-27T07:11:44Z</time>
      </trkpt>
      <trkpt lat="48.55484" lon="-3.66067">
        <ele>153.3</ele>
        <time>2022-05-27T07:11:52Z</time>
      </trkpt>
      <trkpt lat="48.55535" lon="-3.66067">
        <ele>153.1</ele>
        <time>2022-05-27T07:12:01Z</time>
      </trkpt>
      <trkpt lat="48.55584" lon="-3.6608">
        <ele>153</ele>
        <time>2022-05-27T07:12:09Z</time>
      </trkpt>
      <trkpt lat="48.55634" lon="-3.66084">
        <ele>152.8</ele>
        <time>2022-05-27T07:12:17Z</time>
      </trkpt>
      <trkpt lat="48.55658" lon="-3.66096">
        <ele>152.7</ele>
        <time>2022-05-27T07:12:21Z</time>
      </trkpt>
      <trkpt lat="48.55669" lon="-3.66118">
        <ele>152.7</ele>
        <time>2022-05-27T07:12:24Z</time>
      </trkpt>
      <trkpt lat="48.5568" lon="-3.66186">
        <ele>152.5</ele>
        <time>2022-05-27T07:12:32Z</time>
      </trkpt>
      <trkpt lat="48.55679" lon="-3.6625">
        <ele>152.4</ele>
        <time>2022-05-27T07:12:39Z</time>
      </trkpt>
      <trkpt lat="48.55662" lon="-3.6632">
        <ele>152.2</ele>
        <time>2022-05-27T07:12:47Z</time>
      </trkpt>
      <trkpt lat="48.55641" lon="-3.66381">
        <ele>152.1</ele>
        <time>2022-05-27T07:12:54Z</time>
      </trkpt>
      <trkpt lat="48.55623" lon="-3.66451">
        <ele>151.9</ele>
        <time>2022-05-27T07:13:02Z</time>
      </trkpt>
      <trkpt lat="48.55599" lon="-3.66518">
        <ele>151.8</ele>
        <time>2022-05-27T07:13:10Z</time>
      </trkpt>
      <trkpt lat="48.55569" lon="-3.66576">
        <ele>151.6</ele>
        <time>2022-05-27T07:13:18Z</time>
      </trkpt>
      <trkpt lat="48.55545" lon="-3.6664">
        <ele>151.5</ele>
        <time>2022-05-27T07:13:26Z</time>
      </trkpt>
      <trkpt lat="48.55531" lon="-3.66691">
        <ele>151.3</ele>
        <time>2022-05-27T07:13:32Z</time>
      </trkpt>
      <trkpt lat="48.55532" lon="-3.66727">
        <ele>151.3</ele>
        <time>2022-05-27T07:13:36Z</time>
      </trkpt>
      <trkpt lat="48.55549" lon="-3.66795">
        <ele>151.1</ele>
        <time>2022-05-27T07:13:44Z</time>
      </trkpt>
      <trkpt lat="48.55562" lon="-3.66861">
        <ele>150.9</ele>
        <time>2022-05-27T07:13:52Z</time>
      </trkpt>
      <trkpt lat="48.55571" lon="-3.66929">
        <ele>150.8</ele>
        <time>2022-05-27T07:14:00Z</time>
      </trkpt>
      <trkpt lat="48.55581" lon="-3.66996">
        <ele>150.6</ele>
        <time>2022-05-27T07:14:08Z</time>
      </trkpt>
      <trkpt lat="48.55596" lon="-3.67031">
        <ele>150.5</ele>
        <time>2022-05-27T07:14:13Z</time>
      </trkpt>
      <trkpt lat="48.55634" lon="-3.67076">
        <ele>150.4</ele>
        <time>2022-05-27T07:14:21Z</time>
      </trkpt>
      <trkpt lat="48.55667" lon="-3.6713">
        <ele>150.2</ele>
        <time>2022-05-27T07:14:28Z</time>
      </trkpt>
      <trkpt lat="48.55698" lon="-3.67179">
        <ele>150</ele>
        <time>2022-05-27T07:14:34Z</time>
      </trkpt>
      <trkpt lat="48.55703" lon="-3.67188">
        <ele>149.7</ele>
        <time>2022-05-27T07:14:35Z</time>
      </trkpt>
      <trkpt lat="48.55721" lon="-3.67224">
        <ele>148.6</ele>
        <time>2022-05-27T07:14:39Z</time>
      </trkpt>
      <trkpt lat="48.55723" lon="-3.67236">
        <ele>148.2</ele>
        <time>2022-05-27T07:14:40Z</time>
      </trkpt>
      <trkpt lat="48.55755" lon="-3.67288">
        <ele>146.1</ele>
        <time>2022-05-27T07:14:46Z</time>
      </trkpt>
      <trkpt lat="48.55764" lon="-3.67308">
        <ele>145.4</ele>
        <time>2022-05-27T07:14:48Z</time>
      </trkpt>
      <trkpt lat="48.55769" lon="-3.67345">
        <ele>144.3</ele>
        <time>2022-05-27T07:14:51Z</time>
      </trkpt>
      <trkpt lat="48.55769" lon="-3.67357">
        <ele>144.2</ele>
        <time>2022-05-27T07:14:52Z</time>
      </trkpt>
      <trkpt lat="48.55769" lon="-3.67392">
        <ele>144.7</ele>
        <time>2022-05-27T07:14:55Z</time>
      </trkpt>
      <trkpt lat="48.55793" lon="-3.67451">
        <ele>145.9</ele>
        <time>2022-05-27T07:15:02Z</time>
      </trkpt>
      <trkpt lat="48.55799" lon="-3.67463">
        <ele>146.3</ele>
        <time>2022-05-27T07:15:04Z</time>
      </trkpt>
      <trkpt lat="48.55817" lon="-3.675">
        <ele>149.3</ele>
        <time>2022-05-27T07:15:10Z</time>
      </trkpt>
      <trkpt lat="48.55821" lon="-3.67506">
        <ele>149.5</ele>
        <time>2022-05-27T07:15:11Z</time>
      </trkpt>
      <trkpt lat="48.55835" lon="-3.67529">
        <ele>150.5</ele>
        <time>2022-05-27T07:15:15Z</time>
      </trkpt>
      <trkpt lat="48.55868" lon="-3.67553">
        <ele>152.3</ele>
        <time>2022-05-27T07:15:22Z</time>
      </trkpt>
      <trkpt lat="48.55877" lon="-3.6756">
        <ele>152.8</ele>
        <time>2022-05-27T07:15:24Z</time>
      </trkpt>
      <trkpt lat="48.55916" lon="-3.67597">
        <ele>155.5</ele>
        <time>2022-05-27T07:15:34Z</time>
      </trkpt>
      <trkpt lat="48.55935" lon="-3.67618">
        <ele>157.1</ele>
        <time>2022-05-27T07:15:40Z</time>
      </trkpt>
      <trkpt lat="48.55949" lon="-3.6763">
        <ele>158.4</ele>
        <time>2022-05-27T07:15:44Z</time>
      </trkpt>
      <trkpt lat="48.55983" lon="-3.67611">
        <ele>160.9</ele>
        <time>2022-05-27T07:15:52Z</time>
      </trkpt>
      <trkpt lat="48.55991" lon="-3.67606">
        <ele>161.1</ele>
        <time>2022-05-27T07:15:54Z</time>
      </trkpt>
      <trkpt lat="48.56008" lon="-3.6759">
        <ele>161.6</ele>
        <time>2022-05-27T07:15:58Z</time>
      </trkpt>
      <trkpt lat="48.56016" lon="-3.67581">
        <ele>161.9</ele>
        <time>2022-05-27T07:16:00Z</time>
      </trkpt>
      <trkpt lat="48.56031" lon="-3.67564">
        <ele>162.3</ele>
        <time>2022-05-27T07:16:04Z</time>
      </trkpt>
      <trkpt lat="48.56055" lon="-3.67538">
        <ele>162.7</ele>
        <time>2022-05-27T07:16:10Z</time>
      </trkpt>
      <trkpt lat="48.561" lon="-3.67508">
        <ele>163.4</ele>
        <time>2022-05-27T07:16:19Z</time>
      </trkpt>
      <trkpt lat="48.56142" lon="-3.67476">
        <ele>163.9</ele>
        <time>2022-05-27T07:16:27Z</time>
      </trkpt>
      <trkpt lat="48.5618" lon="-3.67438">
        <ele>164.5</ele>
        <time>2022-05-27T07:16:35Z</time>
      </trkpt>
      <trkpt lat="48.56219" lon="-3.67395">
        <ele>165</ele>
        <time>2022-05-27T07:16:43Z</time>
      </trkpt>
      <trkpt lat="48.56252" lon="-3.6737">
        <ele>165.4</ele>
        <time>2022-05-27T07:16:49Z</time>
      </trkpt>
      <trkpt lat="48.56263" lon="-3.67361">
        <ele>165.3</ele>
        <time>2022-05-27T07:16:51Z</time>
      </trkpt>
      <trkpt lat="48.5629" lon="-3.67338">
        <ele>164.9</ele>
        <time>2022-05-27T07:16:57Z</time>
      </trkpt>
      <trkpt lat="48.56299" lon="-3.6734">
        <ele>164.8</ele>
        <time>2022-05-27T07:16:59Z</time>
      </trkpt>
      <trkpt lat="48.56326" lon="-3.67396">
        <ele>164.3</ele>
        <time>2022-05-27T07:17:08Z</time>
      </trkpt>
      <trkpt lat="48.56351" lon="-3.67459">
        <ele>163.8</ele>
        <time>2022-05-27T07:17:16Z</time>
      </trkpt>
      <trkpt lat="48.56387" lon="-3.67513">
        <ele>163.4</ele>
        <time>2022-05-27T07:17:23Z</time>
      </trkpt>
      <trkpt lat="48.56399" lon="-3.6753">
        <ele>163.2</ele>
        <time>2022-05-27T07:17:25Z</time>
      </trkpt>
      <trkpt lat="48.56423" lon="-3.67565">
        <ele>161.5</ele>
        <time>2022-05-27T07:17:29Z</time>
      </trkpt>
      <trkpt lat="48.56435" lon="-3.67583">
        <ele>160.8</ele>
        <time>2022-05-27T07:17:31Z</time>
      </trkpt>
      <trkpt lat="48.56439" lon="-3.67594">
        <ele>160.8</ele>
        <time>2022-05-27T07:17:32Z</time>
      </trkpt>
      <trkpt lat="48.56441" lon="-3.67607">
        <ele>160.7</ele>
        <time>2022-05-27T07:17:33Z</time>
      </trkpt>
      <trkpt lat="48.56471" lon="-3.6766">
        <ele>160.4</ele>
        <time>2022-05-27T07:17:39Z</time>
      </trkpt>
      <trkpt lat="48.56491" lon="-3.67686">
        <ele>160.3</ele>
        <time>2022-05-27T07:17:43Z</time>
      </trkpt>
      <trkpt lat="48.56496" lon="-3.67692">
        <ele>160.4</ele>
        <time>2022-05-27T07:17:44Z</time>
      </trkpt>
      <trkpt lat="48.56502" lon="-3.67697">
        <ele>160.6</ele>
        <time>2022-05-27T07:17:45Z</time>
      </trkpt>
      <trkpt lat="48.56521" lon="-3.67721">
        <ele>161.3</ele>
        <time>2022-05-27T07:17:49Z</time>
      </trkpt>
      <trkpt lat="48.56563" lon="-3.67756">
        <ele>162.4</ele>
        <time>2022-05-27T07:17:57Z</time>
      </trkpt>
      <trkpt lat="48.56603" lon="-3.67788">
        <ele>163.3</ele>
        <time>2022-05-27T07:18:04Z</time>
      </trkpt>
      <trkpt lat="48.56615" lon="-3.67796">
        <ele>163.6</ele>
        <time>2022-05-27T07:18:06Z</time>
      </trkpt>
      <trkpt lat="48.56644" lon="-3.67817">
        <ele>163.8</ele>
        <time>2022-05-27T07:18:11Z</time>
      </trkpt>
      <trkpt lat="48.56661" lon="-3.67831">
        <ele>163.9</ele>
        <time>2022-05-27T07:18:14Z</time>
      </trkpt>
      <trkpt lat="48.56701" lon="-3.67876">
        <ele>164.2</ele>
        <time>2022-05-27T07:18:22Z</time>
      </trkpt>
      <trkpt lat="48.56738" lon="-3.6792">
        <ele>164.5</ele>
        <time>2022-05-27T07:18:30Z</time>
      </trkpt>
      <trkpt lat="48.56776" lon="-3.67956">
        <ele>164.9</ele>
        <time>2022-05-27T07:18:40Z</time>
      </trkpt>
      <trkpt lat="48.56784" lon="-3.67966">
        <ele>165.1</ele>
        <time>2022-05-27T07:18:43Z</time>
      </trkpt>
      <trkpt lat="48.56789" lon="-3.68033">
        <ele>165.4</ele>
        <time>2022-05-27T07:18:52Z</time>
      </trkpt>
      <trkpt lat="48.56794" lon="-3.68108">
        <ele>165.8</ele>
        <time>2022-05-27T07:19:01Z</time>
      </trkpt>
      <trkpt lat="48.56799" lon="-3.68178">
        <ele>166.1</ele>
        <time>2022-05-27T07:19:09Z</time>
      </trkpt>
      <trkpt lat="48.56804" lon="-3.68247">
        <ele>166.4</ele>
        <time>2022-05-27T07:19:17Z</time>
      </trkpt>
      <trkpt lat="48.56808" lon="-3.68315">
        <ele>166.8</ele>
        <time>2022-05-27T07:19:25Z</time>
      </trkpt>
      <trkpt lat="48.56812" lon="-3.68375">
        <ele>167.1</ele>
        <time>2022-05-27T07:19:32Z</time>
      </trkpt>
      <trkpt lat="48.56813" lon="-3.68384">
        <ele>167.2</ele>
        <time>2022-05-27T07:19:33Z</time>
      </trkpt>
      <trkpt lat="48.56819" lon="-3.68452">
        <ele>167.9</ele>
        <time>2022-05-27T07:19:41Z</time>
      </trkpt>
      <trkpt lat="48.56824" lon="-3.68522">
        <ele>168.6</ele>
        <time>2022-05-27T07:19:49Z</time>
      </trkpt>
      <trkpt lat="48.56829" lon="-3.68597">
        <ele>169.5</ele>
        <time>2022-05-27T07:19:58Z</time>
      </trkpt>
      <trkpt lat="48.56832" lon="-3.68629">
        <ele>169.8</ele>
        <time>2022-05-27T07:20:02Z</time>
      </trkpt>
      <trkpt lat="48.56835" lon="-3.6867">
        <ele>170.6</ele>
        <time>2022-05-27T07:20:07Z</time>
      </trkpt>
      <trkpt lat="48.56841" lon="-3.68742">
        <ele>171.9</ele>
        <time>2022-05-27T07:20:16Z</time>
      </trkpt>
      <trkpt lat="48.56846" lon="-3.68817">
        <ele>173.2</ele>
        <time>2022-05-27T07:20:25Z</time>
      </trkpt>
      <trkpt lat="48.56846" lon="-3.68825">
        <ele>173.3</ele>
        <time>2022-05-27T07:20:26Z</time>
      </trkpt>
      <trkpt lat="48.56851" lon="-3.68894">
        <ele>172.8</ele>
        <time>2022-05-27T07:20:34Z</time>
      </trkpt>
      <trkpt lat="48.56855" lon="-3.68964">
        <ele>172.3</ele>
        <time>2022-05-27T07:20:41Z</time>
      </trkpt>
      <trkpt lat="48.5686" lon="-3.69038">
        <ele>171.8</ele>
        <time>2022-05-27T07:20:48Z</time>
      </trkpt>
      <trkpt lat="48.56866" lon="-3.691">
        <ele>171.4</ele>
        <time>2022-05-27T07:20:54Z</time>
      </trkpt>
      <trkpt lat="48.56867" lon="-3.69111">
        <ele>171.3</ele>
        <time>2022-05-27T07:20:55Z</time>
      </trkpt>
      <trkpt lat="48.56871" lon="-3.69182">
        <ele>171</ele>
        <time>2022-05-27T07:21:02Z</time>
      </trkpt>
      <trkpt lat="48.56876" lon="-3.69252">
        <ele>170.7</ele>
        <time>2022-05-27T07:21:09Z</time>
      </trkpt>
      <trkpt lat="48.56881" lon="-3.69323">
        <ele>170.4</ele>
        <time>2022-05-27T07:21:16Z</time>
      </trkpt>
      <trkpt lat="48.56885" lon="-3.69392">
        <ele>170</ele>
        <time>2022-05-27T07:21:23Z</time>
      </trkpt>
      <trkpt lat="48.56891" lon="-3.69462">
        <ele>169.7</ele>
        <time>2022-05-27T07:21:30Z</time>
      </trkpt>
      <trkpt lat="48.56896" lon="-3.69534">
        <ele>169.4</ele>
        <time>2022-05-27T07:21:37Z</time>
      </trkpt>
      <trkpt lat="48.56901" lon="-3.69604">
        <ele>169</ele>
        <time>2022-05-27T07:21:44Z</time>
      </trkpt>
      <trkpt lat="48.56906" lon="-3.69679">
        <ele>168.7</ele>
        <time>2022-05-27T07:21:52Z</time>
      </trkpt>
      <trkpt lat="48.56912" lon="-3.69748">
        <ele>168.3</ele>
        <time>2022-05-27T07:21:59Z</time>
      </trkpt>
      <trkpt lat="48.56916" lon="-3.69818">
        <ele>168</ele>
        <time>2022-05-27T07:22:06Z</time>
      </trkpt>
      <trkpt lat="48.5692" lon="-3.69888">
        <ele>167.1</ele>
        <time>2022-05-27T07:22:13Z</time>
      </trkpt>
      <trkpt lat="48.56925" lon="-3.69958">
        <ele>166.2</ele>
        <time>2022-05-27T07:22:20Z</time>
      </trkpt>
      <trkpt lat="48.56927" lon="-3.69995">
        <ele>165.7</ele>
        <time>2022-05-27T07:22:24Z</time>
      </trkpt>
      <trkpt lat="48.5693" lon="-3.70032">
        <ele>165.2</ele>
        <time>2022-05-27T07:22:28Z</time>
      </trkpt>
      <trkpt lat="48.56934" lon="-3.70099">
        <ele>164.3</ele>
        <time>2022-05-27T07:22:35Z</time>
      </trkpt>
      <trkpt lat="48.56938" lon="-3.70147">
        <ele>163.5</ele>
        <time>2022-05-27T07:22:40Z</time>
      </trkpt>
      <trkpt lat="48.5694" lon="-3.70175">
        <ele>162.9</ele>
        <time>2022-05-27T07:22:43Z</time>
      </trkpt>
      <trkpt lat="48.56945" lon="-3.70242">
        <ele>161.5</ele>
        <time>2022-05-27T07:22:51Z</time>
      </trkpt>
      <trkpt lat="48.5695" lon="-3.70277">
        <ele>160.4</ele>
        <time>2022-05-27T07:22:57Z</time>
      </trkpt>
      <trkpt lat="48.56952" lon="-3.70278">
        <ele>160.2</ele>
        <time>2022-05-27T07:22:58Z</time>
      </trkpt>
      <trkpt lat="48.56954" lon="-3.70282">
        <ele>160.1</ele>
        <time>2022-05-27T07:22:59Z</time>
      </trkpt>
      <trkpt lat="48.56969" lon="-3.70288">
        <ele>159.7</ele>
        <time>2022-05-27T07:23:01Z</time>
      </trkpt>
      <trkpt lat="48.56975" lon="-3.70294">
        <ele>159.5</ele>
        <time>2022-05-27T07:23:02Z</time>
      </trkpt>
      <trkpt lat="48.57011" lon="-3.70333">
        <ele>157.5</ele>
        <time>2022-05-27T07:23:08Z</time>
      </trkpt>
      <trkpt lat="48.57047" lon="-3.70375">
        <ele>154.4</ele>
        <time>2022-05-27T07:23:13Z</time>
      </trkpt>
      <trkpt lat="48.57055" lon="-3.70383">
        <ele>153.7</ele>
        <time>2022-05-27T07:23:14Z</time>
      </trkpt>
      <trkpt lat="48.57087" lon="-3.70418">
        <ele>150.3</ele>
        <time>2022-05-27T07:23:18Z</time>
      </trkpt>
      <trkpt lat="48.57105" lon="-3.70434">
        <ele>148.7</ele>
        <time>2022-05-27T07:23:20Z</time>
      </trkpt>
      <trkpt lat="48.57132" lon="-3.70458">
        <ele>146.8</ele>
        <time>2022-05-27T07:23:23Z</time>
      </trkpt>
      <trkpt lat="48.57161" lon="-3.70482">
        <ele>144.9</ele>
        <time>2022-05-27T07:23:26Z</time>
      </trkpt>
      <trkpt lat="48.57181" lon="-3.70498">
        <ele>143.5</ele>
        <time>2022-05-27T07:23:28Z</time>
      </trkpt>
      <trkpt lat="48.57199" lon="-3.70515">
        <ele>142.2</ele>
        <time>2022-05-27T07:23:30Z</time>
      </trkpt>
      <trkpt lat="48.57216" lon="-3.70535">
        <ele>141</ele>
        <time>2022-05-27T07:23:32Z</time>
      </trkpt>
      <trkpt lat="48.57225" lon="-3.70544">
        <ele>140.6</ele>
        <time>2022-05-27T07:23:33Z</time>
      </trkpt>
      <trkpt lat="48.57233" lon="-3.70554">
        <ele>140.2</ele>
        <time>2022-05-27T07:23:34Z</time>
      </trkpt>
      <trkpt lat="48.57279" lon="-3.70591">
        <ele>138</ele>
        <time>2022-05-27T07:23:39Z</time>
      </trkpt>
      <trkpt lat="48.57327" lon="-3.70621">
        <ele>135.9</ele>
        <time>2022-05-27T07:23:44Z</time>
      </trkpt>
      <trkpt lat="48.57346" lon="-3.70631">
        <ele>135.4</ele>
        <time>2022-05-27T07:23:46Z</time>
      </trkpt>
      <trkpt lat="48.57386" lon="-3.70666">
        <ele>134</ele>
        <time>2022-05-27T07:23:51Z</time>
      </trkpt>
      <trkpt lat="48.57387" lon="-3.70667">
        <ele>132.8</ele>
        <time>2022-05-27T07:23:56Z</time>
      </trkpt>
      <trkpt lat="48.57389" lon="-3.70668">
        <ele>132.2</ele>
        <time>2022-05-27T07:24:02Z</time>
      </trkpt>
      <trkpt lat="48.57391" lon="-3.70669">
        <ele>131.7</ele>
        <time>2022-05-27T07:24:08Z</time>
      </trkpt>
      <trkpt lat="48.5739" lon="-3.70669">
        <ele>132.3</ele>
        <time>2022-05-27T07:24:11Z</time>
      </trkpt>
      <trkpt lat="48.57359" lon="-3.70642">
        <ele>133.9</ele>
        <time>2022-05-27T07:24:20Z</time>
      </trkpt>
      <trkpt lat="48.5735" lon="-3.70633">
        <ele>133.6</ele>
        <time>2022-05-27T07:24:23Z</time>
      </trkpt>
      <trkpt lat="48.57348" lon="-3.70625">
        <ele>133.4</ele>
        <time>2022-05-27T07:24:25Z</time>
      </trkpt>
      <trkpt lat="48.57354" lon="-3.70618">
        <ele>133.2</ele>
        <time>2022-05-27T07:24:28Z</time>
      </trkpt>
      <trkpt lat="48.57371" lon="-3.70617">
        <ele>132.7</ele>
        <time>2022-05-27T07:24:32Z</time>
      </trkpt>
      <trkpt lat="48.57397" lon="-3.70616">
        <ele>131.7</ele>
        <time>2022-05-27T07:24:38Z</time>
      </trkpt>
      <trkpt lat="48.57402" lon="-3.70616">
        <ele>131.7</ele>
        <time>2022-05-27T07:24:39Z</time>
      </trkpt>
      <trkpt lat="48.57447" lon="-3.70613">
        <ele>131.4</ele>
        <time>2022-05-27T07:24:46Z</time>
      </trkpt>
      <trkpt lat="48.57464" lon="-3.70612">
        <ele>131.2</ele>
        <time>2022-05-27T07:24:49Z</time>
      </trkpt>
      <trkpt lat="48.57492" lon="-3.70611">
        <ele>130.2</ele>
        <time>2022-05-27T07:24:54Z</time>
      </trkpt>
      <trkpt lat="48.5753" lon="-3.70615">
        <ele>129.1</ele>
        <time>2022-05-27T07:25:00Z</time>
      </trkpt>
      <trkpt lat="48.57542" lon="-3.70616">
        <ele>129.3</ele>
        <time>2022-05-27T07:25:02Z</time>
      </trkpt>
      <trkpt lat="48.57555" lon="-3.70618">
        <ele>129.9</ele>
        <time>2022-05-27T07:25:06Z</time>
      </trkpt>
      <trkpt lat="48.57575" lon="-3.7062">
        <ele>129.2</ele>
        <time>2022-05-27T07:25:12Z</time>
      </trkpt>
      <trkpt lat="48.57588" lon="-3.70621">
        <ele>126.9</ele>
        <time>2022-05-27T07:25:16Z</time>
      </trkpt>
      <trkpt lat="48.57595" lon="-3.70622">
        <ele>125.9</ele>
        <time>2022-05-27T07:25:18Z</time>
      </trkpt>
      <trkpt lat="48.57617" lon="-3.70624">
        <ele>126.1</ele>
        <time>2022-05-27T07:25:24Z</time>
      </trkpt>
      <trkpt lat="48.57639" lon="-3.70626">
        <ele>125.7</ele>
        <time>2022-05-27T07:25:30Z</time>
      </trkpt>
      <trkpt lat="48.57687" lon="-3.70634">
        <ele>126.8</ele>
        <time>2022-05-27T07:25:39Z</time>
      </trkpt>
      <trkpt lat="48.57703" lon="-3.70636">
        <ele>127.1</ele>
        <time>2022-05-27T07:25:42Z</time>
      </trkpt>
      <trkpt lat="48.57735" lon="-3.7064">
        <ele>124.8</ele>
        <time>2022-05-27T07:25:48Z</time>
      </trkpt>
      <trkpt lat="48.57783" lon="-3.70654">
        <ele>124.9</ele>
        <time>2022-05-27T07:25:56Z</time>
      </trkpt>
      <trkpt lat="48.57797" lon="-3.70659">
        <ele>125</ele>
        <time>2022-05-27T07:26:00Z</time>
      </trkpt>
      <trkpt lat="48.57804" lon="-3.70667">
        <ele>125.1</ele>
        <time>2022-05-27T07:26:02Z</time>
      </trkpt>
      <trkpt lat="48.57804" lon="-3.70679">
        <ele>125.2</ele>
        <time>2022-05-27T07:26:03Z</time>
      </trkpt>
      <trkpt lat="48.57798" lon="-3.70755">
        <ele>125.9</ele>
        <time>2022-05-27T07:26:13Z</time>
      </trkpt>
      <trkpt lat="48.5779" lon="-3.7079">
        <ele>126.3</ele>
        <time>2022-05-27T07:26:18Z</time>
      </trkpt>
      <trkpt lat="48.57787" lon="-3.70798">
        <ele>126.4</ele>
        <time>2022-05-27T07:26:19Z</time>
      </trkpt>
      <trkpt lat="48.57769" lon="-3.70866">
        <ele>127.5</ele>
        <time>2022-05-27T07:26:28Z</time>
      </trkpt>
      <trkpt lat="48.57762" lon="-3.70881">
        <ele>127.6</ele>
        <time>2022-05-27T07:26:30Z</time>
      </trkpt>
      <trkpt lat="48.57743" lon="-3.70925">
        <ele>126.5</ele>
        <time>2022-05-27T07:26:36Z</time>
      </trkpt>
      <trkpt lat="48.57722" lon="-3.70966">
        <ele>125.6</ele>
        <time>2022-05-27T07:26:42Z</time>
      </trkpt>
      <trkpt lat="48.57715" lon="-3.7098">
        <ele>126.4</ele>
        <time>2022-05-27T07:26:44Z</time>
      </trkpt>
      <trkpt lat="48.57705" lon="-3.71">
        <ele>127.5</ele>
        <time>2022-05-27T07:26:47Z</time>
      </trkpt>
      <trkpt lat="48.57704" lon="-3.71023">
        <ele>127.7</ele>
        <time>2022-05-27T07:26:50Z</time>
      </trkpt>
      <trkpt lat="48.57715" lon="-3.71034">
        <ele>127.7</ele>
        <time>2022-05-27T07:26:52Z</time>
      </trkpt>
      <trkpt lat="48.57726" lon="-3.71046">
        <ele>127.3</ele>
        <time>2022-05-27T07:26:54Z</time>
      </trkpt>
      <trkpt lat="48.57737" lon="-3.7107">
        <ele>126.8</ele>
        <time>2022-05-27T07:26:57Z</time>
      </trkpt>
      <trkpt lat="48.57752" lon="-3.71101">
        <ele>126.5</ele>
        <time>2022-05-27T07:27:01Z</time>
      </trkpt>
      <trkpt lat="48.57773" lon="-3.71169">
        <ele>125.9</ele>
        <time>2022-05-27T07:27:09Z</time>
      </trkpt>
      <trkpt lat="48.57793" lon="-3.71233">
        <ele>125.3</ele>
        <time>2022-05-27T07:27:17Z</time>
      </trkpt>
      <trkpt lat="48.57822" lon="-3.71279">
        <ele>124</ele>
        <time>2022-05-27T07:27:34Z</time>
      </trkpt>
      <trkpt lat="48.57823" lon="-3.71284">
        <ele>124</ele>
        <time>2022-05-27T07:27:35Z</time>
      </trkpt>
      <trkpt lat="48.5785" lon="-3.71324">
        <ele>123.3</ele>
        <time>2022-05-27T07:27:43Z</time>
      </trkpt>
      <trkpt lat="48.5786" lon="-3.71347">
        <ele>123.1</ele>
        <time>2022-05-27T07:27:46Z</time>
      </trkpt>
      <trkpt lat="48.57882" lon="-3.71395">
        <ele>122.7</ele>
        <time>2022-05-27T07:27:52Z</time>
      </trkpt>
      <trkpt lat="48.57902" lon="-3.7146">
        <ele>122.1</ele>
        <time>2022-05-27T07:27:59Z</time>
      </trkpt>
      <trkpt lat="48.57919" lon="-3.71531">
        <ele>121.7</ele>
        <time>2022-05-27T07:28:05Z</time>
      </trkpt>
      <trkpt lat="48.57921" lon="-3.71554">
        <ele>121.5</ele>
        <time>2022-05-27T07:28:07Z</time>
      </trkpt>
      <trkpt lat="48.57925" lon="-3.71577">
        <ele>121.4</ele>
        <time>2022-05-27T07:28:09Z</time>
      </trkpt>
      <trkpt lat="48.57928" lon="-3.716">
        <ele>121.3</ele>
        <time>2022-05-27T07:28:11Z</time>
      </trkpt>
      <trkpt lat="48.5794" lon="-3.71627">
        <ele>121.1</ele>
        <time>2022-05-27T07:28:14Z</time>
      </trkpt>
      <trkpt lat="48.57973" lon="-3.71642">
        <ele>120.9</ele>
        <time>2022-05-27T07:28:19Z</time>
      </trkpt>
      <trkpt lat="48.57986" lon="-3.71647">
        <ele>120.6</ele>
        <time>2022-05-27T07:28:21Z</time>
      </trkpt>
      <trkpt lat="48.58038" lon="-3.71656">
        <ele>119.9</ele>
        <time>2022-05-27T07:28:28Z</time>
      </trkpt>
      <trkpt lat="48.5809" lon="-3.71665">
        <ele>119.1</ele>
        <time>2022-05-27T07:28:35Z</time>
      </trkpt>
      <trkpt lat="48.58103" lon="-3.71675">
        <ele>118.9</ele>
        <time>2022-05-27T07:28:37Z</time>
      </trkpt>
      <trkpt lat="48.58136" lon="-3.71701">
        <ele>118.6</ele>
        <time>2022-05-27T07:28:42Z</time>
      </trkpt>
      <trkpt lat="48.58141" lon="-3.71709">
        <ele>118.6</ele>
        <time>2022-05-27T07:28:43Z</time>
      </trkpt>
      <trkpt lat="48.58172" lon="-3.71753">
        <ele>118.4</ele>
        <time>2022-05-27T07:28:49Z</time>
      </trkpt>
      <trkpt lat="48.58197" lon="-3.7181">
        <ele>118.3</ele>
        <time>2022-05-27T07:28:56Z</time>
      </trkpt>
      <trkpt lat="48.58223" lon="-3.71866">
        <ele>118.1</ele>
        <time>2022-05-27T07:29:03Z</time>
      </trkpt>
      <trkpt lat="48.58255" lon="-3.71925">
        <ele>117.9</ele>
        <time>2022-05-27T07:29:11Z</time>
      </trkpt>
      <trkpt lat="48.5829" lon="-3.71975">
        <ele>117.8</ele>
        <time>2022-05-27T07:29:19Z</time>
      </trkpt>
      <trkpt lat="48.58328" lon="-3.7202">
        <ele>117.6</ele>
        <time>2022-05-27T07:29:27Z</time>
      </trkpt>
      <trkpt lat="48.58361" lon="-3.72049">
        <ele>117.5</ele>
        <time>2022-05-27T07:29:33Z</time>
      </trkpt>
      <trkpt lat="48.58408" lon="-3.72067">
        <ele>117.3</ele>
        <time>2022-05-27T07:29:40Z</time>
      </trkpt>
      <trkpt lat="48.58455" lon="-3.72079">
        <ele>117.2</ele>
        <time>2022-05-27T07:29:47Z</time>
      </trkpt>
      <trkpt lat="48.5849" lon="-3.72109">
        <ele>117</ele>
        <time>2022-05-27T07:29:53Z</time>
      </trkpt>
      <trkpt lat="48.58533" lon="-3.72135">
        <ele>116.9</ele>
        <time>2022-05-27T07:30:00Z</time>
      </trkpt>
      <trkpt lat="48.58539" lon="-3.72137">
        <ele>116.8</ele>
        <time>2022-05-27T07:30:01Z</time>
      </trkpt>
      <trkpt lat="48.5859" lon="-3.72142">
        <ele>116.7</ele>
        <time>2022-05-27T07:30:09Z</time>
      </trkpt>
      <trkpt lat="48.58639" lon="-3.7215">
        <ele>116.5</ele>
        <time>2022-05-27T07:30:17Z</time>
      </trkpt>
      <trkpt lat="48.58684" lon="-3.72154">
        <ele>116.3</ele>
        <time>2022-05-27T07:30:24Z</time>
      </trkpt>
      <trkpt lat="48.58703" lon="-3.72142">
        <ele>116.3</ele>
        <time>2022-05-27T07:30:27Z</time>
      </trkpt>
      <trkpt lat="48.58747" lon="-3.72109">
        <ele>116.1</ele>
        <time>2022-05-27T07:30:34Z</time>
      </trkpt>
      <trkpt lat="48.58796" lon="-3.72094">
        <ele>116</ele>
        <time>2022-05-27T07:30:41Z</time>
      </trkpt>
      <trkpt lat="48.58805" lon="-3.72095">
        <ele>115.9</ele>
        <time>2022-05-27T07:30:42Z</time>
      </trkpt>
      <trkpt lat="48.58829" lon="-3.72097">
        <ele>115.2</ele>
        <time>2022-05-27T07:30:45Z</time>
      </trkpt>
      <trkpt lat="48.58876" lon="-3.72107">
        <ele>113.8</ele>
        <time>2022-05-27T07:30:51Z</time>
      </trkpt>
      <trkpt lat="48.58925" lon="-3.72119">
        <ele>112.4</ele>
        <time>2022-05-27T07:30:57Z</time>
      </trkpt>
      <trkpt lat="48.58942" lon="-3.72121">
        <ele>111.9</ele>
        <time>2022-05-27T07:30:59Z</time>
      </trkpt>
      <trkpt lat="48.58977" lon="-3.72126">
        <ele>109.7</ele>
        <time>2022-05-27T07:31:03Z</time>
      </trkpt>
      <trkpt lat="48.58995" lon="-3.72128">
        <ele>108.6</ele>
        <time>2022-05-27T07:31:05Z</time>
      </trkpt>
      <trkpt lat="48.59022" lon="-3.7213">
        <ele>107.1</ele>
        <time>2022-05-27T07:31:08Z</time>
      </trkpt>
      <trkpt lat="48.59047" lon="-3.72115">
        <ele>105.6</ele>
        <time>2022-05-27T07:31:11Z</time>
      </trkpt>
      <trkpt lat="48.59072" lon="-3.72093">
        <ele>104.2</ele>
        <time>2022-05-27T07:31:14Z</time>
      </trkpt>
      <trkpt lat="48.59082" lon="-3.72096">
        <ele>103.7</ele>
        <time>2022-05-27T07:31:15Z</time>
      </trkpt>
      <trkpt lat="48.59092" lon="-3.72097">
        <ele>103.3</ele>
        <time>2022-05-27T07:31:16Z</time>
      </trkpt>
      <trkpt lat="48.5913" lon="-3.72098">
        <ele>102.8</ele>
        <time>2022-05-27T07:31:20Z</time>
      </trkpt>
      <trkpt lat="48.59139" lon="-3.72096">
        <ele>102.7</ele>
        <time>2022-05-27T07:31:21Z</time>
      </trkpt>
      <trkpt lat="48.59192" lon="-3.72103">
        <ele>102</ele>
        <time>2022-05-27T07:31:27Z</time>
      </trkpt>
      <trkpt lat="48.59199" lon="-3.72104">
        <ele>101.9</ele>
        <time>2022-05-27T07:31:28Z</time>
      </trkpt>
      <trkpt lat="48.59238" lon="-3.7211">
        <ele>101.7</ele>
        <time>2022-05-27T07:31:33Z</time>
      </trkpt>
      <trkpt lat="48.59274" lon="-3.72101">
        <ele>101.5</ele>
        <time>2022-05-27T07:31:38Z</time>
      </trkpt>
      <trkpt lat="48.59293" lon="-3.72088">
        <ele>101.4</ele>
        <time>2022-05-27T07:31:41Z</time>
      </trkpt>
      <trkpt lat="48.5934" lon="-3.72087">
        <ele>101.1</ele>
        <time>2022-05-27T07:31:47Z</time>
      </trkpt>
      <trkpt lat="48.59386" lon="-3.72087">
        <ele>100.9</ele>
        <time>2022-05-27T07:31:53Z</time>
      </trkpt>
      <trkpt lat="48.59438" lon="-3.72094">
        <ele>100.6</ele>
        <time>2022-05-27T07:32:00Z</time>
      </trkpt>
      <trkpt lat="48.59467" lon="-3.72106">
        <ele>100.4</ele>
        <time>2022-05-27T07:32:04Z</time>
      </trkpt>
      <trkpt lat="48.59512" lon="-3.72117">
        <ele>100.1</ele>
        <time>2022-05-27T07:32:11Z</time>
      </trkpt>
      <trkpt lat="48.59557" lon="-3.7213">
        <ele>99.9</ele>
        <time>2022-05-27T07:32:18Z</time>
      </trkpt>
      <trkpt lat="48.59605" lon="-3.72135">
        <ele>99.6</ele>
        <time>2022-05-27T07:32:25Z</time>
      </trkpt>
      <trkpt lat="48.59656" lon="-3.72131">
        <ele>99.3</ele>
        <time>2022-05-27T07:32:32Z</time>
      </trkpt>
      <trkpt lat="48.59701" lon="-3.72123">
        <ele>99.1</ele>
        <time>2022-05-27T07:32:38Z</time>
      </trkpt>
      <trkpt lat="48.59747" lon="-3.7213">
        <ele>98.8</ele>
        <time>2022-05-27T07:32:44Z</time>
      </trkpt>
      <trkpt lat="48.5976" lon="-3.72136">
        <ele>98.7</ele>
        <time>2022-05-27T07:32:46Z</time>
      </trkpt>
      <trkpt lat="48.59793" lon="-3.72149">
        <ele>98</ele>
        <time>2022-05-27T07:32:51Z</time>
      </trkpt>
      <trkpt lat="48.59797" lon="-3.72152">
        <ele>97.9</ele>
        <time>2022-05-27T07:32:52Z</time>
      </trkpt>
      <trkpt lat="48.59819" lon="-3.72169">
        <ele>97.6</ele>
        <time>2022-05-27T07:32:57Z</time>
      </trkpt>
      <trkpt lat="48.59823" lon="-3.72169">
        <ele>97.5</ele>
        <time>2022-05-27T07:32:58Z</time>
      </trkpt>
      <trkpt lat="48.59828" lon="-3.72162">
        <ele>97.3</ele>
        <time>2022-05-27T07:32:59Z</time>
      </trkpt>
      <trkpt lat="48.59839" lon="-3.72164">
        <ele>97</ele>
        <time>2022-05-27T07:33:01Z</time>
      </trkpt>
      <trkpt lat="48.59878" lon="-3.72211">
        <ele>96</ele>
        <time>2022-05-27T07:33:07Z</time>
      </trkpt>
      <trkpt lat="48.59916" lon="-3.72248">
        <ele>95</ele>
        <time>2022-05-27T07:33:13Z</time>
      </trkpt>
      <trkpt lat="48.59957" lon="-3.72286">
        <ele>93.5</ele>
        <time>2022-05-27T07:33:19Z</time>
      </trkpt>
      <trkpt lat="48.60002" lon="-3.72313">
        <ele>91.8</ele>
        <time>2022-05-27T07:33:25Z</time>
      </trkpt>
      <trkpt lat="48.60047" lon="-3.7234">
        <ele>90</ele>
        <time>2022-05-27T07:33:31Z</time>
      </trkpt>
      <trkpt lat="48.60089" lon="-3.72381">
        <ele>89.1</ele>
        <time>2022-05-27T07:33:37Z</time>
      </trkpt>
      <trkpt lat="48.60127" lon="-3.72429">
        <ele>88.5</ele>
        <time>2022-05-27T07:33:43Z</time>
      </trkpt>
      <trkpt lat="48.60163" lon="-3.72478">
        <ele>87.9</ele>
        <time>2022-05-27T07:33:49Z</time>
      </trkpt>
      <trkpt lat="48.60198" lon="-3.72522">
        <ele>87</ele>
        <time>2022-05-27T07:33:55Z</time>
      </trkpt>
      <trkpt lat="48.60235" lon="-3.7257">
        <ele>86</ele>
        <time>2022-05-27T07:34:01Z</time>
      </trkpt>
      <trkpt lat="48.6027" lon="-3.72615">
        <ele>83</ele>
        <time>2022-05-27T07:34:06Z</time>
      </trkpt>
      <trkpt lat="48.60276" lon="-3.72626">
        <ele>82.3</ele>
        <time>2022-05-27T07:34:07Z</time>
      </trkpt>
      <trkpt lat="48.60304" lon="-3.7267">
        <ele>79.3</ele>
        <time>2022-05-27T07:34:11Z</time>
      </trkpt>
      <trkpt lat="48.60316" lon="-3.72693">
        <ele>77.8</ele>
        <time>2022-05-27T07:34:13Z</time>
      </trkpt>
      <trkpt lat="48.60334" lon="-3.72727">
        <ele>75.8</ele>
        <time>2022-05-27T07:34:16Z</time>
      </trkpt>
      <trkpt lat="48.60344" lon="-3.72749">
        <ele>74.5</ele>
        <time>2022-05-27T07:34:18Z</time>
      </trkpt>
      <trkpt lat="48.60343" lon="-3.72762">
        <ele>73.9</ele>
        <time>2022-05-27T07:34:19Z</time>
      </trkpt>
      <trkpt lat="48.60349" lon="-3.72842">
        <ele>70.8</ele>
        <time>2022-05-27T07:34:25Z</time>
      </trkpt>
      <trkpt lat="48.60356" lon="-3.72919">
        <ele>69.8</ele>
        <time>2022-05-27T07:34:31Z</time>
      </trkpt>
      <trkpt lat="48.60355" lon="-3.72966">
        <ele>69.2</ele>
        <time>2022-05-27T07:34:35Z</time>
      </trkpt>
      <trkpt lat="48.60353" lon="-3.72978">
        <ele>69</ele>
        <time>2022-05-27T07:34:36Z</time>
      </trkpt>
      <trkpt lat="48.60343" lon="-3.73037">
        <ele>67.6</ele>
        <time>2022-05-27T07:34:41Z</time>
      </trkpt>
      <trkpt lat="48.60342" lon="-3.73113">
        <ele>65.9</ele>
        <time>2022-05-27T07:34:47Z</time>
      </trkpt>
      <trkpt lat="48.60341" lon="-3.73192">
        <ele>64.1</ele>
        <time>2022-05-27T07:34:53Z</time>
      </trkpt>
      <trkpt lat="48.60343" lon="-3.73205">
        <ele>63.8</ele>
        <time>2022-05-27T07:34:54Z</time>
      </trkpt>
      <trkpt lat="48.60348" lon="-3.7326">
        <ele>62</ele>
        <time>2022-05-27T07:34:58Z</time>
      </trkpt>
      <trkpt lat="48.60348" lon="-3.73333">
        <ele>59.9</ele>
        <time>2022-05-27T07:35:03Z</time>
      </trkpt>
      <trkpt lat="48.60346" lon="-3.73375">
        <ele>58.7</ele>
        <time>2022-05-27T07:35:06Z</time>
      </trkpt>
      <trkpt lat="48.60344" lon="-3.73403">
        <ele>58.5</ele>
        <time>2022-05-27T07:35:08Z</time>
      </trkpt>
      <trkpt lat="48.6035" lon="-3.73476">
        <ele>58</ele>
        <time>2022-05-27T07:35:14Z</time>
      </trkpt>
      <trkpt lat="48.60347" lon="-3.73495">
        <ele>57.9</ele>
        <time>2022-05-27T07:35:16Z</time>
      </trkpt>
      <trkpt lat="48.60339" lon="-3.73549">
        <ele>59.9</ele>
        <time>2022-05-27T07:35:22Z</time>
      </trkpt>
      <trkpt lat="48.60335" lon="-3.73587">
        <ele>61.4</ele>
        <time>2022-05-27T07:35:27Z</time>
      </trkpt>
      <trkpt lat="48.60337" lon="-3.73632">
        <ele>63.4</ele>
        <time>2022-05-27T07:35:34Z</time>
      </trkpt>
      <trkpt lat="48.60338" lon="-3.73658">
        <ele>64.5</ele>
        <time>2022-05-27T07:35:38Z</time>
      </trkpt>
      <trkpt lat="48.60349" lon="-3.73704">
        <ele>66.5</ele>
        <time>2022-05-27T07:35:46Z</time>
      </trkpt>
      <trkpt lat="48.60354" lon="-3.73722">
        <ele>67.3</ele>
        <time>2022-05-27T07:35:49Z</time>
      </trkpt>
      <trkpt lat="48.60372" lon="-3.7377">
        <ele>69.7</ele>
        <time>2022-05-27T07:35:58Z</time>
      </trkpt>
      <trkpt lat="48.60376" lon="-3.73781">
        <ele>70.2</ele>
        <time>2022-05-27T07:36:00Z</time>
      </trkpt>
      <trkpt lat="48.60397" lon="-3.73841">
        <ele>72.7</ele>
        <time>2022-05-27T07:36:10Z</time>
      </trkpt>
      <trkpt lat="48.60398" lon="-3.73847">
        <ele>72.8</ele>
        <time>2022-05-27T07:36:11Z</time>
      </trkpt>
      <trkpt lat="48.60404" lon="-3.7389">
        <ele>73.5</ele>
        <time>2022-05-27T07:36:17Z</time>
      </trkpt>
      <trkpt lat="48.60404" lon="-3.73898">
        <ele>73.6</ele>
        <time>2022-05-27T07:36:18Z</time>
      </trkpt>
      <trkpt lat="48.60408" lon="-3.73929">
        <ele>74.1</ele>
        <time>2022-05-27T07:36:22Z</time>
      </trkpt>
      <trkpt lat="48.60412" lon="-3.73969">
        <ele>73.9</ele>
        <time>2022-05-27T07:36:27Z</time>
      </trkpt>
      <trkpt lat="48.60418" lon="-3.74026">
        <ele>73.7</ele>
        <time>2022-05-27T07:36:34Z</time>
      </trkpt>
      <trkpt lat="48.60423" lon="-3.74034">
        <ele>73.7</ele>
        <time>2022-05-27T07:36:35Z</time>
      </trkpt>
      <trkpt lat="48.60431" lon="-3.74065">
        <ele>73.5</ele>
        <time>2022-05-27T07:36:39Z</time>
      </trkpt>
      <trkpt lat="48.60451" lon="-3.74131">
        <ele>73.2</ele>
        <time>2022-05-27T07:36:46Z</time>
      </trkpt>
      <trkpt lat="48.60463" lon="-3.74184">
        <ele>71.8</ele>
        <time>2022-05-27T07:36:51Z</time>
      </trkpt>
      <trkpt lat="48.60463" lon="-3.74196">
        <ele>71.5</ele>
        <time>2022-05-27T07:36:52Z</time>
      </trkpt>
      <trkpt lat="48.6046" lon="-3.74256">
        <ele>69.8</ele>
        <time>2022-05-27T07:36:57Z</time>
      </trkpt>
      <trkpt lat="48.60458" lon="-3.7432">
        <ele>68.2</ele>
        <time>2022-05-27T07:37:02Z</time>
      </trkpt>
      <trkpt lat="48.60454" lon="-3.74346">
        <ele>67.5</ele>
        <time>2022-05-27T07:37:04Z</time>
      </trkpt>
      <trkpt lat="48.60444" lon="-3.74399">
        <ele>65.4</ele>
        <time>2022-05-27T07:37:08Z</time>
      </trkpt>
      <trkpt lat="48.60428" lon="-3.74469">
        <ele>62.8</ele>
        <time>2022-05-27T07:37:13Z</time>
      </trkpt>
      <trkpt lat="48.6042" lon="-3.74501">
        <ele>61.6</ele>
        <time>2022-05-27T07:37:15Z</time>
      </trkpt>
      <trkpt lat="48.60408" lon="-3.7455">
        <ele>58.7</ele>
        <time>2022-05-27T07:37:18Z</time>
      </trkpt>
      <trkpt lat="48.60399" lon="-3.74583">
        <ele>56.8</ele>
        <time>2022-05-27T07:37:20Z</time>
      </trkpt>
      <trkpt lat="48.60389" lon="-3.74616">
        <ele>55.1</ele>
        <time>2022-05-27T07:37:22Z</time>
      </trkpt>
      <trkpt lat="48.60369" lon="-3.74661">
        <ele>52.5</ele>
        <time>2022-05-27T07:37:25Z</time>
      </trkpt>
      <trkpt lat="48.60362" lon="-3.74676">
        <ele>51.8</ele>
        <time>2022-05-27T07:37:26Z</time>
      </trkpt>
      <trkpt lat="48.60339" lon="-3.74737">
        <ele>49.4</ele>
        <time>2022-05-27T07:37:30Z</time>
      </trkpt>
      <trkpt lat="48.60324" lon="-3.74799">
        <ele>51</ele>
        <time>2022-05-27T07:37:35Z</time>
      </trkpt>
      <trkpt lat="48.60319" lon="-3.74847">
        <ele>55.4</ele>
        <time>2022-05-27T07:37:41Z</time>
      </trkpt>
      <trkpt lat="48.60316" lon="-3.74871">
        <ele>57</ele>
        <time>2022-05-27T07:37:44Z</time>
      </trkpt>
      <trkpt lat="48.60314" lon="-3.7489">
        <ele>58.4</ele>
        <time>2022-05-27T07:37:47Z</time>
      </trkpt>
      <trkpt lat="48.60311" lon="-3.74909">
        <ele>59.5</ele>
        <time>2022-05-27T07:37:50Z</time>
      </trkpt>
      <trkpt lat="48.60304" lon="-3.74961">
        <ele>62.5</ele>
        <time>2022-05-27T07:37:59Z</time>
      </trkpt>
      <trkpt lat="48.60302" lon="-3.74979">
        <ele>63.6</ele>
        <time>2022-05-27T07:38:02Z</time>
      </trkpt>
      <trkpt lat="48.60296" lon="-3.74999">
        <ele>65</ele>
        <time>2022-05-27T07:38:06Z</time>
      </trkpt>
      <trkpt lat="48.60293" lon="-3.75003">
        <ele>65.4</ele>
        <time>2022-05-27T07:38:07Z</time>
      </trkpt>
      <trkpt lat="48.60287" lon="-3.75024">
        <ele>66.8</ele>
        <time>2022-05-27T07:38:11Z</time>
      </trkpt>
      <trkpt lat="48.60274" lon="-3.75065">
        <ele>69.5</ele>
        <time>2022-05-27T07:38:19Z</time>
      </trkpt>
      <trkpt lat="48.60272" lon="-3.75083">
        <ele>70.9</ele>
        <time>2022-05-27T07:38:23Z</time>
      </trkpt>
      <trkpt lat="48.60265" lon="-3.75134">
        <ele>74.4</ele>
        <time>2022-05-27T07:38:35Z</time>
      </trkpt>
      <trkpt lat="48.60265" lon="-3.7514">
        <ele>74.6</ele>
        <time>2022-05-27T07:38:36Z</time>
      </trkpt>
      <trkpt lat="48.6026" lon="-3.75173">
        <ele>75.6</ele>
        <time>2022-05-27T07:38:41Z</time>
      </trkpt>
      <trkpt lat="48.60255" lon="-3.75207">
        <ele>76.6</ele>
        <time>2022-05-27T07:38:46Z</time>
      </trkpt>
      <trkpt lat="48.60255" lon="-3.75278">
        <ele>78.8</ele>
        <time>2022-05-27T07:38:57Z</time>
      </trkpt>
      <trkpt lat="48.60256" lon="-3.75292">
        <ele>79.2</ele>
        <time>2022-05-27T07:38:59Z</time>
      </trkpt>
      <trkpt lat="48.60262" lon="-3.75347">
        <ele>80.1</ele>
        <time>2022-05-27T07:39:07Z</time>
      </trkpt>
      <trkpt lat="48.60263" lon="-3.7538">
        <ele>80.5</ele>
        <time>2022-05-27T07:39:11Z</time>
      </trkpt>
      <trkpt lat="48.60265" lon="-3.75421">
        <ele>81</ele>
        <time>2022-05-27T07:39:16Z</time>
      </trkpt>
      <trkpt lat="48.60261" lon="-3.75489">
        <ele>81.9</ele>
        <time>2022-05-27T07:39:24Z</time>
      </trkpt>
      <trkpt lat="48.60252" lon="-3.75557">
        <ele>82.8</ele>
        <time>2022-05-27T07:39:33Z</time>
      </trkpt>
      <trkpt lat="48.60247" lon="-3.75567">
        <ele>83.2</ele>
        <time>2022-05-27T07:39:36Z</time>
      </trkpt>
      <trkpt lat="48.60222" lon="-3.75585">
        <ele>84.1</ele>
        <time>2022-05-27T07:39:44Z</time>
      </trkpt>
      <trkpt lat="48.60204" lon="-3.75598">
        <ele>85.7</ele>
        <time>2022-05-27T07:39:50Z</time>
      </trkpt>
      <trkpt lat="48.60183" lon="-3.75624">
        <ele>87.1</ele>
        <time>2022-05-27T07:39:57Z</time>
      </trkpt>
      <trkpt lat="48.60177" lon="-3.75643">
        <ele>87.7</ele>
        <time>2022-05-27T07:40:00Z</time>
      </trkpt>
      <trkpt lat="48.60174" lon="-3.75657">
        <ele>88.1</ele>
        <time>2022-05-27T07:40:02Z</time>
      </trkpt>
      <trkpt lat="48.60166" lon="-3.757">
        <ele>88.3</ele>
        <time>2022-05-27T07:40:08Z</time>
      </trkpt>
      <trkpt lat="48.60163" lon="-3.75714">
        <ele>88.1</ele>
        <time>2022-05-27T07:40:10Z</time>
      </trkpt>
      <trkpt lat="48.60159" lon="-3.75753">
        <ele>87.4</ele>
        <time>2022-05-27T07:40:15Z</time>
      </trkpt>
      <trkpt lat="48.6016" lon="-3.75826">
        <ele>86.1</ele>
        <time>2022-05-27T07:40:24Z</time>
      </trkpt>
      <trkpt lat="48.60159" lon="-3.75868">
        <ele>85.4</ele>
        <time>2022-05-27T07:40:29Z</time>
      </trkpt>
      <trkpt lat="48.60175" lon="-3.75901">
        <ele>84.9</ele>
        <time>2022-05-27T07:40:33Z</time>
      </trkpt>
      <trkpt lat="48.602" lon="-3.75943">
        <ele>84.1</ele>
        <time>2022-05-27T07:40:38Z</time>
      </trkpt>
      <trkpt lat="48.60204" lon="-3.75952">
        <ele>83.8</ele>
        <time>2022-05-27T07:40:39Z</time>
      </trkpt>
      <trkpt lat="48.60221" lon="-3.76017">
        <ele>81.9</ele>
        <time>2022-05-27T07:40:45Z</time>
      </trkpt>
      <trkpt lat="48.60233" lon="-3.76047">
        <ele>81</ele>
        <time>2022-05-27T07:40:48Z</time>
      </trkpt>
      <trkpt lat="48.60244" lon="-3.76066">
        <ele>80.4</ele>
        <time>2022-05-27T07:40:50Z</time>
      </trkpt>
      <trkpt lat="48.60253" lon="-3.76116">
        <ele>79.6</ele>
        <time>2022-05-27T07:40:54Z</time>
      </trkpt>
      <trkpt lat="48.60251" lon="-3.76163">
        <ele>78.9</ele>
        <time>2022-05-27T07:40:58Z</time>
      </trkpt>
      <trkpt lat="48.60241" lon="-3.76202">
        <ele>78.2</ele>
        <time>2022-05-27T07:41:02Z</time>
      </trkpt>
      <trkpt lat="48.60233" lon="-3.76231">
        <ele>78.6</ele>
        <time>2022-05-27T07:41:05Z</time>
      </trkpt>
      <trkpt lat="48.60225" lon="-3.76256">
        <ele>79</ele>
        <time>2022-05-27T07:41:08Z</time>
      </trkpt>
      <trkpt lat="48.60212" lon="-3.76297">
        <ele>78.4</ele>
        <time>2022-05-27T07:41:13Z</time>
      </trkpt>
      <trkpt lat="48.60208" lon="-3.76312">
        <ele>78.1</ele>
        <time>2022-05-27T07:41:15Z</time>
      </trkpt>
      <trkpt lat="48.6021" lon="-3.76331">
        <ele>77.8</ele>
        <time>2022-05-27T07:41:18Z</time>
      </trkpt>
      <trkpt lat="48.60256" lon="-3.76369">
        <ele>77.1</ele>
        <time>2022-05-27T07:41:24Z</time>
      </trkpt>
      <trkpt lat="48.60269" lon="-3.76381">
        <ele>76.6</ele>
        <time>2022-05-27T07:41:26Z</time>
      </trkpt>
      <trkpt lat="48.60296" lon="-3.76404">
        <ele>73.7</ele>
        <time>2022-05-27T07:41:30Z</time>
      </trkpt>
      <trkpt lat="48.60304" lon="-3.7641">
        <ele>73.1</ele>
        <time>2022-05-27T07:41:31Z</time>
      </trkpt>
      <trkpt lat="48.60339" lon="-3.76432">
        <ele>71.6</ele>
        <time>2022-05-27T07:41:35Z</time>
      </trkpt>
      <trkpt lat="48.60385" lon="-3.76467">
        <ele>69.8</ele>
        <time>2022-05-27T07:41:40Z</time>
      </trkpt>
      <trkpt lat="48.60394" lon="-3.76474">
        <ele>69.4</ele>
        <time>2022-05-27T07:41:41Z</time>
      </trkpt>
      <trkpt lat="48.60432" lon="-3.76503">
        <ele>67</ele>
        <time>2022-05-27T07:41:45Z</time>
      </trkpt>
      <trkpt lat="48.60452" lon="-3.76516">
        <ele>65.8</ele>
        <time>2022-05-27T07:41:47Z</time>
      </trkpt>
      <trkpt lat="48.60496" lon="-3.76526">
        <ele>63.4</ele>
        <time>2022-05-27T07:41:51Z</time>
      </trkpt>
      <trkpt lat="48.60507" lon="-3.7653">
        <ele>62.8</ele>
        <time>2022-05-27T07:41:52Z</time>
      </trkpt>
      <trkpt lat="48.60549" lon="-3.76565">
        <ele>60</ele>
        <time>2022-05-27T07:41:56Z</time>
      </trkpt>
      <trkpt lat="48.60567" lon="-3.76587">
        <ele>58.6</ele>
        <time>2022-05-27T07:41:58Z</time>
      </trkpt>
      <trkpt lat="48.60576" lon="-3.766">
        <ele>57.9</ele>
        <time>2022-05-27T07:41:59Z</time>
      </trkpt>
      <trkpt lat="48.60592" lon="-3.76629">
        <ele>56.4</ele>
        <time>2022-05-27T07:42:01Z</time>
      </trkpt>
      <trkpt lat="48.60601" lon="-3.76643">
        <ele>55.6</ele>
        <time>2022-05-27T07:42:02Z</time>
      </trkpt>
      <trkpt lat="48.60615" lon="-3.76676">
        <ele>54.1</ele>
        <time>2022-05-27T07:42:04Z</time>
      </trkpt>
      <trkpt lat="48.60627" lon="-3.76708">
        <ele>52.3</ele>
        <time>2022-05-27T07:42:06Z</time>
      </trkpt>
      <trkpt lat="48.60637" lon="-3.76755">
        <ele>49.7</ele>
        <time>2022-05-27T07:42:09Z</time>
      </trkpt>
      <trkpt lat="48.60638" lon="-3.7677">
        <ele>49.1</ele>
        <time>2022-05-27T07:42:10Z</time>
      </trkpt>
      <trkpt lat="48.60646" lon="-3.76832">
        <ele>48.8</ele>
        <time>2022-05-27T07:42:14Z</time>
      </trkpt>
      <trkpt lat="48.60658" lon="-3.76903">
        <ele>48.3</ele>
        <time>2022-05-27T07:42:19Z</time>
      </trkpt>
      <trkpt lat="48.60658" lon="-3.76946">
        <ele>48.1</ele>
        <time>2022-05-27T07:42:22Z</time>
      </trkpt>
      <trkpt lat="48.60659" lon="-3.76973">
        <ele>48</ele>
        <time>2022-05-27T07:42:24Z</time>
      </trkpt>
      <trkpt lat="48.60656" lon="-3.7704">
        <ele>47.9</ele>
        <time>2022-05-27T07:42:30Z</time>
      </trkpt>
      <trkpt lat="48.60656" lon="-3.77046">
        <ele>47.8</ele>
        <time>2022-05-27T07:42:31Z</time>
      </trkpt>
      <trkpt lat="48.60665" lon="-3.77067">
        <ele>47.7</ele>
        <time>2022-05-27T07:42:35Z</time>
      </trkpt>
      <trkpt lat="48.60649" lon="-3.77133">
        <ele>47.5</ele>
        <time>2022-05-27T07:42:44Z</time>
      </trkpt>
      <trkpt lat="48.60631" lon="-3.77197">
        <ele>47.3</ele>
        <time>2022-05-27T07:42:51Z</time>
      </trkpt>
      <trkpt lat="48.60628" lon="-3.77207">
        <ele>47.1</ele>
        <time>2022-05-27T07:42:52Z</time>
      </trkpt>
      <trkpt lat="48.60609" lon="-3.77267">
        <ele>45.2</ele>
        <time>2022-05-27T07:42:58Z</time>
      </trkpt>
      <trkpt lat="48.60596" lon="-3.77311">
        <ele>43.9</ele>
        <time>2022-05-27T07:43:02Z</time>
      </trkpt>
      <trkpt lat="48.60594" lon="-3.77324">
        <ele>43.6</ele>
        <time>2022-05-27T07:43:03Z</time>
      </trkpt>
      <trkpt lat="48.60589" lon="-3.77337">
        <ele>43.2</ele>
        <time>2022-05-27T07:43:04Z</time>
      </trkpt>
      <trkpt lat="48.60573" lon="-3.77391">
        <ele>40.3</ele>
        <time>2022-05-27T07:43:08Z</time>
      </trkpt>
      <trkpt lat="48.60565" lon="-3.77417">
        <ele>39.2</ele>
        <time>2022-05-27T07:43:10Z</time>
      </trkpt>
      <trkpt lat="48.60552" lon="-3.77455">
        <ele>39.5</ele>
        <time>2022-05-27T07:43:13Z</time>
      </trkpt>
      <trkpt lat="48.60528" lon="-3.77518">
        <ele>40.1</ele>
        <time>2022-05-27T07:43:19Z</time>
      </trkpt>
      <trkpt lat="48.6052" lon="-3.77538">
        <ele>40.5</ele>
        <time>2022-05-27T07:43:22Z</time>
      </trkpt>
      <trkpt lat="48.60504" lon="-3.77578">
        <ele>43.8</ele>
        <time>2022-05-27T07:43:28Z</time>
      </trkpt>
      <trkpt lat="48.60483" lon="-3.77628">
        <ele>48.2</ele>
        <time>2022-05-27T07:43:38Z</time>
      </trkpt>
      <trkpt lat="48.60478" lon="-3.77639">
        <ele>48.8</ele>
        <time>2022-05-27T07:43:40Z</time>
      </trkpt>
      <trkpt lat="48.60456" lon="-3.77687">
        <ele>52.1</ele>
        <time>2022-05-27T07:43:50Z</time>
      </trkpt>
      <trkpt lat="48.60452" lon="-3.77697">
        <ele>52.8</ele>
        <time>2022-05-27T07:43:52Z</time>
      </trkpt>
      <trkpt lat="48.60432" lon="-3.77745">
        <ele>56</ele>
        <time>2022-05-27T07:44:02Z</time>
      </trkpt>
      <trkpt lat="48.60428" lon="-3.77755">
        <ele>56.5</ele>
        <time>2022-05-27T07:44:04Z</time>
      </trkpt>
      <trkpt lat="48.60408" lon="-3.77803">
        <ele>58.8</ele>
        <time>2022-05-27T07:44:13Z</time>
      </trkpt>
      <trkpt lat="48.60404" lon="-3.77814">
        <ele>59.1</ele>
        <time>2022-05-27T07:44:15Z</time>
      </trkpt>
      <trkpt lat="48.60379" lon="-3.77873">
        <ele>61.2</ele>
        <time>2022-05-27T07:44:26Z</time>
      </trkpt>
      <trkpt lat="48.60368" lon="-3.77898">
        <ele>62.1</ele>
        <time>2022-05-27T07:44:31Z</time>
      </trkpt>
      <trkpt lat="48.60353" lon="-3.77934">
        <ele>63.2</ele>
        <time>2022-05-27T07:44:38Z</time>
      </trkpt>
      <trkpt lat="48.60328" lon="-3.77997">
        <ele>65</ele>
        <time>2022-05-27T07:44:49Z</time>
      </trkpt>
      <trkpt lat="48.60312" lon="-3.78032">
        <ele>65.9</ele>
        <time>2022-05-27T07:44:55Z</time>
      </trkpt>
      <trkpt lat="48.60302" lon="-3.78056">
        <ele>66.3</ele>
        <time>2022-05-27T07:44:59Z</time>
      </trkpt>
      <trkpt lat="48.60297" lon="-3.7807">
        <ele>66.4</ele>
        <time>2022-05-27T07:45:01Z</time>
      </trkpt>
      <trkpt lat="48.6028" lon="-3.7812">
        <ele>65.7</ele>
        <time>2022-05-27T07:45:08Z</time>
      </trkpt>
      <trkpt lat="48.60262" lon="-3.78191">
        <ele>64.8</ele>
        <time>2022-05-27T07:45:16Z</time>
      </trkpt>
      <trkpt lat="48.60256" lon="-3.78221">
        <ele>64.4</ele>
        <time>2022-05-27T07:45:19Z</time>
      </trkpt>
      <trkpt lat="48.60246" lon="-3.78261">
        <ele>63.3</ele>
        <time>2022-05-27T07:45:23Z</time>
      </trkpt>
      <trkpt lat="48.60242" lon="-3.78285">
        <ele>62.5</ele>
        <time>2022-05-27T07:45:25Z</time>
      </trkpt>
      <trkpt lat="48.60238" lon="-3.78296">
        <ele>61.6</ele>
        <time>2022-05-27T07:45:26Z</time>
      </trkpt>
      <trkpt lat="48.60233" lon="-3.7831">
        <ele>60.7</ele>
        <time>2022-05-27T07:45:27Z</time>
      </trkpt>
      <trkpt lat="48.60221" lon="-3.78373">
        <ele>56.9</ele>
        <time>2022-05-27T07:45:31Z</time>
      </trkpt>
      <trkpt lat="48.60218" lon="-3.7839">
        <ele>55.5</ele>
        <time>2022-05-27T07:45:32Z</time>
      </trkpt>
      <trkpt lat="48.60212" lon="-3.78427">
        <ele>52.8</ele>
        <time>2022-05-27T07:45:34Z</time>
      </trkpt>
      <trkpt lat="48.60209" lon="-3.78489">
        <ele>48.7</ele>
        <time>2022-05-27T07:45:37Z</time>
      </trkpt>
      <trkpt lat="48.60206" lon="-3.78509">
        <ele>47.4</ele>
        <time>2022-05-27T07:45:38Z</time>
      </trkpt>
      <trkpt lat="48.60203" lon="-3.78529">
        <ele>46.1</ele>
        <time>2022-05-27T07:45:39Z</time>
      </trkpt>
      <trkpt lat="48.60202" lon="-3.78584">
        <ele>42.9</ele>
        <time>2022-05-27T07:45:42Z</time>
      </trkpt>
      <trkpt lat="48.60202" lon="-3.78601">
        <ele>43.1</ele>
        <time>2022-05-27T07:45:43Z</time>
      </trkpt>
      <trkpt lat="48.60202" lon="-3.78677">
        <ele>44.5</ele>
        <time>2022-05-27T07:45:48Z</time>
      </trkpt>
      <trkpt lat="48.60201" lon="-3.78714">
        <ele>45.4</ele>
        <time>2022-05-27T07:45:51Z</time>
      </trkpt>
      <trkpt lat="48.60189" lon="-3.78742">
        <ele>46.3</ele>
        <time>2022-05-27T07:45:54Z</time>
      </trkpt>
      <trkpt lat="48.60179" lon="-3.78791">
        <ele>49.7</ele>
        <time>2022-05-27T07:46:00Z</time>
      </trkpt>
      <trkpt lat="48.60176" lon="-3.78807">
        <ele>50.6</ele>
        <time>2022-05-27T07:46:02Z</time>
      </trkpt>
      <trkpt lat="48.60171" lon="-3.78827">
        <ele>51.9</ele>
        <time>2022-05-27T07:46:05Z</time>
      </trkpt>
      <trkpt lat="48.60163" lon="-3.78871">
        <ele>54.9</ele>
        <time>2022-05-27T07:46:12Z</time>
      </trkpt>
      <trkpt lat="48.60149" lon="-3.78939">
        <ele>58.5</ele>
        <time>2022-05-27T07:46:24Z</time>
      </trkpt>
      <trkpt lat="48.60135" lon="-3.79007">
        <ele>61.4</ele>
        <time>2022-05-27T07:46:35Z</time>
      </trkpt>
      <trkpt lat="48.60134" lon="-3.79012">
        <ele>61.7</ele>
        <time>2022-05-27T07:46:36Z</time>
      </trkpt>
      <trkpt lat="48.60126" lon="-3.79047">
        <ele>62.9</ele>
        <time>2022-05-27T07:46:42Z</time>
      </trkpt>
      <trkpt lat="48.6012" lon="-3.79075">
        <ele>64.5</ele>
        <time>2022-05-27T07:46:47Z</time>
      </trkpt>
      <trkpt lat="48.60113" lon="-3.79106">
        <ele>66.7</ele>
        <time>2022-05-27T07:46:54Z</time>
      </trkpt>
      <trkpt lat="48.60105" lon="-3.7914">
        <ele>69.5</ele>
        <time>2022-05-27T07:47:02Z</time>
      </trkpt>
      <trkpt lat="48.601" lon="-3.79156">
        <ele>70.9</ele>
        <time>2022-05-27T07:47:06Z</time>
      </trkpt>
      <trkpt lat="48.60083" lon="-3.79203">
        <ele>74.3</ele>
        <time>2022-05-27T07:47:18Z</time>
      </trkpt>
      <trkpt lat="48.60073" lon="-3.79227">
        <ele>75.6</ele>
        <time>2022-05-27T07:47:24Z</time>
      </trkpt>
      <trkpt lat="48.60059" lon="-3.79264">
        <ele>77.5</ele>
        <time>2022-05-27T07:47:33Z</time>
      </trkpt>
      <trkpt lat="48.60042" lon="-3.79302">
        <ele>79.3</ele>
        <time>2022-05-27T07:47:42Z</time>
      </trkpt>
      <trkpt lat="48.60033" lon="-3.79323">
        <ele>79.8</ele>
        <time>2022-05-27T07:47:47Z</time>
      </trkpt>
      <trkpt lat="48.60005" lon="-3.79385">
        <ele>81.1</ele>
        <time>2022-05-27T07:47:59Z</time>
      </trkpt>
      <trkpt lat="48.59992" lon="-3.7941">
        <ele>81.5</ele>
        <time>2022-05-27T07:48:03Z</time>
      </trkpt>
      <trkpt lat="48.59977" lon="-3.79441">
        <ele>81.2</ele>
        <time>2022-05-27T07:48:08Z</time>
      </trkpt>
      <trkpt lat="48.59946" lon="-3.79499">
        <ele>80.8</ele>
        <time>2022-05-27T07:48:17Z</time>
      </trkpt>
      <trkpt lat="48.59915" lon="-3.79558">
        <ele>80.4</ele>
        <time>2022-05-27T07:48:25Z</time>
      </trkpt>
      <trkpt lat="48.59886" lon="-3.79613">
        <ele>80</ele>
        <time>2022-05-27T07:48:32Z</time>
      </trkpt>
      <trkpt lat="48.59881" lon="-3.79621">
        <ele>80</ele>
        <time>2022-05-27T07:48:33Z</time>
      </trkpt>
      <trkpt lat="48.59856" lon="-3.79667">
        <ele>79.6</ele>
        <time>2022-05-27T07:48:39Z</time>
      </trkpt>
      <trkpt lat="48.59827" lon="-3.7972">
        <ele>79.1</ele>
        <time>2022-05-27T07:48:46Z</time>
      </trkpt>
      <trkpt lat="48.59797" lon="-3.79771">
        <ele>78.6</ele>
        <time>2022-05-27T07:48:53Z</time>
      </trkpt>
      <trkpt lat="48.59777" lon="-3.79793">
        <ele>78.4</ele>
        <time>2022-05-27T07:48:57Z</time>
      </trkpt>
      <trkpt lat="48.59756" lon="-3.79814">
        <ele>78.1</ele>
        <time>2022-05-27T07:49:01Z</time>
      </trkpt>
      <trkpt lat="48.59712" lon="-3.79854">
        <ele>77.6</ele>
        <time>2022-05-27T07:49:08Z</time>
      </trkpt>
      <trkpt lat="48.59705" lon="-3.7986">
        <ele>77.4</ele>
        <time>2022-05-27T07:49:09Z</time>
      </trkpt>
      <trkpt lat="48.59669" lon="-3.79893">
        <ele>74.8</ele>
        <time>2022-05-27T07:49:14Z</time>
      </trkpt>
      <trkpt lat="48.59661" lon="-3.799">
        <ele>74.4</ele>
        <time>2022-05-27T07:49:15Z</time>
      </trkpt>
      <trkpt lat="48.5963" lon="-3.79928">
        <ele>74</ele>
        <time>2022-05-27T07:49:19Z</time>
      </trkpt>
      <trkpt lat="48.59591" lon="-3.7997">
        <ele>73.3</ele>
        <time>2022-05-27T07:49:25Z</time>
      </trkpt>
      <trkpt lat="48.59582" lon="-3.79984">
        <ele>73.2</ele>
        <time>2022-05-27T07:49:27Z</time>
      </trkpt>
      <trkpt lat="48.59558" lon="-3.8002">
        <ele>74.8</ele>
        <time>2022-05-27T07:49:32Z</time>
      </trkpt>
      <trkpt lat="48.59554" lon="-3.80025">
        <ele>75.1</ele>
        <time>2022-05-27T07:49:33Z</time>
      </trkpt>
      <trkpt lat="48.5953" lon="-3.80058">
        <ele>77.1</ele>
        <time>2022-05-27T07:49:39Z</time>
      </trkpt>
      <trkpt lat="48.59523" lon="-3.80068">
        <ele>77.6</ele>
        <time>2022-05-27T07:49:41Z</time>
      </trkpt>
      <trkpt lat="48.59486" lon="-3.80119">
        <ele>79.8</ele>
        <time>2022-05-27T07:49:50Z</time>
      </trkpt>
      <trkpt lat="48.59456" lon="-3.80168">
        <ele>80.7</ele>
        <time>2022-05-27T07:49:58Z</time>
      </trkpt>
      <trkpt lat="48.59444" lon="-3.80185">
        <ele>81.1</ele>
        <time>2022-05-27T07:50:01Z</time>
      </trkpt>
      <trkpt lat="48.5942" lon="-3.80218">
        <ele>82.4</ele>
        <time>2022-05-27T07:50:07Z</time>
      </trkpt>
      <trkpt lat="48.59382" lon="-3.80265">
        <ele>83.1</ele>
        <time>2022-05-27T07:50:16Z</time>
      </trkpt>
      <trkpt lat="48.59368" lon="-3.80281">
        <ele>83.3</ele>
        <time>2022-05-27T07:50:19Z</time>
      </trkpt>
      <trkpt lat="48.59344" lon="-3.80309">
        <ele>82.3</ele>
        <time>2022-05-27T07:50:24Z</time>
      </trkpt>
      <trkpt lat="48.59303" lon="-3.80353">
        <ele>80.9</ele>
        <time>2022-05-27T07:50:31Z</time>
      </trkpt>
      <trkpt lat="48.59264" lon="-3.80393">
        <ele>79.3</ele>
        <time>2022-05-27T07:50:37Z</time>
      </trkpt>
      <trkpt lat="48.59225" lon="-3.80433">
        <ele>77.6</ele>
        <time>2022-05-27T07:50:43Z</time>
      </trkpt>
      <trkpt lat="48.59182" lon="-3.80478">
        <ele>75.4</ele>
        <time>2022-05-27T07:50:49Z</time>
      </trkpt>
      <trkpt lat="48.59156" lon="-3.80512">
        <ele>73.8</ele>
        <time>2022-05-27T07:50:53Z</time>
      </trkpt>
      <trkpt lat="48.59147" lon="-3.80535">
        <ele>73.2</ele>
        <time>2022-05-27T07:50:55Z</time>
      </trkpt>
      <trkpt lat="48.59137" lon="-3.80593">
        <ele>73.1</ele>
        <time>2022-05-27T07:51:00Z</time>
      </trkpt>
      <trkpt lat="48.59137" lon="-3.80602">
        <ele>73.2</ele>
        <time>2022-05-27T07:51:01Z</time>
      </trkpt>
      <trkpt lat="48.59137" lon="-3.80658">
        <ele>74.8</ele>
        <time>2022-05-27T07:51:07Z</time>
      </trkpt>
      <trkpt lat="48.59138" lon="-3.80667">
        <ele>75.3</ele>
        <time>2022-05-27T07:51:08Z</time>
      </trkpt>
      <trkpt lat="48.59138" lon="-3.80708">
        <ele>77.3</ele>
        <time>2022-05-27T07:51:13Z</time>
      </trkpt>
      <trkpt lat="48.59139" lon="-3.8074">
        <ele>78.4</ele>
        <time>2022-05-27T07:51:17Z</time>
      </trkpt>
      <trkpt lat="48.5914" lon="-3.80772">
        <ele>79.5</ele>
        <time>2022-05-27T07:51:21Z</time>
      </trkpt>
      <trkpt lat="48.59139" lon="-3.80802">
        <ele>80.6</ele>
        <time>2022-05-27T07:51:25Z</time>
      </trkpt>
      <trkpt lat="48.59138" lon="-3.80833">
        <ele>81.5</ele>
        <time>2022-05-27T07:51:29Z</time>
      </trkpt>
      <trkpt lat="48.59123" lon="-3.80891">
        <ele>83.2</ele>
        <time>2022-05-27T07:51:37Z</time>
      </trkpt>
      <trkpt lat="48.59106" lon="-3.80963">
        <ele>83.9</ele>
        <time>2022-05-27T07:51:46Z</time>
      </trkpt>
      <trkpt lat="48.59099" lon="-3.80986">
        <ele>84.2</ele>
        <time>2022-05-27T07:51:49Z</time>
      </trkpt>
      <trkpt lat="48.59087" lon="-3.81026">
        <ele>84.6</ele>
        <time>2022-05-27T07:51:54Z</time>
      </trkpt>
      <trkpt lat="48.59065" lon="-3.81087">
        <ele>85.2</ele>
        <time>2022-05-27T07:52:02Z</time>
      </trkpt>
      <trkpt lat="48.59041" lon="-3.81127">
        <ele>85.8</ele>
        <time>2022-05-27T07:52:09Z</time>
      </trkpt>
      <trkpt lat="48.59035" lon="-3.81145">
        <ele>86</ele>
        <time>2022-05-27T07:52:12Z</time>
      </trkpt>
      <trkpt lat="48.59027" lon="-3.81151">
        <ele>86.4</ele>
        <time>2022-05-27T07:52:14Z</time>
      </trkpt>
      <trkpt lat="48.5898" lon="-3.81177">
        <ele>88.6</ele>
        <time>2022-05-27T07:52:25Z</time>
      </trkpt>
      <trkpt lat="48.5896" lon="-3.81199">
        <ele>89.5</ele>
        <time>2022-05-27T07:52:30Z</time>
      </trkpt>
      <trkpt lat="48.58943" lon="-3.81217">
        <ele>89.8</ele>
        <time>2022-05-27T07:52:34Z</time>
      </trkpt>
      <trkpt lat="48.58934" lon="-3.81229">
        <ele>89.8</ele>
        <time>2022-05-27T07:52:36Z</time>
      </trkpt>
      <trkpt lat="48.58904" lon="-3.81265">
        <ele>88.7</ele>
        <time>2022-05-27T07:52:42Z</time>
      </trkpt>
      <trkpt lat="48.58875" lon="-3.81301">
        <ele>87.8</ele>
        <time>2022-05-27T07:52:47Z</time>
      </trkpt>
      <trkpt lat="48.58863" lon="-3.81316">
        <ele>86.9</ele>
        <time>2022-05-27T07:52:49Z</time>
      </trkpt>
      <trkpt lat="48.58839" lon="-3.81347">
        <ele>85.3</ele>
        <time>2022-05-27T07:52:53Z</time>
      </trkpt>
      <trkpt lat="48.58826" lon="-3.81363">
        <ele>84.9</ele>
        <time>2022-05-27T07:52:55Z</time>
      </trkpt>
      <trkpt lat="48.58809" lon="-3.81379">
        <ele>84.3</ele>
        <time>2022-05-27T07:52:58Z</time>
      </trkpt>
      <trkpt lat="48.58803" lon="-3.81382">
        <ele>84.1</ele>
        <time>2022-05-27T07:52:59Z</time>
      </trkpt>
      <trkpt lat="48.58801" lon="-3.81392">
        <ele>83.9</ele>
        <time>2022-05-27T07:53:00Z</time>
      </trkpt>
      <trkpt lat="48.58802" lon="-3.81408">
        <ele>83.7</ele>
        <time>2022-05-27T07:53:01Z</time>
      </trkpt>
      <trkpt lat="48.58795" lon="-3.81435">
        <ele>83.1</ele>
        <time>2022-05-27T07:53:04Z</time>
      </trkpt>
      <trkpt lat="48.58791" lon="-3.81444">
        <ele>83</ele>
        <time>2022-05-27T07:53:05Z</time>
      </trkpt>
      <trkpt lat="48.58791" lon="-3.81458">
        <ele>82.8</ele>
        <time>2022-05-27T07:53:06Z</time>
      </trkpt>
      <trkpt lat="48.58797" lon="-3.81508">
        <ele>82</ele>
        <time>2022-05-27T07:53:11Z</time>
      </trkpt>
      <trkpt lat="48.58799" lon="-3.81528">
        <ele>81.7</ele>
        <time>2022-05-27T07:53:13Z</time>
      </trkpt>
      <trkpt lat="48.58804" lon="-3.81604">
        <ele>80.3</ele>
        <time>2022-05-27T07:53:20Z</time>
      </trkpt>
      <trkpt lat="48.58799" lon="-3.81642">
        <ele>79.6</ele>
        <time>2022-05-27T07:53:23Z</time>
      </trkpt>
      <trkpt lat="48.58795" lon="-3.81682">
        <ele>78.1</ele>
        <time>2022-05-27T07:53:26Z</time>
      </trkpt>
      <trkpt lat="48.58791" lon="-3.81726">
        <ele>76.6</ele>
        <time>2022-05-27T07:53:29Z</time>
      </trkpt>
      <trkpt lat="48.58794" lon="-3.81795">
        <ele>73.8</ele>
        <time>2022-05-27T07:53:34Z</time>
      </trkpt>
      <trkpt lat="48.58795" lon="-3.81808">
        <ele>73.5</ele>
        <time>2022-05-27T07:53:35Z</time>
      </trkpt>
      <trkpt lat="48.58798" lon="-3.81869">
        <ele>73.9</ele>
        <time>2022-05-27T07:53:40Z</time>
      </trkpt>
      <trkpt lat="48.58798" lon="-3.81941">
        <ele>74.5</ele>
        <time>2022-05-27T07:53:47Z</time>
      </trkpt>
      <trkpt lat="48.58795" lon="-3.81994">
        <ele>76.5</ele>
        <time>2022-05-27T07:53:53Z</time>
      </trkpt>
      <trkpt lat="48.58794" lon="-3.82012">
        <ele>76.8</ele>
        <time>2022-05-27T07:53:55Z</time>
      </trkpt>
      <trkpt lat="48.58791" lon="-3.82053">
        <ele>77.6</ele>
        <time>2022-05-27T07:54:00Z</time>
      </trkpt>
      <trkpt lat="48.58778" lon="-3.82083">
        <ele>78.2</ele>
        <time>2022-05-27T07:54:04Z</time>
      </trkpt>
      <trkpt lat="48.58775" lon="-3.82089">
        <ele>78.3</ele>
        <time>2022-05-27T07:54:05Z</time>
      </trkpt>
      <trkpt lat="48.5877" lon="-3.82096">
        <ele>78.3</ele>
        <time>2022-05-27T07:54:06Z</time>
      </trkpt>
      <trkpt lat="48.58766" lon="-3.82115">
        <ele>78.3</ele>
        <time>2022-05-27T07:54:08Z</time>
      </trkpt>
      <trkpt lat="48.5876" lon="-3.82121">
        <ele>78.3</ele>
        <time>2022-05-27T07:54:09Z</time>
      </trkpt>
      <trkpt lat="48.58755" lon="-3.82125">
        <ele>78.3</ele>
        <time>2022-05-27T07:54:10Z</time>
      </trkpt>
      <trkpt lat="48.58728" lon="-3.82128">
        <ele>78</ele>
        <time>2022-05-27T07:54:14Z</time>
      </trkpt>
      <trkpt lat="48.58721" lon="-3.82127">
        <ele>78</ele>
        <time>2022-05-27T07:54:15Z</time>
      </trkpt>
      <trkpt lat="48.58672" lon="-3.82144">
        <ele>77.5</ele>
        <time>2022-05-27T07:54:23Z</time>
      </trkpt>
      <trkpt lat="48.58624" lon="-3.82159">
        <ele>77.1</ele>
        <time>2022-05-27T07:54:31Z</time>
      </trkpt>
      <trkpt lat="48.58579" lon="-3.82193">
        <ele>76.6</ele>
        <time>2022-05-27T07:54:39Z</time>
      </trkpt>
      <trkpt lat="48.58549" lon="-3.82225">
        <ele>76.2</ele>
        <time>2022-05-27T07:54:44Z</time>
      </trkpt>
      <trkpt lat="48.58538" lon="-3.82239">
        <ele>75.2</ele>
        <time>2022-05-27T07:54:46Z</time>
      </trkpt>
      <trkpt lat="48.58516" lon="-3.82274">
        <ele>73.2</ele>
        <time>2022-05-27T07:54:50Z</time>
      </trkpt>
      <trkpt lat="48.58505" lon="-3.82291">
        <ele>72</ele>
        <time>2022-05-27T07:54:52Z</time>
      </trkpt>
      <trkpt lat="48.5848" lon="-3.82348">
        <ele>67.9</ele>
        <time>2022-05-27T07:54:59Z</time>
      </trkpt>
      <trkpt lat="48.58472" lon="-3.82363">
        <ele>66</ele>
        <time>2022-05-27T07:55:02Z</time>
      </trkpt>
      <trkpt lat="48.58457" lon="-3.82393">
        <ele>61.1</ele>
        <time>2022-05-27T07:55:08Z</time>
      </trkpt>
      <trkpt lat="48.58453" lon="-3.82395">
        <ele>60.6</ele>
        <time>2022-05-27T07:55:09Z</time>
      </trkpt>
      <trkpt lat="48.58429" lon="-3.82376">
        <ele>58.8</ele>
        <time>2022-05-27T07:55:12Z</time>
      </trkpt>
      <trkpt lat="48.58414" lon="-3.8236">
        <ele>57.4</ele>
        <time>2022-05-27T07:55:14Z</time>
      </trkpt>
      <trkpt lat="48.58397" lon="-3.82346">
        <ele>54.6</ele>
        <time>2022-05-27T07:55:16Z</time>
      </trkpt>
      <trkpt lat="48.58366" lon="-3.82341">
        <ele>50.5</ele>
        <time>2022-05-27T07:55:19Z</time>
      </trkpt>
      <trkpt lat="48.58357" lon="-3.82344">
        <ele>49.7</ele>
        <time>2022-05-27T07:55:20Z</time>
      </trkpt>
      <trkpt lat="48.58339" lon="-3.82351">
        <ele>50.2</ele>
        <time>2022-05-27T07:55:22Z</time>
      </trkpt>
      <trkpt lat="48.58325" lon="-3.82363">
        <ele>50.8</ele>
        <time>2022-05-27T07:55:24Z</time>
      </trkpt>
      <trkpt lat="48.58306" lon="-3.824">
        <ele>52.2</ele>
        <time>2022-05-27T07:55:29Z</time>
      </trkpt>
      <trkpt lat="48.58298" lon="-3.82406">
        <ele>53.1</ele>
        <time>2022-05-27T07:55:32Z</time>
      </trkpt>
      <trkpt lat="48.5828" lon="-3.82417">
        <ele>57.2</ele>
        <time>2022-05-27T07:55:38Z</time>
      </trkpt>
      <trkpt lat="48.58263" lon="-3.82429">
        <ele>60.1</ele>
        <time>2022-05-27T07:55:44Z</time>
      </trkpt>
      <trkpt lat="48.58245" lon="-3.82444">
        <ele>63</ele>
        <time>2022-05-27T07:55:50Z</time>
      </trkpt>
      <trkpt lat="48.58239" lon="-3.82449">
        <ele>63.6</ele>
        <time>2022-05-27T07:55:52Z</time>
      </trkpt>
      <trkpt lat="48.58229" lon="-3.82479">
        <ele>65.5</ele>
        <time>2022-05-27T07:55:59Z</time>
      </trkpt>
      <trkpt lat="48.58221" lon="-3.82481">
        <ele>66.3</ele>
        <time>2022-05-27T07:56:02Z</time>
      </trkpt>
      <trkpt lat="48.58205" lon="-3.82485">
        <ele>67.2</ele>
        <time>2022-05-27T07:56:08Z</time>
      </trkpt>
      <trkpt lat="48.58199" lon="-3.82486">
        <ele>67.4</ele>
        <time>2022-05-27T07:56:10Z</time>
      </trkpt>
      <trkpt lat="48.58167" lon="-3.82474">
        <ele>67.8</ele>
        <time>2022-05-27T07:56:17Z</time>
      </trkpt>
      <trkpt lat="48.58163" lon="-3.82477">
        <ele>67.8</ele>
        <time>2022-05-27T07:56:18Z</time>
      </trkpt>
      <trkpt lat="48.58161" lon="-3.82481">
        <ele>67.6</ele>
        <time>2022-05-27T07:56:19Z</time>
      </trkpt>
      <trkpt lat="48.58155" lon="-3.82528">
        <ele>65.8</ele>
        <time>2022-05-27T07:56:26Z</time>
      </trkpt>
      <trkpt lat="48.58157" lon="-3.82546">
        <ele>65.3</ele>
        <time>2022-05-27T07:56:28Z</time>
      </trkpt>
      <trkpt lat="48.58157" lon="-3.82557">
        <ele>65</ele>
        <time>2022-05-27T07:56:29Z</time>
      </trkpt>
      <trkpt lat="48.58159" lon="-3.82568">
        <ele>64.6</ele>
        <time>2022-05-27T07:56:30Z</time>
      </trkpt>
      <trkpt lat="48.58166" lon="-3.8264">
        <ele>60.2</ele>
        <time>2022-05-27T07:56:36Z</time>
      </trkpt>
      <trkpt lat="48.58173" lon="-3.8272">
        <ele>55.6</ele>
        <time>2022-05-27T07:56:42Z</time>
      </trkpt>
      <trkpt lat="48.58181" lon="-3.82792">
        <ele>49.6</ele>
        <time>2022-05-27T07:56:48Z</time>
      </trkpt>
      <trkpt lat="48.58188" lon="-3.82844">
        <ele>45.4</ele>
        <time>2022-05-27T07:56:54Z</time>
      </trkpt>
      <trkpt lat="48.58194" lon="-3.8285">
        <ele>44.2</ele>
        <time>2022-05-27T07:56:56Z</time>
      </trkpt>
      <trkpt lat="48.58205" lon="-3.82849">
        <ele>43.6</ele>
        <time>2022-05-27T07:56:57Z</time>
      </trkpt>
      <trkpt lat="48.5821" lon="-3.82854">
        <ele>43.1</ele>
        <time>2022-05-27T07:56:58Z</time>
      </trkpt>
      <trkpt lat="48.58217" lon="-3.82875">
        <ele>41.8</ele>
        <time>2022-05-27T07:57:00Z</time>
      </trkpt>
      <trkpt lat="48.58227" lon="-3.82948">
        <ele>36.8</ele>
        <time>2022-05-27T07:57:05Z</time>
      </trkpt>
      <trkpt lat="48.58228" lon="-3.82965">
        <ele>35.7</ele>
        <time>2022-05-27T07:57:06Z</time>
      </trkpt>
      <trkpt lat="48.58228" lon="-3.83016">
        <ele>31.4</ele>
        <time>2022-05-27T07:57:09Z</time>
      </trkpt>
      <trkpt lat="48.58219" lon="-3.83064">
        <ele>27</ele>
        <time>2022-05-27T07:57:12Z</time>
      </trkpt>
      <trkpt lat="48.58217" lon="-3.83078">
        <ele>25.4</ele>
        <time>2022-05-27T07:57:13Z</time>
      </trkpt>
      <trkpt lat="48.58216" lon="-3.83112">
        <ele>20.6</ele>
        <time>2022-05-27T07:57:16Z</time>
      </trkpt>
      <trkpt lat="48.58218" lon="-3.83161">
        <ele>14.1</ele>
        <time>2022-05-27T07:57:22Z</time>
      </trkpt>
      <trkpt lat="48.58218" lon="-3.83161">
        <ele>14.1</ele>
        <time>2022-05-27T07:58:25Z</time>
      </trkpt>
      <trkpt lat="48.58213" lon="-3.83192">
        <ele>10.5</ele>
        <time>2022-05-27T07:58:27Z</time>
      </trkpt>
      <trkpt lat="48.58195" lon="-3.83181">
        <ele>8.3</ele>
        <time>2022-05-27T07:58:30Z</time>
      </trkpt>
      <trkpt lat="48.58186" lon="-3.83178">
        <ele>7</ele>
        <time>2022-05-27T07:58:32Z</time>
      </trkpt>
      <trkpt lat="48.58173" lon="-3.83174">
        <ele>6.1</ele>
        <time>2022-05-27T07:58:35Z</time>
      </trkpt>
      <trkpt lat="48.58167" lon="-3.8318">
        <ele>5.5</ele>
        <time>2022-05-27T07:58:37Z</time>
      </trkpt>
      <trkpt lat="48.58163" lon="-3.83193">
        <ele>4.9</ele>
        <time>2022-05-27T07:58:39Z</time>
      </trkpt>
      <trkpt lat="48.58158" lon="-3.83216">
        <ele>3.9</ele>
        <time>2022-05-27T07:58:42Z</time>
      </trkpt>
      <trkpt lat="48.58155" lon="-3.83222">
        <ele>3.6</ele>
        <time>2022-05-27T07:58:43Z</time>
      </trkpt>
      <trkpt lat="48.5816" lon="-3.8323">
        <ele>3.4</ele>
        <time>2022-05-27T07:58:44Z</time>
      </trkpt>
      <trkpt lat="48.5817" lon="-3.83247">
        <ele>3.4</ele>
        <time>2022-05-27T07:58:46Z</time>
      </trkpt>
      <trkpt lat="48.58183" lon="-3.83272">
        <ele>3.3</ele>
        <time>2022-05-27T07:58:50Z</time>
      </trkpt>
      <trkpt lat="48.58201" lon="-3.83301">
        <ele>3.4</ele>
        <time>2022-05-27T07:58:55Z</time>
      </trkpt>
      <trkpt lat="48.58207" lon="-3.83304">
        <ele>3.5</ele>
        <time>2022-05-27T07:58:56Z</time>
      </trkpt>
      <trkpt lat="48.58212" lon="-3.8331">
        <ele>3.5</ele>
        <time>2022-05-27T07:58:57Z</time>
      </trkpt>
      <trkpt lat="48.58252" lon="-3.83347">
        <ele>3.7</ele>
        <time>2022-05-27T07:59:05Z</time>
      </trkpt>
      <trkpt lat="48.58294" lon="-3.83384">
        <ele>4</ele>
        <time>2022-05-27T07:59:13Z</time>
      </trkpt>
      <trkpt lat="48.58337" lon="-3.8342">
        <ele>4.2</ele>
        <time>2022-05-27T07:59:21Z</time>
      </trkpt>
      <trkpt lat="48.58377" lon="-3.83457">
        <ele>4.5</ele>
        <time>2022-05-27T07:59:29Z</time>
      </trkpt>
      <trkpt lat="48.58415" lon="-3.83494">
        <ele>4.7</ele>
        <time>2022-05-27T07:59:37Z</time>
      </trkpt>
      <trkpt lat="48.58434" lon="-3.83514">
        <ele>4.8</ele>
        <time>2022-05-27T07:59:41Z</time>
      </trkpt>
      <trkpt lat="48.58436" lon="-3.83521">
        <ele>4.8</ele>
        <time>2022-05-27T07:59:42Z</time>
      </trkpt>
      <trkpt lat="48.58434" lon="-3.83539">
        <ele>4.9</ele>
        <time>2022-05-27T07:59:44Z</time>
      </trkpt>
      <trkpt lat="48.58432" lon="-3.83545">
        <ele>4.9</ele>
        <time>2022-05-27T07:59:45Z</time>
      </trkpt>
      <trkpt lat="48.58436" lon="-3.83607">
        <ele>5.2</ele>
        <time>2022-05-27T07:59:54Z</time>
      </trkpt>
      <trkpt lat="48.58447" lon="-3.83615">
        <ele>5.3</ele>
        <time>2022-05-27T07:59:56Z</time>
      </trkpt>
      <trkpt lat="48.58477" lon="-3.83637">
        <ele>5.8</ele>
        <time>2022-05-27T08:00:02Z</time>
      </trkpt>
      <trkpt lat="48.58517" lon="-3.83672">
        <ele>5.8</ele>
        <time>2022-05-27T08:00:14Z</time>
      </trkpt>
      <trkpt lat="48.5856" lon="-3.83705">
        <ele>5.8</ele>
        <time>2022-05-27T08:00:22Z</time>
      </trkpt>
      <trkpt lat="48.5861" lon="-3.83713">
        <ele>5.8</ele>
        <time>2022-05-27T08:00:30Z</time>
      </trkpt>
      <trkpt lat="48.58658" lon="-3.83739">
        <ele>5.8</ele>
        <time>2022-05-27T08:00:38Z</time>
      </trkpt>
      <trkpt lat="48.58701" lon="-3.83774">
        <ele>5.8</ele>
        <time>2022-05-27T08:00:46Z</time>
      </trkpt>
      <trkpt lat="48.58744" lon="-3.83807">
        <ele>5.8</ele>
        <time>2022-05-27T08:00:54Z</time>
      </trkpt>
      <trkpt lat="48.58789" lon="-3.83832">
        <ele>5.8</ele>
        <time>2022-05-27T08:01:02Z</time>
      </trkpt>
      <trkpt lat="48.58837" lon="-3.83858">
        <ele>5.8</ele>
        <time>2022-05-27T08:01:10Z</time>
      </trkpt>
      <trkpt lat="48.58884" lon="-3.83885">
        <ele>5.8</ele>
        <time>2022-05-27T08:01:18Z</time>
      </trkpt>
      <trkpt lat="48.5893" lon="-3.83911">
        <ele>5.8</ele>
        <time>2022-05-27T08:01:26Z</time>
      </trkpt>
      <trkpt lat="48.58976" lon="-3.83942">
        <ele>5.8</ele>
        <time>2022-05-27T08:01:34Z</time>
      </trkpt>
      <trkpt lat="48.59018" lon="-3.83971">
        <ele>5.8</ele>
        <time>2022-05-27T08:01:41Z</time>
      </trkpt>
      <trkpt lat="48.59063" lon="-3.84001">
        <ele>5.8</ele>
        <time>2022-05-27T08:01:48Z</time>
      </trkpt>
      <trkpt lat="48.59108" lon="-3.84033">
        <ele>5.8</ele>
        <time>2022-05-27T08:01:55Z</time>
      </trkpt>
      <trkpt lat="48.59154" lon="-3.84065">
        <ele>5.8</ele>
        <time>2022-05-27T08:02:02Z</time>
      </trkpt>
      <trkpt lat="48.59202" lon="-3.84097">
        <ele>5.8</ele>
        <time>2022-05-27T08:02:09Z</time>
      </trkpt>
      <trkpt lat="48.59245" lon="-3.84126">
        <ele>5.8</ele>
        <time>2022-05-27T08:02:15Z</time>
      </trkpt>
      <trkpt lat="48.59274" lon="-3.8414">
        <ele>5.8</ele>
        <time>2022-05-27T08:02:19Z</time>
      </trkpt>
      <trkpt lat="48.59326" lon="-3.84145">
        <ele>5.8</ele>
        <time>2022-05-27T08:02:26Z</time>
      </trkpt>
      <trkpt lat="48.59374" lon="-3.84146">
        <ele>5.8</ele>
        <time>2022-05-27T08:02:33Z</time>
      </trkpt>
      <trkpt lat="48.5942" lon="-3.84148">
        <ele>5.8</ele>
        <time>2022-05-27T08:02:40Z</time>
      </trkpt>
      <trkpt lat="48.59472" lon="-3.8415">
        <ele>5.8</ele>
        <time>2022-05-27T08:02:48Z</time>
      </trkpt>
      <trkpt lat="48.59524" lon="-3.84151">
        <ele>5.8</ele>
        <time>2022-05-27T08:02:55Z</time>
      </trkpt>
      <trkpt lat="48.59569" lon="-3.84152">
        <ele>5.8</ele>
        <time>2022-05-27T08:03:01Z</time>
      </trkpt>
      <trkpt lat="48.59621" lon="-3.84154">
        <ele>5.8</ele>
        <time>2022-05-27T08:03:08Z</time>
      </trkpt>
      <trkpt lat="48.5967" lon="-3.84155">
        <ele>5.8</ele>
        <time>2022-05-27T08:03:15Z</time>
      </trkpt>
      <trkpt lat="48.59712" lon="-3.84163">
        <ele>5.8</ele>
        <time>2022-05-27T08:03:21Z</time>
      </trkpt>
      <trkpt lat="48.59755" lon="-3.84199">
        <ele>5.8</ele>
        <time>2022-05-27T08:03:28Z</time>
      </trkpt>
      <trkpt lat="48.59792" lon="-3.84244">
        <ele>5.8</ele>
        <time>2022-05-27T08:03:35Z</time>
      </trkpt>
      <trkpt lat="48.59832" lon="-3.84292">
        <ele>5.8</ele>
        <time>2022-05-27T08:03:42Z</time>
      </trkpt>
      <trkpt lat="48.59873" lon="-3.84337">
        <ele>5.9</ele>
        <time>2022-05-27T08:03:49Z</time>
      </trkpt>
      <trkpt lat="48.5991" lon="-3.84382">
        <ele>5.9</ele>
        <time>2022-05-27T08:03:56Z</time>
      </trkpt>
      <trkpt lat="48.59949" lon="-3.84424">
        <ele>5.9</ele>
        <time>2022-05-27T08:04:03Z</time>
      </trkpt>
      <trkpt lat="48.59987" lon="-3.84467">
        <ele>5.9</ele>
        <time>2022-05-27T08:04:10Z</time>
      </trkpt>
      <trkpt lat="48.60025" lon="-3.84512">
        <ele>5.9</ele>
        <time>2022-05-27T08:04:17Z</time>
      </trkpt>
      <trkpt lat="48.60059" lon="-3.84563">
        <ele>5.9</ele>
        <time>2022-05-27T08:04:24Z</time>
      </trkpt>
      <trkpt lat="48.60085" lon="-3.84621">
        <ele>5.9</ele>
        <time>2022-05-27T08:04:31Z</time>
      </trkpt>
      <trkpt lat="48.60111" lon="-3.84679">
        <ele>5.9</ele>
        <time>2022-05-27T08:04:38Z</time>
      </trkpt>
      <trkpt lat="48.60134" lon="-3.84738">
        <ele>5.9</ele>
        <time>2022-05-27T08:04:45Z</time>
      </trkpt>
      <trkpt lat="48.60151" lon="-3.84803">
        <ele>5.9</ele>
        <time>2022-05-27T08:04:52Z</time>
      </trkpt>
      <trkpt lat="48.60169" lon="-3.84869">
        <ele>5.9</ele>
        <time>2022-05-27T08:04:59Z</time>
      </trkpt>
      <trkpt lat="48.60178" lon="-3.84896">
        <ele>5.9</ele>
        <time>2022-05-27T08:05:02Z</time>
      </trkpt>
      <trkpt lat="48.60191" lon="-3.84931">
        <ele>5.9</ele>
        <time>2022-05-27T08:05:06Z</time>
      </trkpt>
      <trkpt lat="48.60221" lon="-3.84989">
        <ele>5.9</ele>
        <time>2022-05-27T08:05:13Z</time>
      </trkpt>
      <trkpt lat="48.60256" lon="-3.85033">
        <ele>5.9</ele>
        <time>2022-05-27T08:05:20Z</time>
      </trkpt>
      <trkpt lat="48.60299" lon="-3.8506">
        <ele>5.9</ele>
        <time>2022-05-27T08:05:27Z</time>
      </trkpt>
      <trkpt lat="48.60344" lon="-3.8508">
        <ele>5.9</ele>
        <time>2022-05-27T08:05:34Z</time>
      </trkpt>
      <trkpt lat="48.60391" lon="-3.85105">
        <ele>5.9</ele>
        <time>2022-05-27T08:05:41Z</time>
      </trkpt>
      <trkpt lat="48.6044" lon="-3.8513">
        <ele>5.9</ele>
        <time>2022-05-27T08:05:48Z</time>
      </trkpt>
      <trkpt lat="48.60485" lon="-3.8516">
        <ele>5.9</ele>
        <time>2022-05-27T08:05:55Z</time>
      </trkpt>
      <trkpt lat="48.60528" lon="-3.85197">
        <ele>5.9</ele>
        <time>2022-05-27T08:06:02Z</time>
      </trkpt>
      <trkpt lat="48.60568" lon="-3.85241">
        <ele>5.9</ele>
        <time>2022-05-27T08:06:09Z</time>
      </trkpt>
      <trkpt lat="48.60604" lon="-3.85297">
        <ele>5.9</ele>
        <time>2022-05-27T08:06:16Z</time>
      </trkpt>
      <trkpt lat="48.60639" lon="-3.85352">
        <ele>5.9</ele>
        <time>2022-05-27T08:06:23Z</time>
      </trkpt>
      <trkpt lat="48.60667" lon="-3.85397">
        <ele>5.9</ele>
        <time>2022-05-27T08:06:29Z</time>
      </trkpt>
      <trkpt lat="48.6067" lon="-3.85417">
        <ele>5.9</ele>
        <time>2022-05-27T08:06:31Z</time>
      </trkpt>
      <trkpt lat="48.60692" lon="-3.85486">
        <ele>5.9</ele>
        <time>2022-05-27T08:06:38Z</time>
      </trkpt>
      <trkpt lat="48.60711" lon="-3.85533">
        <ele>5.9</ele>
        <time>2022-05-27T08:06:43Z</time>
      </trkpt>
      <trkpt lat="48.60752" lon="-3.85578">
        <ele>5.9</ele>
        <time>2022-05-27T08:06:50Z</time>
      </trkpt>
      <trkpt lat="48.60795" lon="-3.85615">
        <ele>5.9</ele>
        <time>2022-05-27T08:06:57Z</time>
      </trkpt>
      <trkpt lat="48.60833" lon="-3.8566">
        <ele>5.9</ele>
        <time>2022-05-27T08:07:04Z</time>
      </trkpt>
      <trkpt lat="48.60857" lon="-3.85718">
        <ele>5.9</ele>
        <time>2022-05-27T08:07:11Z</time>
      </trkpt>
      <trkpt lat="48.60883" lon="-3.85777">
        <ele>5.9</ele>
        <time>2022-05-27T08:07:18Z</time>
      </trkpt>
      <trkpt lat="48.60892" lon="-3.85791">
        <ele>5.9</ele>
        <time>2022-05-27T08:07:20Z</time>
      </trkpt>
      <trkpt lat="48.60903" lon="-3.85792">
        <ele>5.9</ele>
        <time>2022-05-27T08:07:21Z</time>
      </trkpt>
      <trkpt lat="48.60943" lon="-3.8583">
        <ele>5.9</ele>
        <time>2022-05-27T08:07:27Z</time>
      </trkpt>
      <trkpt lat="48.60987" lon="-3.85871">
        <ele>5.9</ele>
        <time>2022-05-27T08:07:34Z</time>
      </trkpt>
      <trkpt lat="48.61029" lon="-3.85911">
        <ele>5.9</ele>
        <time>2022-05-27T08:07:41Z</time>
      </trkpt>
      <trkpt lat="48.61069" lon="-3.85954">
        <ele>5.9</ele>
        <time>2022-05-27T08:07:48Z</time>
      </trkpt>
      <trkpt lat="48.61107" lon="-3.86004">
        <ele>5.9</ele>
        <time>2022-05-27T08:07:55Z</time>
      </trkpt>
      <trkpt lat="48.61149" lon="-3.86051">
        <ele>5.9</ele>
        <time>2022-05-27T08:08:02Z</time>
      </trkpt>
      <trkpt lat="48.61179" lon="-3.86085">
        <ele>5.9</ele>
        <time>2022-05-27T08:08:07Z</time>
      </trkpt>
      <trkpt lat="48.61227" lon="-3.86116">
        <ele>5.9</ele>
        <time>2022-05-27T08:08:14Z</time>
      </trkpt>
      <trkpt lat="48.6124" lon="-3.8613">
        <ele>5.9</ele>
        <time>2022-05-27T08:08:16Z</time>
      </trkpt>
      <trkpt lat="48.61265" lon="-3.86195">
        <ele>5.9</ele>
        <time>2022-05-27T08:08:22Z</time>
      </trkpt>
      <trkpt lat="48.6127" lon="-3.86205">
        <ele>5.9</ele>
        <time>2022-05-27T08:08:23Z</time>
      </trkpt>
      <trkpt lat="48.61286" lon="-3.86214">
        <ele>5.9</ele>
        <time>2022-05-27T08:08:25Z</time>
      </trkpt>
      <trkpt lat="48.61303" lon="-3.86217">
        <ele>5.9</ele>
        <time>2022-05-27T08:08:27Z</time>
      </trkpt>
      <trkpt lat="48.61311" lon="-3.8622">
        <ele>5.9</ele>
        <time>2022-05-27T08:08:28Z</time>
      </trkpt>
      <trkpt lat="48.61326" lon="-3.86222">
        <ele>5.9</ele>
        <time>2022-05-27T08:08:30Z</time>
      </trkpt>
      <trkpt lat="48.61356" lon="-3.86228">
        <ele>5.9</ele>
        <time>2022-05-27T08:08:34Z</time>
      </trkpt>
      <trkpt lat="48.61407" lon="-3.86214">
        <ele>5.9</ele>
        <time>2022-05-27T08:08:41Z</time>
      </trkpt>
      <trkpt lat="48.61446" lon="-3.86179">
        <ele>5.9</ele>
        <time>2022-05-27T08:08:47Z</time>
      </trkpt>
      <trkpt lat="48.61451" lon="-3.86171">
        <ele>5.9</ele>
        <time>2022-05-27T08:08:48Z</time>
      </trkpt>
      <trkpt lat="48.61483" lon="-3.86144">
        <ele>5.9</ele>
        <time>2022-05-27T08:08:53Z</time>
      </trkpt>
      <trkpt lat="48.61535" lon="-3.86133">
        <ele>5.9</ele>
        <time>2022-05-27T08:09:00Z</time>
      </trkpt>
      <trkpt lat="48.61564" lon="-3.86123">
        <ele>5.9</ele>
        <time>2022-05-27T08:09:04Z</time>
      </trkpt>
      <trkpt lat="48.61596" lon="-3.86091">
        <ele>5.9</ele>
        <time>2022-05-27T08:09:09Z</time>
      </trkpt>
      <trkpt lat="48.61632" lon="-3.86044">
        <ele>5.9</ele>
        <time>2022-05-27T08:09:15Z</time>
      </trkpt>
      <trkpt lat="48.61669" lon="-3.85996">
        <ele>5.9</ele>
        <time>2022-05-27T08:09:22Z</time>
      </trkpt>
      <trkpt lat="48.61692" lon="-3.85971">
        <ele>5.9</ele>
        <time>2022-05-27T08:09:26Z</time>
      </trkpt>
      <trkpt lat="48.61741" lon="-3.85952">
        <ele>5.9</ele>
        <time>2022-05-27T08:09:33Z</time>
      </trkpt>
      <trkpt lat="48.61754" lon="-3.85942">
        <ele>5.9</ele>
        <time>2022-05-27T08:09:35Z</time>
      </trkpt>
      <trkpt lat="48.61768" lon="-3.85919">
        <ele>5.9</ele>
        <time>2022-05-27T08:09:38Z</time>
      </trkpt>
      <trkpt lat="48.61805" lon="-3.85869">
        <ele>5.9</ele>
        <time>2022-05-27T08:09:45Z</time>
      </trkpt>
      <trkpt lat="48.61841" lon="-3.8582">
        <ele>5.9</ele>
        <time>2022-05-27T08:09:52Z</time>
      </trkpt>
      <trkpt lat="48.61879" lon="-3.85779">
        <ele>5.9</ele>
        <time>2022-05-27T08:09:59Z</time>
      </trkpt>
      <trkpt lat="48.61919" lon="-3.85743">
        <ele>5.9</ele>
        <time>2022-05-27T08:10:06Z</time>
      </trkpt>
      <trkpt lat="48.61962" lon="-3.85708">
        <ele>6</ele>
        <time>2022-05-27T08:10:13Z</time>
      </trkpt>
      <trkpt lat="48.62009" lon="-3.8568">
        <ele>6</ele>
        <time>2022-05-27T08:10:21Z</time>
      </trkpt>
      <trkpt lat="48.62058" lon="-3.85679">
        <ele>6</ele>
        <time>2022-05-27T08:10:29Z</time>
      </trkpt>
      <trkpt lat="48.62108" lon="-3.85682">
        <ele>6</ele>
        <time>2022-05-27T08:10:37Z</time>
      </trkpt>
      <trkpt lat="48.62139" lon="-3.85685">
        <ele>6</ele>
        <time>2022-05-27T08:10:42Z</time>
      </trkpt>
      <trkpt lat="48.62145" lon="-3.85684">
        <ele>6</ele>
        <time>2022-05-27T08:10:43Z</time>
      </trkpt>
      <trkpt lat="48.62194" lon="-3.85702">
        <ele>6</ele>
        <time>2022-05-27T08:10:51Z</time>
      </trkpt>
      <trkpt lat="48.62212" lon="-3.85711">
        <ele>6</ele>
        <time>2022-05-27T08:10:54Z</time>
      </trkpt>
      <trkpt lat="48.62263" lon="-3.85716">
        <ele>6</ele>
        <time>2022-05-27T08:11:02Z</time>
      </trkpt>
      <trkpt lat="48.62314" lon="-3.85722">
        <ele>6</ele>
        <time>2022-05-27T08:11:10Z</time>
      </trkpt>
      <trkpt lat="48.62359" lon="-3.85726">
        <ele>6</ele>
        <time>2022-05-27T08:11:17Z</time>
      </trkpt>
      <trkpt lat="48.62409" lon="-3.85737">
        <ele>6</ele>
        <time>2022-05-27T08:11:25Z</time>
      </trkpt>
      <trkpt lat="48.62459" lon="-3.85736">
        <ele>6</ele>
        <time>2022-05-27T08:11:33Z</time>
      </trkpt>
      <trkpt lat="48.62507" lon="-3.85729">
        <ele>6</ele>
        <time>2022-05-27T08:11:41Z</time>
      </trkpt>
      <trkpt lat="48.62557" lon="-3.85721">
        <ele>6</ele>
        <time>2022-05-27T08:11:49Z</time>
      </trkpt>
      <trkpt lat="48.62608" lon="-3.85715">
        <ele>6</ele>
        <time>2022-05-27T08:11:57Z</time>
      </trkpt>
      <trkpt lat="48.62657" lon="-3.85727">
        <ele>6</ele>
        <time>2022-05-27T08:12:05Z</time>
      </trkpt>
      <trkpt lat="48.62688" lon="-3.85737">
        <ele>6</ele>
        <time>2022-05-27T08:12:10Z</time>
      </trkpt>
      <trkpt lat="48.62733" lon="-3.85756">
        <ele>6</ele>
        <time>2022-05-27T08:12:17Z</time>
      </trkpt>
      <trkpt lat="48.62781" lon="-3.85777">
        <ele>6</ele>
        <time>2022-05-27T08:12:24Z</time>
      </trkpt>
      <trkpt lat="48.6283" lon="-3.85801">
        <ele>6</ele>
        <time>2022-05-27T08:12:31Z</time>
      </trkpt>
      <trkpt lat="48.62878" lon="-3.85826">
        <ele>6</ele>
        <time>2022-05-27T08:12:38Z</time>
      </trkpt>
      <trkpt lat="48.62924" lon="-3.85848">
        <ele>6</ele>
        <time>2022-05-27T08:12:45Z</time>
      </trkpt>
      <trkpt lat="48.62969" lon="-3.85876">
        <ele>6</ele>
        <time>2022-05-27T08:12:52Z</time>
      </trkpt>
      <trkpt lat="48.63012" lon="-3.85909">
        <ele>6</ele>
        <time>2022-05-27T08:12:59Z</time>
      </trkpt>
      <trkpt lat="48.63058" lon="-3.85944">
        <ele>6</ele>
        <time>2022-05-27T08:13:06Z</time>
      </trkpt>
      <trkpt lat="48.63077" lon="-3.85961">
        <ele>6</ele>
        <time>2022-05-27T08:13:09Z</time>
      </trkpt>
      <trkpt lat="48.63124" lon="-3.85988">
        <ele>6</ele>
        <time>2022-05-27T08:13:16Z</time>
      </trkpt>
      <trkpt lat="48.6317" lon="-3.86014">
        <ele>6</ele>
        <time>2022-05-27T08:13:23Z</time>
      </trkpt>
      <trkpt lat="48.63213" lon="-3.86047">
        <ele>6</ele>
        <time>2022-05-27T08:13:30Z</time>
      </trkpt>
      <trkpt lat="48.63218" lon="-3.86054">
        <ele>6</ele>
        <time>2022-05-27T08:13:31Z</time>
      </trkpt>
      <trkpt lat="48.63224" lon="-3.86059">
        <ele>6</ele>
        <time>2022-05-27T08:13:32Z</time>
      </trkpt>
      <trkpt lat="48.63257" lon="-3.8611">
        <ele>6</ele>
        <time>2022-05-27T08:13:39Z</time>
      </trkpt>
      <trkpt lat="48.63284" lon="-3.86164">
        <ele>6</ele>
        <time>2022-05-27T08:13:46Z</time>
      </trkpt>
      <trkpt lat="48.63313" lon="-3.86225">
        <ele>6</ele>
        <time>2022-05-27T08:13:54Z</time>
      </trkpt>
      <trkpt lat="48.63337" lon="-3.86277">
        <ele>6</ele>
        <time>2022-05-27T08:14:01Z</time>
      </trkpt>
      <trkpt lat="48.6335" lon="-3.86307">
        <ele>6.1</ele>
        <time>2022-05-27T08:14:05Z</time>
      </trkpt>
      <trkpt lat="48.63364" lon="-3.86338">
        <ele>6.7</ele>
        <time>2022-05-27T08:14:09Z</time>
      </trkpt>
      <trkpt lat="48.6339" lon="-3.86396">
        <ele>8.1</ele>
        <time>2022-05-27T08:14:17Z</time>
      </trkpt>
      <trkpt lat="48.6341" lon="-3.8644">
        <ele>9.1</ele>
        <time>2022-05-27T08:14:23Z</time>
      </trkpt>
      <trkpt lat="48.63416" lon="-3.86454">
        <ele>9.3</ele>
        <time>2022-05-27T08:14:25Z</time>
      </trkpt>
      <trkpt lat="48.63442" lon="-3.86512">
        <ele>10.4</ele>
        <time>2022-05-27T08:14:33Z</time>
      </trkpt>
      <trkpt lat="48.63468" lon="-3.8657">
        <ele>11.4</ele>
        <time>2022-05-27T08:14:41Z</time>
      </trkpt>
      <trkpt lat="48.63488" lon="-3.86613">
        <ele>12.2</ele>
        <time>2022-05-27T08:14:47Z</time>
      </trkpt>
      <trkpt lat="48.63494" lon="-3.86627">
        <ele>12.5</ele>
        <time>2022-05-27T08:14:49Z</time>
      </trkpt>
      <trkpt lat="48.63506" lon="-3.86659">
        <ele>12.9</ele>
        <time>2022-05-27T08:14:53Z</time>
      </trkpt>
      <trkpt lat="48.63514" lon="-3.86683">
        <ele>13.2</ele>
        <time>2022-05-27T08:14:56Z</time>
      </trkpt>
      <trkpt lat="48.63519" lon="-3.8671">
        <ele>13.5</ele>
        <time>2022-05-27T08:14:59Z</time>
      </trkpt>
      <trkpt lat="48.63526" lon="-3.86755">
        <ele>14</ele>
        <time>2022-05-27T08:15:04Z</time>
      </trkpt>
      <trkpt lat="48.63527" lon="-3.86827">
        <ele>14.7</ele>
        <time>2022-05-27T08:15:12Z</time>
      </trkpt>
      <trkpt lat="48.63516" lon="-3.86897">
        <ele>15.5</ele>
        <time>2022-05-27T08:15:20Z</time>
      </trkpt>
      <trkpt lat="48.63504" lon="-3.86962">
        <ele>16.2</ele>
        <time>2022-05-27T08:15:28Z</time>
      </trkpt>
      <trkpt lat="48.635" lon="-3.86997">
        <ele>16.6</ele>
        <time>2022-05-27T08:15:32Z</time>
      </trkpt>
      <trkpt lat="48.63496" lon="-3.87033">
        <ele>16.8</ele>
        <time>2022-05-27T08:15:36Z</time>
      </trkpt>
      <trkpt lat="48.63499" lon="-3.87102">
        <ele>17.1</ele>
        <time>2022-05-27T08:15:43Z</time>
      </trkpt>
      <trkpt lat="48.635" lon="-3.87112">
        <ele>17</ele>
        <time>2022-05-27T08:15:44Z</time>
      </trkpt>
      <trkpt lat="48.63511" lon="-3.87176">
        <ele>16.1</ele>
        <time>2022-05-27T08:15:50Z</time>
      </trkpt>
      <trkpt lat="48.63534" lon="-3.87241">
        <ele>15.1</ele>
        <time>2022-05-27T08:15:56Z</time>
      </trkpt>
      <trkpt lat="48.63565" lon="-3.87299">
        <ele>14.4</ele>
        <time>2022-05-27T08:16:02Z</time>
      </trkpt>
      <trkpt lat="48.63601" lon="-3.87348">
        <ele>13.7</ele>
        <time>2022-05-27T08:16:08Z</time>
      </trkpt>
      <trkpt lat="48.63637" lon="-3.87393">
        <ele>13</ele>
        <time>2022-05-27T08:16:14Z</time>
      </trkpt>
      <trkpt lat="48.63675" lon="-3.87428">
        <ele>12.4</ele>
        <time>2022-05-27T08:16:20Z</time>
      </trkpt>
      <trkpt lat="48.63682" lon="-3.87433">
        <ele>12.3</ele>
        <time>2022-05-27T08:16:21Z</time>
      </trkpt>
      <trkpt lat="48.63709" lon="-3.87454">
        <ele>11.9</ele>
        <time>2022-05-27T08:16:25Z</time>
      </trkpt>
      <trkpt lat="48.63757" lon="-3.87483">
        <ele>11.3</ele>
        <time>2022-05-27T08:16:32Z</time>
      </trkpt>
      <trkpt lat="48.63802" lon="-3.87518">
        <ele>10.7</ele>
        <time>2022-05-27T08:16:39Z</time>
      </trkpt>
      <trkpt lat="48.63841" lon="-3.87572">
        <ele>10.1</ele>
        <time>2022-05-27T08:16:46Z</time>
      </trkpt>
      <trkpt lat="48.63853" lon="-3.87603">
        <ele>9.8</ele>
        <time>2022-05-27T08:16:49Z</time>
      </trkpt>
      <trkpt lat="48.63869" lon="-3.87676">
        <ele>9.3</ele>
        <time>2022-05-27T08:16:55Z</time>
      </trkpt>
      <trkpt lat="48.63871" lon="-3.87689">
        <ele>9.1</ele>
        <time>2022-05-27T08:16:56Z</time>
      </trkpt>
      <trkpt lat="48.63881" lon="-3.87752">
        <ele>7.8</ele>
        <time>2022-05-27T08:17:01Z</time>
      </trkpt>
      <trkpt lat="48.63893" lon="-3.87827">
        <ele>6.2</ele>
        <time>2022-05-27T08:17:07Z</time>
      </trkpt>
      <trkpt lat="48.63895" lon="-3.87839">
        <ele>6</ele>
        <time>2022-05-27T08:17:08Z</time>
      </trkpt>
      <trkpt lat="48.63903" lon="-3.879">
        <ele>5.8</ele>
        <time>2022-05-27T08:17:13Z</time>
      </trkpt>
      <trkpt lat="48.63913" lon="-3.87969">
        <ele>5.1</ele>
        <time>2022-05-27T08:17:19Z</time>
      </trkpt>
      <trkpt lat="48.63926" lon="-3.88035">
        <ele>4.5</ele>
        <time>2022-05-27T08:17:25Z</time>
      </trkpt>
      <trkpt lat="48.63941" lon="-3.88102">
        <ele>3.8</ele>
        <time>2022-05-27T08:17:31Z</time>
      </trkpt>
      <trkpt lat="48.63946" lon="-3.88124">
        <ele>3.6</ele>
        <time>2022-05-27T08:17:33Z</time>
      </trkpt>
      <trkpt lat="48.63955" lon="-3.88167">
        <ele>3.4</ele>
        <time>2022-05-27T08:17:37Z</time>
      </trkpt>
      <trkpt lat="48.6397" lon="-3.88239">
        <ele>2.9</ele>
        <time>2022-05-27T08:17:44Z</time>
      </trkpt>
      <trkpt lat="48.63972" lon="-3.88249">
        <ele>2.9</ele>
        <time>2022-05-27T08:17:45Z</time>
      </trkpt>
      <trkpt lat="48.63986" lon="-3.88308">
        <ele>3.1</ele>
        <time>2022-05-27T08:17:51Z</time>
      </trkpt>
      <trkpt lat="48.64003" lon="-3.88377">
        <ele>3.3</ele>
        <time>2022-05-27T08:17:58Z</time>
      </trkpt>
      <trkpt lat="48.64019" lon="-3.88443">
        <ele>3.5</ele>
        <time>2022-05-27T08:18:05Z</time>
      </trkpt>
      <trkpt lat="48.64039" lon="-3.88509">
        <ele>3.7</ele>
        <time>2022-05-27T08:18:12Z</time>
      </trkpt>
      <trkpt lat="48.64061" lon="-3.88572">
        <ele>4</ele>
        <time>2022-05-27T08:18:19Z</time>
      </trkpt>
      <trkpt lat="48.64082" lon="-3.88635">
        <ele>4.2</ele>
        <time>2022-05-27T08:18:26Z</time>
      </trkpt>
      <trkpt lat="48.64104" lon="-3.88699">
        <ele>4.4</ele>
        <time>2022-05-27T08:18:33Z</time>
      </trkpt>
      <trkpt lat="48.64125" lon="-3.8876">
        <ele>4.6</ele>
        <time>2022-05-27T08:18:40Z</time>
      </trkpt>
      <trkpt lat="48.64149" lon="-3.88827">
        <ele>4.8</ele>
        <time>2022-05-27T08:18:48Z</time>
      </trkpt>
      <trkpt lat="48.64172" lon="-3.88889">
        <ele>5.1</ele>
        <time>2022-05-27T08:18:56Z</time>
      </trkpt>
      <trkpt lat="48.64175" lon="-3.88896">
        <ele>5.2</ele>
        <time>2022-05-27T08:18:57Z</time>
      </trkpt>
      <trkpt lat="48.64196" lon="-3.88953">
        <ele>6.2</ele>
        <time>2022-05-27T08:19:05Z</time>
      </trkpt>
      <trkpt lat="48.64206" lon="-3.88985">
        <ele>6.6</ele>
        <time>2022-05-27T08:19:09Z</time>
      </trkpt>
      <trkpt lat="48.64216" lon="-3.89017">
        <ele>6.1</ele>
        <time>2022-05-27T08:19:13Z</time>
      </trkpt>
      <trkpt lat="48.64237" lon="-3.89084">
        <ele>5.2</ele>
        <time>2022-05-27T08:19:21Z</time>
      </trkpt>
      <trkpt lat="48.64258" lon="-3.89149">
        <ele>4.4</ele>
        <time>2022-05-27T08:19:28Z</time>
      </trkpt>
      <trkpt lat="48.64269" lon="-3.89178">
        <ele>4.1</ele>
        <time>2022-05-27T08:19:31Z</time>
      </trkpt>
      <trkpt lat="48.64284" lon="-3.89216">
        <ele>3.6</ele>
        <time>2022-05-27T08:19:35Z</time>
      </trkpt>
      <trkpt lat="48.64311" lon="-3.89282">
        <ele>2.8</ele>
        <time>2022-05-27T08:19:42Z</time>
      </trkpt>
      <trkpt lat="48.64327" lon="-3.89353">
        <ele>3.4</ele>
        <time>2022-05-27T08:19:49Z</time>
      </trkpt>
      <trkpt lat="48.64324" lon="-3.89428">
        <ele>4</ele>
        <time>2022-05-27T08:19:56Z</time>
      </trkpt>
      <trkpt lat="48.64314" lon="-3.89496">
        <ele>4.6</ele>
        <time>2022-05-27T08:20:03Z</time>
      </trkpt>
      <trkpt lat="48.64309" lon="-3.89569">
        <ele>5.4</ele>
        <time>2022-05-27T08:20:12Z</time>
      </trkpt>
      <trkpt lat="48.6431" lon="-3.8961">
        <ele>7.2</ele>
        <time>2022-05-27T08:20:18Z</time>
      </trkpt>
      <trkpt lat="48.64311" lon="-3.8963">
        <ele>8.1</ele>
        <time>2022-05-27T08:20:21Z</time>
      </trkpt>
      <trkpt lat="48.64313" lon="-3.89636">
        <ele>8.5</ele>
        <time>2022-05-27T08:20:22Z</time>
      </trkpt>
      <trkpt lat="48.64319" lon="-3.89683">
        <ele>11</ele>
        <time>2022-05-27T08:20:30Z</time>
      </trkpt>
      <trkpt lat="48.64322" lon="-3.89706">
        <ele>12</ele>
        <time>2022-05-27T08:20:34Z</time>
      </trkpt>
      <trkpt lat="48.64332" lon="-3.8975">
        <ele>14</ele>
        <time>2022-05-27T08:20:42Z</time>
      </trkpt>
      <trkpt lat="48.64337" lon="-3.89772">
        <ele>15</ele>
        <time>2022-05-27T08:20:46Z</time>
      </trkpt>
      <trkpt lat="48.64347" lon="-3.89816">
        <ele>16.9</ele>
        <time>2022-05-27T08:20:54Z</time>
      </trkpt>
      <trkpt lat="48.6435" lon="-3.89827">
        <ele>17.4</ele>
        <time>2022-05-27T08:20:56Z</time>
      </trkpt>
      <trkpt lat="48.64351" lon="-3.89832">
        <ele>17.6</ele>
        <time>2022-05-27T08:20:57Z</time>
      </trkpt>
      <trkpt lat="48.64356" lon="-3.89852">
        <ele>18.6</ele>
        <time>2022-05-27T08:21:01Z</time>
      </trkpt>
      <trkpt lat="48.64356" lon="-3.89858">
        <ele>18.8</ele>
        <time>2022-05-27T08:21:02Z</time>
      </trkpt>
      <trkpt lat="48.64369" lon="-3.89909">
        <ele>21.2</ele>
        <time>2022-05-27T08:21:12Z</time>
      </trkpt>
      <trkpt lat="48.64373" lon="-3.89925">
        <ele>21.9</ele>
        <time>2022-05-27T08:21:15Z</time>
      </trkpt>
      <trkpt lat="48.64391" lon="-3.89991">
        <ele>25</ele>
        <time>2022-05-27T08:21:28Z</time>
      </trkpt>
      <trkpt lat="48.64417" lon="-3.90041">
        <ele>28.1</ele>
        <time>2022-05-27T08:21:40Z</time>
      </trkpt>
      <trkpt lat="48.64419" lon="-3.90045">
        <ele>28.3</ele>
        <time>2022-05-27T08:21:41Z</time>
      </trkpt>
      <trkpt lat="48.6445" lon="-3.90084">
        <ele>31.1</ele>
        <time>2022-05-27T08:21:52Z</time>
      </trkpt>
      <trkpt lat="48.64455" lon="-3.90091">
        <ele>31.6</ele>
        <time>2022-05-27T08:21:54Z</time>
      </trkpt>
      <trkpt lat="48.64468" lon="-3.90101">
        <ele>32.5</ele>
        <time>2022-05-27T08:21:58Z</time>
      </trkpt>
      <trkpt lat="48.64488" lon="-3.90117">
        <ele>34</ele>
        <time>2022-05-27T08:22:04Z</time>
      </trkpt>
      <trkpt lat="48.64497" lon="-3.90124">
        <ele>34.7</ele>
        <time>2022-05-27T08:22:07Z</time>
      </trkpt>
      <trkpt lat="48.64543" lon="-3.90141">
        <ele>37.9</ele>
        <time>2022-05-27T08:22:20Z</time>
      </trkpt>
      <trkpt lat="48.64551" lon="-3.90141">
        <ele>38.4</ele>
        <time>2022-05-27T08:22:22Z</time>
      </trkpt>
      <trkpt lat="48.64572" lon="-3.90142">
        <ele>39.9</ele>
        <time>2022-05-27T08:22:28Z</time>
      </trkpt>
      <trkpt lat="48.64589" lon="-3.90143">
        <ele>41.2</ele>
        <time>2022-05-27T08:22:33Z</time>
      </trkpt>
      <trkpt lat="48.64593" lon="-3.90143">
        <ele>41.4</ele>
        <time>2022-05-27T08:22:34Z</time>
      </trkpt>
      <trkpt lat="48.64614" lon="-3.90143">
        <ele>42.9</ele>
        <time>2022-05-27T08:22:40Z</time>
      </trkpt>
      <trkpt lat="48.64636" lon="-3.90143">
        <ele>44.6</ele>
        <time>2022-05-27T08:22:46Z</time>
      </trkpt>
      <trkpt lat="48.64661" lon="-3.90147">
        <ele>45.7</ele>
        <time>2022-05-27T08:22:52Z</time>
      </trkpt>
      <trkpt lat="48.64682" lon="-3.9015">
        <ele>46.3</ele>
        <time>2022-05-27T08:22:57Z</time>
      </trkpt>
      <trkpt lat="48.64725" lon="-3.9017">
        <ele>47.4</ele>
        <time>2022-05-27T08:23:07Z</time>
      </trkpt>
      <trkpt lat="48.6474" lon="-3.9018">
        <ele>47.6</ele>
        <time>2022-05-27T08:23:10Z</time>
      </trkpt>
      <trkpt lat="48.64769" lon="-3.902">
        <ele>47.6</ele>
        <time>2022-05-27T08:23:16Z</time>
      </trkpt>
      <trkpt lat="48.64807" lon="-3.90241">
        <ele>47.6</ele>
        <time>2022-05-27T08:23:24Z</time>
      </trkpt>
      <trkpt lat="48.64845" lon="-3.90291">
        <ele>47.6</ele>
        <time>2022-05-27T08:23:32Z</time>
      </trkpt>
      <trkpt lat="48.64878" lon="-3.90338">
        <ele>47.6</ele>
        <time>2022-05-27T08:23:39Z</time>
      </trkpt>
      <trkpt lat="48.64915" lon="-3.90386">
        <ele>47.6</ele>
        <time>2022-05-27T08:23:47Z</time>
      </trkpt>
      <trkpt lat="48.64952" lon="-3.90436">
        <ele>47.6</ele>
        <time>2022-05-27T08:23:56Z</time>
      </trkpt>
      <trkpt lat="48.64974" lon="-3.90467">
        <ele>47.7</ele>
        <time>2022-05-27T08:24:02Z</time>
      </trkpt>
      <trkpt lat="48.64984" lon="-3.90483">
        <ele>48.2</ele>
        <time>2022-05-27T08:24:05Z</time>
      </trkpt>
      <trkpt lat="48.65013" lon="-3.90518">
        <ele>49.6</ele>
        <time>2022-05-27T08:24:13Z</time>
      </trkpt>
      <trkpt lat="48.65031" lon="-3.90529">
        <ele>50.2</ele>
        <time>2022-05-27T08:24:17Z</time>
      </trkpt>
      <trkpt lat="48.65043" lon="-3.90539">
        <ele>50.8</ele>
        <time>2022-05-27T08:24:20Z</time>
      </trkpt>
      <trkpt lat="48.65073" lon="-3.90564">
        <ele>52.3</ele>
        <time>2022-05-27T08:24:27Z</time>
      </trkpt>
      <trkpt lat="48.65118" lon="-3.9059">
        <ele>54.7</ele>
        <time>2022-05-27T08:24:38Z</time>
      </trkpt>
      <trkpt lat="48.65163" lon="-3.9062">
        <ele>56.9</ele>
        <time>2022-05-27T08:24:49Z</time>
      </trkpt>
      <trkpt lat="48.65196" lon="-3.90646">
        <ele>58.2</ele>
        <time>2022-05-27T08:24:56Z</time>
      </trkpt>
      <trkpt lat="48.65205" lon="-3.90653">
        <ele>58.3</ele>
        <time>2022-05-27T08:24:58Z</time>
      </trkpt>
      <trkpt lat="48.65225" lon="-3.90669">
        <ele>58.5</ele>
        <time>2022-05-27T08:25:02Z</time>
      </trkpt>
      <trkpt lat="48.65244" lon="-3.90686">
        <ele>58.3</ele>
        <time>2022-05-27T08:25:06Z</time>
      </trkpt>
      <trkpt lat="48.65286" lon="-3.90719">
        <ele>58</ele>
        <time>2022-05-27T08:25:14Z</time>
      </trkpt>
      <trkpt lat="48.6533" lon="-3.90753">
        <ele>57.7</ele>
        <time>2022-05-27T08:25:22Z</time>
      </trkpt>
      <trkpt lat="48.65375" lon="-3.9079">
        <ele>57.3</ele>
        <time>2022-05-27T08:25:30Z</time>
      </trkpt>
      <trkpt lat="48.65416" lon="-3.90823">
        <ele>57.1</ele>
        <time>2022-05-27T08:25:37Z</time>
      </trkpt>
      <trkpt lat="48.65457" lon="-3.90855">
        <ele>56.8</ele>
        <time>2022-05-27T08:25:44Z</time>
      </trkpt>
      <trkpt lat="48.65502" lon="-3.90891">
        <ele>56.4</ele>
        <time>2022-05-27T08:25:52Z</time>
      </trkpt>
      <trkpt lat="48.65543" lon="-3.90923">
        <ele>56.1</ele>
        <time>2022-05-27T08:25:59Z</time>
      </trkpt>
      <trkpt lat="48.65588" lon="-3.90957">
        <ele>55.9</ele>
        <time>2022-05-27T08:26:06Z</time>
      </trkpt>
      <trkpt lat="48.65633" lon="-3.90988">
        <ele>55.6</ele>
        <time>2022-05-27T08:26:13Z</time>
      </trkpt>
      <trkpt lat="48.65652" lon="-3.90999">
        <ele>55.4</ele>
        <time>2022-05-27T08:26:16Z</time>
      </trkpt>
      <trkpt lat="48.65678" lon="-3.91013">
        <ele>54.8</ele>
        <time>2022-05-27T08:26:20Z</time>
      </trkpt>
      <trkpt lat="48.65727" lon="-3.91034">
        <ele>53.8</ele>
        <time>2022-05-27T08:26:27Z</time>
      </trkpt>
      <trkpt lat="48.65734" lon="-3.91036">
        <ele>53.7</ele>
        <time>2022-05-27T08:26:28Z</time>
      </trkpt>
      <trkpt lat="48.65772" lon="-3.91051">
        <ele>52.7</ele>
        <time>2022-05-27T08:26:33Z</time>
      </trkpt>
      <trkpt lat="48.65815" lon="-3.91071">
        <ele>51.5</ele>
        <time>2022-05-27T08:26:39Z</time>
      </trkpt>
      <trkpt lat="48.65859" lon="-3.9109">
        <ele>50.3</ele>
        <time>2022-05-27T08:26:45Z</time>
      </trkpt>
      <trkpt lat="48.65867" lon="-3.91093">
        <ele>50.2</ele>
        <time>2022-05-27T08:26:46Z</time>
      </trkpt>
      <trkpt lat="48.65905" lon="-3.91109">
        <ele>49.7</ele>
        <time>2022-05-27T08:26:51Z</time>
      </trkpt>
      <trkpt lat="48.65944" lon="-3.91125">
        <ele>49.3</ele>
        <time>2022-05-27T08:26:56Z</time>
      </trkpt>
      <trkpt lat="48.6599" lon="-3.91141">
        <ele>48.7</ele>
        <time>2022-05-27T08:27:02Z</time>
      </trkpt>
      <trkpt lat="48.66005" lon="-3.91147">
        <ele>48.6</ele>
        <time>2022-05-27T08:27:04Z</time>
      </trkpt>
      <trkpt lat="48.66034" lon="-3.9116">
        <ele>48.2</ele>
        <time>2022-05-27T08:27:08Z</time>
      </trkpt>
      <trkpt lat="48.66083" lon="-3.9118">
        <ele>47.6</ele>
        <time>2022-05-27T08:27:15Z</time>
      </trkpt>
      <trkpt lat="48.66135" lon="-3.9118">
        <ele>47</ele>
        <time>2022-05-27T08:27:22Z</time>
      </trkpt>
      <trkpt lat="48.66178" lon="-3.91182">
        <ele>46.6</ele>
        <time>2022-05-27T08:27:28Z</time>
      </trkpt>
      <trkpt lat="48.66185" lon="-3.91183">
        <ele>46.6</ele>
        <time>2022-05-27T08:27:29Z</time>
      </trkpt>
      <trkpt lat="48.66219" lon="-3.91184">
        <ele>46.6</ele>
        <time>2022-05-27T08:27:34Z</time>
      </trkpt>
      <trkpt lat="48.66233" lon="-3.91185">
        <ele>46.5</ele>
        <time>2022-05-27T08:27:36Z</time>
      </trkpt>
      <trkpt lat="48.66281" lon="-3.91185">
        <ele>46.3</ele>
        <time>2022-05-27T08:27:43Z</time>
      </trkpt>
      <trkpt lat="48.66328" lon="-3.91182">
        <ele>46</ele>
        <time>2022-05-27T08:27:51Z</time>
      </trkpt>
      <trkpt lat="48.66378" lon="-3.91187">
        <ele>45.7</ele>
        <time>2022-05-27T08:27:59Z</time>
      </trkpt>
      <trkpt lat="48.66404" lon="-3.91188">
        <ele>45.6</ele>
        <time>2022-05-27T08:28:03Z</time>
      </trkpt>
      <trkpt lat="48.66451" lon="-3.91201">
        <ele>45.3</ele>
        <time>2022-05-27T08:28:11Z</time>
      </trkpt>
      <trkpt lat="48.66457" lon="-3.91201">
        <ele>45.2</ele>
        <time>2022-05-27T08:28:12Z</time>
      </trkpt>
      <trkpt lat="48.66463" lon="-3.912">
        <ele>45.2</ele>
        <time>2022-05-27T08:28:13Z</time>
      </trkpt>
      <trkpt lat="48.66501" lon="-3.91212">
        <ele>44.9</ele>
        <time>2022-05-27T08:28:20Z</time>
      </trkpt>
      <trkpt lat="48.66521" lon="-3.91237">
        <ele>44.8</ele>
        <time>2022-05-27T08:28:24Z</time>
      </trkpt>
      <trkpt lat="48.66533" lon="-3.91245">
        <ele>44.7</ele>
        <time>2022-05-27T08:28:26Z</time>
      </trkpt>
      <trkpt lat="48.66575" lon="-3.91284">
        <ele>44.5</ele>
        <time>2022-05-27T08:28:33Z</time>
      </trkpt>
      <trkpt lat="48.66581" lon="-3.9129">
        <ele>44.3</ele>
        <time>2022-05-27T08:28:34Z</time>
      </trkpt>
      <trkpt lat="48.66613" lon="-3.91321">
        <ele>42.8</ele>
        <time>2022-05-27T08:28:39Z</time>
      </trkpt>
      <trkpt lat="48.66653" lon="-3.91352">
        <ele>40.8</ele>
        <time>2022-05-27T08:28:45Z</time>
      </trkpt>
      <trkpt lat="48.66659" lon="-3.91357">
        <ele>40.6</ele>
        <time>2022-05-27T08:28:46Z</time>
      </trkpt>
      <trkpt lat="48.66697" lon="-3.91384">
        <ele>40</ele>
        <time>2022-05-27T08:28:52Z</time>
      </trkpt>
      <trkpt lat="48.66729" lon="-3.91405">
        <ele>39.3</ele>
        <time>2022-05-27T08:28:58Z</time>
      </trkpt>
      <trkpt lat="48.6674" lon="-3.91412">
        <ele>39.3</ele>
        <time>2022-05-27T08:29:00Z</time>
      </trkpt>
      <trkpt lat="48.66788" lon="-3.91428">
        <ele>39.2</ele>
        <time>2022-05-27T08:29:08Z</time>
      </trkpt>
      <trkpt lat="48.66836" lon="-3.91425">
        <ele>39.1</ele>
        <time>2022-05-27T08:29:17Z</time>
      </trkpt>
      <trkpt lat="48.66868" lon="-3.91406">
        <ele>39</ele>
        <time>2022-05-27T08:29:27Z</time>
      </trkpt>
      <trkpt lat="48.66909" lon="-3.9142">
        <ele>38.8</ele>
        <time>2022-05-27T08:29:45Z</time>
      </trkpt>
      <trkpt lat="48.66901" lon="-3.91451">
        <ele>38.7</ele>
        <time>2022-05-27T08:29:49Z</time>
      </trkpt>
      <trkpt lat="48.66893" lon="-3.91472">
        <ele>38.7</ele>
        <time>2022-05-27T08:29:53Z</time>
      </trkpt>
      <trkpt lat="48.66904" lon="-3.91493">
        <ele>38.6</ele>
        <time>2022-05-27T08:29:56Z</time>
      </trkpt>
      <trkpt lat="48.66906" lon="-3.91498">
        <ele>38.6</ele>
        <time>2022-05-27T08:29:57Z</time>
      </trkpt>
      <trkpt lat="48.66905" lon="-3.91506">
        <ele>38.6</ele>
        <time>2022-05-27T08:29:58Z</time>
      </trkpt>
      <trkpt lat="48.66947" lon="-3.91537">
        <ele>38.5</ele>
        <time>2022-05-27T08:30:06Z</time>
      </trkpt>
      <trkpt lat="48.66979" lon="-3.91557">
        <ele>38.5</ele>
        <time>2022-05-27T08:30:12Z</time>
      </trkpt>
      <trkpt lat="48.67002" lon="-3.9157">
        <ele>38.4</ele>
        <time>2022-05-27T08:30:16Z</time>
      </trkpt>
      <trkpt lat="48.67026" lon="-3.91599">
        <ele>38.2</ele>
        <time>2022-05-27T08:30:21Z</time>
      </trkpt>
      <trkpt lat="48.67035" lon="-3.91612">
        <ele>37.2</ele>
        <time>2022-05-27T08:30:23Z</time>
      </trkpt>
      <trkpt lat="48.67043" lon="-3.91626">
        <ele>36.3</ele>
        <time>2022-05-27T08:30:25Z</time>
      </trkpt>
      <trkpt lat="48.67074" lon="-3.91663">
        <ele>33.4</ele>
        <time>2022-05-27T08:30:31Z</time>
      </trkpt>
      <trkpt lat="48.67086" lon="-3.91668">
        <ele>32.4</ele>
        <time>2022-05-27T08:30:33Z</time>
      </trkpt>
      <trkpt lat="48.67115" lon="-3.91679">
        <ele>29.8</ele>
        <time>2022-05-27T08:30:38Z</time>
      </trkpt>
      <trkpt lat="48.6712" lon="-3.91684">
        <ele>29.2</ele>
        <time>2022-05-27T08:30:39Z</time>
      </trkpt>
      <trkpt lat="48.67124" lon="-3.91692">
        <ele>28.6</ele>
        <time>2022-05-27T08:30:40Z</time>
      </trkpt>
      <trkpt lat="48.6712" lon="-3.91758">
        <ele>25.3</ele>
        <time>2022-05-27T08:30:45Z</time>
      </trkpt>
      <trkpt lat="48.67119" lon="-3.9177">
        <ele>24.5</ele>
        <time>2022-05-27T08:30:46Z</time>
      </trkpt>
      <trkpt lat="48.67116" lon="-3.91788">
        <ele>22.9</ele>
        <time>2022-05-27T08:30:48Z</time>
      </trkpt>
      <trkpt lat="48.67118" lon="-3.91806">
        <ele>21.4</ele>
        <time>2022-05-27T08:30:50Z</time>
      </trkpt>
      <trkpt lat="48.67122" lon="-3.91815">
        <ele>20.7</ele>
        <time>2022-05-27T08:30:51Z</time>
      </trkpt>
      <trkpt lat="48.67144" lon="-3.91867">
        <ele>17</ele>
        <time>2022-05-27T08:30:57Z</time>
      </trkpt>
      <trkpt lat="48.67145" lon="-3.91891">
        <ele>15.7</ele>
        <time>2022-05-27T08:30:59Z</time>
      </trkpt>
      <trkpt lat="48.67145" lon="-3.91891">
        <ele>15.7</ele>
        <time>2022-05-27T08:31:24Z</time>
      </trkpt>
      <trkpt lat="48.67139" lon="-3.91913">
        <ele>14.4</ele>
        <time>2022-05-27T08:31:25Z</time>
      </trkpt>
      <trkpt lat="48.67135" lon="-3.9192">
        <ele>14.3</ele>
        <time>2022-05-27T08:31:26Z</time>
      </trkpt>
      <trkpt lat="48.67133" lon="-3.91931">
        <ele>14.1</ele>
        <time>2022-05-27T08:31:27Z</time>
      </trkpt>
      <trkpt lat="48.67128" lon="-3.91961">
        <ele>13.2</ele>
        <time>2022-05-27T08:31:30Z</time>
      </trkpt>
      <trkpt lat="48.67118" lon="-3.91987">
        <ele>12.3</ele>
        <time>2022-05-27T08:31:33Z</time>
      </trkpt>
      <trkpt lat="48.67111" lon="-3.92005">
        <ele>11.6</ele>
        <time>2022-05-27T08:31:35Z</time>
      </trkpt>
      <trkpt lat="48.67095" lon="-3.9205">
        <ele>9.9</ele>
        <time>2022-05-27T08:31:40Z</time>
      </trkpt>
      <trkpt lat="48.67094" lon="-3.92067">
        <ele>9.2</ele>
        <time>2022-05-27T08:31:42Z</time>
      </trkpt>
      <trkpt lat="48.67107" lon="-3.92093">
        <ele>8.2</ele>
        <time>2022-05-27T08:31:45Z</time>
      </trkpt>
      <trkpt lat="48.67123" lon="-3.92128">
        <ele>7.2</ele>
        <time>2022-05-27T08:31:49Z</time>
      </trkpt>
      <trkpt lat="48.67147" lon="-3.92186">
        <ele>5.7</ele>
        <time>2022-05-27T08:31:55Z</time>
      </trkpt>
      <trkpt lat="48.67167" lon="-3.92231">
        <ele>3.2</ele>
        <time>2022-05-27T08:32:00Z</time>
      </trkpt>
      <trkpt lat="48.67175" lon="-3.92249">
        <ele>2.9</ele>
        <time>2022-05-27T08:32:02Z</time>
      </trkpt>
      <trkpt lat="48.67179" lon="-3.92254">
        <ele>2.7</ele>
        <time>2022-05-27T08:32:03Z</time>
      </trkpt>
      <trkpt lat="48.67226" lon="-3.92258">
        <ele>1.6</ele>
        <time>2022-05-27T08:32:11Z</time>
      </trkpt>
      <trkpt lat="48.67231" lon="-3.92259">
        <ele>1.5</ele>
        <time>2022-05-27T08:32:12Z</time>
      </trkpt>
      <trkpt lat="48.67261" lon="-3.92263">
        <ele>1.9</ele>
        <time>2022-05-27T08:32:18Z</time>
      </trkpt>
      <trkpt lat="48.6727" lon="-3.92264">
        <ele>1.9</ele>
        <time>2022-05-27T08:32:20Z</time>
      </trkpt>
      <trkpt lat="48.67317" lon="-3.92277">
        <ele>1.4</ele>
        <time>2022-05-27T08:32:30Z</time>
      </trkpt>
      <trkpt lat="48.67319" lon="-3.92289">
        <ele>1.4</ele>
        <time>2022-05-27T08:32:31Z</time>
      </trkpt>
      <trkpt lat="48.67328" lon="-3.92307">
        <ele>1.3</ele>
        <time>2022-05-27T08:32:34Z</time>
      </trkpt>
      <trkpt lat="48.67342" lon="-3.92318">
        <ele>1.1</ele>
        <time>2022-05-27T08:32:37Z</time>
      </trkpt>
      <trkpt lat="48.67364" lon="-3.92328">
        <ele>0.9</ele>
        <time>2022-05-27T08:32:42Z</time>
      </trkpt>
      <trkpt lat="48.6739" lon="-3.92341">
        <ele>0.3</ele>
        <time>2022-05-27T08:32:48Z</time>
      </trkpt>
      <trkpt lat="48.67428" lon="-3.92378">
        <ele>-0.6</ele>
        <time>2022-05-27T08:32:56Z</time>
      </trkpt>
      <trkpt lat="48.67437" lon="-3.92401">
        <ele>-0.9</ele>
        <time>2022-05-27T08:32:59Z</time>
      </trkpt>
      <trkpt lat="48.67437" lon="-3.92409">
        <ele>-1.1</ele>
        <time>2022-05-27T08:33:00Z</time>
      </trkpt>
      <trkpt lat="48.6744" lon="-3.92434">
        <ele>-1.7</ele>
        <time>2022-05-27T08:33:03Z</time>
      </trkpt>
      <trkpt lat="48.67448" lon="-3.92452">
        <ele>-2.3</ele>
        <time>2022-05-27T08:33:06Z</time>
      </trkpt>
      <trkpt lat="48.67451" lon="-3.92457">
        <ele>-2.4</ele>
        <time>2022-05-27T08:33:07Z</time>
      </trkpt>
      <trkpt lat="48.67483" lon="-3.92475">
        <ele>-3.2</ele>
        <time>2022-05-27T08:33:14Z</time>
      </trkpt>
      <trkpt lat="48.67502" lon="-3.92472">
        <ele>-3.7</ele>
        <time>2022-05-27T08:33:18Z</time>
      </trkpt>
      <trkpt lat="48.6753" lon="-3.92468">
        <ele>-3.5</ele>
        <time>2022-05-27T08:33:24Z</time>
      </trkpt>
      <trkpt lat="48.6755" lon="-3.9247">
        <ele>-3.4</ele>
        <time>2022-05-27T08:33:28Z</time>
      </trkpt>
      <trkpt lat="48.67596" lon="-3.9247">
        <ele>-3.2</ele>
        <time>2022-05-27T08:33:36Z</time>
      </trkpt>
      <trkpt lat="48.6764" lon="-3.92453">
        <ele>-3</ele>
        <time>2022-05-27T08:33:44Z</time>
      </trkpt>
      <trkpt lat="48.67687" lon="-3.92441">
        <ele>-2.8</ele>
        <time>2022-05-27T08:33:53Z</time>
      </trkpt>
      <trkpt lat="48.67736" lon="-3.92432">
        <ele>-2.5</ele>
        <time>2022-05-27T08:34:02Z</time>
      </trkpt>
      <trkpt lat="48.67784" lon="-3.92425">
        <ele>-2.3</ele>
        <time>2022-05-27T08:34:11Z</time>
      </trkpt>
      <trkpt lat="48.67832" lon="-3.92417">
        <ele>-2.1</ele>
        <time>2022-05-27T08:34:19Z</time>
      </trkpt>
      <trkpt lat="48.67879" lon="-3.92413">
        <ele>-1.9</ele>
        <time>2022-05-27T08:34:27Z</time>
      </trkpt>
      <trkpt lat="48.67928" lon="-3.92408">
        <ele>-1.7</ele>
        <time>2022-05-27T08:34:36Z</time>
      </trkpt>
      <trkpt lat="48.67974" lon="-3.92403">
        <ele>-1.4</ele>
        <time>2022-05-27T08:34:46Z</time>
      </trkpt>
      <trkpt lat="48.68003" lon="-3.92397">
        <ele>-1.2</ele>
        <time>2022-05-27T08:34:54Z</time>
      </trkpt>
      <trkpt lat="48.68005" lon="-3.92395">
        <ele>-1.2</ele>
        <time>2022-05-27T08:34:55Z</time>
      </trkpt>
      <trkpt lat="48.68025" lon="-3.9239">
        <ele>-1.1</ele>
        <time>2022-05-27T08:35:01Z</time>
      </trkpt>
      <trkpt lat="48.68034" lon="-3.92384">
        <ele>-0.9</ele>
        <time>2022-05-27T08:35:04Z</time>
      </trkpt>
      <trkpt lat="48.68053" lon="-3.92374">
        <ele>-0.3</ele>
        <time>2022-05-27T08:35:10Z</time>
      </trkpt>
      <trkpt lat="48.68074" lon="-3.92364">
        <ele>0.5</ele>
        <time>2022-05-27T08:35:17Z</time>
      </trkpt>
      <trkpt lat="48.68086" lon="-3.92362">
        <ele>1</ele>
        <time>2022-05-27T08:35:21Z</time>
      </trkpt>
      <trkpt lat="48.68088" lon="-3.92359">
        <ele>1.1</ele>
        <time>2022-05-27T08:35:22Z</time>
      </trkpt>
      <trkpt lat="48.68093" lon="-3.9236">
        <ele>1.1</ele>
        <time>2022-05-27T08:35:23Z</time>
      </trkpt>
      <trkpt lat="48.68121" lon="-3.92348">
        <ele>1.5</ele>
        <time>2022-05-27T08:35:30Z</time>
      </trkpt>
      <trkpt lat="48.68125" lon="-3.92343">
        <ele>1.6</ele>
        <time>2022-05-27T08:35:31Z</time>
      </trkpt>
      <trkpt lat="48.6817" lon="-3.92324">
        <ele>2.1</ele>
        <time>2022-05-27T08:35:40Z</time>
      </trkpt>
      <trkpt lat="48.68202" lon="-3.92314">
        <ele>2.5</ele>
        <time>2022-05-27T08:35:46Z</time>
      </trkpt>
      <trkpt lat="48.68232" lon="-3.92301">
        <ele>2.9</ele>
        <time>2022-05-27T08:35:52Z</time>
      </trkpt>
      <trkpt lat="48.68247" lon="-3.92294">
        <ele>3.1</ele>
        <time>2022-05-27T08:35:55Z</time>
      </trkpt>
      <trkpt lat="48.6826" lon="-3.92288">
        <ele>3.3</ele>
        <time>2022-05-27T08:35:58Z</time>
      </trkpt>
      <trkpt lat="48.68293" lon="-3.92274">
        <ele>3.1</ele>
        <time>2022-05-27T08:36:05Z</time>
      </trkpt>
      <trkpt lat="48.68337" lon="-3.92247">
        <ele>2.9</ele>
        <time>2022-05-27T08:36:14Z</time>
      </trkpt>
      <trkpt lat="48.68342" lon="-3.92246">
        <ele>2.9</ele>
        <time>2022-05-27T08:36:15Z</time>
      </trkpt>
      <trkpt lat="48.68347" lon="-3.92247">
        <ele>2.9</ele>
        <time>2022-05-27T08:36:16Z</time>
      </trkpt>
      <trkpt lat="48.68358" lon="-3.92245">
        <ele>2.8</ele>
        <time>2022-05-27T08:36:18Z</time>
      </trkpt>
      <trkpt lat="48.68384" lon="-3.92255">
        <ele>2.7</ele>
        <time>2022-05-27T08:36:23Z</time>
      </trkpt>
      <trkpt lat="48.68404" lon="-3.92274">
        <ele>2.6</ele>
        <time>2022-05-27T08:36:27Z</time>
      </trkpt>
      <trkpt lat="48.68449" lon="-3.92307">
        <ele>2.3</ele>
        <time>2022-05-27T08:36:35Z</time>
      </trkpt>
      <trkpt lat="48.68459" lon="-3.92315">
        <ele>2.3</ele>
        <time>2022-05-27T08:36:37Z</time>
      </trkpt>
      <trkpt lat="48.68489" lon="-3.9234">
        <ele>2.3</ele>
        <time>2022-05-27T08:36:43Z</time>
      </trkpt>
      <trkpt lat="48.6853" lon="-3.92369">
        <ele>2.6</ele>
        <time>2022-05-27T08:36:51Z</time>
      </trkpt>
      <trkpt lat="48.6856" lon="-3.92395">
        <ele>2.8</ele>
        <time>2022-05-27T08:36:57Z</time>
      </trkpt>
      <trkpt lat="48.68566" lon="-3.92398">
        <ele>2.8</ele>
        <time>2022-05-27T08:36:58Z</time>
      </trkpt>
      <trkpt lat="48.68572" lon="-3.924">
        <ele>2.9</ele>
        <time>2022-05-27T08:36:59Z</time>
      </trkpt>
      <trkpt lat="48.6861" lon="-3.92443">
        <ele>3.2</ele>
        <time>2022-05-27T08:37:08Z</time>
      </trkpt>
      <trkpt lat="48.68646" lon="-3.92483">
        <ele>3.5</ele>
        <time>2022-05-27T08:37:16Z</time>
      </trkpt>
      <trkpt lat="48.68687" lon="-3.9251">
        <ele>3.8</ele>
        <time>2022-05-27T08:37:25Z</time>
      </trkpt>
      <trkpt lat="48.68733" lon="-3.9254">
        <ele>4.2</ele>
        <time>2022-05-27T08:37:35Z</time>
      </trkpt>
      <trkpt lat="48.68769" lon="-3.92577">
        <ele>4.5</ele>
        <time>2022-05-27T08:37:43Z</time>
      </trkpt>
      <trkpt lat="48.6879" lon="-3.92579">
        <ele>4.7</ele>
        <time>2022-05-27T08:37:47Z</time>
      </trkpt>
      <trkpt lat="48.68835" lon="-3.92555">
        <ele>5</ele>
        <time>2022-05-27T08:37:56Z</time>
      </trkpt>
      <trkpt lat="48.68881" lon="-3.92527">
        <ele>5.3</ele>
        <time>2022-05-27T08:38:05Z</time>
      </trkpt>
      <trkpt lat="48.68899" lon="-3.92516">
        <ele>5.5</ele>
        <time>2022-05-27T08:38:09Z</time>
      </trkpt>
      <trkpt lat="48.68944" lon="-3.925">
        <ele>5.9</ele>
        <time>2022-05-27T08:38:20Z</time>
      </trkpt>
      <trkpt lat="48.68972" lon="-3.92515">
        <ele>6.1</ele>
        <time>2022-05-27T08:38:26Z</time>
      </trkpt>
      <trkpt lat="48.69011" lon="-3.92558">
        <ele>6.5</ele>
        <time>2022-05-27T08:38:35Z</time>
      </trkpt>
      <trkpt lat="48.69054" lon="-3.92587">
        <ele>6.8</ele>
        <time>2022-05-27T08:38:44Z</time>
      </trkpt>
      <trkpt lat="48.69071" lon="-3.92598">
        <ele>7</ele>
        <time>2022-05-27T08:38:48Z</time>
      </trkpt>
      <trkpt lat="48.69073" lon="-3.92603">
        <ele>7</ele>
        <time>2022-05-27T08:38:49Z</time>
      </trkpt>
      <trkpt lat="48.69095" lon="-3.92625">
        <ele>7.3</ele>
        <time>2022-05-27T08:38:56Z</time>
      </trkpt>
      <trkpt lat="48.69102" lon="-3.92625">
        <ele>7.3</ele>
        <time>2022-05-27T08:38:58Z</time>
      </trkpt>
      <trkpt lat="48.69109" lon="-3.92625">
        <ele>7.5</ele>
        <time>2022-05-27T08:39:00Z</time>
      </trkpt>
      <trkpt lat="48.69135" lon="-3.92625">
        <ele>10.4</ele>
        <time>2022-05-27T08:39:08Z</time>
      </trkpt>
      <trkpt lat="48.69148" lon="-3.92615">
        <ele>11.8</ele>
        <time>2022-05-27T08:39:12Z</time>
      </trkpt>
      <trkpt lat="48.69158" lon="-3.92607">
        <ele>12.7</ele>
        <time>2022-05-27T08:39:15Z</time>
      </trkpt>
      <trkpt lat="48.69176" lon="-3.92561">
        <ele>15.1</ele>
        <time>2022-05-27T08:39:24Z</time>
      </trkpt>
      <trkpt lat="48.69182" lon="-3.92546">
        <ele>15.3</ele>
        <time>2022-05-27T08:39:27Z</time>
      </trkpt>
      <trkpt lat="48.69187" lon="-3.92532">
        <ele>15.5</ele>
        <time>2022-05-27T08:39:30Z</time>
      </trkpt>
      <trkpt lat="48.69175" lon="-3.92482">
        <ele>16.4</ele>
        <time>2022-05-27T08:39:41Z</time>
      </trkpt>
      <trkpt lat="48.69175" lon="-3.92482">
        <ele>16.4</ele>
        <time>2022-05-27T08:40:05Z</time>
      </trkpt>
      <trkpt lat="48.69153" lon="-3.9246">
        <ele>16.3</ele>
        <time>2022-05-27T08:40:27Z</time>
      </trkpt>
      <trkpt lat="48.69152" lon="-3.92464">
        <ele>16.3</ele>
        <time>2022-05-27T08:40:29Z</time>
      </trkpt>
      <trkpt lat="48.69173" lon="-3.92461">
        <ele>15.1</ele>
        <time>2022-05-27T08:40:34Z</time>
      </trkpt>
      <trkpt lat="48.69173" lon="-3.92461">
        <ele>15.1</ele>
        <time>2022-05-27T08:51:44Z</time>
      </trkpt>
      <trkpt lat="48.69192" lon="-3.92457">
        <ele>14</ele>
        <time>2022-05-27T08:51:50Z</time>
      </trkpt>
      <trkpt lat="48.69206" lon="-3.92457">
        <ele>14</ele>
        <time>2022-05-27T08:51:55Z</time>
      </trkpt>
      <trkpt lat="48.69211" lon="-3.92468">
        <ele>14</ele>
        <time>2022-05-27T08:51:58Z</time>
      </trkpt>
      <trkpt lat="48.69191" lon="-3.92531">
        <ele>13.9</ele>
        <time>2022-05-27T08:52:12Z</time>
      </trkpt>
      <trkpt lat="48.69168" lon="-3.92592">
        <ele>13.9</ele>
        <time>2022-05-27T08:52:24Z</time>
      </trkpt>
      <trkpt lat="48.69152" lon="-3.92614">
        <ele>13.8</ele>
        <time>2022-05-27T08:52:31Z</time>
      </trkpt>
      <trkpt lat="48.69147" lon="-3.92619">
        <ele>13.2</ele>
        <time>2022-05-27T08:52:33Z</time>
      </trkpt>
      <trkpt lat="48.6911" lon="-3.92626">
        <ele>10.2</ele>
        <time>2022-05-27T08:52:43Z</time>
      </trkpt>
      <trkpt lat="48.69102" lon="-3.92627">
        <ele>9.4</ele>
        <time>2022-05-27T08:52:45Z</time>
      </trkpt>
      <trkpt lat="48.69089" lon="-3.92623">
        <ele>8.2</ele>
        <time>2022-05-27T08:52:48Z</time>
      </trkpt>
      <trkpt lat="48.69071" lon="-3.92599">
        <ele>6.3</ele>
        <time>2022-05-27T08:52:53Z</time>
      </trkpt>
      <trkpt lat="48.69066" lon="-3.92596">
        <ele>6</ele>
        <time>2022-05-27T08:52:54Z</time>
      </trkpt>
      <trkpt lat="48.69051" lon="-3.9259">
        <ele>5.3</ele>
        <time>2022-05-27T08:52:57Z</time>
      </trkpt>
      <trkpt lat="48.69026" lon="-3.92578">
        <ele>4.3</ele>
        <time>2022-05-27T08:53:02Z</time>
      </trkpt>
      <trkpt lat="48.69019" lon="-3.92569">
        <ele>3.9</ele>
        <time>2022-05-27T08:53:04Z</time>
      </trkpt>
      <trkpt lat="48.69001" lon="-3.92547">
        <ele>3.4</ele>
        <time>2022-05-27T08:53:09Z</time>
      </trkpt>
      <trkpt lat="48.68989" lon="-3.92535">
        <ele>3.4</ele>
        <time>2022-05-27T08:53:12Z</time>
      </trkpt>
      <trkpt lat="48.68946" lon="-3.92505">
        <ele>3.2</ele>
        <time>2022-05-27T08:53:23Z</time>
      </trkpt>
      <trkpt lat="48.68927" lon="-3.92504">
        <ele>3.2</ele>
        <time>2022-05-27T08:53:27Z</time>
      </trkpt>
      <trkpt lat="48.68886" lon="-3.92533">
        <ele>3</ele>
        <time>2022-05-27T08:53:38Z</time>
      </trkpt>
      <trkpt lat="48.6884" lon="-3.9256">
        <ele>2.9</ele>
        <time>2022-05-27T08:53:49Z</time>
      </trkpt>
      <trkpt lat="48.68794" lon="-3.92585">
        <ele>2.7</ele>
        <time>2022-05-27T08:53:59Z</time>
      </trkpt>
      <trkpt lat="48.68779" lon="-3.92584">
        <ele>2.7</ele>
        <time>2022-05-27T08:54:02Z</time>
      </trkpt>
      <trkpt lat="48.68756" lon="-3.92567">
        <ele>2.6</ele>
        <time>2022-05-27T08:54:07Z</time>
      </trkpt>
      <trkpt lat="48.68714" lon="-3.92527">
        <ele>2.5</ele>
        <time>2022-05-27T08:54:16Z</time>
      </trkpt>
      <trkpt lat="48.68671" lon="-3.92506">
        <ele>2.4</ele>
        <time>2022-05-27T08:54:25Z</time>
      </trkpt>
      <trkpt lat="48.6863" lon="-3.9247">
        <ele>2.2</ele>
        <time>2022-05-27T08:54:35Z</time>
      </trkpt>
      <trkpt lat="48.68593" lon="-3.92426">
        <ele>2.1</ele>
        <time>2022-05-27T08:54:44Z</time>
      </trkpt>
      <trkpt lat="48.68551" lon="-3.9239">
        <ele>2</ele>
        <time>2022-05-27T08:54:52Z</time>
      </trkpt>
      <trkpt lat="48.6851" lon="-3.9236">
        <ele>1.9</ele>
        <time>2022-05-27T08:54:59Z</time>
      </trkpt>
      <trkpt lat="48.68465" lon="-3.92326">
        <ele>1.8</ele>
        <time>2022-05-27T08:55:07Z</time>
      </trkpt>
      <trkpt lat="48.68421" lon="-3.9229">
        <ele>1.7</ele>
        <time>2022-05-27T08:55:15Z</time>
      </trkpt>
      <trkpt lat="48.68378" lon="-3.92258">
        <ele>1.6</ele>
        <time>2022-05-27T08:55:23Z</time>
      </trkpt>
      <trkpt lat="48.68343" lon="-3.92253">
        <ele>1.5</ele>
        <time>2022-05-27T08:55:29Z</time>
      </trkpt>
      <trkpt lat="48.68297" lon="-3.92277">
        <ele>1.4</ele>
        <time>2022-05-27T08:55:37Z</time>
      </trkpt>
      <trkpt lat="48.68252" lon="-3.92298">
        <ele>1.3</ele>
        <time>2022-05-27T08:55:45Z</time>
      </trkpt>
      <trkpt lat="48.68206" lon="-3.92314">
        <ele>1.2</ele>
        <time>2022-05-27T08:55:53Z</time>
      </trkpt>
      <trkpt lat="48.68161" lon="-3.92331">
        <ele>1.1</ele>
        <time>2022-05-27T08:56:01Z</time>
      </trkpt>
      <trkpt lat="48.68114" lon="-3.9235">
        <ele>1</ele>
        <time>2022-05-27T08:56:10Z</time>
      </trkpt>
      <trkpt lat="48.68031" lon="-3.92385">
        <ele>0.5</ele>
        <time>2022-05-27T08:56:23Z</time>
      </trkpt>
      <trkpt lat="48.68031" lon="-3.92385">
        <ele>0.5</ele>
        <time>2022-05-27T08:57:01Z</time>
      </trkpt>
      <trkpt lat="48.67994" lon="-3.92399">
        <ele>0.2</ele>
        <time>2022-05-27T08:57:06Z</time>
      </trkpt>
      <trkpt lat="48.67977" lon="-3.92404">
        <ele>-0.4</ele>
        <time>2022-05-27T08:57:10Z</time>
      </trkpt>
      <trkpt lat="48.67928" lon="-3.9241">
        <ele>-1.7</ele>
        <time>2022-05-27T08:57:19Z</time>
      </trkpt>
      <trkpt lat="48.67906" lon="-3.92414">
        <ele>-2.4</ele>
        <time>2022-05-27T08:57:24Z</time>
      </trkpt>
      <trkpt lat="48.6788" lon="-3.92418">
        <ele>-2.2</ele>
        <time>2022-05-27T08:57:30Z</time>
      </trkpt>
      <trkpt lat="48.67831" lon="-3.92423">
        <ele>-2</ele>
        <time>2022-05-27T08:57:42Z</time>
      </trkpt>
      <trkpt lat="48.67786" lon="-3.9243">
        <ele>-1.8</ele>
        <time>2022-05-27T08:57:52Z</time>
      </trkpt>
      <trkpt lat="48.6774" lon="-3.92435">
        <ele>-1.5</ele>
        <time>2022-05-27T08:58:02Z</time>
      </trkpt>
      <trkpt lat="48.67694" lon="-3.92443">
        <ele>-1.3</ele>
        <time>2022-05-27T08:58:12Z</time>
      </trkpt>
      <trkpt lat="48.67647" lon="-3.92454">
        <ele>-1.1</ele>
        <time>2022-05-27T08:58:23Z</time>
      </trkpt>
      <trkpt lat="48.67603" lon="-3.9247">
        <ele>-0.8</ele>
        <time>2022-05-27T08:58:34Z</time>
      </trkpt>
      <trkpt lat="48.67558" lon="-3.92474">
        <ele>-0.6</ele>
        <time>2022-05-27T08:58:45Z</time>
      </trkpt>
      <trkpt lat="48.67512" lon="-3.92472">
        <ele>-0.3</ele>
        <time>2022-05-27T08:58:56Z</time>
      </trkpt>
      <trkpt lat="48.67466" lon="-3.92474">
        <ele>-0.1</ele>
        <time>2022-05-27T08:59:08Z</time>
      </trkpt>
      <trkpt lat="48.6744" lon="-3.92444">
        <ele>0.1</ele>
        <time>2022-05-27T08:59:17Z</time>
      </trkpt>
      <trkpt lat="48.67426" lon="-3.92378">
        <ele>0.4</ele>
        <time>2022-05-27T08:59:29Z</time>
      </trkpt>
      <trkpt lat="48.67384" lon="-3.92346">
        <ele>0.7</ele>
        <time>2022-05-27T08:59:41Z</time>
      </trkpt>
      <trkpt lat="48.67368" lon="-3.92336">
        <ele>0.8</ele>
        <time>2022-05-27T08:59:46Z</time>
      </trkpt>
      <trkpt lat="48.67342" lon="-3.92319">
        <ele>1.9</ele>
        <time>2022-05-27T08:59:54Z</time>
      </trkpt>
      <trkpt lat="48.6733" lon="-3.92309">
        <ele>2.4</ele>
        <time>2022-05-27T08:59:58Z</time>
      </trkpt>
      <trkpt lat="48.67321" lon="-3.92302">
        <ele>2.7</ele>
        <time>2022-05-27T09:00:01Z</time>
      </trkpt>
      <trkpt lat="48.67302" lon="-3.92274">
        <ele>3.7</ele>
        <time>2022-05-27T09:00:12Z</time>
      </trkpt>
      <trkpt lat="48.67287" lon="-3.9227">
        <ele>4</ele>
        <time>2022-05-27T09:00:16Z</time>
      </trkpt>
      <trkpt lat="48.67257" lon="-3.92261">
        <ele>4.1</ele>
        <time>2022-05-27T09:00:24Z</time>
      </trkpt>
      <trkpt lat="48.6721" lon="-3.92259">
        <ele>4.2</ele>
        <time>2022-05-27T09:00:36Z</time>
      </trkpt>
      <trkpt lat="48.6718" lon="-3.92256">
        <ele>4.3</ele>
        <time>2022-05-27T09:00:43Z</time>
      </trkpt>
      <trkpt lat="48.67149" lon="-3.92203">
        <ele>4.5</ele>
        <time>2022-05-27T09:00:56Z</time>
      </trkpt>
      <trkpt lat="48.67146" lon="-3.92194">
        <ele>4.5</ele>
        <time>2022-05-27T09:00:58Z</time>
      </trkpt>
      <trkpt lat="48.67125" lon="-3.92146">
        <ele>6.3</ele>
        <time>2022-05-27T09:01:09Z</time>
      </trkpt>
      <trkpt lat="48.67109" lon="-3.92105">
        <ele>8</ele>
        <time>2022-05-27T09:01:20Z</time>
      </trkpt>
      <trkpt lat="48.67105" lon="-3.92096">
        <ele>8.3</ele>
        <time>2022-05-27T09:01:23Z</time>
      </trkpt>
      <trkpt lat="48.67099" lon="-3.92101">
        <ele>8.5</ele>
        <time>2022-05-27T09:01:25Z</time>
      </trkpt>
      <trkpt lat="48.67072" lon="-3.92123">
        <ele>9.3</ele>
        <time>2022-05-27T09:01:34Z</time>
      </trkpt>
      <trkpt lat="48.67035" lon="-3.92167">
        <ele>10.1</ele>
        <time>2022-05-27T09:01:45Z</time>
      </trkpt>
      <trkpt lat="48.6701" lon="-3.92194">
        <ele>10.7</ele>
        <time>2022-05-27T09:01:52Z</time>
      </trkpt>
      <trkpt lat="48.67005" lon="-3.92204">
        <ele>10.9</ele>
        <time>2022-05-27T09:01:54Z</time>
      </trkpt>
      <trkpt lat="48.66979" lon="-3.9225">
        <ele>11.7</ele>
        <time>2022-05-27T09:02:03Z</time>
      </trkpt>
      <trkpt lat="48.66971" lon="-3.92264">
        <ele>12</ele>
        <time>2022-05-27T09:02:06Z</time>
      </trkpt>
      <trkpt lat="48.66968" lon="-3.92267">
        <ele>12.3</ele>
        <time>2022-05-27T09:02:07Z</time>
      </trkpt>
      <trkpt lat="48.66955" lon="-3.92269">
        <ele>13</ele>
        <time>2022-05-27T09:02:10Z</time>
      </trkpt>
      <trkpt lat="48.66947" lon="-3.92267">
        <ele>13.5</ele>
        <time>2022-05-27T09:02:12Z</time>
      </trkpt>
      <trkpt lat="48.66925" lon="-3.92258">
        <ele>15.1</ele>
        <time>2022-05-27T09:02:18Z</time>
      </trkpt>
      <trkpt lat="48.66911" lon="-3.92253">
        <ele>16.5</ele>
        <time>2022-05-27T09:02:22Z</time>
      </trkpt>
      <trkpt lat="48.66886" lon="-3.92248">
        <ele>19.2</ele>
        <time>2022-05-27T09:02:30Z</time>
      </trkpt>
      <trkpt lat="48.66863" lon="-3.92243">
        <ele>21</ele>
        <time>2022-05-27T09:02:37Z</time>
      </trkpt>
      <trkpt lat="48.66846" lon="-3.92247">
        <ele>22.3</ele>
        <time>2022-05-27T09:02:42Z</time>
      </trkpt>
      <trkpt lat="48.66818" lon="-3.92252">
        <ele>23.9</ele>
        <time>2022-05-27T09:02:50Z</time>
      </trkpt>
      <trkpt lat="48.66781" lon="-3.92254">
        <ele>26</ele>
        <time>2022-05-27T09:03:00Z</time>
      </trkpt>
      <trkpt lat="48.6677" lon="-3.92254">
        <ele>26.5</ele>
        <time>2022-05-27T09:03:03Z</time>
      </trkpt>
      <trkpt lat="48.66724" lon="-3.92248">
        <ele>28.9</ele>
        <time>2022-05-27T09:03:15Z</time>
      </trkpt>
      <trkpt lat="48.66711" lon="-3.92243">
        <ele>29.4</ele>
        <time>2022-05-27T09:03:18Z</time>
      </trkpt>
      <trkpt lat="48.66688" lon="-3.92237">
        <ele>29.6</ele>
        <time>2022-05-27T09:03:23Z</time>
      </trkpt>
      <trkpt lat="48.66679" lon="-3.92234">
        <ele>29.8</ele>
        <time>2022-05-27T09:03:25Z</time>
      </trkpt>
      <trkpt lat="48.66635" lon="-3.92214">
        <ele>30.9</ele>
        <time>2022-05-27T09:03:35Z</time>
      </trkpt>
      <trkpt lat="48.66597" lon="-3.922">
        <ele>31.8</ele>
        <time>2022-05-27T09:03:44Z</time>
      </trkpt>
      <trkpt lat="48.66589" lon="-3.92198">
        <ele>32.1</ele>
        <time>2022-05-27T09:03:46Z</time>
      </trkpt>
      <trkpt lat="48.66571" lon="-3.92195">
        <ele>32.8</ele>
        <time>2022-05-27T09:03:52Z</time>
      </trkpt>
      <trkpt lat="48.66564" lon="-3.92247">
        <ele>33.9</ele>
        <time>2022-05-27T09:04:02Z</time>
      </trkpt>
      <trkpt lat="48.66565" lon="-3.92299">
        <ele>32.2</ele>
        <time>2022-05-27T09:04:08Z</time>
      </trkpt>
      <trkpt lat="48.66565" lon="-3.92315">
        <ele>31.4</ele>
        <time>2022-05-27T09:04:10Z</time>
      </trkpt>
      <trkpt lat="48.66565" lon="-3.92339">
        <ele>29.9</ele>
        <time>2022-05-27T09:04:14Z</time>
      </trkpt>
      <trkpt lat="48.66565" lon="-3.92387">
        <ele>27.7</ele>
        <time>2022-05-27T09:04:22Z</time>
      </trkpt>
      <trkpt lat="48.66559" lon="-3.92421">
        <ele>26.5</ele>
        <time>2022-05-27T09:04:26Z</time>
      </trkpt>
      <trkpt lat="48.66551" lon="-3.92435">
        <ele>25.5</ele>
        <time>2022-05-27T09:04:28Z</time>
      </trkpt>
      <trkpt lat="48.66511" lon="-3.92458">
        <ele>21.8</ele>
        <time>2022-05-27T09:04:36Z</time>
      </trkpt>
      <trkpt lat="48.6651" lon="-3.92467">
        <ele>21.2</ele>
        <time>2022-05-27T09:04:37Z</time>
      </trkpt>
      <trkpt lat="48.6651" lon="-3.92477">
        <ele>20.3</ele>
        <time>2022-05-27T09:04:38Z</time>
      </trkpt>
      <trkpt lat="48.66512" lon="-3.92515">
        <ele>17.7</ele>
        <time>2022-05-27T09:04:41Z</time>
      </trkpt>
      <trkpt lat="48.66511" lon="-3.92543">
        <ele>15.9</ele>
        <time>2022-05-27T09:04:43Z</time>
      </trkpt>
      <trkpt lat="48.6651" lon="-3.92585">
        <ele>12.6</ele>
        <time>2022-05-27T09:04:46Z</time>
      </trkpt>
      <trkpt lat="48.6651" lon="-3.92617">
        <ele>9.5</ele>
        <time>2022-05-27T09:04:49Z</time>
      </trkpt>
      <trkpt lat="48.66509" lon="-3.92638">
        <ele>8.1</ele>
        <time>2022-05-27T09:04:51Z</time>
      </trkpt>
      <trkpt lat="48.66503" lon="-3.92652">
        <ele>6.6</ele>
        <time>2022-05-27T09:04:53Z</time>
      </trkpt>
      <trkpt lat="48.66489" lon="-3.92659">
        <ele>5.3</ele>
        <time>2022-05-27T09:04:55Z</time>
      </trkpt>
      <trkpt lat="48.66456" lon="-3.92677">
        <ele>4.6</ele>
        <time>2022-05-27T09:05:00Z</time>
      </trkpt>
      <trkpt lat="48.66412" lon="-3.92699">
        <ele>3.6</ele>
        <time>2022-05-27T09:05:07Z</time>
      </trkpt>
      <trkpt lat="48.66376" lon="-3.92716">
        <ele>3.7</ele>
        <time>2022-05-27T09:05:13Z</time>
      </trkpt>
      <trkpt lat="48.6637" lon="-3.92716">
        <ele>3.8</ele>
        <time>2022-05-27T09:05:14Z</time>
      </trkpt>
      <trkpt lat="48.66324" lon="-3.92727">
        <ele>4.3</ele>
        <time>2022-05-27T09:05:22Z</time>
      </trkpt>
      <trkpt lat="48.66274" lon="-3.92726">
        <ele>5</ele>
        <time>2022-05-27T09:05:31Z</time>
      </trkpt>
      <trkpt lat="48.66225" lon="-3.92722">
        <ele>5.6</ele>
        <time>2022-05-27T09:05:40Z</time>
      </trkpt>
      <trkpt lat="48.66219" lon="-3.9272">
        <ele>5.7</ele>
        <time>2022-05-27T09:05:41Z</time>
      </trkpt>
      <trkpt lat="48.66214" lon="-3.92717">
        <ele>5.7</ele>
        <time>2022-05-27T09:05:42Z</time>
      </trkpt>
      <trkpt lat="48.66168" lon="-3.9272">
        <ele>6.4</ele>
        <time>2022-05-27T09:05:51Z</time>
      </trkpt>
      <trkpt lat="48.66153" lon="-3.92717">
        <ele>6.6</ele>
        <time>2022-05-27T09:05:54Z</time>
      </trkpt>
      <trkpt lat="48.66148" lon="-3.92717">
        <ele>6.7</ele>
        <time>2022-05-27T09:05:55Z</time>
      </trkpt>
      <trkpt lat="48.66143" lon="-3.92715">
        <ele>6.7</ele>
        <time>2022-05-27T09:05:56Z</time>
      </trkpt>
      <trkpt lat="48.66139" lon="-3.92714">
        <ele>6.8</ele>
        <time>2022-05-27T09:05:57Z</time>
      </trkpt>
      <trkpt lat="48.66123" lon="-3.92698">
        <ele>7.1</ele>
        <time>2022-05-27T09:06:01Z</time>
      </trkpt>
      <trkpt lat="48.66114" lon="-3.92675">
        <ele>7.4</ele>
        <time>2022-05-27T09:06:05Z</time>
      </trkpt>
      <trkpt lat="48.66099" lon="-3.92637">
        <ele>9.4</ele>
        <time>2022-05-27T09:06:12Z</time>
      </trkpt>
      <trkpt lat="48.66086" lon="-3.92619">
        <ele>10.9</ele>
        <time>2022-05-27T09:06:17Z</time>
      </trkpt>
      <trkpt lat="48.66065" lon="-3.92592">
        <ele>13.2</ele>
        <time>2022-05-27T09:06:25Z</time>
      </trkpt>
      <trkpt lat="48.66056" lon="-3.92585">
        <ele>14</ele>
        <time>2022-05-27T09:06:28Z</time>
      </trkpt>
      <trkpt lat="48.66052" lon="-3.92584">
        <ele>14.3</ele>
        <time>2022-05-27T09:06:29Z</time>
      </trkpt>
      <trkpt lat="48.66038" lon="-3.9258">
        <ele>15</ele>
        <time>2022-05-27T09:06:33Z</time>
      </trkpt>
      <trkpt lat="48.66031" lon="-3.92578">
        <ele>15.4</ele>
        <time>2022-05-27T09:06:35Z</time>
      </trkpt>
      <trkpt lat="48.65992" lon="-3.92564">
        <ele>19</ele>
        <time>2022-05-27T09:06:47Z</time>
      </trkpt>
      <trkpt lat="48.65959" lon="-3.92532">
        <ele>22.4</ele>
        <time>2022-05-27T09:06:59Z</time>
      </trkpt>
      <trkpt lat="48.65953" lon="-3.92527">
        <ele>22.8</ele>
        <time>2022-05-27T09:07:01Z</time>
      </trkpt>
      <trkpt lat="48.65944" lon="-3.92515">
        <ele>23.5</ele>
        <time>2022-05-27T09:07:05Z</time>
      </trkpt>
      <trkpt lat="48.65929" lon="-3.92497">
        <ele>25.3</ele>
        <time>2022-05-27T09:07:11Z</time>
      </trkpt>
      <trkpt lat="48.65917" lon="-3.92482">
        <ele>26.7</ele>
        <time>2022-05-27T09:07:16Z</time>
      </trkpt>
      <trkpt lat="48.65899" lon="-3.92459">
        <ele>28.6</ele>
        <time>2022-05-27T09:07:23Z</time>
      </trkpt>
      <trkpt lat="48.65882" lon="-3.92434">
        <ele>30.2</ele>
        <time>2022-05-27T09:07:30Z</time>
      </trkpt>
      <trkpt lat="48.65875" lon="-3.92414">
        <ele>31.1</ele>
        <time>2022-05-27T09:07:34Z</time>
      </trkpt>
      <trkpt lat="48.65861" lon="-3.9237">
        <ele>32.6</ele>
        <time>2022-05-27T09:07:43Z</time>
      </trkpt>
      <trkpt lat="48.65843" lon="-3.92324">
        <ele>34.8</ele>
        <time>2022-05-27T09:07:56Z</time>
      </trkpt>
      <trkpt lat="48.65838" lon="-3.9231">
        <ele>35.8</ele>
        <time>2022-05-27T09:08:00Z</time>
      </trkpt>
      <trkpt lat="48.65836" lon="-3.92301">
        <ele>36.3</ele>
        <time>2022-05-27T09:08:02Z</time>
      </trkpt>
      <trkpt lat="48.65825" lon="-3.92256">
        <ele>37.4</ele>
        <time>2022-05-27T09:08:12Z</time>
      </trkpt>
      <trkpt lat="48.6582" lon="-3.92243">
        <ele>37.5</ele>
        <time>2022-05-27T09:08:14Z</time>
      </trkpt>
      <trkpt lat="48.65797" lon="-3.92186">
        <ele>38</ele>
        <time>2022-05-27T09:08:23Z</time>
      </trkpt>
      <trkpt lat="48.65766" lon="-3.92126">
        <ele>38.4</ele>
        <time>2022-05-27T09:08:30Z</time>
      </trkpt>
      <trkpt lat="48.65747" lon="-3.9208">
        <ele>38.7</ele>
        <time>2022-05-27T09:08:35Z</time>
      </trkpt>
      <trkpt lat="48.6572" lon="-3.92024">
        <ele>39.1</ele>
        <time>2022-05-27T09:08:43Z</time>
      </trkpt>
      <trkpt lat="48.65717" lon="-3.92019">
        <ele>39.1</ele>
        <time>2022-05-27T09:08:44Z</time>
      </trkpt>
      <trkpt lat="48.65713" lon="-3.92015">
        <ele>39</ele>
        <time>2022-05-27T09:08:45Z</time>
      </trkpt>
      <trkpt lat="48.65692" lon="-3.92013">
        <ele>38.7</ele>
        <time>2022-05-27T09:08:49Z</time>
      </trkpt>
      <trkpt lat="48.65653" lon="-3.9205">
        <ele>37.9</ele>
        <time>2022-05-27T09:08:56Z</time>
      </trkpt>
      <trkpt lat="48.65645" lon="-3.92056">
        <ele>37.4</ele>
        <time>2022-05-27T09:08:57Z</time>
      </trkpt>
      <trkpt lat="48.65606" lon="-3.92088">
        <ele>35</ele>
        <time>2022-05-27T09:09:02Z</time>
      </trkpt>
      <trkpt lat="48.6556" lon="-3.92114">
        <ele>31.9</ele>
        <time>2022-05-27T09:09:07Z</time>
      </trkpt>
      <trkpt lat="48.6555" lon="-3.92119">
        <ele>31.3</ele>
        <time>2022-05-27T09:09:08Z</time>
      </trkpt>
      <trkpt lat="48.65508" lon="-3.92139">
        <ele>28.8</ele>
        <time>2022-05-27T09:09:12Z</time>
      </trkpt>
      <trkpt lat="48.65486" lon="-3.9215">
        <ele>27.5</ele>
        <time>2022-05-27T09:09:14Z</time>
      </trkpt>
      <trkpt lat="48.65464" lon="-3.92162">
        <ele>26</ele>
        <time>2022-05-27T09:09:16Z</time>
      </trkpt>
      <trkpt lat="48.6542" lon="-3.92184">
        <ele>23</ele>
        <time>2022-05-27T09:09:20Z</time>
      </trkpt>
      <trkpt lat="48.65379" lon="-3.92209">
        <ele>22.4</ele>
        <time>2022-05-27T09:09:24Z</time>
      </trkpt>
      <trkpt lat="48.65337" lon="-3.92241">
        <ele>21.6</ele>
        <time>2022-05-27T09:09:29Z</time>
      </trkpt>
      <trkpt lat="48.65315" lon="-3.92256">
        <ele>21.2</ele>
        <time>2022-05-27T09:09:32Z</time>
      </trkpt>
      <trkpt lat="48.65294" lon="-3.9227">
        <ele>21.9</ele>
        <time>2022-05-27T09:09:35Z</time>
      </trkpt>
      <trkpt lat="48.65273" lon="-3.92276">
        <ele>22.5</ele>
        <time>2022-05-27T09:09:38Z</time>
      </trkpt>
      <trkpt lat="48.65245" lon="-3.92284">
        <ele>22.9</ele>
        <time>2022-05-27T09:09:42Z</time>
      </trkpt>
      <trkpt lat="48.65213" lon="-3.92289">
        <ele>23.5</ele>
        <time>2022-05-27T09:09:47Z</time>
      </trkpt>
      <trkpt lat="48.65201" lon="-3.92294">
        <ele>23.7</ele>
        <time>2022-05-27T09:09:49Z</time>
      </trkpt>
      <trkpt lat="48.65189" lon="-3.92314">
        <ele>24.1</ele>
        <time>2022-05-27T09:09:52Z</time>
      </trkpt>
      <trkpt lat="48.65186" lon="-3.92357">
        <ele>24.4</ele>
        <time>2022-05-27T09:09:56Z</time>
      </trkpt>
      <trkpt lat="48.65184" lon="-3.92389">
        <ele>24.1</ele>
        <time>2022-05-27T09:09:59Z</time>
      </trkpt>
      <trkpt lat="48.65184" lon="-3.92458">
        <ele>23.3</ele>
        <time>2022-05-27T09:10:05Z</time>
      </trkpt>
      <trkpt lat="48.65186" lon="-3.92496">
        <ele>22.9</ele>
        <time>2022-05-27T09:10:08Z</time>
      </trkpt>
      <trkpt lat="48.65188" lon="-3.92534">
        <ele>22.1</ele>
        <time>2022-05-27T09:10:11Z</time>
      </trkpt>
      <trkpt lat="48.6519" lon="-3.92612">
        <ele>20.7</ele>
        <time>2022-05-27T09:10:17Z</time>
      </trkpt>
      <trkpt lat="48.65193" lon="-3.9268">
        <ele>19.4</ele>
        <time>2022-05-27T09:10:22Z</time>
      </trkpt>
      <trkpt lat="48.65196" lon="-3.92738">
        <ele>18.4</ele>
        <time>2022-05-27T09:10:26Z</time>
      </trkpt>
      <trkpt lat="48.65196" lon="-3.92753">
        <ele>18.2</ele>
        <time>2022-05-27T09:10:27Z</time>
      </trkpt>
      <trkpt lat="48.652" lon="-3.92828">
        <ele>16.8</ele>
        <time>2022-05-27T09:10:32Z</time>
      </trkpt>
      <trkpt lat="48.65203" lon="-3.92903">
        <ele>15.4</ele>
        <time>2022-05-27T09:10:37Z</time>
      </trkpt>
      <trkpt lat="48.65203" lon="-3.92918">
        <ele>15.2</ele>
        <time>2022-05-27T09:10:38Z</time>
      </trkpt>
      <trkpt lat="48.65201" lon="-3.92975">
        <ele>14.9</ele>
        <time>2022-05-27T09:10:42Z</time>
      </trkpt>
      <trkpt lat="48.65199" lon="-3.93001">
        <ele>14.8</ele>
        <time>2022-05-27T09:10:44Z</time>
      </trkpt>
      <trkpt lat="48.65193" lon="-3.93051">
        <ele>15.3</ele>
        <time>2022-05-27T09:10:48Z</time>
      </trkpt>
      <trkpt lat="48.65188" lon="-3.93072">
        <ele>15.6</ele>
        <time>2022-05-27T09:10:50Z</time>
      </trkpt>
      <trkpt lat="48.65176" lon="-3.93122">
        <ele>16.7</ele>
        <time>2022-05-27T09:10:55Z</time>
      </trkpt>
      <trkpt lat="48.65174" lon="-3.93129">
        <ele>17</ele>
        <time>2022-05-27T09:10:56Z</time>
      </trkpt>
      <trkpt lat="48.65158" lon="-3.93173">
        <ele>18.9</ele>
        <time>2022-05-27T09:11:02Z</time>
      </trkpt>
      <trkpt lat="48.65153" lon="-3.93187">
        <ele>19.5</ele>
        <time>2022-05-27T09:11:04Z</time>
      </trkpt>
      <trkpt lat="48.6513" lon="-3.93242">
        <ele>22.3</ele>
        <time>2022-05-27T09:11:14Z</time>
      </trkpt>
      <trkpt lat="48.65128" lon="-3.93248">
        <ele>22.6</ele>
        <time>2022-05-27T09:11:15Z</time>
      </trkpt>
      <trkpt lat="48.65104" lon="-3.93304">
        <ele>25.9</ele>
        <time>2022-05-27T09:11:26Z</time>
      </trkpt>
      <trkpt lat="48.65102" lon="-3.93309">
        <ele>26.2</ele>
        <time>2022-05-27T09:11:27Z</time>
      </trkpt>
      <trkpt lat="48.65079" lon="-3.93365">
        <ele>29.3</ele>
        <time>2022-05-27T09:11:38Z</time>
      </trkpt>
      <trkpt lat="48.65077" lon="-3.93371">
        <ele>29.4</ele>
        <time>2022-05-27T09:11:39Z</time>
      </trkpt>
      <trkpt lat="48.65069" lon="-3.93392">
        <ele>30.2</ele>
        <time>2022-05-27T09:11:43Z</time>
      </trkpt>
      <trkpt lat="48.65053" lon="-3.93436">
        <ele>31.3</ele>
        <time>2022-05-27T09:11:51Z</time>
      </trkpt>
      <trkpt lat="48.65034" lon="-3.9349">
        <ele>32.6</ele>
        <time>2022-05-27T09:12:00Z</time>
      </trkpt>
      <trkpt lat="48.65032" lon="-3.93496">
        <ele>32.8</ele>
        <time>2022-05-27T09:12:01Z</time>
      </trkpt>
      <trkpt lat="48.65022" lon="-3.93529">
        <ele>33.7</ele>
        <time>2022-05-27T09:12:06Z</time>
      </trkpt>
      <trkpt lat="48.65013" lon="-3.93562">
        <ele>34.3</ele>
        <time>2022-05-27T09:12:11Z</time>
      </trkpt>
      <trkpt lat="48.65" lon="-3.9361">
        <ele>35.2</ele>
        <time>2022-05-27T09:12:18Z</time>
      </trkpt>
      <trkpt lat="48.64995" lon="-3.93631">
        <ele>35.6</ele>
        <time>2022-05-27T09:12:21Z</time>
      </trkpt>
      <trkpt lat="48.6498" lon="-3.93694">
        <ele>36.9</ele>
        <time>2022-05-27T09:12:30Z</time>
      </trkpt>
      <trkpt lat="48.64979" lon="-3.93701">
        <ele>37</ele>
        <time>2022-05-27T09:12:31Z</time>
      </trkpt>
      <trkpt lat="48.64964" lon="-3.93771">
        <ele>38.3</ele>
        <time>2022-05-27T09:12:41Z</time>
      </trkpt>
      <trkpt lat="48.64962" lon="-3.93778">
        <ele>38.4</ele>
        <time>2022-05-27T09:12:42Z</time>
      </trkpt>
      <trkpt lat="48.64952" lon="-3.9382">
        <ele>39.2</ele>
        <time>2022-05-27T09:12:48Z</time>
      </trkpt>
      <trkpt lat="48.64947" lon="-3.93841">
        <ele>39.3</ele>
        <time>2022-05-27T09:12:51Z</time>
      </trkpt>
      <trkpt lat="48.64942" lon="-3.93864">
        <ele>39.4</ele>
        <time>2022-05-27T09:12:54Z</time>
      </trkpt>
      <trkpt lat="48.64932" lon="-3.9391">
        <ele>39</ele>
        <time>2022-05-27T09:13:00Z</time>
      </trkpt>
      <trkpt lat="48.64915" lon="-3.93982">
        <ele>38.5</ele>
        <time>2022-05-27T09:13:09Z</time>
      </trkpt>
      <trkpt lat="48.64894" lon="-3.94049">
        <ele>37.9</ele>
        <time>2022-05-27T09:13:17Z</time>
      </trkpt>
      <trkpt lat="48.6487" lon="-3.9411">
        <ele>37.5</ele>
        <time>2022-05-27T09:13:24Z</time>
      </trkpt>
      <trkpt lat="48.64845" lon="-3.94162">
        <ele>37</ele>
        <time>2022-05-27T09:13:30Z</time>
      </trkpt>
      <trkpt lat="48.64841" lon="-3.94171">
        <ele>36.7</ele>
        <time>2022-05-27T09:13:31Z</time>
      </trkpt>
      <trkpt lat="48.64812" lon="-3.94227">
        <ele>34.9</ele>
        <time>2022-05-27T09:13:37Z</time>
      </trkpt>
      <trkpt lat="48.64786" lon="-3.94278">
        <ele>33.4</ele>
        <time>2022-05-27T09:13:42Z</time>
      </trkpt>
      <trkpt lat="48.64781" lon="-3.94288">
        <ele>33</ele>
        <time>2022-05-27T09:13:43Z</time>
      </trkpt>
      <trkpt lat="48.64749" lon="-3.9435">
        <ele>30.6</ele>
        <time>2022-05-27T09:13:49Z</time>
      </trkpt>
      <trkpt lat="48.64727" lon="-3.94392">
        <ele>28.9</ele>
        <time>2022-05-27T09:13:53Z</time>
      </trkpt>
      <trkpt lat="48.64717" lon="-3.94414">
        <ele>27.7</ele>
        <time>2022-05-27T09:13:55Z</time>
      </trkpt>
      <trkpt lat="48.64699" lon="-3.94447">
        <ele>26</ele>
        <time>2022-05-27T09:13:58Z</time>
      </trkpt>
      <trkpt lat="48.64688" lon="-3.94469">
        <ele>25.2</ele>
        <time>2022-05-27T09:14:00Z</time>
      </trkpt>
      <trkpt lat="48.64659" lon="-3.94526">
        <ele>23.4</ele>
        <time>2022-05-27T09:14:05Z</time>
      </trkpt>
      <trkpt lat="48.64629" lon="-3.94585">
        <ele>21.5</ele>
        <time>2022-05-27T09:14:10Z</time>
      </trkpt>
      <trkpt lat="48.646" lon="-3.94643">
        <ele>19.9</ele>
        <time>2022-05-27T09:14:15Z</time>
      </trkpt>
      <trkpt lat="48.64576" lon="-3.94686">
        <ele>18.5</ele>
        <time>2022-05-27T09:14:19Z</time>
      </trkpt>
      <trkpt lat="48.64556" lon="-3.94704">
        <ele>17.6</ele>
        <time>2022-05-27T09:14:22Z</time>
      </trkpt>
      <trkpt lat="48.64551" lon="-3.94711">
        <ele>17.4</ele>
        <time>2022-05-27T09:14:23Z</time>
      </trkpt>
      <trkpt lat="48.64539" lon="-3.94734">
        <ele>17</ele>
        <time>2022-05-27T09:14:26Z</time>
      </trkpt>
      <trkpt lat="48.64528" lon="-3.94747">
        <ele>16.8</ele>
        <time>2022-05-27T09:14:28Z</time>
      </trkpt>
      <trkpt lat="48.64516" lon="-3.9476">
        <ele>16.6</ele>
        <time>2022-05-27T09:14:30Z</time>
      </trkpt>
      <trkpt lat="48.64513" lon="-3.9477">
        <ele>16.5</ele>
        <time>2022-05-27T09:14:31Z</time>
      </trkpt>
      <trkpt lat="48.64504" lon="-3.94848">
        <ele>15.8</ele>
        <time>2022-05-27T09:14:38Z</time>
      </trkpt>
      <trkpt lat="48.64502" lon="-3.94869">
        <ele>15.7</ele>
        <time>2022-05-27T09:14:40Z</time>
      </trkpt>
      <trkpt lat="48.64497" lon="-3.94924">
        <ele>15.7</ele>
        <time>2022-05-27T09:14:45Z</time>
      </trkpt>
      <trkpt lat="48.64493" lon="-3.94991">
        <ele>15.8</ele>
        <time>2022-05-27T09:14:51Z</time>
      </trkpt>
      <trkpt lat="48.64491" lon="-3.95001">
        <ele>15.8</ele>
        <time>2022-05-27T09:14:52Z</time>
      </trkpt>
      <trkpt lat="48.64493" lon="-3.95013">
        <ele>15.9</ele>
        <time>2022-05-27T09:14:53Z</time>
      </trkpt>
      <trkpt lat="48.64488" lon="-3.95087">
        <ele>16</ele>
        <time>2022-05-27T09:15:00Z</time>
      </trkpt>
      <trkpt lat="48.64485" lon="-3.95126">
        <ele>16</ele>
        <time>2022-05-27T09:15:04Z</time>
      </trkpt>
      <trkpt lat="48.64483" lon="-3.95155">
        <ele>15.8</ele>
        <time>2022-05-27T09:15:07Z</time>
      </trkpt>
      <trkpt lat="48.64481" lon="-3.95184">
        <ele>15.7</ele>
        <time>2022-05-27T09:15:10Z</time>
      </trkpt>
      <trkpt lat="48.64477" lon="-3.95232">
        <ele>15.7</ele>
        <time>2022-05-27T09:15:15Z</time>
      </trkpt>
      <trkpt lat="48.64471" lon="-3.95303">
        <ele>15.6</ele>
        <time>2022-05-27T09:15:22Z</time>
      </trkpt>
      <trkpt lat="48.64468" lon="-3.9533">
        <ele>15.6</ele>
        <time>2022-05-27T09:15:25Z</time>
      </trkpt>
      <trkpt lat="48.64465" lon="-3.95336">
        <ele>15.6</ele>
        <time>2022-05-27T09:15:26Z</time>
      </trkpt>
      <trkpt lat="48.64463" lon="-3.95343">
        <ele>15.6</ele>
        <time>2022-05-27T09:15:28Z</time>
      </trkpt>
      <trkpt lat="48.64421" lon="-3.95305">
        <ele>15.5</ele>
        <time>2022-05-27T09:15:34Z</time>
      </trkpt>
      <trkpt lat="48.64408" lon="-3.95294">
        <ele>15.5</ele>
        <time>2022-05-27T09:15:36Z</time>
      </trkpt>
      <trkpt lat="48.64373" lon="-3.95278">
        <ele>15.5</ele>
        <time>2022-05-27T09:15:41Z</time>
      </trkpt>
      <trkpt lat="48.64333" lon="-3.95291">
        <ele>15.4</ele>
        <time>2022-05-27T09:15:47Z</time>
      </trkpt>
      <trkpt lat="48.64314" lon="-3.95307">
        <ele>15.4</ele>
        <time>2022-05-27T09:15:51Z</time>
      </trkpt>
      <trkpt lat="48.64311" lon="-3.95312">
        <ele>15.5</ele>
        <time>2022-05-27T09:15:52Z</time>
      </trkpt>
      <trkpt lat="48.64304" lon="-3.95322">
        <ele>16.4</ele>
        <time>2022-05-27T09:15:54Z</time>
      </trkpt>
      <trkpt lat="48.64295" lon="-3.95335">
        <ele>17.8</ele>
        <time>2022-05-27T09:15:57Z</time>
      </trkpt>
      <trkpt lat="48.6427" lon="-3.95369">
        <ele>20.6</ele>
        <time>2022-05-27T09:16:05Z</time>
      </trkpt>
      <trkpt lat="48.64265" lon="-3.95377">
        <ele>21.3</ele>
        <time>2022-05-27T09:16:07Z</time>
      </trkpt>
      <trkpt lat="48.64236" lon="-3.9542">
        <ele>24.3</ele>
        <time>2022-05-27T09:16:17Z</time>
      </trkpt>
      <trkpt lat="48.64233" lon="-3.95424">
        <ele>24.6</ele>
        <time>2022-05-27T09:16:18Z</time>
      </trkpt>
      <trkpt lat="48.64215" lon="-3.9545">
        <ele>25.9</ele>
        <time>2022-05-27T09:16:24Z</time>
      </trkpt>
      <trkpt lat="48.64204" lon="-3.95467">
        <ele>26.7</ele>
        <time>2022-05-27T09:16:28Z</time>
      </trkpt>
      <trkpt lat="48.64169" lon="-3.95514">
        <ele>28.7</ele>
        <time>2022-05-27T09:16:39Z</time>
      </trkpt>
      <trkpt lat="48.64157" lon="-3.95526">
        <ele>29.2</ele>
        <time>2022-05-27T09:16:42Z</time>
      </trkpt>
      <trkpt lat="48.64133" lon="-3.95551">
        <ele>29.6</ele>
        <time>2022-05-27T09:16:48Z</time>
      </trkpt>
      <trkpt lat="48.64128" lon="-3.95555">
        <ele>29.7</ele>
        <time>2022-05-27T09:16:49Z</time>
      </trkpt>
      <trkpt lat="48.64087" lon="-3.9559">
        <ele>30.3</ele>
        <time>2022-05-27T09:16:58Z</time>
      </trkpt>
      <trkpt lat="48.64042" lon="-3.95625">
        <ele>30.9</ele>
        <time>2022-05-27T09:17:07Z</time>
      </trkpt>
      <trkpt lat="48.64003" lon="-3.95662">
        <ele>31.4</ele>
        <time>2022-05-27T09:17:15Z</time>
      </trkpt>
      <trkpt lat="48.63973" lon="-3.95713">
        <ele>31.9</ele>
        <time>2022-05-27T09:17:23Z</time>
      </trkpt>
      <trkpt lat="48.63961" lon="-3.95766">
        <ele>32.4</ele>
        <time>2022-05-27T09:17:30Z</time>
      </trkpt>
      <trkpt lat="48.63958" lon="-3.95781">
        <ele>32.7</ele>
        <time>2022-05-27T09:17:32Z</time>
      </trkpt>
      <trkpt lat="48.63951" lon="-3.95851">
        <ele>33.9</ele>
        <time>2022-05-27T09:17:41Z</time>
      </trkpt>
      <trkpt lat="48.63948" lon="-3.95905">
        <ele>34.8</ele>
        <time>2022-05-27T09:17:48Z</time>
      </trkpt>
      <trkpt lat="48.63948" lon="-3.9592">
        <ele>35.1</ele>
        <time>2022-05-27T09:17:50Z</time>
      </trkpt>
      <trkpt lat="48.63943" lon="-3.95993">
        <ele>36.4</ele>
        <time>2022-05-27T09:18:00Z</time>
      </trkpt>
      <trkpt lat="48.63942" lon="-3.96025">
        <ele>37.1</ele>
        <time>2022-05-27T09:18:05Z</time>
      </trkpt>
      <trkpt lat="48.63941" lon="-3.96057">
        <ele>38.6</ele>
        <time>2022-05-27T09:18:10Z</time>
      </trkpt>
      <trkpt lat="48.6394" lon="-3.96063">
        <ele>38.9</ele>
        <time>2022-05-27T09:18:11Z</time>
      </trkpt>
      <trkpt lat="48.63942" lon="-3.96124">
        <ele>42.9</ele>
        <time>2022-05-27T09:18:22Z</time>
      </trkpt>
      <trkpt lat="48.63942" lon="-3.96135">
        <ele>43.5</ele>
        <time>2022-05-27T09:18:24Z</time>
      </trkpt>
      <trkpt lat="48.6395" lon="-3.9619">
        <ele>46.4</ele>
        <time>2022-05-27T09:18:34Z</time>
      </trkpt>
      <trkpt lat="48.63952" lon="-3.96207">
        <ele>47</ele>
        <time>2022-05-27T09:18:37Z</time>
      </trkpt>
      <trkpt lat="48.63963" lon="-3.96259">
        <ele>49</ele>
        <time>2022-05-27T09:18:46Z</time>
      </trkpt>
      <trkpt lat="48.63966" lon="-3.96277">
        <ele>49.6</ele>
        <time>2022-05-27T09:18:49Z</time>
      </trkpt>
      <trkpt lat="48.63981" lon="-3.96345">
        <ele>51.9</ele>
        <time>2022-05-27T09:19:00Z</time>
      </trkpt>
      <trkpt lat="48.63987" lon="-3.96372">
        <ele>52.7</ele>
        <time>2022-05-27T09:19:04Z</time>
      </trkpt>
      <trkpt lat="48.63996" lon="-3.96412">
        <ele>53.4</ele>
        <time>2022-05-27T09:19:10Z</time>
      </trkpt>
      <trkpt lat="48.64008" lon="-3.96484">
        <ele>54.6</ele>
        <time>2022-05-27T09:19:20Z</time>
      </trkpt>
      <trkpt lat="48.64008" lon="-3.965">
        <ele>54.9</ele>
        <time>2022-05-27T09:19:22Z</time>
      </trkpt>
      <trkpt lat="48.64007" lon="-3.9654">
        <ele>55</ele>
        <time>2022-05-27T09:19:27Z</time>
      </trkpt>
      <trkpt lat="48.63985" lon="-3.96608">
        <ele>55.4</ele>
        <time>2022-05-27T09:19:36Z</time>
      </trkpt>
      <trkpt lat="48.6396" lon="-3.96669">
        <ele>55.7</ele>
        <time>2022-05-27T09:19:44Z</time>
      </trkpt>
      <trkpt lat="48.63935" lon="-3.96736">
        <ele>56</ele>
        <time>2022-05-27T09:19:52Z</time>
      </trkpt>
      <trkpt lat="48.63917" lon="-3.96792">
        <ele>56.2</ele>
        <time>2022-05-27T09:19:58Z</time>
      </trkpt>
      <trkpt lat="48.63909" lon="-3.96858">
        <ele>56.5</ele>
        <time>2022-05-27T09:20:05Z</time>
      </trkpt>
      <trkpt lat="48.63905" lon="-3.96897">
        <ele>56.7</ele>
        <time>2022-05-27T09:20:10Z</time>
      </trkpt>
      <trkpt lat="48.63877" lon="-3.96933">
        <ele>56.9</ele>
        <time>2022-05-27T09:20:17Z</time>
      </trkpt>
      <trkpt lat="48.63874" lon="-3.96949">
        <ele>57</ele>
        <time>2022-05-27T09:20:19Z</time>
      </trkpt>
      <trkpt lat="48.63871" lon="-3.9702">
        <ele>57.3</ele>
        <time>2022-05-27T09:20:27Z</time>
      </trkpt>
      <trkpt lat="48.63861" lon="-3.97087">
        <ele>57.6</ele>
        <time>2022-05-27T09:20:35Z</time>
      </trkpt>
      <trkpt lat="48.63843" lon="-3.97149">
        <ele>57.9</ele>
        <time>2022-05-27T09:20:43Z</time>
      </trkpt>
      <trkpt lat="48.63841" lon="-3.97157">
        <ele>58</ele>
        <time>2022-05-27T09:20:44Z</time>
      </trkpt>
      <trkpt lat="48.63826" lon="-3.97213">
        <ele>58.4</ele>
        <time>2022-05-27T09:20:51Z</time>
      </trkpt>
      <trkpt lat="48.63807" lon="-3.97278">
        <ele>59</ele>
        <time>2022-05-27T09:20:59Z</time>
      </trkpt>
      <trkpt lat="48.63788" lon="-3.97345">
        <ele>59.6</ele>
        <time>2022-05-27T09:21:07Z</time>
      </trkpt>
      <trkpt lat="48.6377" lon="-3.97412">
        <ele>60.1</ele>
        <time>2022-05-27T09:21:15Z</time>
      </trkpt>
      <trkpt lat="48.63754" lon="-3.97481">
        <ele>60.7</ele>
        <time>2022-05-27T09:21:23Z</time>
      </trkpt>
      <trkpt lat="48.63733" lon="-3.97546">
        <ele>61.3</ele>
        <time>2022-05-27T09:21:31Z</time>
      </trkpt>
      <trkpt lat="48.63731" lon="-3.97554">
        <ele>61.3</ele>
        <time>2022-05-27T09:21:32Z</time>
      </trkpt>
      <trkpt lat="48.63714" lon="-3.97612">
        <ele>61.6</ele>
        <time>2022-05-27T09:21:39Z</time>
      </trkpt>
      <trkpt lat="48.63692" lon="-3.9768">
        <ele>61.9</ele>
        <time>2022-05-27T09:21:47Z</time>
      </trkpt>
      <trkpt lat="48.63667" lon="-3.97739">
        <ele>62.1</ele>
        <time>2022-05-27T09:21:54Z</time>
      </trkpt>
      <trkpt lat="48.63637" lon="-3.97796">
        <ele>62.4</ele>
        <time>2022-05-27T09:22:01Z</time>
      </trkpt>
      <trkpt lat="48.63607" lon="-3.97851">
        <ele>62.7</ele>
        <time>2022-05-27T09:22:08Z</time>
      </trkpt>
      <trkpt lat="48.63577" lon="-3.97905">
        <ele>62.9</ele>
        <time>2022-05-27T09:22:15Z</time>
      </trkpt>
      <trkpt lat="48.63548" lon="-3.97958">
        <ele>63.2</ele>
        <time>2022-05-27T09:22:22Z</time>
      </trkpt>
      <trkpt lat="48.63519" lon="-3.98009">
        <ele>63.5</ele>
        <time>2022-05-27T09:22:29Z</time>
      </trkpt>
      <trkpt lat="48.6349" lon="-3.98062">
        <ele>63.7</ele>
        <time>2022-05-27T09:22:36Z</time>
      </trkpt>
      <trkpt lat="48.63461" lon="-3.98114">
        <ele>64</ele>
        <time>2022-05-27T09:22:43Z</time>
      </trkpt>
      <trkpt lat="48.63428" lon="-3.98174">
        <ele>64.3</ele>
        <time>2022-05-27T09:22:51Z</time>
      </trkpt>
      <trkpt lat="48.6342" lon="-3.98189">
        <ele>64.4</ele>
        <time>2022-05-27T09:22:53Z</time>
      </trkpt>
      <trkpt lat="48.63401" lon="-3.98228">
        <ele>64.3</ele>
        <time>2022-05-27T09:22:58Z</time>
      </trkpt>
      <trkpt lat="48.63373" lon="-3.98293">
        <ele>64.1</ele>
        <time>2022-05-27T09:23:06Z</time>
      </trkpt>
      <trkpt lat="48.63346" lon="-3.9836">
        <ele>63.9</ele>
        <time>2022-05-27T09:23:14Z</time>
      </trkpt>
      <trkpt lat="48.63323" lon="-3.98419">
        <ele>63.8</ele>
        <time>2022-05-27T09:23:21Z</time>
      </trkpt>
      <trkpt lat="48.63298" lon="-3.9848">
        <ele>63.6</ele>
        <time>2022-05-27T09:23:28Z</time>
      </trkpt>
      <trkpt lat="48.63272" lon="-3.98544">
        <ele>63.5</ele>
        <time>2022-05-27T09:23:35Z</time>
      </trkpt>
      <trkpt lat="48.63243" lon="-3.98604">
        <ele>63.3</ele>
        <time>2022-05-27T09:23:42Z</time>
      </trkpt>
      <trkpt lat="48.63213" lon="-3.98665">
        <ele>63.2</ele>
        <time>2022-05-27T09:23:49Z</time>
      </trkpt>
      <trkpt lat="48.63182" lon="-3.98726">
        <ele>63.1</ele>
        <time>2022-05-27T09:23:56Z</time>
      </trkpt>
      <trkpt lat="48.63152" lon="-3.98787">
        <ele>62.9</ele>
        <time>2022-05-27T09:24:03Z</time>
      </trkpt>
      <trkpt lat="48.63129" lon="-3.98837">
        <ele>62.8</ele>
        <time>2022-05-27T09:24:09Z</time>
      </trkpt>
      <trkpt lat="48.63121" lon="-3.98864">
        <ele>62.7</ele>
        <time>2022-05-27T09:24:12Z</time>
      </trkpt>
      <trkpt lat="48.63107" lon="-3.98889">
        <ele>62.7</ele>
        <time>2022-05-27T09:24:15Z</time>
      </trkpt>
      <trkpt lat="48.6309" lon="-3.98953">
        <ele>62.5</ele>
        <time>2022-05-27T09:24:21Z</time>
      </trkpt>
      <trkpt lat="48.63087" lon="-3.98964">
        <ele>62.5</ele>
        <time>2022-05-27T09:24:22Z</time>
      </trkpt>
      <trkpt lat="48.63069" lon="-3.99015">
        <ele>61.8</ele>
        <time>2022-05-27T09:24:27Z</time>
      </trkpt>
      <trkpt lat="48.6306" lon="-3.99034">
        <ele>61.6</ele>
        <time>2022-05-27T09:24:29Z</time>
      </trkpt>
      <trkpt lat="48.63054" lon="-3.99041">
        <ele>61.5</ele>
        <time>2022-05-27T09:24:30Z</time>
      </trkpt>
      <trkpt lat="48.63044" lon="-3.9906">
        <ele>61.2</ele>
        <time>2022-05-27T09:24:32Z</time>
      </trkpt>
      <trkpt lat="48.63041" lon="-3.99069">
        <ele>61.1</ele>
        <time>2022-05-27T09:24:33Z</time>
      </trkpt>
      <trkpt lat="48.63042" lon="-3.99104">
        <ele>60.7</ele>
        <time>2022-05-27T09:24:36Z</time>
      </trkpt>
      <trkpt lat="48.63044" lon="-3.99114">
        <ele>60.6</ele>
        <time>2022-05-27T09:24:37Z</time>
      </trkpt>
      <trkpt lat="48.63051" lon="-3.99133">
        <ele>60.5</ele>
        <time>2022-05-27T09:24:39Z</time>
      </trkpt>
      <trkpt lat="48.63058" lon="-3.99141">
        <ele>60.4</ele>
        <time>2022-05-27T09:24:40Z</time>
      </trkpt>
      <trkpt lat="48.63088" lon="-3.99201">
        <ele>59.9</ele>
        <time>2022-05-27T09:24:48Z</time>
      </trkpt>
      <trkpt lat="48.63108" lon="-3.9924">
        <ele>59.4</ele>
        <time>2022-05-27T09:24:55Z</time>
      </trkpt>
      <trkpt lat="48.63113" lon="-3.99253">
        <ele>59.3</ele>
        <time>2022-05-27T09:24:57Z</time>
      </trkpt>
      <trkpt lat="48.63132" lon="-3.99299">
        <ele>58.9</ele>
        <time>2022-05-27T09:25:04Z</time>
      </trkpt>
      <trkpt lat="48.63144" lon="-3.99324">
        <ele>58.6</ele>
        <time>2022-05-27T09:25:08Z</time>
      </trkpt>
      <trkpt lat="48.63145" lon="-3.99342">
        <ele>58.4</ele>
        <time>2022-05-27T09:25:11Z</time>
      </trkpt>
      <trkpt lat="48.63124" lon="-3.99362">
        <ele>58.2</ele>
        <time>2022-05-27T09:25:14Z</time>
      </trkpt>
      <trkpt lat="48.63079" lon="-3.99384">
        <ele>57.8</ele>
        <time>2022-05-27T09:25:21Z</time>
      </trkpt>
      <trkpt lat="48.63031" lon="-3.99406">
        <ele>57.3</ele>
        <time>2022-05-27T09:25:28Z</time>
      </trkpt>
      <trkpt lat="48.62982" lon="-3.99429">
        <ele>56.9</ele>
        <time>2022-05-27T09:25:35Z</time>
      </trkpt>
      <trkpt lat="48.62933" lon="-3.99453">
        <ele>56.5</ele>
        <time>2022-05-27T09:25:42Z</time>
      </trkpt>
      <trkpt lat="48.62906" lon="-3.99465">
        <ele>56.1</ele>
        <time>2022-05-27T09:25:47Z</time>
      </trkpt>
      <trkpt lat="48.62902" lon="-3.9947">
        <ele>56</ele>
        <time>2022-05-27T09:25:48Z</time>
      </trkpt>
      <trkpt lat="48.62907" lon="-3.99539">
        <ele>55.5</ele>
        <time>2022-05-27T09:25:54Z</time>
      </trkpt>
      <trkpt lat="48.6291" lon="-3.99587">
        <ele>55.1</ele>
        <time>2022-05-27T09:25:59Z</time>
      </trkpt>
      <trkpt lat="48.62911" lon="-3.99607">
        <ele>55.1</ele>
        <time>2022-05-27T09:26:01Z</time>
      </trkpt>
      <trkpt lat="48.62916" lon="-3.99669">
        <ele>55.1</ele>
        <time>2022-05-27T09:26:07Z</time>
      </trkpt>
      <trkpt lat="48.62917" lon="-3.99745">
        <ele>55</ele>
        <time>2022-05-27T09:26:15Z</time>
      </trkpt>
      <trkpt lat="48.62911" lon="-3.99814">
        <ele>54.9</ele>
        <time>2022-05-27T09:26:22Z</time>
      </trkpt>
      <trkpt lat="48.62911" lon="-3.99883">
        <ele>54.9</ele>
        <time>2022-05-27T09:26:29Z</time>
      </trkpt>
      <trkpt lat="48.6291" lon="-3.99955">
        <ele>54.8</ele>
        <time>2022-05-27T09:26:36Z</time>
      </trkpt>
      <trkpt lat="48.62905" lon="-4.00032">
        <ele>54.7</ele>
        <time>2022-05-27T09:26:43Z</time>
      </trkpt>
      <trkpt lat="48.62904" lon="-4.00105">
        <ele>54.7</ele>
        <time>2022-05-27T09:26:49Z</time>
      </trkpt>
      <trkpt lat="48.62903" lon="-4.00129">
        <ele>54.6</ele>
        <time>2022-05-27T09:26:51Z</time>
      </trkpt>
      <trkpt lat="48.62902" lon="-4.00176">
        <ele>54.3</ele>
        <time>2022-05-27T09:26:55Z</time>
      </trkpt>
      <trkpt lat="48.62901" lon="-4.00199">
        <ele>54.2</ele>
        <time>2022-05-27T09:26:57Z</time>
      </trkpt>
      <trkpt lat="48.62899" lon="-4.00244">
        <ele>54.2</ele>
        <time>2022-05-27T09:27:01Z</time>
      </trkpt>
      <trkpt lat="48.62897" lon="-4.00266">
        <ele>54.2</ele>
        <time>2022-05-27T09:27:03Z</time>
      </trkpt>
      <trkpt lat="48.62898" lon="-4.00333">
        <ele>54.1</ele>
        <time>2022-05-27T09:27:09Z</time>
      </trkpt>
      <trkpt lat="48.62902" lon="-4.00363">
        <ele>54.1</ele>
        <time>2022-05-27T09:27:12Z</time>
      </trkpt>
      <trkpt lat="48.62911" lon="-4.00432">
        <ele>54</ele>
        <time>2022-05-27T09:27:19Z</time>
      </trkpt>
      <trkpt lat="48.62923" lon="-4.00505">
        <ele>53.9</ele>
        <time>2022-05-27T09:27:26Z</time>
      </trkpt>
      <trkpt lat="48.62936" lon="-4.00581">
        <ele>53.9</ele>
        <time>2022-05-27T09:27:33Z</time>
      </trkpt>
      <trkpt lat="48.62945" lon="-4.00649">
        <ele>53.8</ele>
        <time>2022-05-27T09:27:39Z</time>
      </trkpt>
      <trkpt lat="48.62948" lon="-4.00721">
        <ele>53.7</ele>
        <time>2022-05-27T09:27:45Z</time>
      </trkpt>
      <trkpt lat="48.62949" lon="-4.00796">
        <ele>52.5</ele>
        <time>2022-05-27T09:27:51Z</time>
      </trkpt>
      <trkpt lat="48.62949" lon="-4.00872">
        <ele>51.2</ele>
        <time>2022-05-27T09:27:57Z</time>
      </trkpt>
      <trkpt lat="48.62948" lon="-4.00923">
        <ele>50.4</ele>
        <time>2022-05-27T09:28:01Z</time>
      </trkpt>
      <trkpt lat="48.6295" lon="-4.00949">
        <ele>50</ele>
        <time>2022-05-27T09:28:03Z</time>
      </trkpt>
      <trkpt lat="48.62948" lon="-4.01026">
        <ele>48.5</ele>
        <time>2022-05-27T09:28:09Z</time>
      </trkpt>
      <trkpt lat="48.62946" lon="-4.01105">
        <ele>47</ele>
        <time>2022-05-27T09:28:15Z</time>
      </trkpt>
      <trkpt lat="48.62946" lon="-4.01174">
        <ele>45.8</ele>
        <time>2022-05-27T09:28:20Z</time>
      </trkpt>
      <trkpt lat="48.62946" lon="-4.0124">
        <ele>45.3</ele>
        <time>2022-05-27T09:28:25Z</time>
      </trkpt>
      <trkpt lat="48.62946" lon="-4.01252">
        <ele>45.2</ele>
        <time>2022-05-27T09:28:26Z</time>
      </trkpt>
      <trkpt lat="48.62945" lon="-4.01313">
        <ele>45.8</ele>
        <time>2022-05-27T09:28:31Z</time>
      </trkpt>
      <trkpt lat="48.62944" lon="-4.01325">
        <ele>45.9</ele>
        <time>2022-05-27T09:28:32Z</time>
      </trkpt>
      <trkpt lat="48.62943" lon="-4.01381">
        <ele>45.5</ele>
        <time>2022-05-27T09:28:37Z</time>
      </trkpt>
      <trkpt lat="48.6294" lon="-4.01458">
        <ele>45</ele>
        <time>2022-05-27T09:28:44Z</time>
      </trkpt>
      <trkpt lat="48.6294" lon="-4.01526">
        <ele>44.6</ele>
        <time>2022-05-27T09:28:50Z</time>
      </trkpt>
      <trkpt lat="48.6294" lon="-4.01585">
        <ele>44.2</ele>
        <time>2022-05-27T09:28:55Z</time>
      </trkpt>
      <trkpt lat="48.62941" lon="-4.01597">
        <ele>44.2</ele>
        <time>2022-05-27T09:28:56Z</time>
      </trkpt>
      <trkpt lat="48.62941" lon="-4.01666">
        <ele>43.7</ele>
        <time>2022-05-27T09:29:02Z</time>
      </trkpt>
      <trkpt lat="48.62943" lon="-4.01736">
        <ele>43.3</ele>
        <time>2022-05-27T09:29:08Z</time>
      </trkpt>
      <trkpt lat="48.62945" lon="-4.01808">
        <ele>42.9</ele>
        <time>2022-05-27T09:29:14Z</time>
      </trkpt>
      <trkpt lat="48.62947" lon="-4.01883">
        <ele>42.4</ele>
        <time>2022-05-27T09:29:20Z</time>
      </trkpt>
      <trkpt lat="48.62949" lon="-4.01964">
        <ele>41.9</ele>
        <time>2022-05-27T09:29:26Z</time>
      </trkpt>
      <trkpt lat="48.62948" lon="-4.02035">
        <ele>39.3</ele>
        <time>2022-05-27T09:29:31Z</time>
      </trkpt>
      <trkpt lat="48.62945" lon="-4.0205">
        <ele>38.7</ele>
        <time>2022-05-27T09:29:32Z</time>
      </trkpt>
      <trkpt lat="48.62934" lon="-4.0211">
        <ele>36</ele>
        <time>2022-05-27T09:29:36Z</time>
      </trkpt>
      <trkpt lat="48.62924" lon="-4.0214">
        <ele>34.6</ele>
        <time>2022-05-27T09:29:38Z</time>
      </trkpt>
      <trkpt lat="48.62909" lon="-4.02184">
        <ele>32.8</ele>
        <time>2022-05-27T09:29:41Z</time>
      </trkpt>
      <trkpt lat="48.62892" lon="-4.02222">
        <ele>31.2</ele>
        <time>2022-05-27T09:29:44Z</time>
      </trkpt>
      <trkpt lat="48.62881" lon="-4.02246">
        <ele>31.3</ele>
        <time>2022-05-27T09:29:46Z</time>
      </trkpt>
      <trkpt lat="48.62863" lon="-4.02278">
        <ele>31.4</ele>
        <time>2022-05-27T09:29:49Z</time>
      </trkpt>
      <trkpt lat="48.62857" lon="-4.02287">
        <ele>31.4</ele>
        <time>2022-05-27T09:29:50Z</time>
      </trkpt>
      <trkpt lat="48.62825" lon="-4.0233">
        <ele>31.4</ele>
        <time>2022-05-27T09:29:55Z</time>
      </trkpt>
      <trkpt lat="48.62819" lon="-4.02339">
        <ele>31.4</ele>
        <time>2022-05-27T09:29:56Z</time>
      </trkpt>
      <trkpt lat="48.62789" lon="-4.02385">
        <ele>30.1</ele>
        <time>2022-05-27T09:30:01Z</time>
      </trkpt>
      <trkpt lat="48.62755" lon="-4.02432">
        <ele>28.8</ele>
        <time>2022-05-27T09:30:06Z</time>
      </trkpt>
      <trkpt lat="48.62741" lon="-4.02452">
        <ele>28.3</ele>
        <time>2022-05-27T09:30:08Z</time>
      </trkpt>
      <trkpt lat="48.6272" lon="-4.02481">
        <ele>27.4</ele>
        <time>2022-05-27T09:30:11Z</time>
      </trkpt>
      <trkpt lat="48.62689" lon="-4.02514">
        <ele>26.1</ele>
        <time>2022-05-27T09:30:15Z</time>
      </trkpt>
      <trkpt lat="48.6268" lon="-4.02519">
        <ele>25.8</ele>
        <time>2022-05-27T09:30:16Z</time>
      </trkpt>
      <trkpt lat="48.62663" lon="-4.0253">
        <ele>25.1</ele>
        <time>2022-05-27T09:30:18Z</time>
      </trkpt>
      <trkpt lat="48.62646" lon="-4.02533">
        <ele>24.6</ele>
        <time>2022-05-27T09:30:20Z</time>
      </trkpt>
      <trkpt lat="48.62611" lon="-4.02538">
        <ele>24.4</ele>
        <time>2022-05-27T09:30:24Z</time>
      </trkpt>
      <trkpt lat="48.62595" lon="-4.02538">
        <ele>24.4</ele>
        <time>2022-05-27T09:30:26Z</time>
      </trkpt>
      <trkpt lat="48.62564" lon="-4.02537">
        <ele>25.3</ele>
        <time>2022-05-27T09:30:30Z</time>
      </trkpt>
      <trkpt lat="48.6252" lon="-4.02535">
        <ele>26.8</ele>
        <time>2022-05-27T09:30:37Z</time>
      </trkpt>
      <trkpt lat="48.62514" lon="-4.02534">
        <ele>27</ele>
        <time>2022-05-27T09:30:38Z</time>
      </trkpt>
      <trkpt lat="48.62474" lon="-4.02526">
        <ele>30.1</ele>
        <time>2022-05-27T09:30:46Z</time>
      </trkpt>
      <trkpt lat="48.62464" lon="-4.02524">
        <ele>30.8</ele>
        <time>2022-05-27T09:30:48Z</time>
      </trkpt>
      <trkpt lat="48.62426" lon="-4.02515">
        <ele>32.9</ele>
        <time>2022-05-27T09:30:56Z</time>
      </trkpt>
      <trkpt lat="48.62392" lon="-4.02508">
        <ele>35.1</ele>
        <time>2022-05-27T09:31:04Z</time>
      </trkpt>
      <trkpt lat="48.62379" lon="-4.02505">
        <ele>36.1</ele>
        <time>2022-05-27T09:31:07Z</time>
      </trkpt>
      <trkpt lat="48.62343" lon="-4.02498">
        <ele>39</ele>
        <time>2022-05-27T09:31:16Z</time>
      </trkpt>
      <trkpt lat="48.62331" lon="-4.02496">
        <ele>39.9</ele>
        <time>2022-05-27T09:31:19Z</time>
      </trkpt>
      <trkpt lat="48.62297" lon="-4.0249">
        <ele>42.4</ele>
        <time>2022-05-27T09:31:28Z</time>
      </trkpt>
      <trkpt lat="48.62286" lon="-4.02489">
        <ele>43.2</ele>
        <time>2022-05-27T09:31:31Z</time>
      </trkpt>
      <trkpt lat="48.6225" lon="-4.02492">
        <ele>45.7</ele>
        <time>2022-05-27T09:31:40Z</time>
      </trkpt>
      <trkpt lat="48.62239" lon="-4.02494">
        <ele>46.5</ele>
        <time>2022-05-27T09:31:43Z</time>
      </trkpt>
      <trkpt lat="48.62203" lon="-4.02503">
        <ele>49.1</ele>
        <time>2022-05-27T09:31:52Z</time>
      </trkpt>
      <trkpt lat="48.62191" lon="-4.02506">
        <ele>49.8</ele>
        <time>2022-05-27T09:31:55Z</time>
      </trkpt>
      <trkpt lat="48.62178" lon="-4.02509">
        <ele>50.5</ele>
        <time>2022-05-27T09:31:58Z</time>
      </trkpt>
      <trkpt lat="48.62144" lon="-4.02517">
        <ele>51.5</ele>
        <time>2022-05-27T09:32:06Z</time>
      </trkpt>
      <trkpt lat="48.62124" lon="-4.02521">
        <ele>51.9</ele>
        <time>2022-05-27T09:32:10Z</time>
      </trkpt>
      <trkpt lat="48.62098" lon="-4.02526">
        <ele>51.6</ele>
        <time>2022-05-27T09:32:15Z</time>
      </trkpt>
      <trkpt lat="48.62049" lon="-4.02522">
        <ele>51.2</ele>
        <time>2022-05-27T09:32:23Z</time>
      </trkpt>
      <trkpt lat="48.62002" lon="-4.02518">
        <ele>50.8</ele>
        <time>2022-05-27T09:32:30Z</time>
      </trkpt>
      <trkpt lat="48.61956" lon="-4.02522">
        <ele>50.4</ele>
        <time>2022-05-27T09:32:37Z</time>
      </trkpt>
      <trkpt lat="48.6191" lon="-4.02524">
        <ele>50</ele>
        <time>2022-05-27T09:32:44Z</time>
      </trkpt>
      <trkpt lat="48.61861" lon="-4.02522">
        <ele>49.6</ele>
        <time>2022-05-27T09:32:52Z</time>
      </trkpt>
      <trkpt lat="48.61846" lon="-4.0253">
        <ele>49.3</ele>
        <time>2022-05-27T09:32:56Z</time>
      </trkpt>
      <trkpt lat="48.61846" lon="-4.02603">
        <ele>49</ele>
        <time>2022-05-27T09:33:02Z</time>
      </trkpt>
      <trkpt lat="48.61846" lon="-4.02671">
        <ele>48.7</ele>
        <time>2022-05-27T09:33:08Z</time>
      </trkpt>
      <trkpt lat="48.61837" lon="-4.02746">
        <ele>48.3</ele>
        <time>2022-05-27T09:33:15Z</time>
      </trkpt>
      <trkpt lat="48.61829" lon="-4.02794">
        <ele>48</ele>
        <time>2022-05-27T09:33:20Z</time>
      </trkpt>
      <trkpt lat="48.61828" lon="-4.02804">
        <ele>47.9</ele>
        <time>2022-05-27T09:33:21Z</time>
      </trkpt>
      <trkpt lat="48.61827" lon="-4.02876">
        <ele>47.4</ele>
        <time>2022-05-27T09:33:28Z</time>
      </trkpt>
      <trkpt lat="48.61822" lon="-4.02951">
        <ele>46.9</ele>
        <time>2022-05-27T09:33:35Z</time>
      </trkpt>
      <trkpt lat="48.61819" lon="-4.02997">
        <ele>46.6</ele>
        <time>2022-05-27T09:33:39Z</time>
      </trkpt>
      <trkpt lat="48.61819" lon="-4.03055">
        <ele>46.3</ele>
        <time>2022-05-27T09:33:44Z</time>
      </trkpt>
      <trkpt lat="48.61818" lon="-4.03125">
        <ele>45.5</ele>
        <time>2022-05-27T09:33:50Z</time>
      </trkpt>
      <trkpt lat="48.61817" lon="-4.03195">
        <ele>44.8</ele>
        <time>2022-05-27T09:33:56Z</time>
      </trkpt>
      <trkpt lat="48.61814" lon="-4.03264">
        <ele>44.6</ele>
        <time>2022-05-27T09:34:02Z</time>
      </trkpt>
      <trkpt lat="48.61808" lon="-4.03341">
        <ele>44.3</ele>
        <time>2022-05-27T09:34:09Z</time>
      </trkpt>
      <trkpt lat="48.61803" lon="-4.03396">
        <ele>44.1</ele>
        <time>2022-05-27T09:34:14Z</time>
      </trkpt>
      <trkpt lat="48.61796" lon="-4.03473">
        <ele>43.8</ele>
        <time>2022-05-27T09:34:21Z</time>
      </trkpt>
      <trkpt lat="48.61797" lon="-4.03552">
        <ele>43.5</ele>
        <time>2022-05-27T09:34:28Z</time>
      </trkpt>
      <trkpt lat="48.61794" lon="-4.0362">
        <ele>43.3</ele>
        <time>2022-05-27T09:34:34Z</time>
      </trkpt>
      <trkpt lat="48.61792" lon="-4.03699">
        <ele>43</ele>
        <time>2022-05-27T09:34:41Z</time>
      </trkpt>
      <trkpt lat="48.61791" lon="-4.03777">
        <ele>42.7</ele>
        <time>2022-05-27T09:34:48Z</time>
      </trkpt>
      <trkpt lat="48.61789" lon="-4.03856">
        <ele>42.4</ele>
        <time>2022-05-27T09:34:55Z</time>
      </trkpt>
      <trkpt lat="48.61788" lon="-4.03926">
        <ele>42.2</ele>
        <time>2022-05-27T09:35:01Z</time>
      </trkpt>
      <trkpt lat="48.61786" lon="-4.03995">
        <ele>41.9</ele>
        <time>2022-05-27T09:35:07Z</time>
      </trkpt>
      <trkpt lat="48.61785" lon="-4.04064">
        <ele>41.7</ele>
        <time>2022-05-27T09:35:13Z</time>
      </trkpt>
      <trkpt lat="48.61785" lon="-4.04138">
        <ele>41.5</ele>
        <time>2022-05-27T09:35:19Z</time>
      </trkpt>
      <trkpt lat="48.61783" lon="-4.04178">
        <ele>41.2</ele>
        <time>2022-05-27T09:35:22Z</time>
      </trkpt>
      <trkpt lat="48.6178" lon="-4.04218">
        <ele>40.3</ele>
        <time>2022-05-27T09:35:25Z</time>
      </trkpt>
      <trkpt lat="48.61776" lon="-4.04257">
        <ele>39.4</ele>
        <time>2022-05-27T09:35:28Z</time>
      </trkpt>
      <trkpt lat="48.61772" lon="-4.04295">
        <ele>39.1</ele>
        <time>2022-05-27T09:35:31Z</time>
      </trkpt>
      <trkpt lat="48.6176" lon="-4.04365">
        <ele>38.5</ele>
        <time>2022-05-27T09:35:37Z</time>
      </trkpt>
      <trkpt lat="48.61751" lon="-4.04396">
        <ele>38.3</ele>
        <time>2022-05-27T09:35:40Z</time>
      </trkpt>
      <trkpt lat="48.61741" lon="-4.04438">
        <ele>38.7</ele>
        <time>2022-05-27T09:35:44Z</time>
      </trkpt>
      <trkpt lat="48.61729" lon="-4.04496">
        <ele>39.3</ele>
        <time>2022-05-27T09:35:50Z</time>
      </trkpt>
      <trkpt lat="48.61715" lon="-4.04568">
        <ele>40.2</ele>
        <time>2022-05-27T09:35:58Z</time>
      </trkpt>
      <trkpt lat="48.61713" lon="-4.0464">
        <ele>41.7</ele>
        <time>2022-05-27T09:36:06Z</time>
      </trkpt>
      <trkpt lat="48.61716" lon="-4.04685">
        <ele>42.6</ele>
        <time>2022-05-27T09:36:11Z</time>
      </trkpt>
      <trkpt lat="48.61719" lon="-4.04692">
        <ele>42.7</ele>
        <time>2022-05-27T09:36:12Z</time>
      </trkpt>
      <trkpt lat="48.61722" lon="-4.04717">
        <ele>43.3</ele>
        <time>2022-05-27T09:36:15Z</time>
      </trkpt>
      <trkpt lat="48.61727" lon="-4.04759">
        <ele>44.6</ele>
        <time>2022-05-27T09:36:20Z</time>
      </trkpt>
      <trkpt lat="48.6174" lon="-4.04824">
        <ele>46.9</ele>
        <time>2022-05-27T09:36:29Z</time>
      </trkpt>
      <trkpt lat="48.61745" lon="-4.0485">
        <ele>48</ele>
        <time>2022-05-27T09:36:33Z</time>
      </trkpt>
      <trkpt lat="48.61753" lon="-4.04889">
        <ele>49.7</ele>
        <time>2022-05-27T09:36:39Z</time>
      </trkpt>
      <trkpt lat="48.61761" lon="-4.04926">
        <ele>51.5</ele>
        <time>2022-05-27T09:36:45Z</time>
      </trkpt>
      <trkpt lat="48.61767" lon="-4.04956">
        <ele>52.9</ele>
        <time>2022-05-27T09:36:50Z</time>
      </trkpt>
      <trkpt lat="48.61773" lon="-4.0499">
        <ele>54.6</ele>
        <time>2022-05-27T09:36:56Z</time>
      </trkpt>
      <trkpt lat="48.61779" lon="-4.05025">
        <ele>56.4</ele>
        <time>2022-05-27T09:37:02Z</time>
      </trkpt>
      <trkpt lat="48.6178" lon="-4.05064">
        <ele>58.1</ele>
        <time>2022-05-27T09:37:08Z</time>
      </trkpt>
      <trkpt lat="48.61782" lon="-4.05096">
        <ele>59.1</ele>
        <time>2022-05-27T09:37:13Z</time>
      </trkpt>
      <trkpt lat="48.61781" lon="-4.05103">
        <ele>59.2</ele>
        <time>2022-05-27T09:37:14Z</time>
      </trkpt>
      <trkpt lat="48.61778" lon="-4.05167">
        <ele>60.2</ele>
        <time>2022-05-27T09:37:23Z</time>
      </trkpt>
      <trkpt lat="48.61776" lon="-4.05193">
        <ele>60.4</ele>
        <time>2022-05-27T09:37:26Z</time>
      </trkpt>
      <trkpt lat="48.61772" lon="-4.05237">
        <ele>59.4</ele>
        <time>2022-05-27T09:37:31Z</time>
      </trkpt>
      <trkpt lat="48.61771" lon="-4.05311">
        <ele>58</ele>
        <time>2022-05-27T09:37:38Z</time>
      </trkpt>
      <trkpt lat="48.61781" lon="-4.05378">
        <ele>55.9</ele>
        <time>2022-05-27T09:37:44Z</time>
      </trkpt>
      <trkpt lat="48.61783" lon="-4.05388">
        <ele>55.7</ele>
        <time>2022-05-27T09:37:45Z</time>
      </trkpt>
      <trkpt lat="48.61802" lon="-4.05439">
        <ele>54.5</ele>
        <time>2022-05-27T09:37:50Z</time>
      </trkpt>
      <trkpt lat="48.61807" lon="-4.05448">
        <ele>54.2</ele>
        <time>2022-05-27T09:37:51Z</time>
      </trkpt>
      <trkpt lat="48.61812" lon="-4.05455">
        <ele>54</ele>
        <time>2022-05-27T09:37:52Z</time>
      </trkpt>
      <trkpt lat="48.61821" lon="-4.05457">
        <ele>53.7</ele>
        <time>2022-05-27T09:37:53Z</time>
      </trkpt>
      <trkpt lat="48.61831" lon="-4.05471">
        <ele>53.3</ele>
        <time>2022-05-27T09:37:55Z</time>
      </trkpt>
      <trkpt lat="48.61833" lon="-4.05481">
        <ele>53.1</ele>
        <time>2022-05-27T09:37:56Z</time>
      </trkpt>
      <trkpt lat="48.61834" lon="-4.05492">
        <ele>53</ele>
        <time>2022-05-27T09:37:57Z</time>
      </trkpt>
      <trkpt lat="48.61836" lon="-4.05513">
        <ele>52.9</ele>
        <time>2022-05-27T09:37:59Z</time>
      </trkpt>
      <trkpt lat="48.61847" lon="-4.05538">
        <ele>52.7</ele>
        <time>2022-05-27T09:38:02Z</time>
      </trkpt>
      <trkpt lat="48.61862" lon="-4.05572">
        <ele>53.1</ele>
        <time>2022-05-27T09:38:06Z</time>
      </trkpt>
      <trkpt lat="48.61878" lon="-4.05602">
        <ele>53.5</ele>
        <time>2022-05-27T09:38:10Z</time>
      </trkpt>
      <trkpt lat="48.61899" lon="-4.05652">
        <ele>54.1</ele>
        <time>2022-05-27T09:38:16Z</time>
      </trkpt>
      <trkpt lat="48.61918" lon="-4.05693">
        <ele>54.5</ele>
        <time>2022-05-27T09:38:21Z</time>
      </trkpt>
      <trkpt lat="48.61923" lon="-4.05711">
        <ele>54.7</ele>
        <time>2022-05-27T09:38:23Z</time>
      </trkpt>
      <trkpt lat="48.61927" lon="-4.05767">
        <ele>55.4</ele>
        <time>2022-05-27T09:38:30Z</time>
      </trkpt>
      <trkpt lat="48.61928" lon="-4.05774">
        <ele>55.5</ele>
        <time>2022-05-27T09:38:31Z</time>
      </trkpt>
      <trkpt lat="48.61929" lon="-4.0578">
        <ele>55.5</ele>
        <time>2022-05-27T09:38:32Z</time>
      </trkpt>
      <trkpt lat="48.61932" lon="-4.05791">
        <ele>55.4</ele>
        <time>2022-05-27T09:38:34Z</time>
      </trkpt>
      <trkpt lat="48.6195" lon="-4.05798">
        <ele>55.3</ele>
        <time>2022-05-27T09:38:36Z</time>
      </trkpt>
      <trkpt lat="48.6199" lon="-4.05844">
        <ele>55</ele>
        <time>2022-05-27T09:38:43Z</time>
      </trkpt>
      <trkpt lat="48.61994" lon="-4.05854">
        <ele>54.8</ele>
        <time>2022-05-27T09:38:44Z</time>
      </trkpt>
      <trkpt lat="48.62017" lon="-4.05904">
        <ele>52.6</ele>
        <time>2022-05-27T09:38:49Z</time>
      </trkpt>
      <trkpt lat="48.62021" lon="-4.05914">
        <ele>52.2</ele>
        <time>2022-05-27T09:38:50Z</time>
      </trkpt>
      <trkpt lat="48.62041" lon="-4.05964">
        <ele>51.4</ele>
        <time>2022-05-27T09:38:55Z</time>
      </trkpt>
      <trkpt lat="48.62064" lon="-4.06026">
        <ele>50.5</ele>
        <time>2022-05-27T09:39:01Z</time>
      </trkpt>
      <trkpt lat="48.62068" lon="-4.06036">
        <ele>50.4</ele>
        <time>2022-05-27T09:39:02Z</time>
      </trkpt>
      <trkpt lat="48.62087" lon="-4.06088">
        <ele>49.8</ele>
        <time>2022-05-27T09:39:07Z</time>
      </trkpt>
      <trkpt lat="48.62104" lon="-4.06137">
        <ele>49.2</ele>
        <time>2022-05-27T09:39:12Z</time>
      </trkpt>
      <trkpt lat="48.62111" lon="-4.06156">
        <ele>48.8</ele>
        <time>2022-05-27T09:39:14Z</time>
      </trkpt>
      <trkpt lat="48.62122" lon="-4.06186">
        <ele>48.3</ele>
        <time>2022-05-27T09:39:17Z</time>
      </trkpt>
      <trkpt lat="48.62136" lon="-4.06225">
        <ele>48</ele>
        <time>2022-05-27T09:39:21Z</time>
      </trkpt>
      <trkpt lat="48.62143" lon="-4.06246">
        <ele>47.8</ele>
        <time>2022-05-27T09:39:23Z</time>
      </trkpt>
      <trkpt lat="48.62157" lon="-4.06286">
        <ele>47.7</ele>
        <time>2022-05-27T09:39:27Z</time>
      </trkpt>
      <trkpt lat="48.62182" lon="-4.06355">
        <ele>47.4</ele>
        <time>2022-05-27T09:39:34Z</time>
      </trkpt>
      <trkpt lat="48.622" lon="-4.06405">
        <ele>47.2</ele>
        <time>2022-05-27T09:39:39Z</time>
      </trkpt>
      <trkpt lat="48.6222" lon="-4.06441">
        <ele>47</ele>
        <time>2022-05-27T09:39:43Z</time>
      </trkpt>
      <trkpt lat="48.62234" lon="-4.06465">
        <ele>46.9</ele>
        <time>2022-05-27T09:39:46Z</time>
      </trkpt>
      <trkpt lat="48.62243" lon="-4.06484">
        <ele>46.8</ele>
        <time>2022-05-27T09:39:48Z</time>
      </trkpt>
      <trkpt lat="48.62253" lon="-4.06502">
        <ele>46.7</ele>
        <time>2022-05-27T09:39:50Z</time>
      </trkpt>
      <trkpt lat="48.62263" lon="-4.06533">
        <ele>46.6</ele>
        <time>2022-05-27T09:39:53Z</time>
      </trkpt>
      <trkpt lat="48.62274" lon="-4.06609">
        <ele>46.3</ele>
        <time>2022-05-27T09:40:00Z</time>
      </trkpt>
      <trkpt lat="48.62277" lon="-4.0663">
        <ele>46.2</ele>
        <time>2022-05-27T09:40:02Z</time>
      </trkpt>
      <trkpt lat="48.62274" lon="-4.06684">
        <ele>46</ele>
        <time>2022-05-27T09:40:07Z</time>
      </trkpt>
      <trkpt lat="48.62274" lon="-4.06695">
        <ele>45.9</ele>
        <time>2022-05-27T09:40:08Z</time>
      </trkpt>
      <trkpt lat="48.62264" lon="-4.06771">
        <ele>45.6</ele>
        <time>2022-05-27T09:40:15Z</time>
      </trkpt>
      <trkpt lat="48.62244" lon="-4.06844">
        <ele>45.3</ele>
        <time>2022-05-27T09:40:22Z</time>
      </trkpt>
      <trkpt lat="48.62221" lon="-4.06914">
        <ele>45</ele>
        <time>2022-05-27T09:40:29Z</time>
      </trkpt>
      <trkpt lat="48.622" lon="-4.06974">
        <ele>44.8</ele>
        <time>2022-05-27T09:40:35Z</time>
      </trkpt>
      <trkpt lat="48.62178" lon="-4.07035">
        <ele>44.5</ele>
        <time>2022-05-27T09:40:41Z</time>
      </trkpt>
      <trkpt lat="48.62157" lon="-4.07097">
        <ele>43.9</ele>
        <time>2022-05-27T09:40:47Z</time>
      </trkpt>
      <trkpt lat="48.62156" lon="-4.0712">
        <ele>43.7</ele>
        <time>2022-05-27T09:40:49Z</time>
      </trkpt>
      <trkpt lat="48.6216" lon="-4.07145">
        <ele>43.5</ele>
        <time>2022-05-27T09:40:51Z</time>
      </trkpt>
      <trkpt lat="48.62166" lon="-4.07155">
        <ele>43.3</ele>
        <time>2022-05-27T09:40:52Z</time>
      </trkpt>
      <trkpt lat="48.62179" lon="-4.0717">
        <ele>43.1</ele>
        <time>2022-05-27T09:40:54Z</time>
      </trkpt>
      <trkpt lat="48.62201" lon="-4.07203">
        <ele>42.7</ele>
        <time>2022-05-27T09:40:58Z</time>
      </trkpt>
      <trkpt lat="48.62205" lon="-4.07212">
        <ele>42.5</ele>
        <time>2022-05-27T09:40:59Z</time>
      </trkpt>
      <trkpt lat="48.62207" lon="-4.0722">
        <ele>42.1</ele>
        <time>2022-05-27T09:41:00Z</time>
      </trkpt>
      <trkpt lat="48.62191" lon="-4.07278">
        <ele>40.1</ele>
        <time>2022-05-27T09:41:05Z</time>
      </trkpt>
      <trkpt lat="48.62188" lon="-4.07288">
        <ele>39.8</ele>
        <time>2022-05-27T09:41:06Z</time>
      </trkpt>
      <trkpt lat="48.62173" lon="-4.07348">
        <ele>37</ele>
        <time>2022-05-27T09:41:14Z</time>
      </trkpt>
      <trkpt lat="48.62173" lon="-4.0736">
        <ele>36.7</ele>
        <time>2022-05-27T09:41:15Z</time>
      </trkpt>
      <trkpt lat="48.62172" lon="-4.07419">
        <ele>35.2</ele>
        <time>2022-05-27T09:41:20Z</time>
      </trkpt>
      <trkpt lat="48.62171" lon="-4.0743">
        <ele>34.9</ele>
        <time>2022-05-27T09:41:21Z</time>
      </trkpt>
      <trkpt lat="48.62164" lon="-4.07453">
        <ele>34.3</ele>
        <time>2022-05-27T09:41:23Z</time>
      </trkpt>
      <trkpt lat="48.62157" lon="-4.07493">
        <ele>33.3</ele>
        <time>2022-05-27T09:41:26Z</time>
      </trkpt>
      <trkpt lat="48.62149" lon="-4.07533">
        <ele>31.6</ele>
        <time>2022-05-27T09:41:29Z</time>
      </trkpt>
      <trkpt lat="48.62147" lon="-4.07548">
        <ele>31.1</ele>
        <time>2022-05-27T09:41:30Z</time>
      </trkpt>
      <trkpt lat="48.62151" lon="-4.07595">
        <ele>29.5</ele>
        <time>2022-05-27T09:41:33Z</time>
      </trkpt>
      <trkpt lat="48.62159" lon="-4.07624">
        <ele>28.4</ele>
        <time>2022-05-27T09:41:35Z</time>
      </trkpt>
      <trkpt lat="48.62178" lon="-4.07658">
        <ele>27</ele>
        <time>2022-05-27T09:41:38Z</time>
      </trkpt>
      <trkpt lat="48.62189" lon="-4.07681">
        <ele>27.3</ele>
        <time>2022-05-27T09:41:40Z</time>
      </trkpt>
      <trkpt lat="48.62216" lon="-4.07738">
        <ele>28.3</ele>
        <time>2022-05-27T09:41:46Z</time>
      </trkpt>
      <trkpt lat="48.62227" lon="-4.07772">
        <ele>29</ele>
        <time>2022-05-27T09:41:50Z</time>
      </trkpt>
      <trkpt lat="48.6223" lon="-4.0778">
        <ele>29.4</ele>
        <time>2022-05-27T09:41:51Z</time>
      </trkpt>
      <trkpt lat="48.62239" lon="-4.07823">
        <ele>31</ele>
        <time>2022-05-27T09:41:56Z</time>
      </trkpt>
      <trkpt lat="48.62245" lon="-4.07849">
        <ele>31.4</ele>
        <time>2022-05-27T09:41:59Z</time>
      </trkpt>
      <trkpt lat="48.62249" lon="-4.07875">
        <ele>31.9</ele>
        <time>2022-05-27T09:42:02Z</time>
      </trkpt>
      <trkpt lat="48.62256" lon="-4.07918">
        <ele>32.7</ele>
        <time>2022-05-27T09:42:07Z</time>
      </trkpt>
      <trkpt lat="48.62272" lon="-4.07989">
        <ele>34.3</ele>
        <time>2022-05-27T09:42:16Z</time>
      </trkpt>
      <trkpt lat="48.62282" lon="-4.08018">
        <ele>35</ele>
        <time>2022-05-27T09:42:20Z</time>
      </trkpt>
      <trkpt lat="48.62296" lon="-4.08054">
        <ele>35.7</ele>
        <time>2022-05-27T09:42:25Z</time>
      </trkpt>
      <trkpt lat="48.62323" lon="-4.08109">
        <ele>36.8</ele>
        <time>2022-05-27T09:42:33Z</time>
      </trkpt>
      <trkpt lat="48.62344" lon="-4.08144">
        <ele>37.4</ele>
        <time>2022-05-27T09:42:38Z</time>
      </trkpt>
      <trkpt lat="48.62356" lon="-4.08165">
        <ele>37</ele>
        <time>2022-05-27T09:42:41Z</time>
      </trkpt>
      <trkpt lat="48.62389" lon="-4.08221">
        <ele>36</ele>
        <time>2022-05-27T09:42:48Z</time>
      </trkpt>
      <trkpt lat="48.624" lon="-4.08239">
        <ele>35.7</ele>
        <time>2022-05-27T09:42:50Z</time>
      </trkpt>
      <trkpt lat="48.62422" lon="-4.08277">
        <ele>34</ele>
        <time>2022-05-27T09:42:54Z</time>
      </trkpt>
      <trkpt lat="48.62431" lon="-4.08298">
        <ele>33.3</ele>
        <time>2022-05-27T09:42:56Z</time>
      </trkpt>
      <trkpt lat="48.6244" lon="-4.0832">
        <ele>33.1</ele>
        <time>2022-05-27T09:42:58Z</time>
      </trkpt>
      <trkpt lat="48.62458" lon="-4.08388">
        <ele>32.5</ele>
        <time>2022-05-27T09:43:04Z</time>
      </trkpt>
      <trkpt lat="48.62465" lon="-4.0843">
        <ele>32.2</ele>
        <time>2022-05-27T09:43:08Z</time>
      </trkpt>
      <trkpt lat="48.6247" lon="-4.08461">
        <ele>32.6</ele>
        <time>2022-05-27T09:43:11Z</time>
      </trkpt>
      <trkpt lat="48.62478" lon="-4.0853">
        <ele>33.6</ele>
        <time>2022-05-27T09:43:18Z</time>
      </trkpt>
      <trkpt lat="48.6248" lon="-4.08549">
        <ele>33.9</ele>
        <time>2022-05-27T09:43:20Z</time>
      </trkpt>
      <trkpt lat="48.62486" lon="-4.08597">
        <ele>34.1</ele>
        <time>2022-05-27T09:43:25Z</time>
      </trkpt>
      <trkpt lat="48.62503" lon="-4.08662">
        <ele>34.4</ele>
        <time>2022-05-27T09:43:32Z</time>
      </trkpt>
      <trkpt lat="48.62539" lon="-4.08712">
        <ele>33.2</ele>
        <time>2022-05-27T09:43:39Z</time>
      </trkpt>
      <trkpt lat="48.62574" lon="-4.08737">
        <ele>32.3</ele>
        <time>2022-05-27T09:43:44Z</time>
      </trkpt>
      <trkpt lat="48.6262" lon="-4.08748">
        <ele>29.8</ele>
        <time>2022-05-27T09:43:49Z</time>
      </trkpt>
      <trkpt lat="48.62629" lon="-4.08746">
        <ele>29.4</ele>
        <time>2022-05-27T09:43:50Z</time>
      </trkpt>
      <trkpt lat="48.62665" lon="-4.08739">
        <ele>28.6</ele>
        <time>2022-05-27T09:43:54Z</time>
      </trkpt>
      <trkpt lat="48.62704" lon="-4.08738">
        <ele>27.5</ele>
        <time>2022-05-27T09:43:59Z</time>
      </trkpt>
      <trkpt lat="48.62718" lon="-4.08747">
        <ele>27.1</ele>
        <time>2022-05-27T09:44:01Z</time>
      </trkpt>
      <trkpt lat="48.62723" lon="-4.08756">
        <ele>26.9</ele>
        <time>2022-05-27T09:44:02Z</time>
      </trkpt>
      <trkpt lat="48.62738" lon="-4.08783">
        <ele>27</ele>
        <time>2022-05-27T09:44:05Z</time>
      </trkpt>
      <trkpt lat="48.62747" lon="-4.0881">
        <ele>27.2</ele>
        <time>2022-05-27T09:44:08Z</time>
      </trkpt>
      <trkpt lat="48.6276" lon="-4.08845">
        <ele>28.1</ele>
        <time>2022-05-27T09:44:12Z</time>
      </trkpt>
      <trkpt lat="48.62765" lon="-4.08861">
        <ele>28.6</ele>
        <time>2022-05-27T09:44:14Z</time>
      </trkpt>
      <trkpt lat="48.62781" lon="-4.08908">
        <ele>30.2</ele>
        <time>2022-05-27T09:44:20Z</time>
      </trkpt>
      <trkpt lat="48.62794" lon="-4.08955">
        <ele>31.5</ele>
        <time>2022-05-27T09:44:26Z</time>
      </trkpt>
      <trkpt lat="48.62798" lon="-4.08971">
        <ele>32</ele>
        <time>2022-05-27T09:44:28Z</time>
      </trkpt>
      <trkpt lat="48.62807" lon="-4.09042">
        <ele>34.3</ele>
        <time>2022-05-27T09:44:37Z</time>
      </trkpt>
      <trkpt lat="48.62808" lon="-4.09051">
        <ele>34.5</ele>
        <time>2022-05-27T09:44:38Z</time>
      </trkpt>
      <trkpt lat="48.62812" lon="-4.09116">
        <ele>36.2</ele>
        <time>2022-05-27T09:44:46Z</time>
      </trkpt>
      <trkpt lat="48.62817" lon="-4.0919">
        <ele>38</ele>
        <time>2022-05-27T09:44:55Z</time>
      </trkpt>
      <trkpt lat="48.62817" lon="-4.09198">
        <ele>38.2</ele>
        <time>2022-05-27T09:44:56Z</time>
      </trkpt>
      <trkpt lat="48.6282" lon="-4.09259">
        <ele>38.8</ele>
        <time>2022-05-27T09:45:03Z</time>
      </trkpt>
      <trkpt lat="48.6282" lon="-4.09303">
        <ele>39.3</ele>
        <time>2022-05-27T09:45:08Z</time>
      </trkpt>
      <trkpt lat="48.6282" lon="-4.09329">
        <ele>39.2</ele>
        <time>2022-05-27T09:45:11Z</time>
      </trkpt>
      <trkpt lat="48.62819" lon="-4.09399">
        <ele>38.9</ele>
        <time>2022-05-27T09:45:19Z</time>
      </trkpt>
      <trkpt lat="48.62815" lon="-4.09471">
        <ele>38.6</ele>
        <time>2022-05-27T09:45:27Z</time>
      </trkpt>
      <trkpt lat="48.62809" lon="-4.09539">
        <ele>38.3</ele>
        <time>2022-05-27T09:45:34Z</time>
      </trkpt>
      <trkpt lat="48.62808" lon="-4.09601">
        <ele>38.1</ele>
        <time>2022-05-27T09:45:40Z</time>
      </trkpt>
      <trkpt lat="48.62808" lon="-4.09611">
        <ele>38.1</ele>
        <time>2022-05-27T09:45:41Z</time>
      </trkpt>
      <trkpt lat="48.62816" lon="-4.09684">
        <ele>37.9</ele>
        <time>2022-05-27T09:45:48Z</time>
      </trkpt>
      <trkpt lat="48.6282" lon="-4.09719">
        <ele>37.9</ele>
        <time>2022-05-27T09:45:52Z</time>
      </trkpt>
      <trkpt lat="48.62825" lon="-4.09755">
        <ele>38.6</ele>
        <time>2022-05-27T09:45:56Z</time>
      </trkpt>
      <trkpt lat="48.62829" lon="-4.09771">
        <ele>39</ele>
        <time>2022-05-27T09:45:58Z</time>
      </trkpt>
      <trkpt lat="48.6284" lon="-4.09822">
        <ele>39.7</ele>
        <time>2022-05-27T09:46:04Z</time>
      </trkpt>
      <trkpt lat="48.62854" lon="-4.09887">
        <ele>40.8</ele>
        <time>2022-05-27T09:46:12Z</time>
      </trkpt>
      <trkpt lat="48.62867" lon="-4.09959">
        <ele>41.9</ele>
        <time>2022-05-27T09:46:21Z</time>
      </trkpt>
      <trkpt lat="48.6287" lon="-4.09967">
        <ele>42.1</ele>
        <time>2022-05-27T09:46:22Z</time>
      </trkpt>
      <trkpt lat="48.62891" lon="-4.10018">
        <ele>43</ele>
        <time>2022-05-27T09:46:29Z</time>
      </trkpt>
      <trkpt lat="48.62907" lon="-4.10051">
        <ele>43.6</ele>
        <time>2022-05-27T09:46:34Z</time>
      </trkpt>
      <trkpt lat="48.6292" lon="-4.10078">
        <ele>44.4</ele>
        <time>2022-05-27T09:46:38Z</time>
      </trkpt>
      <trkpt lat="48.62943" lon="-4.1014">
        <ele>46.2</ele>
        <time>2022-05-27T09:46:47Z</time>
      </trkpt>
      <trkpt lat="48.62952" lon="-4.10178">
        <ele>47.2</ele>
        <time>2022-05-27T09:46:52Z</time>
      </trkpt>
      <trkpt lat="48.6296" lon="-4.10209">
        <ele>47.4</ele>
        <time>2022-05-27T09:46:56Z</time>
      </trkpt>
      <trkpt lat="48.62975" lon="-4.10278">
        <ele>47.8</ele>
        <time>2022-05-27T09:47:04Z</time>
      </trkpt>
      <trkpt lat="48.6299" lon="-4.10348">
        <ele>46.6</ele>
        <time>2022-05-27T09:47:11Z</time>
      </trkpt>
      <trkpt lat="48.63002" lon="-4.10398">
        <ele>45.7</ele>
        <time>2022-05-27T09:47:16Z</time>
      </trkpt>
      <trkpt lat="48.63007" lon="-4.10418">
        <ele>45.4</ele>
        <time>2022-05-27T09:47:18Z</time>
      </trkpt>
      <trkpt lat="48.63021" lon="-4.10487">
        <ele>44.5</ele>
        <time>2022-05-27T09:47:25Z</time>
      </trkpt>
      <trkpt lat="48.63025" lon="-4.10505">
        <ele>44.3</ele>
        <time>2022-05-27T09:47:27Z</time>
      </trkpt>
      <trkpt lat="48.63036" lon="-4.1055">
        <ele>44.4</ele>
        <time>2022-05-27T09:47:32Z</time>
      </trkpt>
      <trkpt lat="48.63039" lon="-4.10572">
        <ele>44.4</ele>
        <time>2022-05-27T09:47:35Z</time>
      </trkpt>
      <trkpt lat="48.6301" lon="-4.10625">
        <ele>44.5</ele>
        <time>2022-05-27T09:47:46Z</time>
      </trkpt>
      <trkpt lat="48.62983" lon="-4.10688">
        <ele>44.6</ele>
        <time>2022-05-27T09:47:54Z</time>
      </trkpt>
      <trkpt lat="48.6296" lon="-4.10747">
        <ele>44.6</ele>
        <time>2022-05-27T09:48:02Z</time>
      </trkpt>
      <trkpt lat="48.62939" lon="-4.10808">
        <ele>44.7</ele>
        <time>2022-05-27T09:48:10Z</time>
      </trkpt>
      <trkpt lat="48.6292" lon="-4.10863">
        <ele>44.8</ele>
        <time>2022-05-27T09:48:18Z</time>
      </trkpt>
      <trkpt lat="48.62918" lon="-4.10869">
        <ele>45.1</ele>
        <time>2022-05-27T09:48:19Z</time>
      </trkpt>
      <trkpt lat="48.62895" lon="-4.10932">
        <ele>47.7</ele>
        <time>2022-05-27T09:48:30Z</time>
      </trkpt>
      <trkpt lat="48.62886" lon="-4.10961">
        <ele>49.1</ele>
        <time>2022-05-27T09:48:36Z</time>
      </trkpt>
      <trkpt lat="48.62877" lon="-4.1099">
        <ele>50.5</ele>
        <time>2022-05-27T09:48:42Z</time>
      </trkpt>
      <trkpt lat="48.62875" lon="-4.10995">
        <ele>50.8</ele>
        <time>2022-05-27T09:48:43Z</time>
      </trkpt>
      <trkpt lat="48.62871" lon="-4.11021">
        <ele>52.1</ele>
        <time>2022-05-27T09:48:48Z</time>
      </trkpt>
      <trkpt lat="48.62865" lon="-4.11051">
        <ele>53.9</ele>
        <time>2022-05-27T09:48:54Z</time>
      </trkpt>
      <trkpt lat="48.62863" lon="-4.11061">
        <ele>54.3</ele>
        <time>2022-05-27T09:48:56Z</time>
      </trkpt>
      <trkpt lat="48.6286" lon="-4.1108">
        <ele>55</ele>
        <time>2022-05-27T09:49:00Z</time>
      </trkpt>
      <trkpt lat="48.62852" lon="-4.11128">
        <ele>56.4</ele>
        <time>2022-05-27T09:49:10Z</time>
      </trkpt>
      <trkpt lat="48.62851" lon="-4.11179">
        <ele>57.4</ele>
        <time>2022-05-27T09:49:18Z</time>
      </trkpt>
      <trkpt lat="48.6285" lon="-4.11199">
        <ele>57</ele>
        <time>2022-05-27T09:49:21Z</time>
      </trkpt>
      <trkpt lat="48.62832" lon="-4.11266">
        <ele>55.9</ele>
        <time>2022-05-27T09:49:30Z</time>
      </trkpt>
      <trkpt lat="48.62818" lon="-4.11303">
        <ele>55</ele>
        <time>2022-05-27T09:49:35Z</time>
      </trkpt>
      <trkpt lat="48.62809" lon="-4.11324">
        <ele>54.4</ele>
        <time>2022-05-27T09:49:38Z</time>
      </trkpt>
      <trkpt lat="48.62804" lon="-4.1134">
        <ele>54</ele>
        <time>2022-05-27T09:49:40Z</time>
      </trkpt>
      <trkpt lat="48.62794" lon="-4.1137">
        <ele>53.5</ele>
        <time>2022-05-27T09:49:44Z</time>
      </trkpt>
      <trkpt lat="48.62795" lon="-4.11427">
        <ele>52.7</ele>
        <time>2022-05-27T09:49:51Z</time>
      </trkpt>
      <trkpt lat="48.62796" lon="-4.11443">
        <ele>52.8</ele>
        <time>2022-05-27T09:49:53Z</time>
      </trkpt>
      <trkpt lat="48.62802" lon="-4.11511">
        <ele>53.6</ele>
        <time>2022-05-27T09:50:02Z</time>
      </trkpt>
      <trkpt lat="48.62809" lon="-4.11563">
        <ele>54.1</ele>
        <time>2022-05-27T09:50:09Z</time>
      </trkpt>
      <trkpt lat="48.62811" lon="-4.11578">
        <ele>54.5</ele>
        <time>2022-05-27T09:50:11Z</time>
      </trkpt>
      <trkpt lat="48.6282" lon="-4.11649">
        <ele>56.4</ele>
        <time>2022-05-27T09:50:21Z</time>
      </trkpt>
      <trkpt lat="48.62827" lon="-4.11691">
        <ele>57.5</ele>
        <time>2022-05-27T09:50:27Z</time>
      </trkpt>
      <trkpt lat="48.62831" lon="-4.11719">
        <ele>58.4</ele>
        <time>2022-05-27T09:50:31Z</time>
      </trkpt>
      <trkpt lat="48.62838" lon="-4.11787">
        <ele>60.6</ele>
        <time>2022-05-27T09:50:41Z</time>
      </trkpt>
      <trkpt lat="48.62841" lon="-4.11816">
        <ele>61.5</ele>
        <time>2022-05-27T09:50:45Z</time>
      </trkpt>
      <trkpt lat="48.62845" lon="-4.1186">
        <ele>62</ele>
        <time>2022-05-27T09:50:51Z</time>
      </trkpt>
      <trkpt lat="48.62842" lon="-4.11935">
        <ele>62.9</ele>
        <time>2022-05-27T09:51:00Z</time>
      </trkpt>
      <trkpt lat="48.62842" lon="-4.1195">
        <ele>63.1</ele>
        <time>2022-05-27T09:51:03Z</time>
      </trkpt>
      <trkpt lat="48.6284" lon="-4.12005">
        <ele>63.7</ele>
        <time>2022-05-27T09:51:14Z</time>
      </trkpt>
      <trkpt lat="48.6284" lon="-4.12072">
        <ele>64.4</ele>
        <time>2022-05-27T09:51:26Z</time>
      </trkpt>
      <trkpt lat="48.6284" lon="-4.12143">
        <ele>65.2</ele>
        <time>2022-05-27T09:51:40Z</time>
      </trkpt>
      <trkpt lat="48.62834" lon="-4.12216">
        <ele>65.9</ele>
        <time>2022-05-27T09:51:53Z</time>
      </trkpt>
      <trkpt lat="48.62831" lon="-4.12287">
        <ele>66.6</ele>
        <time>2022-05-27T09:52:05Z</time>
      </trkpt>
      <trkpt lat="48.62831" lon="-4.12293">
        <ele>66.6</ele>
        <time>2022-05-27T09:52:06Z</time>
      </trkpt>
      <trkpt lat="48.6283" lon="-4.12342">
        <ele>66.8</ele>
        <time>2022-05-27T09:52:15Z</time>
      </trkpt>
      <trkpt lat="48.62834" lon="-4.12357">
        <ele>66.9</ele>
        <time>2022-05-27T09:52:20Z</time>
      </trkpt>
      <trkpt lat="48.62845" lon="-4.1243">
        <ele>68.1</ele>
        <time>2022-05-27T09:52:26Z</time>
      </trkpt>
      <trkpt lat="48.62845" lon="-4.1243">
        <ele>68.1</ele>
        <time>2022-05-27T09:54:07Z</time>
      </trkpt>
      <trkpt lat="48.62858" lon="-4.12489">
        <ele>69.3</ele>
        <time>2022-05-27T09:54:13Z</time>
      </trkpt>
      <trkpt lat="48.6288" lon="-4.12553">
        <ele>69.5</ele>
        <time>2022-05-27T09:54:23Z</time>
      </trkpt>
      <trkpt lat="48.62879" lon="-4.12584">
        <ele>69.6</ele>
        <time>2022-05-27T09:54:28Z</time>
      </trkpt>
      <trkpt lat="48.62869" lon="-4.12616">
        <ele>69.7</ele>
        <time>2022-05-27T09:54:34Z</time>
      </trkpt>
      <trkpt lat="48.62859" lon="-4.12649">
        <ele>70.4</ele>
        <time>2022-05-27T09:54:40Z</time>
      </trkpt>
      <trkpt lat="48.62853" lon="-4.12683">
        <ele>71</ele>
        <time>2022-05-27T09:54:46Z</time>
      </trkpt>
      <trkpt lat="48.62856" lon="-4.12755">
        <ele>72.2</ele>
        <time>2022-05-27T09:54:57Z</time>
      </trkpt>
      <trkpt lat="48.62859" lon="-4.12761">
        <ele>72.2</ele>
        <time>2022-05-27T09:54:58Z</time>
      </trkpt>
      <trkpt lat="48.62863" lon="-4.12765">
        <ele>72.1</ele>
        <time>2022-05-27T09:54:59Z</time>
      </trkpt>
      <trkpt lat="48.62909" lon="-4.12776">
        <ele>70.7</ele>
        <time>2022-05-27T09:55:07Z</time>
      </trkpt>
      <trkpt lat="48.62928" lon="-4.12779">
        <ele>70.2</ele>
        <time>2022-05-27T09:55:10Z</time>
      </trkpt>
      <trkpt lat="48.62954" lon="-4.12785">
        <ele>69.2</ele>
        <time>2022-05-27T09:55:14Z</time>
      </trkpt>
      <trkpt lat="48.63005" lon="-4.12794">
        <ele>67.4</ele>
        <time>2022-05-27T09:55:21Z</time>
      </trkpt>
      <trkpt lat="48.63012" lon="-4.12796">
        <ele>67.2</ele>
        <time>2022-05-27T09:55:22Z</time>
      </trkpt>
      <trkpt lat="48.63051" lon="-4.12803">
        <ele>66.1</ele>
        <time>2022-05-27T09:55:27Z</time>
      </trkpt>
      <trkpt lat="48.63098" lon="-4.12811">
        <ele>64.8</ele>
        <time>2022-05-27T09:55:33Z</time>
      </trkpt>
      <trkpt lat="48.63144" lon="-4.12818">
        <ele>63.5</ele>
        <time>2022-05-27T09:55:39Z</time>
      </trkpt>
      <trkpt lat="48.63152" lon="-4.1282">
        <ele>63.2</ele>
        <time>2022-05-27T09:55:40Z</time>
      </trkpt>
      <trkpt lat="48.63189" lon="-4.12828">
        <ele>62.3</ele>
        <time>2022-05-27T09:55:45Z</time>
      </trkpt>
      <trkpt lat="48.63235" lon="-4.12838">
        <ele>61.1</ele>
        <time>2022-05-27T09:55:51Z</time>
      </trkpt>
      <trkpt lat="48.63281" lon="-4.12847">
        <ele>59.9</ele>
        <time>2022-05-27T09:55:57Z</time>
      </trkpt>
      <trkpt lat="48.63301" lon="-4.12852">
        <ele>59.7</ele>
        <time>2022-05-27T09:56:00Z</time>
      </trkpt>
      <trkpt lat="48.63308" lon="-4.12863">
        <ele>59.6</ele>
        <time>2022-05-27T09:56:02Z</time>
      </trkpt>
      <trkpt lat="48.63312" lon="-4.12874">
        <ele>59.5</ele>
        <time>2022-05-27T09:56:03Z</time>
      </trkpt>
      <trkpt lat="48.63333" lon="-4.12909">
        <ele>59.3</ele>
        <time>2022-05-27T09:56:06Z</time>
      </trkpt>
      <trkpt lat="48.63348" lon="-4.12912">
        <ele>59.2</ele>
        <time>2022-05-27T09:56:08Z</time>
      </trkpt>
      <trkpt lat="48.63397" lon="-4.12893">
        <ele>58.7</ele>
        <time>2022-05-27T09:56:15Z</time>
      </trkpt>
      <trkpt lat="48.63426" lon="-4.12881">
        <ele>58.4</ele>
        <time>2022-05-27T09:56:19Z</time>
      </trkpt>
      <trkpt lat="48.63471" lon="-4.12888">
        <ele>57.9</ele>
        <time>2022-05-27T09:56:25Z</time>
      </trkpt>
      <trkpt lat="48.63515" lon="-4.12898">
        <ele>57.5</ele>
        <time>2022-05-27T09:56:31Z</time>
      </trkpt>
      <trkpt lat="48.6356" lon="-4.12907">
        <ele>57</ele>
        <time>2022-05-27T09:56:37Z</time>
      </trkpt>
      <trkpt lat="48.63568" lon="-4.12909">
        <ele>56.9</ele>
        <time>2022-05-27T09:56:38Z</time>
      </trkpt>
      <trkpt lat="48.63608" lon="-4.12916">
        <ele>56</ele>
        <time>2022-05-27T09:56:43Z</time>
      </trkpt>
      <trkpt lat="48.63656" lon="-4.12924">
        <ele>54.9</ele>
        <time>2022-05-27T09:56:49Z</time>
      </trkpt>
      <trkpt lat="48.63703" lon="-4.12934">
        <ele>53.8</ele>
        <time>2022-05-27T09:56:55Z</time>
      </trkpt>
      <trkpt lat="48.6371" lon="-4.12939">
        <ele>53.5</ele>
        <time>2022-05-27T09:56:56Z</time>
      </trkpt>
      <trkpt lat="48.63718" lon="-4.12944">
        <ele>53.2</ele>
        <time>2022-05-27T09:56:57Z</time>
      </trkpt>
      <trkpt lat="48.63747" lon="-4.12964">
        <ele>51.9</ele>
        <time>2022-05-27T09:57:01Z</time>
      </trkpt>
      <trkpt lat="48.63754" lon="-4.12971">
        <ele>51.6</ele>
        <time>2022-05-27T09:57:02Z</time>
      </trkpt>
      <trkpt lat="48.6379" lon="-4.13006">
        <ele>49.7</ele>
        <time>2022-05-27T09:57:07Z</time>
      </trkpt>
      <trkpt lat="48.63841" lon="-4.13031">
        <ele>47.5</ele>
        <time>2022-05-27T09:57:13Z</time>
      </trkpt>
      <trkpt lat="48.63848" lon="-4.13034">
        <ele>47.3</ele>
        <time>2022-05-27T09:57:14Z</time>
      </trkpt>
      <trkpt lat="48.63884" lon="-4.13053">
        <ele>47.8</ele>
        <time>2022-05-27T09:57:19Z</time>
      </trkpt>
      <trkpt lat="48.63889" lon="-4.13055">
        <ele>47.9</ele>
        <time>2022-05-27T09:57:20Z</time>
      </trkpt>
      <trkpt lat="48.63914" lon="-4.13069">
        <ele>47.8</ele>
        <time>2022-05-27T09:57:26Z</time>
      </trkpt>
      <trkpt lat="48.63926" lon="-4.13077">
        <ele>47.3</ele>
        <time>2022-05-27T09:57:29Z</time>
      </trkpt>
      <trkpt lat="48.63922" lon="-4.13091">
        <ele>46.7</ele>
        <time>2022-05-27T09:57:32Z</time>
      </trkpt>
      <trkpt lat="48.63891" lon="-4.13126">
        <ele>45.7</ele>
        <time>2022-05-27T09:57:38Z</time>
      </trkpt>
      <trkpt lat="48.63885" lon="-4.13132">
        <ele>45.7</ele>
        <time>2022-05-27T09:57:39Z</time>
      </trkpt>
      <trkpt lat="48.63845" lon="-4.13178">
        <ele>45.7</ele>
        <time>2022-05-27T09:57:46Z</time>
      </trkpt>
      <trkpt lat="48.63824" lon="-4.13202">
        <ele>45.8</ele>
        <time>2022-05-27T09:57:50Z</time>
      </trkpt>
      <trkpt lat="48.63805" lon="-4.13225">
        <ele>46.8</ele>
        <time>2022-05-27T09:57:54Z</time>
      </trkpt>
      <trkpt lat="48.63798" lon="-4.13237">
        <ele>47.3</ele>
        <time>2022-05-27T09:57:56Z</time>
      </trkpt>
      <trkpt lat="48.63772" lon="-4.13281">
        <ele>48.8</ele>
        <time>2022-05-27T09:58:03Z</time>
      </trkpt>
      <trkpt lat="48.63741" lon="-4.1334">
        <ele>50.7</ele>
        <time>2022-05-27T09:58:12Z</time>
      </trkpt>
      <trkpt lat="48.63712" lon="-4.13374">
        <ele>51.2</ele>
        <time>2022-05-27T09:58:18Z</time>
      </trkpt>
      <trkpt lat="48.63702" lon="-4.13385">
        <ele>51.2</ele>
        <time>2022-05-27T09:58:20Z</time>
      </trkpt>
      <trkpt lat="48.63657" lon="-4.13422">
        <ele>51.2</ele>
        <time>2022-05-27T09:58:28Z</time>
      </trkpt>
      <trkpt lat="48.63618" lon="-4.13461">
        <ele>51.2</ele>
        <time>2022-05-27T09:58:35Z</time>
      </trkpt>
      <trkpt lat="48.63581" lon="-4.13501">
        <ele>51.2</ele>
        <time>2022-05-27T09:58:42Z</time>
      </trkpt>
      <trkpt lat="48.63539" lon="-4.13545">
        <ele>51.2</ele>
        <time>2022-05-27T09:58:50Z</time>
      </trkpt>
      <trkpt lat="48.63506" lon="-4.1359">
        <ele>51.2</ele>
        <time>2022-05-27T09:58:57Z</time>
      </trkpt>
      <trkpt lat="48.63478" lon="-4.13648">
        <ele>51.2</ele>
        <time>2022-05-27T09:59:04Z</time>
      </trkpt>
      <trkpt lat="48.63454" lon="-4.13706">
        <ele>51.1</ele>
        <time>2022-05-27T09:59:10Z</time>
      </trkpt>
      <trkpt lat="48.63445" lon="-4.13725">
        <ele>51.1</ele>
        <time>2022-05-27T09:59:12Z</time>
      </trkpt>
      <trkpt lat="48.63429" lon="-4.13764">
        <ele>51.1</ele>
        <time>2022-05-27T09:59:16Z</time>
      </trkpt>
      <trkpt lat="48.63421" lon="-4.13782">
        <ele>51.1</ele>
        <time>2022-05-27T09:59:18Z</time>
      </trkpt>
      <trkpt lat="48.63402" lon="-4.13829">
        <ele>51.5</ele>
        <time>2022-05-27T09:59:23Z</time>
      </trkpt>
      <trkpt lat="48.63381" lon="-4.13897">
        <ele>52.2</ele>
        <time>2022-05-27T09:59:30Z</time>
      </trkpt>
      <trkpt lat="48.63372" lon="-4.13969">
        <ele>52.8</ele>
        <time>2022-05-27T09:59:37Z</time>
      </trkpt>
      <trkpt lat="48.63369" lon="-4.14008">
        <ele>53.3</ele>
        <time>2022-05-27T09:59:42Z</time>
      </trkpt>
      <trkpt lat="48.63367" lon="-4.1404">
        <ele>54.2</ele>
        <time>2022-05-27T09:59:46Z</time>
      </trkpt>
      <trkpt lat="48.63368" lon="-4.14058">
        <ele>54.5</ele>
        <time>2022-05-27T09:59:48Z</time>
      </trkpt>
      <trkpt lat="48.63369" lon="-4.14111">
        <ele>55.1</ele>
        <time>2022-05-27T09:59:54Z</time>
      </trkpt>
      <trkpt lat="48.63374" lon="-4.14176">
        <ele>54.3</ele>
        <time>2022-05-27T10:00:00Z</time>
      </trkpt>
      <trkpt lat="48.63375" lon="-4.14188">
        <ele>54.1</ele>
        <time>2022-05-27T10:00:01Z</time>
      </trkpt>
      <trkpt lat="48.63377" lon="-4.14238">
        <ele>53</ele>
        <time>2022-05-27T10:00:05Z</time>
      </trkpt>
      <trkpt lat="48.63377" lon="-4.14263">
        <ele>52.4</ele>
        <time>2022-05-27T10:00:07Z</time>
      </trkpt>
      <trkpt lat="48.63375" lon="-4.14299">
        <ele>51.5</ele>
        <time>2022-05-27T10:00:10Z</time>
      </trkpt>
      <trkpt lat="48.63373" lon="-4.14322">
        <ele>51.6</ele>
        <time>2022-05-27T10:00:12Z</time>
      </trkpt>
      <trkpt lat="48.63369" lon="-4.14354">
        <ele>51.7</ele>
        <time>2022-05-27T10:00:15Z</time>
      </trkpt>
      <trkpt lat="48.63364" lon="-4.14396">
        <ele>52.1</ele>
        <time>2022-05-27T10:00:19Z</time>
      </trkpt>
      <trkpt lat="48.63362" lon="-4.14406">
        <ele>52.2</ele>
        <time>2022-05-27T10:00:20Z</time>
      </trkpt>
      <trkpt lat="48.63355" lon="-4.14464">
        <ele>53.3</ele>
        <time>2022-05-27T10:00:26Z</time>
      </trkpt>
      <trkpt lat="48.63345" lon="-4.14517">
        <ele>54.3</ele>
        <time>2022-05-27T10:00:32Z</time>
      </trkpt>
      <trkpt lat="48.63341" lon="-4.14534">
        <ele>54.7</ele>
        <time>2022-05-27T10:00:34Z</time>
      </trkpt>
      <trkpt lat="48.63324" lon="-4.14597">
        <ele>56.2</ele>
        <time>2022-05-27T10:00:42Z</time>
      </trkpt>
      <trkpt lat="48.63311" lon="-4.14659">
        <ele>57.6</ele>
        <time>2022-05-27T10:00:50Z</time>
      </trkpt>
      <trkpt lat="48.6331" lon="-4.14667">
        <ele>57.8</ele>
        <time>2022-05-27T10:00:51Z</time>
      </trkpt>
      <trkpt lat="48.63315" lon="-4.1472">
        <ele>58.9</ele>
        <time>2022-05-27T10:00:58Z</time>
      </trkpt>
      <trkpt lat="48.63339" lon="-4.1478">
        <ele>60.3</ele>
        <time>2022-05-27T10:01:07Z</time>
      </trkpt>
      <trkpt lat="48.63359" lon="-4.14825">
        <ele>61.4</ele>
        <time>2022-05-27T10:01:14Z</time>
      </trkpt>
      <trkpt lat="48.63365" lon="-4.14837">
        <ele>61.7</ele>
        <time>2022-05-27T10:01:16Z</time>
      </trkpt>
      <trkpt lat="48.634" lon="-4.14882">
        <ele>62.9</ele>
        <time>2022-05-27T10:01:25Z</time>
      </trkpt>
      <trkpt lat="48.63423" lon="-4.14928">
        <ele>63.8</ele>
        <time>2022-05-27T10:01:32Z</time>
      </trkpt>
      <trkpt lat="48.6343" lon="-4.14941">
        <ele>64</ele>
        <time>2022-05-27T10:01:34Z</time>
      </trkpt>
      <trkpt lat="48.6346" lon="-4.14998">
        <ele>65.2</ele>
        <time>2022-05-27T10:01:43Z</time>
      </trkpt>
      <trkpt lat="48.63463" lon="-4.15004">
        <ele>65.3</ele>
        <time>2022-05-27T10:01:44Z</time>
      </trkpt>
      <trkpt lat="48.63482" lon="-4.15043">
        <ele>65.7</ele>
        <time>2022-05-27T10:01:50Z</time>
      </trkpt>
      <trkpt lat="48.63488" lon="-4.15056">
        <ele>65.9</ele>
        <time>2022-05-27T10:01:52Z</time>
      </trkpt>
      <trkpt lat="48.63518" lon="-4.15114">
        <ele>66.8</ele>
        <time>2022-05-27T10:02:01Z</time>
      </trkpt>
      <trkpt lat="48.63549" lon="-4.1517">
        <ele>67.7</ele>
        <time>2022-05-27T10:02:10Z</time>
      </trkpt>
      <trkpt lat="48.63587" lon="-4.15209">
        <ele>68.5</ele>
        <time>2022-05-27T10:02:18Z</time>
      </trkpt>
      <trkpt lat="48.63596" lon="-4.15222">
        <ele>68.6</ele>
        <time>2022-05-27T10:02:20Z</time>
      </trkpt>
      <trkpt lat="48.63599" lon="-4.15229">
        <ele>68.4</ele>
        <time>2022-05-27T10:02:21Z</time>
      </trkpt>
      <trkpt lat="48.63617" lon="-4.15299">
        <ele>66.6</ele>
        <time>2022-05-27T10:02:29Z</time>
      </trkpt>
      <trkpt lat="48.63638" lon="-4.15363">
        <ele>65.3</ele>
        <time>2022-05-27T10:02:35Z</time>
      </trkpt>
      <trkpt lat="48.63651" lon="-4.15399">
        <ele>64.4</ele>
        <time>2022-05-27T10:02:38Z</time>
      </trkpt>
      <trkpt lat="48.63659" lon="-4.15423">
        <ele>62.7</ele>
        <time>2022-05-27T10:02:40Z</time>
      </trkpt>
      <trkpt lat="48.63676" lon="-4.15467">
        <ele>59.2</ele>
        <time>2022-05-27T10:02:44Z</time>
      </trkpt>
      <trkpt lat="48.63684" lon="-4.15487">
        <ele>57.4</ele>
        <time>2022-05-27T10:02:46Z</time>
      </trkpt>
      <trkpt lat="48.6369" lon="-4.15499">
        <ele>55.6</ele>
        <time>2022-05-27T10:02:48Z</time>
      </trkpt>
      <trkpt lat="48.63687" lon="-4.15513">
        <ele>53.9</ele>
        <time>2022-05-27T10:02:50Z</time>
      </trkpt>
      <trkpt lat="48.63677" lon="-4.15521">
        <ele>53.3</ele>
        <time>2022-05-27T10:02:51Z</time>
      </trkpt>
      <trkpt lat="48.63667" lon="-4.15533">
        <ele>52</ele>
        <time>2022-05-27T10:02:53Z</time>
      </trkpt>
      <trkpt lat="48.63658" lon="-4.15536">
        <ele>51.4</ele>
        <time>2022-05-27T10:02:54Z</time>
      </trkpt>
      <trkpt lat="48.63645" lon="-4.15549">
        <ele>50.3</ele>
        <time>2022-05-27T10:02:56Z</time>
      </trkpt>
      <trkpt lat="48.6364" lon="-4.15557">
        <ele>50.2</ele>
        <time>2022-05-27T10:02:57Z</time>
      </trkpt>
      <trkpt lat="48.63606" lon="-4.15606">
        <ele>49.4</ele>
        <time>2022-05-27T10:03:04Z</time>
      </trkpt>
      <trkpt lat="48.63585" lon="-4.15638">
        <ele>49</ele>
        <time>2022-05-27T10:03:08Z</time>
      </trkpt>
      <trkpt lat="48.63555" lon="-4.15696">
        <ele>50.4</ele>
        <time>2022-05-27T10:03:15Z</time>
      </trkpt>
      <trkpt lat="48.63529" lon="-4.15715">
        <ele>51.3</ele>
        <time>2022-05-27T10:03:20Z</time>
      </trkpt>
      <trkpt lat="48.63513" lon="-4.15726">
        <ele>51.7</ele>
        <time>2022-05-27T10:03:23Z</time>
      </trkpt>
      <trkpt lat="48.63475" lon="-4.15753">
        <ele>52.6</ele>
        <time>2022-05-27T10:03:32Z</time>
      </trkpt>
      <trkpt lat="48.63436" lon="-4.15797">
        <ele>51.2</ele>
        <time>2022-05-27T10:03:41Z</time>
      </trkpt>
      <trkpt lat="48.63423" lon="-4.15813">
        <ele>50.9</ele>
        <time>2022-05-27T10:03:43Z</time>
      </trkpt>
      <trkpt lat="48.63415" lon="-4.15818">
        <ele>50.7</ele>
        <time>2022-05-27T10:03:44Z</time>
      </trkpt>
      <trkpt lat="48.63375" lon="-4.15844">
        <ele>48.6</ele>
        <time>2022-05-27T10:03:49Z</time>
      </trkpt>
      <trkpt lat="48.63364" lon="-4.15849">
        <ele>48.1</ele>
        <time>2022-05-27T10:03:50Z</time>
      </trkpt>
      <trkpt lat="48.63331" lon="-4.15864">
        <ele>46.6</ele>
        <time>2022-05-27T10:03:53Z</time>
      </trkpt>
      <trkpt lat="48.63295" lon="-4.15878">
        <ele>45</ele>
        <time>2022-05-27T10:03:56Z</time>
      </trkpt>
      <trkpt lat="48.63283" lon="-4.15883">
        <ele>44.3</ele>
        <time>2022-05-27T10:03:57Z</time>
      </trkpt>
      <trkpt lat="48.63236" lon="-4.15901">
        <ele>41.5</ele>
        <time>2022-05-27T10:04:01Z</time>
      </trkpt>
      <trkpt lat="48.63225" lon="-4.15906">
        <ele>40.8</ele>
        <time>2022-05-27T10:04:02Z</time>
      </trkpt>
      <trkpt lat="48.63192" lon="-4.15921">
        <ele>39.1</ele>
        <time>2022-05-27T10:04:05Z</time>
      </trkpt>
      <trkpt lat="48.6316" lon="-4.15937">
        <ele>37.3</ele>
        <time>2022-05-27T10:04:08Z</time>
      </trkpt>
      <trkpt lat="48.63139" lon="-4.15948">
        <ele>36.2</ele>
        <time>2022-05-27T10:04:10Z</time>
      </trkpt>
      <trkpt lat="48.6311" lon="-4.15967">
        <ele>34.6</ele>
        <time>2022-05-27T10:04:13Z</time>
      </trkpt>
      <trkpt lat="48.63102" lon="-4.15974">
        <ele>34</ele>
        <time>2022-05-27T10:04:14Z</time>
      </trkpt>
      <trkpt lat="48.63096" lon="-4.15982">
        <ele>33.4</ele>
        <time>2022-05-27T10:04:15Z</time>
      </trkpt>
      <trkpt lat="48.63093" lon="-4.15994">
        <ele>32.8</ele>
        <time>2022-05-27T10:04:16Z</time>
      </trkpt>
      <trkpt lat="48.63098" lon="-4.16049">
        <ele>30.7</ele>
        <time>2022-05-27T10:04:20Z</time>
      </trkpt>
      <trkpt lat="48.63099" lon="-4.16062">
        <ele>30.8</ele>
        <time>2022-05-27T10:04:21Z</time>
      </trkpt>
      <trkpt lat="48.63103" lon="-4.16105">
        <ele>31.3</ele>
        <time>2022-05-27T10:04:25Z</time>
      </trkpt>
      <trkpt lat="48.63103" lon="-4.16114">
        <ele>31.7</ele>
        <time>2022-05-27T10:04:26Z</time>
      </trkpt>
      <trkpt lat="48.63099" lon="-4.16151">
        <ele>33.8</ele>
        <time>2022-05-27T10:04:31Z</time>
      </trkpt>
      <trkpt lat="48.63095" lon="-4.16186">
        <ele>35.5</ele>
        <time>2022-05-27T10:04:36Z</time>
      </trkpt>
      <trkpt lat="48.6309" lon="-4.1622">
        <ele>37.5</ele>
        <time>2022-05-27T10:04:42Z</time>
      </trkpt>
      <trkpt lat="48.63086" lon="-4.16254">
        <ele>39</ele>
        <time>2022-05-27T10:04:48Z</time>
      </trkpt>
      <trkpt lat="48.63091" lon="-4.16282">
        <ele>40.5</ele>
        <time>2022-05-27T10:04:54Z</time>
      </trkpt>
      <trkpt lat="48.63096" lon="-4.16311">
        <ele>42.7</ele>
        <time>2022-05-27T10:05:00Z</time>
      </trkpt>
      <trkpt lat="48.63098" lon="-4.1632">
        <ele>43.2</ele>
        <time>2022-05-27T10:05:02Z</time>
      </trkpt>
      <trkpt lat="48.631" lon="-4.16336">
        <ele>43.9</ele>
        <time>2022-05-27T10:05:05Z</time>
      </trkpt>
      <trkpt lat="48.63104" lon="-4.16353">
        <ele>44.9</ele>
        <time>2022-05-27T10:05:09Z</time>
      </trkpt>
      <trkpt lat="48.63102" lon="-4.16368">
        <ele>45.6</ele>
        <time>2022-05-27T10:05:12Z</time>
      </trkpt>
      <trkpt lat="48.631" lon="-4.16372">
        <ele>45.9</ele>
        <time>2022-05-27T10:05:13Z</time>
      </trkpt>
      <trkpt lat="48.63098" lon="-4.16375">
        <ele>46.2</ele>
        <time>2022-05-27T10:05:14Z</time>
      </trkpt>
      <trkpt lat="48.63091" lon="-4.16391">
        <ele>47.3</ele>
        <time>2022-05-27T10:05:18Z</time>
      </trkpt>
      <trkpt lat="48.63073" lon="-4.16436">
        <ele>50.5</ele>
        <time>2022-05-27T10:05:29Z</time>
      </trkpt>
      <trkpt lat="48.63072" lon="-4.1644">
        <ele>50.8</ele>
        <time>2022-05-27T10:05:30Z</time>
      </trkpt>
      <trkpt lat="48.63059" lon="-4.16489">
        <ele>53.8</ele>
        <time>2022-05-27T10:05:42Z</time>
      </trkpt>
      <trkpt lat="48.63054" lon="-4.16505">
        <ele>54.8</ele>
        <time>2022-05-27T10:05:46Z</time>
      </trkpt>
      <trkpt lat="48.63052" lon="-4.16513">
        <ele>55.3</ele>
        <time>2022-05-27T10:05:48Z</time>
      </trkpt>
      <trkpt lat="48.63046" lon="-4.16537">
        <ele>56.2</ele>
        <time>2022-05-27T10:05:54Z</time>
      </trkpt>
      <trkpt lat="48.63038" lon="-4.1657">
        <ele>57.9</ele>
        <time>2022-05-27T10:06:02Z</time>
      </trkpt>
      <trkpt lat="48.63025" lon="-4.16624">
        <ele>59.9</ele>
        <time>2022-05-27T10:06:12Z</time>
      </trkpt>
      <trkpt lat="48.63021" lon="-4.16642">
        <ele>60.6</ele>
        <time>2022-05-27T10:06:15Z</time>
      </trkpt>
      <trkpt lat="48.63009" lon="-4.16713">
        <ele>62.9</ele>
        <time>2022-05-27T10:06:25Z</time>
      </trkpt>
      <trkpt lat="48.63007" lon="-4.16734">
        <ele>63.5</ele>
        <time>2022-05-27T10:06:28Z</time>
      </trkpt>
      <trkpt lat="48.63004" lon="-4.16783">
        <ele>63.9</ele>
        <time>2022-05-27T10:06:35Z</time>
      </trkpt>
      <trkpt lat="48.63001" lon="-4.16823">
        <ele>64.2</ele>
        <time>2022-05-27T10:06:40Z</time>
      </trkpt>
      <trkpt lat="48.62999" lon="-4.16855">
        <ele>64</ele>
        <time>2022-05-27T10:06:44Z</time>
      </trkpt>
      <trkpt lat="48.62998" lon="-4.16926">
        <ele>63.5</ele>
        <time>2022-05-27T10:06:53Z</time>
      </trkpt>
      <trkpt lat="48.63006" lon="-4.1696">
        <ele>63.2</ele>
        <time>2022-05-27T10:06:59Z</time>
      </trkpt>
      <trkpt lat="48.63004" lon="-4.17034">
        <ele>62.8</ele>
        <time>2022-05-27T10:07:08Z</time>
      </trkpt>
      <trkpt lat="48.63007" lon="-4.17112">
        <ele>62.4</ele>
        <time>2022-05-27T10:07:16Z</time>
      </trkpt>
      <trkpt lat="48.62997" lon="-4.17184">
        <ele>62</ele>
        <time>2022-05-27T10:07:23Z</time>
      </trkpt>
      <trkpt lat="48.62978" lon="-4.17236">
        <ele>61.7</ele>
        <time>2022-05-27T10:07:28Z</time>
      </trkpt>
      <trkpt lat="48.62974" lon="-4.17247">
        <ele>61.4</ele>
        <time>2022-05-27T10:07:29Z</time>
      </trkpt>
      <trkpt lat="48.62952" lon="-4.17299">
        <ele>59.8</ele>
        <time>2022-05-27T10:07:34Z</time>
      </trkpt>
      <trkpt lat="48.62947" lon="-4.1731">
        <ele>59.5</ele>
        <time>2022-05-27T10:07:35Z</time>
      </trkpt>
      <trkpt lat="48.6292" lon="-4.17374">
        <ele>57.7</ele>
        <time>2022-05-27T10:07:41Z</time>
      </trkpt>
      <trkpt lat="48.62897" lon="-4.17427">
        <ele>56.3</ele>
        <time>2022-05-27T10:07:46Z</time>
      </trkpt>
      <trkpt lat="48.62892" lon="-4.17437">
        <ele>56.2</ele>
        <time>2022-05-27T10:07:47Z</time>
      </trkpt>
      <trkpt lat="48.62866" lon="-4.17479">
        <ele>55.7</ele>
        <time>2022-05-27T10:07:52Z</time>
      </trkpt>
      <trkpt lat="48.62861" lon="-4.17487">
        <ele>55.8</ele>
        <time>2022-05-27T10:07:53Z</time>
      </trkpt>
      <trkpt lat="48.62833" lon="-4.17512">
        <ele>56.6</ele>
        <time>2022-05-27T10:07:58Z</time>
      </trkpt>
      <trkpt lat="48.62822" lon="-4.17521">
        <ele>57.3</ele>
        <time>2022-05-27T10:08:00Z</time>
      </trkpt>
      <trkpt lat="48.62803" lon="-4.17537">
        <ele>58.6</ele>
        <time>2022-05-27T10:08:04Z</time>
      </trkpt>
      <trkpt lat="48.62779" lon="-4.17557">
        <ele>59.8</ele>
        <time>2022-05-27T10:08:09Z</time>
      </trkpt>
      <trkpt lat="48.62755" lon="-4.17597">
        <ele>61.5</ele>
        <time>2022-05-27T10:08:16Z</time>
      </trkpt>
      <trkpt lat="48.62753" lon="-4.17604">
        <ele>61.6</ele>
        <time>2022-05-27T10:08:17Z</time>
      </trkpt>
      <trkpt lat="48.62739" lon="-4.17673">
        <ele>63</ele>
        <time>2022-05-27T10:08:26Z</time>
      </trkpt>
      <trkpt lat="48.62723" lon="-4.17744">
        <ele>64.5</ele>
        <time>2022-05-27T10:08:35Z</time>
      </trkpt>
      <trkpt lat="48.62719" lon="-4.17762">
        <ele>64.7</ele>
        <time>2022-05-27T10:08:37Z</time>
      </trkpt>
      <trkpt lat="48.62708" lon="-4.17809">
        <ele>64.1</ele>
        <time>2022-05-27T10:08:42Z</time>
      </trkpt>
      <trkpt lat="48.62696" lon="-4.1786">
        <ele>63.3</ele>
        <time>2022-05-27T10:08:47Z</time>
      </trkpt>
      <trkpt lat="48.62691" lon="-4.17881">
        <ele>63</ele>
        <time>2022-05-27T10:08:49Z</time>
      </trkpt>
      <trkpt lat="48.62667" lon="-4.17949">
        <ele>62.3</ele>
        <time>2022-05-27T10:08:56Z</time>
      </trkpt>
      <trkpt lat="48.62637" lon="-4.18013">
        <ele>61.5</ele>
        <time>2022-05-27T10:09:03Z</time>
      </trkpt>
      <trkpt lat="48.62628" lon="-4.18032">
        <ele>61.3</ele>
        <time>2022-05-27T10:09:05Z</time>
      </trkpt>
      <trkpt lat="48.62606" lon="-4.18077">
        <ele>61.2</ele>
        <time>2022-05-27T10:09:10Z</time>
      </trkpt>
      <trkpt lat="48.62574" lon="-4.18137">
        <ele>60.9</ele>
        <time>2022-05-27T10:09:17Z</time>
      </trkpt>
      <trkpt lat="48.62543" lon="-4.18193">
        <ele>60.7</ele>
        <time>2022-05-27T10:09:24Z</time>
      </trkpt>
      <trkpt lat="48.62514" lon="-4.18246">
        <ele>60.5</ele>
        <time>2022-05-27T10:09:31Z</time>
      </trkpt>
      <trkpt lat="48.62487" lon="-4.18303">
        <ele>60.3</ele>
        <time>2022-05-27T10:09:37Z</time>
      </trkpt>
      <trkpt lat="48.62467" lon="-4.18347">
        <ele>60</ele>
        <time>2022-05-27T10:09:41Z</time>
      </trkpt>
      <trkpt lat="48.62457" lon="-4.1837">
        <ele>59.1</ele>
        <time>2022-05-27T10:09:43Z</time>
      </trkpt>
      <trkpt lat="48.62442" lon="-4.18422">
        <ele>57.4</ele>
        <time>2022-05-27T10:09:47Z</time>
      </trkpt>
      <trkpt lat="48.62438" lon="-4.18435">
        <ele>57.2</ele>
        <time>2022-05-27T10:09:48Z</time>
      </trkpt>
      <trkpt lat="48.62416" lon="-4.18507">
        <ele>55.9</ele>
        <time>2022-05-27T10:09:54Z</time>
      </trkpt>
      <trkpt lat="48.62398" lon="-4.18563">
        <ele>54.8</ele>
        <time>2022-05-27T10:09:59Z</time>
      </trkpt>
      <trkpt lat="48.62394" lon="-4.18574">
        <ele>54.4</ele>
        <time>2022-05-27T10:10:00Z</time>
      </trkpt>
      <trkpt lat="48.62369" lon="-4.18643">
        <ele>52.1</ele>
        <time>2022-05-27T10:10:06Z</time>
      </trkpt>
      <trkpt lat="48.62348" lon="-4.18708">
        <ele>50.2</ele>
        <time>2022-05-27T10:10:11Z</time>
      </trkpt>
      <trkpt lat="48.62327" lon="-4.18773">
        <ele>49</ele>
        <time>2022-05-27T10:10:16Z</time>
      </trkpt>
      <trkpt lat="48.62311" lon="-4.18836">
        <ele>47.9</ele>
        <time>2022-05-27T10:10:21Z</time>
      </trkpt>
      <trkpt lat="48.62306" lon="-4.18858">
        <ele>47.6</ele>
        <time>2022-05-27T10:10:23Z</time>
      </trkpt>
      <trkpt lat="48.62296" lon="-4.18903">
        <ele>48.5</ele>
        <time>2022-05-27T10:10:27Z</time>
      </trkpt>
      <trkpt lat="48.62292" lon="-4.18921">
        <ele>49</ele>
        <time>2022-05-27T10:10:29Z</time>
      </trkpt>
      <trkpt lat="48.6228" lon="-4.18966">
        <ele>50.5</ele>
        <time>2022-05-27T10:10:34Z</time>
      </trkpt>
      <trkpt lat="48.62248" lon="-4.19023">
        <ele>53</ele>
        <time>2022-05-27T10:10:42Z</time>
      </trkpt>
      <trkpt lat="48.62231" lon="-4.19051">
        <ele>54.1</ele>
        <time>2022-05-27T10:10:46Z</time>
      </trkpt>
      <trkpt lat="48.62215" lon="-4.19078">
        <ele>54.6</ele>
        <time>2022-05-27T10:10:50Z</time>
      </trkpt>
      <trkpt lat="48.62209" lon="-4.19091">
        <ele>54.8</ele>
        <time>2022-05-27T10:10:52Z</time>
      </trkpt>
      <trkpt lat="48.62185" lon="-4.19138">
        <ele>56.3</ele>
        <time>2022-05-27T10:10:59Z</time>
      </trkpt>
      <trkpt lat="48.62163" lon="-4.19206">
        <ele>58.3</ele>
        <time>2022-05-27T10:11:08Z</time>
      </trkpt>
      <trkpt lat="48.62159" lon="-4.19222">
        <ele>58.7</ele>
        <time>2022-05-27T10:11:10Z</time>
      </trkpt>
      <trkpt lat="48.62146" lon="-4.19269">
        <ele>59.2</ele>
        <time>2022-05-27T10:11:16Z</time>
      </trkpt>
      <trkpt lat="48.62129" lon="-4.19321">
        <ele>59.7</ele>
        <time>2022-05-27T10:11:22Z</time>
      </trkpt>
      <trkpt lat="48.62123" lon="-4.19339">
        <ele>59.9</ele>
        <time>2022-05-27T10:11:24Z</time>
      </trkpt>
      <trkpt lat="48.62098" lon="-4.19398">
        <ele>60.6</ele>
        <time>2022-05-27T10:11:31Z</time>
      </trkpt>
      <trkpt lat="48.62071" lon="-4.19462">
        <ele>61.4</ele>
        <time>2022-05-27T10:11:39Z</time>
      </trkpt>
      <trkpt lat="48.62042" lon="-4.19525">
        <ele>62.2</ele>
        <time>2022-05-27T10:11:47Z</time>
      </trkpt>
      <trkpt lat="48.62028" lon="-4.19563">
        <ele>62.8</ele>
        <time>2022-05-27T10:11:52Z</time>
      </trkpt>
      <trkpt lat="48.62019" lon="-4.19586">
        <ele>63.8</ele>
        <time>2022-05-27T10:11:55Z</time>
      </trkpt>
      <trkpt lat="48.62012" lon="-4.19607">
        <ele>64.8</ele>
        <time>2022-05-27T10:11:58Z</time>
      </trkpt>
      <trkpt lat="48.61997" lon="-4.19648">
        <ele>66.4</ele>
        <time>2022-05-27T10:12:04Z</time>
      </trkpt>
      <trkpt lat="48.61981" lon="-4.19688">
        <ele>68</ele>
        <time>2022-05-27T10:12:10Z</time>
      </trkpt>
      <trkpt lat="48.61974" lon="-4.19709">
        <ele>68.3</ele>
        <time>2022-05-27T10:12:13Z</time>
      </trkpt>
      <trkpt lat="48.61965" lon="-4.19732">
        <ele>68.5</ele>
        <time>2022-05-27T10:12:16Z</time>
      </trkpt>
      <trkpt lat="48.61951" lon="-4.19772">
        <ele>68.3</ele>
        <time>2022-05-27T10:12:21Z</time>
      </trkpt>
      <trkpt lat="48.61948" lon="-4.19783">
        <ele>68.2</ele>
        <time>2022-05-27T10:12:22Z</time>
      </trkpt>
      <trkpt lat="48.61935" lon="-4.19837">
        <ele>66.9</ele>
        <time>2022-05-27T10:12:27Z</time>
      </trkpt>
      <trkpt lat="48.61931" lon="-4.19848">
        <ele>66.7</ele>
        <time>2022-05-27T10:12:28Z</time>
      </trkpt>
      <trkpt lat="48.61911" lon="-4.19902">
        <ele>66</ele>
        <time>2022-05-27T10:12:33Z</time>
      </trkpt>
      <trkpt lat="48.61886" lon="-4.19964">
        <ele>65.2</ele>
        <time>2022-05-27T10:12:39Z</time>
      </trkpt>
      <trkpt lat="48.61863" lon="-4.20025">
        <ele>64.4</ele>
        <time>2022-05-27T10:12:45Z</time>
      </trkpt>
      <trkpt lat="48.6185" lon="-4.20065">
        <ele>63.8</ele>
        <time>2022-05-27T10:12:49Z</time>
      </trkpt>
      <trkpt lat="48.6184" lon="-4.20095">
        <ele>63.1</ele>
        <time>2022-05-27T10:12:52Z</time>
      </trkpt>
      <trkpt lat="48.61835" lon="-4.20115">
        <ele>62.7</ele>
        <time>2022-05-27T10:12:54Z</time>
      </trkpt>
      <trkpt lat="48.61826" lon="-4.20145">
        <ele>62.8</ele>
        <time>2022-05-27T10:12:57Z</time>
      </trkpt>
      <trkpt lat="48.61821" lon="-4.20165">
        <ele>62.9</ele>
        <time>2022-05-27T10:12:59Z</time>
      </trkpt>
      <trkpt lat="48.61817" lon="-4.20176">
        <ele>62.8</ele>
        <time>2022-05-27T10:13:00Z</time>
      </trkpt>
      <trkpt lat="48.618" lon="-4.20229">
        <ele>62.1</ele>
        <time>2022-05-27T10:13:05Z</time>
      </trkpt>
      <trkpt lat="48.6178" lon="-4.20299">
        <ele>61.1</ele>
        <time>2022-05-27T10:13:11Z</time>
      </trkpt>
      <trkpt lat="48.61777" lon="-4.2031">
        <ele>60.9</ele>
        <time>2022-05-27T10:13:12Z</time>
      </trkpt>
      <trkpt lat="48.61761" lon="-4.20368">
        <ele>59.5</ele>
        <time>2022-05-27T10:13:17Z</time>
      </trkpt>
      <trkpt lat="48.61761" lon="-4.20406">
        <ele>58.6</ele>
        <time>2022-05-27T10:13:20Z</time>
      </trkpt>
      <trkpt lat="48.61784" lon="-4.20478">
        <ele>56.9</ele>
        <time>2022-05-27T10:13:26Z</time>
      </trkpt>
      <trkpt lat="48.61803" lon="-4.20522">
        <ele>55.8</ele>
        <time>2022-05-27T10:13:30Z</time>
      </trkpt>
      <trkpt lat="48.61812" lon="-4.20545">
        <ele>55.7</ele>
        <time>2022-05-27T10:13:32Z</time>
      </trkpt>
      <trkpt lat="48.61822" lon="-4.20587">
        <ele>55.5</ele>
        <time>2022-05-27T10:13:36Z</time>
      </trkpt>
      <trkpt lat="48.61826" lon="-4.20608">
        <ele>56</ele>
        <time>2022-05-27T10:13:38Z</time>
      </trkpt>
      <trkpt lat="48.61825" lon="-4.20645">
        <ele>57.1</ele>
        <time>2022-05-27T10:13:42Z</time>
      </trkpt>
      <trkpt lat="48.61823" lon="-4.20681">
        <ele>58.6</ele>
        <time>2022-05-27T10:13:46Z</time>
      </trkpt>
      <trkpt lat="48.6182" lon="-4.20699">
        <ele>59.2</ele>
        <time>2022-05-27T10:13:48Z</time>
      </trkpt>
      <trkpt lat="48.61812" lon="-4.20751">
        <ele>60</ele>
        <time>2022-05-27T10:13:54Z</time>
      </trkpt>
      <trkpt lat="48.61804" lon="-4.2081">
        <ele>60.6</ele>
        <time>2022-05-27T10:14:00Z</time>
      </trkpt>
      <trkpt lat="48.61803" lon="-4.2082">
        <ele>60.4</ele>
        <time>2022-05-27T10:14:01Z</time>
      </trkpt>
      <trkpt lat="48.61792" lon="-4.20896">
        <ele>59.1</ele>
        <time>2022-05-27T10:14:08Z</time>
      </trkpt>
      <trkpt lat="48.61781" lon="-4.20941">
        <ele>58.4</ele>
        <time>2022-05-27T10:14:12Z</time>
      </trkpt>
      <trkpt lat="48.61776" lon="-4.20963">
        <ele>58.5</ele>
        <time>2022-05-27T10:14:14Z</time>
      </trkpt>
      <trkpt lat="48.61766" lon="-4.21004">
        <ele>58.7</ele>
        <time>2022-05-27T10:14:18Z</time>
      </trkpt>
      <trkpt lat="48.61758" lon="-4.21034">
        <ele>59.2</ele>
        <time>2022-05-27T10:14:21Z</time>
      </trkpt>
      <trkpt lat="48.61742" lon="-4.21105">
        <ele>60.5</ele>
        <time>2022-05-27T10:14:29Z</time>
      </trkpt>
      <trkpt lat="48.6174" lon="-4.21113">
        <ele>60.7</ele>
        <time>2022-05-27T10:14:30Z</time>
      </trkpt>
      <trkpt lat="48.61728" lon="-4.21176">
        <ele>62</ele>
        <time>2022-05-27T10:14:38Z</time>
      </trkpt>
      <trkpt lat="48.61727" lon="-4.21187">
        <ele>62.3</ele>
        <time>2022-05-27T10:14:40Z</time>
      </trkpt>
      <trkpt lat="48.61729" lon="-4.21192">
        <ele>62.8</ele>
        <time>2022-05-27T10:14:43Z</time>
      </trkpt>
      <trkpt lat="48.61719" lon="-4.2121">
        <ele>63.4</ele>
        <time>2022-05-27T10:14:47Z</time>
      </trkpt>
      <trkpt lat="48.61699" lon="-4.21246">
        <ele>63.2</ele>
        <time>2022-05-27T10:14:55Z</time>
      </trkpt>
      <trkpt lat="48.61669" lon="-4.21297">
        <ele>63.1</ele>
        <time>2022-05-27T10:15:03Z</time>
      </trkpt>
      <trkpt lat="48.61651" lon="-4.21368">
        <ele>62.9</ele>
        <time>2022-05-27T10:15:11Z</time>
      </trkpt>
      <trkpt lat="48.61624" lon="-4.21433">
        <ele>62.7</ele>
        <time>2022-05-27T10:15:19Z</time>
      </trkpt>
      <trkpt lat="48.61607" lon="-4.21503">
        <ele>62.6</ele>
        <time>2022-05-27T10:15:27Z</time>
      </trkpt>
      <trkpt lat="48.61594" lon="-4.21542">
        <ele>62.5</ele>
        <time>2022-05-27T10:15:32Z</time>
      </trkpt>
      <trkpt lat="48.6158" lon="-4.21559">
        <ele>62.4</ele>
        <time>2022-05-27T10:15:35Z</time>
      </trkpt>
      <trkpt lat="48.61531" lon="-4.21571">
        <ele>62.3</ele>
        <time>2022-05-27T10:15:42Z</time>
      </trkpt>
      <trkpt lat="48.61486" lon="-4.21584">
        <ele>62.1</ele>
        <time>2022-05-27T10:15:48Z</time>
      </trkpt>
      <trkpt lat="48.61462" lon="-4.21592">
        <ele>62.1</ele>
        <time>2022-05-27T10:15:51Z</time>
      </trkpt>
      <trkpt lat="48.61439" lon="-4.216">
        <ele>61.9</ele>
        <time>2022-05-27T10:15:54Z</time>
      </trkpt>
      <trkpt lat="48.6141" lon="-4.21605">
        <ele>61.7</ele>
        <time>2022-05-27T10:15:58Z</time>
      </trkpt>
      <trkpt lat="48.61379" lon="-4.21596">
        <ele>61.5</ele>
        <time>2022-05-27T10:16:03Z</time>
      </trkpt>
      <trkpt lat="48.6136" lon="-4.21591">
        <ele>61.8</ele>
        <time>2022-05-27T10:16:06Z</time>
      </trkpt>
      <trkpt lat="48.61311" lon="-4.21594">
        <ele>62.4</ele>
        <time>2022-05-27T10:16:13Z</time>
      </trkpt>
      <trkpt lat="48.61264" lon="-4.21608">
        <ele>63.1</ele>
        <time>2022-05-27T10:16:20Z</time>
      </trkpt>
      <trkpt lat="48.61227" lon="-4.21627">
        <ele>63.6</ele>
        <time>2022-05-27T10:16:26Z</time>
      </trkpt>
      <trkpt lat="48.61223" lon="-4.21634">
        <ele>63.7</ele>
        <time>2022-05-27T10:16:27Z</time>
      </trkpt>
      <trkpt lat="48.612" lon="-4.21671">
        <ele>64.1</ele>
        <time>2022-05-27T10:16:32Z</time>
      </trkpt>
      <trkpt lat="48.61181" lon="-4.21736">
        <ele>64.7</ele>
        <time>2022-05-27T10:16:39Z</time>
      </trkpt>
      <trkpt lat="48.61166" lon="-4.21805">
        <ele>64.6</ele>
        <time>2022-05-27T10:16:46Z</time>
      </trkpt>
      <trkpt lat="48.61153" lon="-4.21874">
        <ele>64.5</ele>
        <time>2022-05-27T10:16:53Z</time>
      </trkpt>
      <trkpt lat="48.61143" lon="-4.21945">
        <ele>64.4</ele>
        <time>2022-05-27T10:17:00Z</time>
      </trkpt>
      <trkpt lat="48.61136" lon="-4.21983">
        <ele>64.4</ele>
        <time>2022-05-27T10:17:04Z</time>
      </trkpt>
      <trkpt lat="48.61115" lon="-4.22047">
        <ele>64.3</ele>
        <time>2022-05-27T10:17:11Z</time>
      </trkpt>
      <trkpt lat="48.61101" lon="-4.2212">
        <ele>64.2</ele>
        <time>2022-05-27T10:17:19Z</time>
      </trkpt>
      <trkpt lat="48.61089" lon="-4.22196">
        <ele>64.1</ele>
        <time>2022-05-27T10:17:27Z</time>
      </trkpt>
      <trkpt lat="48.61089" lon="-4.22267">
        <ele>64.1</ele>
        <time>2022-05-27T10:17:33Z</time>
      </trkpt>
      <trkpt lat="48.61088" lon="-4.22306">
        <ele>64</ele>
        <time>2022-05-27T10:17:36Z</time>
      </trkpt>
      <trkpt lat="48.61089" lon="-4.22319">
        <ele>63.9</ele>
        <time>2022-05-27T10:17:37Z</time>
      </trkpt>
      <trkpt lat="48.61091" lon="-4.22384">
        <ele>61.7</ele>
        <time>2022-05-27T10:17:42Z</time>
      </trkpt>
      <trkpt lat="48.6109" lon="-4.22399">
        <ele>61.3</ele>
        <time>2022-05-27T10:17:43Z</time>
      </trkpt>
      <trkpt lat="48.61085" lon="-4.22456">
        <ele>59.7</ele>
        <time>2022-05-27T10:17:47Z</time>
      </trkpt>
      <trkpt lat="48.61074" lon="-4.22522">
        <ele>58.1</ele>
        <time>2022-05-27T10:17:51Z</time>
      </trkpt>
      <trkpt lat="48.61068" lon="-4.22552">
        <ele>57.3</ele>
        <time>2022-05-27T10:17:53Z</time>
      </trkpt>
      <trkpt lat="48.61067" lon="-4.22568">
        <ele>56.9</ele>
        <time>2022-05-27T10:17:54Z</time>
      </trkpt>
      <trkpt lat="48.61065" lon="-4.22583">
        <ele>56.5</ele>
        <time>2022-05-27T10:17:55Z</time>
      </trkpt>
      <trkpt lat="48.61056" lon="-4.22642">
        <ele>55.2</ele>
        <time>2022-05-27T10:17:59Z</time>
      </trkpt>
      <trkpt lat="48.61046" lon="-4.22715">
        <ele>53.2</ele>
        <time>2022-05-27T10:18:05Z</time>
      </trkpt>
      <trkpt lat="48.6104" lon="-4.22739">
        <ele>52.6</ele>
        <time>2022-05-27T10:18:07Z</time>
      </trkpt>
      <trkpt lat="48.6103" lon="-4.22774">
        <ele>52.3</ele>
        <time>2022-05-27T10:18:10Z</time>
      </trkpt>
      <trkpt lat="48.61019" lon="-4.22796">
        <ele>52</ele>
        <time>2022-05-27T10:18:12Z</time>
      </trkpt>
      <trkpt lat="48.61016" lon="-4.22807">
        <ele>51.9</ele>
        <time>2022-05-27T10:18:13Z</time>
      </trkpt>
      <trkpt lat="48.61008" lon="-4.2283">
        <ele>51.7</ele>
        <time>2022-05-27T10:18:15Z</time>
      </trkpt>
      <trkpt lat="48.60985" lon="-4.22877">
        <ele>51.4</ele>
        <time>2022-05-27T10:18:19Z</time>
      </trkpt>
      <trkpt lat="48.6098" lon="-4.22888">
        <ele>51.6</ele>
        <time>2022-05-27T10:18:20Z</time>
      </trkpt>
      <trkpt lat="48.60947" lon="-4.22947">
        <ele>52.6</ele>
        <time>2022-05-27T10:18:26Z</time>
      </trkpt>
      <trkpt lat="48.60913" lon="-4.22993">
        <ele>53.6</ele>
        <time>2022-05-27T10:18:32Z</time>
      </trkpt>
      <trkpt lat="48.60889" lon="-4.23031">
        <ele>54.4</ele>
        <time>2022-05-27T10:18:37Z</time>
      </trkpt>
      <trkpt lat="48.6088" lon="-4.23047">
        <ele>54.8</ele>
        <time>2022-05-27T10:18:39Z</time>
      </trkpt>
      <trkpt lat="48.60857" lon="-4.23108">
        <ele>56.3</ele>
        <time>2022-05-27T10:18:46Z</time>
      </trkpt>
      <trkpt lat="48.60833" lon="-4.23173">
        <ele>58</ele>
        <time>2022-05-27T10:18:54Z</time>
      </trkpt>
      <trkpt lat="48.6083" lon="-4.23181">
        <ele>58.2</ele>
        <time>2022-05-27T10:18:55Z</time>
      </trkpt>
      <trkpt lat="48.6081" lon="-4.23235">
        <ele>60</ele>
        <time>2022-05-27T10:19:02Z</time>
      </trkpt>
      <trkpt lat="48.60802" lon="-4.23269">
        <ele>60.9</ele>
        <time>2022-05-27T10:19:06Z</time>
      </trkpt>
      <trkpt lat="48.60795" lon="-4.23303">
        <ele>61.3</ele>
        <time>2022-05-27T10:19:10Z</time>
      </trkpt>
      <trkpt lat="48.60787" lon="-4.23378">
        <ele>62</ele>
        <time>2022-05-27T10:19:18Z</time>
      </trkpt>
      <trkpt lat="48.60779" lon="-4.2345">
        <ele>63</ele>
        <time>2022-05-27T10:19:26Z</time>
      </trkpt>
      <trkpt lat="48.60765" lon="-4.23518">
        <ele>64</ele>
        <time>2022-05-27T10:19:34Z</time>
      </trkpt>
      <trkpt lat="48.60751" lon="-4.23586">
        <ele>65</ele>
        <time>2022-05-27T10:19:42Z</time>
      </trkpt>
      <trkpt lat="48.60738" lon="-4.23658">
        <ele>66</ele>
        <time>2022-05-27T10:19:50Z</time>
      </trkpt>
      <trkpt lat="48.60732" lon="-4.23686">
        <ele>66.4</ele>
        <time>2022-05-27T10:19:54Z</time>
      </trkpt>
      <trkpt lat="48.60727" lon="-4.23705">
        <ele>66.5</ele>
        <time>2022-05-27T10:19:57Z</time>
      </trkpt>
      <trkpt lat="48.60724" lon="-4.23707">
        <ele>66.5</ele>
        <time>2022-05-27T10:19:58Z</time>
      </trkpt>
      <trkpt lat="48.6068" lon="-4.23703">
        <ele>66.7</ele>
        <time>2022-05-27T10:20:07Z</time>
      </trkpt>
      <trkpt lat="48.60632" lon="-4.23724">
        <ele>66.9</ele>
        <time>2022-05-27T10:20:15Z</time>
      </trkpt>
      <trkpt lat="48.60582" lon="-4.23739">
        <ele>67.1</ele>
        <time>2022-05-27T10:20:23Z</time>
      </trkpt>
      <trkpt lat="48.6057" lon="-4.23747">
        <ele>67.2</ele>
        <time>2022-05-27T10:20:25Z</time>
      </trkpt>
      <trkpt lat="48.60566" lon="-4.23752">
        <ele>67.2</ele>
        <time>2022-05-27T10:20:26Z</time>
      </trkpt>
      <trkpt lat="48.60562" lon="-4.23755">
        <ele>67.2</ele>
        <time>2022-05-27T10:20:27Z</time>
      </trkpt>
      <trkpt lat="48.60543" lon="-4.2382">
        <ele>67.4</ele>
        <time>2022-05-27T10:20:34Z</time>
      </trkpt>
      <trkpt lat="48.60537" lon="-4.23836">
        <ele>67.5</ele>
        <time>2022-05-27T10:20:36Z</time>
      </trkpt>
      <trkpt lat="48.60523" lon="-4.23874">
        <ele>68.3</ele>
        <time>2022-05-27T10:20:41Z</time>
      </trkpt>
      <trkpt lat="48.60482" lon="-4.23903">
        <ele>69.6</ele>
        <time>2022-05-27T10:20:49Z</time>
      </trkpt>
      <trkpt lat="48.60435" lon="-4.23928">
        <ele>71</ele>
        <time>2022-05-27T10:20:58Z</time>
      </trkpt>
      <trkpt lat="48.60425" lon="-4.23935">
        <ele>71.4</ele>
        <time>2022-05-27T10:21:00Z</time>
      </trkpt>
      <trkpt lat="48.60395" lon="-4.23955">
        <ele>72.7</ele>
        <time>2022-05-27T10:21:06Z</time>
      </trkpt>
      <trkpt lat="48.60388" lon="-4.23976">
        <ele>73.3</ele>
        <time>2022-05-27T10:21:09Z</time>
      </trkpt>
      <trkpt lat="48.60389" lon="-4.24026">
        <ele>74.5</ele>
        <time>2022-05-27T10:21:15Z</time>
      </trkpt>
      <trkpt lat="48.6039" lon="-4.24051">
        <ele>74.3</ele>
        <time>2022-05-27T10:21:18Z</time>
      </trkpt>
      <trkpt lat="48.60391" lon="-4.2408">
        <ele>74.1</ele>
        <time>2022-05-27T10:21:21Z</time>
      </trkpt>
      <trkpt lat="48.60392" lon="-4.24128">
        <ele>73.2</ele>
        <time>2022-05-27T10:21:26Z</time>
      </trkpt>
      <trkpt lat="48.60395" lon="-4.24202">
        <ele>72</ele>
        <time>2022-05-27T10:21:33Z</time>
      </trkpt>
      <trkpt lat="48.60395" lon="-4.24271">
        <ele>70.9</ele>
        <time>2022-05-27T10:21:39Z</time>
      </trkpt>
      <trkpt lat="48.60389" lon="-4.24345">
        <ele>68.5</ele>
        <time>2022-05-27T10:21:45Z</time>
      </trkpt>
      <trkpt lat="48.6038" lon="-4.24422">
        <ele>66.9</ele>
        <time>2022-05-27T10:21:51Z</time>
      </trkpt>
      <trkpt lat="48.60372" lon="-4.2449">
        <ele>65.5</ele>
        <time>2022-05-27T10:21:56Z</time>
      </trkpt>
      <trkpt lat="48.6037" lon="-4.24505">
        <ele>65.1</ele>
        <time>2022-05-27T10:21:57Z</time>
      </trkpt>
      <trkpt lat="48.60362" lon="-4.24563">
        <ele>63</ele>
        <time>2022-05-27T10:22:01Z</time>
      </trkpt>
      <trkpt lat="48.60354" lon="-4.24591">
        <ele>62</ele>
        <time>2022-05-27T10:22:03Z</time>
      </trkpt>
      <trkpt lat="48.60342" lon="-4.24632">
        <ele>61.8</ele>
        <time>2022-05-27T10:22:06Z</time>
      </trkpt>
      <trkpt lat="48.60328" lon="-4.24706">
        <ele>61.2</ele>
        <time>2022-05-27T10:22:12Z</time>
      </trkpt>
      <trkpt lat="48.60328" lon="-4.2473">
        <ele>61</ele>
        <time>2022-05-27T10:22:14Z</time>
      </trkpt>
      <trkpt lat="48.60326" lon="-4.24778">
        <ele>60.5</ele>
        <time>2022-05-27T10:22:18Z</time>
      </trkpt>
      <trkpt lat="48.60323" lon="-4.24852">
        <ele>59.7</ele>
        <time>2022-05-27T10:22:24Z</time>
      </trkpt>
      <trkpt lat="48.60326" lon="-4.2493">
        <ele>58.9</ele>
        <time>2022-05-27T10:22:30Z</time>
      </trkpt>
      <trkpt lat="48.60326" lon="-4.24954">
        <ele>58.7</ele>
        <time>2022-05-27T10:22:32Z</time>
      </trkpt>
      <trkpt lat="48.60324" lon="-4.24966">
        <ele>58.8</ele>
        <time>2022-05-27T10:22:33Z</time>
      </trkpt>
      <trkpt lat="48.60293" lon="-4.25018">
        <ele>59.3</ele>
        <time>2022-05-27T10:22:39Z</time>
      </trkpt>
      <trkpt lat="48.60272" lon="-4.2506">
        <ele>59.8</ele>
        <time>2022-05-27T10:22:44Z</time>
      </trkpt>
      <trkpt lat="48.60269" lon="-4.25069">
        <ele>60</ele>
        <time>2022-05-27T10:22:45Z</time>
      </trkpt>
      <trkpt lat="48.6026" lon="-4.25144">
        <ele>61.3</ele>
        <time>2022-05-27T10:22:53Z</time>
      </trkpt>
      <trkpt lat="48.60248" lon="-4.25176">
        <ele>61.9</ele>
        <time>2022-05-27T10:22:57Z</time>
      </trkpt>
      <trkpt lat="48.60214" lon="-4.25225">
        <ele>63.2</ele>
        <time>2022-05-27T10:23:05Z</time>
      </trkpt>
      <trkpt lat="48.602" lon="-4.25246">
        <ele>63.6</ele>
        <time>2022-05-27T10:23:08Z</time>
      </trkpt>
      <trkpt lat="48.60181" lon="-4.25274">
        <ele>63.4</ele>
        <time>2022-05-27T10:23:12Z</time>
      </trkpt>
      <trkpt lat="48.60178" lon="-4.25284">
        <ele>63.4</ele>
        <time>2022-05-27T10:23:13Z</time>
      </trkpt>
      <trkpt lat="48.60161" lon="-4.25342">
        <ele>62.6</ele>
        <time>2022-05-27T10:23:19Z</time>
      </trkpt>
      <trkpt lat="48.60141" lon="-4.25413">
        <ele>61.6</ele>
        <time>2022-05-27T10:23:26Z</time>
      </trkpt>
      <trkpt lat="48.6013" lon="-4.25446">
        <ele>61.1</ele>
        <time>2022-05-27T10:23:29Z</time>
      </trkpt>
      <trkpt lat="48.60125" lon="-4.25457">
        <ele>60.5</ele>
        <time>2022-05-27T10:23:30Z</time>
      </trkpt>
      <trkpt lat="48.60102" lon="-4.25513">
        <ele>57.5</ele>
        <time>2022-05-27T10:23:35Z</time>
      </trkpt>
      <trkpt lat="48.60098" lon="-4.25524">
        <ele>56.9</ele>
        <time>2022-05-27T10:23:36Z</time>
      </trkpt>
      <trkpt lat="48.60067" lon="-4.25586">
        <ele>53.9</ele>
        <time>2022-05-27T10:23:41Z</time>
      </trkpt>
      <trkpt lat="48.60038" lon="-4.25645">
        <ele>50</ele>
        <time>2022-05-27T10:23:45Z</time>
      </trkpt>
      <trkpt lat="48.60024" lon="-4.25675">
        <ele>48.1</ele>
        <time>2022-05-27T10:23:47Z</time>
      </trkpt>
      <trkpt lat="48.60011" lon="-4.25706">
        <ele>45.7</ele>
        <time>2022-05-27T10:23:49Z</time>
      </trkpt>
      <trkpt lat="48.59995" lon="-4.25758">
        <ele>42.1</ele>
        <time>2022-05-27T10:23:52Z</time>
      </trkpt>
      <trkpt lat="48.59992" lon="-4.25773">
        <ele>41.3</ele>
        <time>2022-05-27T10:23:53Z</time>
      </trkpt>
      <trkpt lat="48.59989" lon="-4.25788">
        <ele>41.6</ele>
        <time>2022-05-27T10:23:54Z</time>
      </trkpt>
      <trkpt lat="48.59983" lon="-4.25801">
        <ele>41.8</ele>
        <time>2022-05-27T10:23:55Z</time>
      </trkpt>
      <trkpt lat="48.5997" lon="-4.25816">
        <ele>42.3</ele>
        <time>2022-05-27T10:23:57Z</time>
      </trkpt>
      <trkpt lat="48.59931" lon="-4.2585">
        <ele>43.7</ele>
        <time>2022-05-27T10:24:03Z</time>
      </trkpt>
      <trkpt lat="48.5992" lon="-4.25859">
        <ele>44.2</ele>
        <time>2022-05-27T10:24:05Z</time>
      </trkpt>
      <trkpt lat="48.59891" lon="-4.25881">
        <ele>45.6</ele>
        <time>2022-05-27T10:24:10Z</time>
      </trkpt>
      <trkpt lat="48.59857" lon="-4.25919">
        <ele>47.4</ele>
        <time>2022-05-27T10:24:17Z</time>
      </trkpt>
      <trkpt lat="48.59852" lon="-4.25924">
        <ele>47.7</ele>
        <time>2022-05-27T10:24:18Z</time>
      </trkpt>
      <trkpt lat="48.5983" lon="-4.25945">
        <ele>49.2</ele>
        <time>2022-05-27T10:24:23Z</time>
      </trkpt>
      <trkpt lat="48.59812" lon="-4.25961">
        <ele>49.6</ele>
        <time>2022-05-27T10:24:27Z</time>
      </trkpt>
      <trkpt lat="48.59801" lon="-4.2597">
        <ele>49.8</ele>
        <time>2022-05-27T10:24:29Z</time>
      </trkpt>
      <trkpt lat="48.59774" lon="-4.25992">
        <ele>48.5</ele>
        <time>2022-05-27T10:24:34Z</time>
      </trkpt>
      <trkpt lat="48.5977" lon="-4.25998">
        <ele>48.2</ele>
        <time>2022-05-27T10:24:35Z</time>
      </trkpt>
      <trkpt lat="48.59768" lon="-4.26003">
        <ele>47.8</ele>
        <time>2022-05-27T10:24:36Z</time>
      </trkpt>
      <trkpt lat="48.59778" lon="-4.26044">
        <ele>46.8</ele>
        <time>2022-05-27T10:24:39Z</time>
      </trkpt>
      <trkpt lat="48.59785" lon="-4.26063">
        <ele>46.2</ele>
        <time>2022-05-27T10:24:41Z</time>
      </trkpt>
      <trkpt lat="48.59803" lon="-4.2611">
        <ele>45.7</ele>
        <time>2022-05-27T10:24:46Z</time>
      </trkpt>
      <trkpt lat="48.59837" lon="-4.26166">
        <ele>45.1</ele>
        <time>2022-05-27T10:24:53Z</time>
      </trkpt>
      <trkpt lat="48.59852" lon="-4.26201">
        <ele>44.9</ele>
        <time>2022-05-27T10:24:58Z</time>
      </trkpt>
      <trkpt lat="48.59858" lon="-4.26244">
        <ele>44.7</ele>
        <time>2022-05-27T10:25:03Z</time>
      </trkpt>
      <trkpt lat="48.59855" lon="-4.26318">
        <ele>44.4</ele>
        <time>2022-05-27T10:25:11Z</time>
      </trkpt>
      <trkpt lat="48.59855" lon="-4.26397">
        <ele>44.1</ele>
        <time>2022-05-27T10:25:18Z</time>
      </trkpt>
      <trkpt lat="48.59853" lon="-4.26444">
        <ele>43.9</ele>
        <time>2022-05-27T10:25:22Z</time>
      </trkpt>
      <trkpt lat="48.59853" lon="-4.26468">
        <ele>43.1</ele>
        <time>2022-05-27T10:25:24Z</time>
      </trkpt>
      <trkpt lat="48.59854" lon="-4.2652">
        <ele>41.7</ele>
        <time>2022-05-27T10:25:28Z</time>
      </trkpt>
      <trkpt lat="48.5986" lon="-4.26583">
        <ele>40.7</ele>
        <time>2022-05-27T10:25:33Z</time>
      </trkpt>
      <trkpt lat="48.59856" lon="-4.26607">
        <ele>40.3</ele>
        <time>2022-05-27T10:25:35Z</time>
      </trkpt>
      <trkpt lat="48.59838" lon="-4.26657">
        <ele>39.3</ele>
        <time>2022-05-27T10:25:40Z</time>
      </trkpt>
      <trkpt lat="48.59835" lon="-4.26668">
        <ele>38.8</ele>
        <time>2022-05-27T10:25:41Z</time>
      </trkpt>
      <trkpt lat="48.59826" lon="-4.26719">
        <ele>37.1</ele>
        <time>2022-05-27T10:25:45Z</time>
      </trkpt>
      <trkpt lat="48.59822" lon="-4.26791">
        <ele>34.9</ele>
        <time>2022-05-27T10:25:50Z</time>
      </trkpt>
      <trkpt lat="48.59821" lon="-4.2682">
        <ele>33.8</ele>
        <time>2022-05-27T10:25:52Z</time>
      </trkpt>
      <trkpt lat="48.59818" lon="-4.26863">
        <ele>30.8</ele>
        <time>2022-05-27T10:25:55Z</time>
      </trkpt>
      <trkpt lat="48.59816" lon="-4.26908">
        <ele>27.7</ele>
        <time>2022-05-27T10:25:58Z</time>
      </trkpt>
      <trkpt lat="48.59814" lon="-4.26938">
        <ele>25.8</ele>
        <time>2022-05-27T10:26:00Z</time>
      </trkpt>
      <trkpt lat="48.59806" lon="-4.27005">
        <ele>22</ele>
        <time>2022-05-27T10:26:04Z</time>
      </trkpt>
      <trkpt lat="48.59803" lon="-4.27021">
        <ele>21.2</ele>
        <time>2022-05-27T10:26:05Z</time>
      </trkpt>
      <trkpt lat="48.59787" lon="-4.27091">
        <ele>17.6</ele>
        <time>2022-05-27T10:26:09Z</time>
      </trkpt>
      <trkpt lat="48.59784" lon="-4.27107">
        <ele>16.8</ele>
        <time>2022-05-27T10:26:10Z</time>
      </trkpt>
      <trkpt lat="48.59774" lon="-4.27157">
        <ele>15.2</ele>
        <time>2022-05-27T10:26:13Z</time>
      </trkpt>
      <trkpt lat="48.59771" lon="-4.27201">
        <ele>13.7</ele>
        <time>2022-05-27T10:26:16Z</time>
      </trkpt>
      <trkpt lat="48.59769" lon="-4.2723">
        <ele>13.3</ele>
        <time>2022-05-27T10:26:18Z</time>
      </trkpt>
      <trkpt lat="48.59767" lon="-4.27268">
        <ele>12.7</ele>
        <time>2022-05-27T10:26:21Z</time>
      </trkpt>
      <trkpt lat="48.5977" lon="-4.27321">
        <ele>11.9</ele>
        <time>2022-05-27T10:26:25Z</time>
      </trkpt>
      <trkpt lat="48.59777" lon="-4.27342">
        <ele>11.6</ele>
        <time>2022-05-27T10:26:27Z</time>
      </trkpt>
      <trkpt lat="48.59783" lon="-4.27348">
        <ele>11.3</ele>
        <time>2022-05-27T10:26:28Z</time>
      </trkpt>
      <trkpt lat="48.59793" lon="-4.2736">
        <ele>10.2</ele>
        <time>2022-05-27T10:26:30Z</time>
      </trkpt>
      <trkpt lat="48.59807" lon="-4.27371">
        <ele>8.1</ele>
        <time>2022-05-27T10:26:34Z</time>
      </trkpt>
      <trkpt lat="48.59813" lon="-4.27377">
        <ele>7.8</ele>
        <time>2022-05-27T10:26:36Z</time>
      </trkpt>
      <trkpt lat="48.59812" lon="-4.27385">
        <ele>7.4</ele>
        <time>2022-05-27T10:26:38Z</time>
      </trkpt>
      <trkpt lat="48.59778" lon="-4.27428">
        <ele>6.2</ele>
        <time>2022-05-27T10:26:45Z</time>
      </trkpt>
      <trkpt lat="48.59771" lon="-4.27433">
        <ele>6</ele>
        <time>2022-05-27T10:26:46Z</time>
      </trkpt>
      <trkpt lat="48.59757" lon="-4.27441">
        <ele>5.9</ele>
        <time>2022-05-27T10:26:48Z</time>
      </trkpt>
      <trkpt lat="48.59719" lon="-4.27447">
        <ele>5.6</ele>
        <time>2022-05-27T10:26:53Z</time>
      </trkpt>
      <trkpt lat="48.59696" lon="-4.2745">
        <ele>5.4</ele>
        <time>2022-05-27T10:26:56Z</time>
      </trkpt>
      <trkpt lat="48.59677" lon="-4.27467">
        <ele>5.2</ele>
        <time>2022-05-27T10:26:59Z</time>
      </trkpt>
      <trkpt lat="48.59674" lon="-4.27475">
        <ele>5.1</ele>
        <time>2022-05-27T10:27:00Z</time>
      </trkpt>
      <trkpt lat="48.59663" lon="-4.27507">
        <ele>4.9</ele>
        <time>2022-05-27T10:27:04Z</time>
      </trkpt>
      <trkpt lat="48.59652" lon="-4.27538">
        <ele>6.1</ele>
        <time>2022-05-27T10:27:08Z</time>
      </trkpt>
      <trkpt lat="48.59646" lon="-4.27551">
        <ele>6.6</ele>
        <time>2022-05-27T10:27:10Z</time>
      </trkpt>
      <trkpt lat="48.5963" lon="-4.2759">
        <ele>8.1</ele>
        <time>2022-05-27T10:27:16Z</time>
      </trkpt>
      <trkpt lat="48.59627" lon="-4.27596">
        <ele>8.3</ele>
        <time>2022-05-27T10:27:17Z</time>
      </trkpt>
      <trkpt lat="48.59614" lon="-4.27616">
        <ele>9.3</ele>
        <time>2022-05-27T10:27:21Z</time>
      </trkpt>
      <trkpt lat="48.59611" lon="-4.27621">
        <ele>9.5</ele>
        <time>2022-05-27T10:27:22Z</time>
      </trkpt>
      <trkpt lat="48.59581" lon="-4.2766">
        <ele>11.3</ele>
        <time>2022-05-27T10:27:31Z</time>
      </trkpt>
      <trkpt lat="48.59566" lon="-4.2768">
        <ele>12.3</ele>
        <time>2022-05-27T10:27:36Z</time>
      </trkpt>
      <trkpt lat="48.59562" lon="-4.27683">
        <ele>12.5</ele>
        <time>2022-05-27T10:27:37Z</time>
      </trkpt>
      <trkpt lat="48.59559" lon="-4.27687">
        <ele>12.7</ele>
        <time>2022-05-27T10:27:38Z</time>
      </trkpt>
      <trkpt lat="48.59533" lon="-4.27722">
        <ele>14.5</ele>
        <time>2022-05-27T10:27:47Z</time>
      </trkpt>
      <trkpt lat="48.59511" lon="-4.27758">
        <ele>16.3</ele>
        <time>2022-05-27T10:27:56Z</time>
      </trkpt>
      <trkpt lat="48.59502" lon="-4.27775">
        <ele>17.4</ele>
        <time>2022-05-27T10:28:00Z</time>
      </trkpt>
      <trkpt lat="48.59497" lon="-4.27783">
        <ele>18</ele>
        <time>2022-05-27T10:28:02Z</time>
      </trkpt>
      <trkpt lat="48.59484" lon="-4.27806">
        <ele>19.3</ele>
        <time>2022-05-27T10:28:08Z</time>
      </trkpt>
      <trkpt lat="48.59471" lon="-4.27829">
        <ele>20.7</ele>
        <time>2022-05-27T10:28:14Z</time>
      </trkpt>
      <trkpt lat="48.59444" lon="-4.27875">
        <ele>23.4</ele>
        <time>2022-05-27T10:28:26Z</time>
      </trkpt>
      <trkpt lat="48.59439" lon="-4.27883">
        <ele>23.9</ele>
        <time>2022-05-27T10:28:28Z</time>
      </trkpt>
      <trkpt lat="48.59405" lon="-4.27936">
        <ele>26.7</ele>
        <time>2022-05-27T10:28:41Z</time>
      </trkpt>
      <trkpt lat="48.59393" lon="-4.27947">
        <ele>27.3</ele>
        <time>2022-05-27T10:28:44Z</time>
      </trkpt>
      <trkpt lat="48.59364" lon="-4.27975">
        <ele>27.6</ele>
        <time>2022-05-27T10:28:51Z</time>
      </trkpt>
      <trkpt lat="48.5935" lon="-4.27993">
        <ele>27.8</ele>
        <time>2022-05-27T10:28:54Z</time>
      </trkpt>
      <trkpt lat="48.59343" lon="-4.28008">
        <ele>27.9</ele>
        <time>2022-05-27T10:28:56Z</time>
      </trkpt>
      <trkpt lat="48.5934" lon="-4.28016">
        <ele>27.9</ele>
        <time>2022-05-27T10:28:57Z</time>
      </trkpt>
      <trkpt lat="48.59322" lon="-4.28056">
        <ele>28.4</ele>
        <time>2022-05-27T10:29:02Z</time>
      </trkpt>
      <trkpt lat="48.59291" lon="-4.28116">
        <ele>29.1</ele>
        <time>2022-05-27T10:29:10Z</time>
      </trkpt>
      <trkpt lat="48.59259" lon="-4.2817">
        <ele>29.8</ele>
        <time>2022-05-27T10:29:18Z</time>
      </trkpt>
      <trkpt lat="48.59232" lon="-4.28212">
        <ele>30.4</ele>
        <time>2022-05-27T10:29:25Z</time>
      </trkpt>
      <trkpt lat="48.59225" lon="-4.28224">
        <ele>30.8</ele>
        <time>2022-05-27T10:29:27Z</time>
      </trkpt>
      <trkpt lat="48.59193" lon="-4.28277">
        <ele>32.8</ele>
        <time>2022-05-27T10:29:36Z</time>
      </trkpt>
      <trkpt lat="48.59178" lon="-4.283">
        <ele>33.6</ele>
        <time>2022-05-27T10:29:40Z</time>
      </trkpt>
      <trkpt lat="48.59171" lon="-4.28312">
        <ele>33.9</ele>
        <time>2022-05-27T10:29:42Z</time>
      </trkpt>
      <trkpt lat="48.5914" lon="-4.28366">
        <ele>35</ele>
        <time>2022-05-27T10:29:51Z</time>
      </trkpt>
      <trkpt lat="48.59121" lon="-4.28406">
        <ele>35.8</ele>
        <time>2022-05-27T10:29:57Z</time>
      </trkpt>
      <trkpt lat="48.59111" lon="-4.28425">
        <ele>36.2</ele>
        <time>2022-05-27T10:30:00Z</time>
      </trkpt>
      <trkpt lat="48.59102" lon="-4.28445">
        <ele>36.6</ele>
        <time>2022-05-27T10:30:03Z</time>
      </trkpt>
      <trkpt lat="48.59098" lon="-4.28451">
        <ele>36.7</ele>
        <time>2022-05-27T10:30:04Z</time>
      </trkpt>
      <trkpt lat="48.5909" lon="-4.28464">
        <ele>36.9</ele>
        <time>2022-05-27T10:30:06Z</time>
      </trkpt>
      <trkpt lat="48.59082" lon="-4.28474">
        <ele>37.2</ele>
        <time>2022-05-27T10:30:08Z</time>
      </trkpt>
      <trkpt lat="48.59079" lon="-4.28481">
        <ele>37.3</ele>
        <time>2022-05-27T10:30:09Z</time>
      </trkpt>
      <trkpt lat="48.59041" lon="-4.28525">
        <ele>38.5</ele>
        <time>2022-05-27T10:30:18Z</time>
      </trkpt>
      <trkpt lat="48.59029" lon="-4.28538">
        <ele>38.9</ele>
        <time>2022-05-27T10:30:21Z</time>
      </trkpt>
      <trkpt lat="48.59005" lon="-4.28566">
        <ele>40.4</ele>
        <time>2022-05-27T10:30:27Z</time>
      </trkpt>
      <trkpt lat="48.58982" lon="-4.28596">
        <ele>41.9</ele>
        <time>2022-05-27T10:30:33Z</time>
      </trkpt>
      <trkpt lat="48.58971" lon="-4.2861">
        <ele>42.7</ele>
        <time>2022-05-27T10:30:36Z</time>
      </trkpt>
      <trkpt lat="48.58961" lon="-4.28626">
        <ele>43.5</ele>
        <time>2022-05-27T10:30:39Z</time>
      </trkpt>
      <trkpt lat="48.58942" lon="-4.28656">
        <ele>45.3</ele>
        <time>2022-05-27T10:30:45Z</time>
      </trkpt>
      <trkpt lat="48.58939" lon="-4.28661">
        <ele>45.5</ele>
        <time>2022-05-27T10:30:46Z</time>
      </trkpt>
      <trkpt lat="48.58908" lon="-4.28718">
        <ele>47.7</ele>
        <time>2022-05-27T10:30:56Z</time>
      </trkpt>
      <trkpt lat="48.58904" lon="-4.28724">
        <ele>47.9</ele>
        <time>2022-05-27T10:30:57Z</time>
      </trkpt>
      <trkpt lat="48.58884" lon="-4.28763">
        <ele>48.1</ele>
        <time>2022-05-27T10:31:03Z</time>
      </trkpt>
      <trkpt lat="48.58877" lon="-4.28777">
        <ele>47.4</ele>
        <time>2022-05-27T10:31:05Z</time>
      </trkpt>
      <trkpt lat="48.58857" lon="-4.28814">
        <ele>46.1</ele>
        <time>2022-05-27T10:31:09Z</time>
      </trkpt>
      <trkpt lat="48.58847" lon="-4.28833">
        <ele>45.1</ele>
        <time>2022-05-27T10:31:11Z</time>
      </trkpt>
      <trkpt lat="48.58824" lon="-4.28878">
        <ele>43</ele>
        <time>2022-05-27T10:31:15Z</time>
      </trkpt>
      <trkpt lat="48.58817" lon="-4.28889">
        <ele>42.3</ele>
        <time>2022-05-27T10:31:16Z</time>
      </trkpt>
      <trkpt lat="48.58801" lon="-4.28907">
        <ele>40.8</ele>
        <time>2022-05-27T10:31:18Z</time>
      </trkpt>
      <trkpt lat="48.58771" lon="-4.28926">
        <ele>38.5</ele>
        <time>2022-05-27T10:31:21Z</time>
      </trkpt>
      <trkpt lat="48.5875" lon="-4.28939">
        <ele>36.8</ele>
        <time>2022-05-27T10:31:23Z</time>
      </trkpt>
      <trkpt lat="48.58707" lon="-4.28975">
        <ele>33.2</ele>
        <time>2022-05-27T10:31:27Z</time>
      </trkpt>
      <trkpt lat="48.58675" lon="-4.29009">
        <ele>30.5</ele>
        <time>2022-05-27T10:31:30Z</time>
      </trkpt>
      <trkpt lat="48.58656" lon="-4.29038">
        <ele>28.7</ele>
        <time>2022-05-27T10:31:32Z</time>
      </trkpt>
      <trkpt lat="48.58637" lon="-4.29068">
        <ele>26.7</ele>
        <time>2022-05-27T10:31:34Z</time>
      </trkpt>
      <trkpt lat="48.58602" lon="-4.29131">
        <ele>23</ele>
        <time>2022-05-27T10:31:38Z</time>
      </trkpt>
      <trkpt lat="48.58572" lon="-4.29187">
        <ele>22.2</ele>
        <time>2022-05-27T10:31:42Z</time>
      </trkpt>
      <trkpt lat="48.58542" lon="-4.29249">
        <ele>21.2</ele>
        <time>2022-05-27T10:31:47Z</time>
      </trkpt>
      <trkpt lat="48.58536" lon="-4.2926">
        <ele>21.1</ele>
        <time>2022-05-27T10:31:48Z</time>
      </trkpt>
      <trkpt lat="48.58515" lon="-4.29305">
        <ele>21.1</ele>
        <time>2022-05-27T10:31:52Z</time>
      </trkpt>
      <trkpt lat="48.58504" lon="-4.29326">
        <ele>21.2</ele>
        <time>2022-05-27T10:31:54Z</time>
      </trkpt>
      <trkpt lat="48.58485" lon="-4.29366">
        <ele>22</ele>
        <time>2022-05-27T10:31:58Z</time>
      </trkpt>
      <trkpt lat="48.58455" lon="-4.29429">
        <ele>23.3</ele>
        <time>2022-05-27T10:32:05Z</time>
      </trkpt>
      <trkpt lat="48.5845" lon="-4.29437">
        <ele>23.5</ele>
        <time>2022-05-27T10:32:06Z</time>
      </trkpt>
      <trkpt lat="48.58425" lon="-4.29486">
        <ele>25</ele>
        <time>2022-05-27T10:32:12Z</time>
      </trkpt>
      <trkpt lat="48.58399" lon="-4.29524">
        <ele>26.6</ele>
        <time>2022-05-27T10:32:18Z</time>
      </trkpt>
      <trkpt lat="48.58391" lon="-4.29536">
        <ele>27.2</ele>
        <time>2022-05-27T10:32:20Z</time>
      </trkpt>
      <trkpt lat="48.58355" lon="-4.29586">
        <ele>30.3</ele>
        <time>2022-05-27T10:32:30Z</time>
      </trkpt>
      <trkpt lat="48.5832" lon="-4.29635">
        <ele>33</ele>
        <time>2022-05-27T10:32:41Z</time>
      </trkpt>
      <trkpt lat="48.58317" lon="-4.2964">
        <ele>33.3</ele>
        <time>2022-05-27T10:32:42Z</time>
      </trkpt>
      <trkpt lat="48.58297" lon="-4.29669">
        <ele>35</ele>
        <time>2022-05-27T10:32:48Z</time>
      </trkpt>
      <trkpt lat="48.58288" lon="-4.29683">
        <ele>35.7</ele>
        <time>2022-05-27T10:32:51Z</time>
      </trkpt>
      <trkpt lat="48.58279" lon="-4.29697">
        <ele>36.4</ele>
        <time>2022-05-27T10:32:54Z</time>
      </trkpt>
      <trkpt lat="48.5826" lon="-4.29731">
        <ele>37.7</ele>
        <time>2022-05-27T10:33:01Z</time>
      </trkpt>
      <trkpt lat="48.58247" lon="-4.29801">
        <ele>39.9</ele>
        <time>2022-05-27T10:33:12Z</time>
      </trkpt>
      <trkpt lat="48.58249" lon="-4.2987">
        <ele>41.9</ele>
        <time>2022-05-27T10:33:22Z</time>
      </trkpt>
      <trkpt lat="48.58246" lon="-4.29923">
        <ele>43.5</ele>
        <time>2022-05-27T10:33:30Z</time>
      </trkpt>
      <trkpt lat="48.58219" lon="-4.29982">
        <ele>44.8</ele>
        <time>2022-05-27T10:33:40Z</time>
      </trkpt>
      <trkpt lat="48.58215" lon="-4.29988">
        <ele>44.9</ele>
        <time>2022-05-27T10:33:41Z</time>
      </trkpt>
      <trkpt lat="48.58187" lon="-4.30033">
        <ele>46</ele>
        <time>2022-05-27T10:33:49Z</time>
      </trkpt>
      <trkpt lat="48.58157" lon="-4.3007">
        <ele>47.2</ele>
        <time>2022-05-27T10:33:57Z</time>
      </trkpt>
      <trkpt lat="48.58149" lon="-4.30078">
        <ele>47.5</ele>
        <time>2022-05-27T10:33:59Z</time>
      </trkpt>
      <trkpt lat="48.58109" lon="-4.30113">
        <ele>49.3</ele>
        <time>2022-05-27T10:34:09Z</time>
      </trkpt>
      <trkpt lat="48.58094" lon="-4.30137">
        <ele>50.3</ele>
        <time>2022-05-27T10:34:14Z</time>
      </trkpt>
      <trkpt lat="48.58076" lon="-4.30166">
        <ele>51.5</ele>
        <time>2022-05-27T10:34:20Z</time>
      </trkpt>
      <trkpt lat="48.58065" lon="-4.30233">
        <ele>53.6</ele>
        <time>2022-05-27T10:34:30Z</time>
      </trkpt>
      <trkpt lat="48.58066" lon="-4.30248">
        <ele>54</ele>
        <time>2022-05-27T10:34:32Z</time>
      </trkpt>
      <trkpt lat="48.58069" lon="-4.30307">
        <ele>55</ele>
        <time>2022-05-27T10:34:40Z</time>
      </trkpt>
      <trkpt lat="48.58072" lon="-4.30337">
        <ele>55.5</ele>
        <time>2022-05-27T10:34:44Z</time>
      </trkpt>
      <trkpt lat="48.58075" lon="-4.30375">
        <ele>56.2</ele>
        <time>2022-05-27T10:34:49Z</time>
      </trkpt>
      <trkpt lat="48.5808" lon="-4.30429">
        <ele>57.2</ele>
        <time>2022-05-27T10:34:56Z</time>
      </trkpt>
      <trkpt lat="48.58081" lon="-4.30445">
        <ele>57.4</ele>
        <time>2022-05-27T10:34:58Z</time>
      </trkpt>
      <trkpt lat="48.58084" lon="-4.30477">
        <ele>57.8</ele>
        <time>2022-05-27T10:35:02Z</time>
      </trkpt>
      <trkpt lat="48.58087" lon="-4.30518">
        <ele>58.4</ele>
        <time>2022-05-27T10:35:07Z</time>
      </trkpt>
      <trkpt lat="48.58092" lon="-4.3059">
        <ele>59.6</ele>
        <time>2022-05-27T10:35:16Z</time>
      </trkpt>
      <trkpt lat="48.58091" lon="-4.30624">
        <ele>60.1</ele>
        <time>2022-05-27T10:35:20Z</time>
      </trkpt>
      <trkpt lat="48.58091" lon="-4.30667">
        <ele>60.3</ele>
        <time>2022-05-27T10:35:25Z</time>
      </trkpt>
      <trkpt lat="48.58089" lon="-4.30677">
        <ele>60.3</ele>
        <time>2022-05-27T10:35:26Z</time>
      </trkpt>
      <trkpt lat="48.5808" lon="-4.30736">
        <ele>59.2</ele>
        <time>2022-05-27T10:35:32Z</time>
      </trkpt>
      <trkpt lat="48.58061" lon="-4.30797">
        <ele>58.2</ele>
        <time>2022-05-27T10:35:38Z</time>
      </trkpt>
      <trkpt lat="48.58057" lon="-4.30807">
        <ele>58.2</ele>
        <time>2022-05-27T10:35:39Z</time>
      </trkpt>
      <trkpt lat="48.58032" lon="-4.30865">
        <ele>57.7</ele>
        <time>2022-05-27T10:35:45Z</time>
      </trkpt>
      <trkpt lat="48.58015" lon="-4.309">
        <ele>57.4</ele>
        <time>2022-05-27T10:35:49Z</time>
      </trkpt>
      <trkpt lat="48.58002" lon="-4.30926">
        <ele>57.9</ele>
        <time>2022-05-27T10:35:52Z</time>
      </trkpt>
      <trkpt lat="48.57972" lon="-4.30981">
        <ele>59</ele>
        <time>2022-05-27T10:35:59Z</time>
      </trkpt>
      <trkpt lat="48.57967" lon="-4.30989">
        <ele>59.2</ele>
        <time>2022-05-27T10:36:00Z</time>
      </trkpt>
      <trkpt lat="48.5794" lon="-4.31036">
        <ele>59.8</ele>
        <time>2022-05-27T10:36:06Z</time>
      </trkpt>
      <trkpt lat="48.57915" lon="-4.31081">
        <ele>60.7</ele>
        <time>2022-05-27T10:36:12Z</time>
      </trkpt>
      <trkpt lat="48.57911" lon="-4.31089">
        <ele>60.7</ele>
        <time>2022-05-27T10:36:13Z</time>
      </trkpt>
      <trkpt lat="48.57892" lon="-4.31133">
        <ele>60.7</ele>
        <time>2022-05-27T10:36:18Z</time>
      </trkpt>
      <trkpt lat="48.57884" lon="-4.31151">
        <ele>60.5</ele>
        <time>2022-05-27T10:36:20Z</time>
      </trkpt>
      <trkpt lat="48.57861" lon="-4.31222">
        <ele>59.9</ele>
        <time>2022-05-27T10:36:27Z</time>
      </trkpt>
      <trkpt lat="48.5784" lon="-4.31285">
        <ele>59.4</ele>
        <time>2022-05-27T10:36:33Z</time>
      </trkpt>
      <trkpt lat="48.57814" lon="-4.31344">
        <ele>58.9</ele>
        <time>2022-05-27T10:36:39Z</time>
      </trkpt>
      <trkpt lat="48.57801" lon="-4.31374">
        <ele>58.6</ele>
        <time>2022-05-27T10:36:42Z</time>
      </trkpt>
      <trkpt lat="48.57789" lon="-4.31404">
        <ele>58.4</ele>
        <time>2022-05-27T10:36:45Z</time>
      </trkpt>
      <trkpt lat="48.57763" lon="-4.31468">
        <ele>57.8</ele>
        <time>2022-05-27T10:36:52Z</time>
      </trkpt>
      <trkpt lat="48.57755" lon="-4.31485">
        <ele>57.7</ele>
        <time>2022-05-27T10:36:54Z</time>
      </trkpt>
      <trkpt lat="48.57735" lon="-4.31528">
        <ele>57.2</ele>
        <time>2022-05-27T10:36:59Z</time>
      </trkpt>
      <trkpt lat="48.57709" lon="-4.31583">
        <ele>56.6</ele>
        <time>2022-05-27T10:37:06Z</time>
      </trkpt>
      <trkpt lat="48.57681" lon="-4.31643">
        <ele>55.8</ele>
        <time>2022-05-27T10:37:14Z</time>
      </trkpt>
      <trkpt lat="48.57651" lon="-4.31703">
        <ele>55.1</ele>
        <time>2022-05-27T10:37:22Z</time>
      </trkpt>
      <trkpt lat="48.57642" lon="-4.31719">
        <ele>54.9</ele>
        <time>2022-05-27T10:37:24Z</time>
      </trkpt>
      <trkpt lat="48.5762" lon="-4.31761">
        <ele>54.1</ele>
        <time>2022-05-27T10:37:29Z</time>
      </trkpt>
      <trkpt lat="48.57614" lon="-4.31797">
        <ele>53.4</ele>
        <time>2022-05-27T10:37:33Z</time>
      </trkpt>
      <trkpt lat="48.57628" lon="-4.31837">
        <ele>52</ele>
        <time>2022-05-27T10:37:42Z</time>
      </trkpt>
      <trkpt lat="48.5763" lon="-4.31845">
        <ele>52.2</ele>
        <time>2022-05-27T10:37:48Z</time>
      </trkpt>
      <trkpt lat="48.57641" lon="-4.31863">
        <ele>52.4</ele>
        <time>2022-05-27T10:37:55Z</time>
      </trkpt>
      <trkpt lat="48.57642" lon="-4.31876">
        <ele>52.4</ele>
        <time>2022-05-27T10:37:57Z</time>
      </trkpt>
      <trkpt lat="48.57635" lon="-4.31891">
        <ele>52.5</ele>
        <time>2022-05-27T10:38:00Z</time>
      </trkpt>
      <trkpt lat="48.57603" lon="-4.31912">
        <ele>52.7</ele>
        <time>2022-05-27T10:38:09Z</time>
      </trkpt>
      <trkpt lat="48.57567" lon="-4.31956">
        <ele>53</ele>
        <time>2022-05-27T10:38:19Z</time>
      </trkpt>
      <trkpt lat="48.57555" lon="-4.3197">
        <ele>53.2</ele>
        <time>2022-05-27T10:38:23Z</time>
      </trkpt>
      <trkpt lat="48.57538" lon="-4.3199">
        <ele>55</ele>
        <time>2022-05-27T10:38:29Z</time>
      </trkpt>
      <trkpt lat="48.5753" lon="-4.32">
        <ele>55.6</ele>
        <time>2022-05-27T10:38:32Z</time>
      </trkpt>
      <trkpt lat="48.57515" lon="-4.32041">
        <ele>57.5</ele>
        <time>2022-05-27T10:38:41Z</time>
      </trkpt>
      <trkpt lat="48.57507" lon="-4.32063">
        <ele>58.4</ele>
        <time>2022-05-27T10:38:46Z</time>
      </trkpt>
      <trkpt lat="48.57486" lon="-4.32129">
        <ele>60.6</ele>
        <time>2022-05-27T10:38:58Z</time>
      </trkpt>
      <trkpt lat="48.57475" lon="-4.32164">
        <ele>61.8</ele>
        <time>2022-05-27T10:39:05Z</time>
      </trkpt>
      <trkpt lat="48.57466" lon="-4.32194">
        <ele>63</ele>
        <time>2022-05-27T10:39:11Z</time>
      </trkpt>
      <trkpt lat="48.57442" lon="-4.32245">
        <ele>65.1</ele>
        <time>2022-05-27T10:39:22Z</time>
      </trkpt>
      <trkpt lat="48.57441" lon="-4.3225">
        <ele>65.3</ele>
        <time>2022-05-27T10:39:23Z</time>
      </trkpt>
      <trkpt lat="48.57424" lon="-4.32302">
        <ele>67.9</ele>
        <time>2022-05-27T10:39:35Z</time>
      </trkpt>
      <trkpt lat="48.57416" lon="-4.32324">
        <ele>69</ele>
        <time>2022-05-27T10:39:40Z</time>
      </trkpt>
      <trkpt lat="48.574" lon="-4.32362">
        <ele>71</ele>
        <time>2022-05-27T10:39:49Z</time>
      </trkpt>
      <trkpt lat="48.57393" lon="-4.32385">
        <ele>72.1</ele>
        <time>2022-05-27T10:39:54Z</time>
      </trkpt>
      <trkpt lat="48.57387" lon="-4.32385">
        <ele>72.6</ele>
        <time>2022-05-27T10:39:56Z</time>
      </trkpt>
      <trkpt lat="48.57383" lon="-4.32382">
        <ele>72.7</ele>
        <time>2022-05-27T10:39:57Z</time>
      </trkpt>
      <trkpt lat="48.5738" lon="-4.32379">
        <ele>72.6</ele>
        <time>2022-05-27T10:39:58Z</time>
      </trkpt>
      <trkpt lat="48.57363" lon="-4.32376">
        <ele>72.4</ele>
        <time>2022-05-27T10:40:02Z</time>
      </trkpt>
      <trkpt lat="48.57334" lon="-4.3237">
        <ele>71.7</ele>
        <time>2022-05-27T10:40:09Z</time>
      </trkpt>
      <trkpt lat="48.57304" lon="-4.32355">
        <ele>70.6</ele>
        <time>2022-05-27T10:40:19Z</time>
      </trkpt>
      <trkpt lat="48.573" lon="-4.3234">
        <ele>70.4</ele>
        <time>2022-05-27T10:40:21Z</time>
      </trkpt>
      <trkpt lat="48.57296" lon="-4.32322">
        <ele>70.3</ele>
        <time>2022-05-27T10:40:22Z</time>
      </trkpt>
      <trkpt lat="48.57291" lon="-4.32346">
        <ele>70</ele>
        <time>2022-05-27T10:40:25Z</time>
      </trkpt>
      <trkpt lat="48.5727" lon="-4.32339">
        <ele>69.5</ele>
        <time>2022-05-27T10:40:30Z</time>
      </trkpt>
      <trkpt lat="48.57264" lon="-4.32342">
        <ele>69.4</ele>
        <time>2022-05-27T10:40:31Z</time>
      </trkpt>
      <trkpt lat="48.57231" lon="-4.32363">
        <ele>69.2</ele>
        <time>2022-05-27T10:40:37Z</time>
      </trkpt>
      <trkpt lat="48.57227" lon="-4.32379">
        <ele>69.1</ele>
        <time>2022-05-27T10:40:39Z</time>
      </trkpt>
      <trkpt lat="48.57228" lon="-4.32427">
        <ele>68.8</ele>
        <time>2022-05-27T10:40:46Z</time>
      </trkpt>
      <trkpt lat="48.5722" lon="-4.32437">
        <ele>68.6</ele>
        <time>2022-05-27T10:40:52Z</time>
      </trkpt>
      <trkpt lat="48.57207" lon="-4.32433">
        <ele>68.5</ele>
        <time>2022-05-27T10:40:54Z</time>
      </trkpt>
      <trkpt lat="48.57207" lon="-4.32426">
        <ele>68.5</ele>
        <time>2022-05-27T10:40:55Z</time>
      </trkpt>
      <trkpt lat="48.57205" lon="-4.32425">
        <ele>68.5</ele>
        <time>2022-05-27T10:40:56Z</time>
      </trkpt>
      <trkpt lat="48.57204" lon="-4.32376">
        <ele>68.2</ele>
        <time>2022-05-27T10:41:03Z</time>
      </trkpt>
      <trkpt lat="48.57196" lon="-4.32368">
        <ele>68.1</ele>
        <time>2022-05-27T10:41:05Z</time>
      </trkpt>
      <trkpt lat="48.57187" lon="-4.32367">
        <ele>68</ele>
        <time>2022-05-27T10:41:07Z</time>
      </trkpt>
      <trkpt lat="48.5717" lon="-4.32361">
        <ele>67.7</ele>
        <time>2022-05-27T10:41:11Z</time>
      </trkpt>
      <trkpt lat="48.5716" lon="-4.32333">
        <ele>67.3</ele>
        <time>2022-05-27T10:41:15Z</time>
      </trkpt>
      <trkpt lat="48.57145" lon="-4.32337">
        <ele>67</ele>
        <time>2022-05-27T10:41:19Z</time>
      </trkpt>
      <trkpt lat="48.57137" lon="-4.32339">
        <ele>67.1</ele>
        <time>2022-05-27T10:41:21Z</time>
      </trkpt>
      <trkpt lat="48.57092" lon="-4.32339">
        <ele>67.2</ele>
        <time>2022-05-27T10:41:29Z</time>
      </trkpt>
      <trkpt lat="48.57051" lon="-4.32344">
        <ele>67.4</ele>
        <time>2022-05-27T10:41:36Z</time>
      </trkpt>
      <trkpt lat="48.57036" lon="-4.32358">
        <ele>67.5</ele>
        <time>2022-05-27T10:41:39Z</time>
      </trkpt>
      <trkpt lat="48.5702" lon="-4.32364">
        <ele>67.5</ele>
        <time>2022-05-27T10:41:42Z</time>
      </trkpt>
      <trkpt lat="48.56977" lon="-4.32389">
        <ele>67.7</ele>
        <time>2022-05-27T10:41:50Z</time>
      </trkpt>
      <trkpt lat="48.56936" lon="-4.32418">
        <ele>67.9</ele>
        <time>2022-05-27T10:41:58Z</time>
      </trkpt>
      <trkpt lat="48.56891" lon="-4.32445">
        <ele>68.1</ele>
        <time>2022-05-27T10:42:07Z</time>
      </trkpt>
      <trkpt lat="48.56856" lon="-4.32461">
        <ele>68.3</ele>
        <time>2022-05-27T10:42:13Z</time>
      </trkpt>
      <trkpt lat="48.56805" lon="-4.32462">
        <ele>68.4</ele>
        <time>2022-05-27T10:42:21Z</time>
      </trkpt>
      <trkpt lat="48.56751" lon="-4.32523">
        <ele>69.2</ele>
        <time>2022-05-27T10:42:28Z</time>
      </trkpt>
      <trkpt lat="48.56751" lon="-4.32523">
        <ele>69.2</ele>
        <time>2022-05-27T10:43:16Z</time>
      </trkpt>
      <trkpt lat="48.56717" lon="-4.32582">
        <ele>69.9</ele>
        <time>2022-05-27T10:43:22Z</time>
      </trkpt>
      <trkpt lat="48.5671" lon="-4.32653">
        <ele>70</ele>
        <time>2022-05-27T10:43:30Z</time>
      </trkpt>
      <trkpt lat="48.56703" lon="-4.32726">
        <ele>70.2</ele>
        <time>2022-05-27T10:43:39Z</time>
      </trkpt>
      <trkpt lat="48.56699" lon="-4.3278">
        <ele>70.4</ele>
        <time>2022-05-27T10:43:46Z</time>
      </trkpt>
      <trkpt lat="48.56698" lon="-4.32795">
        <ele>70.4</ele>
        <time>2022-05-27T10:43:48Z</time>
      </trkpt>
      <trkpt lat="48.56694" lon="-4.32818">
        <ele>70.5</ele>
        <time>2022-05-27T10:43:51Z</time>
      </trkpt>
      <trkpt lat="48.56693" lon="-4.32835">
        <ele>70.5</ele>
        <time>2022-05-27T10:43:53Z</time>
      </trkpt>
      <trkpt lat="48.56688" lon="-4.32864">
        <ele>70.6</ele>
        <time>2022-05-27T10:43:57Z</time>
      </trkpt>
      <trkpt lat="48.56681" lon="-4.32934">
        <ele>70.8</ele>
        <time>2022-05-27T10:44:06Z</time>
      </trkpt>
      <trkpt lat="48.56666" lon="-4.32999">
        <ele>71</ele>
        <time>2022-05-27T10:44:15Z</time>
      </trkpt>
      <trkpt lat="48.56655" lon="-4.33032">
        <ele>71.1</ele>
        <time>2022-05-27T10:44:20Z</time>
      </trkpt>
      <trkpt lat="48.56631" lon="-4.33098">
        <ele>71.2</ele>
        <time>2022-05-27T10:44:29Z</time>
      </trkpt>
      <trkpt lat="48.56601" lon="-4.33156">
        <ele>71.4</ele>
        <time>2022-05-27T10:44:38Z</time>
      </trkpt>
      <trkpt lat="48.56576" lon="-4.33205">
        <ele>71.5</ele>
        <time>2022-05-27T10:44:45Z</time>
      </trkpt>
      <trkpt lat="48.56551" lon="-4.33263">
        <ele>71.7</ele>
        <time>2022-05-27T10:44:52Z</time>
      </trkpt>
      <trkpt lat="48.56541" lon="-4.3328">
        <ele>71.6</ele>
        <time>2022-05-27T10:44:54Z</time>
      </trkpt>
      <trkpt lat="48.56527" lon="-4.33307">
        <ele>71.2</ele>
        <time>2022-05-27T10:44:57Z</time>
      </trkpt>
      <trkpt lat="48.56522" lon="-4.33316">
        <ele>71</ele>
        <time>2022-05-27T10:44:58Z</time>
      </trkpt>
      <trkpt lat="48.56494" lon="-4.33372">
        <ele>70.1</ele>
        <time>2022-05-27T10:45:04Z</time>
      </trkpt>
      <trkpt lat="48.56465" lon="-4.3343">
        <ele>69.2</ele>
        <time>2022-05-27T10:45:10Z</time>
      </trkpt>
      <trkpt lat="48.56438" lon="-4.33491">
        <ele>68.3</ele>
        <time>2022-05-27T10:45:16Z</time>
      </trkpt>
      <trkpt lat="48.56434" lon="-4.33513">
        <ele>68</ele>
        <time>2022-05-27T10:45:18Z</time>
      </trkpt>
      <trkpt lat="48.56434" lon="-4.33519">
        <ele>67.8</ele>
        <time>2022-05-27T10:45:19Z</time>
      </trkpt>
      <trkpt lat="48.5643" lon="-4.33524">
        <ele>67.6</ele>
        <time>2022-05-27T10:45:21Z</time>
      </trkpt>
      <trkpt lat="48.56382" lon="-4.33512">
        <ele>66.6</ele>
        <time>2022-05-27T10:45:28Z</time>
      </trkpt>
      <trkpt lat="48.56338" lon="-4.33529">
        <ele>65.7</ele>
        <time>2022-05-27T10:45:35Z</time>
      </trkpt>
      <trkpt lat="48.56333" lon="-4.33535">
        <ele>65.6</ele>
        <time>2022-05-27T10:45:36Z</time>
      </trkpt>
      <trkpt lat="48.5633" lon="-4.33552">
        <ele>65.5</ele>
        <time>2022-05-27T10:45:38Z</time>
      </trkpt>
      <trkpt lat="48.56341" lon="-4.33594">
        <ele>65.5</ele>
        <time>2022-05-27T10:45:42Z</time>
      </trkpt>
      <trkpt lat="48.56345" lon="-4.33603">
        <ele>65.5</ele>
        <time>2022-05-27T10:45:43Z</time>
      </trkpt>
      <trkpt lat="48.56357" lon="-4.33673">
        <ele>65.3</ele>
        <time>2022-05-27T10:45:51Z</time>
      </trkpt>
      <trkpt lat="48.56369" lon="-4.33743">
        <ele>65.2</ele>
        <time>2022-05-27T10:45:59Z</time>
      </trkpt>
      <trkpt lat="48.56379" lon="-4.33813">
        <ele>65.1</ele>
        <time>2022-05-27T10:46:07Z</time>
      </trkpt>
      <trkpt lat="48.56387" lon="-4.33887">
        <ele>65</ele>
        <time>2022-05-27T10:46:15Z</time>
      </trkpt>
      <trkpt lat="48.56396" lon="-4.33956">
        <ele>64.8</ele>
        <time>2022-05-27T10:46:23Z</time>
      </trkpt>
      <trkpt lat="48.56408" lon="-4.34003">
        <ele>64.7</ele>
        <time>2022-05-27T10:46:29Z</time>
      </trkpt>
      <trkpt lat="48.56403" lon="-4.34017">
        <ele>64.7</ele>
        <time>2022-05-27T10:46:31Z</time>
      </trkpt>
      <trkpt lat="48.56398" lon="-4.3402">
        <ele>64.7</ele>
        <time>2022-05-27T10:46:32Z</time>
      </trkpt>
      <trkpt lat="48.56382" lon="-4.34026">
        <ele>64.7</ele>
        <time>2022-05-27T10:46:35Z</time>
      </trkpt>
      <trkpt lat="48.56347" lon="-4.34071">
        <ele>64.5</ele>
        <time>2022-05-27T10:46:42Z</time>
      </trkpt>
      <trkpt lat="48.5632" lon="-4.34109">
        <ele>64.5</ele>
        <time>2022-05-27T10:46:48Z</time>
      </trkpt>
      <trkpt lat="48.56292" lon="-4.34163">
        <ele>64.3</ele>
        <time>2022-05-27T10:46:55Z</time>
      </trkpt>
      <trkpt lat="48.5627" lon="-4.34224">
        <ele>64.2</ele>
        <time>2022-05-27T10:47:02Z</time>
      </trkpt>
      <trkpt lat="48.56252" lon="-4.3429">
        <ele>64.1</ele>
        <time>2022-05-27T10:47:09Z</time>
      </trkpt>
      <trkpt lat="48.56231" lon="-4.34356">
        <ele>64</ele>
        <time>2022-05-27T10:47:16Z</time>
      </trkpt>
      <trkpt lat="48.56207" lon="-4.34424">
        <ele>63.9</ele>
        <time>2022-05-27T10:47:23Z</time>
      </trkpt>
      <trkpt lat="48.56183" lon="-4.34493">
        <ele>63.8</ele>
        <time>2022-05-27T10:47:30Z</time>
      </trkpt>
      <trkpt lat="48.56163" lon="-4.34554">
        <ele>63.7</ele>
        <time>2022-05-27T10:47:36Z</time>
      </trkpt>
      <trkpt lat="48.56148" lon="-4.34596">
        <ele>63.6</ele>
        <time>2022-05-27T10:47:40Z</time>
      </trkpt>
      <trkpt lat="48.5614" lon="-4.34617">
        <ele>63.4</ele>
        <time>2022-05-27T10:47:42Z</time>
      </trkpt>
      <trkpt lat="48.56117" lon="-4.34679">
        <ele>62.7</ele>
        <time>2022-05-27T10:47:48Z</time>
      </trkpt>
      <trkpt lat="48.561" lon="-4.3472">
        <ele>62.2</ele>
        <time>2022-05-27T10:47:52Z</time>
      </trkpt>
      <trkpt lat="48.56091" lon="-4.3474">
        <ele>61.9</ele>
        <time>2022-05-27T10:47:54Z</time>
      </trkpt>
      <trkpt lat="48.56062" lon="-4.34796">
        <ele>60.9</ele>
        <time>2022-05-27T10:48:00Z</time>
      </trkpt>
      <trkpt lat="48.56029" lon="-4.34852">
        <ele>60</ele>
        <time>2022-05-27T10:48:06Z</time>
      </trkpt>
      <trkpt lat="48.55993" lon="-4.34909">
        <ele>59</ele>
        <time>2022-05-27T10:48:12Z</time>
      </trkpt>
      <trkpt lat="48.55968" lon="-4.34954">
        <ele>58.3</ele>
        <time>2022-05-27T10:48:16Z</time>
      </trkpt>
      <trkpt lat="48.55962" lon="-4.34965">
        <ele>57.9</ele>
        <time>2022-05-27T10:48:17Z</time>
      </trkpt>
      <trkpt lat="48.55937" lon="-4.35013">
        <ele>56.2</ele>
        <time>2022-05-27T10:48:21Z</time>
      </trkpt>
      <trkpt lat="48.55931" lon="-4.35025">
        <ele>56.1</ele>
        <time>2022-05-27T10:48:22Z</time>
      </trkpt>
      <trkpt lat="48.55907" lon="-4.35091">
        <ele>55.4</ele>
        <time>2022-05-27T10:48:27Z</time>
      </trkpt>
      <trkpt lat="48.55889" lon="-4.35154">
        <ele>54.7</ele>
        <time>2022-05-27T10:48:32Z</time>
      </trkpt>
      <trkpt lat="48.55869" lon="-4.35226">
        <ele>54.9</ele>
        <time>2022-05-27T10:48:38Z</time>
      </trkpt>
      <trkpt lat="48.55847" lon="-4.35295">
        <ele>55.1</ele>
        <time>2022-05-27T10:48:44Z</time>
      </trkpt>
      <trkpt lat="48.55826" lon="-4.35366">
        <ele>55.3</ele>
        <time>2022-05-27T10:48:50Z</time>
      </trkpt>
      <trkpt lat="48.55817" lon="-4.35387">
        <ele>55.4</ele>
        <time>2022-05-27T10:48:52Z</time>
      </trkpt>
      <trkpt lat="48.55815" lon="-4.354">
        <ele>55.4</ele>
        <time>2022-05-27T10:48:53Z</time>
      </trkpt>
      <trkpt lat="48.55795" lon="-4.35437">
        <ele>55.5</ele>
        <time>2022-05-27T10:48:57Z</time>
      </trkpt>
      <trkpt lat="48.55774" lon="-4.35477">
        <ele>55.7</ele>
        <time>2022-05-27T10:49:02Z</time>
      </trkpt>
      <trkpt lat="48.55766" lon="-4.35493">
        <ele>56.1</ele>
        <time>2022-05-27T10:49:04Z</time>
      </trkpt>
      <trkpt lat="48.55739" lon="-4.35557">
        <ele>57.3</ele>
        <time>2022-05-27T10:49:12Z</time>
      </trkpt>
      <trkpt lat="48.55728" lon="-4.35591">
        <ele>57.9</ele>
        <time>2022-05-27T10:49:16Z</time>
      </trkpt>
      <trkpt lat="48.55727" lon="-4.35601">
        <ele>58.1</ele>
        <time>2022-05-27T10:49:17Z</time>
      </trkpt>
      <trkpt lat="48.55718" lon="-4.35631">
        <ele>58.5</ele>
        <time>2022-05-27T10:49:20Z</time>
      </trkpt>
      <trkpt lat="48.55706" lon="-4.3567">
        <ele>58</ele>
        <time>2022-05-27T10:49:24Z</time>
      </trkpt>
      <trkpt lat="48.55685" lon="-4.35736">
        <ele>57.2</ele>
        <time>2022-05-27T10:49:30Z</time>
      </trkpt>
      <trkpt lat="48.55676" lon="-4.35759">
        <ele>57</ele>
        <time>2022-05-27T10:49:32Z</time>
      </trkpt>
      <trkpt lat="48.55659" lon="-4.35804">
        <ele>56.3</ele>
        <time>2022-05-27T10:49:36Z</time>
      </trkpt>
      <trkpt lat="48.55632" lon="-4.35869">
        <ele>55.3</ele>
        <time>2022-05-27T10:49:42Z</time>
      </trkpt>
      <trkpt lat="48.55602" lon="-4.35936">
        <ele>54.2</ele>
        <time>2022-05-27T10:49:48Z</time>
      </trkpt>
      <trkpt lat="48.55593" lon="-4.35959">
        <ele>53.9</ele>
        <time>2022-05-27T10:49:50Z</time>
      </trkpt>
      <trkpt lat="48.55574" lon="-4.36005">
        <ele>53.7</ele>
        <time>2022-05-27T10:49:54Z</time>
      </trkpt>
      <trkpt lat="48.55565" lon="-4.36027">
        <ele>53.5</ele>
        <time>2022-05-27T10:49:56Z</time>
      </trkpt>
      <trkpt lat="48.55546" lon="-4.36071">
        <ele>53</ele>
        <time>2022-05-27T10:50:00Z</time>
      </trkpt>
      <trkpt lat="48.55522" lon="-4.36126">
        <ele>52.4</ele>
        <time>2022-05-27T10:50:05Z</time>
      </trkpt>
      <trkpt lat="48.55508" lon="-4.36163">
        <ele>51.9</ele>
        <time>2022-05-27T10:50:08Z</time>
      </trkpt>
      <trkpt lat="48.55498" lon="-4.36189">
        <ele>50.9</ele>
        <time>2022-05-27T10:50:10Z</time>
      </trkpt>
      <trkpt lat="48.55484" lon="-4.36237">
        <ele>49.3</ele>
        <time>2022-05-27T10:50:13Z</time>
      </trkpt>
      <trkpt lat="48.55477" lon="-4.36252">
        <ele>48.7</ele>
        <time>2022-05-27T10:50:14Z</time>
      </trkpt>
      <trkpt lat="48.55455" lon="-4.36295">
        <ele>46.4</ele>
        <time>2022-05-27T10:50:17Z</time>
      </trkpt>
      <trkpt lat="48.5543" lon="-4.36335">
        <ele>44.4</ele>
        <time>2022-05-27T10:50:20Z</time>
      </trkpt>
      <trkpt lat="48.55423" lon="-4.36347">
        <ele>44.5</ele>
        <time>2022-05-27T10:50:21Z</time>
      </trkpt>
      <trkpt lat="48.55398" lon="-4.36409">
        <ele>45</ele>
        <time>2022-05-27T10:50:26Z</time>
      </trkpt>
      <trkpt lat="48.55374" lon="-4.36466">
        <ele>45.4</ele>
        <time>2022-05-27T10:50:31Z</time>
      </trkpt>
      <trkpt lat="48.55356" lon="-4.3652">
        <ele>46.6</ele>
        <time>2022-05-27T10:50:36Z</time>
      </trkpt>
      <trkpt lat="48.55353" lon="-4.36531">
        <ele>46.8</ele>
        <time>2022-05-27T10:50:37Z</time>
      </trkpt>
      <trkpt lat="48.5534" lon="-4.3657">
        <ele>47.6</ele>
        <time>2022-05-27T10:50:41Z</time>
      </trkpt>
      <trkpt lat="48.55331" lon="-4.36599">
        <ele>48.1</ele>
        <time>2022-05-27T10:50:44Z</time>
      </trkpt>
      <trkpt lat="48.5531" lon="-4.36666">
        <ele>49.5</ele>
        <time>2022-05-27T10:50:51Z</time>
      </trkpt>
      <trkpt lat="48.55288" lon="-4.36734">
        <ele>50.7</ele>
        <time>2022-05-27T10:50:58Z</time>
      </trkpt>
      <trkpt lat="48.55266" lon="-4.36801">
        <ele>51.6</ele>
        <time>2022-05-27T10:51:05Z</time>
      </trkpt>
      <trkpt lat="48.5525" lon="-4.3685">
        <ele>52.2</ele>
        <time>2022-05-27T10:51:10Z</time>
      </trkpt>
      <trkpt lat="48.55244" lon="-4.36869">
        <ele>52.2</ele>
        <time>2022-05-27T10:51:12Z</time>
      </trkpt>
      <trkpt lat="48.55218" lon="-4.36936">
        <ele>52.1</ele>
        <time>2022-05-27T10:51:19Z</time>
      </trkpt>
      <trkpt lat="48.5519" lon="-4.37003">
        <ele>52</ele>
        <time>2022-05-27T10:51:26Z</time>
      </trkpt>
      <trkpt lat="48.55163" lon="-4.37067">
        <ele>52</ele>
        <time>2022-05-27T10:51:32Z</time>
      </trkpt>
      <trkpt lat="48.55141" lon="-4.37127">
        <ele>51.9</ele>
        <time>2022-05-27T10:51:38Z</time>
      </trkpt>
      <trkpt lat="48.5514" lon="-4.37133">
        <ele>51.9</ele>
        <time>2022-05-27T10:51:39Z</time>
      </trkpt>
      <trkpt lat="48.55141" lon="-4.37135">
        <ele>51.9</ele>
        <time>2022-05-27T10:51:40Z</time>
      </trkpt>
      <trkpt lat="48.55143" lon="-4.3714">
        <ele>51.7</ele>
        <time>2022-05-27T10:51:43Z</time>
      </trkpt>
      <trkpt lat="48.55158" lon="-4.37151">
        <ele>51.5</ele>
        <time>2022-05-27T10:51:46Z</time>
      </trkpt>
      <trkpt lat="48.55187" lon="-4.37173">
        <ele>52.1</ele>
        <time>2022-05-27T10:51:52Z</time>
      </trkpt>
      <trkpt lat="48.55232" lon="-4.37206">
        <ele>52.9</ele>
        <time>2022-05-27T10:52:01Z</time>
      </trkpt>
      <trkpt lat="48.55277" lon="-4.37231">
        <ele>53.8</ele>
        <time>2022-05-27T10:52:10Z</time>
      </trkpt>
      <trkpt lat="48.55324" lon="-4.37247">
        <ele>54.7</ele>
        <time>2022-05-27T10:52:19Z</time>
      </trkpt>
      <trkpt lat="48.55335" lon="-4.37249">
        <ele>54.8</ele>
        <time>2022-05-27T10:52:21Z</time>
      </trkpt>
      <trkpt lat="48.55374" lon="-4.37257">
        <ele>55.4</ele>
        <time>2022-05-27T10:52:28Z</time>
      </trkpt>
      <trkpt lat="48.55419" lon="-4.37267">
        <ele>56</ele>
        <time>2022-05-27T10:52:36Z</time>
      </trkpt>
      <trkpt lat="48.55466" lon="-4.37278">
        <ele>56.6</ele>
        <time>2022-05-27T10:52:44Z</time>
      </trkpt>
      <trkpt lat="48.55514" lon="-4.37289">
        <ele>57.2</ele>
        <time>2022-05-27T10:52:52Z</time>
      </trkpt>
      <trkpt lat="48.55558" lon="-4.37281">
        <ele>57.8</ele>
        <time>2022-05-27T10:52:59Z</time>
      </trkpt>
      <trkpt lat="48.55565" lon="-4.3728">
        <ele>57.8</ele>
        <time>2022-05-27T10:53:00Z</time>
      </trkpt>
      <trkpt lat="48.55608" lon="-4.37275">
        <ele>57</ele>
        <time>2022-05-27T10:53:07Z</time>
      </trkpt>
      <trkpt lat="48.55619" lon="-4.37278">
        <ele>56.7</ele>
        <time>2022-05-27T10:53:09Z</time>
      </trkpt>
      <trkpt lat="48.55639" lon="-4.3735">
        <ele>55.9</ele>
        <time>2022-05-27T10:53:16Z</time>
      </trkpt>
      <trkpt lat="48.55645" lon="-4.37373">
        <ele>55.7</ele>
        <time>2022-05-27T10:53:18Z</time>
      </trkpt>
      <trkpt lat="48.55658" lon="-4.37418">
        <ele>55.8</ele>
        <time>2022-05-27T10:53:22Z</time>
      </trkpt>
      <trkpt lat="48.55667" lon="-4.37438">
        <ele>55.8</ele>
        <time>2022-05-27T10:53:24Z</time>
      </trkpt>
      <trkpt lat="48.55669" lon="-4.37457">
        <ele>55.8</ele>
        <time>2022-05-27T10:53:26Z</time>
      </trkpt>
      <trkpt lat="48.55672" lon="-4.37462">
        <ele>55.8</ele>
        <time>2022-05-27T10:53:27Z</time>
      </trkpt>
      <trkpt lat="48.55672" lon="-4.37479">
        <ele>55.8</ele>
        <time>2022-05-27T10:53:29Z</time>
      </trkpt>
      <trkpt lat="48.55668" lon="-4.37491">
        <ele>55.8</ele>
        <time>2022-05-27T10:53:30Z</time>
      </trkpt>
      <trkpt lat="48.55673" lon="-4.37521">
        <ele>55.9</ele>
        <time>2022-05-27T10:53:33Z</time>
      </trkpt>
      <trkpt lat="48.55672" lon="-4.37533">
        <ele>55.9</ele>
        <time>2022-05-27T10:53:34Z</time>
      </trkpt>
      <trkpt lat="48.55688" lon="-4.37566">
        <ele>56</ele>
        <time>2022-05-27T10:53:38Z</time>
      </trkpt>
      <trkpt lat="48.55722" lon="-4.37615">
        <ele>56.2</ele>
        <time>2022-05-27T10:53:46Z</time>
      </trkpt>
      <trkpt lat="48.55755" lon="-4.37623">
        <ele>56.3</ele>
        <time>2022-05-27T10:53:52Z</time>
      </trkpt>
      <trkpt lat="48.55762" lon="-4.37625">
        <ele>56.4</ele>
        <time>2022-05-27T10:53:54Z</time>
      </trkpt>
      <trkpt lat="48.55768" lon="-4.37688">
        <ele>56.5</ele>
        <time>2022-05-27T10:54:00Z</time>
      </trkpt>
      <trkpt lat="48.55769" lon="-4.37758">
        <ele>56.6</ele>
        <time>2022-05-27T10:54:07Z</time>
      </trkpt>
      <trkpt lat="48.5577" lon="-4.37769">
        <ele>56.7</ele>
        <time>2022-05-27T10:54:08Z</time>
      </trkpt>
      <trkpt lat="48.55766" lon="-4.3784">
        <ele>56.8</ele>
        <time>2022-05-27T10:54:15Z</time>
      </trkpt>
      <trkpt lat="48.55765" lon="-4.37873">
        <ele>56.8</ele>
        <time>2022-05-27T10:54:18Z</time>
      </trkpt>
      <trkpt lat="48.55764" lon="-4.37895">
        <ele>56.7</ele>
        <time>2022-05-27T10:54:20Z</time>
      </trkpt>
      <trkpt lat="48.55759" lon="-4.3794">
        <ele>56.6</ele>
        <time>2022-05-27T10:54:24Z</time>
      </trkpt>
      <trkpt lat="48.55756" lon="-4.37962">
        <ele>56.8</ele>
        <time>2022-05-27T10:54:26Z</time>
      </trkpt>
      <trkpt lat="48.55756" lon="-4.37983">
        <ele>56.9</ele>
        <time>2022-05-27T10:54:28Z</time>
      </trkpt>
      <trkpt lat="48.55759" lon="-4.38003">
        <ele>57.1</ele>
        <time>2022-05-27T10:54:30Z</time>
      </trkpt>
      <trkpt lat="48.55785" lon="-4.38061">
        <ele>57.7</ele>
        <time>2022-05-27T10:54:37Z</time>
      </trkpt>
      <trkpt lat="48.55798" lon="-4.38089">
        <ele>58.1</ele>
        <time>2022-05-27T10:54:41Z</time>
      </trkpt>
      <trkpt lat="48.5581" lon="-4.38117">
        <ele>58.5</ele>
        <time>2022-05-27T10:54:45Z</time>
      </trkpt>
      <trkpt lat="48.55837" lon="-4.38176">
        <ele>59.3</ele>
        <time>2022-05-27T10:54:53Z</time>
      </trkpt>
      <trkpt lat="48.5584" lon="-4.3819">
        <ele>59.2</ele>
        <time>2022-05-27T10:54:55Z</time>
      </trkpt>
      <trkpt lat="48.55844" lon="-4.38256">
        <ele>58.7</ele>
        <time>2022-05-27T10:55:02Z</time>
      </trkpt>
      <trkpt lat="48.55843" lon="-4.38324">
        <ele>58.3</ele>
        <time>2022-05-27T10:55:08Z</time>
      </trkpt>
      <trkpt lat="48.55845" lon="-4.38398">
        <ele>57.8</ele>
        <time>2022-05-27T10:55:15Z</time>
      </trkpt>
      <trkpt lat="48.55848" lon="-4.38467">
        <ele>57.4</ele>
        <time>2022-05-27T10:55:21Z</time>
      </trkpt>
      <trkpt lat="48.55849" lon="-4.38478">
        <ele>57.4</ele>
        <time>2022-05-27T10:55:22Z</time>
      </trkpt>
      <trkpt lat="48.55854" lon="-4.38534">
        <ele>57</ele>
        <time>2022-05-27T10:55:27Z</time>
      </trkpt>
      <trkpt lat="48.55855" lon="-4.38541">
        <ele>56.9</ele>
        <time>2022-05-27T10:55:28Z</time>
      </trkpt>
      <trkpt lat="48.55861" lon="-4.38583">
        <ele>55.4</ele>
        <time>2022-05-27T10:55:34Z</time>
      </trkpt>
      <trkpt lat="48.55864" lon="-4.38605">
        <ele>55.4</ele>
        <time>2022-05-27T10:55:37Z</time>
      </trkpt>
      <trkpt lat="48.5587" lon="-4.38678">
        <ele>55.5</ele>
        <time>2022-05-27T10:55:46Z</time>
      </trkpt>
      <trkpt lat="48.55877" lon="-4.38747">
        <ele>56.8</ele>
        <time>2022-05-27T10:55:54Z</time>
      </trkpt>
      <trkpt lat="48.5588" lon="-4.38783">
        <ele>57.4</ele>
        <time>2022-05-27T10:55:58Z</time>
      </trkpt>
      <trkpt lat="48.55883" lon="-4.3882">
        <ele>57.5</ele>
        <time>2022-05-27T10:56:02Z</time>
      </trkpt>
      <trkpt lat="48.55885" lon="-4.38889">
        <ele>57.7</ele>
        <time>2022-05-27T10:56:09Z</time>
      </trkpt>
      <trkpt lat="48.55888" lon="-4.38898">
        <ele>57.7</ele>
        <time>2022-05-27T10:56:10Z</time>
      </trkpt>
      <trkpt lat="48.5591" lon="-4.38949">
        <ele>57.6</ele>
        <time>2022-05-27T10:56:16Z</time>
      </trkpt>
      <trkpt lat="48.55949" lon="-4.38986">
        <ele>57.5</ele>
        <time>2022-05-27T10:56:23Z</time>
      </trkpt>
      <trkpt lat="48.55991" lon="-4.3902">
        <ele>57.4</ele>
        <time>2022-05-27T10:56:30Z</time>
      </trkpt>
      <trkpt lat="48.56031" lon="-4.39054">
        <ele>57.2</ele>
        <time>2022-05-27T10:56:37Z</time>
      </trkpt>
      <trkpt lat="48.56071" lon="-4.39088">
        <ele>57.1</ele>
        <time>2022-05-27T10:56:44Z</time>
      </trkpt>
      <trkpt lat="48.56112" lon="-4.39128">
        <ele>57</ele>
        <time>2022-05-27T10:56:50Z</time>
      </trkpt>
      <trkpt lat="48.56156" lon="-4.39162">
        <ele>56.9</ele>
        <time>2022-05-27T10:56:56Z</time>
      </trkpt>
      <trkpt lat="48.56164" lon="-4.39167">
        <ele>56.7</ele>
        <time>2022-05-27T10:56:57Z</time>
      </trkpt>
      <trkpt lat="48.56194" lon="-4.39186">
        <ele>54.8</ele>
        <time>2022-05-27T10:57:01Z</time>
      </trkpt>
      <trkpt lat="48.56204" lon="-4.39206">
        <ele>53.8</ele>
        <time>2022-05-27T10:57:03Z</time>
      </trkpt>
      <trkpt lat="48.56224" lon="-4.39246">
        <ele>51.1</ele>
        <time>2022-05-27T10:57:07Z</time>
      </trkpt>
      <trkpt lat="48.56232" lon="-4.39271">
        <ele>50.1</ele>
        <time>2022-05-27T10:57:09Z</time>
      </trkpt>
      <trkpt lat="48.5622" lon="-4.39339">
        <ele>50.3</ele>
        <time>2022-05-27T10:57:18Z</time>
      </trkpt>
      <trkpt lat="48.5622" lon="-4.39339">
        <ele>50.3</ele>
        <time>2022-05-27T10:57:39Z</time>
      </trkpt>
      <trkpt lat="48.56205" lon="-4.39396">
        <ele>50.4</ele>
        <time>2022-05-27T10:57:41Z</time>
      </trkpt>
      <trkpt lat="48.56189" lon="-4.39416">
        <ele>49.9</ele>
        <time>2022-05-27T10:57:44Z</time>
      </trkpt>
      <trkpt lat="48.56178" lon="-4.39428">
        <ele>49.3</ele>
        <time>2022-05-27T10:57:46Z</time>
      </trkpt>
      <trkpt lat="48.56134" lon="-4.39465">
        <ele>47.6</ele>
        <time>2022-05-27T10:57:52Z</time>
      </trkpt>
      <trkpt lat="48.56115" lon="-4.39476">
        <ele>47</ele>
        <time>2022-05-27T10:57:54Z</time>
      </trkpt>
      <trkpt lat="48.56099" lon="-4.39491">
        <ele>46.4</ele>
        <time>2022-05-27T10:57:56Z</time>
      </trkpt>
      <trkpt lat="48.56075" lon="-4.39514">
        <ele>45.7</ele>
        <time>2022-05-27T10:57:59Z</time>
      </trkpt>
      <trkpt lat="48.56037" lon="-4.39552">
        <ele>44.5</ele>
        <time>2022-05-27T10:58:04Z</time>
      </trkpt>
      <trkpt lat="48.5601" lon="-4.39588">
        <ele>43.4</ele>
        <time>2022-05-27T10:58:08Z</time>
      </trkpt>
      <trkpt lat="48.56003" lon="-4.39598">
        <ele>43</ele>
        <time>2022-05-27T10:58:09Z</time>
      </trkpt>
      <trkpt lat="48.55966" lon="-4.39651">
        <ele>40.7</ele>
        <time>2022-05-27T10:58:14Z</time>
      </trkpt>
      <trkpt lat="48.55931" lon="-4.39698">
        <ele>38.8</ele>
        <time>2022-05-27T10:58:18Z</time>
      </trkpt>
      <trkpt lat="48.55912" lon="-4.39721">
        <ele>37.9</ele>
        <time>2022-05-27T10:58:20Z</time>
      </trkpt>
      <trkpt lat="48.55894" lon="-4.39744">
        <ele>36.9</ele>
        <time>2022-05-27T10:58:22Z</time>
      </trkpt>
      <trkpt lat="48.55859" lon="-4.39793">
        <ele>34.8</ele>
        <time>2022-05-27T10:58:26Z</time>
      </trkpt>
      <trkpt lat="48.55825" lon="-4.39845">
        <ele>32</ele>
        <time>2022-05-27T10:58:30Z</time>
      </trkpt>
      <trkpt lat="48.55807" lon="-4.3987">
        <ele>30.7</ele>
        <time>2022-05-27T10:58:32Z</time>
      </trkpt>
      <trkpt lat="48.55789" lon="-4.39895">
        <ele>29.5</ele>
        <time>2022-05-27T10:58:34Z</time>
      </trkpt>
      <trkpt lat="48.55773" lon="-4.39924">
        <ele>28.3</ele>
        <time>2022-05-27T10:58:36Z</time>
      </trkpt>
      <trkpt lat="48.5576" lon="-4.39958">
        <ele>27.2</ele>
        <time>2022-05-27T10:58:38Z</time>
      </trkpt>
      <trkpt lat="48.55746" lon="-4.39992">
        <ele>26</ele>
        <time>2022-05-27T10:58:40Z</time>
      </trkpt>
      <trkpt lat="48.5572" lon="-4.40053">
        <ele>23.9</ele>
        <time>2022-05-27T10:58:44Z</time>
      </trkpt>
      <trkpt lat="48.55702" lon="-4.40096">
        <ele>24.3</ele>
        <time>2022-05-27T10:58:47Z</time>
      </trkpt>
      <trkpt lat="48.55679" lon="-4.40122">
        <ele>24.7</ele>
        <time>2022-05-27T10:58:50Z</time>
      </trkpt>
      <trkpt lat="48.55641" lon="-4.40148">
        <ele>25.5</ele>
        <time>2022-05-27T10:58:55Z</time>
      </trkpt>
      <trkpt lat="48.55635" lon="-4.40152">
        <ele>25.9</ele>
        <time>2022-05-27T10:58:56Z</time>
      </trkpt>
      <trkpt lat="48.55616" lon="-4.40167">
        <ele>27.7</ele>
        <time>2022-05-27T10:59:00Z</time>
      </trkpt>
      <trkpt lat="48.55592" lon="-4.40185">
        <ele>29.6</ele>
        <time>2022-05-27T10:59:05Z</time>
      </trkpt>
      <trkpt lat="48.55563" lon="-4.40205">
        <ele>32.2</ele>
        <time>2022-05-27T10:59:12Z</time>
      </trkpt>
      <trkpt lat="48.5555" lon="-4.40214">
        <ele>33.1</ele>
        <time>2022-05-27T10:59:15Z</time>
      </trkpt>
      <trkpt lat="48.55513" lon="-4.40242">
        <ele>36</ele>
        <time>2022-05-27T10:59:24Z</time>
      </trkpt>
      <trkpt lat="48.55509" lon="-4.40245">
        <ele>36.2</ele>
        <time>2022-05-27T10:59:25Z</time>
      </trkpt>
      <trkpt lat="48.55469" lon="-4.40281">
        <ele>39.2</ele>
        <time>2022-05-27T10:59:36Z</time>
      </trkpt>
      <trkpt lat="48.5544" lon="-4.4034">
        <ele>41.9</ele>
        <time>2022-05-27T10:59:48Z</time>
      </trkpt>
      <trkpt lat="48.55432" lon="-4.40372">
        <ele>43.6</ele>
        <time>2022-05-27T10:59:54Z</time>
      </trkpt>
      <trkpt lat="48.55423" lon="-4.40404">
        <ele>45.1</ele>
        <time>2022-05-27T11:00:00Z</time>
      </trkpt>
      <trkpt lat="48.55408" lon="-4.40434">
        <ele>46.6</ele>
        <time>2022-05-27T11:00:06Z</time>
      </trkpt>
      <trkpt lat="48.55404" lon="-4.40444">
        <ele>46.9</ele>
        <time>2022-05-27T11:00:08Z</time>
      </trkpt>
      <trkpt lat="48.55406" lon="-4.40517">
        <ele>48.6</ele>
        <time>2022-05-27T11:00:20Z</time>
      </trkpt>
      <trkpt lat="48.55415" lon="-4.40535">
        <ele>49</ele>
        <time>2022-05-27T11:00:23Z</time>
      </trkpt>
      <trkpt lat="48.5542" lon="-4.40537">
        <ele>49.1</ele>
        <time>2022-05-27T11:00:24Z</time>
      </trkpt>
      <trkpt lat="48.55453" lon="-4.40553">
        <ele>50</ele>
        <time>2022-05-27T11:00:31Z</time>
      </trkpt>
      <trkpt lat="48.55455" lon="-4.40566">
        <ele>50.3</ele>
        <time>2022-05-27T11:00:33Z</time>
      </trkpt>
      <trkpt lat="48.55453" lon="-4.40571">
        <ele>50.4</ele>
        <time>2022-05-27T11:00:34Z</time>
      </trkpt>
      <trkpt lat="48.55427" lon="-4.40597">
        <ele>51.4</ele>
        <time>2022-05-27T11:00:42Z</time>
      </trkpt>
      <trkpt lat="48.55414" lon="-4.40611">
        <ele>51.9</ele>
        <time>2022-05-27T11:00:46Z</time>
      </trkpt>
      <trkpt lat="48.55385" lon="-4.40646">
        <ele>52.9</ele>
        <time>2022-05-27T11:00:54Z</time>
      </trkpt>
      <trkpt lat="48.55377" lon="-4.40655">
        <ele>53.1</ele>
        <time>2022-05-27T11:00:56Z</time>
      </trkpt>
      <trkpt lat="48.55369" lon="-4.40667">
        <ele>53.2</ele>
        <time>2022-05-27T11:00:58Z</time>
      </trkpt>
      <trkpt lat="48.55362" lon="-4.4068">
        <ele>53.4</ele>
        <time>2022-05-27T11:01:00Z</time>
      </trkpt>
      <trkpt lat="48.55357" lon="-4.40716">
        <ele>53.7</ele>
        <time>2022-05-27T11:01:04Z</time>
      </trkpt>
      <trkpt lat="48.55362" lon="-4.40768">
        <ele>54.1</ele>
        <time>2022-05-27T11:01:10Z</time>
      </trkpt>
      <trkpt lat="48.55361" lon="-4.40842">
        <ele>54.8</ele>
        <time>2022-05-27T11:01:19Z</time>
      </trkpt>
      <trkpt lat="48.55358" lon="-4.40906">
        <ele>55.4</ele>
        <time>2022-05-27T11:01:27Z</time>
      </trkpt>
      <trkpt lat="48.55357" lon="-4.40914">
        <ele>55.5</ele>
        <time>2022-05-27T11:01:28Z</time>
      </trkpt>
      <trkpt lat="48.55351" lon="-4.40952">
        <ele>55.8</ele>
        <time>2022-05-27T11:01:33Z</time>
      </trkpt>
      <trkpt lat="48.55345" lon="-4.40982">
        <ele>56.1</ele>
        <time>2022-05-27T11:01:37Z</time>
      </trkpt>
      <trkpt lat="48.5533" lon="-4.41053">
        <ele>56.7</ele>
        <time>2022-05-27T11:01:46Z</time>
      </trkpt>
      <trkpt lat="48.55314" lon="-4.41098">
        <ele>57.1</ele>
        <time>2022-05-27T11:01:52Z</time>
      </trkpt>
      <trkpt lat="48.55276" lon="-4.41136">
        <ele>57.6</ele>
        <time>2022-05-27T11:02:00Z</time>
      </trkpt>
      <trkpt lat="48.55238" lon="-4.41178">
        <ele>58.1</ele>
        <time>2022-05-27T11:02:08Z</time>
      </trkpt>
      <trkpt lat="48.55208" lon="-4.41232">
        <ele>58.6</ele>
        <time>2022-05-27T11:02:16Z</time>
      </trkpt>
      <trkpt lat="48.55201" lon="-4.41277">
        <ele>58.9</ele>
        <time>2022-05-27T11:02:21Z</time>
      </trkpt>
      <trkpt lat="48.55198" lon="-4.41347">
        <ele>59.6</ele>
        <time>2022-05-27T11:02:29Z</time>
      </trkpt>
      <trkpt lat="48.55186" lon="-4.41415">
        <ele>60.2</ele>
        <time>2022-05-27T11:02:37Z</time>
      </trkpt>
      <trkpt lat="48.55169" lon="-4.41473">
        <ele>60.8</ele>
        <time>2022-05-27T11:02:45Z</time>
      </trkpt>
      <trkpt lat="48.55154" lon="-4.41504">
        <ele>61.1</ele>
        <time>2022-05-27T11:02:49Z</time>
      </trkpt>
      <trkpt lat="48.55153" lon="-4.41535">
        <ele>61.3</ele>
        <time>2022-05-27T11:02:52Z</time>
      </trkpt>
      <trkpt lat="48.55171" lon="-4.41598">
        <ele>61.8</ele>
        <time>2022-05-27T11:02:59Z</time>
      </trkpt>
      <trkpt lat="48.55196" lon="-4.41661">
        <ele>62.4</ele>
        <time>2022-05-27T11:03:07Z</time>
      </trkpt>
      <trkpt lat="48.55225" lon="-4.41717">
        <ele>62.4</ele>
        <time>2022-05-27T11:03:15Z</time>
      </trkpt>
      <trkpt lat="48.55255" lon="-4.41772">
        <ele>62.4</ele>
        <time>2022-05-27T11:03:23Z</time>
      </trkpt>
      <trkpt lat="48.55291" lon="-4.41822">
        <ele>62.4</ele>
        <time>2022-05-27T11:03:32Z</time>
      </trkpt>
      <trkpt lat="48.55322" lon="-4.41879">
        <ele>62.4</ele>
        <time>2022-05-27T11:03:40Z</time>
      </trkpt>
      <trkpt lat="48.55353" lon="-4.41934">
        <ele>62.4</ele>
        <time>2022-05-27T11:03:47Z</time>
      </trkpt>
      <trkpt lat="48.55385" lon="-4.41986">
        <ele>62.4</ele>
        <time>2022-05-27T11:03:54Z</time>
      </trkpt>
      <trkpt lat="48.55415" lon="-4.42043">
        <ele>62.4</ele>
        <time>2022-05-27T11:04:01Z</time>
      </trkpt>
      <trkpt lat="48.55446" lon="-4.42104">
        <ele>62.4</ele>
        <time>2022-05-27T11:04:08Z</time>
      </trkpt>
      <trkpt lat="48.55456" lon="-4.42132">
        <ele>62.4</ele>
        <time>2022-05-27T11:04:11Z</time>
      </trkpt>
      <trkpt lat="48.55469" lon="-4.4217">
        <ele>62.1</ele>
        <time>2022-05-27T11:04:15Z</time>
      </trkpt>
      <trkpt lat="48.55472" lon="-4.4219">
        <ele>62</ele>
        <time>2022-05-27T11:04:17Z</time>
      </trkpt>
      <trkpt lat="48.55479" lon="-4.4224">
        <ele>61.8</ele>
        <time>2022-05-27T11:04:22Z</time>
      </trkpt>
      <trkpt lat="48.55487" lon="-4.42315">
        <ele>61.5</ele>
        <time>2022-05-27T11:04:29Z</time>
      </trkpt>
      <trkpt lat="48.55495" lon="-4.42388">
        <ele>61.2</ele>
        <time>2022-05-27T11:04:36Z</time>
      </trkpt>
      <trkpt lat="48.55504" lon="-4.4246">
        <ele>60.9</ele>
        <time>2022-05-27T11:04:43Z</time>
      </trkpt>
      <trkpt lat="48.5551" lon="-4.4253">
        <ele>60.6</ele>
        <time>2022-05-27T11:04:50Z</time>
      </trkpt>
      <trkpt lat="48.55516" lon="-4.42604">
        <ele>60.2</ele>
        <time>2022-05-27T11:04:57Z</time>
      </trkpt>
      <trkpt lat="48.55525" lon="-4.42679">
        <ele>59.9</ele>
        <time>2022-05-27T11:05:04Z</time>
      </trkpt>
      <trkpt lat="48.55536" lon="-4.42746">
        <ele>59.7</ele>
        <time>2022-05-27T11:05:10Z</time>
      </trkpt>
      <trkpt lat="48.55548" lon="-4.42822">
        <ele>59.4</ele>
        <time>2022-05-27T11:05:17Z</time>
      </trkpt>
      <trkpt lat="48.55558" lon="-4.42898">
        <ele>59</ele>
        <time>2022-05-27T11:05:24Z</time>
      </trkpt>
      <trkpt lat="48.55561" lon="-4.4292">
        <ele>59</ele>
        <time>2022-05-27T11:05:26Z</time>
      </trkpt>
      <trkpt lat="48.55568" lon="-4.42973">
        <ele>58.7</ele>
        <time>2022-05-27T11:05:31Z</time>
      </trkpt>
      <trkpt lat="48.55574" lon="-4.43048">
        <ele>58.3</ele>
        <time>2022-05-27T11:05:38Z</time>
      </trkpt>
      <trkpt lat="48.55578" lon="-4.43121">
        <ele>57.9</ele>
        <time>2022-05-27T11:05:45Z</time>
      </trkpt>
      <trkpt lat="48.55578" lon="-4.43196">
        <ele>57.5</ele>
        <time>2022-05-27T11:05:52Z</time>
      </trkpt>
      <trkpt lat="48.55575" lon="-4.43216">
        <ele>57.4</ele>
        <time>2022-05-27T11:05:54Z</time>
      </trkpt>
      <trkpt lat="48.5555" lon="-4.43275">
        <ele>57.1</ele>
        <time>2022-05-27T11:06:00Z</time>
      </trkpt>
      <trkpt lat="48.55526" lon="-4.43332">
        <ele>56.7</ele>
        <time>2022-05-27T11:06:06Z</time>
      </trkpt>
      <trkpt lat="48.55517" lon="-4.43351">
        <ele>56.6</ele>
        <time>2022-05-27T11:06:08Z</time>
      </trkpt>
      <trkpt lat="48.55505" lon="-4.43379">
        <ele>56.6</ele>
        <time>2022-05-27T11:06:11Z</time>
      </trkpt>
      <trkpt lat="48.55498" lon="-4.43413">
        <ele>56.5</ele>
        <time>2022-05-27T11:06:14Z</time>
      </trkpt>
      <trkpt lat="48.55494" lon="-4.43436">
        <ele>56.5</ele>
        <time>2022-05-27T11:06:16Z</time>
      </trkpt>
      <trkpt lat="48.55495" lon="-4.43472">
        <ele>56.4</ele>
        <time>2022-05-27T11:06:19Z</time>
      </trkpt>
      <trkpt lat="48.55501" lon="-4.43548">
        <ele>56.2</ele>
        <time>2022-05-27T11:06:26Z</time>
      </trkpt>
      <trkpt lat="48.55501" lon="-4.43625">
        <ele>56</ele>
        <time>2022-05-27T11:06:33Z</time>
      </trkpt>
      <trkpt lat="48.55497" lon="-4.43702">
        <ele>55.8</ele>
        <time>2022-05-27T11:06:40Z</time>
      </trkpt>
      <trkpt lat="48.55495" lon="-4.4377">
        <ele>55.7</ele>
        <time>2022-05-27T11:06:46Z</time>
      </trkpt>
      <trkpt lat="48.55488" lon="-4.43847">
        <ele>55.5</ele>
        <time>2022-05-27T11:06:53Z</time>
      </trkpt>
      <trkpt lat="48.55476" lon="-4.43915">
        <ele>55.3</ele>
        <time>2022-05-27T11:06:59Z</time>
      </trkpt>
      <trkpt lat="48.55472" lon="-4.43972">
        <ele>55.2</ele>
        <time>2022-05-27T11:07:04Z</time>
      </trkpt>
      <trkpt lat="48.55468" lon="-4.44006">
        <ele>55.1</ele>
        <time>2022-05-27T11:07:07Z</time>
      </trkpt>
      <trkpt lat="48.55474" lon="-4.4408">
        <ele>54.9</ele>
        <time>2022-05-27T11:07:14Z</time>
      </trkpt>
      <trkpt lat="48.55481" lon="-4.44151">
        <ele>54.7</ele>
        <time>2022-05-27T11:07:21Z</time>
      </trkpt>
      <trkpt lat="48.5548" lon="-4.44205">
        <ele>54.6</ele>
        <time>2022-05-27T11:07:26Z</time>
      </trkpt>
      <trkpt lat="48.55466" lon="-4.44258">
        <ele>54.5</ele>
        <time>2022-05-27T11:07:31Z</time>
      </trkpt>
      <trkpt lat="48.55447" lon="-4.44299">
        <ele>54.4</ele>
        <time>2022-05-27T11:07:35Z</time>
      </trkpt>
      <trkpt lat="48.55446" lon="-4.44312">
        <ele>54.3</ele>
        <time>2022-05-27T11:07:36Z</time>
      </trkpt>
      <trkpt lat="48.55444" lon="-4.44337">
        <ele>54.2</ele>
        <time>2022-05-27T11:07:38Z</time>
      </trkpt>
      <trkpt lat="48.55448" lon="-4.44361">
        <ele>54.1</ele>
        <time>2022-05-27T11:07:40Z</time>
      </trkpt>
      <trkpt lat="48.55454" lon="-4.44383">
        <ele>54</ele>
        <time>2022-05-27T11:07:42Z</time>
      </trkpt>
      <trkpt lat="48.55464" lon="-4.44427">
        <ele>53.6</ele>
        <time>2022-05-27T11:07:46Z</time>
      </trkpt>
      <trkpt lat="48.55467" lon="-4.44473">
        <ele>53.2</ele>
        <time>2022-05-27T11:07:50Z</time>
      </trkpt>
      <trkpt lat="48.55454" lon="-4.44544">
        <ele>52.7</ele>
        <time>2022-05-27T11:07:56Z</time>
      </trkpt>
      <trkpt lat="48.55432" lon="-4.44611">
        <ele>52.1</ele>
        <time>2022-05-27T11:08:02Z</time>
      </trkpt>
      <trkpt lat="48.55405" lon="-4.4468">
        <ele>51.5</ele>
        <time>2022-05-27T11:08:09Z</time>
      </trkpt>
      <trkpt lat="48.55376" lon="-4.44735">
        <ele>50.9</ele>
        <time>2022-05-27T11:08:15Z</time>
      </trkpt>
      <trkpt lat="48.55363" lon="-4.44757">
        <ele>50.6</ele>
        <time>2022-05-27T11:08:18Z</time>
      </trkpt>
      <trkpt lat="48.55346" lon="-4.44785">
        <ele>50.5</ele>
        <time>2022-05-27T11:08:22Z</time>
      </trkpt>
      <trkpt lat="48.55339" lon="-4.44797">
        <ele>50.4</ele>
        <time>2022-05-27T11:08:25Z</time>
      </trkpt>
      <trkpt lat="48.55327" lon="-4.44808">
        <ele>50.2</ele>
        <time>2022-05-27T11:08:30Z</time>
      </trkpt>
      <trkpt lat="48.55291" lon="-4.44857">
        <ele>49.8</ele>
        <time>2022-05-27T11:08:40Z</time>
      </trkpt>
      <trkpt lat="48.55253" lon="-4.44898">
        <ele>49.6</ele>
        <time>2022-05-27T11:08:47Z</time>
      </trkpt>
      <trkpt lat="48.55207" lon="-4.44928">
        <ele>49.3</ele>
        <time>2022-05-27T11:08:54Z</time>
      </trkpt>
      <trkpt lat="48.55159" lon="-4.44954">
        <ele>49</ele>
        <time>2022-05-27T11:09:01Z</time>
      </trkpt>
      <trkpt lat="48.55118" lon="-4.44966">
        <ele>48.8</ele>
        <time>2022-05-27T11:09:07Z</time>
      </trkpt>
      <trkpt lat="48.55106" lon="-4.44967">
        <ele>48.7</ele>
        <time>2022-05-27T11:09:09Z</time>
      </trkpt>
      <trkpt lat="48.55076" lon="-4.44966">
        <ele>48.6</ele>
        <time>2022-05-27T11:09:13Z</time>
      </trkpt>
      <trkpt lat="48.55052" lon="-4.44991">
        <ele>48.4</ele>
        <time>2022-05-27T11:09:17Z</time>
      </trkpt>
      <trkpt lat="48.55046" lon="-4.44997">
        <ele>48.4</ele>
        <time>2022-05-27T11:09:18Z</time>
      </trkpt>
      <trkpt lat="48.55041" lon="-4.45016">
        <ele>48.3</ele>
        <time>2022-05-27T11:09:20Z</time>
      </trkpt>
      <trkpt lat="48.55044" lon="-4.45056">
        <ele>48.2</ele>
        <time>2022-05-27T11:09:24Z</time>
      </trkpt>
      <trkpt lat="48.55053" lon="-4.45085">
        <ele>48.1</ele>
        <time>2022-05-27T11:09:27Z</time>
      </trkpt>
      <trkpt lat="48.55062" lon="-4.45156">
        <ele>47.8</ele>
        <time>2022-05-27T11:09:34Z</time>
      </trkpt>
      <trkpt lat="48.55055" lon="-4.4518">
        <ele>47.7</ele>
        <time>2022-05-27T11:09:36Z</time>
      </trkpt>
      <trkpt lat="48.55051" lon="-4.45187">
        <ele>47.7</ele>
        <time>2022-05-27T11:09:37Z</time>
      </trkpt>
      <trkpt lat="48.55051" lon="-4.45191">
        <ele>47.7</ele>
        <time>2022-05-27T11:09:38Z</time>
      </trkpt>
      <trkpt lat="48.55047" lon="-4.452">
        <ele>47.6</ele>
        <time>2022-05-27T11:09:39Z</time>
      </trkpt>
      <trkpt lat="48.55023" lon="-4.45247">
        <ele>47</ele>
        <time>2022-05-27T11:09:44Z</time>
      </trkpt>
      <trkpt lat="48.55019" lon="-4.45256">
        <ele>46.9</ele>
        <time>2022-05-27T11:09:45Z</time>
      </trkpt>
      <trkpt lat="48.54995" lon="-4.45312">
        <ele>46.3</ele>
        <time>2022-05-27T11:09:51Z</time>
      </trkpt>
      <trkpt lat="48.54968" lon="-4.45366">
        <ele>45.1</ele>
        <time>2022-05-27T11:09:57Z</time>
      </trkpt>
      <trkpt lat="48.54932" lon="-4.45407">
        <ele>44</ele>
        <time>2022-05-27T11:10:03Z</time>
      </trkpt>
      <trkpt lat="48.54901" lon="-4.45445">
        <ele>43.2</ele>
        <time>2022-05-27T11:10:08Z</time>
      </trkpt>
      <trkpt lat="48.54882" lon="-4.45515">
        <ele>42.1</ele>
        <time>2022-05-27T11:10:14Z</time>
      </trkpt>
      <trkpt lat="48.54882" lon="-4.45527">
        <ele>42</ele>
        <time>2022-05-27T11:10:15Z</time>
      </trkpt>
      <trkpt lat="48.54881" lon="-4.45539">
        <ele>42</ele>
        <time>2022-05-27T11:10:16Z</time>
      </trkpt>
      <trkpt lat="48.54888" lon="-4.456">
        <ele>41.8</ele>
        <time>2022-05-27T11:10:21Z</time>
      </trkpt>
      <trkpt lat="48.54897" lon="-4.45671">
        <ele>43.1</ele>
        <time>2022-05-27T11:10:28Z</time>
      </trkpt>
      <trkpt lat="48.54899" lon="-4.4571">
        <ele>43.9</ele>
        <time>2022-05-27T11:10:32Z</time>
      </trkpt>
      <trkpt lat="48.54901" lon="-4.4574">
        <ele>44</ele>
        <time>2022-05-27T11:10:35Z</time>
      </trkpt>
      <trkpt lat="48.54903" lon="-4.4577">
        <ele>44.2</ele>
        <time>2022-05-27T11:10:38Z</time>
      </trkpt>
      <trkpt lat="48.54903" lon="-4.4579">
        <ele>44</ele>
        <time>2022-05-27T11:10:40Z</time>
      </trkpt>
      <trkpt lat="48.54889" lon="-4.45858">
        <ele>43.2</ele>
        <time>2022-05-27T11:10:47Z</time>
      </trkpt>
      <trkpt lat="48.54884" lon="-4.45891">
        <ele>42.9</ele>
        <time>2022-05-27T11:10:50Z</time>
      </trkpt>
      <trkpt lat="48.54882" lon="-4.45947">
        <ele>42.4</ele>
        <time>2022-05-27T11:10:55Z</time>
      </trkpt>
      <trkpt lat="48.54884" lon="-4.45959">
        <ele>42.3</ele>
        <time>2022-05-27T11:10:56Z</time>
      </trkpt>
      <trkpt lat="48.54897" lon="-4.46014">
        <ele>42</ele>
        <time>2022-05-27T11:11:01Z</time>
      </trkpt>
      <trkpt lat="48.54901" lon="-4.46024">
        <ele>42</ele>
        <time>2022-05-27T11:11:02Z</time>
      </trkpt>
      <trkpt lat="48.54917" lon="-4.46075">
        <ele>42.2</ele>
        <time>2022-05-27T11:11:07Z</time>
      </trkpt>
      <trkpt lat="48.5494" lon="-4.46145">
        <ele>42.5</ele>
        <time>2022-05-27T11:11:14Z</time>
      </trkpt>
      <trkpt lat="48.54962" lon="-4.46213">
        <ele>42.8</ele>
        <time>2022-05-27T11:11:21Z</time>
      </trkpt>
      <trkpt lat="48.54987" lon="-4.46276">
        <ele>43</ele>
        <time>2022-05-27T11:11:28Z</time>
      </trkpt>
      <trkpt lat="48.55016" lon="-4.46329">
        <ele>43.3</ele>
        <time>2022-05-27T11:11:35Z</time>
      </trkpt>
      <trkpt lat="48.55034" lon="-4.46357">
        <ele>43.5</ele>
        <time>2022-05-27T11:11:39Z</time>
      </trkpt>
      <trkpt lat="48.55059" lon="-4.46413">
        <ele>43.7</ele>
        <time>2022-05-27T11:11:45Z</time>
      </trkpt>
      <trkpt lat="48.55083" lon="-4.46476">
        <ele>44</ele>
        <time>2022-05-27T11:11:52Z</time>
      </trkpt>
      <trkpt lat="48.55106" lon="-4.46539">
        <ele>44.3</ele>
        <time>2022-05-27T11:11:59Z</time>
      </trkpt>
      <trkpt lat="48.55128" lon="-4.46604">
        <ele>44.6</ele>
        <time>2022-05-27T11:12:06Z</time>
      </trkpt>
      <trkpt lat="48.55149" lon="-4.4667">
        <ele>44.9</ele>
        <time>2022-05-27T11:12:13Z</time>
      </trkpt>
      <trkpt lat="48.55159" lon="-4.46709">
        <ele>45</ele>
        <time>2022-05-27T11:12:17Z</time>
      </trkpt>
      <trkpt lat="48.55167" lon="-4.46738">
        <ele>44.9</ele>
        <time>2022-05-27T11:12:20Z</time>
      </trkpt>
      <trkpt lat="48.55186" lon="-4.46803">
        <ele>44.7</ele>
        <time>2022-05-27T11:12:27Z</time>
      </trkpt>
      <trkpt lat="48.55207" lon="-4.46874">
        <ele>44.5</ele>
        <time>2022-05-27T11:12:34Z</time>
      </trkpt>
      <trkpt lat="48.55226" lon="-4.46945">
        <ele>44.3</ele>
        <time>2022-05-27T11:12:41Z</time>
      </trkpt>
      <trkpt lat="48.55246" lon="-4.47017">
        <ele>44.1</ele>
        <time>2022-05-27T11:12:48Z</time>
      </trkpt>
      <trkpt lat="48.55265" lon="-4.47087">
        <ele>43.9</ele>
        <time>2022-05-27T11:12:55Z</time>
      </trkpt>
      <trkpt lat="48.55282" lon="-4.47153">
        <ele>43.8</ele>
        <time>2022-05-27T11:13:01Z</time>
      </trkpt>
      <trkpt lat="48.55297" lon="-4.47218">
        <ele>43.6</ele>
        <time>2022-05-27T11:13:07Z</time>
      </trkpt>
      <trkpt lat="48.55316" lon="-4.47282">
        <ele>43.4</ele>
        <time>2022-05-27T11:13:13Z</time>
      </trkpt>
      <trkpt lat="48.55327" lon="-4.47329">
        <ele>43.3</ele>
        <time>2022-05-27T11:13:17Z</time>
      </trkpt>
      <trkpt lat="48.55333" lon="-4.47352">
        <ele>43.1</ele>
        <time>2022-05-27T11:13:19Z</time>
      </trkpt>
      <trkpt lat="48.55346" lon="-4.47396">
        <ele>42.8</ele>
        <time>2022-05-27T11:13:23Z</time>
      </trkpt>
      <trkpt lat="48.55353" lon="-4.47418">
        <ele>42.4</ele>
        <time>2022-05-27T11:13:25Z</time>
      </trkpt>
      <trkpt lat="48.55365" lon="-4.47462">
        <ele>41.7</ele>
        <time>2022-05-27T11:13:29Z</time>
      </trkpt>
      <trkpt lat="48.55371" lon="-4.47483">
        <ele>41.5</ele>
        <time>2022-05-27T11:13:31Z</time>
      </trkpt>
      <trkpt lat="48.55391" lon="-4.47548">
        <ele>40.8</ele>
        <time>2022-05-27T11:13:37Z</time>
      </trkpt>
      <trkpt lat="48.55406" lon="-4.47616">
        <ele>40</ele>
        <time>2022-05-27T11:13:43Z</time>
      </trkpt>
      <trkpt lat="48.55414" lon="-4.47653">
        <ele>39.7</ele>
        <time>2022-05-27T11:13:46Z</time>
      </trkpt>
      <trkpt lat="48.55416" lon="-4.47665">
        <ele>39.7</ele>
        <time>2022-05-27T11:13:47Z</time>
      </trkpt>
      <trkpt lat="48.5542" lon="-4.47704">
        <ele>39.7</ele>
        <time>2022-05-27T11:13:50Z</time>
      </trkpt>
      <trkpt lat="48.5542" lon="-4.47731">
        <ele>39.7</ele>
        <time>2022-05-27T11:13:52Z</time>
      </trkpt>
      <trkpt lat="48.55426" lon="-4.47755">
        <ele>39.8</ele>
        <time>2022-05-27T11:13:54Z</time>
      </trkpt>
      <trkpt lat="48.55444" lon="-4.47807">
        <ele>39.8</ele>
        <time>2022-05-27T11:13:59Z</time>
      </trkpt>
      <trkpt lat="48.55452" lon="-4.47874">
        <ele>39.8</ele>
        <time>2022-05-27T11:14:05Z</time>
      </trkpt>
      <trkpt lat="48.55463" lon="-4.47937">
        <ele>39.9</ele>
        <time>2022-05-27T11:14:11Z</time>
      </trkpt>
      <trkpt lat="48.55498" lon="-4.47989">
        <ele>39.9</ele>
        <time>2022-05-27T11:14:18Z</time>
      </trkpt>
      <trkpt lat="48.5553" lon="-4.4804">
        <ele>40</ele>
        <time>2022-05-27T11:14:25Z</time>
      </trkpt>
      <trkpt lat="48.55558" lon="-4.48086">
        <ele>40</ele>
        <time>2022-05-27T11:14:31Z</time>
      </trkpt>
      <trkpt lat="48.55593" lon="-4.48144">
        <ele>40.1</ele>
        <time>2022-05-27T11:14:38Z</time>
      </trkpt>
      <trkpt lat="48.55626" lon="-4.48201">
        <ele>40.1</ele>
        <time>2022-05-27T11:14:45Z</time>
      </trkpt>
      <trkpt lat="48.55649" lon="-4.48242">
        <ele>40.2</ele>
        <time>2022-05-27T11:14:50Z</time>
      </trkpt>
      <trkpt lat="48.5567" lon="-4.48309">
        <ele>40.2</ele>
        <time>2022-05-27T11:14:57Z</time>
      </trkpt>
      <trkpt lat="48.55686" lon="-4.48382">
        <ele>40.3</ele>
        <time>2022-05-27T11:15:04Z</time>
      </trkpt>
      <trkpt lat="48.55702" lon="-4.48447">
        <ele>40.3</ele>
        <time>2022-05-27T11:15:10Z</time>
      </trkpt>
      <trkpt lat="48.55716" lon="-4.48512">
        <ele>40.4</ele>
        <time>2022-05-27T11:15:16Z</time>
      </trkpt>
      <trkpt lat="48.55729" lon="-4.48577">
        <ele>40.4</ele>
        <time>2022-05-27T11:15:22Z</time>
      </trkpt>
      <trkpt lat="48.55724" lon="-4.48636">
        <ele>40.5</ele>
        <time>2022-05-27T11:15:27Z</time>
      </trkpt>
      <trkpt lat="48.55719" lon="-4.48657">
        <ele>40.5</ele>
        <time>2022-05-27T11:15:29Z</time>
      </trkpt>
      <trkpt lat="48.55698" lon="-4.48727">
        <ele>40.5</ele>
        <time>2022-05-27T11:15:36Z</time>
      </trkpt>
      <trkpt lat="48.55696" lon="-4.48767">
        <ele>40.6</ele>
        <time>2022-05-27T11:15:39Z</time>
      </trkpt>
      <trkpt lat="48.55705" lon="-4.48837">
        <ele>40.6</ele>
        <time>2022-05-27T11:15:45Z</time>
      </trkpt>
      <trkpt lat="48.55713" lon="-4.48908">
        <ele>40.7</ele>
        <time>2022-05-27T11:15:51Z</time>
      </trkpt>
      <trkpt lat="48.55719" lon="-4.48955">
        <ele>40.7</ele>
        <time>2022-05-27T11:15:55Z</time>
      </trkpt>
      <trkpt lat="48.55722" lon="-4.48965">
        <ele>40.7</ele>
        <time>2022-05-27T11:15:56Z</time>
      </trkpt>
      <trkpt lat="48.5573" lon="-4.49031">
        <ele>40.7</ele>
        <time>2022-05-27T11:16:02Z</time>
      </trkpt>
      <trkpt lat="48.55735" lon="-4.49044">
        <ele>40.8</ele>
        <time>2022-05-27T11:16:04Z</time>
      </trkpt>
      <trkpt lat="48.55757" lon="-4.4906">
        <ele>40.8</ele>
        <time>2022-05-27T11:16:08Z</time>
      </trkpt>
      <trkpt lat="48.55776" lon="-4.49075">
        <ele>40.8</ele>
        <time>2022-05-27T11:16:11Z</time>
      </trkpt>
      <trkpt lat="48.55786" lon="-4.49101">
        <ele>40.8</ele>
        <time>2022-05-27T11:16:14Z</time>
      </trkpt>
      <trkpt lat="48.5579" lon="-4.49158">
        <ele>40.8</ele>
        <time>2022-05-27T11:16:20Z</time>
      </trkpt>
      <trkpt lat="48.55791" lon="-4.49177">
        <ele>40.7</ele>
        <time>2022-05-27T11:16:22Z</time>
      </trkpt>
      <trkpt lat="48.55797" lon="-4.49218">
        <ele>40.1</ele>
        <time>2022-05-27T11:16:26Z</time>
      </trkpt>
      <trkpt lat="48.55801" lon="-4.49248">
        <ele>38.4</ele>
        <time>2022-05-27T11:16:29Z</time>
      </trkpt>
      <trkpt lat="48.55805" lon="-4.49276">
        <ele>36.6</ele>
        <time>2022-05-27T11:16:32Z</time>
      </trkpt>
      <trkpt lat="48.55811" lon="-4.49302">
        <ele>34.9</ele>
        <time>2022-05-27T11:16:35Z</time>
      </trkpt>
      <trkpt lat="48.55832" lon="-4.4932">
        <ele>33.4</ele>
        <time>2022-05-27T11:16:38Z</time>
      </trkpt>
      <trkpt lat="48.55853" lon="-4.49337">
        <ele>33.1</ele>
        <time>2022-05-27T11:16:41Z</time>
      </trkpt>
      <trkpt lat="48.55897" lon="-4.49373">
        <ele>32.5</ele>
        <time>2022-05-27T11:16:48Z</time>
      </trkpt>
      <trkpt lat="48.5591" lon="-4.49385">
        <ele>32.4</ele>
        <time>2022-05-27T11:16:50Z</time>
      </trkpt>
      <trkpt lat="48.55936" lon="-4.49408">
        <ele>32.3</ele>
        <time>2022-05-27T11:16:54Z</time>
      </trkpt>
      <trkpt lat="48.55963" lon="-4.49432">
        <ele>32.3</ele>
        <time>2022-05-27T11:16:58Z</time>
      </trkpt>
      <trkpt lat="48.55976" lon="-4.49444">
        <ele>32.3</ele>
        <time>2022-05-27T11:17:00Z</time>
      </trkpt>
      <trkpt lat="48.5601" lon="-4.49473">
        <ele>32.3</ele>
        <time>2022-05-27T11:17:05Z</time>
      </trkpt>
      <trkpt lat="48.56051" lon="-4.49517">
        <ele>32.3</ele>
        <time>2022-05-27T11:17:12Z</time>
      </trkpt>
      <trkpt lat="48.5608" lon="-4.49556">
        <ele>32.4</ele>
        <time>2022-05-27T11:17:18Z</time>
      </trkpt>
      <trkpt lat="48.56107" lon="-4.49616">
        <ele>33.8</ele>
        <time>2022-05-27T11:17:26Z</time>
      </trkpt>
      <trkpt lat="48.56129" lon="-4.49681">
        <ele>35.2</ele>
        <time>2022-05-27T11:17:34Z</time>
      </trkpt>
      <trkpt lat="48.56131" lon="-4.49691">
        <ele>35.3</ele>
        <time>2022-05-27T11:17:35Z</time>
      </trkpt>
      <trkpt lat="48.56141" lon="-4.49747">
        <ele>35.4</ele>
        <time>2022-05-27T11:17:41Z</time>
      </trkpt>
      <trkpt lat="48.5615" lon="-4.49821">
        <ele>36</ele>
        <time>2022-05-27T11:17:48Z</time>
      </trkpt>
      <trkpt lat="48.5615" lon="-4.49844">
        <ele>36.2</ele>
        <time>2022-05-27T11:17:50Z</time>
      </trkpt>
      <trkpt lat="48.56147" lon="-4.49866">
        <ele>36.3</ele>
        <time>2022-05-27T11:17:52Z</time>
      </trkpt>
      <trkpt lat="48.56139" lon="-4.49943">
        <ele>36.9</ele>
        <time>2022-05-27T11:17:59Z</time>
      </trkpt>
      <trkpt lat="48.56134" lon="-4.50021">
        <ele>37.4</ele>
        <time>2022-05-27T11:18:06Z</time>
      </trkpt>
      <trkpt lat="48.5613" lon="-4.50051">
        <ele>37.7</ele>
        <time>2022-05-27T11:18:09Z</time>
      </trkpt>
      <trkpt lat="48.56126" lon="-4.50092">
        <ele>38.1</ele>
        <time>2022-05-27T11:18:13Z</time>
      </trkpt>
      <trkpt lat="48.56119" lon="-4.50162">
        <ele>38.7</ele>
        <time>2022-05-27T11:18:20Z</time>
      </trkpt>
      <trkpt lat="48.56119" lon="-4.50172">
        <ele>38.9</ele>
        <time>2022-05-27T11:18:21Z</time>
      </trkpt>
      <trkpt lat="48.56115" lon="-4.5023">
        <ele>39.9</ele>
        <time>2022-05-27T11:18:27Z</time>
      </trkpt>
      <trkpt lat="48.56109" lon="-4.50302">
        <ele>40.6</ele>
        <time>2022-05-27T11:18:36Z</time>
      </trkpt>
      <trkpt lat="48.56108" lon="-4.50378">
        <ele>39.9</ele>
        <time>2022-05-27T11:18:40Z</time>
      </trkpt>
      <trkpt lat="48.56108" lon="-4.50378">
        <ele>39.9</ele>
        <time>2022-05-27T11:20:23Z</time>
      </trkpt>
      <trkpt lat="48.56108" lon="-4.50445">
        <ele>39</ele>
        <time>2022-05-27T11:20:32Z</time>
      </trkpt>
      <trkpt lat="48.56118" lon="-4.50513">
        <ele>38.8</ele>
        <time>2022-05-27T11:20:41Z</time>
      </trkpt>
      <trkpt lat="48.56138" lon="-4.50575">
        <ele>38.7</ele>
        <time>2022-05-27T11:20:49Z</time>
      </trkpt>
      <trkpt lat="48.56154" lon="-4.50613">
        <ele>38.6</ele>
        <time>2022-05-27T11:20:54Z</time>
      </trkpt>
      <trkpt lat="48.56153" lon="-4.50632">
        <ele>38.6</ele>
        <time>2022-05-27T11:20:56Z</time>
      </trkpt>
      <trkpt lat="48.56146" lon="-4.50669">
        <ele>38.5</ele>
        <time>2022-05-27T11:21:00Z</time>
      </trkpt>
      <trkpt lat="48.56144" lon="-4.50743">
        <ele>38.4</ele>
        <time>2022-05-27T11:21:08Z</time>
      </trkpt>
      <trkpt lat="48.56131" lon="-4.50811">
        <ele>38.3</ele>
        <time>2022-05-27T11:21:15Z</time>
      </trkpt>
      <trkpt lat="48.56103" lon="-4.50875">
        <ele>38.2</ele>
        <time>2022-05-27T11:21:22Z</time>
      </trkpt>
      <trkpt lat="48.56061" lon="-4.50922">
        <ele>38.1</ele>
        <time>2022-05-27T11:21:29Z</time>
      </trkpt>
      <trkpt lat="48.56027" lon="-4.50946">
        <ele>38</ele>
        <time>2022-05-27T11:21:34Z</time>
      </trkpt>
      <trkpt lat="48.56003" lon="-4.50972">
        <ele>37.9</ele>
        <time>2022-05-27T11:21:38Z</time>
      </trkpt>
      <trkpt lat="48.56006" lon="-4.50997">
        <ele>37.9</ele>
        <time>2022-05-27T11:21:39Z</time>
      </trkpt>
      <trkpt lat="48.56025" lon="-4.51037">
        <ele>37.8</ele>
        <time>2022-05-27T11:21:43Z</time>
      </trkpt>
      <trkpt lat="48.56034" lon="-4.51057">
        <ele>37.4</ele>
        <time>2022-05-27T11:21:45Z</time>
      </trkpt>
      <trkpt lat="48.56056" lon="-4.51096">
        <ele>36.7</ele>
        <time>2022-05-27T11:21:49Z</time>
      </trkpt>
      <trkpt lat="48.5609" lon="-4.51152">
        <ele>35.7</ele>
        <time>2022-05-27T11:21:55Z</time>
      </trkpt>
      <trkpt lat="48.56115" lon="-4.51198">
        <ele>34.8</ele>
        <time>2022-05-27T11:22:00Z</time>
      </trkpt>
      <trkpt lat="48.5612" lon="-4.51207">
        <ele>34.7</ele>
        <time>2022-05-27T11:22:01Z</time>
      </trkpt>
      <trkpt lat="48.5614" lon="-4.51253">
        <ele>34.1</ele>
        <time>2022-05-27T11:22:06Z</time>
      </trkpt>
      <trkpt lat="48.56148" lon="-4.51271">
        <ele>33.8</ele>
        <time>2022-05-27T11:22:08Z</time>
      </trkpt>
      <trkpt lat="48.56162" lon="-4.51312">
        <ele>33</ele>
        <time>2022-05-27T11:22:13Z</time>
      </trkpt>
      <trkpt lat="48.56139" lon="-4.51365">
        <ele>32.3</ele>
        <time>2022-05-27T11:22:18Z</time>
      </trkpt>
      <trkpt lat="48.56136" lon="-4.51437">
        <ele>31.9</ele>
        <time>2022-05-27T11:22:25Z</time>
      </trkpt>
      <trkpt lat="48.56139" lon="-4.5149">
        <ele>31.6</ele>
        <time>2022-05-27T11:22:30Z</time>
      </trkpt>
      <trkpt lat="48.56139" lon="-4.51511">
        <ele>31.3</ele>
        <time>2022-05-27T11:22:32Z</time>
      </trkpt>
      <trkpt lat="48.56137" lon="-4.5158">
        <ele>30.6</ele>
        <time>2022-05-27T11:22:38Z</time>
      </trkpt>
      <trkpt lat="48.56137" lon="-4.51628">
        <ele>30</ele>
        <time>2022-05-27T11:22:42Z</time>
      </trkpt>
      <trkpt lat="48.56136" lon="-4.51651">
        <ele>29.6</ele>
        <time>2022-05-27T11:22:44Z</time>
      </trkpt>
      <trkpt lat="48.56132" lon="-4.51711">
        <ele>28.4</ele>
        <time>2022-05-27T11:22:49Z</time>
      </trkpt>
      <trkpt lat="48.56135" lon="-4.51748">
        <ele>27.7</ele>
        <time>2022-05-27T11:22:52Z</time>
      </trkpt>
      <trkpt lat="48.56136" lon="-4.51775">
        <ele>27.2</ele>
        <time>2022-05-27T11:22:54Z</time>
      </trkpt>
      <trkpt lat="48.5615" lon="-4.51843">
        <ele>26</ele>
        <time>2022-05-27T11:22:59Z</time>
      </trkpt>
      <trkpt lat="48.56153" lon="-4.51857">
        <ele>25.7</ele>
        <time>2022-05-27T11:23:00Z</time>
      </trkpt>
      <trkpt lat="48.56169" lon="-4.51913">
        <ele>23.6</ele>
        <time>2022-05-27T11:23:04Z</time>
      </trkpt>
      <trkpt lat="48.56176" lon="-4.51941">
        <ele>22.7</ele>
        <time>2022-05-27T11:23:06Z</time>
      </trkpt>
      <trkpt lat="48.56188" lon="-4.51983">
        <ele>21.7</ele>
        <time>2022-05-27T11:23:09Z</time>
      </trkpt>
      <trkpt lat="48.56205" lon="-4.5205">
        <ele>20</ele>
        <time>2022-05-27T11:23:14Z</time>
      </trkpt>
      <trkpt lat="48.56219" lon="-4.52097">
        <ele>18.9</ele>
        <time>2022-05-27T11:23:18Z</time>
      </trkpt>
      <trkpt lat="48.56226" lon="-4.5212">
        <ele>19.1</ele>
        <time>2022-05-27T11:23:20Z</time>
      </trkpt>
      <trkpt lat="48.56243" lon="-4.52159">
        <ele>19.6</ele>
        <time>2022-05-27T11:23:24Z</time>
      </trkpt>
      <trkpt lat="48.56252" lon="-4.52177">
        <ele>20.2</ele>
        <time>2022-05-27T11:23:26Z</time>
      </trkpt>
      <trkpt lat="48.56267" lon="-4.52205">
        <ele>21.3</ele>
        <time>2022-05-27T11:23:30Z</time>
      </trkpt>
      <trkpt lat="48.56283" lon="-4.52234">
        <ele>22.5</ele>
        <time>2022-05-27T11:23:34Z</time>
      </trkpt>
      <trkpt lat="48.5629" lon="-4.52246">
        <ele>23.1</ele>
        <time>2022-05-27T11:23:36Z</time>
      </trkpt>
      <trkpt lat="48.56314" lon="-4.52291">
        <ele>25</ele>
        <time>2022-05-27T11:23:43Z</time>
      </trkpt>
      <trkpt lat="48.56329" lon="-4.52322">
        <ele>26.3</ele>
        <time>2022-05-27T11:23:48Z</time>
      </trkpt>
      <trkpt lat="48.56338" lon="-4.5234">
        <ele>27</ele>
        <time>2022-05-27T11:23:51Z</time>
      </trkpt>
      <trkpt lat="48.56348" lon="-4.52355">
        <ele>27.6</ele>
        <time>2022-05-27T11:23:54Z</time>
      </trkpt>
      <trkpt lat="48.56372" lon="-4.52391">
        <ele>28.6</ele>
        <time>2022-05-27T11:24:01Z</time>
      </trkpt>
      <trkpt lat="48.56375" lon="-4.52397">
        <ele>28.7</ele>
        <time>2022-05-27T11:24:02Z</time>
      </trkpt>
      <trkpt lat="48.56408" lon="-4.52433">
        <ele>29.9</ele>
        <time>2022-05-27T11:24:10Z</time>
      </trkpt>
      <trkpt lat="48.56417" lon="-4.52441">
        <ele>30.2</ele>
        <time>2022-05-27T11:24:12Z</time>
      </trkpt>
      <trkpt lat="48.56421" lon="-4.52448">
        <ele>30.3</ele>
        <time>2022-05-27T11:24:13Z</time>
      </trkpt>
      <trkpt lat="48.56433" lon="-4.52461">
        <ele>30.7</ele>
        <time>2022-05-27T11:24:16Z</time>
      </trkpt>
      <trkpt lat="48.56454" lon="-4.52483">
        <ele>31.1</ele>
        <time>2022-05-27T11:24:21Z</time>
      </trkpt>
      <trkpt lat="48.56488" lon="-4.52531">
        <ele>31.9</ele>
        <time>2022-05-27T11:24:30Z</time>
      </trkpt>
      <trkpt lat="48.5651" lon="-4.52565">
        <ele>32.4</ele>
        <time>2022-05-27T11:24:36Z</time>
      </trkpt>
      <trkpt lat="48.56525" lon="-4.52578">
        <ele>32.7</ele>
        <time>2022-05-27T11:24:39Z</time>
      </trkpt>
      <trkpt lat="48.56527" lon="-4.52617">
        <ele>33.1</ele>
        <time>2022-05-27T11:24:44Z</time>
      </trkpt>
      <trkpt lat="48.56518" lon="-4.52631">
        <ele>33.4</ele>
        <time>2022-05-27T11:24:47Z</time>
      </trkpt>
      <trkpt lat="48.56507" lon="-4.52645">
        <ele>33.6</ele>
        <time>2022-05-27T11:24:50Z</time>
      </trkpt>
      <trkpt lat="48.56503" lon="-4.5266">
        <ele>33.8</ele>
        <time>2022-05-27T11:24:52Z</time>
      </trkpt>
      <trkpt lat="48.5649" lon="-4.52711">
        <ele>33.8</ele>
        <time>2022-05-27T11:24:59Z</time>
      </trkpt>
      <trkpt lat="48.56475" lon="-4.5278">
        <ele>33.8</ele>
        <time>2022-05-27T11:25:08Z</time>
      </trkpt>
      <trkpt lat="48.56458" lon="-4.52843">
        <ele>33.7</ele>
        <time>2022-05-27T11:25:16Z</time>
      </trkpt>
      <trkpt lat="48.56433" lon="-4.52905">
        <ele>33.7</ele>
        <time>2022-05-27T11:25:24Z</time>
      </trkpt>
      <trkpt lat="48.56402" lon="-4.52962">
        <ele>33.7</ele>
        <time>2022-05-27T11:25:31Z</time>
      </trkpt>
      <trkpt lat="48.56371" lon="-4.53012">
        <ele>33.7</ele>
        <time>2022-05-27T11:25:37Z</time>
      </trkpt>
      <trkpt lat="48.56355" lon="-4.53036">
        <ele>33.7</ele>
        <time>2022-05-27T11:25:40Z</time>
      </trkpt>
      <trkpt lat="48.56339" lon="-4.5306">
        <ele>33.5</ele>
        <time>2022-05-27T11:25:43Z</time>
      </trkpt>
      <trkpt lat="48.56304" lon="-4.53104">
        <ele>33.3</ele>
        <time>2022-05-27T11:25:49Z</time>
      </trkpt>
      <trkpt lat="48.56285" lon="-4.53121">
        <ele>33.1</ele>
        <time>2022-05-27T11:25:52Z</time>
      </trkpt>
      <trkpt lat="48.56259" lon="-4.53143">
        <ele>32.7</ele>
        <time>2022-05-27T11:25:56Z</time>
      </trkpt>
      <trkpt lat="48.56212" lon="-4.53166">
        <ele>32</ele>
        <time>2022-05-27T11:26:03Z</time>
      </trkpt>
      <trkpt lat="48.56162" lon="-4.53187">
        <ele>31.2</ele>
        <time>2022-05-27T11:26:10Z</time>
      </trkpt>
      <trkpt lat="48.56116" lon="-4.53209">
        <ele>30.6</ele>
        <time>2022-05-27T11:26:16Z</time>
      </trkpt>
      <trkpt lat="48.56074" lon="-4.53235">
        <ele>29.9</ele>
        <time>2022-05-27T11:26:21Z</time>
      </trkpt>
      <trkpt lat="48.56065" lon="-4.53241">
        <ele>29.4</ele>
        <time>2022-05-27T11:26:22Z</time>
      </trkpt>
      <trkpt lat="48.56019" lon="-4.53272">
        <ele>26.5</ele>
        <time>2022-05-27T11:26:27Z</time>
      </trkpt>
      <trkpt lat="48.55969" lon="-4.53307">
        <ele>23.6</ele>
        <time>2022-05-27T11:26:32Z</time>
      </trkpt>
      <trkpt lat="48.55957" lon="-4.53313">
        <ele>23</ele>
        <time>2022-05-27T11:26:33Z</time>
      </trkpt>
      <trkpt lat="48.55921" lon="-4.53327">
        <ele>20.8</ele>
        <time>2022-05-27T11:26:36Z</time>
      </trkpt>
      <trkpt lat="48.55882" lon="-4.53333">
        <ele>18.5</ele>
        <time>2022-05-27T11:26:39Z</time>
      </trkpt>
      <trkpt lat="48.55868" lon="-4.53335">
        <ele>17.5</ele>
        <time>2022-05-27T11:26:40Z</time>
      </trkpt>
      <trkpt lat="48.55841" lon="-4.53339">
        <ele>15.5</ele>
        <time>2022-05-27T11:26:42Z</time>
      </trkpt>
      <trkpt lat="48.558" lon="-4.53345">
        <ele>12.7</ele>
        <time>2022-05-27T11:26:45Z</time>
      </trkpt>
      <trkpt lat="48.55787" lon="-4.53347">
        <ele>12</ele>
        <time>2022-05-27T11:26:46Z</time>
      </trkpt>
      <trkpt lat="48.55733" lon="-4.53352">
        <ele>9.2</ele>
        <time>2022-05-27T11:26:50Z</time>
      </trkpt>
      <trkpt lat="48.5572" lon="-4.53354">
        <ele>8.6</ele>
        <time>2022-05-27T11:26:51Z</time>
      </trkpt>
      <trkpt lat="48.55682" lon="-4.53358">
        <ele>7.3</ele>
        <time>2022-05-27T11:26:54Z</time>
      </trkpt>
      <trkpt lat="48.55635" lon="-4.53364">
        <ele>5.7</ele>
        <time>2022-05-27T11:26:58Z</time>
      </trkpt>
      <trkpt lat="48.55588" lon="-4.53372">
        <ele>4.1</ele>
        <time>2022-05-27T11:27:02Z</time>
      </trkpt>
      <trkpt lat="48.55577" lon="-4.53374">
        <ele>3.8</ele>
        <time>2022-05-27T11:27:03Z</time>
      </trkpt>
      <trkpt lat="48.55554" lon="-4.53381">
        <ele>3.7</ele>
        <time>2022-05-27T11:27:05Z</time>
      </trkpt>
      <trkpt lat="48.55507" lon="-4.53417">
        <ele>3.3</ele>
        <time>2022-05-27T11:27:10Z</time>
      </trkpt>
      <trkpt lat="48.55467" lon="-4.53448">
        <ele>3</ele>
        <time>2022-05-27T11:27:15Z</time>
      </trkpt>
      <trkpt lat="48.55424" lon="-4.53484">
        <ele>3.5</ele>
        <time>2022-05-27T11:27:21Z</time>
      </trkpt>
      <trkpt lat="48.55382" lon="-4.53517">
        <ele>4</ele>
        <time>2022-05-27T11:27:27Z</time>
      </trkpt>
      <trkpt lat="48.55343" lon="-4.53549">
        <ele>4.5</ele>
        <time>2022-05-27T11:27:33Z</time>
      </trkpt>
      <trkpt lat="48.553" lon="-4.53571">
        <ele>5</ele>
        <time>2022-05-27T11:27:40Z</time>
      </trkpt>
      <trkpt lat="48.5528" lon="-4.53595">
        <ele>5.5</ele>
        <time>2022-05-27T11:27:45Z</time>
      </trkpt>
      <trkpt lat="48.55272" lon="-4.53605">
        <ele>6.3</ele>
        <time>2022-05-27T11:27:47Z</time>
      </trkpt>
      <trkpt lat="48.55262" lon="-4.5363">
        <ele>7.8</ele>
        <time>2022-05-27T11:27:51Z</time>
      </trkpt>
      <trkpt lat="48.5526" lon="-4.53637">
        <ele>8.2</ele>
        <time>2022-05-27T11:27:52Z</time>
      </trkpt>
      <trkpt lat="48.55256" lon="-4.53709">
        <ele>11.8</ele>
        <time>2022-05-27T11:28:03Z</time>
      </trkpt>
      <trkpt lat="48.55256" lon="-4.53775">
        <ele>14.5</ele>
        <time>2022-05-27T11:28:14Z</time>
      </trkpt>
      <trkpt lat="48.55256" lon="-4.53781">
        <ele>14.8</ele>
        <time>2022-05-27T11:28:15Z</time>
      </trkpt>
      <trkpt lat="48.5525" lon="-4.538">
        <ele>16</ele>
        <time>2022-05-27T11:28:19Z</time>
      </trkpt>
      <trkpt lat="48.55244" lon="-4.53814">
        <ele>16.8</ele>
        <time>2022-05-27T11:28:22Z</time>
      </trkpt>
      <trkpt lat="48.55217" lon="-4.53829">
        <ele>19</ele>
        <time>2022-05-27T11:28:30Z</time>
      </trkpt>
      <trkpt lat="48.552" lon="-4.53838">
        <ele>20.3</ele>
        <time>2022-05-27T11:28:35Z</time>
      </trkpt>
      <trkpt lat="48.55193" lon="-4.53846">
        <ele>21.1</ele>
        <time>2022-05-27T11:28:38Z</time>
      </trkpt>
      <trkpt lat="48.55194" lon="-4.5387">
        <ele>22.1</ele>
        <time>2022-05-27T11:28:42Z</time>
      </trkpt>
      <trkpt lat="48.55195" lon="-4.53905">
        <ele>23.4</ele>
        <time>2022-05-27T11:28:48Z</time>
      </trkpt>
      <trkpt lat="48.55196" lon="-4.53917">
        <ele>23.7</ele>
        <time>2022-05-27T11:28:50Z</time>
      </trkpt>
      <trkpt lat="48.55203" lon="-4.53985">
        <ele>24.8</ele>
        <time>2022-05-27T11:29:00Z</time>
      </trkpt>
      <trkpt lat="48.55211" lon="-4.5403">
        <ele>25.5</ele>
        <time>2022-05-27T11:29:06Z</time>
      </trkpt>
      <trkpt lat="48.55215" lon="-4.54053">
        <ele>25.9</ele>
        <time>2022-05-27T11:29:09Z</time>
      </trkpt>
      <trkpt lat="48.5523" lon="-4.54121">
        <ele>27</ele>
        <time>2022-05-27T11:29:18Z</time>
      </trkpt>
      <trkpt lat="48.55243" lon="-4.54164">
        <ele>27.7</ele>
        <time>2022-05-27T11:29:24Z</time>
      </trkpt>
      <trkpt lat="48.55249" lon="-4.54185">
        <ele>28</ele>
        <time>2022-05-27T11:29:27Z</time>
      </trkpt>
      <trkpt lat="48.55256" lon="-4.54208">
        <ele>28.2</ele>
        <time>2022-05-27T11:29:30Z</time>
      </trkpt>
      <trkpt lat="48.5527" lon="-4.54254">
        <ele>28.1</ele>
        <time>2022-05-27T11:29:36Z</time>
      </trkpt>
      <trkpt lat="48.55283" lon="-4.54326">
        <ele>27.9</ele>
        <time>2022-05-27T11:29:45Z</time>
      </trkpt>
      <trkpt lat="48.55296" lon="-4.544">
        <ele>27.8</ele>
        <time>2022-05-27T11:29:53Z</time>
      </trkpt>
      <trkpt lat="48.55311" lon="-4.54471">
        <ele>27.6</ele>
        <time>2022-05-27T11:30:01Z</time>
      </trkpt>
      <trkpt lat="48.55326" lon="-4.54537">
        <ele>27.5</ele>
        <time>2022-05-27T11:30:08Z</time>
      </trkpt>
      <trkpt lat="48.55329" lon="-4.54607">
        <ele>27.4</ele>
        <time>2022-05-27T11:30:14Z</time>
      </trkpt>
      <trkpt lat="48.55331" lon="-4.54663">
        <ele>27.1</ele>
        <time>2022-05-27T11:30:18Z</time>
      </trkpt>
      <trkpt lat="48.55331" lon="-4.54678">
        <ele>26.5</ele>
        <time>2022-05-27T11:30:19Z</time>
      </trkpt>
      <trkpt lat="48.55331" lon="-4.54739">
        <ele>24</ele>
        <time>2022-05-27T11:30:23Z</time>
      </trkpt>
      <trkpt lat="48.5533" lon="-4.54755">
        <ele>23.8</ele>
        <time>2022-05-27T11:30:24Z</time>
      </trkpt>
      <trkpt lat="48.55327" lon="-4.54788">
        <ele>23.3</ele>
        <time>2022-05-27T11:30:26Z</time>
      </trkpt>
      <trkpt lat="48.55324" lon="-4.54805">
        <ele>23.1</ele>
        <time>2022-05-27T11:30:27Z</time>
      </trkpt>
      <trkpt lat="48.55321" lon="-4.54876">
        <ele>21.9</ele>
        <time>2022-05-27T11:30:32Z</time>
      </trkpt>
      <trkpt lat="48.5532" lon="-4.549">
        <ele>21.7</ele>
        <time>2022-05-27T11:30:34Z</time>
      </trkpt>
      <trkpt lat="48.55319" lon="-4.54947">
        <ele>22.9</ele>
        <time>2022-05-27T11:30:38Z</time>
      </trkpt>
      <trkpt lat="48.5532" lon="-4.54956">
        <ele>23.2</ele>
        <time>2022-05-27T11:30:39Z</time>
      </trkpt>
      <trkpt lat="48.5532" lon="-4.55013">
        <ele>25.5</ele>
        <time>2022-05-27T11:30:45Z</time>
      </trkpt>
      <trkpt lat="48.5532" lon="-4.55021">
        <ele>25.8</ele>
        <time>2022-05-27T11:30:46Z</time>
      </trkpt>
      <trkpt lat="48.55315" lon="-4.55095">
        <ele>28.8</ele>
        <time>2022-05-27T11:30:56Z</time>
      </trkpt>
      <trkpt lat="48.55315" lon="-4.55102">
        <ele>29.1</ele>
        <time>2022-05-27T11:30:57Z</time>
      </trkpt>
      <trkpt lat="48.55309" lon="-4.55163">
        <ele>31.5</ele>
        <time>2022-05-27T11:31:06Z</time>
      </trkpt>
      <trkpt lat="48.55309" lon="-4.55184">
        <ele>32.2</ele>
        <time>2022-05-27T11:31:09Z</time>
      </trkpt>
      <trkpt lat="48.55308" lon="-4.55226">
        <ele>33.5</ele>
        <time>2022-05-27T11:31:15Z</time>
      </trkpt>
      <trkpt lat="48.55308" lon="-4.55233">
        <ele>33.6</ele>
        <time>2022-05-27T11:31:16Z</time>
      </trkpt>
      <trkpt lat="48.55317" lon="-4.55303">
        <ele>35.1</ele>
        <time>2022-05-27T11:31:26Z</time>
      </trkpt>
      <trkpt lat="48.55341" lon="-4.55363">
        <ele>36.4</ele>
        <time>2022-05-27T11:31:35Z</time>
      </trkpt>
      <trkpt lat="48.55353" lon="-4.55389">
        <ele>37</ele>
        <time>2022-05-27T11:31:39Z</time>
      </trkpt>
      <trkpt lat="48.55367" lon="-4.55421">
        <ele>37.8</ele>
        <time>2022-05-27T11:31:44Z</time>
      </trkpt>
      <trkpt lat="48.55386" lon="-4.55483">
        <ele>39.4</ele>
        <time>2022-05-27T11:31:53Z</time>
      </trkpt>
      <trkpt lat="48.55392" lon="-4.55513">
        <ele>40</ele>
        <time>2022-05-27T11:31:57Z</time>
      </trkpt>
      <trkpt lat="48.55398" lon="-4.55551">
        <ele>40.7</ele>
        <time>2022-05-27T11:32:02Z</time>
      </trkpt>
      <trkpt lat="48.55397" lon="-4.55559">
        <ele>40.8</ele>
        <time>2022-05-27T11:32:03Z</time>
      </trkpt>
      <trkpt lat="48.55395" lon="-4.55604">
        <ele>41.8</ele>
        <time>2022-05-27T11:32:09Z</time>
      </trkpt>
      <trkpt lat="48.55393" lon="-4.5562">
        <ele>42.1</ele>
        <time>2022-05-27T11:32:11Z</time>
      </trkpt>
      <trkpt lat="48.55373" lon="-4.55686">
        <ele>43.1</ele>
        <time>2022-05-27T11:32:20Z</time>
      </trkpt>
      <trkpt lat="48.55371" lon="-4.55694">
        <ele>43.1</ele>
        <time>2022-05-27T11:32:21Z</time>
      </trkpt>
      <trkpt lat="48.55355" lon="-4.55748">
        <ele>42</ele>
        <time>2022-05-27T11:32:28Z</time>
      </trkpt>
      <trkpt lat="48.5535" lon="-4.55752">
        <ele>41.9</ele>
        <time>2022-05-27T11:32:29Z</time>
      </trkpt>
      <trkpt lat="48.55301" lon="-4.55768">
        <ele>40.6</ele>
        <time>2022-05-27T11:32:37Z</time>
      </trkpt>
      <trkpt lat="48.55255" lon="-4.55789">
        <ele>39.7</ele>
        <time>2022-05-27T11:32:43Z</time>
      </trkpt>
      <trkpt lat="48.55246" lon="-4.55794">
        <ele>39.4</ele>
        <time>2022-05-27T11:32:44Z</time>
      </trkpt>
      <trkpt lat="48.5521" lon="-4.5581">
        <ele>37.4</ele>
        <time>2022-05-27T11:32:48Z</time>
      </trkpt>
      <trkpt lat="48.55191" lon="-4.55817">
        <ele>36.5</ele>
        <time>2022-05-27T11:32:50Z</time>
      </trkpt>
      <trkpt lat="48.55161" lon="-4.55826">
        <ele>35.6</ele>
        <time>2022-05-27T11:32:53Z</time>
      </trkpt>
      <trkpt lat="48.55121" lon="-4.55821">
        <ele>34.5</ele>
        <time>2022-05-27T11:32:57Z</time>
      </trkpt>
      <trkpt lat="48.55076" lon="-4.55806">
        <ele>33.2</ele>
        <time>2022-05-27T11:33:02Z</time>
      </trkpt>
      <trkpt lat="48.55023" lon="-4.55793">
        <ele>32.3</ele>
        <time>2022-05-27T11:33:08Z</time>
      </trkpt>
      <trkpt lat="48.54975" lon="-4.55797">
        <ele>32.9</ele>
        <time>2022-05-27T11:33:14Z</time>
      </trkpt>
      <trkpt lat="48.54937" lon="-4.55803">
        <ele>35.2</ele>
        <time>2022-05-27T11:33:20Z</time>
      </trkpt>
      <trkpt lat="48.54925" lon="-4.55806">
        <ele>35.8</ele>
        <time>2022-05-27T11:33:22Z</time>
      </trkpt>
      <trkpt lat="48.54878" lon="-4.55813">
        <ele>38.1</ele>
        <time>2022-05-27T11:33:30Z</time>
      </trkpt>
      <trkpt lat="48.54866" lon="-4.55815">
        <ele>38.6</ele>
        <time>2022-05-27T11:33:32Z</time>
      </trkpt>
      <trkpt lat="48.5483" lon="-4.5582">
        <ele>39.7</ele>
        <time>2022-05-27T11:33:38Z</time>
      </trkpt>
      <trkpt lat="48.54784" lon="-4.5583">
        <ele>40.9</ele>
        <time>2022-05-27T11:33:46Z</time>
      </trkpt>
      <trkpt lat="48.54737" lon="-4.55839">
        <ele>42</ele>
        <time>2022-05-27T11:33:54Z</time>
      </trkpt>
      <trkpt lat="48.54697" lon="-4.55852">
        <ele>43.1</ele>
        <time>2022-05-27T11:34:01Z</time>
      </trkpt>
      <trkpt lat="48.54691" lon="-4.55854">
        <ele>43.2</ele>
        <time>2022-05-27T11:34:02Z</time>
      </trkpt>
      <trkpt lat="48.54655" lon="-4.55868">
        <ele>43.2</ele>
        <time>2022-05-27T11:34:08Z</time>
      </trkpt>
      <trkpt lat="48.54649" lon="-4.55871">
        <ele>43.2</ele>
        <time>2022-05-27T11:34:09Z</time>
      </trkpt>
      <trkpt lat="48.54599" lon="-4.55889">
        <ele>43</ele>
        <time>2022-05-27T11:34:17Z</time>
      </trkpt>
      <trkpt lat="48.54555" lon="-4.55904">
        <ele>42.8</ele>
        <time>2022-05-27T11:34:24Z</time>
      </trkpt>
      <trkpt lat="48.54505" lon="-4.55922">
        <ele>42.6</ele>
        <time>2022-05-27T11:34:32Z</time>
      </trkpt>
      <trkpt lat="48.54457" lon="-4.55939">
        <ele>42.5</ele>
        <time>2022-05-27T11:34:39Z</time>
      </trkpt>
      <trkpt lat="48.54411" lon="-4.55956">
        <ele>42.3</ele>
        <time>2022-05-27T11:34:45Z</time>
      </trkpt>
      <trkpt lat="48.54396" lon="-4.55962">
        <ele>42.3</ele>
        <time>2022-05-27T11:34:47Z</time>
      </trkpt>
      <trkpt lat="48.54364" lon="-4.55974">
        <ele>42</ele>
        <time>2022-05-27T11:34:51Z</time>
      </trkpt>
      <trkpt lat="48.54319" lon="-4.55992">
        <ele>41.7</ele>
        <time>2022-05-27T11:34:57Z</time>
      </trkpt>
      <trkpt lat="48.54306" lon="-4.55997">
        <ele>41.6</ele>
        <time>2022-05-27T11:34:59Z</time>
      </trkpt>
      <trkpt lat="48.54273" lon="-4.56009">
        <ele>42.6</ele>
        <time>2022-05-27T11:35:04Z</time>
      </trkpt>
      <trkpt lat="48.54232" lon="-4.56024">
        <ele>43.9</ele>
        <time>2022-05-27T11:35:11Z</time>
      </trkpt>
      <trkpt lat="48.54226" lon="-4.56026">
        <ele>44</ele>
        <time>2022-05-27T11:35:12Z</time>
      </trkpt>
      <trkpt lat="48.54182" lon="-4.56041">
        <ele>44.4</ele>
        <time>2022-05-27T11:35:19Z</time>
      </trkpt>
      <trkpt lat="48.54154" lon="-4.56051">
        <ele>44.6</ele>
        <time>2022-05-27T11:35:23Z</time>
      </trkpt>
      <trkpt lat="48.54133" lon="-4.56058">
        <ele>44.9</ele>
        <time>2022-05-27T11:35:26Z</time>
      </trkpt>
      <trkpt lat="48.54083" lon="-4.56077">
        <ele>45.5</ele>
        <time>2022-05-27T11:35:33Z</time>
      </trkpt>
      <trkpt lat="48.54035" lon="-4.56095">
        <ele>46.2</ele>
        <time>2022-05-27T11:35:41Z</time>
      </trkpt>
      <trkpt lat="48.53988" lon="-4.56112">
        <ele>48</ele>
        <time>2022-05-27T11:35:49Z</time>
      </trkpt>
      <trkpt lat="48.53942" lon="-4.56129">
        <ele>49.8</ele>
        <time>2022-05-27T11:35:57Z</time>
      </trkpt>
      <trkpt lat="48.53931" lon="-4.56132">
        <ele>50.2</ele>
        <time>2022-05-27T11:35:59Z</time>
      </trkpt>
      <trkpt lat="48.53896" lon="-4.56144">
        <ele>51.2</ele>
        <time>2022-05-27T11:36:05Z</time>
      </trkpt>
      <trkpt lat="48.53851" lon="-4.56158">
        <ele>52.4</ele>
        <time>2022-05-27T11:36:13Z</time>
      </trkpt>
      <trkpt lat="48.53804" lon="-4.56175">
        <ele>53.9</ele>
        <time>2022-05-27T11:36:22Z</time>
      </trkpt>
      <trkpt lat="48.53799" lon="-4.56177">
        <ele>54</ele>
        <time>2022-05-27T11:36:23Z</time>
      </trkpt>
      <trkpt lat="48.5376" lon="-4.56193">
        <ele>54.7</ele>
        <time>2022-05-27T11:36:30Z</time>
      </trkpt>
      <trkpt lat="48.5373" lon="-4.56205">
        <ele>55.2</ele>
        <time>2022-05-27T11:36:35Z</time>
      </trkpt>
      <trkpt lat="48.53718" lon="-4.56209">
        <ele>55.2</ele>
        <time>2022-05-27T11:36:37Z</time>
      </trkpt>
      <trkpt lat="48.53671" lon="-4.56226">
        <ele>55.2</ele>
        <time>2022-05-27T11:36:44Z</time>
      </trkpt>
      <trkpt lat="48.53626" lon="-4.56245">
        <ele>55.2</ele>
        <time>2022-05-27T11:36:51Z</time>
      </trkpt>
      <trkpt lat="48.53581" lon="-4.56265">
        <ele>55.3</ele>
        <time>2022-05-27T11:36:58Z</time>
      </trkpt>
      <trkpt lat="48.53537" lon="-4.56291">
        <ele>55.3</ele>
        <time>2022-05-27T11:37:05Z</time>
      </trkpt>
      <trkpt lat="48.53493" lon="-4.56319">
        <ele>55.3</ele>
        <time>2022-05-27T11:37:13Z</time>
      </trkpt>
      <trkpt lat="48.53478" lon="-4.56329">
        <ele>55.4</ele>
        <time>2022-05-27T11:37:16Z</time>
      </trkpt>
      <trkpt lat="48.53436" lon="-4.56363">
        <ele>55.4</ele>
        <time>2022-05-27T11:37:24Z</time>
      </trkpt>
      <trkpt lat="48.53396" lon="-4.5639">
        <ele>55.4</ele>
        <time>2022-05-27T11:37:32Z</time>
      </trkpt>
      <trkpt lat="48.53383" lon="-4.56411">
        <ele>55.5</ele>
        <time>2022-05-27T11:37:37Z</time>
      </trkpt>
      <trkpt lat="48.534" lon="-4.5644">
        <ele>55.5</ele>
        <time>2022-05-27T11:37:38Z</time>
      </trkpt>
      <trkpt lat="48.53416" lon="-4.56488">
        <ele>55.5</ele>
        <time>2022-05-27T11:37:43Z</time>
      </trkpt>
      <trkpt lat="48.53425" lon="-4.56505">
        <ele>55.4</ele>
        <time>2022-05-27T11:37:45Z</time>
      </trkpt>
      <trkpt lat="48.53429" lon="-4.56514">
        <ele>54.9</ele>
        <time>2022-05-27T11:37:46Z</time>
      </trkpt>
      <trkpt lat="48.53431" lon="-4.56525">
        <ele>54.5</ele>
        <time>2022-05-27T11:37:47Z</time>
      </trkpt>
      <trkpt lat="48.53448" lon="-4.56569">
        <ele>52.9</ele>
        <time>2022-05-27T11:37:51Z</time>
      </trkpt>
      <trkpt lat="48.53457" lon="-4.56592">
        <ele>52.2</ele>
        <time>2022-05-27T11:37:53Z</time>
      </trkpt>
      <trkpt lat="48.53478" lon="-4.56653">
        <ele>50.6</ele>
        <time>2022-05-27T11:37:58Z</time>
      </trkpt>
      <trkpt lat="48.53497" lon="-4.56707">
        <ele>48.9</ele>
        <time>2022-05-27T11:38:03Z</time>
      </trkpt>
      <trkpt lat="48.53501" lon="-4.56718">
        <ele>48.7</ele>
        <time>2022-05-27T11:38:04Z</time>
      </trkpt>
      <trkpt lat="48.53525" lon="-4.56783">
        <ele>47.3</ele>
        <time>2022-05-27T11:38:10Z</time>
      </trkpt>
      <trkpt lat="48.53547" lon="-4.56842">
        <ele>46.2</ele>
        <time>2022-05-27T11:38:15Z</time>
      </trkpt>
      <trkpt lat="48.53551" lon="-4.56854">
        <ele>46</ele>
        <time>2022-05-27T11:38:16Z</time>
      </trkpt>
      <trkpt lat="48.53575" lon="-4.56925">
        <ele>45.2</ele>
        <time>2022-05-27T11:38:22Z</time>
      </trkpt>
      <trkpt lat="48.53595" lon="-4.56981">
        <ele>44.6</ele>
        <time>2022-05-27T11:38:27Z</time>
      </trkpt>
      <trkpt lat="48.53599" lon="-4.56992">
        <ele>44.5</ele>
        <time>2022-05-27T11:38:28Z</time>
      </trkpt>
      <trkpt lat="48.53622" lon="-4.57057">
        <ele>43.8</ele>
        <time>2022-05-27T11:38:34Z</time>
      </trkpt>
      <trkpt lat="48.53645" lon="-4.5712">
        <ele>43.1</ele>
        <time>2022-05-27T11:38:40Z</time>
      </trkpt>
      <trkpt lat="48.53668" lon="-4.57189">
        <ele>42.3</ele>
        <time>2022-05-27T11:38:46Z</time>
      </trkpt>
      <trkpt lat="48.53685" lon="-4.57233">
        <ele>41.9</ele>
        <time>2022-05-27T11:38:50Z</time>
      </trkpt>
      <trkpt lat="48.53699" lon="-4.57278">
        <ele>41.4</ele>
        <time>2022-05-27T11:38:54Z</time>
      </trkpt>
      <trkpt lat="48.53706" lon="-4.573">
        <ele>41.2</ele>
        <time>2022-05-27T11:38:56Z</time>
      </trkpt>
      <trkpt lat="48.53729" lon="-4.57362">
        <ele>40.3</ele>
        <time>2022-05-27T11:39:03Z</time>
      </trkpt>
      <trkpt lat="48.53742" lon="-4.57402">
        <ele>39.3</ele>
        <time>2022-05-27T11:39:11Z</time>
      </trkpt>
      <trkpt lat="48.53736" lon="-4.57408">
        <ele>39.1</ele>
        <time>2022-05-27T11:39:13Z</time>
      </trkpt>
      <trkpt lat="48.53726" lon="-4.57409">
        <ele>38.8</ele>
        <time>2022-05-27T11:39:15Z</time>
      </trkpt>
      <trkpt lat="48.53715" lon="-4.57414">
        <ele>38.6</ele>
        <time>2022-05-27T11:39:17Z</time>
      </trkpt>
      <trkpt lat="48.53684" lon="-4.57428">
        <ele>37.2</ele>
        <time>2022-05-27T11:39:23Z</time>
      </trkpt>
      <trkpt lat="48.53678" lon="-4.57432">
        <ele>36.9</ele>
        <time>2022-05-27T11:39:24Z</time>
      </trkpt>
      <trkpt lat="48.53647" lon="-4.57463">
        <ele>35.2</ele>
        <time>2022-05-27T11:39:29Z</time>
      </trkpt>
      <trkpt lat="48.53641" lon="-4.5747">
        <ele>34.9</ele>
        <time>2022-05-27T11:39:30Z</time>
      </trkpt>
      <trkpt lat="48.53607" lon="-4.57528">
        <ele>33.3</ele>
        <time>2022-05-27T11:39:36Z</time>
      </trkpt>
      <trkpt lat="48.53577" lon="-4.57578">
        <ele>31.9</ele>
        <time>2022-05-27T11:39:41Z</time>
      </trkpt>
      <trkpt lat="48.53572" lon="-4.57588">
        <ele>31.7</ele>
        <time>2022-05-27T11:39:42Z</time>
      </trkpt>
      <trkpt lat="48.53546" lon="-4.57642">
        <ele>30.4</ele>
        <time>2022-05-27T11:39:47Z</time>
      </trkpt>
      <trkpt lat="48.53531" lon="-4.5769">
        <ele>29.4</ele>
        <time>2022-05-27T11:39:51Z</time>
      </trkpt>
      <trkpt lat="48.53523" lon="-4.57714">
        <ele>28.9</ele>
        <time>2022-05-27T11:39:53Z</time>
      </trkpt>
      <trkpt lat="48.53511" lon="-4.57751">
        <ele>28.1</ele>
        <time>2022-05-27T11:39:56Z</time>
      </trkpt>
      <trkpt lat="48.53509" lon="-4.57764">
        <ele>27.8</ele>
        <time>2022-05-27T11:39:57Z</time>
      </trkpt>
      <trkpt lat="48.53502" lon="-4.5779">
        <ele>27.3</ele>
        <time>2022-05-27T11:39:59Z</time>
      </trkpt>
      <trkpt lat="48.53491" lon="-4.5783">
        <ele>26.4</ele>
        <time>2022-05-27T11:40:02Z</time>
      </trkpt>
      <trkpt lat="48.53487" lon="-4.57859">
        <ele>25.8</ele>
        <time>2022-05-27T11:40:04Z</time>
      </trkpt>
      <trkpt lat="48.53485" lon="-4.57934">
        <ele>24.3</ele>
        <time>2022-05-27T11:40:09Z</time>
      </trkpt>
      <trkpt lat="48.53485" lon="-4.57962">
        <ele>23.8</ele>
        <time>2022-05-27T11:40:11Z</time>
      </trkpt>
      <trkpt lat="48.53485" lon="-4.57991">
        <ele>23.2</ele>
        <time>2022-05-27T11:40:13Z</time>
      </trkpt>
      <trkpt lat="48.53487" lon="-4.58006">
        <ele>23</ele>
        <time>2022-05-27T11:40:14Z</time>
      </trkpt>
      <trkpt lat="48.53487" lon="-4.58062">
        <ele>21.9</ele>
        <time>2022-05-27T11:40:18Z</time>
      </trkpt>
      <trkpt lat="48.53497" lon="-4.58113">
        <ele>20.8</ele>
        <time>2022-05-27T11:40:22Z</time>
      </trkpt>
      <trkpt lat="48.53502" lon="-4.58125">
        <ele>20.6</ele>
        <time>2022-05-27T11:40:23Z</time>
      </trkpt>
      <trkpt lat="48.53518" lon="-4.58174">
        <ele>20.2</ele>
        <time>2022-05-27T11:40:27Z</time>
      </trkpt>
      <trkpt lat="48.53524" lon="-4.58199">
        <ele>20</ele>
        <time>2022-05-27T11:40:29Z</time>
      </trkpt>
      <trkpt lat="48.53536" lon="-4.58248">
        <ele>20</ele>
        <time>2022-05-27T11:40:33Z</time>
      </trkpt>
      <trkpt lat="48.53539" lon="-4.58272">
        <ele>19.9</ele>
        <time>2022-05-27T11:40:35Z</time>
      </trkpt>
      <trkpt lat="48.53544" lon="-4.58319">
        <ele>19.6</ele>
        <time>2022-05-27T11:40:39Z</time>
      </trkpt>
      <trkpt lat="48.53548" lon="-4.58391">
        <ele>19</ele>
        <time>2022-05-27T11:40:45Z</time>
      </trkpt>
      <trkpt lat="48.53548" lon="-4.58403">
        <ele>18.9</ele>
        <time>2022-05-27T11:40:46Z</time>
      </trkpt>
      <trkpt lat="48.53552" lon="-4.5846">
        <ele>18.5</ele>
        <time>2022-05-27T11:40:51Z</time>
      </trkpt>
      <trkpt lat="48.53554" lon="-4.58536">
        <ele>17.9</ele>
        <time>2022-05-27T11:40:57Z</time>
      </trkpt>
      <trkpt lat="48.53558" lon="-4.58602">
        <ele>17.5</ele>
        <time>2022-05-27T11:41:02Z</time>
      </trkpt>
      <trkpt lat="48.53558" lon="-4.58615">
        <ele>17.3</ele>
        <time>2022-05-27T11:41:03Z</time>
      </trkpt>
      <trkpt lat="48.53561" lon="-4.58684">
        <ele>16.7</ele>
        <time>2022-05-27T11:41:08Z</time>
      </trkpt>
      <trkpt lat="48.53565" lon="-4.5876">
        <ele>15.9</ele>
        <time>2022-05-27T11:41:14Z</time>
      </trkpt>
      <trkpt lat="48.53565" lon="-4.5881">
        <ele>15.4</ele>
        <time>2022-05-27T11:41:18Z</time>
      </trkpt>
      <trkpt lat="48.53564" lon="-4.58835">
        <ele>15.6</ele>
        <time>2022-05-27T11:41:20Z</time>
      </trkpt>
      <trkpt lat="48.53555" lon="-4.58881">
        <ele>15.9</ele>
        <time>2022-05-27T11:41:24Z</time>
      </trkpt>
      <trkpt lat="48.5353" lon="-4.58939">
        <ele>16.3</ele>
        <time>2022-05-27T11:41:30Z</time>
      </trkpt>
      <trkpt lat="48.5349" lon="-4.58985">
        <ele>16.9</ele>
        <time>2022-05-27T11:41:37Z</time>
      </trkpt>
      <trkpt lat="48.53452" lon="-4.59029">
        <ele>17.4</ele>
        <time>2022-05-27T11:41:44Z</time>
      </trkpt>
      <trkpt lat="48.53414" lon="-4.59069">
        <ele>18</ele>
        <time>2022-05-27T11:41:51Z</time>
      </trkpt>
      <trkpt lat="48.53375" lon="-4.59113">
        <ele>18.5</ele>
        <time>2022-05-27T11:41:58Z</time>
      </trkpt>
      <trkpt lat="48.53336" lon="-4.5916">
        <ele>19.2</ele>
        <time>2022-05-27T11:42:06Z</time>
      </trkpt>
      <trkpt lat="48.53298" lon="-4.59205">
        <ele>20.8</ele>
        <time>2022-05-27T11:42:14Z</time>
      </trkpt>
      <trkpt lat="48.53272" lon="-4.59241">
        <ele>22.2</ele>
        <time>2022-05-27T11:42:21Z</time>
      </trkpt>
      <trkpt lat="48.5326" lon="-4.59253">
        <ele>22.9</ele>
        <time>2022-05-27T11:42:24Z</time>
      </trkpt>
      <trkpt lat="48.53256" lon="-4.59257">
        <ele>23.2</ele>
        <time>2022-05-27T11:42:25Z</time>
      </trkpt>
      <trkpt lat="48.53218" lon="-4.59298">
        <ele>26.4</ele>
        <time>2022-05-27T11:42:36Z</time>
      </trkpt>
      <trkpt lat="48.5318" lon="-4.59332">
        <ele>29.8</ele>
        <time>2022-05-27T11:42:48Z</time>
      </trkpt>
      <trkpt lat="48.53177" lon="-4.59335">
        <ele>30.1</ele>
        <time>2022-05-27T11:42:49Z</time>
      </trkpt>
      <trkpt lat="48.53147" lon="-4.5936">
        <ele>33.2</ele>
        <time>2022-05-27T11:42:59Z</time>
      </trkpt>
      <trkpt lat="48.53135" lon="-4.5937">
        <ele>34.5</ele>
        <time>2022-05-27T11:43:03Z</time>
      </trkpt>
      <trkpt lat="48.53115" lon="-4.59387">
        <ele>36.8</ele>
        <time>2022-05-27T11:43:10Z</time>
      </trkpt>
      <trkpt lat="48.53093" lon="-4.59406">
        <ele>39.3</ele>
        <time>2022-05-27T11:43:18Z</time>
      </trkpt>
      <trkpt lat="48.53085" lon="-4.59413">
        <ele>40.2</ele>
        <time>2022-05-27T11:43:21Z</time>
      </trkpt>
      <trkpt lat="48.53056" lon="-4.5944">
        <ele>44.2</ele>
        <time>2022-05-27T11:43:32Z</time>
      </trkpt>
      <trkpt lat="48.53053" lon="-4.59443">
        <ele>44.4</ele>
        <time>2022-05-27T11:43:33Z</time>
      </trkpt>
      <trkpt lat="48.53018" lon="-4.59472">
        <ele>47</ele>
        <time>2022-05-27T11:43:44Z</time>
      </trkpt>
      <trkpt lat="48.53011" lon="-4.59478">
        <ele>47.3</ele>
        <time>2022-05-27T11:43:46Z</time>
      </trkpt>
      <trkpt lat="48.5297" lon="-4.59518">
        <ele>49.3</ele>
        <time>2022-05-27T11:43:58Z</time>
      </trkpt>
      <trkpt lat="48.52953" lon="-4.59535">
        <ele>50</ele>
        <time>2022-05-27T11:44:02Z</time>
      </trkpt>
      <trkpt lat="48.52932" lon="-4.59556">
        <ele>50.1</ele>
        <time>2022-05-27T11:44:07Z</time>
      </trkpt>
      <trkpt lat="48.52928" lon="-4.59562">
        <ele>50.2</ele>
        <time>2022-05-27T11:44:08Z</time>
      </trkpt>
      <trkpt lat="48.529" lon="-4.59608">
        <ele>50.5</ele>
        <time>2022-05-27T11:44:16Z</time>
      </trkpt>
      <trkpt lat="48.52877" lon="-4.59667">
        <ele>50.9</ele>
        <time>2022-05-27T11:44:24Z</time>
      </trkpt>
      <trkpt lat="48.52857" lon="-4.59731">
        <ele>51.4</ele>
        <time>2022-05-27T11:44:33Z</time>
      </trkpt>
      <trkpt lat="48.52844" lon="-4.59768">
        <ele>51.7</ele>
        <time>2022-05-27T11:44:39Z</time>
      </trkpt>
      <trkpt lat="48.52812" lon="-4.59807">
        <ele>52.1</ele>
        <time>2022-05-27T11:44:47Z</time>
      </trkpt>
      <trkpt lat="48.52766" lon="-4.59822">
        <ele>52.5</ele>
        <time>2022-05-27T11:44:56Z</time>
      </trkpt>
      <trkpt lat="48.52739" lon="-4.59829">
        <ele>52.8</ele>
        <time>2022-05-27T11:45:02Z</time>
      </trkpt>
      <trkpt lat="48.52733" lon="-4.59831">
        <ele>52.8</ele>
        <time>2022-05-27T11:45:03Z</time>
      </trkpt>
      <trkpt lat="48.52723" lon="-4.59831">
        <ele>52.9</ele>
        <time>2022-05-27T11:45:05Z</time>
      </trkpt>
      <trkpt lat="48.52688" lon="-4.5984">
        <ele>53.4</ele>
        <time>2022-05-27T11:45:13Z</time>
      </trkpt>
      <trkpt lat="48.52679" lon="-4.59842">
        <ele>53.5</ele>
        <time>2022-05-27T11:45:15Z</time>
      </trkpt>
      <trkpt lat="48.52631" lon="-4.59864">
        <ele>54.3</ele>
        <time>2022-05-27T11:45:24Z</time>
      </trkpt>
      <trkpt lat="48.5259" lon="-4.59891">
        <ele>55.1</ele>
        <time>2022-05-27T11:45:32Z</time>
      </trkpt>
      <trkpt lat="48.52577" lon="-4.5989">
        <ele>55.3</ele>
        <time>2022-05-27T11:45:35Z</time>
      </trkpt>
      <trkpt lat="48.52572" lon="-4.59888">
        <ele>55.4</ele>
        <time>2022-05-27T11:45:36Z</time>
      </trkpt>
      <trkpt lat="48.52532" lon="-4.59878">
        <ele>56.5</ele>
        <time>2022-05-27T11:45:46Z</time>
      </trkpt>
      <trkpt lat="48.52531" lon="-4.59877">
        <ele>56.7</ele>
        <time>2022-05-27T11:45:47Z</time>
      </trkpt>
      <trkpt lat="48.52529" lon="-4.59878">
        <ele>56.8</ele>
        <time>2022-05-27T11:45:48Z</time>
      </trkpt>
      <trkpt lat="48.52527" lon="-4.59878">
        <ele>56.8</ele>
        <time>2022-05-27T11:45:49Z</time>
      </trkpt>
      <trkpt lat="48.52485" lon="-4.59843">
        <ele>57.3</ele>
        <time>2022-05-27T11:45:59Z</time>
      </trkpt>
      <trkpt lat="48.52461" lon="-4.59847">
        <ele>57.6</ele>
        <time>2022-05-27T11:46:04Z</time>
      </trkpt>
      <trkpt lat="48.52471" lon="-4.59885">
        <ele>57.7</ele>
        <time>2022-05-27T11:46:05Z</time>
      </trkpt>
      <trkpt lat="48.52471" lon="-4.59895">
        <ele>57.7</ele>
        <time>2022-05-27T11:46:06Z</time>
      </trkpt>
      <trkpt lat="48.52474" lon="-4.59908">
        <ele>57.8</ele>
        <time>2022-05-27T11:46:07Z</time>
      </trkpt>
      <trkpt lat="48.5247" lon="-4.59939">
        <ele>58.1</ele>
        <time>2022-05-27T11:46:14Z</time>
      </trkpt>
      <trkpt lat="48.52458" lon="-4.59948">
        <ele>58.2</ele>
        <time>2022-05-27T11:46:15Z</time>
      </trkpt>
      <trkpt lat="48.52436" lon="-4.59957">
        <ele>58.2</ele>
        <time>2022-05-27T11:46:16Z</time>
      </trkpt>
      <trkpt lat="48.52399" lon="-4.6">
        <ele>58.6</ele>
        <time>2022-05-27T11:46:23Z</time>
      </trkpt>
      <trkpt lat="48.52376" lon="-4.60029">
        <ele>58.9</ele>
        <time>2022-05-27T11:46:28Z</time>
      </trkpt>
      <trkpt lat="48.52336" lon="-4.60076">
        <ele>59.3</ele>
        <time>2022-05-27T11:46:36Z</time>
      </trkpt>
      <trkpt lat="48.52317" lon="-4.60114">
        <ele>59.6</ele>
        <time>2022-05-27T11:46:41Z</time>
      </trkpt>
      <trkpt lat="48.52312" lon="-4.60131">
        <ele>59.7</ele>
        <time>2022-05-27T11:46:43Z</time>
      </trkpt>
      <trkpt lat="48.52306" lon="-4.60146">
        <ele>59.8</ele>
        <time>2022-05-27T11:46:45Z</time>
      </trkpt>
      <trkpt lat="48.52288" lon="-4.60214">
        <ele>60.3</ele>
        <time>2022-05-27T11:46:54Z</time>
      </trkpt>
      <trkpt lat="48.52282" lon="-4.60245">
        <ele>61.2</ele>
        <time>2022-05-27T11:46:58Z</time>
      </trkpt>
      <trkpt lat="48.52266" lon="-4.60308">
        <ele>63.2</ele>
        <time>2022-05-27T11:47:07Z</time>
      </trkpt>
      <trkpt lat="48.5226" lon="-4.60337">
        <ele>64.1</ele>
        <time>2022-05-27T11:47:11Z</time>
      </trkpt>
      <trkpt lat="48.52255" lon="-4.60358">
        <ele>64.5</ele>
        <time>2022-05-27T11:47:14Z</time>
      </trkpt>
      <trkpt lat="48.52237" lon="-4.60423">
        <ele>65.9</ele>
        <time>2022-05-27T11:47:23Z</time>
      </trkpt>
      <trkpt lat="48.52223" lon="-4.60489">
        <ele>67.4</ele>
        <time>2022-05-27T11:47:32Z</time>
      </trkpt>
      <trkpt lat="48.52222" lon="-4.60497">
        <ele>67.5</ele>
        <time>2022-05-27T11:47:33Z</time>
      </trkpt>
      <trkpt lat="48.52214" lon="-4.60543">
        <ele>67.7</ele>
        <time>2022-05-27T11:47:39Z</time>
      </trkpt>
      <trkpt lat="48.52211" lon="-4.60559">
        <ele>68</ele>
        <time>2022-05-27T11:47:41Z</time>
      </trkpt>
      <trkpt lat="48.52195" lon="-4.60626">
        <ele>68.9</ele>
        <time>2022-05-27T11:47:50Z</time>
      </trkpt>
      <trkpt lat="48.52189" lon="-4.60637">
        <ele>69.1</ele>
        <time>2022-05-27T11:47:52Z</time>
      </trkpt>
      <trkpt lat="48.52178" lon="-4.60664">
        <ele>69.5</ele>
        <time>2022-05-27T11:47:56Z</time>
      </trkpt>
      <trkpt lat="48.52163" lon="-4.60697">
        <ele>70</ele>
        <time>2022-05-27T11:48:01Z</time>
      </trkpt>
      <trkpt lat="48.5216" lon="-4.60702">
        <ele>70</ele>
        <time>2022-05-27T11:48:02Z</time>
      </trkpt>
      <trkpt lat="48.52133" lon="-4.60748">
        <ele>69.8</ele>
        <time>2022-05-27T11:48:10Z</time>
      </trkpt>
      <trkpt lat="48.52114" lon="-4.60775">
        <ele>69.7</ele>
        <time>2022-05-27T11:48:15Z</time>
      </trkpt>
      <trkpt lat="48.52076" lon="-4.60817">
        <ele>69.5</ele>
        <time>2022-05-27T11:48:23Z</time>
      </trkpt>
      <trkpt lat="48.52037" lon="-4.60858">
        <ele>69.3</ele>
        <time>2022-05-27T11:48:30Z</time>
      </trkpt>
      <trkpt lat="48.52024" lon="-4.60873">
        <ele>69.2</ele>
        <time>2022-05-27T11:48:32Z</time>
      </trkpt>
      <trkpt lat="48.51999" lon="-4.60903">
        <ele>68.7</ele>
        <time>2022-05-27T11:48:36Z</time>
      </trkpt>
      <trkpt lat="48.51966" lon="-4.60955">
        <ele>68</ele>
        <time>2022-05-27T11:48:42Z</time>
      </trkpt>
      <trkpt lat="48.51933" lon="-4.6101">
        <ele>67.3</ele>
        <time>2022-05-27T11:48:48Z</time>
      </trkpt>
      <trkpt lat="48.51927" lon="-4.6102">
        <ele>67.2</ele>
        <time>2022-05-27T11:48:49Z</time>
      </trkpt>
      <trkpt lat="48.519" lon="-4.61071">
        <ele>67.5</ele>
        <time>2022-05-27T11:48:54Z</time>
      </trkpt>
      <trkpt lat="48.51876" lon="-4.61108">
        <ele>67.6</ele>
        <time>2022-05-27T11:48:58Z</time>
      </trkpt>
      <trkpt lat="48.51865" lon="-4.61126">
        <ele>67.7</ele>
        <time>2022-05-27T11:49:00Z</time>
      </trkpt>
      <trkpt lat="48.51832" lon="-4.61185">
        <ele>68</ele>
        <time>2022-05-27T11:49:07Z</time>
      </trkpt>
      <trkpt lat="48.51799" lon="-4.61239">
        <ele>68.3</ele>
        <time>2022-05-27T11:49:14Z</time>
      </trkpt>
      <trkpt lat="48.51762" lon="-4.61284">
        <ele>68.6</ele>
        <time>2022-05-27T11:49:21Z</time>
      </trkpt>
      <trkpt lat="48.5175" lon="-4.61295">
        <ele>68.7</ele>
        <time>2022-05-27T11:49:23Z</time>
      </trkpt>
      <trkpt lat="48.51719" lon="-4.6132">
        <ele>69</ele>
        <time>2022-05-27T11:49:28Z</time>
      </trkpt>
      <trkpt lat="48.51712" lon="-4.61323">
        <ele>68.9</ele>
        <time>2022-05-27T11:49:29Z</time>
      </trkpt>
      <trkpt lat="48.51669" lon="-4.61343">
        <ele>67.7</ele>
        <time>2022-05-27T11:49:35Z</time>
      </trkpt>
      <trkpt lat="48.51623" lon="-4.61361">
        <ele>66.5</ele>
        <time>2022-05-27T11:49:41Z</time>
      </trkpt>
      <trkpt lat="48.51587" lon="-4.61372">
        <ele>65.7</ele>
        <time>2022-05-27T11:49:45Z</time>
      </trkpt>
      <trkpt lat="48.51578" lon="-4.61374">
        <ele>65.5</ele>
        <time>2022-05-27T11:49:46Z</time>
      </trkpt>
      <trkpt lat="48.51533" lon="-4.61384">
        <ele>64.7</ele>
        <time>2022-05-27T11:49:51Z</time>
      </trkpt>
      <trkpt lat="48.51485" lon="-4.61394">
        <ele>63.8</ele>
        <time>2022-05-27T11:49:57Z</time>
      </trkpt>
      <trkpt lat="48.51447" lon="-4.61423">
        <ele>65.1</ele>
        <time>2022-05-27T11:50:03Z</time>
      </trkpt>
      <trkpt lat="48.51441" lon="-4.61428">
        <ele>65.3</ele>
        <time>2022-05-27T11:50:04Z</time>
      </trkpt>
      <trkpt lat="48.5141" lon="-4.61449">
        <ele>66.5</ele>
        <time>2022-05-27T11:50:09Z</time>
      </trkpt>
      <trkpt lat="48.51398" lon="-4.61456">
        <ele>66.7</ele>
        <time>2022-05-27T11:50:11Z</time>
      </trkpt>
      <trkpt lat="48.51356" lon="-4.61479">
        <ele>67.7</ele>
        <time>2022-05-27T11:50:18Z</time>
      </trkpt>
      <trkpt lat="48.51307" lon="-4.61501">
        <ele>68.8</ele>
        <time>2022-05-27T11:50:26Z</time>
      </trkpt>
      <trkpt lat="48.51285" lon="-4.6152">
        <ele>69.4</ele>
        <time>2022-05-27T11:50:30Z</time>
      </trkpt>
      <trkpt lat="48.51272" lon="-4.61538">
        <ele>69.8</ele>
        <time>2022-05-27T11:50:33Z</time>
      </trkpt>
      <trkpt lat="48.5125" lon="-4.61567">
        <ele>70.9</ele>
        <time>2022-05-27T11:50:38Z</time>
      </trkpt>
      <trkpt lat="48.51214" lon="-4.6161">
        <ele>72.6</ele>
        <time>2022-05-27T11:50:46Z</time>
      </trkpt>
      <trkpt lat="48.51191" lon="-4.61637">
        <ele>73.7</ele>
        <time>2022-05-27T11:50:51Z</time>
      </trkpt>
      <trkpt lat="48.51177" lon="-4.61653">
        <ele>74.4</ele>
        <time>2022-05-27T11:50:54Z</time>
      </trkpt>
      <trkpt lat="48.51137" lon="-4.61699">
        <ele>76.3</ele>
        <time>2022-05-27T11:51:03Z</time>
      </trkpt>
      <trkpt lat="48.51107" lon="-4.61724">
        <ele>77.6</ele>
        <time>2022-05-27T11:51:09Z</time>
      </trkpt>
      <trkpt lat="48.51097" lon="-4.61733">
        <ele>77.8</ele>
        <time>2022-05-27T11:51:11Z</time>
      </trkpt>
      <trkpt lat="48.51061" lon="-4.61772">
        <ele>78.7</ele>
        <time>2022-05-27T11:51:19Z</time>
      </trkpt>
      <trkpt lat="48.51062" lon="-4.6179">
        <ele>78.7</ele>
        <time>2022-05-27T11:51:20Z</time>
      </trkpt>
      <trkpt lat="48.51078" lon="-4.61854">
        <ele>78.3</ele>
        <time>2022-05-27T11:51:27Z</time>
      </trkpt>
      <trkpt lat="48.51095" lon="-4.6192">
        <ele>77.8</ele>
        <time>2022-05-27T11:51:34Z</time>
      </trkpt>
      <trkpt lat="48.51113" lon="-4.61989">
        <ele>77.4</ele>
        <time>2022-05-27T11:51:41Z</time>
      </trkpt>
      <trkpt lat="48.51132" lon="-4.62056">
        <ele>77</ele>
        <time>2022-05-27T11:51:48Z</time>
      </trkpt>
      <trkpt lat="48.5113" lon="-4.62097">
        <ele>76.7</ele>
        <time>2022-05-27T11:51:52Z</time>
      </trkpt>
      <trkpt lat="48.51112" lon="-4.62117">
        <ele>76.5</ele>
        <time>2022-05-27T11:51:55Z</time>
      </trkpt>
      <trkpt lat="48.51062" lon="-4.6213">
        <ele>76.1</ele>
        <time>2022-05-27T11:52:02Z</time>
      </trkpt>
      <trkpt lat="48.51011" lon="-4.62137">
        <ele>75.6</ele>
        <time>2022-05-27T11:52:09Z</time>
      </trkpt>
      <trkpt lat="48.50959" lon="-4.62144">
        <ele>75.2</ele>
        <time>2022-05-27T11:52:16Z</time>
      </trkpt>
      <trkpt lat="48.50928" lon="-4.62149">
        <ele>75</ele>
        <time>2022-05-27T11:52:20Z</time>
      </trkpt>
      <trkpt lat="48.5092" lon="-4.62151">
        <ele>75</ele>
        <time>2022-05-27T11:52:21Z</time>
      </trkpt>
      <trkpt lat="48.509" lon="-4.6217">
        <ele>75</ele>
        <time>2022-05-27T11:52:24Z</time>
      </trkpt>
      <trkpt lat="48.50892" lon="-4.62195">
        <ele>75</ele>
        <time>2022-05-27T11:52:26Z</time>
      </trkpt>
      <trkpt lat="48.50886" lon="-4.62221">
        <ele>74.3</ele>
        <time>2022-05-27T11:52:28Z</time>
      </trkpt>
      <trkpt lat="48.50875" lon="-4.62271">
        <ele>73.2</ele>
        <time>2022-05-27T11:52:32Z</time>
      </trkpt>
      <trkpt lat="48.5087" lon="-4.62296">
        <ele>73.4</ele>
        <time>2022-05-27T11:52:34Z</time>
      </trkpt>
      <trkpt lat="48.50859" lon="-4.62336">
        <ele>73.9</ele>
        <time>2022-05-27T11:52:38Z</time>
      </trkpt>
      <trkpt lat="48.5085" lon="-4.62365">
        <ele>73.9</ele>
        <time>2022-05-27T11:52:41Z</time>
      </trkpt>
      <trkpt lat="48.50835" lon="-4.62399">
        <ele>73.8</ele>
        <time>2022-05-27T11:52:46Z</time>
      </trkpt>
      <trkpt lat="48.50839" lon="-4.62411">
        <ele>73.8</ele>
        <time>2022-05-27T11:52:47Z</time>
      </trkpt>
      <trkpt lat="48.50843" lon="-4.62418">
        <ele>73.8</ele>
        <time>2022-05-27T11:52:48Z</time>
      </trkpt>
      <trkpt lat="48.50847" lon="-4.62426">
        <ele>73.8</ele>
        <time>2022-05-27T11:52:49Z</time>
      </trkpt>
      <trkpt lat="48.50858" lon="-4.62439">
        <ele>73.8</ele>
        <time>2022-05-27T11:52:51Z</time>
      </trkpt>
      <trkpt lat="48.50891" lon="-4.62487">
        <ele>73.8</ele>
        <time>2022-05-27T11:52:58Z</time>
      </trkpt>
      <trkpt lat="48.50911" lon="-4.62511">
        <ele>73.8</ele>
        <time>2022-05-27T11:53:02Z</time>
      </trkpt>
      <trkpt lat="48.50931" lon="-4.62557">
        <ele>73.8</ele>
        <time>2022-05-27T11:53:08Z</time>
      </trkpt>
      <trkpt lat="48.50938" lon="-4.62632">
        <ele>73.7</ele>
        <time>2022-05-27T11:53:16Z</time>
      </trkpt>
      <trkpt lat="48.50942" lon="-4.62702">
        <ele>73.7</ele>
        <time>2022-05-27T11:53:23Z</time>
      </trkpt>
      <trkpt lat="48.50954" lon="-4.62762">
        <ele>73.7</ele>
        <time>2022-05-27T11:53:29Z</time>
      </trkpt>
      <trkpt lat="48.50962" lon="-4.62778">
        <ele>73.7</ele>
        <time>2022-05-27T11:53:31Z</time>
      </trkpt>
      <trkpt lat="48.50987" lon="-4.62831">
        <ele>73.7</ele>
        <time>2022-05-27T11:53:41Z</time>
      </trkpt>
      <trkpt lat="48.50958" lon="-4.62775">
        <ele>73.6</ele>
        <time>2022-05-27T11:53:56Z</time>
      </trkpt>
      <trkpt lat="48.50949" lon="-4.62761">
        <ele>73.6</ele>
        <time>2022-05-27T11:54:00Z</time>
      </trkpt>
      <trkpt lat="48.5096" lon="-4.62787">
        <ele>73.6</ele>
        <time>2022-05-27T11:54:09Z</time>
      </trkpt>
      <trkpt lat="48.50962" lon="-4.62792">
        <ele>73.6</ele>
        <time>2022-05-27T11:54:10Z</time>
      </trkpt>
      <trkpt lat="48.50962" lon="-4.62799">
        <ele>73.6</ele>
        <time>2022-05-27T11:54:11Z</time>
      </trkpt>
      <trkpt lat="48.50963" lon="-4.62805">
        <ele>73.5</ele>
        <time>2022-05-27T11:54:12Z</time>
      </trkpt>
      <trkpt lat="48.50951" lon="-4.62829">
        <ele>73.5</ele>
        <time>2022-05-27T11:54:14Z</time>
      </trkpt>
      <trkpt lat="48.50929" lon="-4.62857">
        <ele>73.5</ele>
        <time>2022-05-27T11:54:15Z</time>
      </trkpt>
      <trkpt lat="48.50913" lon="-4.62922">
        <ele>73.5</ele>
        <time>2022-05-27T11:54:23Z</time>
      </trkpt>
      <trkpt lat="48.50894" lon="-4.62987">
        <ele>73.5</ele>
        <time>2022-05-27T11:54:31Z</time>
      </trkpt>
      <trkpt lat="48.50873" lon="-4.63054">
        <ele>73.5</ele>
        <time>2022-05-27T11:54:39Z</time>
      </trkpt>
      <trkpt lat="48.50846" lon="-4.63115">
        <ele>73.4</ele>
        <time>2022-05-27T11:54:47Z</time>
      </trkpt>
      <trkpt lat="48.50834" lon="-4.63157">
        <ele>73.4</ele>
        <time>2022-05-27T11:54:52Z</time>
      </trkpt>
      <trkpt lat="48.50834" lon="-4.63229">
        <ele>73.4</ele>
        <time>2022-05-27T11:55:00Z</time>
      </trkpt>
      <trkpt lat="48.50835" lon="-4.63301">
        <ele>73.4</ele>
        <time>2022-05-27T11:55:08Z</time>
      </trkpt>
      <trkpt lat="48.50828" lon="-4.63364">
        <ele>73.3</ele>
        <time>2022-05-27T11:55:15Z</time>
      </trkpt>
      <trkpt lat="48.50804" lon="-4.6343">
        <ele>73.3</ele>
        <time>2022-05-27T11:55:23Z</time>
      </trkpt>
      <trkpt lat="48.50796" lon="-4.63506">
        <ele>73.3</ele>
        <time>2022-05-27T11:55:31Z</time>
      </trkpt>
      <trkpt lat="48.50793" lon="-4.6358">
        <ele>73.3</ele>
        <time>2022-05-27T11:55:39Z</time>
      </trkpt>
      <trkpt lat="48.50793" lon="-4.63653">
        <ele>73.2</ele>
        <time>2022-05-27T11:55:47Z</time>
      </trkpt>
      <trkpt lat="48.50795" lon="-4.63727">
        <ele>73.2</ele>
        <time>2022-05-27T11:55:55Z</time>
      </trkpt>
      <trkpt lat="48.50798" lon="-4.63801">
        <ele>73.2</ele>
        <time>2022-05-27T11:56:03Z</time>
      </trkpt>
      <trkpt lat="48.50802" lon="-4.63871">
        <ele>73.2</ele>
        <time>2022-05-27T11:56:11Z</time>
      </trkpt>
      <trkpt lat="48.50805" lon="-4.6394">
        <ele>73.1</ele>
        <time>2022-05-27T11:56:19Z</time>
      </trkpt>
      <trkpt lat="48.50813" lon="-4.64011">
        <ele>73.1</ele>
        <time>2022-05-27T11:56:27Z</time>
      </trkpt>
      <trkpt lat="48.50822" lon="-4.64087">
        <ele>73.1</ele>
        <time>2022-05-27T11:56:35Z</time>
      </trkpt>
      <trkpt lat="48.50832" lon="-4.64153">
        <ele>73.1</ele>
        <time>2022-05-27T11:56:42Z</time>
      </trkpt>
      <trkpt lat="48.50856" lon="-4.64207">
        <ele>73</ele>
        <time>2022-05-27T11:56:49Z</time>
      </trkpt>
      <trkpt lat="48.50882" lon="-4.64245">
        <ele>73</ele>
        <time>2022-05-27T11:56:55Z</time>
      </trkpt>
      <trkpt lat="48.50911" lon="-4.64305">
        <ele>73</ele>
        <time>2022-05-27T11:57:03Z</time>
      </trkpt>
      <trkpt lat="48.5093" lon="-4.64369">
        <ele>73</ele>
        <time>2022-05-27T11:57:11Z</time>
      </trkpt>
      <trkpt lat="48.50943" lon="-4.64439">
        <ele>72.9</ele>
        <time>2022-05-27T11:57:19Z</time>
      </trkpt>
      <trkpt lat="48.5095" lon="-4.64473">
        <ele>72.9</ele>
        <time>2022-05-27T11:57:24Z</time>
      </trkpt>
      <trkpt lat="48.5095" lon="-4.64492">
        <ele>72.9</ele>
        <time>2022-05-27T11:57:29Z</time>
      </trkpt>
      <trkpt lat="48.50908" lon="-4.64529">
        <ele>72.9</ele>
        <time>2022-05-27T11:57:40Z</time>
      </trkpt>
      <trkpt lat="48.50869" lon="-4.64572">
        <ele>72.8</ele>
        <time>2022-05-27T11:57:49Z</time>
      </trkpt>
      <trkpt lat="48.50834" lon="-4.64621">
        <ele>72.8</ele>
        <time>2022-05-27T11:57:57Z</time>
      </trkpt>
      <trkpt lat="48.50802" lon="-4.64673">
        <ele>72.8</ele>
        <time>2022-05-27T11:58:04Z</time>
      </trkpt>
      <trkpt lat="48.50765" lon="-4.64729">
        <ele>72.8</ele>
        <time>2022-05-27T11:58:11Z</time>
      </trkpt>
      <trkpt lat="48.50733" lon="-4.64778">
        <ele>72.7</ele>
        <time>2022-05-27T11:58:17Z</time>
      </trkpt>
      <trkpt lat="48.50702" lon="-4.6483">
        <ele>72.7</ele>
        <time>2022-05-27T11:58:23Z</time>
      </trkpt>
      <trkpt lat="48.50691" lon="-4.64848">
        <ele>72.7</ele>
        <time>2022-05-27T11:58:25Z</time>
      </trkpt>
      <trkpt lat="48.50669" lon="-4.64884">
        <ele>72.2</ele>
        <time>2022-05-27T11:58:29Z</time>
      </trkpt>
      <trkpt lat="48.50653" lon="-4.64911">
        <ele>71.8</ele>
        <time>2022-05-27T11:58:32Z</time>
      </trkpt>
      <trkpt lat="48.50638" lon="-4.6496">
        <ele>71.2</ele>
        <time>2022-05-27T11:58:37Z</time>
      </trkpt>
      <trkpt lat="48.50632" lon="-4.64979">
        <ele>71.2</ele>
        <time>2022-05-27T11:58:39Z</time>
      </trkpt>
      <trkpt lat="48.50627" lon="-4.64997">
        <ele>71.2</ele>
        <time>2022-05-27T11:58:41Z</time>
      </trkpt>
      <trkpt lat="48.50615" lon="-4.65067">
        <ele>71.1</ele>
        <time>2022-05-27T11:58:48Z</time>
      </trkpt>
      <trkpt lat="48.50604" lon="-4.65135">
        <ele>71</ele>
        <time>2022-05-27T11:58:55Z</time>
      </trkpt>
      <trkpt lat="48.50593" lon="-4.65207">
        <ele>70.9</ele>
        <time>2022-05-27T11:59:02Z</time>
      </trkpt>
      <trkpt lat="48.50583" lon="-4.65278">
        <ele>70.9</ele>
        <time>2022-05-27T11:59:09Z</time>
      </trkpt>
      <trkpt lat="48.50577" lon="-4.65318">
        <ele>70.7</ele>
        <time>2022-05-27T11:59:13Z</time>
      </trkpt>
      <trkpt lat="48.50573" lon="-4.65347">
        <ele>70.2</ele>
        <time>2022-05-27T11:59:16Z</time>
      </trkpt>
      <trkpt lat="48.50569" lon="-4.65377">
        <ele>69</ele>
        <time>2022-05-27T11:59:22Z</time>
      </trkpt>
      <trkpt lat="48.50567" lon="-4.6538">
        <ele>68.8</ele>
        <time>2022-05-27T11:59:23Z</time>
      </trkpt>
      <trkpt lat="48.50565" lon="-4.65383">
        <ele>68.7</ele>
        <time>2022-05-27T11:59:24Z</time>
      </trkpt>
      <trkpt lat="48.50517" lon="-4.65384">
        <ele>67.3</ele>
        <time>2022-05-27T11:59:31Z</time>
      </trkpt>
      <trkpt lat="48.50464" lon="-4.65388">
        <ele>65.4</ele>
        <time>2022-05-27T11:59:37Z</time>
      </trkpt>
      <trkpt lat="48.50416" lon="-4.65391">
        <ele>64.2</ele>
        <time>2022-05-27T11:59:42Z</time>
      </trkpt>
      <trkpt lat="48.50371" lon="-4.65389">
        <ele>63</ele>
        <time>2022-05-27T11:59:47Z</time>
      </trkpt>
      <trkpt lat="48.50363" lon="-4.65387">
        <ele>62.8</ele>
        <time>2022-05-27T11:59:48Z</time>
      </trkpt>
      <trkpt lat="48.50328" lon="-4.65378">
        <ele>63</ele>
        <time>2022-05-27T11:59:53Z</time>
      </trkpt>
      <trkpt lat="48.5032" lon="-4.65379">
        <ele>63</ele>
        <time>2022-05-27T11:59:54Z</time>
      </trkpt>
      <trkpt lat="48.50311" lon="-4.65379">
        <ele>63</ele>
        <time>2022-05-27T11:59:55Z</time>
      </trkpt>
      <trkpt lat="48.50313" lon="-4.65391">
        <ele>63</ele>
        <time>2022-05-27T11:59:56Z</time>
      </trkpt>
      <trkpt lat="48.50323" lon="-4.65412">
        <ele>63.1</ele>
        <time>2022-05-27T11:59:57Z</time>
      </trkpt>
      <trkpt lat="48.50334" lon="-4.65487">
        <ele>63.2</ele>
        <time>2022-05-27T12:00:04Z</time>
      </trkpt>
      <trkpt lat="48.50346" lon="-4.65563">
        <ele>63.4</ele>
        <time>2022-05-27T12:00:11Z</time>
      </trkpt>
      <trkpt lat="48.50367" lon="-4.65633">
        <ele>63.5</ele>
        <time>2022-05-27T12:00:18Z</time>
      </trkpt>
      <trkpt lat="48.50398" lon="-4.65691">
        <ele>63.7</ele>
        <time>2022-05-27T12:00:25Z</time>
      </trkpt>
      <trkpt lat="48.50431" lon="-4.65751">
        <ele>63.8</ele>
        <time>2022-05-27T12:00:32Z</time>
      </trkpt>
      <trkpt lat="48.50462" lon="-4.65805">
        <ele>64</ele>
        <time>2022-05-27T12:00:39Z</time>
      </trkpt>
      <trkpt lat="48.50488" lon="-4.65865">
        <ele>64.1</ele>
        <time>2022-05-27T12:00:47Z</time>
      </trkpt>
      <trkpt lat="48.50512" lon="-4.65932">
        <ele>64.3</ele>
        <time>2022-05-27T12:00:55Z</time>
      </trkpt>
      <trkpt lat="48.5052" lon="-4.65957">
        <ele>64.4</ele>
        <time>2022-05-27T12:00:58Z</time>
      </trkpt>
      <trkpt lat="48.50533" lon="-4.66">
        <ele>64.9</ele>
        <time>2022-05-27T12:01:03Z</time>
      </trkpt>
      <trkpt lat="48.50536" lon="-4.66009">
        <ele>65</ele>
        <time>2022-05-27T12:01:04Z</time>
      </trkpt>
      <trkpt lat="48.50553" lon="-4.66061">
        <ele>64.9</ele>
        <time>2022-05-27T12:01:10Z</time>
      </trkpt>
      <trkpt lat="48.5058" lon="-4.6612">
        <ele>64.7</ele>
        <time>2022-05-27T12:01:17Z</time>
      </trkpt>
      <trkpt lat="48.50613" lon="-4.66173">
        <ele>64.5</ele>
        <time>2022-05-27T12:01:24Z</time>
      </trkpt>
      <trkpt lat="48.50645" lon="-4.66223">
        <ele>64.4</ele>
        <time>2022-05-27T12:01:31Z</time>
      </trkpt>
      <trkpt lat="48.50676" lon="-4.66277">
        <ele>64.2</ele>
        <time>2022-05-27T12:01:38Z</time>
      </trkpt>
      <trkpt lat="48.50702" lon="-4.66345">
        <ele>64</ele>
        <time>2022-05-27T12:01:45Z</time>
      </trkpt>
      <trkpt lat="48.50719" lon="-4.66411">
        <ele>63.8</ele>
        <time>2022-05-27T12:01:51Z</time>
      </trkpt>
      <trkpt lat="48.5073" lon="-4.66485">
        <ele>62.1</ele>
        <time>2022-05-27T12:01:57Z</time>
      </trkpt>
      <trkpt lat="48.50735" lon="-4.66533">
        <ele>61.2</ele>
        <time>2022-05-27T12:02:01Z</time>
      </trkpt>
      <trkpt lat="48.50738" lon="-4.66557">
        <ele>61.7</ele>
        <time>2022-05-27T12:02:03Z</time>
      </trkpt>
      <trkpt lat="48.50741" lon="-4.66586">
        <ele>62.4</ele>
        <time>2022-05-27T12:02:06Z</time>
      </trkpt>
      <trkpt lat="48.50746" lon="-4.66625">
        <ele>63.6</ele>
        <time>2022-05-27T12:02:10Z</time>
      </trkpt>
      <trkpt lat="48.50747" lon="-4.66644">
        <ele>64.2</ele>
        <time>2022-05-27T12:02:12Z</time>
      </trkpt>
      <trkpt lat="48.50752" lon="-4.66698">
        <ele>65.7</ele>
        <time>2022-05-27T12:02:18Z</time>
      </trkpt>
      <trkpt lat="48.50757" lon="-4.6675">
        <ele>67.2</ele>
        <time>2022-05-27T12:02:24Z</time>
      </trkpt>
      <trkpt lat="48.50759" lon="-4.66767">
        <ele>67.3</ele>
        <time>2022-05-27T12:02:26Z</time>
      </trkpt>
      <trkpt lat="48.50771" lon="-4.66837">
        <ele>67.8</ele>
        <time>2022-05-27T12:02:34Z</time>
      </trkpt>
      <trkpt lat="48.50776" lon="-4.66854">
        <ele>67.9</ele>
        <time>2022-05-27T12:02:36Z</time>
      </trkpt>
      <trkpt lat="48.50789" lon="-4.66903">
        <ele>67.8</ele>
        <time>2022-05-27T12:02:42Z</time>
      </trkpt>
      <trkpt lat="48.50807" lon="-4.66968">
        <ele>67.7</ele>
        <time>2022-05-27T12:02:50Z</time>
      </trkpt>
      <trkpt lat="48.50827" lon="-4.67034">
        <ele>67.7</ele>
        <time>2022-05-27T12:02:58Z</time>
      </trkpt>
      <trkpt lat="48.50842" lon="-4.67102">
        <ele>67.6</ele>
        <time>2022-05-27T12:03:06Z</time>
      </trkpt>
      <trkpt lat="48.50854" lon="-4.67176">
        <ele>67.5</ele>
        <time>2022-05-27T12:03:14Z</time>
      </trkpt>
      <trkpt lat="48.50865" lon="-4.67242">
        <ele>67.5</ele>
        <time>2022-05-27T12:03:21Z</time>
      </trkpt>
      <trkpt lat="48.50875" lon="-4.67311">
        <ele>67.4</ele>
        <time>2022-05-27T12:03:28Z</time>
      </trkpt>
      <trkpt lat="48.50886" lon="-4.6738">
        <ele>67.3</ele>
        <time>2022-05-27T12:03:35Z</time>
      </trkpt>
      <trkpt lat="48.50897" lon="-4.67447">
        <ele>67.3</ele>
        <time>2022-05-27T12:03:42Z</time>
      </trkpt>
      <trkpt lat="48.50914" lon="-4.67511">
        <ele>67.2</ele>
        <time>2022-05-27T12:03:49Z</time>
      </trkpt>
      <trkpt lat="48.50937" lon="-4.67571">
        <ele>67.2</ele>
        <time>2022-05-27T12:03:56Z</time>
      </trkpt>
      <trkpt lat="48.50967" lon="-4.67624">
        <ele>67.1</ele>
        <time>2022-05-27T12:04:03Z</time>
      </trkpt>
      <trkpt lat="48.51001" lon="-4.67675">
        <ele>67</ele>
        <time>2022-05-27T12:04:10Z</time>
      </trkpt>
      <trkpt lat="48.51036" lon="-4.67729">
        <ele>67</ele>
        <time>2022-05-27T12:04:17Z</time>
      </trkpt>
      <trkpt lat="48.51069" lon="-4.67784">
        <ele>66.9</ele>
        <time>2022-05-27T12:04:24Z</time>
      </trkpt>
      <trkpt lat="48.51098" lon="-4.67843">
        <ele>66.9</ele>
        <time>2022-05-27T12:04:31Z</time>
      </trkpt>
      <trkpt lat="48.51111" lon="-4.6789">
        <ele>66.8</ele>
        <time>2022-05-27T12:04:36Z</time>
      </trkpt>
      <trkpt lat="48.51109" lon="-4.67898">
        <ele>66.8</ele>
        <time>2022-05-27T12:04:37Z</time>
      </trkpt>
      <trkpt lat="48.51073" lon="-4.67939">
        <ele>66.8</ele>
        <time>2022-05-27T12:04:44Z</time>
      </trkpt>
      <trkpt lat="48.51033" lon="-4.67986">
        <ele>66.7</ele>
        <time>2022-05-27T12:04:52Z</time>
      </trkpt>
      <trkpt lat="48.51009" lon="-4.68013">
        <ele>66.6</ele>
        <time>2022-05-27T12:04:57Z</time>
      </trkpt>
      <trkpt lat="48.50994" lon="-4.68029">
        <ele>66.6</ele>
        <time>2022-05-27T12:05:00Z</time>
      </trkpt>
      <trkpt lat="48.50954" lon="-4.68075">
        <ele>66.5</ele>
        <time>2022-05-27T12:05:08Z</time>
      </trkpt>
      <trkpt lat="48.50917" lon="-4.68119">
        <ele>66.5</ele>
        <time>2022-05-27T12:05:15Z</time>
      </trkpt>
      <trkpt lat="48.50879" lon="-4.68166">
        <ele>66.4</ele>
        <time>2022-05-27T12:05:22Z</time>
      </trkpt>
      <trkpt lat="48.50844" lon="-4.6822">
        <ele>66.4</ele>
        <time>2022-05-27T12:05:29Z</time>
      </trkpt>
      <trkpt lat="48.50811" lon="-4.68274">
        <ele>66.3</ele>
        <time>2022-05-27T12:05:36Z</time>
      </trkpt>
      <trkpt lat="48.50791" lon="-4.68303">
        <ele>66.3</ele>
        <time>2022-05-27T12:05:40Z</time>
      </trkpt>
      <trkpt lat="48.50786" lon="-4.68307">
        <ele>66.3</ele>
        <time>2022-05-27T12:05:41Z</time>
      </trkpt>
      <trkpt lat="48.50771" lon="-4.6833">
        <ele>66.2</ele>
        <time>2022-05-27T12:05:46Z</time>
      </trkpt>
      <trkpt lat="48.50771" lon="-4.68335">
        <ele>66.3</ele>
        <time>2022-05-27T12:05:47Z</time>
      </trkpt>
      <trkpt lat="48.50792" lon="-4.68362">
        <ele>66.4</ele>
        <time>2022-05-27T12:05:51Z</time>
      </trkpt>
      <trkpt lat="48.50815" lon="-4.68409">
        <ele>66.5</ele>
        <time>2022-05-27T12:05:58Z</time>
      </trkpt>
      <trkpt lat="48.50822" lon="-4.68423">
        <ele>66.5</ele>
        <time>2022-05-27T12:06:00Z</time>
      </trkpt>
      <trkpt lat="48.50852" lon="-4.68482">
        <ele>66.2</ele>
        <time>2022-05-27T12:06:08Z</time>
      </trkpt>
      <trkpt lat="48.50882" lon="-4.68544">
        <ele>65.9</ele>
        <time>2022-05-27T12:06:16Z</time>
      </trkpt>
      <trkpt lat="48.5091" lon="-4.68597">
        <ele>65.6</ele>
        <time>2022-05-27T12:06:23Z</time>
      </trkpt>
      <trkpt lat="48.50938" lon="-4.68658">
        <ele>65.3</ele>
        <time>2022-05-27T12:06:31Z</time>
      </trkpt>
      <trkpt lat="48.50966" lon="-4.68715">
        <ele>65</ele>
        <time>2022-05-27T12:06:40Z</time>
      </trkpt>
      <trkpt lat="48.5097" lon="-4.68725">
        <ele>64.9</ele>
        <time>2022-05-27T12:06:42Z</time>
      </trkpt>
      <trkpt lat="48.50965" lon="-4.68736">
        <ele>64.9</ele>
        <time>2022-05-27T12:06:44Z</time>
      </trkpt>
      <trkpt lat="48.50948" lon="-4.68754">
        <ele>64.8</ele>
        <time>2022-05-27T12:06:48Z</time>
      </trkpt>
      <trkpt lat="48.50935" lon="-4.68768">
        <ele>64.9</ele>
        <time>2022-05-27T12:06:51Z</time>
      </trkpt>
      <trkpt lat="48.50935" lon="-4.68775">
        <ele>65</ele>
        <time>2022-05-27T12:06:52Z</time>
      </trkpt>
      <trkpt lat="48.50937" lon="-4.68794">
        <ele>65</ele>
        <time>2022-05-27T12:06:54Z</time>
      </trkpt>
      <trkpt lat="48.50944" lon="-4.68851">
        <ele>64.4</ele>
        <time>2022-05-27T12:07:00Z</time>
      </trkpt>
      <trkpt lat="48.50956" lon="-4.6892">
        <ele>63.7</ele>
        <time>2022-05-27T12:07:07Z</time>
      </trkpt>
      <trkpt lat="48.50968" lon="-4.68987">
        <ele>63</ele>
        <time>2022-05-27T12:07:14Z</time>
      </trkpt>
      <trkpt lat="48.50971" lon="-4.69058">
        <ele>62.3</ele>
        <time>2022-05-27T12:07:21Z</time>
      </trkpt>
      <trkpt lat="48.50974" lon="-4.69133">
        <ele>61.6</ele>
        <time>2022-05-27T12:07:28Z</time>
      </trkpt>
      <trkpt lat="48.50977" lon="-4.69155">
        <ele>61.4</ele>
        <time>2022-05-27T12:07:30Z</time>
      </trkpt>
      <trkpt lat="48.50984" lon="-4.6921">
        <ele>60.8</ele>
        <time>2022-05-27T12:07:35Z</time>
      </trkpt>
      <trkpt lat="48.50986" lon="-4.69221">
        <ele>60.7</ele>
        <time>2022-05-27T12:07:36Z</time>
      </trkpt>
      <trkpt lat="48.50992" lon="-4.69277">
        <ele>59.7</ele>
        <time>2022-05-27T12:07:41Z</time>
      </trkpt>
      <trkpt lat="48.51" lon="-4.69345">
        <ele>58.6</ele>
        <time>2022-05-27T12:07:47Z</time>
      </trkpt>
      <trkpt lat="48.51001" lon="-4.69367">
        <ele>58.2</ele>
        <time>2022-05-27T12:07:49Z</time>
      </trkpt>
      <trkpt lat="48.50995" lon="-4.69413">
        <ele>57.4</ele>
        <time>2022-05-27T12:07:53Z</time>
      </trkpt>
      <trkpt lat="48.50997" lon="-4.69426">
        <ele>57.1</ele>
        <time>2022-05-27T12:07:54Z</time>
      </trkpt>
      <trkpt lat="48.51001" lon="-4.69437">
        <ele>56.6</ele>
        <time>2022-05-27T12:07:55Z</time>
      </trkpt>
      <trkpt lat="48.51037" lon="-4.69477">
        <ele>54.2</ele>
        <time>2022-05-27T12:08:00Z</time>
      </trkpt>
      <trkpt lat="48.51058" lon="-4.69496">
        <ele>52.7</ele>
        <time>2022-05-27T12:08:03Z</time>
      </trkpt>
      <trkpt lat="48.51067" lon="-4.6952">
        <ele>51.8</ele>
        <time>2022-05-27T12:08:05Z</time>
      </trkpt>
      <trkpt lat="48.51068" lon="-4.69534">
        <ele>51.4</ele>
        <time>2022-05-27T12:08:06Z</time>
      </trkpt>
      <trkpt lat="48.51059" lon="-4.69588">
        <ele>51.1</ele>
        <time>2022-05-27T12:08:10Z</time>
      </trkpt>
      <trkpt lat="48.51049" lon="-4.69605">
        <ele>50.9</ele>
        <time>2022-05-27T12:08:12Z</time>
      </trkpt>
      <trkpt lat="48.51022" lon="-4.6962">
        <ele>50.8</ele>
        <time>2022-05-27T12:08:16Z</time>
      </trkpt>
      <trkpt lat="48.51002" lon="-4.69631">
        <ele>51.7</ele>
        <time>2022-05-27T12:08:19Z</time>
      </trkpt>
      <trkpt lat="48.50992" lon="-4.69639">
        <ele>52.3</ele>
        <time>2022-05-27T12:08:21Z</time>
      </trkpt>
      <trkpt lat="48.50976" lon="-4.69681">
        <ele>53.9</ele>
        <time>2022-05-27T12:08:26Z</time>
      </trkpt>
      <trkpt lat="48.50967" lon="-4.69706">
        <ele>54.4</ele>
        <time>2022-05-27T12:08:29Z</time>
      </trkpt>
      <trkpt lat="48.50951" lon="-4.69775">
        <ele>55.6</ele>
        <time>2022-05-27T12:08:36Z</time>
      </trkpt>
      <trkpt lat="48.50949" lon="-4.69794">
        <ele>55.9</ele>
        <time>2022-05-27T12:08:38Z</time>
      </trkpt>
      <trkpt lat="48.50948" lon="-4.69804">
        <ele>55.9</ele>
        <time>2022-05-27T12:08:39Z</time>
      </trkpt>
      <trkpt lat="48.50953" lon="-4.69821">
        <ele>55.9</ele>
        <time>2022-05-27T12:08:41Z</time>
      </trkpt>
      <trkpt lat="48.50968" lon="-4.69842">
        <ele>55.8</ele>
        <time>2022-05-27T12:08:44Z</time>
      </trkpt>
      <trkpt lat="48.50989" lon="-4.69869">
        <ele>55.3</ele>
        <time>2022-05-27T12:08:48Z</time>
      </trkpt>
      <trkpt lat="48.51009" lon="-4.69896">
        <ele>54.7</ele>
        <time>2022-05-27T12:08:52Z</time>
      </trkpt>
      <trkpt lat="48.51014" lon="-4.69914">
        <ele>54.4</ele>
        <time>2022-05-27T12:08:54Z</time>
      </trkpt>
      <trkpt lat="48.51007" lon="-4.69949">
        <ele>54</ele>
        <time>2022-05-27T12:08:57Z</time>
      </trkpt>
      <trkpt lat="48.50983" lon="-4.69997">
        <ele>53.3</ele>
        <time>2022-05-27T12:09:02Z</time>
      </trkpt>
      <trkpt lat="48.5098" lon="-4.70007">
        <ele>53.2</ele>
        <time>2022-05-27T12:09:03Z</time>
      </trkpt>
      <trkpt lat="48.50964" lon="-4.70072">
        <ele>52.7</ele>
        <time>2022-05-27T12:09:09Z</time>
      </trkpt>
      <trkpt lat="48.50954" lon="-4.70125">
        <ele>52.3</ele>
        <time>2022-05-27T12:09:14Z</time>
      </trkpt>
      <trkpt lat="48.5095" lon="-4.70146">
        <ele>52.4</ele>
        <time>2022-05-27T12:09:16Z</time>
      </trkpt>
      <trkpt lat="48.50939" lon="-4.70218">
        <ele>52.5</ele>
        <time>2022-05-27T12:09:23Z</time>
      </trkpt>
      <trkpt lat="48.50936" lon="-4.70294">
        <ele>52.7</ele>
        <time>2022-05-27T12:09:30Z</time>
      </trkpt>
      <trkpt lat="48.50934" lon="-4.70317">
        <ele>52.8</ele>
        <time>2022-05-27T12:09:32Z</time>
      </trkpt>
      <trkpt lat="48.50926" lon="-4.70337">
        <ele>52.8</ele>
        <time>2022-05-27T12:09:34Z</time>
      </trkpt>
      <trkpt lat="48.50886" lon="-4.70374">
        <ele>53</ele>
        <time>2022-05-27T12:09:40Z</time>
      </trkpt>
      <trkpt lat="48.50868" lon="-4.70393">
        <ele>53.1</ele>
        <time>2022-05-27T12:09:43Z</time>
      </trkpt>
      <trkpt lat="48.50858" lon="-4.70423">
        <ele>53.2</ele>
        <time>2022-05-27T12:09:46Z</time>
      </trkpt>
      <trkpt lat="48.50856" lon="-4.70497">
        <ele>53.4</ele>
        <time>2022-05-27T12:09:53Z</time>
      </trkpt>
      <trkpt lat="48.50873" lon="-4.7056">
        <ele>53.6</ele>
        <time>2022-05-27T12:10:01Z</time>
      </trkpt>
      <trkpt lat="48.50876" lon="-4.70568">
        <ele>53.6</ele>
        <time>2022-05-27T12:10:02Z</time>
      </trkpt>
      <trkpt lat="48.50899" lon="-4.70619">
        <ele>54.6</ele>
        <time>2022-05-27T12:10:09Z</time>
      </trkpt>
      <trkpt lat="48.5092" lon="-4.70682">
        <ele>55.8</ele>
        <time>2022-05-27T12:10:17Z</time>
      </trkpt>
      <trkpt lat="48.50931" lon="-4.70752">
        <ele>56.9</ele>
        <time>2022-05-27T12:10:25Z</time>
      </trkpt>
      <trkpt lat="48.50929" lon="-4.70779">
        <ele>56.7</ele>
        <time>2022-05-27T12:10:28Z</time>
      </trkpt>
      <trkpt lat="48.50916" lon="-4.70821">
        <ele>56.3</ele>
        <time>2022-05-27T12:10:33Z</time>
      </trkpt>
      <trkpt lat="48.5092" lon="-4.7085">
        <ele>56.1</ele>
        <time>2022-05-27T12:10:36Z</time>
      </trkpt>
      <trkpt lat="48.50942" lon="-4.70912">
        <ele>55.7</ele>
        <time>2022-05-27T12:10:43Z</time>
      </trkpt>
      <trkpt lat="48.50968" lon="-4.7098">
        <ele>55.2</ele>
        <time>2022-05-27T12:10:50Z</time>
      </trkpt>
      <trkpt lat="48.50983" lon="-4.71021">
        <ele>54.9</ele>
        <time>2022-05-27T12:10:54Z</time>
      </trkpt>
      <trkpt lat="48.50991" lon="-4.71041">
        <ele>54.3</ele>
        <time>2022-05-27T12:10:56Z</time>
      </trkpt>
      <trkpt lat="48.50996" lon="-4.71062">
        <ele>53.8</ele>
        <time>2022-05-27T12:10:58Z</time>
      </trkpt>
      <trkpt lat="48.50994" lon="-4.71085">
        <ele>53.2</ele>
        <time>2022-05-27T12:11:00Z</time>
      </trkpt>
      <trkpt lat="48.50991" lon="-4.71095">
        <ele>53</ele>
        <time>2022-05-27T12:11:01Z</time>
      </trkpt>
      <trkpt lat="48.50971" lon="-4.71132">
        <ele>51.9</ele>
        <time>2022-05-27T12:11:05Z</time>
      </trkpt>
      <trkpt lat="48.50968" lon="-4.71144">
        <ele>51.7</ele>
        <time>2022-05-27T12:11:06Z</time>
      </trkpt>
      <trkpt lat="48.5096" lon="-4.71179">
        <ele>51.4</ele>
        <time>2022-05-27T12:11:09Z</time>
      </trkpt>
      <trkpt lat="48.50958" lon="-4.71214">
        <ele>51.2</ele>
        <time>2022-05-27T12:11:12Z</time>
      </trkpt>
      <trkpt lat="48.50956" lon="-4.7125">
        <ele>50.8</ele>
        <time>2022-05-27T12:11:15Z</time>
      </trkpt>
      <trkpt lat="48.50956" lon="-4.71287">
        <ele>50.4</ele>
        <time>2022-05-27T12:11:18Z</time>
      </trkpt>
      <trkpt lat="48.50955" lon="-4.71323">
        <ele>49.8</ele>
        <time>2022-05-27T12:11:21Z</time>
      </trkpt>
      <trkpt lat="48.50955" lon="-4.71362">
        <ele>49.2</ele>
        <time>2022-05-27T12:11:24Z</time>
      </trkpt>
      <trkpt lat="48.50955" lon="-4.71401">
        <ele>48.7</ele>
        <time>2022-05-27T12:11:27Z</time>
      </trkpt>
      <trkpt lat="48.5096" lon="-4.71481">
        <ele>47.6</ele>
        <time>2022-05-27T12:11:33Z</time>
      </trkpt>
      <trkpt lat="48.50977" lon="-4.71555">
        <ele>46.5</ele>
        <time>2022-05-27T12:11:39Z</time>
      </trkpt>
      <trkpt lat="48.50976" lon="-4.7158">
        <ele>46.2</ele>
        <time>2022-05-27T12:11:41Z</time>
      </trkpt>
      <trkpt lat="48.50972" lon="-4.71593">
        <ele>46</ele>
        <time>2022-05-27T12:11:42Z</time>
      </trkpt>
      <trkpt lat="48.50956" lon="-4.71642">
        <ele>45.9</ele>
        <time>2022-05-27T12:11:46Z</time>
      </trkpt>
      <trkpt lat="48.50936" lon="-4.71703">
        <ele>45.7</ele>
        <time>2022-05-27T12:11:51Z</time>
      </trkpt>
      <trkpt lat="48.50928" lon="-4.71773">
        <ele>45.5</ele>
        <time>2022-05-27T12:11:57Z</time>
      </trkpt>
      <trkpt lat="48.50921" lon="-4.71806">
        <ele>45.4</ele>
        <time>2022-05-27T12:12:00Z</time>
      </trkpt>
      <trkpt lat="48.50913" lon="-4.71838">
        <ele>45.4</ele>
        <time>2022-05-27T12:12:03Z</time>
      </trkpt>
      <trkpt lat="48.50901" lon="-4.71865">
        <ele>45.4</ele>
        <time>2022-05-27T12:12:06Z</time>
      </trkpt>
      <trkpt lat="48.50885" lon="-4.71899">
        <ele>45.3</ele>
        <time>2022-05-27T12:12:10Z</time>
      </trkpt>
      <trkpt lat="48.50875" lon="-4.71934">
        <ele>45.1</ele>
        <time>2022-05-27T12:12:16Z</time>
      </trkpt>
      <trkpt lat="48.50911" lon="-4.71986">
        <ele>44.9</ele>
        <time>2022-05-27T12:12:24Z</time>
      </trkpt>
      <trkpt lat="48.50942" lon="-4.72036">
        <ele>44.7</ele>
        <time>2022-05-27T12:12:31Z</time>
      </trkpt>
      <trkpt lat="48.50973" lon="-4.72087">
        <ele>44.6</ele>
        <time>2022-05-27T12:12:38Z</time>
      </trkpt>
      <trkpt lat="48.51008" lon="-4.72142">
        <ele>44.4</ele>
        <time>2022-05-27T12:12:45Z</time>
      </trkpt>
      <trkpt lat="48.51041" lon="-4.72192">
        <ele>44.2</ele>
        <time>2022-05-27T12:12:51Z</time>
      </trkpt>
      <trkpt lat="48.51074" lon="-4.72246">
        <ele>44.1</ele>
        <time>2022-05-27T12:12:57Z</time>
      </trkpt>
      <trkpt lat="48.51099" lon="-4.72298">
        <ele>44</ele>
        <time>2022-05-27T12:13:02Z</time>
      </trkpt>
      <trkpt lat="48.51103" lon="-4.72308">
        <ele>43.9</ele>
        <time>2022-05-27T12:13:03Z</time>
      </trkpt>
      <trkpt lat="48.51124" lon="-4.72375">
        <ele>43.6</ele>
        <time>2022-05-27T12:13:09Z</time>
      </trkpt>
      <trkpt lat="48.51137" lon="-4.72416">
        <ele>43.5</ele>
        <time>2022-05-27T12:13:13Z</time>
      </trkpt>
      <trkpt lat="48.51143" lon="-4.72436">
        <ele>43.8</ele>
        <time>2022-05-27T12:13:15Z</time>
      </trkpt>
      <trkpt lat="48.51169" lon="-4.72498">
        <ele>44.9</ele>
        <time>2022-05-27T12:13:22Z</time>
      </trkpt>
      <trkpt lat="48.51182" lon="-4.72521">
        <ele>45.3</ele>
        <time>2022-05-27T12:13:25Z</time>
      </trkpt>
      <trkpt lat="48.51199" lon="-4.72552">
        <ele>45.8</ele>
        <time>2022-05-27T12:13:29Z</time>
      </trkpt>
      <trkpt lat="48.51229" lon="-4.7261">
        <ele>46.7</ele>
        <time>2022-05-27T12:13:37Z</time>
      </trkpt>
      <trkpt lat="48.51252" lon="-4.72652">
        <ele>47.3</ele>
        <time>2022-05-27T12:13:43Z</time>
      </trkpt>
      <trkpt lat="48.5126" lon="-4.72666">
        <ele>47.2</ele>
        <time>2022-05-27T12:13:45Z</time>
      </trkpt>
      <trkpt lat="48.51297" lon="-4.72712">
        <ele>46.9</ele>
        <time>2022-05-27T12:13:53Z</time>
      </trkpt>
      <trkpt lat="48.5133" lon="-4.72768">
        <ele>46.7</ele>
        <time>2022-05-27T12:14:01Z</time>
      </trkpt>
      <trkpt lat="48.51355" lon="-4.72825">
        <ele>46.4</ele>
        <time>2022-05-27T12:14:08Z</time>
      </trkpt>
      <trkpt lat="48.51382" lon="-4.72882">
        <ele>46.1</ele>
        <time>2022-05-27T12:14:15Z</time>
      </trkpt>
      <trkpt lat="48.5141" lon="-4.72944">
        <ele>45.9</ele>
        <time>2022-05-27T12:14:22Z</time>
      </trkpt>
      <trkpt lat="48.51438" lon="-4.73004">
        <ele>45.7</ele>
        <time>2022-05-27T12:14:28Z</time>
      </trkpt>
      <trkpt lat="48.51447" lon="-4.73025">
        <ele>45.5</ele>
        <time>2022-05-27T12:14:30Z</time>
      </trkpt>
      <trkpt lat="48.51466" lon="-4.73067">
        <ele>45</ele>
        <time>2022-05-27T12:14:34Z</time>
      </trkpt>
      <trkpt lat="48.51494" lon="-4.73128">
        <ele>44.1</ele>
        <time>2022-05-27T12:14:40Z</time>
      </trkpt>
      <trkpt lat="48.51504" lon="-4.73149">
        <ele>43.9</ele>
        <time>2022-05-27T12:14:42Z</time>
      </trkpt>
      <trkpt lat="48.51523" lon="-4.7319">
        <ele>43.7</ele>
        <time>2022-05-27T12:14:46Z</time>
      </trkpt>
      <trkpt lat="48.51551" lon="-4.73252">
        <ele>43.4</ele>
        <time>2022-05-27T12:14:52Z</time>
      </trkpt>
      <trkpt lat="48.51579" lon="-4.73314">
        <ele>43.1</ele>
        <time>2022-05-27T12:14:58Z</time>
      </trkpt>
      <trkpt lat="48.51608" lon="-4.73377">
        <ele>42.8</ele>
        <time>2022-05-27T12:15:04Z</time>
      </trkpt>
      <trkpt lat="48.51636" lon="-4.73437">
        <ele>42.5</ele>
        <time>2022-05-27T12:15:10Z</time>
      </trkpt>
      <trkpt lat="48.51665" lon="-4.73497">
        <ele>42.2</ele>
        <time>2022-05-27T12:15:16Z</time>
      </trkpt>
      <trkpt lat="48.51694" lon="-4.73555">
        <ele>41.9</ele>
        <time>2022-05-27T12:15:22Z</time>
      </trkpt>
      <trkpt lat="48.51724" lon="-4.73612">
        <ele>41.6</ele>
        <time>2022-05-27T12:15:28Z</time>
      </trkpt>
      <trkpt lat="48.5175" lon="-4.73674">
        <ele>41.3</ele>
        <time>2022-05-27T12:15:34Z</time>
      </trkpt>
      <trkpt lat="48.51769" lon="-4.73743">
        <ele>41.1</ele>
        <time>2022-05-27T12:15:40Z</time>
      </trkpt>
      <trkpt lat="48.51783" lon="-4.73814">
        <ele>40.8</ele>
        <time>2022-05-27T12:15:46Z</time>
      </trkpt>
      <trkpt lat="48.51786" lon="-4.73838">
        <ele>40.7</ele>
        <time>2022-05-27T12:15:48Z</time>
      </trkpt>
      <trkpt lat="48.51794" lon="-4.73884">
        <ele>40.4</ele>
        <time>2022-05-27T12:15:52Z</time>
      </trkpt>
      <trkpt lat="48.51807" lon="-4.73954">
        <ele>39.9</ele>
        <time>2022-05-27T12:15:58Z</time>
      </trkpt>
      <trkpt lat="48.5182" lon="-4.74027">
        <ele>39.4</ele>
        <time>2022-05-27T12:16:04Z</time>
      </trkpt>
      <trkpt lat="48.5183" lon="-4.74101">
        <ele>39</ele>
        <time>2022-05-27T12:16:10Z</time>
      </trkpt>
      <trkpt lat="48.51834" lon="-4.74175">
        <ele>38.5</ele>
        <time>2022-05-27T12:16:16Z</time>
      </trkpt>
      <trkpt lat="48.51832" lon="-4.74245">
        <ele>38</ele>
        <time>2022-05-27T12:16:22Z</time>
      </trkpt>
      <trkpt lat="48.51828" lon="-4.74317">
        <ele>37.6</ele>
        <time>2022-05-27T12:16:28Z</time>
      </trkpt>
      <trkpt lat="48.51824" lon="-4.74391">
        <ele>37.1</ele>
        <time>2022-05-27T12:16:34Z</time>
      </trkpt>
      <trkpt lat="48.51824" lon="-4.74404">
        <ele>36.9</ele>
        <time>2022-05-27T12:16:35Z</time>
      </trkpt>
      <trkpt lat="48.51824" lon="-4.74471">
        <ele>35.2</ele>
        <time>2022-05-27T12:16:40Z</time>
      </trkpt>
      <trkpt lat="48.51826" lon="-4.74485">
        <ele>34.8</ele>
        <time>2022-05-27T12:16:41Z</time>
      </trkpt>
      <trkpt lat="48.51833" lon="-4.74541">
        <ele>33.5</ele>
        <time>2022-05-27T12:16:45Z</time>
      </trkpt>
      <trkpt lat="48.51848" lon="-4.74609">
        <ele>31.9</ele>
        <time>2022-05-27T12:16:50Z</time>
      </trkpt>
      <trkpt lat="48.51855" lon="-4.74635">
        <ele>31.2</ele>
        <time>2022-05-27T12:16:52Z</time>
      </trkpt>
      <trkpt lat="48.51866" lon="-4.74674">
        <ele>30</ele>
        <time>2022-05-27T12:16:55Z</time>
      </trkpt>
      <trkpt lat="48.51885" lon="-4.74736">
        <ele>28.1</ele>
        <time>2022-05-27T12:17:00Z</time>
      </trkpt>
      <trkpt lat="48.51902" lon="-4.74788">
        <ele>26.5</ele>
        <time>2022-05-27T12:17:04Z</time>
      </trkpt>
      <trkpt lat="48.51906" lon="-4.74802">
        <ele>26</ele>
        <time>2022-05-27T12:17:05Z</time>
      </trkpt>
      <trkpt lat="48.51928" lon="-4.74873">
        <ele>23.3</ele>
        <time>2022-05-27T12:17:10Z</time>
      </trkpt>
      <trkpt lat="48.5195" lon="-4.74945">
        <ele>20.3</ele>
        <time>2022-05-27T12:17:15Z</time>
      </trkpt>
      <trkpt lat="48.51954" lon="-4.74959">
        <ele>19.7</ele>
        <time>2022-05-27T12:17:16Z</time>
      </trkpt>
      <trkpt lat="48.51969" lon="-4.75013">
        <ele>18</ele>
        <time>2022-05-27T12:17:20Z</time>
      </trkpt>
      <trkpt lat="48.51989" lon="-4.75073">
        <ele>15.5</ele>
        <time>2022-05-27T12:17:26Z</time>
      </trkpt>
      <trkpt lat="48.51994" lon="-4.75081">
        <ele>14.8</ele>
        <time>2022-05-27T12:17:28Z</time>
      </trkpt>
      <trkpt lat="48.51996" lon="-4.75086">
        <ele>14.7</ele>
        <time>2022-05-27T12:17:29Z</time>
      </trkpt>
      <trkpt lat="48.52" lon="-4.75108">
        <ele>14.4</ele>
        <time>2022-05-27T12:17:33Z</time>
      </trkpt>
      <trkpt lat="48.52" lon="-4.75116">
        <ele>14.3</ele>
        <time>2022-05-27T12:17:34Z</time>
      </trkpt>
      <trkpt lat="48.52016" lon="-4.75166">
        <ele>13.2</ele>
        <time>2022-05-27T12:17:40Z</time>
      </trkpt>
      <trkpt lat="48.52022" lon="-4.75184">
        <ele>12.8</ele>
        <time>2022-05-27T12:17:42Z</time>
      </trkpt>
      <trkpt lat="48.52035" lon="-4.75225">
        <ele>12.1</ele>
        <time>2022-05-27T12:17:46Z</time>
      </trkpt>
      <trkpt lat="48.52044" lon="-4.75255">
        <ele>11.7</ele>
        <time>2022-05-27T12:17:49Z</time>
      </trkpt>
      <trkpt lat="48.52053" lon="-4.75286">
        <ele>11.4</ele>
        <time>2022-05-27T12:17:52Z</time>
      </trkpt>
      <trkpt lat="48.52058" lon="-4.75349">
        <ele>10.7</ele>
        <time>2022-05-27T12:17:58Z</time>
      </trkpt>
      <trkpt lat="48.52059" lon="-4.7536">
        <ele>10.4</ele>
        <time>2022-05-27T12:17:59Z</time>
      </trkpt>
      <trkpt lat="48.52063" lon="-4.75413">
        <ele>8.8</ele>
        <time>2022-05-27T12:18:04Z</time>
      </trkpt>
      <trkpt lat="48.52065" lon="-4.75434">
        <ele>7.9</ele>
        <time>2022-05-27T12:18:06Z</time>
      </trkpt>
      <trkpt lat="48.52071" lon="-4.75485">
        <ele>6.3</ele>
        <time>2022-05-27T12:18:10Z</time>
      </trkpt>
      <trkpt lat="48.52074" lon="-4.7551">
        <ele>5.2</ele>
        <time>2022-05-27T12:18:12Z</time>
      </trkpt>
      <trkpt lat="48.52077" lon="-4.75561">
        <ele>3.1</ele>
        <time>2022-05-27T12:18:16Z</time>
      </trkpt>
      <trkpt lat="48.52078" lon="-4.75585">
        <ele>2.9</ele>
        <time>2022-05-27T12:18:18Z</time>
      </trkpt>
      <trkpt lat="48.52088" lon="-4.75662">
        <ele>1.9</ele>
        <time>2022-05-27T12:18:25Z</time>
      </trkpt>
      <trkpt lat="48.52092" lon="-4.75692">
        <ele>1.5</ele>
        <time>2022-05-27T12:18:28Z</time>
      </trkpt>
      <trkpt lat="48.52096" lon="-4.75721">
        <ele>1.6</ele>
        <time>2022-05-27T12:18:31Z</time>
      </trkpt>
      <trkpt lat="48.52108" lon="-4.75768">
        <ele>1.7</ele>
        <time>2022-05-27T12:18:39Z</time>
      </trkpt>
      <trkpt lat="48.52101" lon="-4.75789">
        <ele>1.9</ele>
        <time>2022-05-27T12:18:45Z</time>
      </trkpt>
      <trkpt lat="48.52059" lon="-4.75817">
        <ele>2.1</ele>
        <time>2022-05-27T12:18:58Z</time>
      </trkpt>
      <trkpt lat="48.52029" lon="-4.7586">
        <ele>2.4</ele>
        <time>2022-05-27T12:19:07Z</time>
      </trkpt>
      <trkpt lat="48.52026" lon="-4.75865">
        <ele>2.6</ele>
        <time>2022-05-27T12:19:08Z</time>
      </trkpt>
      <trkpt lat="48.51987" lon="-4.75912">
        <ele>4.9</ele>
        <time>2022-05-27T12:19:19Z</time>
      </trkpt>
      <trkpt lat="48.51963" lon="-4.75943">
        <ele>6</ele>
        <time>2022-05-27T12:19:25Z</time>
      </trkpt>
      <trkpt lat="48.51951" lon="-4.75959">
        <ele>6.3</ele>
        <time>2022-05-27T12:19:28Z</time>
      </trkpt>
      <trkpt lat="48.51937" lon="-4.75976">
        <ele>6.5</ele>
        <time>2022-05-27T12:19:31Z</time>
      </trkpt>
      <trkpt lat="48.51916" lon="-4.76005">
        <ele>6.2</ele>
        <time>2022-05-27T12:19:36Z</time>
      </trkpt>
      <trkpt lat="48.51894" lon="-4.76052">
        <ele>5.8</ele>
        <time>2022-05-27T12:19:43Z</time>
      </trkpt>
      <trkpt lat="48.51875" lon="-4.76113">
        <ele>5.3</ele>
        <time>2022-05-27T12:19:51Z</time>
      </trkpt>
      <trkpt lat="48.51837" lon="-4.7616">
        <ele>4.8</ele>
        <time>2022-05-27T12:19:59Z</time>
      </trkpt>
      <trkpt lat="48.51791" lon="-4.76196">
        <ele>4.3</ele>
        <time>2022-05-27T12:20:08Z</time>
      </trkpt>
      <trkpt lat="48.51746" lon="-4.76214">
        <ele>3.9</ele>
        <time>2022-05-27T12:20:15Z</time>
      </trkpt>
      <trkpt lat="48.51724" lon="-4.76236">
        <ele>3.6</ele>
        <time>2022-05-27T12:20:19Z</time>
      </trkpt>
      <trkpt lat="48.51707" lon="-4.76252">
        <ele>3.4</ele>
        <time>2022-05-27T12:20:22Z</time>
      </trkpt>
      <trkpt lat="48.5169" lon="-4.76265">
        <ele>3.3</ele>
        <time>2022-05-27T12:20:25Z</time>
      </trkpt>
      <trkpt lat="48.51662" lon="-4.76286">
        <ele>3.7</ele>
        <time>2022-05-27T12:20:30Z</time>
      </trkpt>
      <trkpt lat="48.51617" lon="-4.7631">
        <ele>4.4</ele>
        <time>2022-05-27T12:20:38Z</time>
      </trkpt>
      <trkpt lat="48.51573" lon="-4.76338">
        <ele>5.1</ele>
        <time>2022-05-27T12:20:46Z</time>
      </trkpt>
      <trkpt lat="48.51562" lon="-4.76344">
        <ele>5.3</ele>
        <time>2022-05-27T12:20:48Z</time>
      </trkpt>
      <trkpt lat="48.5153" lon="-4.76363">
        <ele>5.8</ele>
        <time>2022-05-27T12:20:54Z</time>
      </trkpt>
      <trkpt lat="48.51511" lon="-4.7637">
        <ele>6.1</ele>
        <time>2022-05-27T12:20:57Z</time>
      </trkpt>
      <trkpt lat="48.5148" lon="-4.76381">
        <ele>6.5</ele>
        <time>2022-05-27T12:21:02Z</time>
      </trkpt>
      <trkpt lat="48.51467" lon="-4.76385">
        <ele>6.7</ele>
        <time>2022-05-27T12:21:04Z</time>
      </trkpt>
      <trkpt lat="48.51435" lon="-4.76394">
        <ele>6.5</ele>
        <time>2022-05-27T12:21:09Z</time>
      </trkpt>
      <trkpt lat="48.51387" lon="-4.76404">
        <ele>6.3</ele>
        <time>2022-05-27T12:21:17Z</time>
      </trkpt>
      <trkpt lat="48.51338" lon="-4.76423">
        <ele>6.1</ele>
        <time>2022-05-27T12:21:25Z</time>
      </trkpt>
      <trkpt lat="48.51293" lon="-4.76441">
        <ele>5.9</ele>
        <time>2022-05-27T12:21:33Z</time>
      </trkpt>
      <trkpt lat="48.51299" lon="-4.76435">
        <ele>5.5</ele>
        <time>2022-05-27T12:21:48Z</time>
      </trkpt>
      <trkpt lat="48.51315" lon="-4.76437">
        <ele>5.4</ele>
        <time>2022-05-27T12:21:53Z</time>
      </trkpt>
      <trkpt lat="48.51329" lon="-4.76489">
        <ele>5.1</ele>
        <time>2022-05-27T12:22:02Z</time>
      </trkpt>
      <trkpt lat="48.51333" lon="-4.76492">
        <ele>5.1</ele>
        <time>2022-05-27T12:22:03Z</time>
      </trkpt>
      <trkpt lat="48.51347" lon="-4.76496">
        <ele>5</ele>
        <time>2022-05-27T12:22:06Z</time>
      </trkpt>
      <trkpt lat="48.51369" lon="-4.76537">
        <ele>4.9</ele>
        <time>2022-05-27T12:22:12Z</time>
      </trkpt>
      <trkpt lat="48.51396" lon="-4.76598">
        <ele>4.7</ele>
        <time>2022-05-27T12:22:20Z</time>
      </trkpt>
      <trkpt lat="48.51426" lon="-4.76655">
        <ele>4.5</ele>
        <time>2022-05-27T12:22:28Z</time>
      </trkpt>
      <trkpt lat="48.51456" lon="-4.76715">
        <ele>4.3</ele>
        <time>2022-05-27T12:22:36Z</time>
      </trkpt>
      <trkpt lat="48.51484" lon="-4.76772">
        <ele>4</ele>
        <time>2022-05-27T12:22:44Z</time>
      </trkpt>
      <trkpt lat="48.51512" lon="-4.7683">
        <ele>3.8</ele>
        <time>2022-05-27T12:22:53Z</time>
      </trkpt>
      <trkpt lat="48.51515" lon="-4.76839">
        <ele>3.8</ele>
        <time>2022-05-27T12:22:54Z</time>
      </trkpt>
      <trkpt lat="48.51517" lon="-4.76848">
        <ele>3.8</ele>
        <time>2022-05-27T12:22:55Z</time>
      </trkpt>
      <trkpt lat="48.51549" lon="-4.76906">
        <ele>3.5</ele>
        <time>2022-05-27T12:23:03Z</time>
      </trkpt>
      <trkpt lat="48.5157" lon="-4.76937">
        <ele>3.4</ele>
        <time>2022-05-27T12:23:08Z</time>
      </trkpt>
      <trkpt lat="48.51587" lon="-4.76951">
        <ele>3.3</ele>
        <time>2022-05-27T12:23:11Z</time>
      </trkpt>
      <trkpt lat="48.51594" lon="-4.76952">
        <ele>3.3</ele>
        <time>2022-05-27T12:23:12Z</time>
      </trkpt>
      <trkpt lat="48.516" lon="-4.76955">
        <ele>3.3</ele>
        <time>2022-05-27T12:23:13Z</time>
      </trkpt>
      <trkpt lat="48.51599" lon="-4.76955">
        <ele>4.7</ele>
        <time>2022-05-27T12:23:16Z</time>
      </trkpt>
      <trkpt lat="48.51599" lon="-4.76955">
        <ele>4.7</ele>
        <time>2022-05-27T12:54:11Z</time>
      </trkpt>
      <trkpt lat="48.51596" lon="-4.76953">
        <ele>6.1</ele>
        <time>2022-05-27T12:54:19Z</time>
      </trkpt>
      <trkpt lat="48.5156" lon="-4.76909">
        <ele>6.2</ele>
        <time>2022-05-27T12:54:32Z</time>
      </trkpt>
      <trkpt lat="48.5153" lon="-4.76855">
        <ele>6.2</ele>
        <time>2022-05-27T12:54:42Z</time>
      </trkpt>
      <trkpt lat="48.515" lon="-4.76797">
        <ele>6.2</ele>
        <time>2022-05-27T12:54:52Z</time>
      </trkpt>
      <trkpt lat="48.51473" lon="-4.76742">
        <ele>6.2</ele>
        <time>2022-05-27T12:55:01Z</time>
      </trkpt>
      <trkpt lat="48.51445" lon="-4.76688">
        <ele>6.2</ele>
        <time>2022-05-27T12:55:10Z</time>
      </trkpt>
      <trkpt lat="48.51416" lon="-4.7663">
        <ele>6.2</ele>
        <time>2022-05-27T12:55:20Z</time>
      </trkpt>
      <trkpt lat="48.5139" lon="-4.76586">
        <ele>6.2</ele>
        <time>2022-05-27T12:55:29Z</time>
      </trkpt>
      <trkpt lat="48.51359" lon="-4.76558">
        <ele>6.3</ele>
        <time>2022-05-27T12:55:35Z</time>
      </trkpt>
      <trkpt lat="48.51359" lon="-4.76558">
        <ele>6.3</ele>
        <time>2022-05-27T12:56:01Z</time>
      </trkpt>
      <trkpt lat="48.51301" lon="-4.76493">
        <ele>7</ele>
        <time>2022-05-27T12:56:28Z</time>
      </trkpt>
      <trkpt lat="48.51301" lon="-4.76493">
        <ele>7</ele>
        <time>2022-05-27T12:56:59Z</time>
      </trkpt>
      <trkpt lat="48.51266" lon="-4.76456">
        <ele>7.7</ele>
        <time>2022-05-27T12:57:05Z</time>
      </trkpt>
      <trkpt lat="48.51219" lon="-4.7648">
        <ele>8.4</ele>
        <time>2022-05-27T12:57:16Z</time>
      </trkpt>
      <trkpt lat="48.51206" lon="-4.76482">
        <ele>8.5</ele>
        <time>2022-05-27T12:57:19Z</time>
      </trkpt>
      <trkpt lat="48.51189" lon="-4.76466">
        <ele>8.8</ele>
        <time>2022-05-27T12:57:23Z</time>
      </trkpt>
      <trkpt lat="48.51143" lon="-4.76471">
        <ele>9.3</ele>
        <time>2022-05-27T12:57:32Z</time>
      </trkpt>
      <trkpt lat="48.51096" lon="-4.7648">
        <ele>9.8</ele>
        <time>2022-05-27T12:57:42Z</time>
      </trkpt>
      <trkpt lat="48.51084" lon="-4.76483">
        <ele>10.1</ele>
        <time>2022-05-27T12:57:45Z</time>
      </trkpt>
      <trkpt lat="48.51061" lon="-4.76488">
        <ele>12</ele>
        <time>2022-05-27T12:57:51Z</time>
      </trkpt>
      <trkpt lat="48.51055" lon="-4.76488">
        <ele>13.7</ele>
        <time>2022-05-27T12:58:00Z</time>
      </trkpt>
      <trkpt lat="48.51055" lon="-4.76488">
        <ele>13.7</ele>
        <time>2022-05-27T12:58:22Z</time>
      </trkpt>
      <trkpt lat="48.51061" lon="-4.76485">
        <ele>14.5</ele>
        <time>2022-05-27T12:58:27Z</time>
      </trkpt>
      <trkpt lat="48.51094" lon="-4.76473">
        <ele>13.4</ele>
        <time>2022-05-27T12:58:32Z</time>
      </trkpt>
      <trkpt lat="48.51142" lon="-4.76468">
        <ele>10.7</ele>
        <time>2022-05-27T12:58:38Z</time>
      </trkpt>
      <trkpt lat="48.51181" lon="-4.76462">
        <ele>8.6</ele>
        <time>2022-05-27T12:58:43Z</time>
      </trkpt>
      <trkpt lat="48.51188" lon="-4.7646">
        <ele>8.5</ele>
        <time>2022-05-27T12:58:44Z</time>
      </trkpt>
      <trkpt lat="48.51216" lon="-4.76458">
        <ele>8</ele>
        <time>2022-05-27T12:58:48Z</time>
      </trkpt>
      <trkpt lat="48.51223" lon="-4.76461">
        <ele>7.9</ele>
        <time>2022-05-27T12:58:49Z</time>
      </trkpt>
      <trkpt lat="48.51236" lon="-4.76464">
        <ele>7.7</ele>
        <time>2022-05-27T12:58:51Z</time>
      </trkpt>
      <trkpt lat="48.51249" lon="-4.76458">
        <ele>7.6</ele>
        <time>2022-05-27T12:58:53Z</time>
      </trkpt>
      <trkpt lat="48.51255" lon="-4.76453">
        <ele>7.6</ele>
        <time>2022-05-27T12:58:54Z</time>
      </trkpt>
      <trkpt lat="48.5126" lon="-4.7645">
        <ele>7.5</ele>
        <time>2022-05-27T12:58:55Z</time>
      </trkpt>
      <trkpt lat="48.51297" lon="-4.76434">
        <ele>7.3</ele>
        <time>2022-05-27T12:59:02Z</time>
      </trkpt>
      <trkpt lat="48.51311" lon="-4.7643">
        <ele>7.1</ele>
        <time>2022-05-27T12:59:08Z</time>
      </trkpt>
      <trkpt lat="48.51313" lon="-4.76433">
        <ele>7</ele>
        <time>2022-05-27T12:59:09Z</time>
      </trkpt>
      <trkpt lat="48.5133" lon="-4.76489">
        <ele>6.7</ele>
        <time>2022-05-27T12:59:20Z</time>
      </trkpt>
      <trkpt lat="48.51345" lon="-4.76494">
        <ele>6.6</ele>
        <time>2022-05-27T12:59:24Z</time>
      </trkpt>
      <trkpt lat="48.51376" lon="-4.76551">
        <ele>6.3</ele>
        <time>2022-05-27T12:59:33Z</time>
      </trkpt>
      <trkpt lat="48.51403" lon="-4.76606">
        <ele>6</ele>
        <time>2022-05-27T12:59:41Z</time>
      </trkpt>
      <trkpt lat="48.51431" lon="-4.76664">
        <ele>5.7</ele>
        <time>2022-05-27T12:59:50Z</time>
      </trkpt>
      <trkpt lat="48.5146" lon="-4.76722">
        <ele>5.4</ele>
        <time>2022-05-27T12:59:59Z</time>
      </trkpt>
      <trkpt lat="48.51488" lon="-4.76777">
        <ele>5.1</ele>
        <time>2022-05-27T13:00:08Z</time>
      </trkpt>
      <trkpt lat="48.51516" lon="-4.76835">
        <ele>4.8</ele>
        <time>2022-05-27T13:00:17Z</time>
      </trkpt>
      <trkpt lat="48.51542" lon="-4.76893">
        <ele>4.5</ele>
        <time>2022-05-27T13:00:26Z</time>
      </trkpt>
      <trkpt lat="48.51578" lon="-4.7694">
        <ele>4.3</ele>
        <time>2022-05-27T13:00:35Z</time>
      </trkpt>
      <trkpt lat="48.51587" lon="-4.76948">
        <ele>4.2</ele>
        <time>2022-05-27T13:00:37Z</time>
      </trkpt>
      <trkpt lat="48.51592" lon="-4.7695">
        <ele>4.2</ele>
        <time>2022-05-27T13:00:38Z</time>
      </trkpt>
      <trkpt lat="48.51592" lon="-4.76951">
        <ele>4.2</ele>
        <time>2022-05-27T13:00:43Z</time>
      </trkpt>
      <trkpt lat="48.51592" lon="-4.76951">
        <ele>4.2</ele>
        <time>2022-05-27T13:01:54Z</time>
      </trkpt>
      <trkpt lat="48.5158" lon="-4.76944">
        <ele>4.5</ele>
        <time>2022-05-27T13:02:05Z</time>
      </trkpt>
      <trkpt lat="48.5156" lon="-4.76923">
        <ele>4.6</ele>
        <time>2022-05-27T13:02:12Z</time>
      </trkpt>
      <trkpt lat="48.5156" lon="-4.76912">
        <ele>4.6</ele>
        <time>2022-05-27T13:02:13Z</time>
      </trkpt>
      <trkpt lat="48.51528" lon="-4.76854">
        <ele>4.8</ele>
        <time>2022-05-27T13:02:24Z</time>
      </trkpt>
      <trkpt lat="48.51517" lon="-4.76837">
        <ele>4.9</ele>
        <time>2022-05-27T13:02:27Z</time>
      </trkpt>
      <trkpt lat="48.5151" lon="-4.76835">
        <ele>4.9</ele>
        <time>2022-05-27T13:02:28Z</time>
      </trkpt>
      <trkpt lat="48.51483" lon="-4.76779">
        <ele>5.1</ele>
        <time>2022-05-27T13:02:37Z</time>
      </trkpt>
      <trkpt lat="48.51453" lon="-4.76721">
        <ele>5.2</ele>
        <time>2022-05-27T13:02:46Z</time>
      </trkpt>
      <trkpt lat="48.51426" lon="-4.76666">
        <ele>5.4</ele>
        <time>2022-05-27T13:02:54Z</time>
      </trkpt>
      <trkpt lat="48.51404" lon="-4.76622">
        <ele>5.5</ele>
        <time>2022-05-27T13:03:01Z</time>
      </trkpt>
      <trkpt lat="48.51395" lon="-4.76599">
        <ele>5.6</ele>
        <time>2022-05-27T13:03:05Z</time>
      </trkpt>
      <trkpt lat="48.51364" lon="-4.76543">
        <ele>5.8</ele>
        <time>2022-05-27T13:03:15Z</time>
      </trkpt>
      <trkpt lat="48.51339" lon="-4.76492">
        <ele>6</ele>
        <time>2022-05-27T13:03:24Z</time>
      </trkpt>
      <trkpt lat="48.51336" lon="-4.76494">
        <ele>6</ele>
        <time>2022-05-27T13:03:25Z</time>
      </trkpt>
      <trkpt lat="48.51333" lon="-4.765">
        <ele>6</ele>
        <time>2022-05-27T13:03:26Z</time>
      </trkpt>
      <trkpt lat="48.51327" lon="-4.76499">
        <ele>6</ele>
        <time>2022-05-27T13:03:28Z</time>
      </trkpt>
      <trkpt lat="48.51317" lon="-4.76454">
        <ele>6.1</ele>
        <time>2022-05-27T13:03:34Z</time>
      </trkpt>
      <trkpt lat="48.51319" lon="-4.76439">
        <ele>6.2</ele>
        <time>2022-05-27T13:03:37Z</time>
      </trkpt>
      <trkpt lat="48.5132" lon="-4.76438">
        <ele>6.2</ele>
        <time>2022-05-27T13:03:38Z</time>
      </trkpt>
      <trkpt lat="48.51315" lon="-4.76435">
        <ele>6.2</ele>
        <time>2022-05-27T13:03:39Z</time>
      </trkpt>
      <trkpt lat="48.51301" lon="-4.7644">
        <ele>6.3</ele>
        <time>2022-05-27T13:03:42Z</time>
      </trkpt>
      <trkpt lat="48.51268" lon="-4.76454">
        <ele>6.9</ele>
        <time>2022-05-27T13:03:49Z</time>
      </trkpt>
      <trkpt lat="48.51225" lon="-4.76475">
        <ele>7.6</ele>
        <time>2022-05-27T13:03:58Z</time>
      </trkpt>
      <trkpt lat="48.51207" lon="-4.76482">
        <ele>7.9</ele>
        <time>2022-05-27T13:04:02Z</time>
      </trkpt>
      <trkpt lat="48.51202" lon="-4.76478">
        <ele>8</ele>
        <time>2022-05-27T13:04:03Z</time>
      </trkpt>
      <trkpt lat="48.51197" lon="-4.76475">
        <ele>8</ele>
        <time>2022-05-27T13:04:04Z</time>
      </trkpt>
      <trkpt lat="48.51189" lon="-4.76464">
        <ele>8.2</ele>
        <time>2022-05-27T13:04:06Z</time>
      </trkpt>
      <trkpt lat="48.51184" lon="-4.76464">
        <ele>8.3</ele>
        <time>2022-05-27T13:04:07Z</time>
      </trkpt>
      <trkpt lat="48.51137" lon="-4.76478">
        <ele>9</ele>
        <time>2022-05-27T13:04:16Z</time>
      </trkpt>
      <trkpt lat="48.51099" lon="-4.76486">
        <ele>9.7</ele>
        <time>2022-05-27T13:04:24Z</time>
      </trkpt>
      <trkpt lat="48.5109" lon="-4.76488">
        <ele>10.2</ele>
        <time>2022-05-27T13:04:26Z</time>
      </trkpt>
      <trkpt lat="48.51083" lon="-4.7649">
        <ele>10.7</ele>
        <time>2022-05-27T13:04:28Z</time>
      </trkpt>
      <trkpt lat="48.51074" lon="-4.76491">
        <ele>11.2</ele>
        <time>2022-05-27T13:04:30Z</time>
      </trkpt>
      <trkpt lat="48.51036" lon="-4.76497">
        <ele>14.2</ele>
        <time>2022-05-27T13:04:39Z</time>
      </trkpt>
      <trkpt lat="48.51023" lon="-4.76499">
        <ele>15.1</ele>
        <time>2022-05-27T13:04:42Z</time>
      </trkpt>
      <trkpt lat="48.50992" lon="-4.76506">
        <ele>16.9</ele>
        <time>2022-05-27T13:04:49Z</time>
      </trkpt>
      <trkpt lat="48.50973" lon="-4.76506">
        <ele>17.8</ele>
        <time>2022-05-27T13:04:53Z</time>
      </trkpt>
      <trkpt lat="48.5096" lon="-4.76508">
        <ele>17.8</ele>
        <time>2022-05-27T13:04:56Z</time>
      </trkpt>
      <trkpt lat="48.50951" lon="-4.76517">
        <ele>17.8</ele>
        <time>2022-05-27T13:04:58Z</time>
      </trkpt>
      <trkpt lat="48.50946" lon="-4.76524">
        <ele>17.8</ele>
        <time>2022-05-27T13:04:59Z</time>
      </trkpt>
      <trkpt lat="48.50941" lon="-4.76523">
        <ele>17.6</ele>
        <time>2022-05-27T13:05:00Z</time>
      </trkpt>
      <trkpt lat="48.50893" lon="-4.76553">
        <ele>17.6</ele>
        <time>2022-05-27T13:05:03Z</time>
      </trkpt>
      <trkpt lat="48.50893" lon="-4.76553">
        <ele>17.6</ele>
        <time>2022-05-27T13:10:37Z</time>
      </trkpt>
      <trkpt lat="48.50849" lon="-4.7659">
        <ele>17.8</ele>
        <time>2022-05-27T13:10:51Z</time>
      </trkpt>
      <trkpt lat="48.5084" lon="-4.76596">
        <ele>17.9</ele>
        <time>2022-05-27T13:10:54Z</time>
      </trkpt>
      <trkpt lat="48.50821" lon="-4.76607">
        <ele>19.7</ele>
        <time>2022-05-27T13:11:00Z</time>
      </trkpt>
      <trkpt lat="48.50805" lon="-4.76617">
        <ele>20.7</ele>
        <time>2022-05-27T13:11:05Z</time>
      </trkpt>
      <trkpt lat="48.50797" lon="-4.76619">
        <ele>21.2</ele>
        <time>2022-05-27T13:11:07Z</time>
      </trkpt>
      <trkpt lat="48.50764" lon="-4.76606">
        <ele>22.2</ele>
        <time>2022-05-27T13:11:12Z</time>
      </trkpt>
      <trkpt lat="48.50753" lon="-4.76601">
        <ele>22.4</ele>
        <time>2022-05-27T13:11:14Z</time>
      </trkpt>
      <trkpt lat="48.50747" lon="-4.76598">
        <ele>22.7</ele>
        <time>2022-05-27T13:11:18Z</time>
      </trkpt>
      <trkpt lat="48.50741" lon="-4.76594">
        <ele>22.8</ele>
        <time>2022-05-27T13:11:23Z</time>
      </trkpt>
      <trkpt lat="48.50751" lon="-4.76588">
        <ele>22.9</ele>
        <time>2022-05-27T13:11:26Z</time>
      </trkpt>
      <trkpt lat="48.50752" lon="-4.76569">
        <ele>23</ele>
        <time>2022-05-27T13:11:27Z</time>
      </trkpt>
      <trkpt lat="48.50783" lon="-4.76561">
        <ele>23.3</ele>
        <time>2022-05-27T13:11:36Z</time>
      </trkpt>
      <trkpt lat="48.50784" lon="-4.76564">
        <ele>23.3</ele>
        <time>2022-05-27T13:11:37Z</time>
      </trkpt>
      <trkpt lat="48.50782" lon="-4.76562">
        <ele>23.4</ele>
        <time>2022-05-27T13:11:38Z</time>
      </trkpt>
      <trkpt lat="48.50782" lon="-4.76591">
        <ele>23.4</ele>
        <time>2022-05-27T13:11:39Z</time>
      </trkpt>
      <trkpt lat="48.50785" lon="-4.76646">
        <ele>23.4</ele>
        <time>2022-05-27T13:11:40Z</time>
      </trkpt>
      <trkpt lat="48.50754" lon="-4.76696">
        <ele>23.7</ele>
        <time>2022-05-27T13:11:49Z</time>
      </trkpt>
      <trkpt lat="48.50723" lon="-4.76754">
        <ele>24.1</ele>
        <time>2022-05-27T13:11:58Z</time>
      </trkpt>
      <trkpt lat="48.50693" lon="-4.76791">
        <ele>24.3</ele>
        <time>2022-05-27T13:12:05Z</time>
      </trkpt>
      <trkpt lat="48.50662" lon="-4.76812">
        <ele>24.5</ele>
        <time>2022-05-27T13:12:11Z</time>
      </trkpt>
      <trkpt lat="48.50658" lon="-4.76818">
        <ele>24.5</ele>
        <time>2022-05-27T13:12:12Z</time>
      </trkpt>
      <trkpt lat="48.50631" lon="-4.76835">
        <ele>24.7</ele>
        <time>2022-05-27T13:12:18Z</time>
      </trkpt>
      <trkpt lat="48.50606" lon="-4.7687">
        <ele>25</ele>
        <time>2022-05-27T13:12:25Z</time>
      </trkpt>
      <trkpt lat="48.50589" lon="-4.76908">
        <ele>25.5</ele>
        <time>2022-05-27T13:12:31Z</time>
      </trkpt>
      <trkpt lat="48.5058" lon="-4.76927">
        <ele>25.5</ele>
        <time>2022-05-27T13:12:34Z</time>
      </trkpt>
      <trkpt lat="48.50546" lon="-4.7698">
        <ele>25.4</ele>
        <time>2022-05-27T13:12:43Z</time>
      </trkpt>
      <trkpt lat="48.50502" lon="-4.77013">
        <ele>25.3</ele>
        <time>2022-05-27T13:12:52Z</time>
      </trkpt>
      <trkpt lat="48.50455" lon="-4.7702">
        <ele>25.2</ele>
        <time>2022-05-27T13:13:00Z</time>
      </trkpt>
      <trkpt lat="48.50404" lon="-4.77019">
        <ele>25.1</ele>
        <time>2022-05-27T13:13:08Z</time>
      </trkpt>
      <trkpt lat="48.50354" lon="-4.77013">
        <ele>25</ele>
        <time>2022-05-27T13:13:16Z</time>
      </trkpt>
      <trkpt lat="48.50304" lon="-4.77002">
        <ele>24.9</ele>
        <time>2022-05-27T13:13:24Z</time>
      </trkpt>
      <trkpt lat="48.50285" lon="-4.76999">
        <ele>24.8</ele>
        <time>2022-05-27T13:13:27Z</time>
      </trkpt>
      <trkpt lat="48.50237" lon="-4.76989">
        <ele>24.7</ele>
        <time>2022-05-27T13:13:35Z</time>
      </trkpt>
      <trkpt lat="48.50189" lon="-4.76987">
        <ele>24.6</ele>
        <time>2022-05-27T13:13:44Z</time>
      </trkpt>
      <trkpt lat="48.50141" lon="-4.76983">
        <ele>24.5</ele>
        <time>2022-05-27T13:13:53Z</time>
      </trkpt>
      <trkpt lat="48.50112" lon="-4.76973">
        <ele>24.5</ele>
        <time>2022-05-27T13:13:58Z</time>
      </trkpt>
      <trkpt lat="48.50077" lon="-4.76952">
        <ele>24.4</ele>
        <time>2022-05-27T13:14:04Z</time>
      </trkpt>
      <trkpt lat="48.50052" lon="-4.76953">
        <ele>24.3</ele>
        <time>2022-05-27T13:14:08Z</time>
      </trkpt>
      <trkpt lat="48.50047" lon="-4.76956">
        <ele>24.3</ele>
        <time>2022-05-27T13:14:09Z</time>
      </trkpt>
      <trkpt lat="48.50022" lon="-4.7695">
        <ele>24.3</ele>
        <time>2022-05-27T13:14:14Z</time>
      </trkpt>
      <trkpt lat="48.50011" lon="-4.76939">
        <ele>24.2</ele>
        <time>2022-05-27T13:14:16Z</time>
      </trkpt>
      <trkpt lat="48.49976" lon="-4.76929">
        <ele>24.2</ele>
        <time>2022-05-27T13:14:21Z</time>
      </trkpt>
      <trkpt lat="48.49938" lon="-4.76932">
        <ele>24</ele>
        <time>2022-05-27T13:14:26Z</time>
      </trkpt>
      <trkpt lat="48.49892" lon="-4.76973">
        <ele>21.3</ele>
        <time>2022-05-27T13:14:32Z</time>
      </trkpt>
      <trkpt lat="48.49849" lon="-4.77012">
        <ele>18.6</ele>
        <time>2022-05-27T13:14:37Z</time>
      </trkpt>
      <trkpt lat="48.49842" lon="-4.77023">
        <ele>18.1</ele>
        <time>2022-05-27T13:14:38Z</time>
      </trkpt>
      <trkpt lat="48.4981" lon="-4.77066">
        <ele>15.4</ele>
        <time>2022-05-27T13:14:42Z</time>
      </trkpt>
      <trkpt lat="48.49794" lon="-4.77084">
        <ele>14.3</ele>
        <time>2022-05-27T13:14:44Z</time>
      </trkpt>
      <trkpt lat="48.49769" lon="-4.77111">
        <ele>13.5</ele>
        <time>2022-05-27T13:14:47Z</time>
      </trkpt>
      <trkpt lat="48.49737" lon="-4.77144">
        <ele>12.5</ele>
        <time>2022-05-27T13:14:51Z</time>
      </trkpt>
      <trkpt lat="48.49733" lon="-4.77157">
        <ele>12.2</ele>
        <time>2022-05-27T13:14:52Z</time>
      </trkpt>
      <trkpt lat="48.49727" lon="-4.77165">
        <ele>12</ele>
        <time>2022-05-27T13:14:53Z</time>
      </trkpt>
      <trkpt lat="48.49707" lon="-4.77178">
        <ele>11.3</ele>
        <time>2022-05-27T13:14:56Z</time>
      </trkpt>
      <trkpt lat="48.49662" lon="-4.77179">
        <ele>11.3</ele>
        <time>2022-05-27T13:15:02Z</time>
      </trkpt>
      <trkpt lat="48.49655" lon="-4.77179">
        <ele>11.6</ele>
        <time>2022-05-27T13:15:03Z</time>
      </trkpt>
      <trkpt lat="48.49621" lon="-4.77184">
        <ele>13.3</ele>
        <time>2022-05-27T13:15:08Z</time>
      </trkpt>
      <trkpt lat="48.49608" lon="-4.77187">
        <ele>13.4</ele>
        <time>2022-05-27T13:15:10Z</time>
      </trkpt>
      <trkpt lat="48.4956" lon="-4.772">
        <ele>14</ele>
        <time>2022-05-27T13:15:17Z</time>
      </trkpt>
      <trkpt lat="48.49538" lon="-4.77204">
        <ele>14.2</ele>
        <time>2022-05-27T13:15:20Z</time>
      </trkpt>
      <trkpt lat="48.49508" lon="-4.7721">
        <ele>14.5</ele>
        <time>2022-05-27T13:15:24Z</time>
      </trkpt>
      <trkpt lat="48.49458" lon="-4.77216">
        <ele>14.9</ele>
        <time>2022-05-27T13:15:31Z</time>
      </trkpt>
      <trkpt lat="48.49422" lon="-4.77223">
        <ele>15.3</ele>
        <time>2022-05-27T13:15:37Z</time>
      </trkpt>
      <trkpt lat="48.49417" lon="-4.77206">
        <ele>15.5</ele>
        <time>2022-05-27T13:15:39Z</time>
      </trkpt>
      <trkpt lat="48.49415" lon="-4.77158">
        <ele>16</ele>
        <time>2022-05-27T13:15:46Z</time>
      </trkpt>
      <trkpt lat="48.49397" lon="-4.77094">
        <ele>16.5</ele>
        <time>2022-05-27T13:15:54Z</time>
      </trkpt>
      <trkpt lat="48.49379" lon="-4.77024">
        <ele>17</ele>
        <time>2022-05-27T13:16:02Z</time>
      </trkpt>
      <trkpt lat="48.49378" lon="-4.77013">
        <ele>17.1</ele>
        <time>2022-05-27T13:16:03Z</time>
      </trkpt>
      <trkpt lat="48.49352" lon="-4.76959">
        <ele>17.6</ele>
        <time>2022-05-27T13:16:10Z</time>
      </trkpt>
      <trkpt lat="48.49351" lon="-4.7695">
        <ele>17.7</ele>
        <time>2022-05-27T13:16:11Z</time>
      </trkpt>
      <trkpt lat="48.49339" lon="-4.76895">
        <ele>18.3</ele>
        <time>2022-05-27T13:16:17Z</time>
      </trkpt>
      <trkpt lat="48.49306" lon="-4.7684">
        <ele>19.2</ele>
        <time>2022-05-27T13:16:25Z</time>
      </trkpt>
      <trkpt lat="48.49285" lon="-4.76777">
        <ele>20</ele>
        <time>2022-05-27T13:16:32Z</time>
      </trkpt>
      <trkpt lat="48.49264" lon="-4.7671">
        <ele>21</ele>
        <time>2022-05-27T13:16:41Z</time>
      </trkpt>
      <trkpt lat="48.49249" lon="-4.7667">
        <ele>21.8</ele>
        <time>2022-05-27T13:16:47Z</time>
      </trkpt>
      <trkpt lat="48.49242" lon="-4.7665">
        <ele>21.9</ele>
        <time>2022-05-27T13:16:50Z</time>
      </trkpt>
      <trkpt lat="48.49233" lon="-4.7663">
        <ele>21.9</ele>
        <time>2022-05-27T13:16:53Z</time>
      </trkpt>
      <trkpt lat="48.49215" lon="-4.76591">
        <ele>21.3</ele>
        <time>2022-05-27T13:16:59Z</time>
      </trkpt>
      <trkpt lat="48.49204" lon="-4.76581">
        <ele>20.9</ele>
        <time>2022-05-27T13:17:03Z</time>
      </trkpt>
      <trkpt lat="48.4916" lon="-4.76618">
        <ele>20.2</ele>
        <time>2022-05-27T13:17:10Z</time>
      </trkpt>
      <trkpt lat="48.49118" lon="-4.76645">
        <ele>19.6</ele>
        <time>2022-05-27T13:17:16Z</time>
      </trkpt>
      <trkpt lat="48.49111" lon="-4.76651">
        <ele>19.5</ele>
        <time>2022-05-27T13:17:17Z</time>
      </trkpt>
      <trkpt lat="48.49076" lon="-4.76683">
        <ele>17.9</ele>
        <time>2022-05-27T13:17:22Z</time>
      </trkpt>
      <trkpt lat="48.49069" lon="-4.7669">
        <ele>17.6</ele>
        <time>2022-05-27T13:17:23Z</time>
      </trkpt>
      <trkpt lat="48.49035" lon="-4.76725">
        <ele>17.1</ele>
        <time>2022-05-27T13:17:28Z</time>
      </trkpt>
      <trkpt lat="48.48997" lon="-4.76771">
        <ele>16.4</ele>
        <time>2022-05-27T13:17:34Z</time>
      </trkpt>
      <trkpt lat="48.48966" lon="-4.76817">
        <ele>15.1</ele>
        <time>2022-05-27T13:17:39Z</time>
      </trkpt>
      <trkpt lat="48.4896" lon="-4.76826">
        <ele>15</ele>
        <time>2022-05-27T13:17:40Z</time>
      </trkpt>
      <trkpt lat="48.48924" lon="-4.7688">
        <ele>14.7</ele>
        <time>2022-05-27T13:17:46Z</time>
      </trkpt>
      <trkpt lat="48.48902" lon="-4.76913">
        <ele>14.4</ele>
        <time>2022-05-27T13:17:50Z</time>
      </trkpt>
      <trkpt lat="48.4889" lon="-4.76929">
        <ele>13.9</ele>
        <time>2022-05-27T13:17:52Z</time>
      </trkpt>
      <trkpt lat="48.48854" lon="-4.76977">
        <ele>12.4</ele>
        <time>2022-05-27T13:17:58Z</time>
      </trkpt>
      <trkpt lat="48.48832" lon="-4.77023">
        <ele>11.3</ele>
        <time>2022-05-27T13:18:02Z</time>
      </trkpt>
      <trkpt lat="48.48826" lon="-4.77034">
        <ele>10.9</ele>
        <time>2022-05-27T13:18:03Z</time>
      </trkpt>
      <trkpt lat="48.48804" lon="-4.77062">
        <ele>9.7</ele>
        <time>2022-05-27T13:18:06Z</time>
      </trkpt>
      <trkpt lat="48.48795" lon="-4.77069">
        <ele>9.3</ele>
        <time>2022-05-27T13:18:07Z</time>
      </trkpt>
      <trkpt lat="48.48755" lon="-4.77087">
        <ele>7.7</ele>
        <time>2022-05-27T13:18:11Z</time>
      </trkpt>
      <trkpt lat="48.48728" lon="-4.77106">
        <ele>6.6</ele>
        <time>2022-05-27T13:18:14Z</time>
      </trkpt>
      <trkpt lat="48.48719" lon="-4.77112">
        <ele>6.4</ele>
        <time>2022-05-27T13:18:15Z</time>
      </trkpt>
      <trkpt lat="48.48671" lon="-4.77127">
        <ele>5.5</ele>
        <time>2022-05-27T13:18:20Z</time>
      </trkpt>
      <trkpt lat="48.48625" lon="-4.77125">
        <ele>4.7</ele>
        <time>2022-05-27T13:18:25Z</time>
      </trkpt>
      <trkpt lat="48.48616" lon="-4.77124">
        <ele>4.5</ele>
        <time>2022-05-27T13:18:26Z</time>
      </trkpt>
      <trkpt lat="48.48579" lon="-4.77122">
        <ele>3.8</ele>
        <time>2022-05-27T13:18:30Z</time>
      </trkpt>
      <trkpt lat="48.48562" lon="-4.7712">
        <ele>3.5</ele>
        <time>2022-05-27T13:18:32Z</time>
      </trkpt>
      <trkpt lat="48.48526" lon="-4.77118">
        <ele>3.7</ele>
        <time>2022-05-27T13:18:36Z</time>
      </trkpt>
      <trkpt lat="48.48478" lon="-4.77113">
        <ele>4.1</ele>
        <time>2022-05-27T13:18:42Z</time>
      </trkpt>
      <trkpt lat="48.48455" lon="-4.77109">
        <ele>4.3</ele>
        <time>2022-05-27T13:18:45Z</time>
      </trkpt>
      <trkpt lat="48.48407" lon="-4.77099">
        <ele>4.8</ele>
        <time>2022-05-27T13:18:52Z</time>
      </trkpt>
      <trkpt lat="48.48384" lon="-4.77089">
        <ele>5.1</ele>
        <time>2022-05-27T13:18:56Z</time>
      </trkpt>
      <trkpt lat="48.48378" lon="-4.77086">
        <ele>5.3</ele>
        <time>2022-05-27T13:18:57Z</time>
      </trkpt>
      <trkpt lat="48.4835" lon="-4.77068">
        <ele>6.6</ele>
        <time>2022-05-27T13:19:02Z</time>
      </trkpt>
      <trkpt lat="48.48334" lon="-4.77057">
        <ele>7.1</ele>
        <time>2022-05-27T13:19:05Z</time>
      </trkpt>
      <trkpt lat="48.4832" lon="-4.77038">
        <ele>7.6</ele>
        <time>2022-05-27T13:19:08Z</time>
      </trkpt>
      <trkpt lat="48.48311" lon="-4.77024">
        <ele>7.6</ele>
        <time>2022-05-27T13:19:10Z</time>
      </trkpt>
      <trkpt lat="48.48299" lon="-4.76983">
        <ele>7.5</ele>
        <time>2022-05-27T13:19:14Z</time>
      </trkpt>
      <trkpt lat="48.48291" lon="-4.76911">
        <ele>6.6</ele>
        <time>2022-05-27T13:19:20Z</time>
      </trkpt>
      <trkpt lat="48.48278" lon="-4.76868">
        <ele>6.1</ele>
        <time>2022-05-27T13:19:24Z</time>
      </trkpt>
      <trkpt lat="48.48266" lon="-4.76853">
        <ele>5.8</ele>
        <time>2022-05-27T13:19:26Z</time>
      </trkpt>
      <trkpt lat="48.48242" lon="-4.76824">
        <ele>6.1</ele>
        <time>2022-05-27T13:19:30Z</time>
      </trkpt>
      <trkpt lat="48.48228" lon="-4.76814">
        <ele>6.2</ele>
        <time>2022-05-27T13:19:32Z</time>
      </trkpt>
      <trkpt lat="48.48202" lon="-4.76793">
        <ele>6.1</ele>
        <time>2022-05-27T13:19:36Z</time>
      </trkpt>
      <trkpt lat="48.48159" lon="-4.76752">
        <ele>5.9</ele>
        <time>2022-05-27T13:19:43Z</time>
      </trkpt>
      <trkpt lat="48.48139" lon="-4.76722">
        <ele>5.8</ele>
        <time>2022-05-27T13:19:47Z</time>
      </trkpt>
      <trkpt lat="48.48103" lon="-4.7668">
        <ele>5.7</ele>
        <time>2022-05-27T13:19:53Z</time>
      </trkpt>
      <trkpt lat="48.48073" lon="-4.76662">
        <ele>5.6</ele>
        <time>2022-05-27T13:19:57Z</time>
      </trkpt>
      <trkpt lat="48.48031" lon="-4.76658">
        <ele>5.6</ele>
        <time>2022-05-27T13:20:02Z</time>
      </trkpt>
      <trkpt lat="48.48023" lon="-4.76657">
        <ele>5.7</ele>
        <time>2022-05-27T13:20:03Z</time>
      </trkpt>
      <trkpt lat="48.47989" lon="-4.76647">
        <ele>6.6</ele>
        <time>2022-05-27T13:20:08Z</time>
      </trkpt>
      <trkpt lat="48.47976" lon="-4.76643">
        <ele>7.2</ele>
        <time>2022-05-27T13:20:10Z</time>
      </trkpt>
      <trkpt lat="48.47954" lon="-4.76629">
        <ele>8.4</ele>
        <time>2022-05-27T13:20:14Z</time>
      </trkpt>
      <trkpt lat="48.47932" lon="-4.76614">
        <ele>9.6</ele>
        <time>2022-05-27T13:20:18Z</time>
      </trkpt>
      <trkpt lat="48.47896" lon="-4.76571">
        <ele>11.9</ele>
        <time>2022-05-27T13:20:26Z</time>
      </trkpt>
      <trkpt lat="48.47878" lon="-4.76537">
        <ele>12.9</ele>
        <time>2022-05-27T13:20:32Z</time>
      </trkpt>
      <trkpt lat="48.47866" lon="-4.76513">
        <ele>12.9</ele>
        <time>2022-05-27T13:20:36Z</time>
      </trkpt>
      <trkpt lat="48.47859" lon="-4.76499">
        <ele>13</ele>
        <time>2022-05-27T13:20:38Z</time>
      </trkpt>
      <trkpt lat="48.47838" lon="-4.76455">
        <ele>13.4</ele>
        <time>2022-05-27T13:20:44Z</time>
      </trkpt>
      <trkpt lat="48.47815" lon="-4.76397">
        <ele>14.1</ele>
        <time>2022-05-27T13:20:52Z</time>
      </trkpt>
      <trkpt lat="48.47797" lon="-4.76329">
        <ele>14.8</ele>
        <time>2022-05-27T13:21:01Z</time>
      </trkpt>
      <trkpt lat="48.47795" lon="-4.76321">
        <ele>15</ele>
        <time>2022-05-27T13:21:02Z</time>
      </trkpt>
      <trkpt lat="48.47793" lon="-4.76314">
        <ele>15.1</ele>
        <time>2022-05-27T13:21:03Z</time>
      </trkpt>
      <trkpt lat="48.47793" lon="-4.76306">
        <ele>15.3</ele>
        <time>2022-05-27T13:21:04Z</time>
      </trkpt>
      <trkpt lat="48.47781" lon="-4.76235">
        <ele>16.9</ele>
        <time>2022-05-27T13:21:13Z</time>
      </trkpt>
      <trkpt lat="48.47775" lon="-4.76188">
        <ele>17.9</ele>
        <time>2022-05-27T13:21:19Z</time>
      </trkpt>
      <trkpt lat="48.47773" lon="-4.76181">
        <ele>18.1</ele>
        <time>2022-05-27T13:21:20Z</time>
      </trkpt>
      <trkpt lat="48.47763" lon="-4.76136">
        <ele>18.6</ele>
        <time>2022-05-27T13:21:26Z</time>
      </trkpt>
      <trkpt lat="48.47757" lon="-4.76115">
        <ele>18.5</ele>
        <time>2022-05-27T13:21:29Z</time>
      </trkpt>
      <trkpt lat="48.4773" lon="-4.76054">
        <ele>18</ele>
        <time>2022-05-27T13:21:39Z</time>
      </trkpt>
      <trkpt lat="48.477" lon="-4.76">
        <ele>17.7</ele>
        <time>2022-05-27T13:21:47Z</time>
      </trkpt>
      <trkpt lat="48.47667" lon="-4.75952">
        <ele>17.4</ele>
        <time>2022-05-27T13:21:54Z</time>
      </trkpt>
      <trkpt lat="48.4763" lon="-4.75903">
        <ele>17.1</ele>
        <time>2022-05-27T13:22:01Z</time>
      </trkpt>
      <trkpt lat="48.47593" lon="-4.75852">
        <ele>16.8</ele>
        <time>2022-05-27T13:22:08Z</time>
      </trkpt>
      <trkpt lat="48.47555" lon="-4.758">
        <ele>16.5</ele>
        <time>2022-05-27T13:22:15Z</time>
      </trkpt>
      <trkpt lat="48.47521" lon="-4.75754">
        <ele>16.2</ele>
        <time>2022-05-27T13:22:21Z</time>
      </trkpt>
      <trkpt lat="48.47498" lon="-4.75721">
        <ele>16</ele>
        <time>2022-05-27T13:22:25Z</time>
      </trkpt>
      <trkpt lat="48.47487" lon="-4.75705">
        <ele>15.8</ele>
        <time>2022-05-27T13:22:27Z</time>
      </trkpt>
      <trkpt lat="48.47449" lon="-4.75655">
        <ele>15.1</ele>
        <time>2022-05-27T13:22:33Z</time>
      </trkpt>
      <trkpt lat="48.47411" lon="-4.75604">
        <ele>14.4</ele>
        <time>2022-05-27T13:22:39Z</time>
      </trkpt>
      <trkpt lat="48.47385" lon="-4.75568">
        <ele>14</ele>
        <time>2022-05-27T13:22:43Z</time>
      </trkpt>
      <trkpt lat="48.47372" lon="-4.7555">
        <ele>13.6</ele>
        <time>2022-05-27T13:22:45Z</time>
      </trkpt>
      <trkpt lat="48.47345" lon="-4.75512">
        <ele>12.8</ele>
        <time>2022-05-27T13:22:49Z</time>
      </trkpt>
      <trkpt lat="48.47339" lon="-4.75501">
        <ele>12.4</ele>
        <time>2022-05-27T13:22:50Z</time>
      </trkpt>
      <trkpt lat="48.47324" lon="-4.7546">
        <ele>10.9</ele>
        <time>2022-05-27T13:22:53Z</time>
      </trkpt>
      <trkpt lat="48.47322" lon="-4.75428">
        <ele>9.9</ele>
        <time>2022-05-27T13:22:55Z</time>
      </trkpt>
      <trkpt lat="48.47331" lon="-4.75347">
        <ele>6.6</ele>
        <time>2022-05-27T13:23:00Z</time>
      </trkpt>
      <trkpt lat="48.47333" lon="-4.75332">
        <ele>6.1</ele>
        <time>2022-05-27T13:23:01Z</time>
      </trkpt>
      <trkpt lat="48.47342" lon="-4.75274">
        <ele>5</ele>
        <time>2022-05-27T13:23:05Z</time>
      </trkpt>
      <trkpt lat="48.47357" lon="-4.75205">
        <ele>3.4</ele>
        <time>2022-05-27T13:23:11Z</time>
      </trkpt>
      <trkpt lat="48.47362" lon="-4.75187">
        <ele>2.9</ele>
        <time>2022-05-27T13:23:13Z</time>
      </trkpt>
      <trkpt lat="48.47366" lon="-4.75179">
        <ele>2.9</ele>
        <time>2022-05-27T13:23:14Z</time>
      </trkpt>
      <trkpt lat="48.4739" lon="-4.75149">
        <ele>2.7</ele>
        <time>2022-05-27T13:23:19Z</time>
      </trkpt>
      <trkpt lat="48.47404" lon="-4.75132">
        <ele>2.9</ele>
        <time>2022-05-27T13:23:22Z</time>
      </trkpt>
      <trkpt lat="48.47419" lon="-4.75115">
        <ele>3.2</ele>
        <time>2022-05-27T13:23:25Z</time>
      </trkpt>
      <trkpt lat="48.47432" lon="-4.75098">
        <ele>3.5</ele>
        <time>2022-05-27T13:23:28Z</time>
      </trkpt>
      <trkpt lat="48.47437" lon="-4.75048">
        <ele>4.1</ele>
        <time>2022-05-27T13:23:33Z</time>
      </trkpt>
      <trkpt lat="48.47434" lon="-4.7503">
        <ele>4.3</ele>
        <time>2022-05-27T13:23:35Z</time>
      </trkpt>
      <trkpt lat="48.47423" lon="-4.75009">
        <ele>4.6</ele>
        <time>2022-05-27T13:23:38Z</time>
      </trkpt>
      <trkpt lat="48.4741" lon="-4.74994">
        <ele>5</ele>
        <time>2022-05-27T13:23:41Z</time>
      </trkpt>
      <trkpt lat="48.47373" lon="-4.74963">
        <ele>5.8</ele>
        <time>2022-05-27T13:23:48Z</time>
      </trkpt>
      <trkpt lat="48.47335" lon="-4.74918">
        <ele>6.7</ele>
        <time>2022-05-27T13:23:56Z</time>
      </trkpt>
      <trkpt lat="48.47323" lon="-4.74891">
        <ele>7.3</ele>
        <time>2022-05-27T13:24:00Z</time>
      </trkpt>
      <trkpt lat="48.47309" lon="-4.74857">
        <ele>8.3</ele>
        <time>2022-05-27T13:24:05Z</time>
      </trkpt>
      <trkpt lat="48.47308" lon="-4.74849">
        <ele>8.5</ele>
        <time>2022-05-27T13:24:06Z</time>
      </trkpt>
      <trkpt lat="48.47301" lon="-4.7479">
        <ele>9.9</ele>
        <time>2022-05-27T13:24:14Z</time>
      </trkpt>
      <trkpt lat="48.47303" lon="-4.74724">
        <ele>11.6</ele>
        <time>2022-05-27T13:24:24Z</time>
      </trkpt>
      <trkpt lat="48.47304" lon="-4.74718">
        <ele>11.8</ele>
        <time>2022-05-27T13:24:25Z</time>
      </trkpt>
      <trkpt lat="48.47321" lon="-4.7465">
        <ele>13.2</ele>
        <time>2022-05-27T13:24:35Z</time>
      </trkpt>
      <trkpt lat="48.47338" lon="-4.74612">
        <ele>14.1</ele>
        <time>2022-05-27T13:24:41Z</time>
      </trkpt>
      <trkpt lat="48.47343" lon="-4.74607">
        <ele>14.3</ele>
        <time>2022-05-27T13:24:42Z</time>
      </trkpt>
      <trkpt lat="48.47379" lon="-4.74574">
        <ele>14.6</ele>
        <time>2022-05-27T13:24:50Z</time>
      </trkpt>
      <trkpt lat="48.47383" lon="-4.74569">
        <ele>14.7</ele>
        <time>2022-05-27T13:24:51Z</time>
      </trkpt>
      <trkpt lat="48.47413" lon="-4.74552">
        <ele>15</ele>
        <time>2022-05-27T13:24:57Z</time>
      </trkpt>
      <trkpt lat="48.47418" lon="-4.74548">
        <ele>15</ele>
        <time>2022-05-27T13:24:58Z</time>
      </trkpt>
      <trkpt lat="48.47423" lon="-4.74546">
        <ele>15.1</ele>
        <time>2022-05-27T13:24:59Z</time>
      </trkpt>
      <trkpt lat="48.47442" lon="-4.74527">
        <ele>15.3</ele>
        <time>2022-05-27T13:25:03Z</time>
      </trkpt>
      <trkpt lat="48.47453" lon="-4.74504">
        <ele>15.4</ele>
        <time>2022-05-27T13:25:06Z</time>
      </trkpt>
      <trkpt lat="48.47463" lon="-4.74444">
        <ele>15.8</ele>
        <time>2022-05-27T13:25:14Z</time>
      </trkpt>
      <trkpt lat="48.47463" lon="-4.74434">
        <ele>15.9</ele>
        <time>2022-05-27T13:25:15Z</time>
      </trkpt>
      <trkpt lat="48.47474" lon="-4.74382">
        <ele>16.2</ele>
        <time>2022-05-27T13:25:21Z</time>
      </trkpt>
      <trkpt lat="48.47476" lon="-4.74353">
        <ele>16.2</ele>
        <time>2022-05-27T13:25:24Z</time>
      </trkpt>
      <trkpt lat="48.47481" lon="-4.74305">
        <ele>15.5</ele>
        <time>2022-05-27T13:25:29Z</time>
      </trkpt>
      <trkpt lat="48.47484" lon="-4.74294">
        <ele>15.3</ele>
        <time>2022-05-27T13:25:30Z</time>
      </trkpt>
      <trkpt lat="48.47491" lon="-4.74263">
        <ele>14.4</ele>
        <time>2022-05-27T13:25:33Z</time>
      </trkpt>
      <trkpt lat="48.47507" lon="-4.74236">
        <ele>13.6</ele>
        <time>2022-05-27T13:25:36Z</time>
      </trkpt>
      <trkpt lat="48.47522" lon="-4.74208">
        <ele>12.6</ele>
        <time>2022-05-27T13:25:39Z</time>
      </trkpt>
      <trkpt lat="48.47537" lon="-4.74178">
        <ele>11.8</ele>
        <time>2022-05-27T13:25:42Z</time>
      </trkpt>
      <trkpt lat="48.47541" lon="-4.74167">
        <ele>11.6</ele>
        <time>2022-05-27T13:25:43Z</time>
      </trkpt>
      <trkpt lat="48.47547" lon="-4.74128">
        <ele>11.3</ele>
        <time>2022-05-27T13:25:46Z</time>
      </trkpt>
      <trkpt lat="48.47548" lon="-4.74103">
        <ele>11.2</ele>
        <time>2022-05-27T13:25:48Z</time>
      </trkpt>
      <trkpt lat="48.4755" lon="-4.74055">
        <ele>12.2</ele>
        <time>2022-05-27T13:25:52Z</time>
      </trkpt>
      <trkpt lat="48.47552" lon="-4.74045">
        <ele>12.4</ele>
        <time>2022-05-27T13:25:53Z</time>
      </trkpt>
      <trkpt lat="48.47563" lon="-4.73988">
        <ele>13.3</ele>
        <time>2022-05-27T13:25:59Z</time>
      </trkpt>
      <trkpt lat="48.47567" lon="-4.73972">
        <ele>13.7</ele>
        <time>2022-05-27T13:26:01Z</time>
      </trkpt>
      <trkpt lat="48.47583" lon="-4.73913">
        <ele>14.8</ele>
        <time>2022-05-27T13:26:08Z</time>
      </trkpt>
      <trkpt lat="48.4762" lon="-4.73869">
        <ele>16</ele>
        <time>2022-05-27T13:26:16Z</time>
      </trkpt>
      <trkpt lat="48.47644" lon="-4.73843">
        <ele>16.8</ele>
        <time>2022-05-27T13:26:21Z</time>
      </trkpt>
      <trkpt lat="48.47658" lon="-4.73826">
        <ele>16.4</ele>
        <time>2022-05-27T13:26:24Z</time>
      </trkpt>
      <trkpt lat="48.47681" lon="-4.73764">
        <ele>15.7</ele>
        <time>2022-05-27T13:26:31Z</time>
      </trkpt>
      <trkpt lat="48.477" lon="-4.73698">
        <ele>15.1</ele>
        <time>2022-05-27T13:26:37Z</time>
      </trkpt>
      <trkpt lat="48.477" lon="-4.73686">
        <ele>15</ele>
        <time>2022-05-27T13:26:38Z</time>
      </trkpt>
      <trkpt lat="48.47697" lon="-4.73674">
        <ele>14.9</ele>
        <time>2022-05-27T13:26:39Z</time>
      </trkpt>
      <trkpt lat="48.47694" lon="-4.73663">
        <ele>15</ele>
        <time>2022-05-27T13:26:40Z</time>
      </trkpt>
      <trkpt lat="48.47687" lon="-4.73643">
        <ele>15</ele>
        <time>2022-05-27T13:26:42Z</time>
      </trkpt>
      <trkpt lat="48.47665" lon="-4.7358">
        <ele>15.3</ele>
        <time>2022-05-27T13:26:49Z</time>
      </trkpt>
      <trkpt lat="48.47661" lon="-4.73564">
        <ele>15.4</ele>
        <time>2022-05-27T13:26:51Z</time>
      </trkpt>
      <trkpt lat="48.47653" lon="-4.7353">
        <ele>16.8</ele>
        <time>2022-05-27T13:26:55Z</time>
      </trkpt>
      <trkpt lat="48.47652" lon="-4.73512">
        <ele>17.4</ele>
        <time>2022-05-27T13:26:57Z</time>
      </trkpt>
      <trkpt lat="48.47651" lon="-4.73493">
        <ele>17.7</ele>
        <time>2022-05-27T13:26:59Z</time>
      </trkpt>
      <trkpt lat="48.47653" lon="-4.73439">
        <ele>18.7</ele>
        <time>2022-05-27T13:27:05Z</time>
      </trkpt>
      <trkpt lat="48.47655" lon="-4.73402">
        <ele>19.3</ele>
        <time>2022-05-27T13:27:09Z</time>
      </trkpt>
      <trkpt lat="48.47657" lon="-4.73365">
        <ele>19.7</ele>
        <time>2022-05-27T13:27:13Z</time>
      </trkpt>
      <trkpt lat="48.47659" lon="-4.73345">
        <ele>19.9</ele>
        <time>2022-05-27T13:27:15Z</time>
      </trkpt>
      <trkpt lat="48.47664" lon="-4.73296">
        <ele>19.7</ele>
        <time>2022-05-27T13:27:20Z</time>
      </trkpt>
      <trkpt lat="48.47675" lon="-4.73226">
        <ele>19.4</ele>
        <time>2022-05-27T13:27:27Z</time>
      </trkpt>
      <trkpt lat="48.47684" lon="-4.73186">
        <ele>19.2</ele>
        <time>2022-05-27T13:27:31Z</time>
      </trkpt>
      <trkpt lat="48.47697" lon="-4.7312">
        <ele>18.9</ele>
        <time>2022-05-27T13:27:37Z</time>
      </trkpt>
      <trkpt lat="48.47698" lon="-4.73107">
        <ele>18.9</ele>
        <time>2022-05-27T13:27:38Z</time>
      </trkpt>
      <trkpt lat="48.47706" lon="-4.73046">
        <ele>18.4</ele>
        <time>2022-05-27T13:27:43Z</time>
      </trkpt>
      <trkpt lat="48.4771" lon="-4.7297">
        <ele>17.9</ele>
        <time>2022-05-27T13:27:49Z</time>
      </trkpt>
      <trkpt lat="48.47709" lon="-4.72945">
        <ele>17.7</ele>
        <time>2022-05-27T13:27:51Z</time>
      </trkpt>
      <trkpt lat="48.47705" lon="-4.72897">
        <ele>17.3</ele>
        <time>2022-05-27T13:27:55Z</time>
      </trkpt>
      <trkpt lat="48.47703" lon="-4.72874">
        <ele>17.1</ele>
        <time>2022-05-27T13:27:57Z</time>
      </trkpt>
      <trkpt lat="48.47702" lon="-4.728">
        <ele>16.5</ele>
        <time>2022-05-27T13:28:04Z</time>
      </trkpt>
      <trkpt lat="48.47702" lon="-4.72724">
        <ele>15.8</ele>
        <time>2022-05-27T13:28:11Z</time>
      </trkpt>
      <trkpt lat="48.47707" lon="-4.72644">
        <ele>15.1</ele>
        <time>2022-05-27T13:28:18Z</time>
      </trkpt>
      <trkpt lat="48.47722" lon="-4.72579">
        <ele>14.6</ele>
        <time>2022-05-27T13:28:23Z</time>
      </trkpt>
      <trkpt lat="48.47725" lon="-4.72563">
        <ele>14.4</ele>
        <time>2022-05-27T13:28:24Z</time>
      </trkpt>
      <trkpt lat="48.47733" lon="-4.72517">
        <ele>12.8</ele>
        <time>2022-05-27T13:28:27Z</time>
      </trkpt>
      <trkpt lat="48.47732" lon="-4.72466">
        <ele>11.5</ele>
        <time>2022-05-27T13:28:30Z</time>
      </trkpt>
      <trkpt lat="48.47717" lon="-4.72391">
        <ele>12.3</ele>
        <time>2022-05-27T13:28:35Z</time>
      </trkpt>
      <trkpt lat="48.47713" lon="-4.72321">
        <ele>13.4</ele>
        <time>2022-05-27T13:28:42Z</time>
      </trkpt>
      <trkpt lat="48.4771" lon="-4.72271">
        <ele>15.1</ele>
        <time>2022-05-27T13:28:48Z</time>
      </trkpt>
      <trkpt lat="48.47708" lon="-4.72246">
        <ele>15.7</ele>
        <time>2022-05-27T13:28:51Z</time>
      </trkpt>
      <trkpt lat="48.47707" lon="-4.72221">
        <ele>16.3</ele>
        <time>2022-05-27T13:28:54Z</time>
      </trkpt>
      <trkpt lat="48.47705" lon="-4.72172">
        <ele>17.5</ele>
        <time>2022-05-27T13:29:00Z</time>
      </trkpt>
      <trkpt lat="48.47704" lon="-4.721">
        <ele>19.3</ele>
        <time>2022-05-27T13:29:09Z</time>
      </trkpt>
      <trkpt lat="48.47706" lon="-4.72078">
        <ele>19.8</ele>
        <time>2022-05-27T13:29:12Z</time>
      </trkpt>
      <trkpt lat="48.47711" lon="-4.72005">
        <ele>21.4</ele>
        <time>2022-05-27T13:29:22Z</time>
      </trkpt>
      <trkpt lat="48.47718" lon="-4.71937">
        <ele>22.6</ele>
        <time>2022-05-27T13:29:30Z</time>
      </trkpt>
      <trkpt lat="48.47725" lon="-4.71867">
        <ele>22.5</ele>
        <time>2022-05-27T13:29:38Z</time>
      </trkpt>
      <trkpt lat="48.47728" lon="-4.71842">
        <ele>22.4</ele>
        <time>2022-05-27T13:29:41Z</time>
      </trkpt>
      <trkpt lat="48.47726" lon="-4.71816">
        <ele>22.4</ele>
        <time>2022-05-27T13:29:44Z</time>
      </trkpt>
      <trkpt lat="48.477" lon="-4.71757">
        <ele>22.2</ele>
        <time>2022-05-27T13:29:51Z</time>
      </trkpt>
      <trkpt lat="48.47661" lon="-4.71704">
        <ele>22.1</ele>
        <time>2022-05-27T13:29:58Z</time>
      </trkpt>
      <trkpt lat="48.4765" lon="-4.71691">
        <ele>22.1</ele>
        <time>2022-05-27T13:30:00Z</time>
      </trkpt>
      <trkpt lat="48.47622" lon="-4.71658">
        <ele>22.6</ele>
        <time>2022-05-27T13:30:05Z</time>
      </trkpt>
      <trkpt lat="48.47595" lon="-4.71631">
        <ele>23.9</ele>
        <time>2022-05-27T13:30:10Z</time>
      </trkpt>
      <trkpt lat="48.47584" lon="-4.7162">
        <ele>24.2</ele>
        <time>2022-05-27T13:30:12Z</time>
      </trkpt>
      <trkpt lat="48.47545" lon="-4.7158">
        <ele>25.1</ele>
        <time>2022-05-27T13:30:20Z</time>
      </trkpt>
      <trkpt lat="48.47504" lon="-4.71541">
        <ele>26</ele>
        <time>2022-05-27T13:30:27Z</time>
      </trkpt>
      <trkpt lat="48.47462" lon="-4.71507">
        <ele>26.7</ele>
        <time>2022-05-27T13:30:34Z</time>
      </trkpt>
      <trkpt lat="48.47419" lon="-4.7148">
        <ele>25.2</ele>
        <time>2022-05-27T13:30:41Z</time>
      </trkpt>
      <trkpt lat="48.47382" lon="-4.71457">
        <ele>24.1</ele>
        <time>2022-05-27T13:30:46Z</time>
      </trkpt>
      <trkpt lat="48.47374" lon="-4.71452">
        <ele>23.7</ele>
        <time>2022-05-27T13:30:47Z</time>
      </trkpt>
      <trkpt lat="48.47335" lon="-4.71419">
        <ele>21.7</ele>
        <time>2022-05-27T13:30:52Z</time>
      </trkpt>
      <trkpt lat="48.47315" lon="-4.71388">
        <ele>19.9</ele>
        <time>2022-05-27T13:30:55Z</time>
      </trkpt>
      <trkpt lat="48.473" lon="-4.71348">
        <ele>18.1</ele>
        <time>2022-05-27T13:30:58Z</time>
      </trkpt>
      <trkpt lat="48.4729" lon="-4.71321">
        <ele>16.4</ele>
        <time>2022-05-27T13:31:00Z</time>
      </trkpt>
      <trkpt lat="48.47274" lon="-4.71272">
        <ele>13.5</ele>
        <time>2022-05-27T13:31:04Z</time>
      </trkpt>
      <trkpt lat="48.47269" lon="-4.71263">
        <ele>13.4</ele>
        <time>2022-05-27T13:31:05Z</time>
      </trkpt>
      <trkpt lat="48.47253" lon="-4.71259">
        <ele>13.3</ele>
        <time>2022-05-27T13:31:07Z</time>
      </trkpt>
      <trkpt lat="48.47247" lon="-4.71267">
        <ele>13.3</ele>
        <time>2022-05-27T13:31:08Z</time>
      </trkpt>
      <trkpt lat="48.47232" lon="-4.71332">
        <ele>13</ele>
        <time>2022-05-27T13:31:15Z</time>
      </trkpt>
      <trkpt lat="48.47218" lon="-4.71373">
        <ele>13.3</ele>
        <time>2022-05-27T13:31:20Z</time>
      </trkpt>
      <trkpt lat="48.47217" lon="-4.71382">
        <ele>13.3</ele>
        <time>2022-05-27T13:31:21Z</time>
      </trkpt>
      <trkpt lat="48.47212" lon="-4.714">
        <ele>13.5</ele>
        <time>2022-05-27T13:31:23Z</time>
      </trkpt>
      <trkpt lat="48.47206" lon="-4.71436">
        <ele>13.6</ele>
        <time>2022-05-27T13:31:27Z</time>
      </trkpt>
      <trkpt lat="48.47207" lon="-4.71445">
        <ele>13.6</ele>
        <time>2022-05-27T13:31:28Z</time>
      </trkpt>
      <trkpt lat="48.47189" lon="-4.71509">
        <ele>13.1</ele>
        <time>2022-05-27T13:31:36Z</time>
      </trkpt>
      <trkpt lat="48.47156" lon="-4.71566">
        <ele>12.7</ele>
        <time>2022-05-27T13:31:44Z</time>
      </trkpt>
      <trkpt lat="48.47121" lon="-4.71614">
        <ele>12.3</ele>
        <time>2022-05-27T13:31:51Z</time>
      </trkpt>
      <trkpt lat="48.47089" lon="-4.71639">
        <ele>12</ele>
        <time>2022-05-27T13:31:56Z</time>
      </trkpt>
      <trkpt lat="48.47059" lon="-4.71645">
        <ele>11.8</ele>
        <time>2022-05-27T13:32:00Z</time>
      </trkpt>
      <trkpt lat="48.47006" lon="-4.71645">
        <ele>11.4</ele>
        <time>2022-05-27T13:32:06Z</time>
      </trkpt>
      <trkpt lat="48.46989" lon="-4.71649">
        <ele>11.2</ele>
        <time>2022-05-27T13:32:08Z</time>
      </trkpt>
      <trkpt lat="48.46971" lon="-4.71651">
        <ele>10.5</ele>
        <time>2022-05-27T13:32:10Z</time>
      </trkpt>
      <trkpt lat="48.46937" lon="-4.71672">
        <ele>9</ele>
        <time>2022-05-27T13:32:14Z</time>
      </trkpt>
      <trkpt lat="48.46886" lon="-4.71672">
        <ele>7.1</ele>
        <time>2022-05-27T13:32:19Z</time>
      </trkpt>
      <trkpt lat="48.46875" lon="-4.71673">
        <ele>6.9</ele>
        <time>2022-05-27T13:32:20Z</time>
      </trkpt>
      <trkpt lat="48.46854" lon="-4.71676">
        <ele>7.2</ele>
        <time>2022-05-27T13:32:22Z</time>
      </trkpt>
      <trkpt lat="48.46839" lon="-4.71691">
        <ele>7.5</ele>
        <time>2022-05-27T13:32:24Z</time>
      </trkpt>
      <trkpt lat="48.46831" lon="-4.71715">
        <ele>7.9</ele>
        <time>2022-05-27T13:32:26Z</time>
      </trkpt>
      <trkpt lat="48.46829" lon="-4.71758">
        <ele>8.5</ele>
        <time>2022-05-27T13:32:30Z</time>
      </trkpt>
      <trkpt lat="48.46832" lon="-4.71775">
        <ele>8.9</ele>
        <time>2022-05-27T13:32:32Z</time>
      </trkpt>
      <trkpt lat="48.46842" lon="-4.71827">
        <ele>11.1</ele>
        <time>2022-05-27T13:32:38Z</time>
      </trkpt>
      <trkpt lat="48.46854" lon="-4.71894">
        <ele>13.9</ele>
        <time>2022-05-27T13:32:47Z</time>
      </trkpt>
      <trkpt lat="48.46858" lon="-4.71915">
        <ele>14.8</ele>
        <time>2022-05-27T13:32:50Z</time>
      </trkpt>
      <trkpt lat="48.46867" lon="-4.71956">
        <ele>16.2</ele>
        <time>2022-05-27T13:32:56Z</time>
      </trkpt>
      <trkpt lat="48.46868" lon="-4.71963">
        <ele>16.4</ele>
        <time>2022-05-27T13:32:57Z</time>
      </trkpt>
      <trkpt lat="48.46873" lon="-4.71997">
        <ele>17.8</ele>
        <time>2022-05-27T13:33:02Z</time>
      </trkpt>
      <trkpt lat="48.46878" lon="-4.7203">
        <ele>18.9</ele>
        <time>2022-05-27T13:33:07Z</time>
      </trkpt>
      <trkpt lat="48.46874" lon="-4.72078">
        <ele>20.4</ele>
        <time>2022-05-27T13:33:14Z</time>
      </trkpt>
      <trkpt lat="48.46872" lon="-4.72098">
        <ele>21</ele>
        <time>2022-05-27T13:33:17Z</time>
      </trkpt>
      <trkpt lat="48.46858" lon="-4.72164">
        <ele>23</ele>
        <time>2022-05-27T13:33:27Z</time>
      </trkpt>
      <trkpt lat="48.46852" lon="-4.72196">
        <ele>24</ele>
        <time>2022-05-27T13:33:32Z</time>
      </trkpt>
      <trkpt lat="48.46845" lon="-4.72229">
        <ele>24.9</ele>
        <time>2022-05-27T13:33:37Z</time>
      </trkpt>
      <trkpt lat="48.46832" lon="-4.72294">
        <ele>26.8</ele>
        <time>2022-05-27T13:33:47Z</time>
      </trkpt>
      <trkpt lat="48.46828" lon="-4.72313">
        <ele>27.3</ele>
        <time>2022-05-27T13:33:50Z</time>
      </trkpt>
      <trkpt lat="48.46818" lon="-4.72364">
        <ele>28.7</ele>
        <time>2022-05-27T13:33:58Z</time>
      </trkpt>
      <trkpt lat="48.46797" lon="-4.72428">
        <ele>30.5</ele>
        <time>2022-05-27T13:34:09Z</time>
      </trkpt>
      <trkpt lat="48.46786" lon="-4.72455">
        <ele>31.4</ele>
        <time>2022-05-27T13:34:14Z</time>
      </trkpt>
      <trkpt lat="48.46772" lon="-4.72487">
        <ele>32.7</ele>
        <time>2022-05-27T13:34:20Z</time>
      </trkpt>
      <trkpt lat="48.46748" lon="-4.72542">
        <ele>34.9</ele>
        <time>2022-05-27T13:34:30Z</time>
      </trkpt>
      <trkpt lat="48.46746" lon="-4.72548">
        <ele>35.1</ele>
        <time>2022-05-27T13:34:31Z</time>
      </trkpt>
      <trkpt lat="48.46727" lon="-4.72615">
        <ele>37</ele>
        <time>2022-05-27T13:34:41Z</time>
      </trkpt>
      <trkpt lat="48.46718" lon="-4.72673">
        <ele>38.3</ele>
        <time>2022-05-27T13:34:48Z</time>
      </trkpt>
      <trkpt lat="48.46716" lon="-4.72681">
        <ele>38.4</ele>
        <time>2022-05-27T13:34:49Z</time>
      </trkpt>
      <trkpt lat="48.46707" lon="-4.72724">
        <ele>38.7</ele>
        <time>2022-05-27T13:34:54Z</time>
      </trkpt>
      <trkpt lat="48.46704" lon="-4.72732">
        <ele>38.8</ele>
        <time>2022-05-27T13:34:55Z</time>
      </trkpt>
      <trkpt lat="48.4669" lon="-4.7275">
        <ele>39</ele>
        <time>2022-05-27T13:34:58Z</time>
      </trkpt>
      <trkpt lat="48.46642" lon="-4.72773">
        <ele>39.6</ele>
        <time>2022-05-27T13:35:06Z</time>
      </trkpt>
      <trkpt lat="48.46594" lon="-4.72782">
        <ele>40.3</ele>
        <time>2022-05-27T13:35:14Z</time>
      </trkpt>
      <trkpt lat="48.4657" lon="-4.72781">
        <ele>40.6</ele>
        <time>2022-05-27T13:35:18Z</time>
      </trkpt>
      <trkpt lat="48.46546" lon="-4.72781">
        <ele>41.1</ele>
        <time>2022-05-27T13:35:22Z</time>
      </trkpt>
      <trkpt lat="48.46534" lon="-4.72782">
        <ele>41.3</ele>
        <time>2022-05-27T13:35:24Z</time>
      </trkpt>
      <trkpt lat="48.46497" lon="-4.72787">
        <ele>42.1</ele>
        <time>2022-05-27T13:35:30Z</time>
      </trkpt>
      <trkpt lat="48.46455" lon="-4.72818">
        <ele>43.2</ele>
        <time>2022-05-27T13:35:38Z</time>
      </trkpt>
      <trkpt lat="48.46436" lon="-4.72834">
        <ele>43.8</ele>
        <time>2022-05-27T13:35:42Z</time>
      </trkpt>
      <trkpt lat="48.46413" lon="-4.72856">
        <ele>45.3</ele>
        <time>2022-05-27T13:35:47Z</time>
      </trkpt>
      <trkpt lat="48.46382" lon="-4.72887">
        <ele>47.2</ele>
        <time>2022-05-27T13:35:54Z</time>
      </trkpt>
      <trkpt lat="48.46374" lon="-4.72896">
        <ele>47.8</ele>
        <time>2022-05-27T13:35:56Z</time>
      </trkpt>
      <trkpt lat="48.46338" lon="-4.72946">
        <ele>50.6</ele>
        <time>2022-05-27T13:36:06Z</time>
      </trkpt>
      <trkpt lat="48.46303" lon="-4.72999">
        <ele>53</ele>
        <time>2022-05-27T13:36:16Z</time>
      </trkpt>
      <trkpt lat="48.46296" lon="-4.73009">
        <ele>53.5</ele>
        <time>2022-05-27T13:36:18Z</time>
      </trkpt>
      <trkpt lat="48.4627" lon="-4.73046">
        <ele>54.9</ele>
        <time>2022-05-27T13:36:25Z</time>
      </trkpt>
      <trkpt lat="48.46233" lon="-4.7309">
        <ele>57</ele>
        <time>2022-05-27T13:36:35Z</time>
      </trkpt>
      <trkpt lat="48.46195" lon="-4.73135">
        <ele>58.7</ele>
        <time>2022-05-27T13:36:44Z</time>
      </trkpt>
      <trkpt lat="48.46164" lon="-4.73182">
        <ele>60.1</ele>
        <time>2022-05-27T13:36:52Z</time>
      </trkpt>
      <trkpt lat="48.4616" lon="-4.73188">
        <ele>60.2</ele>
        <time>2022-05-27T13:36:53Z</time>
      </trkpt>
      <trkpt lat="48.46139" lon="-4.73219">
        <ele>60.7</ele>
        <time>2022-05-27T13:36:58Z</time>
      </trkpt>
      <trkpt lat="48.46127" lon="-4.73237">
        <ele>61.1</ele>
        <time>2022-05-27T13:37:01Z</time>
      </trkpt>
      <trkpt lat="48.46091" lon="-4.73292">
        <ele>62</ele>
        <time>2022-05-27T13:37:10Z</time>
      </trkpt>
      <trkpt lat="48.46059" lon="-4.73342">
        <ele>62.8</ele>
        <time>2022-05-27T13:37:18Z</time>
      </trkpt>
      <trkpt lat="48.46027" lon="-4.73391">
        <ele>63.7</ele>
        <time>2022-05-27T13:37:26Z</time>
      </trkpt>
      <trkpt lat="48.45995" lon="-4.73438">
        <ele>64.5</ele>
        <time>2022-05-27T13:37:34Z</time>
      </trkpt>
      <trkpt lat="48.45991" lon="-4.73444">
        <ele>64.6</ele>
        <time>2022-05-27T13:37:35Z</time>
      </trkpt>
      <trkpt lat="48.45955" lon="-4.73491">
        <ele>65.4</ele>
        <time>2022-05-27T13:37:43Z</time>
      </trkpt>
      <trkpt lat="48.45918" lon="-4.73535">
        <ele>66</ele>
        <time>2022-05-27T13:37:50Z</time>
      </trkpt>
      <trkpt lat="48.45876" lon="-4.73561">
        <ele>66.6</ele>
        <time>2022-05-27T13:37:57Z</time>
      </trkpt>
      <trkpt lat="48.45835" lon="-4.73587">
        <ele>67.3</ele>
        <time>2022-05-27T13:38:04Z</time>
      </trkpt>
      <trkpt lat="48.45791" lon="-4.73623">
        <ele>68</ele>
        <time>2022-05-27T13:38:12Z</time>
      </trkpt>
      <trkpt lat="48.45772" lon="-4.73645">
        <ele>68.4</ele>
        <time>2022-05-27T13:38:16Z</time>
      </trkpt>
      <trkpt lat="48.45768" lon="-4.73663">
        <ele>68.4</ele>
        <time>2022-05-27T13:38:18Z</time>
      </trkpt>
      <trkpt lat="48.45769" lon="-4.73698">
        <ele>68.6</ele>
        <time>2022-05-27T13:38:22Z</time>
      </trkpt>
      <trkpt lat="48.45771" lon="-4.73733">
        <ele>68.4</ele>
        <time>2022-05-27T13:38:26Z</time>
      </trkpt>
      <trkpt lat="48.45775" lon="-4.73808">
        <ele>68.1</ele>
        <time>2022-05-27T13:38:34Z</time>
      </trkpt>
      <trkpt lat="48.45778" lon="-4.73876">
        <ele>67.8</ele>
        <time>2022-05-27T13:38:41Z</time>
      </trkpt>
      <trkpt lat="48.45782" lon="-4.73948">
        <ele>67.6</ele>
        <time>2022-05-27T13:38:48Z</time>
      </trkpt>
      <trkpt lat="48.45786" lon="-4.7402">
        <ele>67.3</ele>
        <time>2022-05-27T13:38:55Z</time>
      </trkpt>
      <trkpt lat="48.45787" lon="-4.74031">
        <ele>67.2</ele>
        <time>2022-05-27T13:38:56Z</time>
      </trkpt>
      <trkpt lat="48.4579" lon="-4.74098">
        <ele>65.4</ele>
        <time>2022-05-27T13:39:02Z</time>
      </trkpt>
      <trkpt lat="48.45794" lon="-4.74166">
        <ele>63.7</ele>
        <time>2022-05-27T13:39:08Z</time>
      </trkpt>
      <trkpt lat="48.45797" lon="-4.74225">
        <ele>62.8</ele>
        <time>2022-05-27T13:39:13Z</time>
      </trkpt>
      <trkpt lat="48.45797" lon="-4.74237">
        <ele>62.6</ele>
        <time>2022-05-27T13:39:14Z</time>
      </trkpt>
      <trkpt lat="48.45798" lon="-4.74261">
        <ele>62.1</ele>
        <time>2022-05-27T13:39:16Z</time>
      </trkpt>
      <trkpt lat="48.45803" lon="-4.74309">
        <ele>61</ele>
        <time>2022-05-27T13:39:20Z</time>
      </trkpt>
      <trkpt lat="48.45803" lon="-4.74321">
        <ele>60.7</ele>
        <time>2022-05-27T13:39:21Z</time>
      </trkpt>
      <trkpt lat="48.45809" lon="-4.74379">
        <ele>59.4</ele>
        <time>2022-05-27T13:39:26Z</time>
      </trkpt>
      <trkpt lat="48.45811" lon="-4.7439">
        <ele>59.3</ele>
        <time>2022-05-27T13:39:27Z</time>
      </trkpt>
      <trkpt lat="48.45818" lon="-4.74459">
        <ele>58.2</ele>
        <time>2022-05-27T13:39:33Z</time>
      </trkpt>
      <trkpt lat="48.45825" lon="-4.74535">
        <ele>57</ele>
        <time>2022-05-27T13:39:40Z</time>
      </trkpt>
      <trkpt lat="48.45829" lon="-4.74578">
        <ele>56.3</ele>
        <time>2022-05-27T13:39:44Z</time>
      </trkpt>
      <trkpt lat="48.45832" lon="-4.74611">
        <ele>56</ele>
        <time>2022-05-27T13:39:47Z</time>
      </trkpt>
      <trkpt lat="48.45841" lon="-4.74687">
        <ele>55.2</ele>
        <time>2022-05-27T13:39:54Z</time>
      </trkpt>
      <trkpt lat="48.45844" lon="-4.74706">
        <ele>55</ele>
        <time>2022-05-27T13:39:56Z</time>
      </trkpt>
      <trkpt lat="48.45849" lon="-4.74755">
        <ele>54.4</ele>
        <time>2022-05-27T13:40:01Z</time>
      </trkpt>
      <trkpt lat="48.45856" lon="-4.74828">
        <ele>53.5</ele>
        <time>2022-05-27T13:40:09Z</time>
      </trkpt>
      <trkpt lat="48.4586" lon="-4.74875">
        <ele>52.9</ele>
        <time>2022-05-27T13:40:14Z</time>
      </trkpt>
      <trkpt lat="48.45863" lon="-4.74904">
        <ele>52.3</ele>
        <time>2022-05-27T13:40:17Z</time>
      </trkpt>
      <trkpt lat="48.4587" lon="-4.74972">
        <ele>50.9</ele>
        <time>2022-05-27T13:40:24Z</time>
      </trkpt>
      <trkpt lat="48.45877" lon="-4.75041">
        <ele>49.4</ele>
        <time>2022-05-27T13:40:31Z</time>
      </trkpt>
      <trkpt lat="48.45878" lon="-4.75052">
        <ele>49.2</ele>
        <time>2022-05-27T13:40:32Z</time>
      </trkpt>
      <trkpt lat="48.45884" lon="-4.75115">
        <ele>47.4</ele>
        <time>2022-05-27T13:40:38Z</time>
      </trkpt>
      <trkpt lat="48.4589" lon="-4.7517">
        <ele>45.9</ele>
        <time>2022-05-27T13:40:43Z</time>
      </trkpt>
      <trkpt lat="48.45892" lon="-4.75191">
        <ele>45.2</ele>
        <time>2022-05-27T13:40:45Z</time>
      </trkpt>
      <trkpt lat="48.459" lon="-4.75267">
        <ele>42.8</ele>
        <time>2022-05-27T13:40:52Z</time>
      </trkpt>
      <trkpt lat="48.45901" lon="-4.75276">
        <ele>42.5</ele>
        <time>2022-05-27T13:40:53Z</time>
      </trkpt>
      <trkpt lat="48.45907" lon="-4.75306">
        <ele>41.5</ele>
        <time>2022-05-27T13:40:57Z</time>
      </trkpt>
      <trkpt lat="48.45941" lon="-4.75307">
        <ele>40</ele>
        <time>2022-05-27T13:41:03Z</time>
      </trkpt>
      <trkpt lat="48.45942" lon="-4.75324">
        <ele>39.8</ele>
        <time>2022-05-27T13:41:04Z</time>
      </trkpt>
      <trkpt lat="48.45943" lon="-4.75332">
        <ele>39.6</ele>
        <time>2022-05-27T13:41:05Z</time>
      </trkpt>
      <trkpt lat="48.45951" lon="-4.754">
        <ele>37.9</ele>
        <time>2022-05-27T13:41:13Z</time>
      </trkpt>
      <trkpt lat="48.45948" lon="-4.75468">
        <ele>36.4</ele>
        <time>2022-05-27T13:41:20Z</time>
      </trkpt>
      <trkpt lat="48.45944" lon="-4.75502">
        <ele>35.6</ele>
        <time>2022-05-27T13:41:23Z</time>
      </trkpt>
      <trkpt lat="48.4594" lon="-4.75537">
        <ele>33.5</ele>
        <time>2022-05-27T13:41:26Z</time>
      </trkpt>
      <trkpt lat="48.45937" lon="-4.75578">
        <ele>31.3</ele>
        <time>2022-05-27T13:41:29Z</time>
      </trkpt>
      <trkpt lat="48.45934" lon="-4.75606">
        <ele>29.9</ele>
        <time>2022-05-27T13:41:31Z</time>
      </trkpt>
      <trkpt lat="48.45932" lon="-4.75647">
        <ele>27.9</ele>
        <time>2022-05-27T13:41:34Z</time>
      </trkpt>
      <trkpt lat="48.45934" lon="-4.7566">
        <ele>27.3</ele>
        <time>2022-05-27T13:41:35Z</time>
      </trkpt>
      <trkpt lat="48.45937" lon="-4.75672">
        <ele>27</ele>
        <time>2022-05-27T13:41:36Z</time>
      </trkpt>
      <trkpt lat="48.45967" lon="-4.75727">
        <ele>25.1</ele>
        <time>2022-05-27T13:41:42Z</time>
      </trkpt>
      <trkpt lat="48.4598" lon="-4.75753">
        <ele>24.1</ele>
        <time>2022-05-27T13:41:45Z</time>
      </trkpt>
      <trkpt lat="48.45983" lon="-4.75775">
        <ele>23.3</ele>
        <time>2022-05-27T13:41:47Z</time>
      </trkpt>
      <trkpt lat="48.45983" lon="-4.75787">
        <ele>22.7</ele>
        <time>2022-05-27T13:41:48Z</time>
      </trkpt>
      <trkpt lat="48.45979" lon="-4.75851">
        <ele>19.2</ele>
        <time>2022-05-27T13:41:53Z</time>
      </trkpt>
      <trkpt lat="48.45978" lon="-4.75864">
        <ele>18.1</ele>
        <time>2022-05-27T13:41:54Z</time>
      </trkpt>
      <trkpt lat="48.45979" lon="-4.75897">
        <ele>14.7</ele>
        <time>2022-05-27T13:41:57Z</time>
      </trkpt>
      <trkpt lat="48.45993" lon="-4.7591">
        <ele>12.4</ele>
        <time>2022-05-27T13:41:59Z</time>
      </trkpt>
      <trkpt lat="48.45998" lon="-4.75916">
        <ele>11.4</ele>
        <time>2022-05-27T13:42:00Z</time>
      </trkpt>
      <trkpt lat="48.45999" lon="-4.75923">
        <ele>10.4</ele>
        <time>2022-05-27T13:42:01Z</time>
      </trkpt>
      <trkpt lat="48.45992" lon="-4.75935">
        <ele>8.4</ele>
        <time>2022-05-27T13:42:03Z</time>
      </trkpt>
      <trkpt lat="48.4598" lon="-4.75942">
        <ele>6.5</ele>
        <time>2022-05-27T13:42:05Z</time>
      </trkpt>
      <trkpt lat="48.45974" lon="-4.75947">
        <ele>5.9</ele>
        <time>2022-05-27T13:42:06Z</time>
      </trkpt>
      <trkpt lat="48.45971" lon="-4.75955">
        <ele>5.3</ele>
        <time>2022-05-27T13:42:07Z</time>
      </trkpt>
      <trkpt lat="48.45978" lon="-4.75993">
        <ele>3</ele>
        <time>2022-05-27T13:42:11Z</time>
      </trkpt>
      <trkpt lat="48.45981" lon="-4.76011">
        <ele>3</ele>
        <time>2022-05-27T13:42:13Z</time>
      </trkpt>
      <trkpt lat="48.45989" lon="-4.76022">
        <ele>3</ele>
        <time>2022-05-27T13:42:15Z</time>
      </trkpt>
      <trkpt lat="48.45996" lon="-4.7602">
        <ele>3</ele>
        <time>2022-05-27T13:42:16Z</time>
      </trkpt>
      <trkpt lat="48.46031" lon="-4.76023">
        <ele>3</ele>
        <time>2022-05-27T13:42:23Z</time>
      </trkpt>
      <trkpt lat="48.46045" lon="-4.76025">
        <ele>3.7</ele>
        <time>2022-05-27T13:42:26Z</time>
      </trkpt>
      <trkpt lat="48.46058" lon="-4.76028">
        <ele>4.3</ele>
        <time>2022-05-27T13:42:29Z</time>
      </trkpt>
      <trkpt lat="48.46084" lon="-4.76033">
        <ele>6</ele>
        <time>2022-05-27T13:42:35Z</time>
      </trkpt>
      <trkpt lat="48.46093" lon="-4.76035">
        <ele>6.6</ele>
        <time>2022-05-27T13:42:37Z</time>
      </trkpt>
      <trkpt lat="48.46121" lon="-4.76037">
        <ele>9.1</ele>
        <time>2022-05-27T13:42:45Z</time>
      </trkpt>
      <trkpt lat="48.46138" lon="-4.76038">
        <ele>10.9</ele>
        <time>2022-05-27T13:42:50Z</time>
      </trkpt>
      <trkpt lat="48.46149" lon="-4.76047">
        <ele>12.7</ele>
        <time>2022-05-27T13:42:55Z</time>
      </trkpt>
      <trkpt lat="48.46175" lon="-4.76066">
        <ele>17</ele>
        <time>2022-05-27T13:43:07Z</time>
      </trkpt>
      <trkpt lat="48.46179" lon="-4.7607">
        <ele>17.7</ele>
        <time>2022-05-27T13:43:09Z</time>
      </trkpt>
      <trkpt lat="48.4618" lon="-4.76083">
        <ele>19.1</ele>
        <time>2022-05-27T13:43:13Z</time>
      </trkpt>
      <trkpt lat="48.46176" lon="-4.76086">
        <ele>19.4</ele>
        <time>2022-05-27T13:43:14Z</time>
      </trkpt>
      <trkpt lat="48.46173" lon="-4.76103">
        <ele>21.1</ele>
        <time>2022-05-27T13:43:19Z</time>
      </trkpt>
      <trkpt lat="48.46171" lon="-4.7615">
        <ele>24</ele>
        <time>2022-05-27T13:43:31Z</time>
      </trkpt>
      <trkpt lat="48.46171" lon="-4.76168">
        <ele>24.3</ele>
        <time>2022-05-27T13:43:36Z</time>
      </trkpt>
      <trkpt lat="48.46203" lon="-4.7616">
        <ele>24.7</ele>
        <time>2022-05-27T13:43:43Z</time>
      </trkpt>
      <trkpt lat="48.46217" lon="-4.76157">
        <ele>24.1</ele>
        <time>2022-05-27T13:43:46Z</time>
      </trkpt>
      <trkpt lat="48.46262" lon="-4.76147">
        <ele>22.5</ele>
        <time>2022-05-27T13:43:53Z</time>
      </trkpt>
      <trkpt lat="48.46275" lon="-4.76152">
        <ele>22.1</ele>
        <time>2022-05-27T13:43:55Z</time>
      </trkpt>
      <trkpt lat="48.46308" lon="-4.76162">
        <ele>21.6</ele>
        <time>2022-05-27T13:44:00Z</time>
      </trkpt>
      <trkpt lat="48.46349" lon="-4.76183">
        <ele>20.9</ele>
        <time>2022-05-27T13:44:07Z</time>
      </trkpt>
      <trkpt lat="48.46355" lon="-4.76185">
        <ele>20.8</ele>
        <time>2022-05-27T13:44:08Z</time>
      </trkpt>
      <trkpt lat="48.464" lon="-4.76184">
        <ele>19.8</ele>
        <time>2022-05-27T13:44:15Z</time>
      </trkpt>
      <trkpt lat="48.46429" lon="-4.76184">
        <ele>19.2</ele>
        <time>2022-05-27T13:44:19Z</time>
      </trkpt>
      <trkpt lat="48.4645" lon="-4.76183">
        <ele>18.3</ele>
        <time>2022-05-27T13:44:22Z</time>
      </trkpt>
      <trkpt lat="48.46473" lon="-4.76182">
        <ele>17.4</ele>
        <time>2022-05-27T13:44:25Z</time>
      </trkpt>
      <trkpt lat="48.46487" lon="-4.7618">
        <ele>16.6</ele>
        <time>2022-05-27T13:44:27Z</time>
      </trkpt>
      <trkpt lat="48.4651" lon="-4.76165">
        <ele>13</ele>
        <time>2022-05-27T13:44:37Z</time>
      </trkpt>
      <trkpt lat="48.46512" lon="-4.76167">
        <ele>13.1</ele>
        <time>2022-05-27T13:44:38Z</time>
      </trkpt>
      <trkpt lat="48.4652" lon="-4.76196">
        <ele>13.5</ele>
        <time>2022-05-27T13:44:41Z</time>
      </trkpt>
      <trkpt lat="48.46518" lon="-4.7621">
        <ele>13.8</ele>
        <time>2022-05-27T13:44:43Z</time>
      </trkpt>
      <trkpt lat="48.46512" lon="-4.76245">
        <ele>14.4</ele>
        <time>2022-05-27T13:44:48Z</time>
      </trkpt>
      <trkpt lat="48.46509" lon="-4.76266">
        <ele>14.7</ele>
        <time>2022-05-27T13:44:51Z</time>
      </trkpt>
      <trkpt lat="48.46489" lon="-4.76331">
        <ele>15.6</ele>
        <time>2022-05-27T13:45:00Z</time>
      </trkpt>
      <trkpt lat="48.46476" lon="-4.76375">
        <ele>15.9</ele>
        <time>2022-05-27T13:45:05Z</time>
      </trkpt>
      <trkpt lat="48.46469" lon="-4.76402">
        <ele>15.3</ele>
        <time>2022-05-27T13:45:08Z</time>
      </trkpt>
      <trkpt lat="48.46466" lon="-4.76429">
        <ele>14.6</ele>
        <time>2022-05-27T13:45:11Z</time>
      </trkpt>
      <trkpt lat="48.4646" lon="-4.76475">
        <ele>12.7</ele>
        <time>2022-05-27T13:45:16Z</time>
      </trkpt>
      <trkpt lat="48.46459" lon="-4.76485">
        <ele>12.4</ele>
        <time>2022-05-27T13:45:17Z</time>
      </trkpt>
      <trkpt lat="48.46456" lon="-4.76505">
        <ele>11.8</ele>
        <time>2022-05-27T13:45:19Z</time>
      </trkpt>
      <trkpt lat="48.46445" lon="-4.76532">
        <ele>11</ele>
        <time>2022-05-27T13:45:22Z</time>
      </trkpt>
      <trkpt lat="48.46408" lon="-4.76568">
        <ele>9.3</ele>
        <time>2022-05-27T13:45:28Z</time>
      </trkpt>
      <trkpt lat="48.464" lon="-4.76572">
        <ele>9.1</ele>
        <time>2022-05-27T13:45:29Z</time>
      </trkpt>
      <trkpt lat="48.46358" lon="-4.76591">
        <ele>9</ele>
        <time>2022-05-27T13:45:35Z</time>
      </trkpt>
      <trkpt lat="48.46311" lon="-4.76611">
        <ele>8.9</ele>
        <time>2022-05-27T13:45:42Z</time>
      </trkpt>
      <trkpt lat="48.46263" lon="-4.76634">
        <ele>8.9</ele>
        <time>2022-05-27T13:45:49Z</time>
      </trkpt>
      <trkpt lat="48.46226" lon="-4.76689">
        <ele>8.8</ele>
        <time>2022-05-27T13:45:56Z</time>
      </trkpt>
      <trkpt lat="48.46214" lon="-4.76723">
        <ele>8.6</ele>
        <time>2022-05-27T13:45:59Z</time>
      </trkpt>
      <trkpt lat="48.46206" lon="-4.76746">
        <ele>7.2</ele>
        <time>2022-05-27T13:46:01Z</time>
      </trkpt>
      <trkpt lat="48.46198" lon="-4.768">
        <ele>4.8</ele>
        <time>2022-05-27T13:46:05Z</time>
      </trkpt>
      <trkpt lat="48.46196" lon="-4.76813">
        <ele>4.8</ele>
        <time>2022-05-27T13:46:06Z</time>
      </trkpt>
      <trkpt lat="48.46178" lon="-4.76885">
        <ele>5.2</ele>
        <time>2022-05-27T13:46:13Z</time>
      </trkpt>
      <trkpt lat="48.46162" lon="-4.76916">
        <ele>5.5</ele>
        <time>2022-05-27T13:46:17Z</time>
      </trkpt>
      <trkpt lat="48.46157" lon="-4.76922">
        <ele>5.7</ele>
        <time>2022-05-27T13:46:18Z</time>
      </trkpt>
      <trkpt lat="48.4613" lon="-4.76949">
        <ele>6.6</ele>
        <time>2022-05-27T13:46:23Z</time>
      </trkpt>
      <trkpt lat="48.46119" lon="-4.7696">
        <ele>6.7</ele>
        <time>2022-05-27T13:46:25Z</time>
      </trkpt>
      <trkpt lat="48.46085" lon="-4.77004">
        <ele>7.1</ele>
        <time>2022-05-27T13:46:32Z</time>
      </trkpt>
      <trkpt lat="48.46069" lon="-4.77015">
        <ele>7.2</ele>
        <time>2022-05-27T13:46:35Z</time>
      </trkpt>
      <trkpt lat="48.46018" lon="-4.77012">
        <ele>5.8</ele>
        <time>2022-05-27T13:46:42Z</time>
      </trkpt>
      <trkpt lat="48.45984" lon="-4.77002">
        <ele>5</ele>
        <time>2022-05-27T13:46:46Z</time>
      </trkpt>
      <trkpt lat="48.45978" lon="-4.77002">
        <ele>5</ele>
        <time>2022-05-27T13:46:47Z</time>
      </trkpt>
      <trkpt lat="48.45945" lon="-4.77001">
        <ele>6.1</ele>
        <time>2022-05-27T13:46:52Z</time>
      </trkpt>
      <trkpt lat="48.45938" lon="-4.77001">
        <ele>6.3</ele>
        <time>2022-05-27T13:46:53Z</time>
      </trkpt>
      <trkpt lat="48.45914" lon="-4.77002">
        <ele>7.1</ele>
        <time>2022-05-27T13:46:57Z</time>
      </trkpt>
      <trkpt lat="48.45891" lon="-4.77002">
        <ele>8.4</ele>
        <time>2022-05-27T13:47:01Z</time>
      </trkpt>
      <trkpt lat="48.45871" lon="-4.77001">
        <ele>9.6</ele>
        <time>2022-05-27T13:47:05Z</time>
      </trkpt>
      <trkpt lat="48.45849" lon="-4.76995">
        <ele>10.8</ele>
        <time>2022-05-27T13:47:09Z</time>
      </trkpt>
      <trkpt lat="48.45826" lon="-4.76988">
        <ele>11.6</ele>
        <time>2022-05-27T13:47:13Z</time>
      </trkpt>
      <trkpt lat="48.45814" lon="-4.76987">
        <ele>11.9</ele>
        <time>2022-05-27T13:47:15Z</time>
      </trkpt>
      <trkpt lat="48.45801" lon="-4.76985">
        <ele>11.7</ele>
        <time>2022-05-27T13:47:17Z</time>
      </trkpt>
      <trkpt lat="48.45796" lon="-4.76984">
        <ele>11.6</ele>
        <time>2022-05-27T13:47:18Z</time>
      </trkpt>
      <trkpt lat="48.45776" lon="-4.76991">
        <ele>11.3</ele>
        <time>2022-05-27T13:47:21Z</time>
      </trkpt>
      <trkpt lat="48.45755" lon="-4.77">
        <ele>10.4</ele>
        <time>2022-05-27T13:47:24Z</time>
      </trkpt>
      <trkpt lat="48.45732" lon="-4.77012">
        <ele>9.5</ele>
        <time>2022-05-27T13:47:27Z</time>
      </trkpt>
      <trkpt lat="48.45709" lon="-4.77025">
        <ele>8.7</ele>
        <time>2022-05-27T13:47:30Z</time>
      </trkpt>
      <trkpt lat="48.4569" lon="-4.77038">
        <ele>8.1</ele>
        <time>2022-05-27T13:47:33Z</time>
      </trkpt>
      <trkpt lat="48.45666" lon="-4.77055">
        <ele>10</ele>
        <time>2022-05-27T13:47:37Z</time>
      </trkpt>
      <trkpt lat="48.45655" lon="-4.77061">
        <ele>10.9</ele>
        <time>2022-05-27T13:47:39Z</time>
      </trkpt>
      <trkpt lat="48.45625" lon="-4.77079">
        <ele>12.2</ele>
        <time>2022-05-27T13:47:45Z</time>
      </trkpt>
      <trkpt lat="48.45619" lon="-4.77082">
        <ele>12.5</ele>
        <time>2022-05-27T13:47:46Z</time>
      </trkpt>
      <trkpt lat="48.45585" lon="-4.77091">
        <ele>14.3</ele>
        <time>2022-05-27T13:47:52Z</time>
      </trkpt>
      <trkpt lat="48.4556" lon="-4.77097">
        <ele>15.7</ele>
        <time>2022-05-27T13:47:57Z</time>
      </trkpt>
      <trkpt lat="48.4554" lon="-4.77101">
        <ele>16.6</ele>
        <time>2022-05-27T13:48:01Z</time>
      </trkpt>
      <trkpt lat="48.45529" lon="-4.77102">
        <ele>17.1</ele>
        <time>2022-05-27T13:48:03Z</time>
      </trkpt>
      <trkpt lat="48.45498" lon="-4.77106">
        <ele>19</ele>
        <time>2022-05-27T13:48:09Z</time>
      </trkpt>
      <trkpt lat="48.45492" lon="-4.77107">
        <ele>19.2</ele>
        <time>2022-05-27T13:48:10Z</time>
      </trkpt>
      <trkpt lat="48.45446" lon="-4.77108">
        <ele>21</ele>
        <time>2022-05-27T13:48:19Z</time>
      </trkpt>
      <trkpt lat="48.45436" lon="-4.77105">
        <ele>21.3</ele>
        <time>2022-05-27T13:48:21Z</time>
      </trkpt>
      <trkpt lat="48.45399" lon="-4.77097">
        <ele>22.2</ele>
        <time>2022-05-27T13:48:28Z</time>
      </trkpt>
      <trkpt lat="48.4537" lon="-4.77091">
        <ele>22.8</ele>
        <time>2022-05-27T13:48:33Z</time>
      </trkpt>
      <trkpt lat="48.45352" lon="-4.77088">
        <ele>22.8</ele>
        <time>2022-05-27T13:48:36Z</time>
      </trkpt>
      <trkpt lat="48.45309" lon="-4.77069">
        <ele>22.8</ele>
        <time>2022-05-27T13:48:43Z</time>
      </trkpt>
      <trkpt lat="48.45266" lon="-4.77047">
        <ele>22.7</ele>
        <time>2022-05-27T13:48:50Z</time>
      </trkpt>
      <trkpt lat="48.45223" lon="-4.77023">
        <ele>22.7</ele>
        <time>2022-05-27T13:48:57Z</time>
      </trkpt>
      <trkpt lat="48.45179" lon="-4.76999">
        <ele>22.6</ele>
        <time>2022-05-27T13:49:04Z</time>
      </trkpt>
      <trkpt lat="48.45131" lon="-4.76969">
        <ele>22.6</ele>
        <time>2022-05-27T13:49:11Z</time>
      </trkpt>
      <trkpt lat="48.4509" lon="-4.76935">
        <ele>22.5</ele>
        <time>2022-05-27T13:49:17Z</time>
      </trkpt>
      <trkpt lat="48.45078" lon="-4.76925">
        <ele>22.6</ele>
        <time>2022-05-27T13:49:19Z</time>
      </trkpt>
      <trkpt lat="48.4505" lon="-4.769">
        <ele>23.7</ele>
        <time>2022-05-27T13:49:24Z</time>
      </trkpt>
      <trkpt lat="48.45044" lon="-4.76894">
        <ele>23.9</ele>
        <time>2022-05-27T13:49:25Z</time>
      </trkpt>
      <trkpt lat="48.45011" lon="-4.76856">
        <ele>24.5</ele>
        <time>2022-05-27T13:49:31Z</time>
      </trkpt>
      <trkpt lat="48.44975" lon="-4.76806">
        <ele>26</ele>
        <time>2022-05-27T13:49:39Z</time>
      </trkpt>
      <trkpt lat="48.44966" lon="-4.76795">
        <ele>26.4</ele>
        <time>2022-05-27T13:49:41Z</time>
      </trkpt>
      <trkpt lat="48.44957" lon="-4.7677">
        <ele>27</ele>
        <time>2022-05-27T13:49:44Z</time>
      </trkpt>
      <trkpt lat="48.44944" lon="-4.7673">
        <ele>28</ele>
        <time>2022-05-27T13:49:49Z</time>
      </trkpt>
      <trkpt lat="48.44936" lon="-4.76705">
        <ele>28.6</ele>
        <time>2022-05-27T13:49:52Z</time>
      </trkpt>
      <trkpt lat="48.44917" lon="-4.76638">
        <ele>30.2</ele>
        <time>2022-05-27T13:50:01Z</time>
      </trkpt>
      <trkpt lat="48.44905" lon="-4.76605">
        <ele>31.3</ele>
        <time>2022-05-27T13:50:07Z</time>
      </trkpt>
      <trkpt lat="48.44898" lon="-4.76586">
        <ele>31</ele>
        <time>2022-05-27T13:50:11Z</time>
      </trkpt>
      <trkpt lat="48.44894" lon="-4.7659">
        <ele>30.8</ele>
        <time>2022-05-27T13:50:13Z</time>
      </trkpt>
      <trkpt lat="48.44884" lon="-4.76603">
        <ele>30.2</ele>
        <time>2022-05-27T13:50:18Z</time>
      </trkpt>
      <trkpt lat="48.44867" lon="-4.76669">
        <ele>29.1</ele>
        <time>2022-05-27T13:50:27Z</time>
      </trkpt>
      <trkpt lat="48.44854" lon="-4.76734">
        <ele>28.3</ele>
        <time>2022-05-27T13:50:34Z</time>
      </trkpt>
      <trkpt lat="48.44845" lon="-4.76768">
        <ele>27.8</ele>
        <time>2022-05-27T13:50:38Z</time>
      </trkpt>
      <trkpt lat="48.44839" lon="-4.76783">
        <ele>27.6</ele>
        <time>2022-05-27T13:50:40Z</time>
      </trkpt>
      <trkpt lat="48.44831" lon="-4.76811">
        <ele>27.2</ele>
        <time>2022-05-27T13:50:43Z</time>
      </trkpt>
      <trkpt lat="48.44819" lon="-4.76849">
        <ele>26.5</ele>
        <time>2022-05-27T13:50:47Z</time>
      </trkpt>
      <trkpt lat="48.44796" lon="-4.76915">
        <ele>25.3</ele>
        <time>2022-05-27T13:50:54Z</time>
      </trkpt>
      <trkpt lat="48.44777" lon="-4.76981">
        <ele>24.1</ele>
        <time>2022-05-27T13:51:01Z</time>
      </trkpt>
      <trkpt lat="48.44758" lon="-4.77045">
        <ele>23</ele>
        <time>2022-05-27T13:51:08Z</time>
      </trkpt>
      <trkpt lat="48.44734" lon="-4.77104">
        <ele>21.9</ele>
        <time>2022-05-27T13:51:15Z</time>
      </trkpt>
      <trkpt lat="48.44714" lon="-4.77163">
        <ele>20.9</ele>
        <time>2022-05-27T13:51:21Z</time>
      </trkpt>
      <trkpt lat="48.4471" lon="-4.77173">
        <ele>20.6</ele>
        <time>2022-05-27T13:51:22Z</time>
      </trkpt>
      <trkpt lat="48.4469" lon="-4.77228">
        <ele>18.6</ele>
        <time>2022-05-27T13:51:27Z</time>
      </trkpt>
      <trkpt lat="48.44686" lon="-4.77239">
        <ele>18</ele>
        <time>2022-05-27T13:51:28Z</time>
      </trkpt>
      <trkpt lat="48.44673" lon="-4.77258">
        <ele>16.8</ele>
        <time>2022-05-27T13:51:30Z</time>
      </trkpt>
      <trkpt lat="48.44652" lon="-4.77283">
        <ele>14.9</ele>
        <time>2022-05-27T13:51:33Z</time>
      </trkpt>
      <trkpt lat="48.44632" lon="-4.77308">
        <ele>13.5</ele>
        <time>2022-05-27T13:51:36Z</time>
      </trkpt>
      <trkpt lat="48.44596" lon="-4.77354">
        <ele>11.1</ele>
        <time>2022-05-27T13:51:41Z</time>
      </trkpt>
      <trkpt lat="48.44565" lon="-4.77392">
        <ele>9.2</ele>
        <time>2022-05-27T13:51:45Z</time>
      </trkpt>
      <trkpt lat="48.44558" lon="-4.77401">
        <ele>8.9</ele>
        <time>2022-05-27T13:51:46Z</time>
      </trkpt>
      <trkpt lat="48.44522" lon="-4.77445">
        <ele>7.6</ele>
        <time>2022-05-27T13:51:51Z</time>
      </trkpt>
      <trkpt lat="48.44482" lon="-4.77493">
        <ele>6.1</ele>
        <time>2022-05-27T13:51:57Z</time>
      </trkpt>
      <trkpt lat="48.44447" lon="-4.77545">
        <ele>5.8</ele>
        <time>2022-05-27T13:52:03Z</time>
      </trkpt>
      <trkpt lat="48.44411" lon="-4.77593">
        <ele>5.5</ele>
        <time>2022-05-27T13:52:09Z</time>
      </trkpt>
      <trkpt lat="48.44396" lon="-4.77605">
        <ele>5.4</ele>
        <time>2022-05-27T13:52:11Z</time>
      </trkpt>
      <trkpt lat="48.44386" lon="-4.77604">
        <ele>5.3</ele>
        <time>2022-05-27T13:52:12Z</time>
      </trkpt>
      <trkpt lat="48.44376" lon="-4.77603">
        <ele>5.3</ele>
        <time>2022-05-27T13:52:13Z</time>
      </trkpt>
      <trkpt lat="48.44354" lon="-4.7758">
        <ele>5.1</ele>
        <time>2022-05-27T13:52:16Z</time>
      </trkpt>
      <trkpt lat="48.44329" lon="-4.77571">
        <ele>5</ele>
        <time>2022-05-27T13:52:21Z</time>
      </trkpt>
      <trkpt lat="48.44309" lon="-4.77563">
        <ele>6.4</ele>
        <time>2022-05-27T13:52:25Z</time>
      </trkpt>
      <trkpt lat="48.44298" lon="-4.7756">
        <ele>7</ele>
        <time>2022-05-27T13:52:27Z</time>
      </trkpt>
      <trkpt lat="48.4427" lon="-4.77553">
        <ele>7.8</ele>
        <time>2022-05-27T13:52:32Z</time>
      </trkpt>
      <trkpt lat="48.44265" lon="-4.77556">
        <ele>8</ele>
        <time>2022-05-27T13:52:33Z</time>
      </trkpt>
      <trkpt lat="48.4426" lon="-4.7756">
        <ele>8.1</ele>
        <time>2022-05-27T13:52:34Z</time>
      </trkpt>
      <trkpt lat="48.44231" lon="-4.77605">
        <ele>9.4</ele>
        <time>2022-05-27T13:52:41Z</time>
      </trkpt>
      <trkpt lat="48.44224" lon="-4.77618">
        <ele>9.7</ele>
        <time>2022-05-27T13:52:43Z</time>
      </trkpt>
      <trkpt lat="48.44189" lon="-4.77663">
        <ele>11.1</ele>
        <time>2022-05-27T13:52:51Z</time>
      </trkpt>
      <trkpt lat="48.44155" lon="-4.77713">
        <ele>11.9</ele>
        <time>2022-05-27T13:52:59Z</time>
      </trkpt>
      <trkpt lat="48.44118" lon="-4.7776">
        <ele>12.6</ele>
        <time>2022-05-27T13:53:07Z</time>
      </trkpt>
      <trkpt lat="48.44112" lon="-4.77764">
        <ele>12.7</ele>
        <time>2022-05-27T13:53:08Z</time>
      </trkpt>
      <trkpt lat="48.44084" lon="-4.77782">
        <ele>12.3</ele>
        <time>2022-05-27T13:53:13Z</time>
      </trkpt>
      <trkpt lat="48.44038" lon="-4.77798">
        <ele>11.9</ele>
        <time>2022-05-27T13:53:20Z</time>
      </trkpt>
      <trkpt lat="48.43995" lon="-4.77831">
        <ele>11.4</ele>
        <time>2022-05-27T13:53:27Z</time>
      </trkpt>
      <trkpt lat="48.43976" lon="-4.77849">
        <ele>11.1</ele>
        <time>2022-05-27T13:53:30Z</time>
      </trkpt>
      <trkpt lat="48.4395" lon="-4.77873">
        <ele>10</ele>
        <time>2022-05-27T13:53:34Z</time>
      </trkpt>
      <trkpt lat="48.43936" lon="-4.77887">
        <ele>9.4</ele>
        <time>2022-05-27T13:53:36Z</time>
      </trkpt>
      <trkpt lat="48.43907" lon="-4.77914">
        <ele>8.5</ele>
        <time>2022-05-27T13:53:40Z</time>
      </trkpt>
      <trkpt lat="48.43867" lon="-4.77957">
        <ele>7</ele>
        <time>2022-05-27T13:53:46Z</time>
      </trkpt>
      <trkpt lat="48.43857" lon="-4.77977">
        <ele>6.6</ele>
        <time>2022-05-27T13:53:48Z</time>
      </trkpt>
      <trkpt lat="48.43852" lon="-4.77987">
        <ele>6.5</ele>
        <time>2022-05-27T13:53:49Z</time>
      </trkpt>
      <trkpt lat="48.4384" lon="-4.7806">
        <ele>5.9</ele>
        <time>2022-05-27T13:53:55Z</time>
      </trkpt>
      <trkpt lat="48.4383" lon="-4.78117">
        <ele>5.4</ele>
        <time>2022-05-27T13:54:00Z</time>
      </trkpt>
      <trkpt lat="48.43815" lon="-4.78142">
        <ele>5.1</ele>
        <time>2022-05-27T13:54:03Z</time>
      </trkpt>
      <trkpt lat="48.43794" lon="-4.78155">
        <ele>4.8</ele>
        <time>2022-05-27T13:54:06Z</time>
      </trkpt>
      <trkpt lat="48.43786" lon="-4.78157">
        <ele>5</ele>
        <time>2022-05-27T13:54:07Z</time>
      </trkpt>
      <trkpt lat="48.43764" lon="-4.7815">
        <ele>5.3</ele>
        <time>2022-05-27T13:54:10Z</time>
      </trkpt>
      <trkpt lat="48.43751" lon="-4.78138">
        <ele>5.6</ele>
        <time>2022-05-27T13:54:12Z</time>
      </trkpt>
      <trkpt lat="48.43724" lon="-4.78084">
        <ele>6.3</ele>
        <time>2022-05-27T13:54:18Z</time>
      </trkpt>
      <trkpt lat="48.43713" lon="-4.78028">
        <ele>6.8</ele>
        <time>2022-05-27T13:54:24Z</time>
      </trkpt>
      <trkpt lat="48.43703" lon="-4.78026">
        <ele>7</ele>
        <time>2022-05-27T13:54:26Z</time>
      </trkpt>
      <trkpt lat="48.43687" lon="-4.78054">
        <ele>7.4</ele>
        <time>2022-05-27T13:54:30Z</time>
      </trkpt>
      <trkpt lat="48.43678" lon="-4.78092">
        <ele>8.4</ele>
        <time>2022-05-27T13:54:35Z</time>
      </trkpt>
      <trkpt lat="48.43678" lon="-4.78101">
        <ele>8.5</ele>
        <time>2022-05-27T13:54:36Z</time>
      </trkpt>
      <trkpt lat="48.43678" lon="-4.78152">
        <ele>8.7</ele>
        <time>2022-05-27T13:54:42Z</time>
      </trkpt>
      <trkpt lat="48.43678" lon="-4.78161">
        <ele>8.8</ele>
        <time>2022-05-27T13:54:43Z</time>
      </trkpt>
      <trkpt lat="48.43677" lon="-4.78231">
        <ele>9.2</ele>
        <time>2022-05-27T13:54:51Z</time>
      </trkpt>
      <trkpt lat="48.43675" lon="-4.78302">
        <ele>9.7</ele>
        <time>2022-05-27T13:54:59Z</time>
      </trkpt>
      <trkpt lat="48.43673" lon="-4.78338">
        <ele>9.9</ele>
        <time>2022-05-27T13:55:03Z</time>
      </trkpt>
      <trkpt lat="48.43672" lon="-4.78347">
        <ele>10</ele>
        <time>2022-05-27T13:55:04Z</time>
      </trkpt>
      <trkpt lat="48.4367" lon="-4.78371">
        <ele>10.1</ele>
        <time>2022-05-27T13:55:07Z</time>
      </trkpt>
      <trkpt lat="48.43648" lon="-4.78391">
        <ele>10.3</ele>
        <time>2022-05-27T13:55:10Z</time>
      </trkpt>
      <trkpt lat="48.43643" lon="-4.78393">
        <ele>10.4</ele>
        <time>2022-05-27T13:55:11Z</time>
      </trkpt>
      <trkpt lat="48.43599" lon="-4.78429">
        <ele>10.8</ele>
        <time>2022-05-27T13:55:19Z</time>
      </trkpt>
      <trkpt lat="48.43567" lon="-4.78455">
        <ele>11.2</ele>
        <time>2022-05-27T13:55:25Z</time>
      </trkpt>
      <trkpt lat="48.43541" lon="-4.78483">
        <ele>11.5</ele>
        <time>2022-05-27T13:55:30Z</time>
      </trkpt>
      <trkpt lat="48.43498" lon="-4.78514">
        <ele>11.9</ele>
        <time>2022-05-27T13:55:38Z</time>
      </trkpt>
      <trkpt lat="48.43486" lon="-4.78516">
        <ele>12</ele>
        <time>2022-05-27T13:55:40Z</time>
      </trkpt>
      <trkpt lat="48.43449" lon="-4.78522">
        <ele>11.4</ele>
        <time>2022-05-27T13:55:46Z</time>
      </trkpt>
      <trkpt lat="48.43401" lon="-4.7851">
        <ele>10.8</ele>
        <time>2022-05-27T13:55:53Z</time>
      </trkpt>
      <trkpt lat="48.43359" lon="-4.78483">
        <ele>10.4</ele>
        <time>2022-05-27T13:55:58Z</time>
      </trkpt>
      <trkpt lat="48.43325" lon="-4.78454">
        <ele>11.7</ele>
        <time>2022-05-27T13:56:04Z</time>
      </trkpt>
      <trkpt lat="48.4332" lon="-4.78449">
        <ele>11.9</ele>
        <time>2022-05-27T13:56:05Z</time>
      </trkpt>
      <trkpt lat="48.43295" lon="-4.7843">
        <ele>12.9</ele>
        <time>2022-05-27T13:56:10Z</time>
      </trkpt>
      <trkpt lat="48.43274" lon="-4.78414">
        <ele>12.8</ele>
        <time>2022-05-27T13:56:14Z</time>
      </trkpt>
      <trkpt lat="48.4326" lon="-4.78406">
        <ele>12.7</ele>
        <time>2022-05-27T13:56:16Z</time>
      </trkpt>
      <trkpt lat="48.43231" lon="-4.78392">
        <ele>11.8</ele>
        <time>2022-05-27T13:56:20Z</time>
      </trkpt>
      <trkpt lat="48.43216" lon="-4.78388">
        <ele>11.4</ele>
        <time>2022-05-27T13:56:22Z</time>
      </trkpt>
      <trkpt lat="48.43186" lon="-4.78382">
        <ele>11.2</ele>
        <time>2022-05-27T13:56:26Z</time>
      </trkpt>
      <trkpt lat="48.43139" lon="-4.78378">
        <ele>11</ele>
        <time>2022-05-27T13:56:33Z</time>
      </trkpt>
      <trkpt lat="48.43132" lon="-4.78378">
        <ele>10.9</ele>
        <time>2022-05-27T13:56:34Z</time>
      </trkpt>
      <trkpt lat="48.43089" lon="-4.78374">
        <ele>8.8</ele>
        <time>2022-05-27T13:56:40Z</time>
      </trkpt>
      <trkpt lat="48.43056" lon="-4.78364">
        <ele>7.4</ele>
        <time>2022-05-27T13:56:44Z</time>
      </trkpt>
      <trkpt lat="48.4304" lon="-4.78359">
        <ele>6.8</ele>
        <time>2022-05-27T13:56:46Z</time>
      </trkpt>
      <trkpt lat="48.43015" lon="-4.7835">
        <ele>6.4</ele>
        <time>2022-05-27T13:56:49Z</time>
      </trkpt>
      <trkpt lat="48.42991" lon="-4.7833">
        <ele>6</ele>
        <time>2022-05-27T13:56:52Z</time>
      </trkpt>
      <trkpt lat="48.42985" lon="-4.78321">
        <ele>5.8</ele>
        <time>2022-05-27T13:56:53Z</time>
      </trkpt>
      <trkpt lat="48.42981" lon="-4.78307">
        <ele>5.7</ele>
        <time>2022-05-27T13:56:54Z</time>
      </trkpt>
      <trkpt lat="48.4298" lon="-4.78295">
        <ele>5.5</ele>
        <time>2022-05-27T13:56:55Z</time>
      </trkpt>
      <trkpt lat="48.42973" lon="-4.7827">
        <ele>5.4</ele>
        <time>2022-05-27T13:56:58Z</time>
      </trkpt>
      <trkpt lat="48.42966" lon="-4.78247">
        <ele>7.4</ele>
        <time>2022-05-27T13:57:01Z</time>
      </trkpt>
      <trkpt lat="48.42962" lon="-4.78229">
        <ele>9.3</ele>
        <time>2022-05-27T13:57:04Z</time>
      </trkpt>
      <trkpt lat="48.42954" lon="-4.78193">
        <ele>12.6</ele>
        <time>2022-05-27T13:57:10Z</time>
      </trkpt>
      <trkpt lat="48.42952" lon="-4.78181">
        <ele>13.1</ele>
        <time>2022-05-27T13:57:12Z</time>
      </trkpt>
      <trkpt lat="48.42938" lon="-4.78128">
        <ele>15.7</ele>
        <time>2022-05-27T13:57:21Z</time>
      </trkpt>
      <trkpt lat="48.42936" lon="-4.78122">
        <ele>15.9</ele>
        <time>2022-05-27T13:57:22Z</time>
      </trkpt>
      <trkpt lat="48.42926" lon="-4.78093">
        <ele>17</ele>
        <time>2022-05-27T13:57:27Z</time>
      </trkpt>
      <trkpt lat="48.42916" lon="-4.78065">
        <ele>18.3</ele>
        <time>2022-05-27T13:57:32Z</time>
      </trkpt>
      <trkpt lat="48.42909" lon="-4.78041">
        <ele>19.7</ele>
        <time>2022-05-27T13:57:37Z</time>
      </trkpt>
      <trkpt lat="48.42896" lon="-4.78">
        <ele>22.8</ele>
        <time>2022-05-27T13:57:46Z</time>
      </trkpt>
      <trkpt lat="48.42891" lon="-4.77989">
        <ele>23.8</ele>
        <time>2022-05-27T13:57:49Z</time>
      </trkpt>
      <trkpt lat="48.42875" lon="-4.77944">
        <ele>28.4</ele>
        <time>2022-05-27T13:58:01Z</time>
      </trkpt>
      <trkpt lat="48.42874" lon="-4.77941">
        <ele>28.6</ele>
        <time>2022-05-27T13:58:02Z</time>
      </trkpt>
      <trkpt lat="48.4287" lon="-4.77937">
        <ele>29.1</ele>
        <time>2022-05-27T13:58:04Z</time>
      </trkpt>
      <trkpt lat="48.42831" lon="-4.77943">
        <ele>31.1</ele>
        <time>2022-05-27T13:58:13Z</time>
      </trkpt>
      <trkpt lat="48.42822" lon="-4.77944">
        <ele>31.1</ele>
        <time>2022-05-27T13:58:15Z</time>
      </trkpt>
      <trkpt lat="48.42803" lon="-4.7795">
        <ele>31.3</ele>
        <time>2022-05-27T13:58:19Z</time>
      </trkpt>
      <trkpt lat="48.42794" lon="-4.77954">
        <ele>31.1</ele>
        <time>2022-05-27T13:58:21Z</time>
      </trkpt>
      <trkpt lat="48.42754" lon="-4.77986">
        <ele>30.4</ele>
        <time>2022-05-27T13:58:30Z</time>
      </trkpt>
      <trkpt lat="48.42712" lon="-4.78014">
        <ele>29.7</ele>
        <time>2022-05-27T13:58:39Z</time>
      </trkpt>
      <trkpt lat="48.42665" lon="-4.78047">
        <ele>29.1</ele>
        <time>2022-05-27T13:58:47Z</time>
      </trkpt>
      <trkpt lat="48.42654" lon="-4.78055">
        <ele>29</ele>
        <time>2022-05-27T13:58:49Z</time>
      </trkpt>
      <trkpt lat="48.42621" lon="-4.7808">
        <ele>29.5</ele>
        <time>2022-05-27T13:58:55Z</time>
      </trkpt>
      <trkpt lat="48.42596" lon="-4.78099">
        <ele>30.6</ele>
        <time>2022-05-27T13:59:01Z</time>
      </trkpt>
      <trkpt lat="48.42583" lon="-4.78109">
        <ele>31.4</ele>
        <time>2022-05-27T13:59:04Z</time>
      </trkpt>
      <trkpt lat="48.42542" lon="-4.78146">
        <ele>34.2</ele>
        <time>2022-05-27T13:59:15Z</time>
      </trkpt>
      <trkpt lat="48.42528" lon="-4.78157">
        <ele>35.3</ele>
        <time>2022-05-27T13:59:19Z</time>
      </trkpt>
      <trkpt lat="48.42506" lon="-4.78174">
        <ele>37.7</ele>
        <time>2022-05-27T13:59:25Z</time>
      </trkpt>
      <trkpt lat="48.42486" lon="-4.78184">
        <ele>39.6</ele>
        <time>2022-05-27T13:59:30Z</time>
      </trkpt>
      <trkpt lat="48.42478" lon="-4.78188">
        <ele>40</ele>
        <time>2022-05-27T13:59:32Z</time>
      </trkpt>
      <trkpt lat="48.42437" lon="-4.78213">
        <ele>42</ele>
        <time>2022-05-27T13:59:42Z</time>
      </trkpt>
      <trkpt lat="48.42432" lon="-4.78216">
        <ele>41.9</ele>
        <time>2022-05-27T13:59:43Z</time>
      </trkpt>
      <trkpt lat="48.42405" lon="-4.78232">
        <ele>41.4</ele>
        <time>2022-05-27T13:59:48Z</time>
      </trkpt>
      <trkpt lat="48.42388" lon="-4.78242">
        <ele>40.7</ele>
        <time>2022-05-27T13:59:51Z</time>
      </trkpt>
      <trkpt lat="48.42355" lon="-4.78267">
        <ele>39.5</ele>
        <time>2022-05-27T13:59:56Z</time>
      </trkpt>
      <trkpt lat="48.42327" lon="-4.78293">
        <ele>38.5</ele>
        <time>2022-05-27T14:00:00Z</time>
      </trkpt>
      <trkpt lat="48.42313" lon="-4.78306">
        <ele>37.7</ele>
        <time>2022-05-27T14:00:02Z</time>
      </trkpt>
      <trkpt lat="48.42282" lon="-4.78334">
        <ele>35.8</ele>
        <time>2022-05-27T14:00:06Z</time>
      </trkpt>
      <trkpt lat="48.42267" lon="-4.78347">
        <ele>34.4</ele>
        <time>2022-05-27T14:00:08Z</time>
      </trkpt>
      <trkpt lat="48.42237" lon="-4.78365">
        <ele>31.5</ele>
        <time>2022-05-27T14:00:12Z</time>
      </trkpt>
      <trkpt lat="48.42223" lon="-4.78373">
        <ele>30.2</ele>
        <time>2022-05-27T14:00:14Z</time>
      </trkpt>
      <trkpt lat="48.42205" lon="-4.78383">
        <ele>27.7</ele>
        <time>2022-05-27T14:00:18Z</time>
      </trkpt>
      <trkpt lat="48.42184" lon="-4.78398">
        <ele>26.5</ele>
        <time>2022-05-27T14:00:23Z</time>
      </trkpt>
      <trkpt lat="48.42191" lon="-4.78457">
        <ele>24.9</ele>
        <time>2022-05-27T14:00:30Z</time>
      </trkpt>
      <trkpt lat="48.42193" lon="-4.78465">
        <ele>24.6</ele>
        <time>2022-05-27T14:00:31Z</time>
      </trkpt>
      <trkpt lat="48.42196" lon="-4.78481">
        <ele>24.1</ele>
        <time>2022-05-27T14:00:33Z</time>
      </trkpt>
      <trkpt lat="48.42194" lon="-4.78549">
        <ele>22.1</ele>
        <time>2022-05-27T14:00:40Z</time>
      </trkpt>
      <trkpt lat="48.42198" lon="-4.78617">
        <ele>20.1</ele>
        <time>2022-05-27T14:00:47Z</time>
      </trkpt>
      <trkpt lat="48.42198" lon="-4.78624">
        <ele>19.8</ele>
        <time>2022-05-27T14:00:48Z</time>
      </trkpt>
      <trkpt lat="48.42196" lon="-4.78684">
        <ele>16.6</ele>
        <time>2022-05-27T14:00:56Z</time>
      </trkpt>
      <trkpt lat="48.42199" lon="-4.78716">
        <ele>15.1</ele>
        <time>2022-05-27T14:01:00Z</time>
      </trkpt>
      <trkpt lat="48.42199" lon="-4.78724">
        <ele>15</ele>
        <time>2022-05-27T14:01:01Z</time>
      </trkpt>
      <trkpt lat="48.42189" lon="-4.78746">
        <ele>14.7</ele>
        <time>2022-05-27T14:01:04Z</time>
      </trkpt>
      <trkpt lat="48.42176" lon="-4.78735">
        <ele>14.6</ele>
        <time>2022-05-27T14:01:05Z</time>
      </trkpt>
      <trkpt lat="48.4214" lon="-4.78732">
        <ele>14</ele>
        <time>2022-05-27T14:01:12Z</time>
      </trkpt>
      <trkpt lat="48.42129" lon="-4.78732">
        <ele>14.5</ele>
        <time>2022-05-27T14:01:14Z</time>
      </trkpt>
      <trkpt lat="48.4211" lon="-4.78731">
        <ele>15.6</ele>
        <time>2022-05-27T14:01:18Z</time>
      </trkpt>
      <trkpt lat="48.42082" lon="-4.7873">
        <ele>17.2</ele>
        <time>2022-05-27T14:01:24Z</time>
      </trkpt>
      <trkpt lat="48.42054" lon="-4.78729">
        <ele>18.4</ele>
        <time>2022-05-27T14:01:30Z</time>
      </trkpt>
      <trkpt lat="48.42036" lon="-4.78729">
        <ele>19</ele>
        <time>2022-05-27T14:01:34Z</time>
      </trkpt>
      <trkpt lat="48.41988" lon="-4.78727">
        <ele>20.4</ele>
        <time>2022-05-27T14:01:44Z</time>
      </trkpt>
      <trkpt lat="48.41939" lon="-4.78724">
        <ele>21.8</ele>
        <time>2022-05-27T14:01:54Z</time>
      </trkpt>
      <trkpt lat="48.41935" lon="-4.78723">
        <ele>22</ele>
        <time>2022-05-27T14:01:55Z</time>
      </trkpt>
      <trkpt lat="48.4191" lon="-4.78719">
        <ele>23.3</ele>
        <time>2022-05-27T14:02:01Z</time>
      </trkpt>
      <trkpt lat="48.41894" lon="-4.78716">
        <ele>24.9</ele>
        <time>2022-05-27T14:02:05Z</time>
      </trkpt>
      <trkpt lat="48.41888" lon="-4.78713">
        <ele>25.7</ele>
        <time>2022-05-27T14:02:07Z</time>
      </trkpt>
      <trkpt lat="48.41849" lon="-4.787">
        <ele>29.6</ele>
        <time>2022-05-27T14:02:19Z</time>
      </trkpt>
      <trkpt lat="48.41811" lon="-4.78688">
        <ele>33.2</ele>
        <time>2022-05-27T14:02:31Z</time>
      </trkpt>
      <trkpt lat="48.41802" lon="-4.78685">
        <ele>34.3</ele>
        <time>2022-05-27T14:02:34Z</time>
      </trkpt>
      <trkpt lat="48.41774" lon="-4.7868">
        <ele>37.3</ele>
        <time>2022-05-27T14:02:43Z</time>
      </trkpt>
      <trkpt lat="48.41755" lon="-4.78677">
        <ele>39</ele>
        <time>2022-05-27T14:02:49Z</time>
      </trkpt>
      <trkpt lat="48.41734" lon="-4.78683">
        <ele>40.7</ele>
        <time>2022-05-27T14:02:55Z</time>
      </trkpt>
      <trkpt lat="48.41714" lon="-4.78689">
        <ele>41.9</ele>
        <time>2022-05-27T14:03:01Z</time>
      </trkpt>
      <trkpt lat="48.4171" lon="-4.78691">
        <ele>41.9</ele>
        <time>2022-05-27T14:03:02Z</time>
      </trkpt>
      <trkpt lat="48.41687" lon="-4.78705">
        <ele>42</ele>
        <time>2022-05-27T14:03:07Z</time>
      </trkpt>
      <trkpt lat="48.41668" lon="-4.78717">
        <ele>41.3</ele>
        <time>2022-05-27T14:03:11Z</time>
      </trkpt>
      <trkpt lat="48.41622" lon="-4.78749">
        <ele>39.9</ele>
        <time>2022-05-27T14:03:19Z</time>
      </trkpt>
      <trkpt lat="48.41579" lon="-4.78777">
        <ele>39.6</ele>
        <time>2022-05-27T14:03:26Z</time>
      </trkpt>
      <trkpt lat="48.41553" lon="-4.78795">
        <ele>39.5</ele>
        <time>2022-05-27T14:03:31Z</time>
      </trkpt>
      <trkpt lat="48.41537" lon="-4.78805">
        <ele>40.2</ele>
        <time>2022-05-27T14:03:34Z</time>
      </trkpt>
      <trkpt lat="48.41522" lon="-4.78814">
        <ele>41</ele>
        <time>2022-05-27T14:03:37Z</time>
      </trkpt>
      <trkpt lat="48.41494" lon="-4.78832">
        <ele>41.4</ele>
        <time>2022-05-27T14:03:43Z</time>
      </trkpt>
      <trkpt lat="48.41452" lon="-4.78852">
        <ele>41.9</ele>
        <time>2022-05-27T14:03:51Z</time>
      </trkpt>
      <trkpt lat="48.41403" lon="-4.78863">
        <ele>42.3</ele>
        <time>2022-05-27T14:03:59Z</time>
      </trkpt>
      <trkpt lat="48.41356" lon="-4.7888">
        <ele>40.2</ele>
        <time>2022-05-27T14:04:05Z</time>
      </trkpt>
      <trkpt lat="48.41311" lon="-4.7889">
        <ele>36.8</ele>
        <time>2022-05-27T14:04:10Z</time>
      </trkpt>
      <trkpt lat="48.41302" lon="-4.78892">
        <ele>36.3</ele>
        <time>2022-05-27T14:04:11Z</time>
      </trkpt>
      <trkpt lat="48.41295" lon="-4.78895">
        <ele>36</ele>
        <time>2022-05-27T14:04:12Z</time>
      </trkpt>
      <trkpt lat="48.4128" lon="-4.78899">
        <ele>35.4</ele>
        <time>2022-05-27T14:04:15Z</time>
      </trkpt>
      <trkpt lat="48.41261" lon="-4.78837">
        <ele>34.4</ele>
        <time>2022-05-27T14:04:20Z</time>
      </trkpt>
      <trkpt lat="48.41254" lon="-4.78807">
        <ele>33.8</ele>
        <time>2022-05-27T14:04:23Z</time>
      </trkpt>
      <trkpt lat="48.41245" lon="-4.78766">
        <ele>33.9</ele>
        <time>2022-05-27T14:04:27Z</time>
      </trkpt>
      <trkpt lat="48.41241" lon="-4.78746">
        <ele>33.9</ele>
        <time>2022-05-27T14:04:29Z</time>
      </trkpt>
      <trkpt lat="48.41233" lon="-4.78696">
        <ele>34.6</ele>
        <time>2022-05-27T14:04:34Z</time>
      </trkpt>
      <trkpt lat="48.41223" lon="-4.78623">
        <ele>35.6</ele>
        <time>2022-05-27T14:04:42Z</time>
      </trkpt>
      <trkpt lat="48.41217" lon="-4.78567">
        <ele>36.3</ele>
        <time>2022-05-27T14:04:48Z</time>
      </trkpt>
      <trkpt lat="48.41213" lon="-4.78491">
        <ele>37.3</ele>
        <time>2022-05-27T14:04:56Z</time>
      </trkpt>
      <trkpt lat="48.41212" lon="-4.78464">
        <ele>37.7</ele>
        <time>2022-05-27T14:04:59Z</time>
      </trkpt>
      <trkpt lat="48.4121" lon="-4.78418">
        <ele>38.1</ele>
        <time>2022-05-27T14:05:04Z</time>
      </trkpt>
      <trkpt lat="48.4121" lon="-4.78409">
        <ele>38.1</ele>
        <time>2022-05-27T14:05:05Z</time>
      </trkpt>
      <trkpt lat="48.41209" lon="-4.78347">
        <ele>37.4</ele>
        <time>2022-05-27T14:05:12Z</time>
      </trkpt>
      <trkpt lat="48.41202" lon="-4.78279">
        <ele>36.7</ele>
        <time>2022-05-27T14:05:19Z</time>
      </trkpt>
      <trkpt lat="48.41191" lon="-4.78234">
        <ele>36.2</ele>
        <time>2022-05-27T14:05:23Z</time>
      </trkpt>
      <trkpt lat="48.41186" lon="-4.7821">
        <ele>35.4</ele>
        <time>2022-05-27T14:05:25Z</time>
      </trkpt>
      <trkpt lat="48.41182" lon="-4.78183">
        <ele>34.7</ele>
        <time>2022-05-27T14:05:27Z</time>
      </trkpt>
      <trkpt lat="48.41181" lon="-4.7817">
        <ele>34.3</ele>
        <time>2022-05-27T14:05:28Z</time>
      </trkpt>
      <trkpt lat="48.41184" lon="-4.78155">
        <ele>33.9</ele>
        <time>2022-05-27T14:05:29Z</time>
      </trkpt>
      <trkpt lat="48.41187" lon="-4.78128">
        <ele>33.5</ele>
        <time>2022-05-27T14:05:31Z</time>
      </trkpt>
      <trkpt lat="48.4119" lon="-4.78116">
        <ele>33.3</ele>
        <time>2022-05-27T14:05:32Z</time>
      </trkpt>
      <trkpt lat="48.41194" lon="-4.78051">
        <ele>32.2</ele>
        <time>2022-05-27T14:05:37Z</time>
      </trkpt>
      <trkpt lat="48.41188" lon="-4.78005">
        <ele>31.3</ele>
        <time>2022-05-27T14:05:41Z</time>
      </trkpt>
      <trkpt lat="48.41185" lon="-4.77983">
        <ele>30.5</ele>
        <time>2022-05-27T14:05:43Z</time>
      </trkpt>
      <trkpt lat="48.41183" lon="-4.77961">
        <ele>29.3</ele>
        <time>2022-05-27T14:05:46Z</time>
      </trkpt>
      <trkpt lat="48.41182" lon="-4.77957">
        <ele>29.3</ele>
        <time>2022-05-27T14:05:47Z</time>
      </trkpt>
      <trkpt lat="48.41151" lon="-4.77952">
        <ele>29</ele>
        <time>2022-05-27T14:05:52Z</time>
      </trkpt>
      <trkpt lat="48.41132" lon="-4.7795">
        <ele>28.5</ele>
        <time>2022-05-27T14:05:55Z</time>
      </trkpt>
      <trkpt lat="48.41111" lon="-4.77945">
        <ele>27.9</ele>
        <time>2022-05-27T14:05:58Z</time>
      </trkpt>
      <trkpt lat="48.41082" lon="-4.77937">
        <ele>27.1</ele>
        <time>2022-05-27T14:06:02Z</time>
      </trkpt>
      <trkpt lat="48.41074" lon="-4.77932">
        <ele>26.8</ele>
        <time>2022-05-27T14:06:03Z</time>
      </trkpt>
      <trkpt lat="48.41037" lon="-4.77902">
        <ele>24.8</ele>
        <time>2022-05-27T14:06:08Z</time>
      </trkpt>
      <trkpt lat="48.4103" lon="-4.77892">
        <ele>24.5</ele>
        <time>2022-05-27T14:06:09Z</time>
      </trkpt>
      <trkpt lat="48.41002" lon="-4.77853">
        <ele>23.2</ele>
        <time>2022-05-27T14:06:13Z</time>
      </trkpt>
      <trkpt lat="48.40984" lon="-4.77817">
        <ele>22.3</ele>
        <time>2022-05-27T14:06:16Z</time>
      </trkpt>
      <trkpt lat="48.40964" lon="-4.7775">
        <ele>20.7</ele>
        <time>2022-05-27T14:06:21Z</time>
      </trkpt>
      <trkpt lat="48.40956" lon="-4.77707">
        <ele>18.8</ele>
        <time>2022-05-27T14:06:24Z</time>
      </trkpt>
      <trkpt lat="48.40954" lon="-4.7769">
        <ele>18.1</ele>
        <time>2022-05-27T14:06:25Z</time>
      </trkpt>
      <trkpt lat="48.40949" lon="-4.77655">
        <ele>16.9</ele>
        <time>2022-05-27T14:06:27Z</time>
      </trkpt>
      <trkpt lat="48.40944" lon="-4.77619">
        <ele>15.6</ele>
        <time>2022-05-27T14:06:29Z</time>
      </trkpt>
      <trkpt lat="48.40936" lon="-4.77543">
        <ele>12.9</ele>
        <time>2022-05-27T14:06:33Z</time>
      </trkpt>
      <trkpt lat="48.40924" lon="-4.77469">
        <ele>9.1</ele>
        <time>2022-05-27T14:06:37Z</time>
      </trkpt>
      <trkpt lat="48.40919" lon="-4.77435">
        <ele>7.7</ele>
        <time>2022-05-27T14:06:39Z</time>
      </trkpt>
      <trkpt lat="48.40915" lon="-4.77401">
        <ele>8.4</ele>
        <time>2022-05-27T14:06:41Z</time>
      </trkpt>
      <trkpt lat="48.4091" lon="-4.77371">
        <ele>9.2</ele>
        <time>2022-05-27T14:06:43Z</time>
      </trkpt>
      <trkpt lat="48.40907" lon="-4.77359">
        <ele>9.5</ele>
        <time>2022-05-27T14:06:44Z</time>
      </trkpt>
      <trkpt lat="48.40899" lon="-4.77313">
        <ele>11.4</ele>
        <time>2022-05-27T14:06:49Z</time>
      </trkpt>
      <trkpt lat="48.40898" lon="-4.77309">
        <ele>11.9</ele>
        <time>2022-05-27T14:06:50Z</time>
      </trkpt>
      <trkpt lat="48.40889" lon="-4.77291">
        <ele>14.9</ele>
        <time>2022-05-27T14:06:55Z</time>
      </trkpt>
      <trkpt lat="48.40887" lon="-4.77291">
        <ele>15.5</ele>
        <time>2022-05-27T14:06:56Z</time>
      </trkpt>
      <trkpt lat="48.40873" lon="-4.7729">
        <ele>18.5</ele>
        <time>2022-05-27T14:07:02Z</time>
      </trkpt>
      <trkpt lat="48.40846" lon="-4.77289">
        <ele>23.2</ele>
        <time>2022-05-27T14:07:14Z</time>
      </trkpt>
      <trkpt lat="48.40844" lon="-4.77289">
        <ele>23.5</ele>
        <time>2022-05-27T14:07:15Z</time>
      </trkpt>
      <trkpt lat="48.40818" lon="-4.77291">
        <ele>27.1</ele>
        <time>2022-05-27T14:07:26Z</time>
      </trkpt>
      <trkpt lat="48.40798" lon="-4.77292">
        <ele>30.1</ele>
        <time>2022-05-27T14:07:35Z</time>
      </trkpt>
      <trkpt lat="48.40796" lon="-4.77282">
        <ele>31.1</ele>
        <time>2022-05-27T14:07:38Z</time>
      </trkpt>
      <trkpt lat="48.40789" lon="-4.77241">
        <ele>34.5</ele>
        <time>2022-05-27T14:07:50Z</time>
      </trkpt>
      <trkpt lat="48.40787" lon="-4.77231">
        <ele>35.3</ele>
        <time>2022-05-27T14:07:53Z</time>
      </trkpt>
      <trkpt lat="48.40784" lon="-4.77188">
        <ele>38.7</ele>
        <time>2022-05-27T14:08:05Z</time>
      </trkpt>
      <trkpt lat="48.40783" lon="-4.7717">
        <ele>40.1</ele>
        <time>2022-05-27T14:08:10Z</time>
      </trkpt>
      <trkpt lat="48.40782" lon="-4.77162">
        <ele>40.6</ele>
        <time>2022-05-27T14:08:12Z</time>
      </trkpt>
      <trkpt lat="48.40781" lon="-4.77119">
        <ele>42.7</ele>
        <time>2022-05-27T14:08:22Z</time>
      </trkpt>
      <trkpt lat="48.4078" lon="-4.77092">
        <ele>43.9</ele>
        <time>2022-05-27T14:08:28Z</time>
      </trkpt>
      <trkpt lat="48.40777" lon="-4.77034">
        <ele>46.3</ele>
        <time>2022-05-27T14:08:40Z</time>
      </trkpt>
      <trkpt lat="48.40777" lon="-4.77019">
        <ele>46.8</ele>
        <time>2022-05-27T14:08:43Z</time>
      </trkpt>
      <trkpt lat="48.40773" lon="-4.76973">
        <ele>48.2</ele>
        <time>2022-05-27T14:08:51Z</time>
      </trkpt>
      <trkpt lat="48.40774" lon="-4.76966">
        <ele>48.3</ele>
        <time>2022-05-27T14:08:52Z</time>
      </trkpt>
      <trkpt lat="48.40769" lon="-4.76927">
        <ele>49.3</ele>
        <time>2022-05-27T14:08:58Z</time>
      </trkpt>
      <trkpt lat="48.40765" lon="-4.76894">
        <ele>49.6</ele>
        <time>2022-05-27T14:09:03Z</time>
      </trkpt>
      <trkpt lat="48.40764" lon="-4.76888">
        <ele>49.7</ele>
        <time>2022-05-27T14:09:04Z</time>
      </trkpt>
      <trkpt lat="48.40752" lon="-4.76821">
        <ele>50.5</ele>
        <time>2022-05-27T14:09:14Z</time>
      </trkpt>
      <trkpt lat="48.40741" lon="-4.76755">
        <ele>51.1</ele>
        <time>2022-05-27T14:09:22Z</time>
      </trkpt>
      <trkpt lat="48.40731" lon="-4.76682">
        <ele>51.7</ele>
        <time>2022-05-27T14:09:30Z</time>
      </trkpt>
      <trkpt lat="48.40724" lon="-4.76609">
        <ele>52.3</ele>
        <time>2022-05-27T14:09:38Z</time>
      </trkpt>
      <trkpt lat="48.40721" lon="-4.76541">
        <ele>52.9</ele>
        <time>2022-05-27T14:09:46Z</time>
      </trkpt>
      <trkpt lat="48.40721" lon="-4.76505">
        <ele>53.2</ele>
        <time>2022-05-27T14:09:50Z</time>
      </trkpt>
      <trkpt lat="48.40716" lon="-4.76487">
        <ele>53.3</ele>
        <time>2022-05-27T14:09:52Z</time>
      </trkpt>
      <trkpt lat="48.40678" lon="-4.76441">
        <ele>53</ele>
        <time>2022-05-27T14:09:59Z</time>
      </trkpt>
      <trkpt lat="48.40645" lon="-4.76386">
        <ele>52.8</ele>
        <time>2022-05-27T14:10:06Z</time>
      </trkpt>
      <trkpt lat="48.40612" lon="-4.76335">
        <ele>52.5</ele>
        <time>2022-05-27T14:10:13Z</time>
      </trkpt>
      <trkpt lat="48.4059" lon="-4.76297">
        <ele>52.3</ele>
        <time>2022-05-27T14:10:19Z</time>
      </trkpt>
      <trkpt lat="48.40585" lon="-4.76226">
        <ele>52</ele>
        <time>2022-05-27T14:10:27Z</time>
      </trkpt>
      <trkpt lat="48.40574" lon="-4.76158">
        <ele>51.7</ele>
        <time>2022-05-27T14:10:35Z</time>
      </trkpt>
      <trkpt lat="48.40564" lon="-4.76148">
        <ele>51.6</ele>
        <time>2022-05-27T14:10:37Z</time>
      </trkpt>
      <trkpt lat="48.40518" lon="-4.76145">
        <ele>51.3</ele>
        <time>2022-05-27T14:10:44Z</time>
      </trkpt>
      <trkpt lat="48.40468" lon="-4.76149">
        <ele>51.1</ele>
        <time>2022-05-27T14:10:51Z</time>
      </trkpt>
      <trkpt lat="48.40421" lon="-4.76152">
        <ele>50.8</ele>
        <time>2022-05-27T14:10:57Z</time>
      </trkpt>
      <trkpt lat="48.40373" lon="-4.76159">
        <ele>50.6</ele>
        <time>2022-05-27T14:11:03Z</time>
      </trkpt>
      <trkpt lat="48.40325" lon="-4.76167">
        <ele>50.4</ele>
        <time>2022-05-27T14:11:09Z</time>
      </trkpt>
      <trkpt lat="48.40286" lon="-4.76172">
        <ele>50.3</ele>
        <time>2022-05-27T14:11:14Z</time>
      </trkpt>
      <trkpt lat="48.40278" lon="-4.76173">
        <ele>50.4</ele>
        <time>2022-05-27T14:11:15Z</time>
      </trkpt>
      <trkpt lat="48.40231" lon="-4.76178">
        <ele>51</ele>
        <time>2022-05-27T14:11:21Z</time>
      </trkpt>
      <trkpt lat="48.40194" lon="-4.7618">
        <ele>51.6</ele>
        <time>2022-05-27T14:11:26Z</time>
      </trkpt>
      <trkpt lat="48.40154" lon="-4.76182">
        <ele>52.3</ele>
        <time>2022-05-27T14:11:32Z</time>
      </trkpt>
      <trkpt lat="48.40147" lon="-4.76182">
        <ele>52.3</ele>
        <time>2022-05-27T14:11:33Z</time>
      </trkpt>
      <trkpt lat="48.40097" lon="-4.76174">
        <ele>52.7</ele>
        <time>2022-05-27T14:11:40Z</time>
      </trkpt>
      <trkpt lat="48.40069" lon="-4.76165">
        <ele>52.9</ele>
        <time>2022-05-27T14:11:44Z</time>
      </trkpt>
      <trkpt lat="48.40048" lon="-4.76158">
        <ele>52.6</ele>
        <time>2022-05-27T14:11:47Z</time>
      </trkpt>
      <trkpt lat="48.40032" lon="-4.76155">
        <ele>52.4</ele>
        <time>2022-05-27T14:11:49Z</time>
      </trkpt>
      <trkpt lat="48.39993" lon="-4.76156">
        <ele>51.8</ele>
        <time>2022-05-27T14:11:54Z</time>
      </trkpt>
      <trkpt lat="48.39946" lon="-4.76185">
        <ele>51.1</ele>
        <time>2022-05-27T14:12:00Z</time>
      </trkpt>
      <trkpt lat="48.3993" lon="-4.76198">
        <ele>51</ele>
        <time>2022-05-27T14:12:02Z</time>
      </trkpt>
      <trkpt lat="48.39899" lon="-4.76221">
        <ele>50.9</ele>
        <time>2022-05-27T14:12:06Z</time>
      </trkpt>
      <trkpt lat="48.39891" lon="-4.76225">
        <ele>50.9</ele>
        <time>2022-05-27T14:12:07Z</time>
      </trkpt>
      <trkpt lat="48.39858" lon="-4.76239">
        <ele>50.2</ele>
        <time>2022-05-27T14:12:11Z</time>
      </trkpt>
      <trkpt lat="48.3984" lon="-4.76238">
        <ele>49.8</ele>
        <time>2022-05-27T14:12:13Z</time>
      </trkpt>
      <trkpt lat="48.39804" lon="-4.76225">
        <ele>49</ele>
        <time>2022-05-27T14:12:17Z</time>
      </trkpt>
      <trkpt lat="48.39795" lon="-4.76222">
        <ele>48.7</ele>
        <time>2022-05-27T14:12:18Z</time>
      </trkpt>
      <trkpt lat="48.39759" lon="-4.76203">
        <ele>47.3</ele>
        <time>2022-05-27T14:12:22Z</time>
      </trkpt>
      <trkpt lat="48.3975" lon="-4.76195">
        <ele>47.2</ele>
        <time>2022-05-27T14:12:23Z</time>
      </trkpt>
      <trkpt lat="48.39705" lon="-4.76168">
        <ele>46.6</ele>
        <time>2022-05-27T14:12:28Z</time>
      </trkpt>
      <trkpt lat="48.3967" lon="-4.76144">
        <ele>46.1</ele>
        <time>2022-05-27T14:12:32Z</time>
      </trkpt>
      <trkpt lat="48.39663" lon="-4.76137">
        <ele>46</ele>
        <time>2022-05-27T14:12:33Z</time>
      </trkpt>
      <trkpt lat="48.39654" lon="-4.76134">
        <ele>45.9</ele>
        <time>2022-05-27T14:12:34Z</time>
      </trkpt>
      <trkpt lat="48.39613" lon="-4.7612">
        <ele>46.8</ele>
        <time>2022-05-27T14:12:39Z</time>
      </trkpt>
      <trkpt lat="48.39565" lon="-4.76107">
        <ele>47.9</ele>
        <time>2022-05-27T14:12:45Z</time>
      </trkpt>
      <trkpt lat="48.39557" lon="-4.76104">
        <ele>48</ele>
        <time>2022-05-27T14:12:46Z</time>
      </trkpt>
      <trkpt lat="48.39515" lon="-4.76091">
        <ele>48.1</ele>
        <time>2022-05-27T14:12:51Z</time>
      </trkpt>
      <trkpt lat="48.39507" lon="-4.7609">
        <ele>48</ele>
        <time>2022-05-27T14:12:52Z</time>
      </trkpt>
      <trkpt lat="48.39462" lon="-4.76084">
        <ele>47.3</ele>
        <time>2022-05-27T14:12:57Z</time>
      </trkpt>
      <trkpt lat="48.39414" lon="-4.76099">
        <ele>46.5</ele>
        <time>2022-05-27T14:13:02Z</time>
      </trkpt>
      <trkpt lat="48.39396" lon="-4.76109">
        <ele>46.2</ele>
        <time>2022-05-27T14:13:04Z</time>
      </trkpt>
      <trkpt lat="48.39368" lon="-4.76124">
        <ele>45.8</ele>
        <time>2022-05-27T14:13:07Z</time>
      </trkpt>
      <trkpt lat="48.39321" lon="-4.76152">
        <ele>45.1</ele>
        <time>2022-05-27T14:13:12Z</time>
      </trkpt>
      <trkpt lat="48.39274" lon="-4.76178">
        <ele>44.4</ele>
        <time>2022-05-27T14:13:17Z</time>
      </trkpt>
      <trkpt lat="48.39226" lon="-4.76187">
        <ele>43.7</ele>
        <time>2022-05-27T14:13:22Z</time>
      </trkpt>
      <trkpt lat="48.3918" lon="-4.76193">
        <ele>43.3</ele>
        <time>2022-05-27T14:13:27Z</time>
      </trkpt>
      <trkpt lat="48.39134" lon="-4.76207">
        <ele>42.9</ele>
        <time>2022-05-27T14:13:32Z</time>
      </trkpt>
      <trkpt lat="48.3909" lon="-4.76226">
        <ele>42.4</ele>
        <time>2022-05-27T14:13:37Z</time>
      </trkpt>
      <trkpt lat="48.39039" lon="-4.7625">
        <ele>41.9</ele>
        <time>2022-05-27T14:13:43Z</time>
      </trkpt>
      <trkpt lat="48.38993" lon="-4.76255">
        <ele>41.5</ele>
        <time>2022-05-27T14:13:48Z</time>
      </trkpt>
      <trkpt lat="48.38946" lon="-4.76252">
        <ele>41</ele>
        <time>2022-05-27T14:13:53Z</time>
      </trkpt>
      <trkpt lat="48.38899" lon="-4.76238">
        <ele>40.5</ele>
        <time>2022-05-27T14:13:58Z</time>
      </trkpt>
      <trkpt lat="48.38851" lon="-4.76221">
        <ele>38.5</ele>
        <time>2022-05-27T14:14:03Z</time>
      </trkpt>
      <trkpt lat="48.38841" lon="-4.76217">
        <ele>38.2</ele>
        <time>2022-05-27T14:14:04Z</time>
      </trkpt>
      <trkpt lat="48.38813" lon="-4.76207">
        <ele>37.9</ele>
        <time>2022-05-27T14:14:07Z</time>
      </trkpt>
      <trkpt lat="48.38764" lon="-4.76202">
        <ele>37.2</ele>
        <time>2022-05-27T14:14:12Z</time>
      </trkpt>
      <trkpt lat="48.38745" lon="-4.76201">
        <ele>37</ele>
        <time>2022-05-27T14:14:14Z</time>
      </trkpt>
      <trkpt lat="48.38718" lon="-4.762">
        <ele>36.5</ele>
        <time>2022-05-27T14:14:17Z</time>
      </trkpt>
      <trkpt lat="48.38665" lon="-4.76195">
        <ele>35.6</ele>
        <time>2022-05-27T14:14:23Z</time>
      </trkpt>
      <trkpt lat="48.38612" lon="-4.76191">
        <ele>34.7</ele>
        <time>2022-05-27T14:14:29Z</time>
      </trkpt>
      <trkpt lat="48.38559" lon="-4.76197">
        <ele>33.8</ele>
        <time>2022-05-27T14:14:35Z</time>
      </trkpt>
      <trkpt lat="48.38506" lon="-4.76206">
        <ele>32.9</ele>
        <time>2022-05-27T14:14:41Z</time>
      </trkpt>
      <trkpt lat="48.38461" lon="-4.76209">
        <ele>32</ele>
        <time>2022-05-27T14:14:47Z</time>
      </trkpt>
      <trkpt lat="48.38413" lon="-4.76217">
        <ele>30.6</ele>
        <time>2022-05-27T14:14:54Z</time>
      </trkpt>
      <trkpt lat="48.38369" lon="-4.76229">
        <ele>23.7</ele>
        <time>2022-05-27T14:15:00Z</time>
      </trkpt>
      <trkpt lat="48.38351" lon="-4.76225">
        <ele>21.1</ele>
        <time>2022-05-27T14:15:02Z</time>
      </trkpt>
      <trkpt lat="48.38342" lon="-4.76218">
        <ele>19.7</ele>
        <time>2022-05-27T14:15:03Z</time>
      </trkpt>
      <trkpt lat="48.38319" lon="-4.76192">
        <ele>15.9</ele>
        <time>2022-05-27T14:15:06Z</time>
      </trkpt>
      <trkpt lat="48.38312" lon="-4.76184">
        <ele>15</ele>
        <time>2022-05-27T14:15:07Z</time>
      </trkpt>
      <trkpt lat="48.38298" lon="-4.76161">
        <ele>11.3</ele>
        <time>2022-05-27T14:15:11Z</time>
      </trkpt>
      <trkpt lat="48.38292" lon="-4.76164">
        <ele>10.6</ele>
        <time>2022-05-27T14:15:12Z</time>
      </trkpt>
      <trkpt lat="48.38257" lon="-4.76181">
        <ele>8.4</ele>
        <time>2022-05-27T14:15:18Z</time>
      </trkpt>
      <trkpt lat="48.38235" lon="-4.76183">
        <ele>7.3</ele>
        <time>2022-05-27T14:15:21Z</time>
      </trkpt>
      <trkpt lat="48.38217" lon="-4.76193">
        <ele>6.3</ele>
        <time>2022-05-27T14:15:24Z</time>
      </trkpt>
      <trkpt lat="48.38195" lon="-4.76222">
        <ele>5.7</ele>
        <time>2022-05-27T14:15:30Z</time>
      </trkpt>
      <trkpt lat="48.38181" lon="-4.76241">
        <ele>6.4</ele>
        <time>2022-05-27T14:15:34Z</time>
      </trkpt>
      <trkpt lat="48.38176" lon="-4.76249">
        <ele>6.8</ele>
        <time>2022-05-27T14:15:36Z</time>
      </trkpt>
      <trkpt lat="48.38167" lon="-4.76261">
        <ele>7.8</ele>
        <time>2022-05-27T14:15:39Z</time>
      </trkpt>
      <trkpt lat="48.38156" lon="-4.76263">
        <ele>8.8</ele>
        <time>2022-05-27T14:15:42Z</time>
      </trkpt>
      <trkpt lat="48.38142" lon="-4.76215">
        <ele>12.3</ele>
        <time>2022-05-27T14:15:54Z</time>
      </trkpt>
      <trkpt lat="48.38138" lon="-4.76199">
        <ele>13.8</ele>
        <time>2022-05-27T14:15:58Z</time>
      </trkpt>
      <trkpt lat="48.38131" lon="-4.76172">
        <ele>16.8</ele>
        <time>2022-05-27T14:16:06Z</time>
      </trkpt>
      <trkpt lat="48.38122" lon="-4.76136">
        <ele>20.5</ele>
        <time>2022-05-27T14:16:17Z</time>
      </trkpt>
      <trkpt lat="48.38122" lon="-4.76133">
        <ele>20.8</ele>
        <time>2022-05-27T14:16:18Z</time>
      </trkpt>
      <trkpt lat="48.38112" lon="-4.76101">
        <ele>24.2</ele>
        <time>2022-05-27T14:16:29Z</time>
      </trkpt>
      <trkpt lat="48.38103" lon="-4.76079">
        <ele>26.9</ele>
        <time>2022-05-27T14:16:37Z</time>
      </trkpt>
      <trkpt lat="48.381" lon="-4.76077">
        <ele>27.2</ele>
        <time>2022-05-27T14:16:38Z</time>
      </trkpt>
      <trkpt lat="48.38096" lon="-4.76068">
        <ele>28.2</ele>
        <time>2022-05-27T14:16:41Z</time>
      </trkpt>
      <trkpt lat="48.3807" lon="-4.76042">
        <ele>30.9</ele>
        <time>2022-05-27T14:16:52Z</time>
      </trkpt>
      <trkpt lat="48.38068" lon="-4.76037">
        <ele>31.1</ele>
        <time>2022-05-27T14:16:53Z</time>
      </trkpt>
      <trkpt lat="48.38045" lon="-4.76016">
        <ele>30.8</ele>
        <time>2022-05-27T14:16:59Z</time>
      </trkpt>
      <trkpt lat="48.38029" lon="-4.76002">
        <ele>30.3</ele>
        <time>2022-05-27T14:17:03Z</time>
      </trkpt>
      <trkpt lat="48.37997" lon="-4.75984">
        <ele>29.6</ele>
        <time>2022-05-27T14:17:09Z</time>
      </trkpt>
      <trkpt lat="48.37983" lon="-4.75982">
        <ele>29.3</ele>
        <time>2022-05-27T14:17:11Z</time>
      </trkpt>
      <trkpt lat="48.37935" lon="-4.7598">
        <ele>29</ele>
        <time>2022-05-27T14:17:18Z</time>
      </trkpt>
      <trkpt lat="48.37908" lon="-4.75981">
        <ele>28.9</ele>
        <time>2022-05-27T14:17:23Z</time>
      </trkpt>
      <trkpt lat="48.37886" lon="-4.75982">
        <ele>29.2</ele>
        <time>2022-05-27T14:17:27Z</time>
      </trkpt>
      <trkpt lat="48.37876" lon="-4.75989">
        <ele>29.4</ele>
        <time>2022-05-27T14:17:29Z</time>
      </trkpt>
      <trkpt lat="48.37845" lon="-4.7601">
        <ele>29.2</ele>
        <time>2022-05-27T14:17:35Z</time>
      </trkpt>
      <trkpt lat="48.37815" lon="-4.76028">
        <ele>30.2</ele>
        <time>2022-05-27T14:17:41Z</time>
      </trkpt>
      <trkpt lat="48.37811" lon="-4.76033">
        <ele>30.3</ele>
        <time>2022-05-27T14:17:42Z</time>
      </trkpt>
      <trkpt lat="48.37786" lon="-4.76046">
        <ele>31.1</ele>
        <time>2022-05-27T14:17:47Z</time>
      </trkpt>
      <trkpt lat="48.37767" lon="-4.76056">
        <ele>31.1</ele>
        <time>2022-05-27T14:17:51Z</time>
      </trkpt>
      <trkpt lat="48.37756" lon="-4.76061">
        <ele>31</ele>
        <time>2022-05-27T14:17:53Z</time>
      </trkpt>
      <trkpt lat="48.37724" lon="-4.76074">
        <ele>30.5</ele>
        <time>2022-05-27T14:17:59Z</time>
      </trkpt>
      <trkpt lat="48.37676" lon="-4.76071">
        <ele>29.8</ele>
        <time>2022-05-27T14:18:07Z</time>
      </trkpt>
      <trkpt lat="48.37625" lon="-4.76063">
        <ele>29.2</ele>
        <time>2022-05-27T14:18:15Z</time>
      </trkpt>
      <trkpt lat="48.3758" lon="-4.76055">
        <ele>28.6</ele>
        <time>2022-05-27T14:18:22Z</time>
      </trkpt>
      <trkpt lat="48.37536" lon="-4.76038">
        <ele>28.1</ele>
        <time>2022-05-27T14:18:28Z</time>
      </trkpt>
      <trkpt lat="48.37528" lon="-4.76035">
        <ele>28</ele>
        <time>2022-05-27T14:18:29Z</time>
      </trkpt>
      <trkpt lat="48.37495" lon="-4.76005">
        <ele>27.5</ele>
        <time>2022-05-27T14:18:34Z</time>
      </trkpt>
      <trkpt lat="48.37472" lon="-4.75951">
        <ele>27</ele>
        <time>2022-05-27T14:18:40Z</time>
      </trkpt>
      <trkpt lat="48.3747" lon="-4.75941">
        <ele>27</ele>
        <time>2022-05-27T14:18:41Z</time>
      </trkpt>
      <trkpt lat="48.37467" lon="-4.7593">
        <ele>27</ele>
        <time>2022-05-27T14:18:42Z</time>
      </trkpt>
      <trkpt lat="48.37467" lon="-4.75918">
        <ele>27</ele>
        <time>2022-05-27T14:18:43Z</time>
      </trkpt>
      <trkpt lat="48.37459" lon="-4.75841">
        <ele>27.2</ele>
        <time>2022-05-27T14:18:50Z</time>
      </trkpt>
      <trkpt lat="48.37447" lon="-4.75774">
        <ele>27.4</ele>
        <time>2022-05-27T14:18:56Z</time>
      </trkpt>
      <trkpt lat="48.37427" lon="-4.75703">
        <ele>27.6</ele>
        <time>2022-05-27T14:19:03Z</time>
      </trkpt>
      <trkpt lat="48.3741" lon="-4.75632">
        <ele>27.8</ele>
        <time>2022-05-27T14:19:10Z</time>
      </trkpt>
      <trkpt lat="48.37394" lon="-4.75564">
        <ele>27.9</ele>
        <time>2022-05-27T14:19:17Z</time>
      </trkpt>
      <trkpt lat="48.37377" lon="-4.75493">
        <ele>28.1</ele>
        <time>2022-05-27T14:19:24Z</time>
      </trkpt>
      <trkpt lat="48.37357" lon="-4.75426">
        <ele>28.3</ele>
        <time>2022-05-27T14:19:31Z</time>
      </trkpt>
      <trkpt lat="48.37336" lon="-4.7537">
        <ele>28.5</ele>
        <time>2022-05-27T14:19:37Z</time>
      </trkpt>
      <trkpt lat="48.37315" lon="-4.75304">
        <ele>28.7</ele>
        <time>2022-05-27T14:19:45Z</time>
      </trkpt>
      <trkpt lat="48.37312" lon="-4.75297">
        <ele>28.8</ele>
        <time>2022-05-27T14:19:46Z</time>
      </trkpt>
      <trkpt lat="48.37289" lon="-4.75247">
        <ele>30.2</ele>
        <time>2022-05-27T14:19:53Z</time>
      </trkpt>
      <trkpt lat="48.37283" lon="-4.75238">
        <ele>30.6</ele>
        <time>2022-05-27T14:19:55Z</time>
      </trkpt>
      <trkpt lat="48.37275" lon="-4.75238">
        <ele>31</ele>
        <time>2022-05-27T14:19:57Z</time>
      </trkpt>
      <trkpt lat="48.37254" lon="-4.75268">
        <ele>32</ele>
        <time>2022-05-27T14:20:02Z</time>
      </trkpt>
      <trkpt lat="48.3725" lon="-4.75272">
        <ele>32.2</ele>
        <time>2022-05-27T14:20:03Z</time>
      </trkpt>
      <trkpt lat="48.37246" lon="-4.75279">
        <ele>32.3</ele>
        <time>2022-05-27T14:20:04Z</time>
      </trkpt>
      <trkpt lat="48.37222" lon="-4.75317">
        <ele>31.3</ele>
        <time>2022-05-27T14:20:10Z</time>
      </trkpt>
      <trkpt lat="48.37217" lon="-4.75323">
        <ele>31.3</ele>
        <time>2022-05-27T14:20:11Z</time>
      </trkpt>
      <trkpt lat="48.37186" lon="-4.75371">
        <ele>31.3</ele>
        <time>2022-05-27T14:20:18Z</time>
      </trkpt>
      <trkpt lat="48.37153" lon="-4.75419">
        <ele>31.2</ele>
        <time>2022-05-27T14:20:25Z</time>
      </trkpt>
      <trkpt lat="48.37118" lon="-4.75465">
        <ele>31.1</ele>
        <time>2022-05-27T14:20:32Z</time>
      </trkpt>
      <trkpt lat="48.3708" lon="-4.75517">
        <ele>31.1</ele>
        <time>2022-05-27T14:20:40Z</time>
      </trkpt>
      <trkpt lat="48.37047" lon="-4.75567">
        <ele>31</ele>
        <time>2022-05-27T14:20:47Z</time>
      </trkpt>
      <trkpt lat="48.37012" lon="-4.75619">
        <ele>30.9</ele>
        <time>2022-05-27T14:20:54Z</time>
      </trkpt>
      <trkpt lat="48.36975" lon="-4.75669">
        <ele>30.9</ele>
        <time>2022-05-27T14:21:01Z</time>
      </trkpt>
      <trkpt lat="48.36938" lon="-4.75717">
        <ele>30.8</ele>
        <time>2022-05-27T14:21:08Z</time>
      </trkpt>
      <trkpt lat="48.36905" lon="-4.75766">
        <ele>30.8</ele>
        <time>2022-05-27T14:21:15Z</time>
      </trkpt>
      <trkpt lat="48.36871" lon="-4.75813">
        <ele>30.7</ele>
        <time>2022-05-27T14:21:22Z</time>
      </trkpt>
      <trkpt lat="48.36836" lon="-4.7586">
        <ele>30.6</ele>
        <time>2022-05-27T14:21:29Z</time>
      </trkpt>
      <trkpt lat="48.36801" lon="-4.75911">
        <ele>30.6</ele>
        <time>2022-05-27T14:21:36Z</time>
      </trkpt>
      <trkpt lat="48.36767" lon="-4.75959">
        <ele>30.5</ele>
        <time>2022-05-27T14:21:43Z</time>
      </trkpt>
      <trkpt lat="48.36733" lon="-4.76008">
        <ele>30.4</ele>
        <time>2022-05-27T14:21:54Z</time>
      </trkpt>
      <trkpt lat="48.36699" lon="-4.76056">
        <ele>30.3</ele>
        <time>2022-05-27T14:22:03Z</time>
      </trkpt>
      <trkpt lat="48.36665" lon="-4.76103">
        <ele>30.2</ele>
        <time>2022-05-27T14:22:12Z</time>
      </trkpt>
      <trkpt lat="48.36628" lon="-4.76153">
        <ele>30.1</ele>
        <time>2022-05-27T14:22:23Z</time>
      </trkpt>
      <trkpt lat="48.36593" lon="-4.76199">
        <ele>30.1</ele>
        <time>2022-05-27T14:22:32Z</time>
      </trkpt>
      <trkpt lat="48.36576" lon="-4.76234">
        <ele>30</ele>
        <time>2022-05-27T14:22:37Z</time>
      </trkpt>
      <trkpt lat="48.36566" lon="-4.76306">
        <ele>29.9</ele>
        <time>2022-05-27T14:22:45Z</time>
      </trkpt>
      <trkpt lat="48.3656" lon="-4.7637">
        <ele>29.7</ele>
        <time>2022-05-27T14:22:51Z</time>
      </trkpt>
      <trkpt lat="48.36558" lon="-4.7638">
        <ele>29.3</ele>
        <time>2022-05-27T14:22:52Z</time>
      </trkpt>
      <trkpt lat="48.3655" lon="-4.76423">
        <ele>27</ele>
        <time>2022-05-27T14:22:57Z</time>
      </trkpt>
      <trkpt lat="48.36549" lon="-4.7643">
        <ele>26.6</ele>
        <time>2022-05-27T14:22:58Z</time>
      </trkpt>
      <trkpt lat="48.36547" lon="-4.76435">
        <ele>25.8</ele>
        <time>2022-05-27T14:23:00Z</time>
      </trkpt>
      <trkpt lat="48.36502" lon="-4.7645">
        <ele>23.1</ele>
        <time>2022-05-27T14:23:07Z</time>
      </trkpt>
      <trkpt lat="48.36492" lon="-4.76455">
        <ele>22.3</ele>
        <time>2022-05-27T14:23:09Z</time>
      </trkpt>
      <trkpt lat="48.36466" lon="-4.76467">
        <ele>20</ele>
        <time>2022-05-27T14:23:14Z</time>
      </trkpt>
      <trkpt lat="48.36443" lon="-4.76476">
        <ele>18.1</ele>
        <time>2022-05-27T14:23:18Z</time>
      </trkpt>
      <trkpt lat="48.36437" lon="-4.76495">
        <ele>17.1</ele>
        <time>2022-05-27T14:23:20Z</time>
      </trkpt>
      <trkpt lat="48.36436" lon="-4.76503">
        <ele>16.6</ele>
        <time>2022-05-27T14:23:21Z</time>
      </trkpt>
      <trkpt lat="48.36432" lon="-4.76541">
        <ele>14.1</ele>
        <time>2022-05-27T14:23:26Z</time>
      </trkpt>
      <trkpt lat="48.36429" lon="-4.76541">
        <ele>13.6</ele>
        <time>2022-05-27T14:23:27Z</time>
      </trkpt>
      <trkpt lat="48.36399" lon="-4.76539">
        <ele>9.1</ele>
        <time>2022-05-27T14:23:39Z</time>
      </trkpt>
      <trkpt lat="48.36384" lon="-4.76539">
        <ele>7.4</ele>
        <time>2022-05-27T14:23:45Z</time>
      </trkpt>
      <trkpt lat="48.36376" lon="-4.76542">
        <ele>6.3</ele>
        <time>2022-05-27T14:23:49Z</time>
      </trkpt>
      <trkpt lat="48.36373" lon="-4.76553">
        <ele>5.7</ele>
        <time>2022-05-27T14:23:51Z</time>
      </trkpt>
      <trkpt lat="48.36325" lon="-4.76608">
        <ele>4.8</ele>
        <time>2022-05-27T14:23:56Z</time>
      </trkpt>
      <trkpt lat="48.36325" lon="-4.76608">
        <ele>4.8</ele>
        <time>2022-05-27T14:25:14Z</time>
      </trkpt>
      <trkpt lat="48.36281" lon="-4.76651">
        <ele>4.1</ele>
        <time>2022-05-27T14:25:22Z</time>
      </trkpt>
      <trkpt lat="48.36189" lon="-4.76696">
        <ele>5.1</ele>
        <time>2022-05-27T14:26:25Z</time>
      </trkpt>
      <trkpt lat="48.36189" lon="-4.76696">
        <ele>5.1</ele>
        <time>2022-05-27T14:31:35Z</time>
      </trkpt>
      <trkpt lat="48.3614" lon="-4.76718">
        <ele>6</ele>
        <time>2022-05-27T14:31:37Z</time>
      </trkpt>
      <trkpt lat="48.36139" lon="-4.76719">
        <ele>6.1</ele>
        <time>2022-05-27T14:31:38Z</time>
      </trkpt>
      <trkpt lat="48.36137" lon="-4.76721">
        <ele>7</ele>
        <time>2022-05-27T14:31:41Z</time>
      </trkpt>
      <trkpt lat="48.36136" lon="-4.76726">
        <ele>7.7</ele>
        <time>2022-05-27T14:31:43Z</time>
      </trkpt>
      <trkpt lat="48.36134" lon="-4.76727">
        <ele>8</ele>
        <time>2022-05-27T14:31:44Z</time>
      </trkpt>
      <trkpt lat="48.36131" lon="-4.7673">
        <ele>8.5</ele>
        <time>2022-05-27T14:31:46Z</time>
      </trkpt>
      <trkpt lat="48.36132" lon="-4.76775">
        <ele>11.1</ele>
        <time>2022-05-27T14:31:56Z</time>
      </trkpt>
      <trkpt lat="48.36133" lon="-4.76798">
        <ele>12.2</ele>
        <time>2022-05-27T14:32:01Z</time>
      </trkpt>
      <trkpt lat="48.36133" lon="-4.76802">
        <ele>12.5</ele>
        <time>2022-05-27T14:32:02Z</time>
      </trkpt>
      <trkpt lat="48.36131" lon="-4.76847">
        <ele>15.6</ele>
        <time>2022-05-27T14:32:14Z</time>
      </trkpt>
      <trkpt lat="48.3613" lon="-4.76866">
        <ele>17.1</ele>
        <time>2022-05-27T14:32:19Z</time>
      </trkpt>
      <trkpt lat="48.3613" lon="-4.76874">
        <ele>17.7</ele>
        <time>2022-05-27T14:32:21Z</time>
      </trkpt>
      <trkpt lat="48.36127" lon="-4.7689">
        <ele>19.2</ele>
        <time>2022-05-27T14:32:26Z</time>
      </trkpt>
      <trkpt lat="48.3612" lon="-4.76929">
        <ele>21.5</ele>
        <time>2022-05-27T14:32:38Z</time>
      </trkpt>
      <trkpt lat="48.36118" lon="-4.76939">
        <ele>22</ele>
        <time>2022-05-27T14:32:41Z</time>
      </trkpt>
      <trkpt lat="48.36107" lon="-4.7699">
        <ele>24.7</ele>
        <time>2022-05-27T14:32:56Z</time>
      </trkpt>
      <trkpt lat="48.36104" lon="-4.77005">
        <ele>25.2</ele>
        <time>2022-05-27T14:33:00Z</time>
      </trkpt>
      <trkpt lat="48.36094" lon="-4.77052">
        <ele>26.2</ele>
        <time>2022-05-27T14:33:08Z</time>
      </trkpt>
      <trkpt lat="48.36091" lon="-4.7707">
        <ele>26.2</ele>
        <time>2022-05-27T14:33:11Z</time>
      </trkpt>
      <trkpt lat="48.36081" lon="-4.77138">
        <ele>26.2</ele>
        <time>2022-05-27T14:33:20Z</time>
      </trkpt>
      <trkpt lat="48.36066" lon="-4.77205">
        <ele>26.3</ele>
        <time>2022-05-27T14:33:30Z</time>
      </trkpt>
      <trkpt lat="48.36044" lon="-4.77266">
        <ele>26.3</ele>
        <time>2022-05-27T14:33:40Z</time>
      </trkpt>
      <trkpt lat="48.36027" lon="-4.77331">
        <ele>26.3</ele>
        <time>2022-05-27T14:33:50Z</time>
      </trkpt>
      <trkpt lat="48.3601" lon="-4.77398">
        <ele>26.4</ele>
        <time>2022-05-27T14:34:07Z</time>
      </trkpt>
      <trkpt lat="48.35995" lon="-4.77457">
        <ele>26.4</ele>
        <time>2022-05-27T14:34:20Z</time>
      </trkpt>
      <trkpt lat="48.35949" lon="-4.77439">
        <ele>26.5</ele>
        <time>2022-05-27T14:34:36Z</time>
      </trkpt>
      <trkpt lat="48.35921" lon="-4.77436">
        <ele>26.8</ele>
        <time>2022-05-27T14:34:42Z</time>
      </trkpt>
      <trkpt lat="48.35903" lon="-4.77435">
        <ele>26.7</ele>
        <time>2022-05-27T14:34:46Z</time>
      </trkpt>
      <trkpt lat="48.3587" lon="-4.77437">
        <ele>26.4</ele>
        <time>2022-05-27T14:34:54Z</time>
      </trkpt>
      <trkpt lat="48.35862" lon="-4.77472">
        <ele>26.2</ele>
        <time>2022-05-27T14:35:00Z</time>
      </trkpt>
      <trkpt lat="48.35821" lon="-4.77515">
        <ele>25.8</ele>
        <time>2022-05-27T14:35:10Z</time>
      </trkpt>
      <trkpt lat="48.35795" lon="-4.77565">
        <ele>25.5</ele>
        <time>2022-05-27T14:35:17Z</time>
      </trkpt>
      <trkpt lat="48.35791" lon="-4.77572">
        <ele>25.2</ele>
        <time>2022-05-27T14:35:18Z</time>
      </trkpt>
      <trkpt lat="48.35776" lon="-4.77591">
        <ele>24.5</ele>
        <time>2022-05-27T14:35:21Z</time>
      </trkpt>
      <trkpt lat="48.35755" lon="-4.77595">
        <ele>23.8</ele>
        <time>2022-05-27T14:35:24Z</time>
      </trkpt>
      <trkpt lat="48.35728" lon="-4.77576">
        <ele>22.8</ele>
        <time>2022-05-27T14:35:28Z</time>
      </trkpt>
      <trkpt lat="48.35715" lon="-4.77567">
        <ele>22.8</ele>
        <time>2022-05-27T14:35:30Z</time>
      </trkpt>
      <trkpt lat="48.35695" lon="-4.77547">
        <ele>22.8</ele>
        <time>2022-05-27T14:35:34Z</time>
      </trkpt>
      <trkpt lat="48.35686" lon="-4.77538">
        <ele>23.5</ele>
        <time>2022-05-27T14:35:36Z</time>
      </trkpt>
      <trkpt lat="48.35669" lon="-4.77533">
        <ele>24.7</ele>
        <time>2022-05-27T14:35:40Z</time>
      </trkpt>
      <trkpt lat="48.35645" lon="-4.77525">
        <ele>27</ele>
        <time>2022-05-27T14:35:46Z</time>
      </trkpt>
      <trkpt lat="48.35641" lon="-4.77524">
        <ele>27.3</ele>
        <time>2022-05-27T14:35:47Z</time>
      </trkpt>
      <trkpt lat="48.35598" lon="-4.77522">
        <ele>31.4</ele>
        <time>2022-05-27T14:35:58Z</time>
      </trkpt>
      <trkpt lat="48.35594" lon="-4.77522">
        <ele>31.6</ele>
        <time>2022-05-27T14:35:59Z</time>
      </trkpt>
      <trkpt lat="48.35544" lon="-4.7752">
        <ele>33.9</ele>
        <time>2022-05-27T14:36:10Z</time>
      </trkpt>
      <trkpt lat="48.35502" lon="-4.77544">
        <ele>35</ele>
        <time>2022-05-27T14:36:19Z</time>
      </trkpt>
      <trkpt lat="48.3549" lon="-4.77561">
        <ele>35.3</ele>
        <time>2022-05-27T14:36:22Z</time>
      </trkpt>
      <trkpt lat="48.35465" lon="-4.77594">
        <ele>35</ele>
        <time>2022-05-27T14:36:28Z</time>
      </trkpt>
      <trkpt lat="48.3543" lon="-4.77641">
        <ele>34.6</ele>
        <time>2022-05-27T14:36:36Z</time>
      </trkpt>
      <trkpt lat="48.35393" lon="-4.77693">
        <ele>34.2</ele>
        <time>2022-05-27T14:36:44Z</time>
      </trkpt>
      <trkpt lat="48.35356" lon="-4.77741">
        <ele>33.9</ele>
        <time>2022-05-27T14:36:51Z</time>
      </trkpt>
      <trkpt lat="48.35349" lon="-4.77746">
        <ele>33.8</ele>
        <time>2022-05-27T14:36:52Z</time>
      </trkpt>
      <trkpt lat="48.35328" lon="-4.77757">
        <ele>32.9</ele>
        <time>2022-05-27T14:36:55Z</time>
      </trkpt>
      <trkpt lat="48.35305" lon="-4.77756">
        <ele>32.2</ele>
        <time>2022-05-27T14:36:58Z</time>
      </trkpt>
      <trkpt lat="48.35298" lon="-4.77754">
        <ele>32</ele>
        <time>2022-05-27T14:36:59Z</time>
      </trkpt>
      <trkpt lat="48.35264" lon="-4.77726">
        <ele>31.1</ele>
        <time>2022-05-27T14:37:04Z</time>
      </trkpt>
      <trkpt lat="48.35258" lon="-4.77718">
        <ele>30.8</ele>
        <time>2022-05-27T14:37:05Z</time>
      </trkpt>
      <trkpt lat="48.35242" lon="-4.7767">
        <ele>29.6</ele>
        <time>2022-05-27T14:37:09Z</time>
      </trkpt>
      <trkpt lat="48.35246" lon="-4.77599">
        <ele>28.2</ele>
        <time>2022-05-27T14:37:14Z</time>
      </trkpt>
      <trkpt lat="48.35249" lon="-4.77585">
        <ele>27.9</ele>
        <time>2022-05-27T14:37:15Z</time>
      </trkpt>
      <trkpt lat="48.35259" lon="-4.77528">
        <ele>26</ele>
        <time>2022-05-27T14:37:19Z</time>
      </trkpt>
      <trkpt lat="48.35271" lon="-4.77453">
        <ele>23.7</ele>
        <time>2022-05-27T14:37:24Z</time>
      </trkpt>
      <trkpt lat="48.35272" lon="-4.77438">
        <ele>23.2</ele>
        <time>2022-05-27T14:37:25Z</time>
      </trkpt>
      <trkpt lat="48.3527" lon="-4.77423">
        <ele>22.8</ele>
        <time>2022-05-27T14:37:26Z</time>
      </trkpt>
      <trkpt lat="48.35265" lon="-4.77393">
        <ele>22.5</ele>
        <time>2022-05-27T14:37:28Z</time>
      </trkpt>
      <trkpt lat="48.35252" lon="-4.77359">
        <ele>21.9</ele>
        <time>2022-05-27T14:37:31Z</time>
      </trkpt>
      <trkpt lat="48.35234" lon="-4.77337">
        <ele>21.3</ele>
        <time>2022-05-27T14:37:34Z</time>
      </trkpt>
      <trkpt lat="48.35213" lon="-4.77324">
        <ele>20.9</ele>
        <time>2022-05-27T14:37:37Z</time>
      </trkpt>
      <trkpt lat="48.35206" lon="-4.77321">
        <ele>21.2</ele>
        <time>2022-05-27T14:37:38Z</time>
      </trkpt>
      <trkpt lat="48.35172" lon="-4.77319">
        <ele>22.3</ele>
        <time>2022-05-27T14:37:43Z</time>
      </trkpt>
      <trkpt lat="48.35158" lon="-4.77319">
        <ele>22.6</ele>
        <time>2022-05-27T14:37:45Z</time>
      </trkpt>
      <trkpt lat="48.35111" lon="-4.77314">
        <ele>23.5</ele>
        <time>2022-05-27T14:37:52Z</time>
      </trkpt>
      <trkpt lat="48.35066" lon="-4.77285">
        <ele>24.4</ele>
        <time>2022-05-27T14:37:59Z</time>
      </trkpt>
      <trkpt lat="48.35054" lon="-4.77271">
        <ele>24.6</ele>
        <time>2022-05-27T14:38:01Z</time>
      </trkpt>
      <trkpt lat="48.35038" lon="-4.7725">
        <ele>24.6</ele>
        <time>2022-05-27T14:38:04Z</time>
      </trkpt>
      <trkpt lat="48.35012" lon="-4.77187">
        <ele>24.4</ele>
        <time>2022-05-27T14:38:11Z</time>
      </trkpt>
      <trkpt lat="48.34989" lon="-4.77123">
        <ele>24.3</ele>
        <time>2022-05-27T14:38:18Z</time>
      </trkpt>
      <trkpt lat="48.34965" lon="-4.77063">
        <ele>24.2</ele>
        <time>2022-05-27T14:38:24Z</time>
      </trkpt>
      <trkpt lat="48.34928" lon="-4.77015">
        <ele>24.1</ele>
        <time>2022-05-27T14:38:30Z</time>
      </trkpt>
      <trkpt lat="48.34921" lon="-4.77008">
        <ele>23.9</ele>
        <time>2022-05-27T14:38:31Z</time>
      </trkpt>
      <trkpt lat="48.34884" lon="-4.76971">
        <ele>22.1</ele>
        <time>2022-05-27T14:38:36Z</time>
      </trkpt>
      <trkpt lat="48.3484" lon="-4.76931">
        <ele>20.2</ele>
        <time>2022-05-27T14:38:41Z</time>
      </trkpt>
      <trkpt lat="48.3482" lon="-4.76915">
        <ele>19.3</ele>
        <time>2022-05-27T14:38:43Z</time>
      </trkpt>
      <trkpt lat="48.34809" lon="-4.76909">
        <ele>18.5</ele>
        <time>2022-05-27T14:38:44Z</time>
      </trkpt>
      <trkpt lat="48.34776" lon="-4.76885">
        <ele>15.9</ele>
        <time>2022-05-27T14:38:47Z</time>
      </trkpt>
      <trkpt lat="48.34752" lon="-4.76879">
        <ele>14.6</ele>
        <time>2022-05-27T14:38:49Z</time>
      </trkpt>
      <trkpt lat="48.3471" lon="-4.7689">
        <ele>15</ele>
        <time>2022-05-27T14:38:53Z</time>
      </trkpt>
      <trkpt lat="48.34672" lon="-4.76927">
        <ele>15.6</ele>
        <time>2022-05-27T14:38:58Z</time>
      </trkpt>
      <trkpt lat="48.34653" lon="-4.76952">
        <ele>15.9</ele>
        <time>2022-05-27T14:39:01Z</time>
      </trkpt>
      <trkpt lat="48.34634" lon="-4.76977">
        <ele>15.6</ele>
        <time>2022-05-27T14:39:04Z</time>
      </trkpt>
      <trkpt lat="48.34599" lon="-4.77022">
        <ele>15.1</ele>
        <time>2022-05-27T14:39:09Z</time>
      </trkpt>
      <trkpt lat="48.34569" lon="-4.77054">
        <ele>14.6</ele>
        <time>2022-05-27T14:39:13Z</time>
      </trkpt>
      <trkpt lat="48.34561" lon="-4.77061">
        <ele>14.4</ele>
        <time>2022-05-27T14:39:14Z</time>
      </trkpt>
      <trkpt lat="48.3452" lon="-4.77093">
        <ele>13.1</ele>
        <time>2022-05-27T14:39:19Z</time>
      </trkpt>
      <trkpt lat="48.3448" lon="-4.77115">
        <ele>13.3</ele>
        <time>2022-05-27T14:39:24Z</time>
      </trkpt>
      <trkpt lat="48.34473" lon="-4.7712">
        <ele>13.3</ele>
        <time>2022-05-27T14:39:25Z</time>
      </trkpt>
      <trkpt lat="48.34429" lon="-4.77139">
        <ele>12.9</ele>
        <time>2022-05-27T14:39:31Z</time>
      </trkpt>
      <trkpt lat="48.34384" lon="-4.77138">
        <ele>12.6</ele>
        <time>2022-05-27T14:39:37Z</time>
      </trkpt>
      <trkpt lat="48.34338" lon="-4.77114">
        <ele>12.2</ele>
        <time>2022-05-27T14:39:43Z</time>
      </trkpt>
      <trkpt lat="48.34306" lon="-4.77101">
        <ele>12</ele>
        <time>2022-05-27T14:39:47Z</time>
      </trkpt>
      <trkpt lat="48.34298" lon="-4.77101">
        <ele>12</ele>
        <time>2022-05-27T14:39:48Z</time>
      </trkpt>
      <trkpt lat="48.34274" lon="-4.77104">
        <ele>12.1</ele>
        <time>2022-05-27T14:39:51Z</time>
      </trkpt>
      <trkpt lat="48.34255" lon="-4.77115">
        <ele>12.4</ele>
        <time>2022-05-27T14:39:54Z</time>
      </trkpt>
      <trkpt lat="48.3423" lon="-4.77129">
        <ele>14</ele>
        <time>2022-05-27T14:39:58Z</time>
      </trkpt>
      <trkpt lat="48.34218" lon="-4.77134">
        <ele>14.8</ele>
        <time>2022-05-27T14:40:00Z</time>
      </trkpt>
      <trkpt lat="48.34182" lon="-4.7715">
        <ele>16.4</ele>
        <time>2022-05-27T14:40:06Z</time>
      </trkpt>
      <trkpt lat="48.34146" lon="-4.77158">
        <ele>18</ele>
        <time>2022-05-27T14:40:12Z</time>
      </trkpt>
      <trkpt lat="48.34134" lon="-4.77161">
        <ele>18.2</ele>
        <time>2022-05-27T14:40:14Z</time>
      </trkpt>
      <trkpt lat="48.34109" lon="-4.77165">
        <ele>18.6</ele>
        <time>2022-05-27T14:40:18Z</time>
      </trkpt>
      <trkpt lat="48.34084" lon="-4.77169">
        <ele>18.7</ele>
        <time>2022-05-27T14:40:22Z</time>
      </trkpt>
      <trkpt lat="48.34071" lon="-4.77171">
        <ele>18.8</ele>
        <time>2022-05-27T14:40:24Z</time>
      </trkpt>
      <trkpt lat="48.34039" lon="-4.77176">
        <ele>18.7</ele>
        <time>2022-05-27T14:40:29Z</time>
      </trkpt>
      <trkpt lat="48.33992" lon="-4.77194">
        <ele>18.7</ele>
        <time>2022-05-27T14:40:36Z</time>
      </trkpt>
      <trkpt lat="48.33953" lon="-4.77218">
        <ele>18.7</ele>
        <time>2022-05-27T14:40:42Z</time>
      </trkpt>
      <trkpt lat="48.33911" lon="-4.77258">
        <ele>18.6</ele>
        <time>2022-05-27T14:40:49Z</time>
      </trkpt>
      <trkpt lat="48.33889" lon="-4.77283">
        <ele>18.6</ele>
        <time>2022-05-27T14:40:53Z</time>
      </trkpt>
      <trkpt lat="48.33875" lon="-4.77307">
        <ele>18.6</ele>
        <time>2022-05-27T14:40:56Z</time>
      </trkpt>
      <trkpt lat="48.33845" lon="-4.7736">
        <ele>18.6</ele>
        <time>2022-05-27T14:41:02Z</time>
      </trkpt>
      <trkpt lat="48.33813" lon="-4.77391">
        <ele>18.6</ele>
        <time>2022-05-27T14:41:06Z</time>
      </trkpt>
      <trkpt lat="48.33769" lon="-4.77406">
        <ele>18.5</ele>
        <time>2022-05-27T14:41:12Z</time>
      </trkpt>
      <trkpt lat="48.33755" lon="-4.77407">
        <ele>18.5</ele>
        <time>2022-05-27T14:41:14Z</time>
      </trkpt>
      <trkpt lat="48.33728" lon="-4.77415">
        <ele>18.5</ele>
        <time>2022-05-27T14:41:18Z</time>
      </trkpt>
      <trkpt lat="48.33708" lon="-4.7742">
        <ele>18.3</ele>
        <time>2022-05-27T14:41:21Z</time>
      </trkpt>
      <trkpt lat="48.33661" lon="-4.77414">
        <ele>17.9</ele>
        <time>2022-05-27T14:41:27Z</time>
      </trkpt>
      <trkpt lat="48.33631" lon="-4.77399">
        <ele>17.6</ele>
        <time>2022-05-27T14:41:31Z</time>
      </trkpt>
      <trkpt lat="48.33605" lon="-4.77366">
        <ele>17.3</ele>
        <time>2022-05-27T14:41:35Z</time>
      </trkpt>
      <trkpt lat="48.33588" lon="-4.77319">
        <ele>17</ele>
        <time>2022-05-27T14:41:39Z</time>
      </trkpt>
      <trkpt lat="48.33586" lon="-4.77306">
        <ele>16.9</ele>
        <time>2022-05-27T14:41:40Z</time>
      </trkpt>
      <trkpt lat="48.33575" lon="-4.77241">
        <ele>15.5</ele>
        <time>2022-05-27T14:41:45Z</time>
      </trkpt>
      <trkpt lat="48.33565" lon="-4.77172">
        <ele>14.1</ele>
        <time>2022-05-27T14:41:50Z</time>
      </trkpt>
      <trkpt lat="48.3356" lon="-4.77142">
        <ele>13.4</ele>
        <time>2022-05-27T14:41:52Z</time>
      </trkpt>
      <trkpt lat="48.33555" lon="-4.77129">
        <ele>12.9</ele>
        <time>2022-05-27T14:41:53Z</time>
      </trkpt>
      <trkpt lat="48.33545" lon="-4.7712">
        <ele>12.3</ele>
        <time>2022-05-27T14:41:54Z</time>
      </trkpt>
      <trkpt lat="48.33534" lon="-4.77115">
        <ele>11.7</ele>
        <time>2022-05-27T14:41:55Z</time>
      </trkpt>
      <trkpt lat="48.33513" lon="-4.77115">
        <ele>10.5</ele>
        <time>2022-05-27T14:41:57Z</time>
      </trkpt>
      <trkpt lat="48.33507" lon="-4.77119">
        <ele>10.2</ele>
        <time>2022-05-27T14:41:58Z</time>
      </trkpt>
      <trkpt lat="48.33474" lon="-4.77134">
        <ele>11.5</ele>
        <time>2022-05-27T14:42:03Z</time>
      </trkpt>
      <trkpt lat="48.33468" lon="-4.77135">
        <ele>11.8</ele>
        <time>2022-05-27T14:42:04Z</time>
      </trkpt>
      <trkpt lat="48.33432" lon="-4.77137">
        <ele>15</ele>
        <time>2022-05-27T14:42:10Z</time>
      </trkpt>
      <trkpt lat="48.33427" lon="-4.77137">
        <ele>15.3</ele>
        <time>2022-05-27T14:42:11Z</time>
      </trkpt>
      <trkpt lat="48.33378" lon="-4.77138">
        <ele>18.1</ele>
        <time>2022-05-27T14:42:20Z</time>
      </trkpt>
      <trkpt lat="48.33367" lon="-4.77139">
        <ele>18.7</ele>
        <time>2022-05-27T14:42:22Z</time>
      </trkpt>
      <trkpt lat="48.33333" lon="-4.7714">
        <ele>20</ele>
        <time>2022-05-27T14:42:28Z</time>
      </trkpt>
      <trkpt lat="48.33286" lon="-4.77149">
        <ele>20.6</ele>
        <time>2022-05-27T14:42:36Z</time>
      </trkpt>
      <trkpt lat="48.33261" lon="-4.77155">
        <ele>20.9</ele>
        <time>2022-05-27T14:42:40Z</time>
      </trkpt>
      <trkpt lat="48.33236" lon="-4.77161">
        <ele>21.1</ele>
        <time>2022-05-27T14:42:44Z</time>
      </trkpt>
      <trkpt lat="48.33223" lon="-4.77162">
        <ele>21.3</ele>
        <time>2022-05-27T14:42:46Z</time>
      </trkpt>
      <trkpt lat="48.33178" lon="-4.77173">
        <ele>21.7</ele>
        <time>2022-05-27T14:42:53Z</time>
      </trkpt>
      <trkpt lat="48.3313" lon="-4.77178">
        <ele>22</ele>
        <time>2022-05-27T14:43:00Z</time>
      </trkpt>
      <trkpt lat="48.33101" lon="-4.77171">
        <ele>22.3</ele>
        <time>2022-05-27T14:43:04Z</time>
      </trkpt>
      <trkpt lat="48.33095" lon="-4.77165">
        <ele>22.3</ele>
        <time>2022-05-27T14:43:05Z</time>
      </trkpt>
      <trkpt lat="48.33079" lon="-4.77132">
        <ele>22.6</ele>
        <time>2022-05-27T14:43:09Z</time>
      </trkpt>
      <trkpt lat="48.33079" lon="-4.77091">
        <ele>22.8</ele>
        <time>2022-05-27T14:43:13Z</time>
      </trkpt>
      <trkpt lat="48.33083" lon="-4.77061">
        <ele>22.9</ele>
        <time>2022-05-27T14:43:16Z</time>
      </trkpt>
      <trkpt lat="48.33104" lon="-4.77012">
        <ele>23.3</ele>
        <time>2022-05-27T14:43:22Z</time>
      </trkpt>
      <trkpt lat="48.33108" lon="-4.77005">
        <ele>23.6</ele>
        <time>2022-05-27T14:43:23Z</time>
      </trkpt>
      <trkpt lat="48.33145" lon="-4.76963">
        <ele>25.3</ele>
        <time>2022-05-27T14:43:31Z</time>
      </trkpt>
      <trkpt lat="48.33178" lon="-4.76926">
        <ele>27</ele>
        <time>2022-05-27T14:43:39Z</time>
      </trkpt>
      <trkpt lat="48.33182" lon="-4.76922">
        <ele>27</ele>
        <time>2022-05-27T14:43:40Z</time>
      </trkpt>
      <trkpt lat="48.33185" lon="-4.76921">
        <ele>27</ele>
        <time>2022-05-27T14:43:41Z</time>
      </trkpt>
      <trkpt lat="48.33186" lon="-4.76925">
        <ele>27.1</ele>
        <time>2022-05-27T14:43:42Z</time>
      </trkpt>
      <trkpt lat="48.33183" lon="-4.76934">
        <ele>27.1</ele>
        <time>2022-05-27T14:43:44Z</time>
      </trkpt>
      <trkpt lat="48.3317" lon="-4.76945">
        <ele>27.3</ele>
        <time>2022-05-27T14:43:48Z</time>
      </trkpt>
      <trkpt lat="48.33171" lon="-4.76947">
        <ele>27.3</ele>
        <time>2022-05-27T14:43:50Z</time>
      </trkpt>
      <trkpt lat="48.33182" lon="-4.7694">
        <ele>27.7</ele>
        <time>2022-05-27T14:43:53Z</time>
      </trkpt>
      <trkpt lat="48.33191" lon="-4.76944">
        <ele>27.8</ele>
        <time>2022-05-27T14:43:54Z</time>
      </trkpt>
      <trkpt lat="48.33226" lon="-4.76921">
        <ele>28.6</ele>
        <time>2022-05-27T14:44:01Z</time>
      </trkpt>
      <trkpt lat="48.33277" lon="-4.76917">
        <ele>29.6</ele>
        <time>2022-05-27T14:44:10Z</time>
      </trkpt>
      <trkpt lat="48.33326" lon="-4.76913">
        <ele>30.5</ele>
        <time>2022-05-27T14:44:18Z</time>
      </trkpt>
      <trkpt lat="48.33338" lon="-4.76912">
        <ele>30.7</ele>
        <time>2022-05-27T14:44:20Z</time>
      </trkpt>
      <trkpt lat="48.33372" lon="-4.76908">
        <ele>31.1</ele>
        <time>2022-05-27T14:44:26Z</time>
      </trkpt>
      <trkpt lat="48.33423" lon="-4.76897">
        <ele>30</ele>
        <time>2022-05-27T14:44:35Z</time>
      </trkpt>
      <trkpt lat="48.33473" lon="-4.7688">
        <ele>28.9</ele>
        <time>2022-05-27T14:44:43Z</time>
      </trkpt>
      <trkpt lat="48.33481" lon="-4.76876">
        <ele>28.7</ele>
        <time>2022-05-27T14:44:44Z</time>
      </trkpt>
      <trkpt lat="48.3352" lon="-4.76856">
        <ele>26.7</ele>
        <time>2022-05-27T14:44:49Z</time>
      </trkpt>
      <trkpt lat="48.33527" lon="-4.76852">
        <ele>26.2</ele>
        <time>2022-05-27T14:44:50Z</time>
      </trkpt>
      <trkpt lat="48.3354" lon="-4.76842">
        <ele>24.7</ele>
        <time>2022-05-27T14:44:52Z</time>
      </trkpt>
      <trkpt lat="48.33561" lon="-4.76804">
        <ele>21.9</ele>
        <time>2022-05-27T14:44:56Z</time>
      </trkpt>
      <trkpt lat="48.33566" lon="-4.76794">
        <ele>21.3</ele>
        <time>2022-05-27T14:44:57Z</time>
      </trkpt>
      <trkpt lat="48.33571" lon="-4.76784">
        <ele>20.6</ele>
        <time>2022-05-27T14:44:58Z</time>
      </trkpt>
      <trkpt lat="48.33577" lon="-4.76776">
        <ele>20</ele>
        <time>2022-05-27T14:44:59Z</time>
      </trkpt>
      <trkpt lat="48.33598" lon="-4.76762">
        <ele>18.3</ele>
        <time>2022-05-27T14:45:02Z</time>
      </trkpt>
      <trkpt lat="48.33626" lon="-4.76743">
        <ele>18.2</ele>
        <time>2022-05-27T14:45:06Z</time>
      </trkpt>
      <trkpt lat="48.33631" lon="-4.76736">
        <ele>18.1</ele>
        <time>2022-05-27T14:45:07Z</time>
      </trkpt>
      <trkpt lat="48.33647" lon="-4.76664">
        <ele>17.9</ele>
        <time>2022-05-27T14:45:13Z</time>
      </trkpt>
      <trkpt lat="48.33649" lon="-4.76654">
        <ele>18</ele>
        <time>2022-05-27T14:45:14Z</time>
      </trkpt>
      <trkpt lat="48.33652" lon="-4.76644">
        <ele>18.3</ele>
        <time>2022-05-27T14:45:15Z</time>
      </trkpt>
      <trkpt lat="48.33666" lon="-4.7661">
        <ele>19.5</ele>
        <time>2022-05-27T14:45:19Z</time>
      </trkpt>
      <trkpt lat="48.33671" lon="-4.76605">
        <ele>19.8</ele>
        <time>2022-05-27T14:45:20Z</time>
      </trkpt>
      <trkpt lat="48.33704" lon="-4.76574">
        <ele>20.7</ele>
        <time>2022-05-27T14:45:26Z</time>
      </trkpt>
      <trkpt lat="48.33743" lon="-4.76557">
        <ele>21.3</ele>
        <time>2022-05-27T14:45:32Z</time>
      </trkpt>
      <trkpt lat="48.33749" lon="-4.76555">
        <ele>21.6</ele>
        <time>2022-05-27T14:45:33Z</time>
      </trkpt>
      <trkpt lat="48.33775" lon="-4.76553">
        <ele>22.9</ele>
        <time>2022-05-27T14:45:38Z</time>
      </trkpt>
      <trkpt lat="48.33795" lon="-4.7655">
        <ele>24.3</ele>
        <time>2022-05-27T14:45:42Z</time>
      </trkpt>
      <trkpt lat="48.33804" lon="-4.76549">
        <ele>24.9</ele>
        <time>2022-05-27T14:45:44Z</time>
      </trkpt>
      <trkpt lat="48.33826" lon="-4.76546">
        <ele>26.6</ele>
        <time>2022-05-27T14:45:49Z</time>
      </trkpt>
      <trkpt lat="48.33831" lon="-4.76547">
        <ele>26.9</ele>
        <time>2022-05-27T14:45:50Z</time>
      </trkpt>
      <trkpt lat="48.33857" lon="-4.76534">
        <ele>28.8</ele>
        <time>2022-05-27T14:45:56Z</time>
      </trkpt>
      <trkpt lat="48.3387" lon="-4.76526">
        <ele>29.5</ele>
        <time>2022-05-27T14:45:59Z</time>
      </trkpt>
      <trkpt lat="48.33882" lon="-4.76511">
        <ele>30.1</ele>
        <time>2022-05-27T14:46:02Z</time>
      </trkpt>
      <trkpt lat="48.33905" lon="-4.76481">
        <ele>30.8</ele>
        <time>2022-05-27T14:46:08Z</time>
      </trkpt>
      <trkpt lat="48.33917" lon="-4.76474">
        <ele>31.2</ele>
        <time>2022-05-27T14:46:11Z</time>
      </trkpt>
      <trkpt lat="48.3393" lon="-4.76473">
        <ele>31.5</ele>
        <time>2022-05-27T14:46:14Z</time>
      </trkpt>
      <trkpt lat="48.33957" lon="-4.7646">
        <ele>32.2</ele>
        <time>2022-05-27T14:46:20Z</time>
      </trkpt>
      <trkpt lat="48.33961" lon="-4.76456">
        <ele>32.4</ele>
        <time>2022-05-27T14:46:21Z</time>
      </trkpt>
      <trkpt lat="48.3398" lon="-4.76424">
        <ele>33.1</ele>
        <time>2022-05-27T14:46:26Z</time>
      </trkpt>
      <trkpt lat="48.33991" lon="-4.76405">
        <ele>33.1</ele>
        <time>2022-05-27T14:46:29Z</time>
      </trkpt>
      <trkpt lat="48.34006" lon="-4.76388">
        <ele>33.2</ele>
        <time>2022-05-27T14:46:32Z</time>
      </trkpt>
      <trkpt lat="48.34025" lon="-4.76366">
        <ele>33.6</ele>
        <time>2022-05-27T14:46:36Z</time>
      </trkpt>
      <trkpt lat="48.34053" lon="-4.76352">
        <ele>34.2</ele>
        <time>2022-05-27T14:46:42Z</time>
      </trkpt>
      <trkpt lat="48.34057" lon="-4.76348">
        <ele>34.2</ele>
        <time>2022-05-27T14:46:43Z</time>
      </trkpt>
      <trkpt lat="48.34069" lon="-4.76341">
        <ele>34.5</ele>
        <time>2022-05-27T14:46:46Z</time>
      </trkpt>
      <trkpt lat="48.34072" lon="-4.76329">
        <ele>34.6</ele>
        <time>2022-05-27T14:46:47Z</time>
      </trkpt>
      <trkpt lat="48.34069" lon="-4.76316">
        <ele>34.7</ele>
        <time>2022-05-27T14:46:48Z</time>
      </trkpt>
      <trkpt lat="48.34082" lon="-4.76301">
        <ele>35</ele>
        <time>2022-05-27T14:46:51Z</time>
      </trkpt>
      <trkpt lat="48.34093" lon="-4.76301">
        <ele>35.1</ele>
        <time>2022-05-27T14:46:52Z</time>
      </trkpt>
      <trkpt lat="48.34115" lon="-4.76233">
        <ele>36.1</ele>
        <time>2022-05-27T14:47:02Z</time>
      </trkpt>
      <trkpt lat="48.34128" lon="-4.76186">
        <ele>36.4</ele>
        <time>2022-05-27T14:47:08Z</time>
      </trkpt>
      <trkpt lat="48.34132" lon="-4.7617">
        <ele>36.4</ele>
        <time>2022-05-27T14:47:10Z</time>
      </trkpt>
      <trkpt lat="48.34147" lon="-4.76105">
        <ele>36.7</ele>
        <time>2022-05-27T14:47:18Z</time>
      </trkpt>
      <trkpt lat="48.34161" lon="-4.7604">
        <ele>36.9</ele>
        <time>2022-05-27T14:47:26Z</time>
      </trkpt>
      <trkpt lat="48.34176" lon="-4.75972">
        <ele>37.1</ele>
        <time>2022-05-27T14:47:34Z</time>
      </trkpt>
      <trkpt lat="48.34196" lon="-4.75902">
        <ele>37.3</ele>
        <time>2022-05-27T14:47:42Z</time>
      </trkpt>
      <trkpt lat="48.34204" lon="-4.75877">
        <ele>37.4</ele>
        <time>2022-05-27T14:47:45Z</time>
      </trkpt>
      <trkpt lat="48.3423" lon="-4.75812">
        <ele>37.6</ele>
        <time>2022-05-27T14:47:53Z</time>
      </trkpt>
      <trkpt lat="48.34246" lon="-4.75748">
        <ele>37.8</ele>
        <time>2022-05-27T14:48:00Z</time>
      </trkpt>
      <trkpt lat="48.34254" lon="-4.75698">
        <ele>38</ele>
        <time>2022-05-27T14:48:05Z</time>
      </trkpt>
      <trkpt lat="48.34247" lon="-4.75624">
        <ele>38.2</ele>
        <time>2022-05-27T14:48:12Z</time>
      </trkpt>
      <trkpt lat="48.34253" lon="-4.75553">
        <ele>38.4</ele>
        <time>2022-05-27T14:48:19Z</time>
      </trkpt>
      <trkpt lat="48.34258" lon="-4.75483">
        <ele>38.6</ele>
        <time>2022-05-27T14:48:26Z</time>
      </trkpt>
      <trkpt lat="48.34266" lon="-4.75416">
        <ele>38.7</ele>
        <time>2022-05-27T14:48:32Z</time>
      </trkpt>
      <trkpt lat="48.34269" lon="-4.75395">
        <ele>38.8</ele>
        <time>2022-05-27T14:48:34Z</time>
      </trkpt>
      <trkpt lat="48.34296" lon="-4.75332">
        <ele>39</ele>
        <time>2022-05-27T14:48:41Z</time>
      </trkpt>
      <trkpt lat="48.34328" lon="-4.75272">
        <ele>39.2</ele>
        <time>2022-05-27T14:48:48Z</time>
      </trkpt>
      <trkpt lat="48.34346" lon="-4.75227">
        <ele>39.3</ele>
        <time>2022-05-27T14:48:53Z</time>
      </trkpt>
      <trkpt lat="48.34348" lon="-4.7516">
        <ele>39.5</ele>
        <time>2022-05-27T14:49:00Z</time>
      </trkpt>
      <trkpt lat="48.34354" lon="-4.7513">
        <ele>39.6</ele>
        <time>2022-05-27T14:49:03Z</time>
      </trkpt>
      <trkpt lat="48.34362" lon="-4.75061">
        <ele>39.8</ele>
        <time>2022-05-27T14:49:10Z</time>
      </trkpt>
      <trkpt lat="48.34371" lon="-4.74994">
        <ele>40</ele>
        <time>2022-05-27T14:49:16Z</time>
      </trkpt>
      <trkpt lat="48.34382" lon="-4.74924">
        <ele>40.1</ele>
        <time>2022-05-27T14:49:22Z</time>
      </trkpt>
      <trkpt lat="48.34385" lon="-4.74846">
        <ele>40.3</ele>
        <time>2022-05-27T14:49:29Z</time>
      </trkpt>
      <trkpt lat="48.34384" lon="-4.7477">
        <ele>40.5</ele>
        <time>2022-05-27T14:49:36Z</time>
      </trkpt>
      <trkpt lat="48.34386" lon="-4.74695">
        <ele>40.8</ele>
        <time>2022-05-27T14:49:43Z</time>
      </trkpt>
      <trkpt lat="48.34389" lon="-4.74645">
        <ele>41.8</ele>
        <time>2022-05-27T14:49:48Z</time>
      </trkpt>
      <trkpt lat="48.34392" lon="-4.74574">
        <ele>43.3</ele>
        <time>2022-05-27T14:49:55Z</time>
      </trkpt>
      <trkpt lat="48.34398" lon="-4.74526">
        <ele>44.3</ele>
        <time>2022-05-27T14:50:00Z</time>
      </trkpt>
      <trkpt lat="48.34399" lon="-4.74507">
        <ele>44.5</ele>
        <time>2022-05-27T14:50:02Z</time>
      </trkpt>
      <trkpt lat="48.344" lon="-4.74467">
        <ele>44.9</ele>
        <time>2022-05-27T14:50:06Z</time>
      </trkpt>
      <trkpt lat="48.34404" lon="-4.74448">
        <ele>45.1</ele>
        <time>2022-05-27T14:50:08Z</time>
      </trkpt>
      <trkpt lat="48.3441" lon="-4.74407">
        <ele>45.5</ele>
        <time>2022-05-27T14:50:12Z</time>
      </trkpt>
      <trkpt lat="48.34414" lon="-4.74377">
        <ele>45.3</ele>
        <time>2022-05-27T14:50:15Z</time>
      </trkpt>
      <trkpt lat="48.34422" lon="-4.74302">
        <ele>45</ele>
        <time>2022-05-27T14:50:22Z</time>
      </trkpt>
      <trkpt lat="48.34435" lon="-4.74227">
        <ele>44.7</ele>
        <time>2022-05-27T14:50:29Z</time>
      </trkpt>
      <trkpt lat="48.34452" lon="-4.74163">
        <ele>44.4</ele>
        <time>2022-05-27T14:50:35Z</time>
      </trkpt>
      <trkpt lat="48.34467" lon="-4.74108">
        <ele>44.2</ele>
        <time>2022-05-27T14:50:40Z</time>
      </trkpt>
      <trkpt lat="48.3448" lon="-4.74034">
        <ele>43.9</ele>
        <time>2022-05-27T14:50:46Z</time>
      </trkpt>
      <trkpt lat="48.34484" lon="-4.74009">
        <ele>43.8</ele>
        <time>2022-05-27T14:50:48Z</time>
      </trkpt>
      <trkpt lat="48.34491" lon="-4.73959">
        <ele>43.3</ele>
        <time>2022-05-27T14:50:52Z</time>
      </trkpt>
      <trkpt lat="48.34498" lon="-4.73881">
        <ele>42.5</ele>
        <time>2022-05-27T14:50:58Z</time>
      </trkpt>
      <trkpt lat="48.34502" lon="-4.73856">
        <ele>42.2</ele>
        <time>2022-05-27T14:51:00Z</time>
      </trkpt>
      <trkpt lat="48.34509" lon="-4.73807">
        <ele>41.5</ele>
        <time>2022-05-27T14:51:04Z</time>
      </trkpt>
      <trkpt lat="48.34515" lon="-4.73782">
        <ele>41.2</ele>
        <time>2022-05-27T14:51:06Z</time>
      </trkpt>
      <trkpt lat="48.3454" lon="-4.73711">
        <ele>41.2</ele>
        <time>2022-05-27T14:51:12Z</time>
      </trkpt>
      <trkpt lat="48.34562" lon="-4.73642">
        <ele>41.7</ele>
        <time>2022-05-27T14:51:18Z</time>
      </trkpt>
      <trkpt lat="48.34585" lon="-4.73571">
        <ele>42.2</ele>
        <time>2022-05-27T14:51:24Z</time>
      </trkpt>
      <trkpt lat="48.34605" lon="-4.73508">
        <ele>42.6</ele>
        <time>2022-05-27T14:51:30Z</time>
      </trkpt>
      <trkpt lat="48.34616" lon="-4.73467">
        <ele>43</ele>
        <time>2022-05-27T14:51:34Z</time>
      </trkpt>
      <trkpt lat="48.3462" lon="-4.73444">
        <ele>43.1</ele>
        <time>2022-05-27T14:51:36Z</time>
      </trkpt>
      <trkpt lat="48.34622" lon="-4.73433">
        <ele>43.2</ele>
        <time>2022-05-27T14:51:37Z</time>
      </trkpt>
      <trkpt lat="48.34643" lon="-4.73367">
        <ele>43.7</ele>
        <time>2022-05-27T14:51:44Z</time>
      </trkpt>
      <trkpt lat="48.34653" lon="-4.73324">
        <ele>43.9</ele>
        <time>2022-05-27T14:51:48Z</time>
      </trkpt>
      <trkpt lat="48.34658" lon="-4.73302">
        <ele>43.6</ele>
        <time>2022-05-27T14:51:50Z</time>
      </trkpt>
      <trkpt lat="48.34674" lon="-4.73238">
        <ele>42.9</ele>
        <time>2022-05-27T14:51:56Z</time>
      </trkpt>
      <trkpt lat="48.34691" lon="-4.73171">
        <ele>42.1</ele>
        <time>2022-05-27T14:52:02Z</time>
      </trkpt>
      <trkpt lat="48.34694" lon="-4.73096">
        <ele>41.4</ele>
        <time>2022-05-27T14:52:08Z</time>
      </trkpt>
      <trkpt lat="48.34703" lon="-4.73037">
        <ele>40.7</ele>
        <time>2022-05-27T14:52:13Z</time>
      </trkpt>
      <trkpt lat="48.34727" lon="-4.72976">
        <ele>40.1</ele>
        <time>2022-05-27T14:52:18Z</time>
      </trkpt>
      <trkpt lat="48.34751" lon="-4.72926">
        <ele>39.6</ele>
        <time>2022-05-27T14:52:22Z</time>
      </trkpt>
      <trkpt lat="48.34756" lon="-4.72914">
        <ele>39.4</ele>
        <time>2022-05-27T14:52:23Z</time>
      </trkpt>
      <trkpt lat="48.34778" lon="-4.72848">
        <ele>38.5</ele>
        <time>2022-05-27T14:52:28Z</time>
      </trkpt>
      <trkpt lat="48.34794" lon="-4.72775">
        <ele>37.6</ele>
        <time>2022-05-27T14:52:34Z</time>
      </trkpt>
      <trkpt lat="48.34797" lon="-4.72765">
        <ele>37.9</ele>
        <time>2022-05-27T14:52:35Z</time>
      </trkpt>
      <trkpt lat="48.3481" lon="-4.72718">
        <ele>39.1</ele>
        <time>2022-05-27T14:52:40Z</time>
      </trkpt>
      <trkpt lat="48.34816" lon="-4.72699">
        <ele>39.6</ele>
        <time>2022-05-27T14:52:42Z</time>
      </trkpt>
      <trkpt lat="48.34829" lon="-4.72666">
        <ele>40.6</ele>
        <time>2022-05-27T14:52:46Z</time>
      </trkpt>
      <trkpt lat="48.34861" lon="-4.72627">
        <ele>41.5</ele>
        <time>2022-05-27T14:52:52Z</time>
      </trkpt>
      <trkpt lat="48.34866" lon="-4.72621">
        <ele>41.6</ele>
        <time>2022-05-27T14:52:53Z</time>
      </trkpt>
      <trkpt lat="48.34892" lon="-4.7259">
        <ele>42.1</ele>
        <time>2022-05-27T14:52:58Z</time>
      </trkpt>
      <trkpt lat="48.34902" lon="-4.72578">
        <ele>42.4</ele>
        <time>2022-05-27T14:53:00Z</time>
      </trkpt>
      <trkpt lat="48.34922" lon="-4.72554">
        <ele>43</ele>
        <time>2022-05-27T14:53:04Z</time>
      </trkpt>
      <trkpt lat="48.34942" lon="-4.72531">
        <ele>43.5</ele>
        <time>2022-05-27T14:53:08Z</time>
      </trkpt>
      <trkpt lat="48.34977" lon="-4.72479">
        <ele>44.5</ele>
        <time>2022-05-27T14:53:16Z</time>
      </trkpt>
      <trkpt lat="48.35004" lon="-4.72439">
        <ele>45.3</ele>
        <time>2022-05-27T14:53:22Z</time>
      </trkpt>
      <trkpt lat="48.35012" lon="-4.72425">
        <ele>45.5</ele>
        <time>2022-05-27T14:53:24Z</time>
      </trkpt>
      <trkpt lat="48.35037" lon="-4.72368">
        <ele>46.4</ele>
        <time>2022-05-27T14:53:31Z</time>
      </trkpt>
      <trkpt lat="48.35048" lon="-4.72344">
        <ele>46.8</ele>
        <time>2022-05-27T14:53:34Z</time>
      </trkpt>
      <trkpt lat="48.35063" lon="-4.72311">
        <ele>47.4</ele>
        <time>2022-05-27T14:53:38Z</time>
      </trkpt>
      <trkpt lat="48.35071" lon="-4.72295">
        <ele>47.6</ele>
        <time>2022-05-27T14:53:40Z</time>
      </trkpt>
      <trkpt lat="48.3509" lon="-4.72255">
        <ele>47.8</ele>
        <time>2022-05-27T14:53:45Z</time>
      </trkpt>
      <trkpt lat="48.35122" lon="-4.72197">
        <ele>48.1</ele>
        <time>2022-05-27T14:53:52Z</time>
      </trkpt>
      <trkpt lat="48.35152" lon="-4.72148">
        <ele>48.3</ele>
        <time>2022-05-27T14:53:58Z</time>
      </trkpt>
      <trkpt lat="48.35188" lon="-4.72092">
        <ele>48.5</ele>
        <time>2022-05-27T14:54:05Z</time>
      </trkpt>
      <trkpt lat="48.35223" lon="-4.72036">
        <ele>48.8</ele>
        <time>2022-05-27T14:54:12Z</time>
      </trkpt>
      <trkpt lat="48.35256" lon="-4.71977">
        <ele>49</ele>
        <time>2022-05-27T14:54:19Z</time>
      </trkpt>
      <trkpt lat="48.35283" lon="-4.71922">
        <ele>49.3</ele>
        <time>2022-05-27T14:54:26Z</time>
      </trkpt>
      <trkpt lat="48.35295" lon="-4.71901">
        <ele>49.4</ele>
        <time>2022-05-27T14:54:29Z</time>
      </trkpt>
      <trkpt lat="48.35303" lon="-4.71892">
        <ele>49.4</ele>
        <time>2022-05-27T14:54:31Z</time>
      </trkpt>
      <trkpt lat="48.35315" lon="-4.71871">
        <ele>49.7</ele>
        <time>2022-05-27T14:54:38Z</time>
      </trkpt>
      <trkpt lat="48.35304" lon="-4.71824">
        <ele>49.9</ele>
        <time>2022-05-27T14:54:45Z</time>
      </trkpt>
      <trkpt lat="48.3532" lon="-4.71796">
        <ele>50.1</ele>
        <time>2022-05-27T14:54:50Z</time>
      </trkpt>
      <trkpt lat="48.35325" lon="-4.71789">
        <ele>50.2</ele>
        <time>2022-05-27T14:54:51Z</time>
      </trkpt>
      <trkpt lat="48.35333" lon="-4.7174">
        <ele>50.4</ele>
        <time>2022-05-27T14:54:57Z</time>
      </trkpt>
      <trkpt lat="48.35333" lon="-4.71731">
        <ele>50.4</ele>
        <time>2022-05-27T14:54:58Z</time>
      </trkpt>
      <trkpt lat="48.35342" lon="-4.7169">
        <ele>50.6</ele>
        <time>2022-05-27T14:55:03Z</time>
      </trkpt>
      <trkpt lat="48.35357" lon="-4.7165">
        <ele>50.8</ele>
        <time>2022-05-27T14:55:08Z</time>
      </trkpt>
      <trkpt lat="48.35365" lon="-4.71627">
        <ele>50.8</ele>
        <time>2022-05-27T14:55:11Z</time>
      </trkpt>
      <trkpt lat="48.35389" lon="-4.71564">
        <ele>50.9</ele>
        <time>2022-05-27T14:55:19Z</time>
      </trkpt>
      <trkpt lat="48.35412" lon="-4.71503">
        <ele>51.1</ele>
        <time>2022-05-27T14:55:26Z</time>
      </trkpt>
      <trkpt lat="48.35436" lon="-4.71441">
        <ele>51.2</ele>
        <time>2022-05-27T14:55:33Z</time>
      </trkpt>
      <trkpt lat="48.35461" lon="-4.71379">
        <ele>51.3</ele>
        <time>2022-05-27T14:55:40Z</time>
      </trkpt>
      <trkpt lat="48.35492" lon="-4.71322">
        <ele>51.4</ele>
        <time>2022-05-27T14:55:47Z</time>
      </trkpt>
      <trkpt lat="48.35525" lon="-4.71263">
        <ele>51.5</ele>
        <time>2022-05-27T14:55:54Z</time>
      </trkpt>
      <trkpt lat="48.35559" lon="-4.71207">
        <ele>51.7</ele>
        <time>2022-05-27T14:56:01Z</time>
      </trkpt>
      <trkpt lat="48.35593" lon="-4.71153">
        <ele>51.8</ele>
        <time>2022-05-27T14:56:08Z</time>
      </trkpt>
      <trkpt lat="48.35626" lon="-4.71098">
        <ele>51.9</ele>
        <time>2022-05-27T14:56:15Z</time>
      </trkpt>
      <trkpt lat="48.35657" lon="-4.71047">
        <ele>52</ele>
        <time>2022-05-27T14:56:21Z</time>
      </trkpt>
      <trkpt lat="48.35689" lon="-4.70995">
        <ele>52.1</ele>
        <time>2022-05-27T14:56:27Z</time>
      </trkpt>
      <trkpt lat="48.3572" lon="-4.70944">
        <ele>52.2</ele>
        <time>2022-05-27T14:56:33Z</time>
      </trkpt>
      <trkpt lat="48.35751" lon="-4.70892">
        <ele>52.3</ele>
        <time>2022-05-27T14:56:39Z</time>
      </trkpt>
      <trkpt lat="48.35782" lon="-4.70842">
        <ele>52.4</ele>
        <time>2022-05-27T14:56:45Z</time>
      </trkpt>
      <trkpt lat="48.35814" lon="-4.7079">
        <ele>52.5</ele>
        <time>2022-05-27T14:56:51Z</time>
      </trkpt>
      <trkpt lat="48.35846" lon="-4.7074">
        <ele>52.6</ele>
        <time>2022-05-27T14:56:57Z</time>
      </trkpt>
      <trkpt lat="48.35883" lon="-4.70688">
        <ele>52.7</ele>
        <time>2022-05-27T14:57:04Z</time>
      </trkpt>
      <trkpt lat="48.35924" lon="-4.7064">
        <ele>52.8</ele>
        <time>2022-05-27T14:57:11Z</time>
      </trkpt>
      <trkpt lat="48.35965" lon="-4.70593">
        <ele>53</ele>
        <time>2022-05-27T14:57:18Z</time>
      </trkpt>
      <trkpt lat="48.36005" lon="-4.70546">
        <ele>53.1</ele>
        <time>2022-05-27T14:57:25Z</time>
      </trkpt>
      <trkpt lat="48.36045" lon="-4.705">
        <ele>53.2</ele>
        <time>2022-05-27T14:57:32Z</time>
      </trkpt>
      <trkpt lat="48.36079" lon="-4.70449">
        <ele>53.3</ele>
        <time>2022-05-27T14:57:39Z</time>
      </trkpt>
      <trkpt lat="48.36103" lon="-4.7039">
        <ele>53.5</ele>
        <time>2022-05-27T14:57:49Z</time>
      </trkpt>
      <trkpt lat="48.3611" lon="-4.70365">
        <ele>53.5</ele>
        <time>2022-05-27T14:57:53Z</time>
      </trkpt>
      <trkpt lat="48.36128" lon="-4.70338">
        <ele>53.6</ele>
        <time>2022-05-27T14:57:57Z</time>
      </trkpt>
      <trkpt lat="48.36152" lon="-4.70272">
        <ele>53.7</ele>
        <time>2022-05-27T14:58:04Z</time>
      </trkpt>
      <trkpt lat="48.36163" lon="-4.70242">
        <ele>53.8</ele>
        <time>2022-05-27T14:58:07Z</time>
      </trkpt>
      <trkpt lat="48.36174" lon="-4.70213">
        <ele>54</ele>
        <time>2022-05-27T14:58:10Z</time>
      </trkpt>
      <trkpt lat="48.36201" lon="-4.70155">
        <ele>54.5</ele>
        <time>2022-05-27T14:58:16Z</time>
      </trkpt>
      <trkpt lat="48.3623" lon="-4.70099">
        <ele>55</ele>
        <time>2022-05-27T14:58:22Z</time>
      </trkpt>
      <trkpt lat="48.36259" lon="-4.70041">
        <ele>55.5</ele>
        <time>2022-05-27T14:58:28Z</time>
      </trkpt>
      <trkpt lat="48.36288" lon="-4.69984">
        <ele>55.9</ele>
        <time>2022-05-27T14:58:34Z</time>
      </trkpt>
      <trkpt lat="48.36317" lon="-4.69928">
        <ele>56.4</ele>
        <time>2022-05-27T14:58:40Z</time>
      </trkpt>
      <trkpt lat="48.36326" lon="-4.6991">
        <ele>56.6</ele>
        <time>2022-05-27T14:58:42Z</time>
      </trkpt>
      <trkpt lat="48.36344" lon="-4.69874">
        <ele>57.1</ele>
        <time>2022-05-27T14:58:46Z</time>
      </trkpt>
      <trkpt lat="48.36374" lon="-4.69814">
        <ele>58.1</ele>
        <time>2022-05-27T14:58:53Z</time>
      </trkpt>
      <trkpt lat="48.36403" lon="-4.69757">
        <ele>59</ele>
        <time>2022-05-27T14:59:00Z</time>
      </trkpt>
      <trkpt lat="48.36434" lon="-4.69696">
        <ele>59.6</ele>
        <time>2022-05-27T14:59:08Z</time>
      </trkpt>
      <trkpt lat="48.36457" lon="-4.69636">
        <ele>60.1</ele>
        <time>2022-05-27T14:59:15Z</time>
      </trkpt>
      <trkpt lat="48.36471" lon="-4.69571">
        <ele>60.7</ele>
        <time>2022-05-27T14:59:22Z</time>
      </trkpt>
      <trkpt lat="48.3648" lon="-4.6953">
        <ele>61.1</ele>
        <time>2022-05-27T14:59:27Z</time>
      </trkpt>
      <trkpt lat="48.36508" lon="-4.69509">
        <ele>61.4</ele>
        <time>2022-05-27T14:59:32Z</time>
      </trkpt>
      <trkpt lat="48.36533" lon="-4.69447">
        <ele>62</ele>
        <time>2022-05-27T14:59:39Z</time>
      </trkpt>
      <trkpt lat="48.36544" lon="-4.69423">
        <ele>62.2</ele>
        <time>2022-05-27T14:59:42Z</time>
      </trkpt>
      <trkpt lat="48.36559" lon="-4.6939">
        <ele>62.5</ele>
        <time>2022-05-27T14:59:46Z</time>
      </trkpt>
      <trkpt lat="48.36584" lon="-4.69333">
        <ele>62.9</ele>
        <time>2022-05-27T14:59:53Z</time>
      </trkpt>
      <trkpt lat="48.3661" lon="-4.69271">
        <ele>63.3</ele>
        <time>2022-05-27T15:00:00Z</time>
      </trkpt>
      <trkpt lat="48.36637" lon="-4.6921">
        <ele>63.8</ele>
        <time>2022-05-27T15:00:07Z</time>
      </trkpt>
      <trkpt lat="48.36666" lon="-4.69145">
        <ele>64.2</ele>
        <time>2022-05-27T15:00:14Z</time>
      </trkpt>
      <trkpt lat="48.36693" lon="-4.69082">
        <ele>64.7</ele>
        <time>2022-05-27T15:00:21Z</time>
      </trkpt>
      <trkpt lat="48.36721" lon="-4.69019">
        <ele>65.1</ele>
        <time>2022-05-27T15:00:28Z</time>
      </trkpt>
      <trkpt lat="48.36738" lon="-4.68978">
        <ele>65.4</ele>
        <time>2022-05-27T15:00:33Z</time>
      </trkpt>
      <trkpt lat="48.36749" lon="-4.68954">
        <ele>65.6</ele>
        <time>2022-05-27T15:00:36Z</time>
      </trkpt>
      <trkpt lat="48.36778" lon="-4.68901">
        <ele>66.1</ele>
        <time>2022-05-27T15:00:43Z</time>
      </trkpt>
      <trkpt lat="48.36808" lon="-4.68851">
        <ele>66.5</ele>
        <time>2022-05-27T15:00:50Z</time>
      </trkpt>
      <trkpt lat="48.36838" lon="-4.68801">
        <ele>66.9</ele>
        <time>2022-05-27T15:00:57Z</time>
      </trkpt>
      <trkpt lat="48.36842" lon="-4.68794">
        <ele>67</ele>
        <time>2022-05-27T15:00:58Z</time>
      </trkpt>
      <trkpt lat="48.36874" lon="-4.68743">
        <ele>67.4</ele>
        <time>2022-05-27T15:01:05Z</time>
      </trkpt>
      <trkpt lat="48.36907" lon="-4.68691">
        <ele>67.9</ele>
        <time>2022-05-27T15:01:12Z</time>
      </trkpt>
      <trkpt lat="48.36942" lon="-4.68635">
        <ele>68.4</ele>
        <time>2022-05-27T15:01:20Z</time>
      </trkpt>
      <trkpt lat="48.36975" lon="-4.68585">
        <ele>68.8</ele>
        <time>2022-05-27T15:01:27Z</time>
      </trkpt>
      <trkpt lat="48.37011" lon="-4.68533">
        <ele>69.6</ele>
        <time>2022-05-27T15:01:35Z</time>
      </trkpt>
      <trkpt lat="48.37047" lon="-4.6848">
        <ele>70.4</ele>
        <time>2022-05-27T15:01:43Z</time>
      </trkpt>
      <trkpt lat="48.3708" lon="-4.68433">
        <ele>71</ele>
        <time>2022-05-27T15:01:50Z</time>
      </trkpt>
      <trkpt lat="48.37116" lon="-4.68383">
        <ele>71.8</ele>
        <time>2022-05-27T15:01:58Z</time>
      </trkpt>
      <trkpt lat="48.37139" lon="-4.6835">
        <ele>72.3</ele>
        <time>2022-05-27T15:02:03Z</time>
      </trkpt>
      <trkpt lat="48.37148" lon="-4.68336">
        <ele>72.6</ele>
        <time>2022-05-27T15:02:05Z</time>
      </trkpt>
      <trkpt lat="48.37184" lon="-4.68285">
        <ele>73.6</ele>
        <time>2022-05-27T15:02:13Z</time>
      </trkpt>
      <trkpt lat="48.3722" lon="-4.68233">
        <ele>74.6</ele>
        <time>2022-05-27T15:02:21Z</time>
      </trkpt>
      <trkpt lat="48.37241" lon="-4.68203">
        <ele>75.3</ele>
        <time>2022-05-27T15:02:26Z</time>
      </trkpt>
      <trkpt lat="48.37254" lon="-4.68185">
        <ele>75.7</ele>
        <time>2022-05-27T15:02:29Z</time>
      </trkpt>
      <trkpt lat="48.37286" lon="-4.6814">
        <ele>76.6</ele>
        <time>2022-05-27T15:02:36Z</time>
      </trkpt>
      <trkpt lat="48.37291" lon="-4.68134">
        <ele>76.7</ele>
        <time>2022-05-27T15:02:37Z</time>
      </trkpt>
      <trkpt lat="48.37328" lon="-4.68093">
        <ele>77.4</ele>
        <time>2022-05-27T15:02:44Z</time>
      </trkpt>
      <trkpt lat="48.37339" lon="-4.68082">
        <ele>77.6</ele>
        <time>2022-05-27T15:02:46Z</time>
      </trkpt>
      <trkpt lat="48.37367" lon="-4.68054">
        <ele>78</ele>
        <time>2022-05-27T15:02:51Z</time>
      </trkpt>
      <trkpt lat="48.37408" lon="-4.68017">
        <ele>78.6</ele>
        <time>2022-05-27T15:02:58Z</time>
      </trkpt>
      <trkpt lat="48.37449" lon="-4.67985">
        <ele>79.2</ele>
        <time>2022-05-27T15:03:05Z</time>
      </trkpt>
      <trkpt lat="48.37496" lon="-4.67957">
        <ele>79.9</ele>
        <time>2022-05-27T15:03:13Z</time>
      </trkpt>
      <trkpt lat="48.37544" lon="-4.67932">
        <ele>80.6</ele>
        <time>2022-05-27T15:03:21Z</time>
      </trkpt>
      <trkpt lat="48.37585" lon="-4.67912">
        <ele>81.3</ele>
        <time>2022-05-27T15:03:28Z</time>
      </trkpt>
      <trkpt lat="48.3759" lon="-4.6791">
        <ele>81.4</ele>
        <time>2022-05-27T15:03:29Z</time>
      </trkpt>
      <trkpt lat="48.37612" lon="-4.67899">
        <ele>82.1</ele>
        <time>2022-05-27T15:03:34Z</time>
      </trkpt>
      <trkpt lat="48.37633" lon="-4.67887">
        <ele>82.3</ele>
        <time>2022-05-27T15:03:39Z</time>
      </trkpt>
      <trkpt lat="48.37636" lon="-4.67882">
        <ele>82.3</ele>
        <time>2022-05-27T15:03:40Z</time>
      </trkpt>
      <trkpt lat="48.3764" lon="-4.67871">
        <ele>82.1</ele>
        <time>2022-05-27T15:03:42Z</time>
      </trkpt>
      <trkpt lat="48.37635" lon="-4.67803">
        <ele>81.3</ele>
        <time>2022-05-27T15:03:51Z</time>
      </trkpt>
      <trkpt lat="48.3763" lon="-4.67732">
        <ele>80.6</ele>
        <time>2022-05-27T15:03:59Z</time>
      </trkpt>
      <trkpt lat="48.37625" lon="-4.67665">
        <ele>79.9</ele>
        <time>2022-05-27T15:04:06Z</time>
      </trkpt>
      <trkpt lat="48.37622" lon="-4.67632">
        <ele>79.4</ele>
        <time>2022-05-27T15:04:10Z</time>
      </trkpt>
      <trkpt lat="48.37619" lon="-4.67608">
        <ele>77.3</ele>
        <time>2022-05-27T15:04:13Z</time>
      </trkpt>
      <trkpt lat="48.37612" lon="-4.67598">
        <ele>75.9</ele>
        <time>2022-05-27T15:04:15Z</time>
      </trkpt>
      <trkpt lat="48.37607" lon="-4.67598">
        <ele>75.5</ele>
        <time>2022-05-27T15:04:16Z</time>
      </trkpt>
      <trkpt lat="48.37592" lon="-4.67595">
        <ele>75.4</ele>
        <time>2022-05-27T15:04:19Z</time>
      </trkpt>
      <trkpt lat="48.37554" lon="-4.67549">
        <ele>75.3</ele>
        <time>2022-05-27T15:04:27Z</time>
      </trkpt>
      <trkpt lat="48.3755" lon="-4.67542">
        <ele>75.4</ele>
        <time>2022-05-27T15:04:28Z</time>
      </trkpt>
      <trkpt lat="48.37532" lon="-4.67506">
        <ele>76.1</ele>
        <time>2022-05-27T15:04:33Z</time>
      </trkpt>
      <trkpt lat="48.37526" lon="-4.6749">
        <ele>75.9</ele>
        <time>2022-05-27T15:04:35Z</time>
      </trkpt>
      <trkpt lat="48.37519" lon="-4.6746">
        <ele>75.5</ele>
        <time>2022-05-27T15:04:38Z</time>
      </trkpt>
      <trkpt lat="48.37513" lon="-4.6743">
        <ele>75.8</ele>
        <time>2022-05-27T15:04:41Z</time>
      </trkpt>
      <trkpt lat="48.37508" lon="-4.67357">
        <ele>76.6</ele>
        <time>2022-05-27T15:04:49Z</time>
      </trkpt>
      <trkpt lat="48.375" lon="-4.67311">
        <ele>77.2</ele>
        <time>2022-05-27T15:04:55Z</time>
      </trkpt>
      <trkpt lat="48.37478" lon="-4.67266">
        <ele>78</ele>
        <time>2022-05-27T15:05:02Z</time>
      </trkpt>
      <trkpt lat="48.37474" lon="-4.67241">
        <ele>78.3</ele>
        <time>2022-05-27T15:05:05Z</time>
      </trkpt>
      <trkpt lat="48.37481" lon="-4.67193">
        <ele>79.1</ele>
        <time>2022-05-27T15:05:11Z</time>
      </trkpt>
      <trkpt lat="48.37484" lon="-4.67169">
        <ele>79.6</ele>
        <time>2022-05-27T15:05:14Z</time>
      </trkpt>
      <trkpt lat="48.37499" lon="-4.67099">
        <ele>81</ele>
        <time>2022-05-27T15:05:23Z</time>
      </trkpt>
      <trkpt lat="48.3751" lon="-4.67054">
        <ele>82</ele>
        <time>2022-05-27T15:05:29Z</time>
      </trkpt>
      <trkpt lat="48.37515" lon="-4.67031">
        <ele>82.4</ele>
        <time>2022-05-27T15:05:32Z</time>
      </trkpt>
      <trkpt lat="48.37534" lon="-4.66967">
        <ele>83.8</ele>
        <time>2022-05-27T15:05:41Z</time>
      </trkpt>
      <trkpt lat="48.37556" lon="-4.66927">
        <ele>84.6</ele>
        <time>2022-05-27T15:05:47Z</time>
      </trkpt>
      <trkpt lat="48.37563" lon="-4.66913">
        <ele>84.5</ele>
        <time>2022-05-27T15:05:49Z</time>
      </trkpt>
      <trkpt lat="48.37593" lon="-4.66858">
        <ele>84.2</ele>
        <time>2022-05-27T15:05:57Z</time>
      </trkpt>
      <trkpt lat="48.37609" lon="-4.66794">
        <ele>83.9</ele>
        <time>2022-05-27T15:06:04Z</time>
      </trkpt>
      <trkpt lat="48.37627" lon="-4.66729">
        <ele>83.7</ele>
        <time>2022-05-27T15:06:11Z</time>
      </trkpt>
      <trkpt lat="48.37655" lon="-4.66665">
        <ele>83.4</ele>
        <time>2022-05-27T15:06:18Z</time>
      </trkpt>
      <trkpt lat="48.37686" lon="-4.66616">
        <ele>83.2</ele>
        <time>2022-05-27T15:06:24Z</time>
      </trkpt>
      <trkpt lat="48.37699" lon="-4.6659">
        <ele>83.1</ele>
        <time>2022-05-27T15:06:27Z</time>
      </trkpt>
      <trkpt lat="48.37701" lon="-4.66578">
        <ele>83.1</ele>
        <time>2022-05-27T15:06:28Z</time>
      </trkpt>
      <trkpt lat="48.37731" lon="-4.66528">
        <ele>82.8</ele>
        <time>2022-05-27T15:06:35Z</time>
      </trkpt>
      <trkpt lat="48.37741" lon="-4.66505">
        <ele>82.7</ele>
        <time>2022-05-27T15:06:38Z</time>
      </trkpt>
      <trkpt lat="48.37751" lon="-4.66487">
        <ele>82.6</ele>
        <time>2022-05-27T15:06:41Z</time>
      </trkpt>
      <trkpt lat="48.37735" lon="-4.66413">
        <ele>82.3</ele>
        <time>2022-05-27T15:06:48Z</time>
      </trkpt>
      <trkpt lat="48.37716" lon="-4.66344">
        <ele>82</ele>
        <time>2022-05-27T15:06:55Z</time>
      </trkpt>
      <trkpt lat="48.37699" lon="-4.66281">
        <ele>81.8</ele>
        <time>2022-05-27T15:07:01Z</time>
      </trkpt>
      <trkpt lat="48.37682" lon="-4.66209">
        <ele>81.6</ele>
        <time>2022-05-27T15:07:08Z</time>
      </trkpt>
      <trkpt lat="48.37678" lon="-4.66187">
        <ele>81.4</ele>
        <time>2022-05-27T15:07:10Z</time>
      </trkpt>
      <trkpt lat="48.37667" lon="-4.66132">
        <ele>80.5</ele>
        <time>2022-05-27T15:07:15Z</time>
      </trkpt>
      <trkpt lat="48.37665" lon="-4.6612">
        <ele>80.2</ele>
        <time>2022-05-27T15:07:16Z</time>
      </trkpt>
      <trkpt lat="48.37659" lon="-4.66097">
        <ele>79.6</ele>
        <time>2022-05-27T15:07:18Z</time>
      </trkpt>
      <trkpt lat="48.37639" lon="-4.66052">
        <ele>78.3</ele>
        <time>2022-05-27T15:07:22Z</time>
      </trkpt>
      <trkpt lat="48.37633" lon="-4.6604">
        <ele>77.7</ele>
        <time>2022-05-27T15:07:23Z</time>
      </trkpt>
      <trkpt lat="48.37603" lon="-4.65969">
        <ele>74.2</ele>
        <time>2022-05-27T15:07:28Z</time>
      </trkpt>
      <trkpt lat="48.37595" lon="-4.65955">
        <ele>73.1</ele>
        <time>2022-05-27T15:07:29Z</time>
      </trkpt>
      <trkpt lat="48.37555" lon="-4.65907">
        <ele>68.8</ele>
        <time>2022-05-27T15:07:33Z</time>
      </trkpt>
      <trkpt lat="48.37545" lon="-4.65899">
        <ele>67.8</ele>
        <time>2022-05-27T15:07:34Z</time>
      </trkpt>
      <trkpt lat="48.37513" lon="-4.65878">
        <ele>65.7</ele>
        <time>2022-05-27T15:07:37Z</time>
      </trkpt>
      <trkpt lat="48.37495" lon="-4.65869">
        <ele>64.3</ele>
        <time>2022-05-27T15:07:39Z</time>
      </trkpt>
      <trkpt lat="48.37489" lon="-4.65863">
        <ele>63.8</ele>
        <time>2022-05-27T15:07:40Z</time>
      </trkpt>
      <trkpt lat="48.37462" lon="-4.65838">
        <ele>63</ele>
        <time>2022-05-27T15:07:45Z</time>
      </trkpt>
      <trkpt lat="48.37461" lon="-4.65835">
        <ele>62.9</ele>
        <time>2022-05-27T15:07:46Z</time>
      </trkpt>
      <trkpt lat="48.37481" lon="-4.65794">
        <ele>62.1</ele>
        <time>2022-05-27T15:07:52Z</time>
      </trkpt>
      <trkpt lat="48.3749" lon="-4.65774">
        <ele>62.1</ele>
        <time>2022-05-27T15:07:55Z</time>
      </trkpt>
      <trkpt lat="48.37499" lon="-4.65752">
        <ele>62.2</ele>
        <time>2022-05-27T15:07:58Z</time>
      </trkpt>
      <trkpt lat="48.37504" lon="-4.65737">
        <ele>62.5</ele>
        <time>2022-05-27T15:08:00Z</time>
      </trkpt>
      <trkpt lat="48.37523" lon="-4.65673">
        <ele>64.1</ele>
        <time>2022-05-27T15:08:09Z</time>
      </trkpt>
      <trkpt lat="48.37524" lon="-4.65665">
        <ele>64.3</ele>
        <time>2022-05-27T15:08:10Z</time>
      </trkpt>
      <trkpt lat="48.3753" lon="-4.65599">
        <ele>65</ele>
        <time>2022-05-27T15:08:18Z</time>
      </trkpt>
      <trkpt lat="48.3753" lon="-4.65561">
        <ele>65.3</ele>
        <time>2022-05-27T15:08:22Z</time>
      </trkpt>
      <trkpt lat="48.3753" lon="-4.65522">
        <ele>64.7</ele>
        <time>2022-05-27T15:08:26Z</time>
      </trkpt>
      <trkpt lat="48.37523" lon="-4.65446">
        <ele>63.8</ele>
        <time>2022-05-27T15:08:33Z</time>
      </trkpt>
      <trkpt lat="48.37514" lon="-4.65376">
        <ele>63</ele>
        <time>2022-05-27T15:08:39Z</time>
      </trkpt>
      <trkpt lat="48.37512" lon="-4.65364">
        <ele>62.9</ele>
        <time>2022-05-27T15:08:40Z</time>
      </trkpt>
      <trkpt lat="48.37505" lon="-4.65301">
        <ele>61.6</ele>
        <time>2022-05-27T15:08:45Z</time>
      </trkpt>
      <trkpt lat="48.37501" lon="-4.6525">
        <ele>60.5</ele>
        <time>2022-05-27T15:08:49Z</time>
      </trkpt>
      <trkpt lat="48.37499" lon="-4.65237">
        <ele>60.3</ele>
        <time>2022-05-27T15:08:50Z</time>
      </trkpt>
      <trkpt lat="48.3749" lon="-4.65172">
        <ele>59.6</ele>
        <time>2022-05-27T15:08:55Z</time>
      </trkpt>
      <trkpt lat="48.37485" lon="-4.65125">
        <ele>59</ele>
        <time>2022-05-27T15:08:59Z</time>
      </trkpt>
      <trkpt lat="48.37483" lon="-4.65114">
        <ele>58.9</ele>
        <time>2022-05-27T15:09:00Z</time>
      </trkpt>
      <trkpt lat="48.37481" lon="-4.65104">
        <ele>58.9</ele>
        <time>2022-05-27T15:09:01Z</time>
      </trkpt>
      <trkpt lat="48.37474" lon="-4.65062">
        <ele>58.9</ele>
        <time>2022-05-27T15:09:06Z</time>
      </trkpt>
      <trkpt lat="48.37467" lon="-4.65057">
        <ele>58.9</ele>
        <time>2022-05-27T15:09:07Z</time>
      </trkpt>
      <trkpt lat="48.37435" lon="-4.65004">
        <ele>58.7</ele>
        <time>2022-05-27T15:09:15Z</time>
      </trkpt>
      <trkpt lat="48.37403" lon="-4.64948">
        <ele>58.6</ele>
        <time>2022-05-27T15:09:23Z</time>
      </trkpt>
      <trkpt lat="48.37389" lon="-4.64919">
        <ele>58.4</ele>
        <time>2022-05-27T15:09:28Z</time>
      </trkpt>
      <trkpt lat="48.37403" lon="-4.64898">
        <ele>58.4</ele>
        <time>2022-05-27T15:09:30Z</time>
      </trkpt>
      <trkpt lat="48.37417" lon="-4.64893">
        <ele>58.3</ele>
        <time>2022-05-27T15:09:32Z</time>
      </trkpt>
      <trkpt lat="48.37421" lon="-4.64886">
        <ele>58.3</ele>
        <time>2022-05-27T15:09:33Z</time>
      </trkpt>
      <trkpt lat="48.3743" lon="-4.64814">
        <ele>58.2</ele>
        <time>2022-05-27T15:09:40Z</time>
      </trkpt>
      <trkpt lat="48.37438" lon="-4.64794">
        <ele>58.1</ele>
        <time>2022-05-27T15:09:42Z</time>
      </trkpt>
      <trkpt lat="48.37454" lon="-4.64755">
        <ele>57.7</ele>
        <time>2022-05-27T15:09:46Z</time>
      </trkpt>
      <trkpt lat="48.3746" lon="-4.64723">
        <ele>57.4</ele>
        <time>2022-05-27T15:09:49Z</time>
      </trkpt>
      <trkpt lat="48.37461" lon="-4.64702">
        <ele>57.2</ele>
        <time>2022-05-27T15:09:51Z</time>
      </trkpt>
      <trkpt lat="48.37468" lon="-4.64685">
        <ele>57.1</ele>
        <time>2022-05-27T15:09:53Z</time>
      </trkpt>
      <trkpt lat="48.3747" lon="-4.64682">
        <ele>57</ele>
        <time>2022-05-27T15:09:54Z</time>
      </trkpt>
      <trkpt lat="48.37485" lon="-4.6466">
        <ele>57.7</ele>
        <time>2022-05-27T15:10:02Z</time>
      </trkpt>
      <trkpt lat="48.3747" lon="-4.64648">
        <ele>57.8</ele>
        <time>2022-05-27T15:10:04Z</time>
      </trkpt>
      <trkpt lat="48.37458" lon="-4.64576">
        <ele>58.8</ele>
        <time>2022-05-27T15:10:16Z</time>
      </trkpt>
      <trkpt lat="48.37457" lon="-4.64569">
        <ele>58.9</ele>
        <time>2022-05-27T15:10:17Z</time>
      </trkpt>
      <trkpt lat="48.37446" lon="-4.64527">
        <ele>59.5</ele>
        <time>2022-05-27T15:10:24Z</time>
      </trkpt>
      <trkpt lat="48.37441" lon="-4.64516">
        <ele>59.8</ele>
        <time>2022-05-27T15:10:28Z</time>
      </trkpt>
      <trkpt lat="48.37447" lon="-4.64493">
        <ele>60.1</ele>
        <time>2022-05-27T15:10:34Z</time>
      </trkpt>
      <trkpt lat="48.37448" lon="-4.6449">
        <ele>60.2</ele>
        <time>2022-05-27T15:10:35Z</time>
      </trkpt>
      <trkpt lat="48.37455" lon="-4.64486">
        <ele>60.2</ele>
        <time>2022-05-27T15:10:36Z</time>
      </trkpt>
      <trkpt lat="48.37459" lon="-4.64481">
        <ele>60.1</ele>
        <time>2022-05-27T15:10:37Z</time>
      </trkpt>
      <trkpt lat="48.37466" lon="-4.64459">
        <ele>59.7</ele>
        <time>2022-05-27T15:10:40Z</time>
      </trkpt>
      <trkpt lat="48.37468" lon="-4.64391">
        <ele>58.7</ele>
        <time>2022-05-27T15:10:48Z</time>
      </trkpt>
      <trkpt lat="48.37466" lon="-4.64363">
        <ele>58.1</ele>
        <time>2022-05-27T15:10:51Z</time>
      </trkpt>
      <trkpt lat="48.37473" lon="-4.64346">
        <ele>57.7</ele>
        <time>2022-05-27T15:10:53Z</time>
      </trkpt>
      <trkpt lat="48.37485" lon="-4.64336">
        <ele>57.2</ele>
        <time>2022-05-27T15:10:55Z</time>
      </trkpt>
      <trkpt lat="48.37531" lon="-4.6432">
        <ele>55.8</ele>
        <time>2022-05-27T15:11:02Z</time>
      </trkpt>
      <trkpt lat="48.37537" lon="-4.64314">
        <ele>55.6</ele>
        <time>2022-05-27T15:11:03Z</time>
      </trkpt>
      <trkpt lat="48.37541" lon="-4.64306">
        <ele>55.4</ele>
        <time>2022-05-27T15:11:04Z</time>
      </trkpt>
      <trkpt lat="48.37567" lon="-4.64254">
        <ele>55</ele>
        <time>2022-05-27T15:11:10Z</time>
      </trkpt>
      <trkpt lat="48.37597" lon="-4.6421">
        <ele>54.6</ele>
        <time>2022-05-27T15:11:16Z</time>
      </trkpt>
      <trkpt lat="48.37602" lon="-4.64203">
        <ele>54.4</ele>
        <time>2022-05-27T15:11:17Z</time>
      </trkpt>
      <trkpt lat="48.37644" lon="-4.64162">
        <ele>53.3</ele>
        <time>2022-05-27T15:11:24Z</time>
      </trkpt>
      <trkpt lat="48.37668" lon="-4.64131">
        <ele>52.6</ele>
        <time>2022-05-27T15:11:28Z</time>
      </trkpt>
      <trkpt lat="48.37696" lon="-4.64072">
        <ele>51.8</ele>
        <time>2022-05-27T15:11:34Z</time>
      </trkpt>
      <trkpt lat="48.37723" lon="-4.64015">
        <ele>51</ele>
        <time>2022-05-27T15:11:40Z</time>
      </trkpt>
      <trkpt lat="48.37749" lon="-4.63959">
        <ele>50.7</ele>
        <time>2022-05-27T15:11:46Z</time>
      </trkpt>
      <trkpt lat="48.37775" lon="-4.63901">
        <ele>50.5</ele>
        <time>2022-05-27T15:11:52Z</time>
      </trkpt>
      <trkpt lat="48.37803" lon="-4.63844">
        <ele>50.2</ele>
        <time>2022-05-27T15:11:58Z</time>
      </trkpt>
      <trkpt lat="48.37831" lon="-4.63783">
        <ele>49.8</ele>
        <time>2022-05-27T15:12:05Z</time>
      </trkpt>
      <trkpt lat="48.37857" lon="-4.63723">
        <ele>49.5</ele>
        <time>2022-05-27T15:12:12Z</time>
      </trkpt>
      <trkpt lat="48.37884" lon="-4.63658">
        <ele>49.2</ele>
        <time>2022-05-27T15:12:19Z</time>
      </trkpt>
      <trkpt lat="48.37902" lon="-4.63586">
        <ele>48.8</ele>
        <time>2022-05-27T15:12:26Z</time>
      </trkpt>
      <trkpt lat="48.37913" lon="-4.6353">
        <ele>48.6</ele>
        <time>2022-05-27T15:12:31Z</time>
      </trkpt>
      <trkpt lat="48.37914" lon="-4.63495">
        <ele>48.5</ele>
        <time>2022-05-27T15:12:34Z</time>
      </trkpt>
      <trkpt lat="48.37907" lon="-4.63427">
        <ele>48.2</ele>
        <time>2022-05-27T15:12:40Z</time>
      </trkpt>
      <trkpt lat="48.37896" lon="-4.63363">
        <ele>47.9</ele>
        <time>2022-05-27T15:12:46Z</time>
      </trkpt>
      <trkpt lat="48.37873" lon="-4.63294">
        <ele>48.7</ele>
        <time>2022-05-27T15:12:53Z</time>
      </trkpt>
      <trkpt lat="48.37851" lon="-4.63234">
        <ele>49.4</ele>
        <time>2022-05-27T15:12:59Z</time>
      </trkpt>
      <trkpt lat="48.37826" lon="-4.63167">
        <ele>50.1</ele>
        <time>2022-05-27T15:13:06Z</time>
      </trkpt>
      <trkpt lat="48.378" lon="-4.63102">
        <ele>50.9</ele>
        <time>2022-05-27T15:13:13Z</time>
      </trkpt>
      <trkpt lat="48.37797" lon="-4.63092">
        <ele>51</ele>
        <time>2022-05-27T15:13:14Z</time>
      </trkpt>
      <trkpt lat="48.37779" lon="-4.63033">
        <ele>51.4</ele>
        <time>2022-05-27T15:13:20Z</time>
      </trkpt>
      <trkpt lat="48.37762" lon="-4.62961">
        <ele>51.1</ele>
        <time>2022-05-27T15:13:27Z</time>
      </trkpt>
      <trkpt lat="48.37755" lon="-4.62886">
        <ele>50.8</ele>
        <time>2022-05-27T15:13:34Z</time>
      </trkpt>
      <trkpt lat="48.37756" lon="-4.62817">
        <ele>50.6</ele>
        <time>2022-05-27T15:13:40Z</time>
      </trkpt>
      <trkpt lat="48.37769" lon="-4.62748">
        <ele>50.3</ele>
        <time>2022-05-27T15:13:46Z</time>
      </trkpt>
      <trkpt lat="48.37785" lon="-4.62706">
        <ele>50.2</ele>
        <time>2022-05-27T15:13:50Z</time>
      </trkpt>
      <trkpt lat="48.37793" lon="-4.62686">
        <ele>50</ele>
        <time>2022-05-27T15:13:52Z</time>
      </trkpt>
      <trkpt lat="48.37812" lon="-4.62652">
        <ele>49.8</ele>
        <time>2022-05-27T15:13:56Z</time>
      </trkpt>
      <trkpt lat="48.37826" lon="-4.62626">
        <ele>50.2</ele>
        <time>2022-05-27T15:13:59Z</time>
      </trkpt>
      <trkpt lat="48.37863" lon="-4.62577">
        <ele>51.1</ele>
        <time>2022-05-27T15:14:06Z</time>
      </trkpt>
      <trkpt lat="48.37899" lon="-4.62534">
        <ele>52</ele>
        <time>2022-05-27T15:14:13Z</time>
      </trkpt>
      <trkpt lat="48.37936" lon="-4.62486">
        <ele>53</ele>
        <time>2022-05-27T15:14:21Z</time>
      </trkpt>
      <trkpt lat="48.37961" lon="-4.62425">
        <ele>54</ele>
        <time>2022-05-27T15:14:29Z</time>
      </trkpt>
      <trkpt lat="48.37971" lon="-4.62405">
        <ele>54.4</ele>
        <time>2022-05-27T15:14:32Z</time>
      </trkpt>
      <trkpt lat="48.37986" lon="-4.62366">
        <ele>55.9</ele>
        <time>2022-05-27T15:14:38Z</time>
      </trkpt>
      <trkpt lat="48.37991" lon="-4.62354">
        <ele>56.3</ele>
        <time>2022-05-27T15:14:40Z</time>
      </trkpt>
      <trkpt lat="48.37998" lon="-4.62332">
        <ele>57.1</ele>
        <time>2022-05-27T15:14:44Z</time>
      </trkpt>
      <trkpt lat="48.38012" lon="-4.62288">
        <ele>58.7</ele>
        <time>2022-05-27T15:14:52Z</time>
      </trkpt>
      <trkpt lat="48.38022" lon="-4.62269">
        <ele>59.5</ele>
        <time>2022-05-27T15:14:56Z</time>
      </trkpt>
      <trkpt lat="48.38028" lon="-4.62251">
        <ele>60.2</ele>
        <time>2022-05-27T15:15:00Z</time>
      </trkpt>
      <trkpt lat="48.38035" lon="-4.62244">
        <ele>60.6</ele>
        <time>2022-05-27T15:15:02Z</time>
      </trkpt>
      <trkpt lat="48.38045" lon="-4.62228">
        <ele>61.1</ele>
        <time>2022-05-27T15:15:06Z</time>
      </trkpt>
      <trkpt lat="48.38028" lon="-4.62186">
        <ele>61.6</ele>
        <time>2022-05-27T15:15:10Z</time>
      </trkpt>
      <trkpt lat="48.38025" lon="-4.62172">
        <ele>61.8</ele>
        <time>2022-05-27T15:15:12Z</time>
      </trkpt>
      <trkpt lat="48.38003" lon="-4.62127">
        <ele>62.3</ele>
        <time>2022-05-27T15:15:19Z</time>
      </trkpt>
      <trkpt lat="48.38003" lon="-4.62092">
        <ele>62.7</ele>
        <time>2022-05-27T15:15:26Z</time>
      </trkpt>
      <trkpt lat="48.38011" lon="-4.62079">
        <ele>63</ele>
        <time>2022-05-27T15:15:30Z</time>
      </trkpt>
      <trkpt lat="48.38016" lon="-4.62075">
        <ele>63.1</ele>
        <time>2022-05-27T15:15:32Z</time>
      </trkpt>
      <trkpt lat="48.38028" lon="-4.62023">
        <ele>64.1</ele>
        <time>2022-05-27T15:15:48Z</time>
      </trkpt>
      <trkpt lat="48.38041" lon="-4.62013">
        <ele>64.4</ele>
        <time>2022-05-27T15:15:52Z</time>
      </trkpt>
      <trkpt lat="48.38052" lon="-4.62001">
        <ele>64.6</ele>
        <time>2022-05-27T15:15:55Z</time>
      </trkpt>
      <trkpt lat="48.38059" lon="-4.61995">
        <ele>64.7</ele>
        <time>2022-05-27T15:15:57Z</time>
      </trkpt>
      <trkpt lat="48.38075" lon="-4.61963">
        <ele>65.1</ele>
        <time>2022-05-27T15:16:03Z</time>
      </trkpt>
      <trkpt lat="48.38076" lon="-4.61959">
        <ele>65.2</ele>
        <time>2022-05-27T15:16:04Z</time>
      </trkpt>
      <trkpt lat="48.38074" lon="-4.61956">
        <ele>65.2</ele>
        <time>2022-05-27T15:16:05Z</time>
      </trkpt>
      <trkpt lat="48.38064" lon="-4.61951">
        <ele>65.3</ele>
        <time>2022-05-27T15:16:06Z</time>
      </trkpt>
      <trkpt lat="48.38048" lon="-4.61919">
        <ele>65.5</ele>
        <time>2022-05-27T15:16:11Z</time>
      </trkpt>
      <trkpt lat="48.38036" lon="-4.61892">
        <ele>65.8</ele>
        <time>2022-05-27T15:16:15Z</time>
      </trkpt>
      <trkpt lat="48.38009" lon="-4.61835">
        <ele>66.3</ele>
        <time>2022-05-27T15:16:23Z</time>
      </trkpt>
      <trkpt lat="48.38011" lon="-4.61824">
        <ele>66.5</ele>
        <time>2022-05-27T15:16:25Z</time>
      </trkpt>
      <trkpt lat="48.38053" lon="-4.61802">
        <ele>66.9</ele>
        <time>2022-05-27T15:16:31Z</time>
      </trkpt>
      <trkpt lat="48.38073" lon="-4.61788">
        <ele>67.3</ele>
        <time>2022-05-27T15:16:35Z</time>
      </trkpt>
      <trkpt lat="48.38096" lon="-4.61771">
        <ele>68.5</ele>
        <time>2022-05-27T15:16:40Z</time>
      </trkpt>
      <trkpt lat="48.38124" lon="-4.61751">
        <ele>70.3</ele>
        <time>2022-05-27T15:16:47Z</time>
      </trkpt>
      <trkpt lat="48.38139" lon="-4.6174">
        <ele>71.5</ele>
        <time>2022-05-27T15:16:51Z</time>
      </trkpt>
      <trkpt lat="48.38151" lon="-4.6173">
        <ele>73.2</ele>
        <time>2022-05-27T15:16:57Z</time>
      </trkpt>
      <trkpt lat="48.38156" lon="-4.61726">
        <ele>73.8</ele>
        <time>2022-05-27T15:16:59Z</time>
      </trkpt>
      <trkpt lat="48.38159" lon="-4.61721">
        <ele>73.9</ele>
        <time>2022-05-27T15:17:01Z</time>
      </trkpt>
      <trkpt lat="48.38155" lon="-4.61692">
        <ele>74.2</ele>
        <time>2022-05-27T15:17:05Z</time>
      </trkpt>
      <trkpt lat="48.3815" lon="-4.61656">
        <ele>75</ele>
        <time>2022-05-27T15:17:10Z</time>
      </trkpt>
      <trkpt lat="48.38149" lon="-4.61649">
        <ele>75.2</ele>
        <time>2022-05-27T15:17:11Z</time>
      </trkpt>
      <trkpt lat="48.38147" lon="-4.61617">
        <ele>76.1</ele>
        <time>2022-05-27T15:17:16Z</time>
      </trkpt>
      <trkpt lat="48.38144" lon="-4.61578">
        <ele>76.6</ele>
        <time>2022-05-27T15:17:22Z</time>
      </trkpt>
      <trkpt lat="48.38142" lon="-4.61548">
        <ele>77</ele>
        <time>2022-05-27T15:17:26Z</time>
      </trkpt>
      <trkpt lat="48.38141" lon="-4.61526">
        <ele>76.8</ele>
        <time>2022-05-27T15:17:29Z</time>
      </trkpt>
      <trkpt lat="48.38146" lon="-4.61458">
        <ele>76.5</ele>
        <time>2022-05-27T15:17:38Z</time>
      </trkpt>
      <trkpt lat="48.38148" lon="-4.61415">
        <ele>76.3</ele>
        <time>2022-05-27T15:17:43Z</time>
      </trkpt>
      <trkpt lat="48.38164" lon="-4.61345">
        <ele>76</ele>
        <time>2022-05-27T15:17:51Z</time>
      </trkpt>
      <trkpt lat="48.38177" lon="-4.61278">
        <ele>75.7</ele>
        <time>2022-05-27T15:17:58Z</time>
      </trkpt>
      <trkpt lat="48.3819" lon="-4.61206">
        <ele>75.4</ele>
        <time>2022-05-27T15:18:05Z</time>
      </trkpt>
      <trkpt lat="48.38201" lon="-4.6114">
        <ele>75.2</ele>
        <time>2022-05-27T15:18:11Z</time>
      </trkpt>
      <trkpt lat="48.38205" lon="-4.61096">
        <ele>75.1</ele>
        <time>2022-05-27T15:18:15Z</time>
      </trkpt>
      <trkpt lat="48.38203" lon="-4.61085">
        <ele>75</ele>
        <time>2022-05-27T15:18:16Z</time>
      </trkpt>
      <trkpt lat="48.38202" lon="-4.61017">
        <ele>74.8</ele>
        <time>2022-05-27T15:18:22Z</time>
      </trkpt>
      <trkpt lat="48.38197" lon="-4.60949">
        <ele>74.6</ele>
        <time>2022-05-27T15:18:28Z</time>
      </trkpt>
      <trkpt lat="48.38192" lon="-4.60916">
        <ele>74.4</ele>
        <time>2022-05-27T15:18:31Z</time>
      </trkpt>
      <trkpt lat="48.38181" lon="-4.60886">
        <ele>74.3</ele>
        <time>2022-05-27T15:18:34Z</time>
      </trkpt>
      <trkpt lat="48.38172" lon="-4.60839">
        <ele>74.2</ele>
        <time>2022-05-27T15:18:38Z</time>
      </trkpt>
      <trkpt lat="48.38168" lon="-4.60828">
        <ele>74.1</ele>
        <time>2022-05-27T15:18:39Z</time>
      </trkpt>
      <trkpt lat="48.38153" lon="-4.6076">
        <ele>73.9</ele>
        <time>2022-05-27T15:18:45Z</time>
      </trkpt>
      <trkpt lat="48.3814" lon="-4.60718">
        <ele>73.7</ele>
        <time>2022-05-27T15:18:49Z</time>
      </trkpt>
      <trkpt lat="48.38138" lon="-4.60708">
        <ele>73.7</ele>
        <time>2022-05-27T15:18:50Z</time>
      </trkpt>
      <trkpt lat="48.3811" lon="-4.60651">
        <ele>74.1</ele>
        <time>2022-05-27T15:18:56Z</time>
      </trkpt>
      <trkpt lat="48.38091" lon="-4.60612">
        <ele>74.6</ele>
        <time>2022-05-27T15:19:03Z</time>
      </trkpt>
      <trkpt lat="48.38121" lon="-4.60592">
        <ele>75</ele>
        <time>2022-05-27T15:19:10Z</time>
      </trkpt>
      <trkpt lat="48.38123" lon="-4.60591">
        <ele>75.1</ele>
        <time>2022-05-27T15:19:11Z</time>
      </trkpt>
      <trkpt lat="48.38123" lon="-4.60584">
        <ele>75.1</ele>
        <time>2022-05-27T15:19:12Z</time>
      </trkpt>
      <trkpt lat="48.38117" lon="-4.60555">
        <ele>75.3</ele>
        <time>2022-05-27T15:19:14Z</time>
      </trkpt>
      <trkpt lat="48.38114" lon="-4.60544">
        <ele>75.4</ele>
        <time>2022-05-27T15:19:15Z</time>
      </trkpt>
      <trkpt lat="48.38105" lon="-4.60522">
        <ele>75.8</ele>
        <time>2022-05-27T15:19:19Z</time>
      </trkpt>
      <trkpt lat="48.38108" lon="-4.6051">
        <ele>75.9</ele>
        <time>2022-05-27T15:19:20Z</time>
      </trkpt>
      <trkpt lat="48.381" lon="-4.605">
        <ele>76.1</ele>
        <time>2022-05-27T15:19:22Z</time>
      </trkpt>
      <trkpt lat="48.38089" lon="-4.60497">
        <ele>76.2</ele>
        <time>2022-05-27T15:19:23Z</time>
      </trkpt>
      <trkpt lat="48.38085" lon="-4.6048">
        <ele>76.4</ele>
        <time>2022-05-27T15:19:25Z</time>
      </trkpt>
      <trkpt lat="48.38075" lon="-4.60429">
        <ele>76.5</ele>
        <time>2022-05-27T15:19:31Z</time>
      </trkpt>
      <trkpt lat="48.38074" lon="-4.60409">
        <ele>76.5</ele>
        <time>2022-05-27T15:19:33Z</time>
      </trkpt>
      <trkpt lat="48.38081" lon="-4.60396">
        <ele>76.6</ele>
        <time>2022-05-27T15:19:34Z</time>
      </trkpt>
      <trkpt lat="48.38068" lon="-4.60337">
        <ele>76.7</ele>
        <time>2022-05-27T15:19:41Z</time>
      </trkpt>
      <trkpt lat="48.38059" lon="-4.60269">
        <ele>77</ele>
        <time>2022-05-27T15:19:52Z</time>
      </trkpt>
      <trkpt lat="48.38041" lon="-4.60205">
        <ele>77.2</ele>
        <time>2022-05-27T15:20:01Z</time>
      </trkpt>
      <trkpt lat="48.38017" lon="-4.60142">
        <ele>77.5</ele>
        <time>2022-05-27T15:20:13Z</time>
      </trkpt>
      <trkpt lat="48.38007" lon="-4.60119">
        <ele>77.6</ele>
        <time>2022-05-27T15:20:17Z</time>
      </trkpt>
      <trkpt lat="48.38002" lon="-4.60115">
        <ele>77.6</ele>
        <time>2022-05-27T15:20:18Z</time>
      </trkpt>
      <trkpt lat="48.37979" lon="-4.60067">
        <ele>77.8</ele>
        <time>2022-05-27T15:20:26Z</time>
      </trkpt>
      <trkpt lat="48.37968" lon="-4.60055">
        <ele>77.9</ele>
        <time>2022-05-27T15:20:30Z</time>
      </trkpt>
      <trkpt lat="48.37963" lon="-4.60055">
        <ele>78</ele>
        <time>2022-05-27T15:20:31Z</time>
      </trkpt>
      <trkpt lat="48.37925" lon="-4.6001">
        <ele>78.2</ele>
        <time>2022-05-27T15:20:42Z</time>
      </trkpt>
      <trkpt lat="48.37889" lon="-4.59965">
        <ele>78.5</ele>
        <time>2022-05-27T15:20:52Z</time>
      </trkpt>
      <trkpt lat="48.3786" lon="-4.59932">
        <ele>78.6</ele>
        <time>2022-05-27T15:20:59Z</time>
      </trkpt>
      <trkpt lat="48.37848" lon="-4.59911">
        <ele>78.7</ele>
        <time>2022-05-27T15:21:02Z</time>
      </trkpt>
      <trkpt lat="48.37845" lon="-4.59901">
        <ele>78.7</ele>
        <time>2022-05-27T15:21:03Z</time>
      </trkpt>
      <trkpt lat="48.37823" lon="-4.59886">
        <ele>78.8</ele>
        <time>2022-05-27T15:21:07Z</time>
      </trkpt>
      <trkpt lat="48.37818" lon="-4.59884">
        <ele>78.8</ele>
        <time>2022-05-27T15:21:08Z</time>
      </trkpt>
      <trkpt lat="48.37783" lon="-4.59832">
        <ele>79.1</ele>
        <time>2022-05-27T15:21:17Z</time>
      </trkpt>
      <trkpt lat="48.37752" lon="-4.59811">
        <ele>79.2</ele>
        <time>2022-05-27T15:21:23Z</time>
      </trkpt>
      <trkpt lat="48.37742" lon="-4.59818">
        <ele>79.2</ele>
        <time>2022-05-27T15:21:24Z</time>
      </trkpt>
      <trkpt lat="48.377" lon="-4.59778">
        <ele>79.4</ele>
        <time>2022-05-27T15:21:32Z</time>
      </trkpt>
      <trkpt lat="48.37656" lon="-4.59745">
        <ele>79.6</ele>
        <time>2022-05-27T15:21:40Z</time>
      </trkpt>
      <trkpt lat="48.37643" lon="-4.59736">
        <ele>79.7</ele>
        <time>2022-05-27T15:21:42Z</time>
      </trkpt>
      <trkpt lat="48.3761" lon="-4.59713">
        <ele>80.2</ele>
        <time>2022-05-27T15:21:47Z</time>
      </trkpt>
      <trkpt lat="48.37566" lon="-4.5968">
        <ele>80.9</ele>
        <time>2022-05-27T15:21:55Z</time>
      </trkpt>
      <trkpt lat="48.37518" lon="-4.59641">
        <ele>81.8</ele>
        <time>2022-05-27T15:22:04Z</time>
      </trkpt>
      <trkpt lat="48.37488" lon="-4.59618">
        <ele>82.6</ele>
        <time>2022-05-27T15:22:12Z</time>
      </trkpt>
      <trkpt lat="48.37472" lon="-4.59606">
        <ele>83.4</ele>
        <time>2022-05-27T15:22:16Z</time>
      </trkpt>
      <trkpt lat="48.37434" lon="-4.59561">
        <ele>84.9</ele>
        <time>2022-05-27T15:22:24Z</time>
      </trkpt>
      <trkpt lat="48.37413" lon="-4.59527">
        <ele>86.1</ele>
        <time>2022-05-27T15:22:30Z</time>
      </trkpt>
      <trkpt lat="48.37403" lon="-4.59509">
        <ele>86.6</ele>
        <time>2022-05-27T15:22:33Z</time>
      </trkpt>
      <trkpt lat="48.37386" lon="-4.59442">
        <ele>88.2</ele>
        <time>2022-05-27T15:22:42Z</time>
      </trkpt>
      <trkpt lat="48.37406" lon="-4.59415">
        <ele>88.3</ele>
        <time>2022-05-27T15:22:43Z</time>
      </trkpt>
      <trkpt lat="48.37389" lon="-4.59412">
        <ele>88.9</ele>
        <time>2022-05-27T15:22:46Z</time>
      </trkpt>
      <trkpt lat="48.37365" lon="-4.59437">
        <ele>89</ele>
        <time>2022-05-27T15:22:47Z</time>
      </trkpt>
      <trkpt lat="48.37362" lon="-4.59432">
        <ele>89.2</ele>
        <time>2022-05-27T15:22:48Z</time>
      </trkpt>
      <trkpt lat="48.37334" lon="-4.59384">
        <ele>91</ele>
        <time>2022-05-27T15:22:58Z</time>
      </trkpt>
      <trkpt lat="48.37321" lon="-4.59359">
        <ele>91.8</ele>
        <time>2022-05-27T15:23:03Z</time>
      </trkpt>
      <trkpt lat="48.3732" lon="-4.59333">
        <ele>92.3</ele>
        <time>2022-05-27T15:23:06Z</time>
      </trkpt>
      <trkpt lat="48.37318" lon="-4.59318">
        <ele>92.5</ele>
        <time>2022-05-27T15:23:08Z</time>
      </trkpt>
      <trkpt lat="48.37276" lon="-4.59283">
        <ele>93.4</ele>
        <time>2022-05-27T15:23:17Z</time>
      </trkpt>
      <trkpt lat="48.37273" lon="-4.59278">
        <ele>93.4</ele>
        <time>2022-05-27T15:23:18Z</time>
      </trkpt>
      <trkpt lat="48.37267" lon="-4.59239">
        <ele>93.3</ele>
        <time>2022-05-27T15:23:23Z</time>
      </trkpt>
      <trkpt lat="48.37283" lon="-4.59208">
        <ele>93.2</ele>
        <time>2022-05-27T15:23:24Z</time>
      </trkpt>
      <trkpt lat="48.3724" lon="-4.59173">
        <ele>93</ele>
        <time>2022-05-27T15:23:33Z</time>
      </trkpt>
      <trkpt lat="48.37226" lon="-4.59167">
        <ele>92.9</ele>
        <time>2022-05-27T15:23:35Z</time>
      </trkpt>
      <trkpt lat="48.37215" lon="-4.59173">
        <ele>92.9</ele>
        <time>2022-05-27T15:23:36Z</time>
      </trkpt>
      <trkpt lat="48.37219" lon="-4.59149">
        <ele>92.8</ele>
        <time>2022-05-27T15:23:40Z</time>
      </trkpt>
      <trkpt lat="48.372" lon="-4.5916">
        <ele>92.6</ele>
        <time>2022-05-27T15:23:46Z</time>
      </trkpt>
      <trkpt lat="48.37194" lon="-4.59155">
        <ele>92.6</ele>
        <time>2022-05-27T15:23:47Z</time>
      </trkpt>
      <trkpt lat="48.37188" lon="-4.59145">
        <ele>92.6</ele>
        <time>2022-05-27T15:23:48Z</time>
      </trkpt>
      <trkpt lat="48.37182" lon="-4.59123">
        <ele>92.5</ele>
        <time>2022-05-27T15:23:51Z</time>
      </trkpt>
      <trkpt lat="48.37181" lon="-4.59117">
        <ele>92.4</ele>
        <time>2022-05-27T15:23:52Z</time>
      </trkpt>
      <trkpt lat="48.37149" lon="-4.59066">
        <ele>92.2</ele>
        <time>2022-05-27T15:24:00Z</time>
      </trkpt>
      <trkpt lat="48.37114" lon="-4.59017">
        <ele>92</ele>
        <time>2022-05-27T15:24:08Z</time>
      </trkpt>
      <trkpt lat="48.37075" lon="-4.58974">
        <ele>91.8</ele>
        <time>2022-05-27T15:24:15Z</time>
      </trkpt>
      <trkpt lat="48.37034" lon="-4.58937">
        <ele>91.5</ele>
        <time>2022-05-27T15:24:21Z</time>
      </trkpt>
      <trkpt lat="48.36988" lon="-4.58899">
        <ele>89.8</ele>
        <time>2022-05-27T15:24:27Z</time>
      </trkpt>
      <trkpt lat="48.36957" lon="-4.58873">
        <ele>88.6</ele>
        <time>2022-05-27T15:24:31Z</time>
      </trkpt>
      <trkpt lat="48.36948" lon="-4.58867">
        <ele>88.3</ele>
        <time>2022-05-27T15:24:32Z</time>
      </trkpt>
      <trkpt lat="48.36886" lon="-4.58845">
        <ele>86.3</ele>
        <time>2022-05-27T15:24:37Z</time>
      </trkpt>
      <trkpt lat="48.36886" lon="-4.58845">
        <ele>86.3</ele>
        <time>2022-05-27T15:25:08Z</time>
      </trkpt>
      <trkpt lat="48.36855" lon="-4.58844">
        <ele>85.6</ele>
        <time>2022-05-27T15:25:12Z</time>
      </trkpt>
      <trkpt lat="48.36844" lon="-4.58825">
        <ele>85.7</ele>
        <time>2022-05-27T15:25:14Z</time>
      </trkpt>
      <trkpt lat="48.36805" lon="-4.58787">
        <ele>86</ele>
        <time>2022-05-27T15:25:23Z</time>
      </trkpt>
      <trkpt lat="48.36765" lon="-4.58741">
        <ele>86.3</ele>
        <time>2022-05-27T15:25:32Z</time>
      </trkpt>
      <trkpt lat="48.36725" lon="-4.58695">
        <ele>86.6</ele>
        <time>2022-05-27T15:25:40Z</time>
      </trkpt>
      <trkpt lat="48.36695" lon="-4.58643">
        <ele>86.8</ele>
        <time>2022-05-27T15:25:47Z</time>
      </trkpt>
      <trkpt lat="48.36663" lon="-4.58591">
        <ele>87.1</ele>
        <time>2022-05-27T15:25:54Z</time>
      </trkpt>
      <trkpt lat="48.36629" lon="-4.58539">
        <ele>87.3</ele>
        <time>2022-05-27T15:26:01Z</time>
      </trkpt>
      <trkpt lat="48.36586" lon="-4.585">
        <ele>87.6</ele>
        <time>2022-05-27T15:26:08Z</time>
      </trkpt>
      <trkpt lat="48.36574" lon="-4.58491">
        <ele>87.7</ele>
        <time>2022-05-27T15:26:10Z</time>
      </trkpt>
      <trkpt lat="48.36525" lon="-4.58471">
        <ele>87.9</ele>
        <time>2022-05-27T15:26:18Z</time>
      </trkpt>
      <trkpt lat="48.36493" lon="-4.58467">
        <ele>88.1</ele>
        <time>2022-05-27T15:26:23Z</time>
      </trkpt>
      <trkpt lat="48.36474" lon="-4.58464">
        <ele>88.1</ele>
        <time>2022-05-27T15:26:26Z</time>
      </trkpt>
      <trkpt lat="48.36426" lon="-4.58468">
        <ele>88.2</ele>
        <time>2022-05-27T15:26:33Z</time>
      </trkpt>
      <trkpt lat="48.36419" lon="-4.5847">
        <ele>88.2</ele>
        <time>2022-05-27T15:26:34Z</time>
      </trkpt>
      <trkpt lat="48.36398" lon="-4.58479">
        <ele>88.5</ele>
        <time>2022-05-27T15:26:37Z</time>
      </trkpt>
      <trkpt lat="48.36391" lon="-4.58484">
        <ele>88.6</ele>
        <time>2022-05-27T15:26:38Z</time>
      </trkpt>
      <trkpt lat="48.36355" lon="-4.5849">
        <ele>89</ele>
        <time>2022-05-27T15:26:43Z</time>
      </trkpt>
      <trkpt lat="48.3631" lon="-4.58475">
        <ele>89.7</ele>
        <time>2022-05-27T15:26:50Z</time>
      </trkpt>
      <trkpt lat="48.36298" lon="-4.58471">
        <ele>89.8</ele>
        <time>2022-05-27T15:26:52Z</time>
      </trkpt>
      <trkpt lat="48.36274" lon="-4.58429">
        <ele>90</ele>
        <time>2022-05-27T15:26:58Z</time>
      </trkpt>
      <trkpt lat="48.36267" lon="-4.58415">
        <ele>89.8</ele>
        <time>2022-05-27T15:27:00Z</time>
      </trkpt>
      <trkpt lat="48.36261" lon="-4.584">
        <ele>89.5</ele>
        <time>2022-05-27T15:27:02Z</time>
      </trkpt>
      <trkpt lat="48.36259" lon="-4.58394">
        <ele>89.4</ele>
        <time>2022-05-27T15:27:03Z</time>
      </trkpt>
      <trkpt lat="48.36248" lon="-4.58383">
        <ele>89</ele>
        <time>2022-05-27T15:27:06Z</time>
      </trkpt>
      <trkpt lat="48.36245" lon="-4.58373">
        <ele>88.8</ele>
        <time>2022-05-27T15:27:08Z</time>
      </trkpt>
      <trkpt lat="48.36244" lon="-4.5837">
        <ele>88.6</ele>
        <time>2022-05-27T15:27:09Z</time>
      </trkpt>
      <trkpt lat="48.36251" lon="-4.58362">
        <ele>88.4</ele>
        <time>2022-05-27T15:27:11Z</time>
      </trkpt>
      <trkpt lat="48.36266" lon="-4.58362">
        <ele>87.9</ele>
        <time>2022-05-27T15:27:15Z</time>
      </trkpt>
      <trkpt lat="48.36267" lon="-4.5835">
        <ele>87.7</ele>
        <time>2022-05-27T15:27:16Z</time>
      </trkpt>
      <trkpt lat="48.36301" lon="-4.58293">
        <ele>86.7</ele>
        <time>2022-05-27T15:27:24Z</time>
      </trkpt>
      <trkpt lat="48.36324" lon="-4.58258">
        <ele>86.2</ele>
        <time>2022-05-27T15:27:28Z</time>
      </trkpt>
      <trkpt lat="48.36336" lon="-4.58241">
        <ele>85.6</ele>
        <time>2022-05-27T15:27:30Z</time>
      </trkpt>
      <trkpt lat="48.36357" lon="-4.58199">
        <ele>84.6</ele>
        <time>2022-05-27T15:27:34Z</time>
      </trkpt>
      <trkpt lat="48.36366" lon="-4.58177">
        <ele>84.1</ele>
        <time>2022-05-27T15:27:36Z</time>
      </trkpt>
      <trkpt lat="48.36375" lon="-4.58143">
        <ele>83.4</ele>
        <time>2022-05-27T15:27:39Z</time>
      </trkpt>
      <trkpt lat="48.36385" lon="-4.58109">
        <ele>82.6</ele>
        <time>2022-05-27T15:27:42Z</time>
      </trkpt>
      <trkpt lat="48.36394" lon="-4.58076">
        <ele>81.8</ele>
        <time>2022-05-27T15:27:45Z</time>
      </trkpt>
      <trkpt lat="48.36411" lon="-4.58">
        <ele>80.2</ele>
        <time>2022-05-27T15:27:51Z</time>
      </trkpt>
      <trkpt lat="48.36421" lon="-4.57956">
        <ele>79.2</ele>
        <time>2022-05-27T15:27:54Z</time>
      </trkpt>
      <trkpt lat="48.36429" lon="-4.57926">
        <ele>77.7</ele>
        <time>2022-05-27T15:27:56Z</time>
      </trkpt>
      <trkpt lat="48.36444" lon="-4.57862">
        <ele>74.7</ele>
        <time>2022-05-27T15:28:00Z</time>
      </trkpt>
      <trkpt lat="48.3646" lon="-4.57797">
        <ele>73.8</ele>
        <time>2022-05-27T15:28:04Z</time>
      </trkpt>
      <trkpt lat="48.36467" lon="-4.57755">
        <ele>73.1</ele>
        <time>2022-05-27T15:28:07Z</time>
      </trkpt>
      <trkpt lat="48.36466" lon="-4.57728">
        <ele>72.7</ele>
        <time>2022-05-27T15:28:09Z</time>
      </trkpt>
      <trkpt lat="48.36454" lon="-4.57694">
        <ele>72.2</ele>
        <time>2022-05-27T15:28:12Z</time>
      </trkpt>
      <trkpt lat="48.36443" lon="-4.5766">
        <ele>73</ele>
        <time>2022-05-27T15:28:15Z</time>
      </trkpt>
      <trkpt lat="48.36435" lon="-4.57629">
        <ele>73.8</ele>
        <time>2022-05-27T15:28:18Z</time>
      </trkpt>
      <trkpt lat="48.36426" lon="-4.57597">
        <ele>74.8</ele>
        <time>2022-05-27T15:28:21Z</time>
      </trkpt>
      <trkpt lat="48.36419" lon="-4.57565">
        <ele>75.7</ele>
        <time>2022-05-27T15:28:24Z</time>
      </trkpt>
      <trkpt lat="48.36411" lon="-4.57522">
        <ele>76</ele>
        <time>2022-05-27T15:28:28Z</time>
      </trkpt>
      <trkpt lat="48.36406" lon="-4.57499">
        <ele>76.1</ele>
        <time>2022-05-27T15:28:30Z</time>
      </trkpt>
      <trkpt lat="48.36404" lon="-4.57488">
        <ele>76</ele>
        <time>2022-05-27T15:28:31Z</time>
      </trkpt>
      <trkpt lat="48.36387" lon="-4.57433">
        <ele>75.6</ele>
        <time>2022-05-27T15:28:36Z</time>
      </trkpt>
      <trkpt lat="48.36383" lon="-4.57422">
        <ele>75.5</ele>
        <time>2022-05-27T15:28:37Z</time>
      </trkpt>
      <trkpt lat="48.36359" lon="-4.57356">
        <ele>74.6</ele>
        <time>2022-05-27T15:28:43Z</time>
      </trkpt>
      <trkpt lat="48.36337" lon="-4.57299">
        <ele>73.8</ele>
        <time>2022-05-27T15:28:48Z</time>
      </trkpt>
      <trkpt lat="48.36332" lon="-4.57287">
        <ele>73.5</ele>
        <time>2022-05-27T15:28:49Z</time>
      </trkpt>
      <trkpt lat="48.3631" lon="-4.57223">
        <ele>71.8</ele>
        <time>2022-05-27T15:28:54Z</time>
      </trkpt>
      <trkpt lat="48.36291" lon="-4.57169">
        <ele>70.4</ele>
        <time>2022-05-27T15:28:58Z</time>
      </trkpt>
      <trkpt lat="48.36281" lon="-4.57143">
        <ele>69.7</ele>
        <time>2022-05-27T15:29:00Z</time>
      </trkpt>
      <trkpt lat="48.36266" lon="-4.57102">
        <ele>68.7</ele>
        <time>2022-05-27T15:29:03Z</time>
      </trkpt>
      <trkpt lat="48.3625" lon="-4.57032">
        <ele>67</ele>
        <time>2022-05-27T15:29:08Z</time>
      </trkpt>
      <trkpt lat="48.36247" lon="-4.57018">
        <ele>66.7</ele>
        <time>2022-05-27T15:29:09Z</time>
      </trkpt>
      <trkpt lat="48.36246" lon="-4.56971">
        <ele>65.6</ele>
        <time>2022-05-27T15:29:12Z</time>
      </trkpt>
      <trkpt lat="48.36246" lon="-4.5694">
        <ele>64.8</ele>
        <time>2022-05-27T15:29:14Z</time>
      </trkpt>
      <trkpt lat="48.36247" lon="-4.56862">
        <ele>62.7</ele>
        <time>2022-05-27T15:29:19Z</time>
      </trkpt>
      <trkpt lat="48.36247" lon="-4.56784">
        <ele>60.6</ele>
        <time>2022-05-27T15:29:24Z</time>
      </trkpt>
      <trkpt lat="48.36246" lon="-4.56737">
        <ele>59.4</ele>
        <time>2022-05-27T15:29:27Z</time>
      </trkpt>
      <trkpt lat="48.36243" lon="-4.56656">
        <ele>57.4</ele>
        <time>2022-05-27T15:29:32Z</time>
      </trkpt>
      <trkpt lat="48.36243" lon="-4.56593">
        <ele>55.8</ele>
        <time>2022-05-27T15:29:36Z</time>
      </trkpt>
      <trkpt lat="48.36243" lon="-4.56577">
        <ele>55.5</ele>
        <time>2022-05-27T15:29:37Z</time>
      </trkpt>
      <trkpt lat="48.36242" lon="-4.565">
        <ele>54.1</ele>
        <time>2022-05-27T15:29:42Z</time>
      </trkpt>
      <trkpt lat="48.36242" lon="-4.56424">
        <ele>52.6</ele>
        <time>2022-05-27T15:29:47Z</time>
      </trkpt>
      <trkpt lat="48.36238" lon="-4.56396">
        <ele>52.3</ele>
        <time>2022-05-27T15:29:49Z</time>
      </trkpt>
      <trkpt lat="48.36232" lon="-4.56372">
        <ele>52</ele>
        <time>2022-05-27T15:29:51Z</time>
      </trkpt>
      <trkpt lat="48.36232" lon="-4.56359">
        <ele>51.8</ele>
        <time>2022-05-27T15:29:52Z</time>
      </trkpt>
      <trkpt lat="48.36231" lon="-4.56335">
        <ele>51.2</ele>
        <time>2022-05-27T15:29:54Z</time>
      </trkpt>
      <trkpt lat="48.36204" lon="-4.56271">
        <ele>49.3</ele>
        <time>2022-05-27T15:30:00Z</time>
      </trkpt>
      <trkpt lat="48.36189" lon="-4.56214">
        <ele>48</ele>
        <time>2022-05-27T15:30:04Z</time>
      </trkpt>
      <trkpt lat="48.3619" lon="-4.56139">
        <ele>46</ele>
        <time>2022-05-27T15:30:09Z</time>
      </trkpt>
      <trkpt lat="48.36197" lon="-4.56065">
        <ele>44.1</ele>
        <time>2022-05-27T15:30:14Z</time>
      </trkpt>
      <trkpt lat="48.36199" lon="-4.56034">
        <ele>43.3</ele>
        <time>2022-05-27T15:30:16Z</time>
      </trkpt>
      <trkpt lat="48.36202" lon="-4.55988">
        <ele>41.8</ele>
        <time>2022-05-27T15:30:19Z</time>
      </trkpt>
      <trkpt lat="48.36198" lon="-4.55941">
        <ele>40.4</ele>
        <time>2022-05-27T15:30:22Z</time>
      </trkpt>
      <trkpt lat="48.36183" lon="-4.55888">
        <ele>38.6</ele>
        <time>2022-05-27T15:30:26Z</time>
      </trkpt>
      <trkpt lat="48.3617" lon="-4.55861">
        <ele>37.6</ele>
        <time>2022-05-27T15:30:28Z</time>
      </trkpt>
      <trkpt lat="48.3615" lon="-4.55822">
        <ele>35.9</ele>
        <time>2022-05-27T15:30:31Z</time>
      </trkpt>
      <trkpt lat="48.36129" lon="-4.55781">
        <ele>34.1</ele>
        <time>2022-05-27T15:30:34Z</time>
      </trkpt>
      <trkpt lat="48.36122" lon="-4.55768">
        <ele>33.4</ele>
        <time>2022-05-27T15:30:35Z</time>
      </trkpt>
      <trkpt lat="48.36111" lon="-4.55739">
        <ele>32.1</ele>
        <time>2022-05-27T15:30:37Z</time>
      </trkpt>
      <trkpt lat="48.36114" lon="-4.55682">
        <ele>30</ele>
        <time>2022-05-27T15:30:40Z</time>
      </trkpt>
      <trkpt lat="48.36125" lon="-4.55622">
        <ele>27.1</ele>
        <time>2022-05-27T15:30:44Z</time>
      </trkpt>
      <trkpt lat="48.36125" lon="-4.55593">
        <ele>25.3</ele>
        <time>2022-05-27T15:30:46Z</time>
      </trkpt>
      <trkpt lat="48.36117" lon="-4.55517">
        <ele>17.8</ele>
        <time>2022-05-27T15:30:51Z</time>
      </trkpt>
      <trkpt lat="48.36117" lon="-4.55505">
        <ele>16.5</ele>
        <time>2022-05-27T15:30:52Z</time>
      </trkpt>
      <trkpt lat="48.36118" lon="-4.55493">
        <ele>15.5</ele>
        <time>2022-05-27T15:30:53Z</time>
      </trkpt>
      <trkpt lat="48.36126" lon="-4.5547">
        <ele>13.6</ele>
        <time>2022-05-27T15:30:55Z</time>
      </trkpt>
      <trkpt lat="48.36141" lon="-4.55453">
        <ele>11.6</ele>
        <time>2022-05-27T15:30:57Z</time>
      </trkpt>
      <trkpt lat="48.36149" lon="-4.55447">
        <ele>10.9</ele>
        <time>2022-05-27T15:30:58Z</time>
      </trkpt>
      <trkpt lat="48.36183" lon="-4.55424">
        <ele>10.6</ele>
        <time>2022-05-27T15:31:02Z</time>
      </trkpt>
      <trkpt lat="48.36197" lon="-4.55413">
        <ele>10.4</ele>
        <time>2022-05-27T15:31:04Z</time>
      </trkpt>
      <trkpt lat="48.36208" lon="-4.55389">
        <ele>10.2</ele>
        <time>2022-05-27T15:31:07Z</time>
      </trkpt>
      <trkpt lat="48.3621" lon="-4.5538">
        <ele>10.1</ele>
        <time>2022-05-27T15:31:08Z</time>
      </trkpt>
      <trkpt lat="48.36216" lon="-4.55364">
        <ele>10.1</ele>
        <time>2022-05-27T15:31:10Z</time>
      </trkpt>
      <trkpt lat="48.36221" lon="-4.55349">
        <ele>10.5</ele>
        <time>2022-05-27T15:31:12Z</time>
      </trkpt>
      <trkpt lat="48.36228" lon="-4.55328">
        <ele>11.6</ele>
        <time>2022-05-27T15:31:16Z</time>
      </trkpt>
      <trkpt lat="48.36238" lon="-4.55297">
        <ele>14.9</ele>
        <time>2022-05-27T15:31:22Z</time>
      </trkpt>
      <trkpt lat="48.36241" lon="-4.55287">
        <ele>15.6</ele>
        <time>2022-05-27T15:31:24Z</time>
      </trkpt>
      <trkpt lat="48.36246" lon="-4.55275">
        <ele>16.7</ele>
        <time>2022-05-27T15:31:27Z</time>
      </trkpt>
      <trkpt lat="48.36245" lon="-4.55246">
        <ele>19.2</ele>
        <time>2022-05-27T15:31:34Z</time>
      </trkpt>
      <trkpt lat="48.36244" lon="-4.55208">
        <ele>21.9</ele>
        <time>2022-05-27T15:31:43Z</time>
      </trkpt>
      <trkpt lat="48.36244" lon="-4.55197">
        <ele>22.8</ele>
        <time>2022-05-27T15:31:46Z</time>
      </trkpt>
      <trkpt lat="48.36242" lon="-4.55159">
        <ele>25.9</ele>
        <time>2022-05-27T15:31:56Z</time>
      </trkpt>
      <trkpt lat="48.36241" lon="-4.5514">
        <ele>26.6</ele>
        <time>2022-05-27T15:32:01Z</time>
      </trkpt>
      <trkpt lat="48.36242" lon="-4.55133">
        <ele>26.7</ele>
        <time>2022-05-27T15:32:02Z</time>
      </trkpt>
      <trkpt lat="48.36247" lon="-4.55109">
        <ele>26.4</ele>
        <time>2022-05-27T15:32:06Z</time>
      </trkpt>
      <trkpt lat="48.36256" lon="-4.55099">
        <ele>26.2</ele>
        <time>2022-05-27T15:32:08Z</time>
      </trkpt>
      <trkpt lat="48.36274" lon="-4.55079">
        <ele>25.3</ele>
        <time>2022-05-27T15:32:12Z</time>
      </trkpt>
      <trkpt lat="48.36279" lon="-4.55073">
        <ele>25.1</ele>
        <time>2022-05-27T15:32:13Z</time>
      </trkpt>
      <trkpt lat="48.36284" lon="-4.55072">
        <ele>24.9</ele>
        <time>2022-05-27T15:32:14Z</time>
      </trkpt>
      <trkpt lat="48.36307" lon="-4.55058">
        <ele>25</ele>
        <time>2022-05-27T15:32:20Z</time>
      </trkpt>
      <trkpt lat="48.36325" lon="-4.55047">
        <ele>26.2</ele>
        <time>2022-05-27T15:32:25Z</time>
      </trkpt>
      <trkpt lat="48.36327" lon="-4.55047">
        <ele>26.4</ele>
        <time>2022-05-27T15:32:26Z</time>
      </trkpt>
      <trkpt lat="48.36339" lon="-4.55044">
        <ele>28.3</ele>
        <time>2022-05-27T15:32:32Z</time>
      </trkpt>
      <trkpt lat="48.36361" lon="-4.55039">
        <ele>32.3</ele>
        <time>2022-05-27T15:32:44Z</time>
      </trkpt>
      <trkpt lat="48.3637" lon="-4.55036">
        <ele>34</ele>
        <time>2022-05-27T15:32:49Z</time>
      </trkpt>
      <trkpt lat="48.36381" lon="-4.55025">
        <ele>36.2</ele>
        <time>2022-05-27T15:32:56Z</time>
      </trkpt>
      <trkpt lat="48.36383" lon="-4.55024">
        <ele>36.6</ele>
        <time>2022-05-27T15:32:57Z</time>
      </trkpt>
      <trkpt lat="48.36394" lon="-4.55012">
        <ele>38.8</ele>
        <time>2022-05-27T15:33:04Z</time>
      </trkpt>
      <trkpt lat="48.364" lon="-4.55005">
        <ele>40.1</ele>
        <time>2022-05-27T15:33:08Z</time>
      </trkpt>
      <trkpt lat="48.36417" lon="-4.54983">
        <ele>43.5</ele>
        <time>2022-05-27T15:33:20Z</time>
      </trkpt>
      <trkpt lat="48.36428" lon="-4.54968">
        <ele>46</ele>
        <time>2022-05-27T15:33:28Z</time>
      </trkpt>
      <trkpt lat="48.36434" lon="-4.54962">
        <ele>47.3</ele>
        <time>2022-05-27T15:33:32Z</time>
      </trkpt>
      <trkpt lat="48.36452" lon="-4.54943">
        <ele>51.1</ele>
        <time>2022-05-27T15:33:44Z</time>
      </trkpt>
      <trkpt lat="48.36466" lon="-4.54929">
        <ele>53.3</ele>
        <time>2022-05-27T15:33:53Z</time>
      </trkpt>
      <trkpt lat="48.3647" lon="-4.54922">
        <ele>54.1</ele>
        <time>2022-05-27T15:33:56Z</time>
      </trkpt>
      <trkpt lat="48.36478" lon="-4.5491">
        <ele>55.7</ele>
        <time>2022-05-27T15:34:01Z</time>
      </trkpt>
      <trkpt lat="48.36486" lon="-4.54898">
        <ele>57</ele>
        <time>2022-05-27T15:34:06Z</time>
      </trkpt>
      <trkpt lat="48.36507" lon="-4.54875">
        <ele>59.8</ele>
        <time>2022-05-27T15:34:17Z</time>
      </trkpt>
      <trkpt lat="48.36518" lon="-4.54863">
        <ele>61.1</ele>
        <time>2022-05-27T15:34:23Z</time>
      </trkpt>
      <trkpt lat="48.36523" lon="-4.54856">
        <ele>61.7</ele>
        <time>2022-05-27T15:34:26Z</time>
      </trkpt>
      <trkpt lat="48.36529" lon="-4.54834">
        <ele>62.7</ele>
        <time>2022-05-27T15:34:31Z</time>
      </trkpt>
      <trkpt lat="48.36537" lon="-4.54825">
        <ele>63.3</ele>
        <time>2022-05-27T15:34:34Z</time>
      </trkpt>
      <trkpt lat="48.36554" lon="-4.54811">
        <ele>64.8</ele>
        <time>2022-05-27T15:34:41Z</time>
      </trkpt>
      <trkpt lat="48.36569" lon="-4.54799">
        <ele>66.3</ele>
        <time>2022-05-27T15:34:47Z</time>
      </trkpt>
      <trkpt lat="48.36572" lon="-4.54797">
        <ele>66.5</ele>
        <time>2022-05-27T15:34:48Z</time>
      </trkpt>
      <trkpt lat="48.36587" lon="-4.54785">
        <ele>67.3</ele>
        <time>2022-05-27T15:34:53Z</time>
      </trkpt>
      <trkpt lat="48.36613" lon="-4.54763">
        <ele>68.4</ele>
        <time>2022-05-27T15:35:02Z</time>
      </trkpt>
      <trkpt lat="48.3662" lon="-4.54753">
        <ele>68.8</ele>
        <time>2022-05-27T15:35:05Z</time>
      </trkpt>
      <trkpt lat="48.36629" lon="-4.54649">
        <ele>68.7</ele>
        <time>2022-05-27T15:35:18Z</time>
      </trkpt>
      <trkpt lat="48.36629" lon="-4.54649">
        <ele>68.7</ele>
        <time>2022-05-27T15:36:09Z</time>
      </trkpt>
      <trkpt lat="48.36623" lon="-4.54608">
        <ele>68.6</ele>
        <time>2022-05-27T15:36:14Z</time>
      </trkpt>
      <trkpt lat="48.36597" lon="-4.54546">
        <ele>68.6</ele>
        <time>2022-05-27T15:36:25Z</time>
      </trkpt>
      <trkpt lat="48.36571" lon="-4.54485">
        <ele>68.6</ele>
        <time>2022-05-27T15:36:35Z</time>
      </trkpt>
      <trkpt lat="48.36539" lon="-4.54434">
        <ele>68.6</ele>
        <time>2022-05-27T15:36:42Z</time>
      </trkpt>
      <trkpt lat="48.36499" lon="-4.54384">
        <ele>68.6</ele>
        <time>2022-05-27T15:36:49Z</time>
      </trkpt>
      <trkpt lat="48.36493" lon="-4.54376">
        <ele>68.6</ele>
        <time>2022-05-27T15:36:50Z</time>
      </trkpt>
      <trkpt lat="48.36461" lon="-4.54338">
        <ele>68.2</ele>
        <time>2022-05-27T15:36:55Z</time>
      </trkpt>
      <trkpt lat="48.36448" lon="-4.54326">
        <ele>68</ele>
        <time>2022-05-27T15:36:57Z</time>
      </trkpt>
      <trkpt lat="48.3644" lon="-4.54324">
        <ele>67.9</ele>
        <time>2022-05-27T15:36:58Z</time>
      </trkpt>
      <trkpt lat="48.36421" lon="-4.54306">
        <ele>67.7</ele>
        <time>2022-05-27T15:37:01Z</time>
      </trkpt>
      <trkpt lat="48.36397" lon="-4.54282">
        <ele>67.5</ele>
        <time>2022-05-27T15:37:05Z</time>
      </trkpt>
      <trkpt lat="48.36358" lon="-4.54238">
        <ele>67.2</ele>
        <time>2022-05-27T15:37:12Z</time>
      </trkpt>
      <trkpt lat="48.36327" lon="-4.54187">
        <ele>66.8</ele>
        <time>2022-05-27T15:37:19Z</time>
      </trkpt>
      <trkpt lat="48.36299" lon="-4.54133">
        <ele>66.5</ele>
        <time>2022-05-27T15:37:26Z</time>
      </trkpt>
      <trkpt lat="48.36274" lon="-4.5407">
        <ele>66.1</ele>
        <time>2022-05-27T15:37:34Z</time>
      </trkpt>
      <trkpt lat="48.36243" lon="-4.54013">
        <ele>65.8</ele>
        <time>2022-05-27T15:37:41Z</time>
      </trkpt>
      <trkpt lat="48.36213" lon="-4.53967">
        <ele>65.5</ele>
        <time>2022-05-27T15:37:47Z</time>
      </trkpt>
      <trkpt lat="48.36205" lon="-4.53899">
        <ele>65.2</ele>
        <time>2022-05-27T15:37:53Z</time>
      </trkpt>
      <trkpt lat="48.36198" lon="-4.53845">
        <ele>64.9</ele>
        <time>2022-05-27T15:37:58Z</time>
      </trkpt>
      <trkpt lat="48.36194" lon="-4.53834">
        <ele>64.9</ele>
        <time>2022-05-27T15:37:59Z</time>
      </trkpt>
      <trkpt lat="48.36189" lon="-4.53811">
        <ele>64.7</ele>
        <time>2022-05-27T15:38:01Z</time>
      </trkpt>
      <trkpt lat="48.36184" lon="-4.53788">
        <ele>64.1</ele>
        <time>2022-05-27T15:38:03Z</time>
      </trkpt>
      <trkpt lat="48.36162" lon="-4.53745">
        <ele>62.8</ele>
        <time>2022-05-27T15:38:07Z</time>
      </trkpt>
      <trkpt lat="48.36152" lon="-4.53723">
        <ele>61.2</ele>
        <time>2022-05-27T15:38:09Z</time>
      </trkpt>
      <trkpt lat="48.36136" lon="-4.53684">
        <ele>58.7</ele>
        <time>2022-05-27T15:38:12Z</time>
      </trkpt>
      <trkpt lat="48.36121" lon="-4.5362">
        <ele>55.4</ele>
        <time>2022-05-27T15:38:16Z</time>
      </trkpt>
      <trkpt lat="48.36112" lon="-4.53584">
        <ele>53.6</ele>
        <time>2022-05-27T15:38:18Z</time>
      </trkpt>
      <trkpt lat="48.36103" lon="-4.53548">
        <ele>51</ele>
        <time>2022-05-27T15:38:20Z</time>
      </trkpt>
      <trkpt lat="48.36086" lon="-4.53469">
        <ele>45.8</ele>
        <time>2022-05-27T15:38:24Z</time>
      </trkpt>
      <trkpt lat="48.36068" lon="-4.53389">
        <ele>40.3</ele>
        <time>2022-05-27T15:38:28Z</time>
      </trkpt>
      <trkpt lat="48.36061" lon="-4.53352">
        <ele>37.8</ele>
        <time>2022-05-27T15:38:30Z</time>
      </trkpt>
      <trkpt lat="48.36058" lon="-4.53333">
        <ele>37.2</ele>
        <time>2022-05-27T15:38:31Z</time>
      </trkpt>
      <trkpt lat="48.36059" lon="-4.53315">
        <ele>36.6</ele>
        <time>2022-05-27T15:38:32Z</time>
      </trkpt>
      <trkpt lat="48.36064" lon="-4.53298">
        <ele>35.9</ele>
        <time>2022-05-27T15:38:33Z</time>
      </trkpt>
      <trkpt lat="48.36078" lon="-4.53273">
        <ele>34.6</ele>
        <time>2022-05-27T15:38:35Z</time>
      </trkpt>
      <trkpt lat="48.36087" lon="-4.53267">
        <ele>34.1</ele>
        <time>2022-05-27T15:38:36Z</time>
      </trkpt>
      <trkpt lat="48.36125" lon="-4.53243">
        <ele>32.4</ele>
        <time>2022-05-27T15:38:40Z</time>
      </trkpt>
      <trkpt lat="48.36146" lon="-4.53232">
        <ele>31.6</ele>
        <time>2022-05-27T15:38:42Z</time>
      </trkpt>
      <trkpt lat="48.36191" lon="-4.53181">
        <ele>29.5</ele>
        <time>2022-05-27T15:38:47Z</time>
      </trkpt>
      <trkpt lat="48.36199" lon="-4.53172">
        <ele>29</ele>
        <time>2022-05-27T15:38:48Z</time>
      </trkpt>
      <trkpt lat="48.36235" lon="-4.53138">
        <ele>26.9</ele>
        <time>2022-05-27T15:38:52Z</time>
      </trkpt>
      <trkpt lat="48.36253" lon="-4.53122">
        <ele>25.8</ele>
        <time>2022-05-27T15:38:54Z</time>
      </trkpt>
      <trkpt lat="48.36261" lon="-4.53113">
        <ele>25.2</ele>
        <time>2022-05-27T15:38:55Z</time>
      </trkpt>
      <trkpt lat="48.36283" lon="-4.53078">
        <ele>23.3</ele>
        <time>2022-05-27T15:38:58Z</time>
      </trkpt>
      <trkpt lat="48.363" lon="-4.53062">
        <ele>21.9</ele>
        <time>2022-05-27T15:39:00Z</time>
      </trkpt>
      <trkpt lat="48.36318" lon="-4.53064">
        <ele>20.1</ele>
        <time>2022-05-27T15:39:02Z</time>
      </trkpt>
      <trkpt lat="48.36344" lon="-4.5308">
        <ele>17.4</ele>
        <time>2022-05-27T15:39:05Z</time>
      </trkpt>
      <trkpt lat="48.36355" lon="-4.5308">
        <ele>16.6</ele>
        <time>2022-05-27T15:39:06Z</time>
      </trkpt>
      <trkpt lat="48.36397" lon="-4.53077">
        <ele>14.4</ele>
        <time>2022-05-27T15:39:10Z</time>
      </trkpt>
      <trkpt lat="48.36407" lon="-4.53072">
        <ele>13.8</ele>
        <time>2022-05-27T15:39:11Z</time>
      </trkpt>
      <trkpt lat="48.36414" lon="-4.53064">
        <ele>13.5</ele>
        <time>2022-05-27T15:39:12Z</time>
      </trkpt>
      <trkpt lat="48.36417" lon="-4.53053">
        <ele>13.7</ele>
        <time>2022-05-27T15:39:13Z</time>
      </trkpt>
      <trkpt lat="48.36413" lon="-4.53033">
        <ele>14.2</ele>
        <time>2022-05-27T15:39:15Z</time>
      </trkpt>
      <trkpt lat="48.3641" lon="-4.53028">
        <ele>14.4</ele>
        <time>2022-05-27T15:39:16Z</time>
      </trkpt>
      <trkpt lat="48.36407" lon="-4.53013">
        <ele>14.9</ele>
        <time>2022-05-27T15:39:18Z</time>
      </trkpt>
      <trkpt lat="48.36401" lon="-4.52967">
        <ele>17.2</ele>
        <time>2022-05-27T15:39:24Z</time>
      </trkpt>
      <trkpt lat="48.36406" lon="-4.5294">
        <ele>17.4</ele>
        <time>2022-05-27T15:39:27Z</time>
      </trkpt>
      <trkpt lat="48.36414" lon="-4.52915">
        <ele>17.7</ele>
        <time>2022-05-27T15:39:30Z</time>
      </trkpt>
      <trkpt lat="48.36429" lon="-4.52874">
        <ele>18</ele>
        <time>2022-05-27T15:39:35Z</time>
      </trkpt>
      <trkpt lat="48.36432" lon="-4.52867">
        <ele>18</ele>
        <time>2022-05-27T15:39:36Z</time>
      </trkpt>
      <trkpt lat="48.36458" lon="-4.52818">
        <ele>17.5</ele>
        <time>2022-05-27T15:39:43Z</time>
      </trkpt>
      <trkpt lat="48.36488" lon="-4.52764">
        <ele>17</ele>
        <time>2022-05-27T15:39:51Z</time>
      </trkpt>
      <trkpt lat="48.36514" lon="-4.52719">
        <ele>16.5</ele>
        <time>2022-05-27T15:39:58Z</time>
      </trkpt>
      <trkpt lat="48.36532" lon="-4.52694">
        <ele>16.3</ele>
        <time>2022-05-27T15:40:02Z</time>
      </trkpt>
      <trkpt lat="48.36549" lon="-4.52666">
        <ele>16</ele>
        <time>2022-05-27T15:40:06Z</time>
      </trkpt>
      <trkpt lat="48.36582" lon="-4.52616">
        <ele>15.5</ele>
        <time>2022-05-27T15:40:13Z</time>
      </trkpt>
      <trkpt lat="48.36607" lon="-4.5258">
        <ele>15.2</ele>
        <time>2022-05-27T15:40:17Z</time>
      </trkpt>
      <trkpt lat="48.36619" lon="-4.52562">
        <ele>15.2</ele>
        <time>2022-05-27T15:40:19Z</time>
      </trkpt>
      <trkpt lat="48.36636" lon="-4.5251">
        <ele>14.9</ele>
        <time>2022-05-27T15:40:24Z</time>
      </trkpt>
      <trkpt lat="48.36624" lon="-4.52485">
        <ele>14.9</ele>
        <time>2022-05-27T15:40:25Z</time>
      </trkpt>
      <trkpt lat="48.36631" lon="-4.52473">
        <ele>14.9</ele>
        <time>2022-05-27T15:40:28Z</time>
      </trkpt>
      <trkpt lat="48.36642" lon="-4.52454">
        <ele>17.1</ele>
        <time>2022-05-27T15:40:33Z</time>
      </trkpt>
      <trkpt lat="48.36654" lon="-4.52435">
        <ele>19.2</ele>
        <time>2022-05-27T15:40:38Z</time>
      </trkpt>
      <trkpt lat="48.36667" lon="-4.52416">
        <ele>22.1</ele>
        <time>2022-05-27T15:40:45Z</time>
      </trkpt>
      <trkpt lat="48.36687" lon="-4.52385">
        <ele>25.4</ele>
        <time>2022-05-27T15:40:56Z</time>
      </trkpt>
      <trkpt lat="48.3669" lon="-4.52381">
        <ele>25.7</ele>
        <time>2022-05-27T15:40:57Z</time>
      </trkpt>
      <trkpt lat="48.36706" lon="-4.52357">
        <ele>26.9</ele>
        <time>2022-05-27T15:41:03Z</time>
      </trkpt>
      <trkpt lat="48.3673" lon="-4.52358">
        <ele>27.2</ele>
        <time>2022-05-27T15:41:07Z</time>
      </trkpt>
      <trkpt lat="48.36761" lon="-4.5239">
        <ele>27.3</ele>
        <time>2022-05-27T15:41:08Z</time>
      </trkpt>
      <trkpt lat="48.36796" lon="-4.52338">
        <ele>28.3</ele>
        <time>2022-05-27T15:41:21Z</time>
      </trkpt>
      <trkpt lat="48.36822" lon="-4.52278">
        <ele>26.4</ele>
        <time>2022-05-27T15:41:29Z</time>
      </trkpt>
      <trkpt lat="48.36837" lon="-4.52243">
        <ele>25.4</ele>
        <time>2022-05-27T15:41:33Z</time>
      </trkpt>
      <trkpt lat="48.36849" lon="-4.52217">
        <ele>24.5</ele>
        <time>2022-05-27T15:41:36Z</time>
      </trkpt>
      <trkpt lat="48.36874" lon="-4.52155">
        <ele>22.5</ele>
        <time>2022-05-27T15:41:42Z</time>
      </trkpt>
      <trkpt lat="48.36888" lon="-4.52127">
        <ele>21.6</ele>
        <time>2022-05-27T15:41:45Z</time>
      </trkpt>
      <trkpt lat="48.36901" lon="-4.52099">
        <ele>21.2</ele>
        <time>2022-05-27T15:41:48Z</time>
      </trkpt>
      <trkpt lat="48.36916" lon="-4.52074">
        <ele>20.7</ele>
        <time>2022-05-27T15:41:51Z</time>
      </trkpt>
      <trkpt lat="48.36958" lon="-4.52048">
        <ele>20.1</ele>
        <time>2022-05-27T15:41:57Z</time>
      </trkpt>
      <trkpt lat="48.36994" lon="-4.52028">
        <ele>19.5</ele>
        <time>2022-05-27T15:42:02Z</time>
      </trkpt>
      <trkpt lat="48.37019" lon="-4.51999">
        <ele>19.1</ele>
        <time>2022-05-27T15:42:06Z</time>
      </trkpt>
      <trkpt lat="48.3703" lon="-4.51979">
        <ele>18.9</ele>
        <time>2022-05-27T15:42:09Z</time>
      </trkpt>
      <trkpt lat="48.37048" lon="-4.51947">
        <ele>20.4</ele>
        <time>2022-05-27T15:42:14Z</time>
      </trkpt>
      <trkpt lat="48.37052" lon="-4.5194">
        <ele>20.7</ele>
        <time>2022-05-27T15:42:15Z</time>
      </trkpt>
      <trkpt lat="48.37082" lon="-4.51894">
        <ele>20.6</ele>
        <time>2022-05-27T15:42:22Z</time>
      </trkpt>
      <trkpt lat="48.37098" lon="-4.51878">
        <ele>20.6</ele>
        <time>2022-05-27T15:42:25Z</time>
      </trkpt>
      <trkpt lat="48.37123" lon="-4.51852">
        <ele>21</ele>
        <time>2022-05-27T15:42:30Z</time>
      </trkpt>
      <trkpt lat="48.37162" lon="-4.51814">
        <ele>21.5</ele>
        <time>2022-05-27T15:42:38Z</time>
      </trkpt>
      <trkpt lat="48.37195" lon="-4.51762">
        <ele>22.1</ele>
        <time>2022-05-27T15:42:47Z</time>
      </trkpt>
      <trkpt lat="48.37222" lon="-4.5173">
        <ele>22.6</ele>
        <time>2022-05-27T15:42:54Z</time>
      </trkpt>
      <trkpt lat="48.37233" lon="-4.51717">
        <ele>23.2</ele>
        <time>2022-05-27T15:42:57Z</time>
      </trkpt>
      <trkpt lat="48.3727" lon="-4.5167">
        <ele>25.4</ele>
        <time>2022-05-27T15:43:09Z</time>
      </trkpt>
      <trkpt lat="48.37278" lon="-4.51655">
        <ele>25.8</ele>
        <time>2022-05-27T15:43:11Z</time>
      </trkpt>
      <trkpt lat="48.37281" lon="-4.51646">
        <ele>25.9</ele>
        <time>2022-05-27T15:43:12Z</time>
      </trkpt>
      <trkpt lat="48.37296" lon="-4.51598">
        <ele>25.5</ele>
        <time>2022-05-27T15:43:17Z</time>
      </trkpt>
      <trkpt lat="48.37298" lon="-4.51591">
        <ele>25.4</ele>
        <time>2022-05-27T15:43:18Z</time>
      </trkpt>
      <trkpt lat="48.3732" lon="-4.51534">
        <ele>24.2</ele>
        <time>2022-05-27T15:43:26Z</time>
      </trkpt>
      <trkpt lat="48.37348" lon="-4.51468">
        <ele>22.9</ele>
        <time>2022-05-27T15:43:35Z</time>
      </trkpt>
      <trkpt lat="48.37366" lon="-4.51419">
        <ele>22.2</ele>
        <time>2022-05-27T15:43:40Z</time>
      </trkpt>
      <trkpt lat="48.37378" lon="-4.51403">
        <ele>21.8</ele>
        <time>2022-05-27T15:43:42Z</time>
      </trkpt>
      <trkpt lat="48.3739" lon="-4.51386">
        <ele>21</ele>
        <time>2022-05-27T15:43:44Z</time>
      </trkpt>
      <trkpt lat="48.37407" lon="-4.51352">
        <ele>19.3</ele>
        <time>2022-05-27T15:43:48Z</time>
      </trkpt>
      <trkpt lat="48.37421" lon="-4.51343">
        <ele>18</ele>
        <time>2022-05-27T15:43:51Z</time>
      </trkpt>
      <trkpt lat="48.37431" lon="-4.51347">
        <ele>16.8</ele>
        <time>2022-05-27T15:43:54Z</time>
      </trkpt>
      <trkpt lat="48.37442" lon="-4.5135">
        <ele>16.1</ele>
        <time>2022-05-27T15:43:57Z</time>
      </trkpt>
      <trkpt lat="48.37451" lon="-4.51339">
        <ele>15.6</ele>
        <time>2022-05-27T15:43:59Z</time>
      </trkpt>
      <trkpt lat="48.3746" lon="-4.51313">
        <ele>14.8</ele>
        <time>2022-05-27T15:44:02Z</time>
      </trkpt>
      <trkpt lat="48.37471" lon="-4.51296">
        <ele>14.1</ele>
        <time>2022-05-27T15:44:06Z</time>
      </trkpt>
      <trkpt lat="48.37488" lon="-4.5127">
        <ele>17.8</ele>
        <time>2022-05-27T15:44:12Z</time>
      </trkpt>
      <trkpt lat="48.37493" lon="-4.51261">
        <ele>18.5</ele>
        <time>2022-05-27T15:44:14Z</time>
      </trkpt>
      <trkpt lat="48.37511" lon="-4.51228">
        <ele>21.3</ele>
        <time>2022-05-27T15:44:22Z</time>
      </trkpt>
      <trkpt lat="48.37511" lon="-4.5122">
        <ele>21.7</ele>
        <time>2022-05-27T15:44:23Z</time>
      </trkpt>
      <trkpt lat="48.37514" lon="-4.51215">
        <ele>21.9</ele>
        <time>2022-05-27T15:44:24Z</time>
      </trkpt>
      <trkpt lat="48.37529" lon="-4.51192">
        <ele>22.7</ele>
        <time>2022-05-27T15:44:29Z</time>
      </trkpt>
      <trkpt lat="48.37544" lon="-4.51169">
        <ele>23.3</ele>
        <time>2022-05-27T15:44:34Z</time>
      </trkpt>
      <trkpt lat="48.37577" lon="-4.51127">
        <ele>24.6</ele>
        <time>2022-05-27T15:44:44Z</time>
      </trkpt>
      <trkpt lat="48.3758" lon="-4.51123">
        <ele>24.8</ele>
        <time>2022-05-27T15:44:45Z</time>
      </trkpt>
      <trkpt lat="48.37595" lon="-4.51103">
        <ele>25.9</ele>
        <time>2022-05-27T15:44:50Z</time>
      </trkpt>
      <trkpt lat="48.37615" lon="-4.51075">
        <ele>27.8</ele>
        <time>2022-05-27T15:44:57Z</time>
      </trkpt>
      <trkpt lat="48.37628" lon="-4.51052">
        <ele>29</ele>
        <time>2022-05-27T15:45:02Z</time>
      </trkpt>
      <trkpt lat="48.37644" lon="-4.51024">
        <ele>29.6</ele>
        <time>2022-05-27T15:45:08Z</time>
      </trkpt>
      <trkpt lat="48.37647" lon="-4.51019">
        <ele>29.2</ele>
        <time>2022-05-27T15:45:09Z</time>
      </trkpt>
      <trkpt lat="48.37666" lon="-4.50984">
        <ele>27.6</ele>
        <time>2022-05-27T15:45:14Z</time>
      </trkpt>
      <trkpt lat="48.37694" lon="-4.5095">
        <ele>26.7</ele>
        <time>2022-05-27T15:45:20Z</time>
      </trkpt>
      <trkpt lat="48.37698" lon="-4.50943">
        <ele>26.6</ele>
        <time>2022-05-27T15:45:21Z</time>
      </trkpt>
      <trkpt lat="48.37724" lon="-4.50919">
        <ele>26.4</ele>
        <time>2022-05-27T15:45:26Z</time>
      </trkpt>
      <trkpt lat="48.3774" lon="-4.50905">
        <ele>26.9</ele>
        <time>2022-05-27T15:45:29Z</time>
      </trkpt>
      <trkpt lat="48.37781" lon="-4.50867">
        <ele>28.4</ele>
        <time>2022-05-27T15:45:38Z</time>
      </trkpt>
      <trkpt lat="48.37798" lon="-4.50852">
        <ele>29.1</ele>
        <time>2022-05-27T15:45:42Z</time>
      </trkpt>
      <trkpt lat="48.37835" lon="-4.5081">
        <ele>30.8</ele>
        <time>2022-05-27T15:45:51Z</time>
      </trkpt>
      <trkpt lat="48.37872" lon="-4.50767">
        <ele>32.7</ele>
        <time>2022-05-27T15:46:01Z</time>
      </trkpt>
      <trkpt lat="48.37876" lon="-4.50763">
        <ele>32.9</ele>
        <time>2022-05-27T15:46:02Z</time>
      </trkpt>
      <trkpt lat="48.37902" lon="-4.50734">
        <ele>34.3</ele>
        <time>2022-05-27T15:46:09Z</time>
      </trkpt>
      <trkpt lat="48.3794" lon="-4.50687">
        <ele>36.6</ele>
        <time>2022-05-27T15:46:20Z</time>
      </trkpt>
      <trkpt lat="48.37962" lon="-4.50669">
        <ele>36.6</ele>
        <time>2022-05-27T15:46:26Z</time>
      </trkpt>
      <trkpt lat="48.38004" lon="-4.5065">
        <ele>36.6</ele>
        <time>2022-05-27T15:46:38Z</time>
      </trkpt>
      <trkpt lat="48.38011" lon="-4.5064">
        <ele>35.4</ele>
        <time>2022-05-27T15:46:42Z</time>
      </trkpt>
      <trkpt lat="48.38014" lon="-4.50641">
        <ele>35.1</ele>
        <time>2022-05-27T15:46:43Z</time>
      </trkpt>
      <trkpt lat="48.38019" lon="-4.50642">
        <ele>35</ele>
        <time>2022-05-27T15:46:45Z</time>
      </trkpt>
      <trkpt lat="48.38019" lon="-4.50637">
        <ele>34.9</ele>
        <time>2022-05-27T15:46:46Z</time>
      </trkpt>
      <trkpt lat="48.38017" lon="-4.50627">
        <ele>34.8</ele>
        <time>2022-05-27T15:46:47Z</time>
      </trkpt>
      <trkpt lat="48.38019" lon="-4.50624">
        <ele>34.6</ele>
        <time>2022-05-27T15:46:48Z</time>
      </trkpt>
      <trkpt lat="48.38035" lon="-4.50593">
        <ele>32.2</ele>
        <time>2022-05-27T15:46:56Z</time>
      </trkpt>
      <trkpt lat="48.3804" lon="-4.50578">
        <ele>31</ele>
        <time>2022-05-27T15:47:00Z</time>
      </trkpt>
      <trkpt lat="48.38048" lon="-4.50556">
        <ele>29.9</ele>
        <time>2022-05-27T15:47:06Z</time>
      </trkpt>
      <trkpt lat="48.38058" lon="-4.5053">
        <ele>29.2</ele>
        <time>2022-05-27T15:47:13Z</time>
      </trkpt>
      <trkpt lat="48.38076" lon="-4.50482">
        <ele>28.2</ele>
        <time>2022-05-27T15:47:24Z</time>
      </trkpt>
      <trkpt lat="48.38081" lon="-4.50469">
        <ele>28.5</ele>
        <time>2022-05-27T15:47:27Z</time>
      </trkpt>
      <trkpt lat="48.38101" lon="-4.50421">
        <ele>30.3</ele>
        <time>2022-05-27T15:47:42Z</time>
      </trkpt>
      <trkpt lat="48.38103" lon="-4.50418">
        <ele>30.6</ele>
        <time>2022-05-27T15:47:43Z</time>
      </trkpt>
      <trkpt lat="48.38112" lon="-4.50401">
        <ele>32.1</ele>
        <time>2022-05-27T15:47:48Z</time>
      </trkpt>
      <trkpt lat="48.38128" lon="-4.50386">
        <ele>33.9</ele>
        <time>2022-05-27T15:47:54Z</time>
      </trkpt>
      <trkpt lat="48.38152" lon="-4.50365">
        <ele>36.8</ele>
        <time>2022-05-27T15:48:03Z</time>
      </trkpt>
      <trkpt lat="48.38159" lon="-4.5036">
        <ele>37.8</ele>
        <time>2022-05-27T15:48:06Z</time>
      </trkpt>
      <trkpt lat="48.38188" lon="-4.5034">
        <ele>41.2</ele>
        <time>2022-05-27T15:48:18Z</time>
      </trkpt>
      <trkpt lat="48.38203" lon="-4.50341">
        <ele>42.8</ele>
        <time>2022-05-27T15:48:24Z</time>
      </trkpt>
      <trkpt lat="48.38218" lon="-4.50343">
        <ele>44.4</ele>
        <time>2022-05-27T15:48:30Z</time>
      </trkpt>
      <trkpt lat="48.3823" lon="-4.50342">
        <ele>45.3</ele>
        <time>2022-05-27T15:48:35Z</time>
      </trkpt>
      <trkpt lat="48.38228" lon="-4.50306">
        <ele>46.1</ele>
        <time>2022-05-27T15:48:40Z</time>
      </trkpt>
      <trkpt lat="48.38227" lon="-4.5027">
        <ele>45.8</ele>
        <time>2022-05-27T15:48:45Z</time>
      </trkpt>
      <trkpt lat="48.38223" lon="-4.5023">
        <ele>44.4</ele>
        <time>2022-05-27T15:48:51Z</time>
      </trkpt>
      <trkpt lat="48.38221" lon="-4.50204">
        <ele>43.5</ele>
        <time>2022-05-27T15:48:55Z</time>
      </trkpt>
      <trkpt lat="48.38222" lon="-4.50197">
        <ele>43.3</ele>
        <time>2022-05-27T15:48:56Z</time>
      </trkpt>
      <trkpt lat="48.38222" lon="-4.50189">
        <ele>43</ele>
        <time>2022-05-27T15:48:57Z</time>
      </trkpt>
      <trkpt lat="48.38219" lon="-4.50133">
        <ele>41.4</ele>
        <time>2022-05-27T15:49:04Z</time>
      </trkpt>
      <trkpt lat="48.38215" lon="-4.50097">
        <ele>40.2</ele>
        <time>2022-05-27T15:49:09Z</time>
      </trkpt>
      <trkpt lat="48.38212" lon="-4.5006">
        <ele>39.2</ele>
        <time>2022-05-27T15:49:14Z</time>
      </trkpt>
      <trkpt lat="48.38211" lon="-4.50053">
        <ele>39</ele>
        <time>2022-05-27T15:49:15Z</time>
      </trkpt>
      <trkpt lat="48.38212" lon="-4.50028">
        <ele>38</ele>
        <time>2022-05-27T15:49:19Z</time>
      </trkpt>
      <trkpt lat="48.38257" lon="-4.49996">
        <ele>35.9</ele>
        <time>2022-05-27T15:49:28Z</time>
      </trkpt>
      <trkpt lat="48.38288" lon="-4.49979">
        <ele>34.5</ele>
        <time>2022-05-27T15:49:33Z</time>
      </trkpt>
      <trkpt lat="48.38299" lon="-4.49972">
        <ele>33.3</ele>
        <time>2022-05-27T15:49:35Z</time>
      </trkpt>
      <trkpt lat="48.38318" lon="-4.49968">
        <ele>30.9</ele>
        <time>2022-05-27T15:49:39Z</time>
      </trkpt>
      <trkpt lat="48.38385" lon="-4.49941">
        <ele>26.6</ele>
        <time>2022-05-27T15:49:49Z</time>
      </trkpt>
      <trkpt lat="48.38385" lon="-4.49941">
        <ele>26.6</ele>
        <time>2022-05-27T15:51:18Z</time>
      </trkpt>
      <trkpt lat="48.38408" lon="-4.49897">
        <ele>26</ele>
        <time>2022-05-27T15:51:27Z</time>
      </trkpt>
      <trkpt lat="48.38409" lon="-4.4986">
        <ele>26.1</ele>
        <time>2022-05-27T15:51:32Z</time>
      </trkpt>
      <trkpt lat="48.38407" lon="-4.49852">
        <ele>26.2</ele>
        <time>2022-05-27T15:51:33Z</time>
      </trkpt>
      <trkpt lat="48.3841" lon="-4.49826">
        <ele>26.3</ele>
        <time>2022-05-27T15:51:37Z</time>
      </trkpt>
      <trkpt lat="48.38411" lon="-4.49813">
        <ele>26.3</ele>
        <time>2022-05-27T15:51:39Z</time>
      </trkpt>
      <trkpt lat="48.38414" lon="-4.49793">
        <ele>26.5</ele>
        <time>2022-05-27T15:51:42Z</time>
      </trkpt>
      <trkpt lat="48.38422" lon="-4.49752">
        <ele>28.1</ele>
        <time>2022-05-27T15:51:48Z</time>
      </trkpt>
      <trkpt lat="48.38423" lon="-4.49745">
        <ele>28.2</ele>
        <time>2022-05-27T15:51:49Z</time>
      </trkpt>
      <trkpt lat="48.38425" lon="-4.49707">
        <ele>28.8</ele>
        <time>2022-05-27T15:51:54Z</time>
      </trkpt>
      <trkpt lat="48.38427" lon="-4.49676">
        <ele>29.4</ele>
        <time>2022-05-27T15:51:58Z</time>
      </trkpt>
      <trkpt lat="48.38428" lon="-4.49661">
        <ele>29.7</ele>
        <time>2022-05-27T15:52:00Z</time>
      </trkpt>
      <trkpt lat="48.38433" lon="-4.49608">
        <ele>29.9</ele>
        <time>2022-05-27T15:52:07Z</time>
      </trkpt>
      <trkpt lat="48.3844" lon="-4.49549">
        <ele>30.1</ele>
        <time>2022-05-27T15:52:14Z</time>
      </trkpt>
      <trkpt lat="48.38444" lon="-4.49479">
        <ele>30.4</ele>
        <time>2022-05-27T15:52:22Z</time>
      </trkpt>
      <trkpt lat="48.38444" lon="-4.49411">
        <ele>30.7</ele>
        <time>2022-05-27T15:52:30Z</time>
      </trkpt>
      <trkpt lat="48.38443" lon="-4.4936">
        <ele>30.9</ele>
        <time>2022-05-27T15:52:38Z</time>
      </trkpt>
      <trkpt lat="48.38432" lon="-4.4934">
        <ele>31</ele>
        <time>2022-05-27T15:52:42Z</time>
      </trkpt>
      <trkpt lat="48.38415" lon="-4.4931">
        <ele>30.4</ele>
        <time>2022-05-27T15:52:48Z</time>
      </trkpt>
      <trkpt lat="48.38412" lon="-4.49306">
        <ele>30.2</ele>
        <time>2022-05-27T15:52:49Z</time>
      </trkpt>
      <trkpt lat="48.38407" lon="-4.49301">
        <ele>29.4</ele>
        <time>2022-05-27T15:52:53Z</time>
      </trkpt>
      <trkpt lat="48.38402" lon="-4.493">
        <ele>29.3</ele>
        <time>2022-05-27T15:52:56Z</time>
      </trkpt>
      <trkpt lat="48.38395" lon="-4.49308">
        <ele>29.1</ele>
        <time>2022-05-27T15:52:58Z</time>
      </trkpt>
      <trkpt lat="48.38364" lon="-4.49344">
        <ele>27.2</ele>
        <time>2022-05-27T15:53:07Z</time>
      </trkpt>
      <trkpt lat="48.38354" lon="-4.49338">
        <ele>26.8</ele>
        <time>2022-05-27T15:53:09Z</time>
      </trkpt>
      <trkpt lat="48.3835" lon="-4.49332">
        <ele>26.6</ele>
        <time>2022-05-27T15:53:10Z</time>
      </trkpt>
      <trkpt lat="48.38327" lon="-4.49297">
        <ele>26.6</ele>
        <time>2022-05-27T15:53:16Z</time>
      </trkpt>
      <trkpt lat="48.3832" lon="-4.49286">
        <ele>26.6</ele>
        <time>2022-05-27T15:53:18Z</time>
      </trkpt>
      <trkpt lat="48.38288" lon="-4.49237">
        <ele>26.6</ele>
        <time>2022-05-27T15:53:27Z</time>
      </trkpt>
      <trkpt lat="48.3827" lon="-4.49215">
        <ele>26.6</ele>
        <time>2022-05-27T15:53:32Z</time>
      </trkpt>
      <trkpt lat="48.38229" lon="-4.49174">
        <ele>26.5</ele>
        <time>2022-05-27T15:53:44Z</time>
      </trkpt>
      <trkpt lat="48.38218" lon="-4.49174">
        <ele>26.5</ele>
        <time>2022-05-27T15:53:46Z</time>
      </trkpt>
      <trkpt lat="48.38195" lon="-4.49185">
        <ele>26.5</ele>
        <time>2022-05-27T15:53:50Z</time>
      </trkpt>
      <trkpt lat="48.38188" lon="-4.49183">
        <ele>26.5</ele>
        <time>2022-05-27T15:53:51Z</time>
      </trkpt>
      <trkpt lat="48.38183" lon="-4.49177">
        <ele>26.4</ele>
        <time>2022-05-27T15:53:52Z</time>
      </trkpt>
      <trkpt lat="48.38179" lon="-4.4917">
        <ele>26.1</ele>
        <time>2022-05-27T15:53:53Z</time>
      </trkpt>
      <trkpt lat="48.38177" lon="-4.49147">
        <ele>25.6</ele>
        <time>2022-05-27T15:53:55Z</time>
      </trkpt>
      <trkpt lat="48.38187" lon="-4.49118">
        <ele>24.8</ele>
        <time>2022-05-27T15:53:58Z</time>
      </trkpt>
      <trkpt lat="48.382" lon="-4.49078">
        <ele>23.7</ele>
        <time>2022-05-27T15:54:02Z</time>
      </trkpt>
      <trkpt lat="48.38223" lon="-4.49018">
        <ele>22.1</ele>
        <time>2022-05-27T15:54:08Z</time>
      </trkpt>
      <trkpt lat="48.38231" lon="-4.48997">
        <ele>21.6</ele>
        <time>2022-05-27T15:54:10Z</time>
      </trkpt>
      <trkpt lat="48.38247" lon="-4.48955">
        <ele>20.8</ele>
        <time>2022-05-27T15:54:14Z</time>
      </trkpt>
      <trkpt lat="48.38254" lon="-4.48933">
        <ele>20.3</ele>
        <time>2022-05-27T15:54:16Z</time>
      </trkpt>
      <trkpt lat="48.38269" lon="-4.4889">
        <ele>19</ele>
        <time>2022-05-27T15:54:20Z</time>
      </trkpt>
      <trkpt lat="48.38289" lon="-4.48826">
        <ele>16.8</ele>
        <time>2022-05-27T15:54:27Z</time>
      </trkpt>
      <trkpt lat="48.3829" lon="-4.48821">
        <ele>16.5</ele>
        <time>2022-05-27T15:54:28Z</time>
      </trkpt>
      <trkpt lat="48.38293" lon="-4.4879">
        <ele>15.9</ele>
        <time>2022-05-27T15:54:34Z</time>
      </trkpt>
      <trkpt lat="48.38296" lon="-4.48759">
        <ele>15.3</ele>
        <time>2022-05-27T15:54:40Z</time>
      </trkpt>
      <trkpt lat="48.38296" lon="-4.48753">
        <ele>15.2</ele>
        <time>2022-05-27T15:54:41Z</time>
      </trkpt>
      <trkpt lat="48.3831" lon="-4.48683">
        <ele>13.6</ele>
        <time>2022-05-27T15:54:50Z</time>
      </trkpt>
      <trkpt lat="48.38321" lon="-4.48621">
        <ele>12.4</ele>
        <time>2022-05-27T15:54:57Z</time>
      </trkpt>
      <trkpt lat="48.38323" lon="-4.48613">
        <ele>12.2</ele>
        <time>2022-05-27T15:54:58Z</time>
      </trkpt>
      <trkpt lat="48.38325" lon="-4.48594">
        <ele>11.9</ele>
        <time>2022-05-27T15:55:01Z</time>
      </trkpt>
      <trkpt lat="48.38306" lon="-4.48563">
        <ele>10.9</ele>
        <time>2022-05-27T15:55:09Z</time>
      </trkpt>
      <trkpt lat="48.38286" lon="-4.48555">
        <ele>10.4</ele>
        <time>2022-05-27T15:55:14Z</time>
      </trkpt>
      <trkpt lat="48.38263" lon="-4.48545">
        <ele>10.4</ele>
        <time>2022-05-27T15:55:20Z</time>
      </trkpt>
      <trkpt lat="48.38256" lon="-4.48539">
        <ele>10.4</ele>
        <time>2022-05-27T15:55:23Z</time>
      </trkpt>
      <trkpt lat="48.38255" lon="-4.48522">
        <ele>10.4</ele>
        <time>2022-05-27T15:55:25Z</time>
      </trkpt>
      <trkpt lat="48.38272" lon="-4.48457">
        <ele>10.4</ele>
        <time>2022-05-27T15:55:35Z</time>
      </trkpt>
      <trkpt lat="48.38285" lon="-4.4839">
        <ele>10.5</ele>
        <time>2022-05-27T15:55:44Z</time>
      </trkpt>
      <trkpt lat="48.38298" lon="-4.48318">
        <ele>10.5</ele>
        <time>2022-05-27T15:55:54Z</time>
      </trkpt>
      <trkpt lat="48.38308" lon="-4.48249">
        <ele>10.5</ele>
        <time>2022-05-27T15:56:03Z</time>
      </trkpt>
      <trkpt lat="48.38317" lon="-4.48176">
        <ele>10.5</ele>
        <time>2022-05-27T15:56:12Z</time>
      </trkpt>
      <trkpt lat="48.3832" lon="-4.48151">
        <ele>10.6</ele>
        <time>2022-05-27T15:56:15Z</time>
      </trkpt>
      <trkpt lat="48.38331" lon="-4.48084">
        <ele>10.6</ele>
        <time>2022-05-27T15:56:23Z</time>
      </trkpt>
      <trkpt lat="48.38339" lon="-4.48023">
        <ele>10.6</ele>
        <time>2022-05-27T15:56:30Z</time>
      </trkpt>
      <trkpt lat="48.38346" lon="-4.47987">
        <ele>10.6</ele>
        <time>2022-05-27T15:56:34Z</time>
      </trkpt>
      <trkpt lat="48.38357" lon="-4.47914">
        <ele>10.6</ele>
        <time>2022-05-27T15:56:42Z</time>
      </trkpt>
      <trkpt lat="48.38369" lon="-4.47846">
        <ele>10.7</ele>
        <time>2022-05-27T15:56:50Z</time>
      </trkpt>
      <trkpt lat="48.38373" lon="-4.47826">
        <ele>10.7</ele>
        <time>2022-05-27T15:56:58Z</time>
      </trkpt>
      <trkpt lat="48.38384" lon="-4.47859">
        <ele>10.7</ele>
        <time>2022-05-27T15:57:02Z</time>
      </trkpt>
      <trkpt lat="48.38419" lon="-4.47836">
        <ele>10.7</ele>
        <time>2022-05-27T15:57:03Z</time>
      </trkpt>
      <trkpt lat="48.38419" lon="-4.47844">
        <ele>10.7</ele>
        <time>2022-05-27T15:57:04Z</time>
      </trkpt>
      <trkpt lat="48.38421" lon="-4.47839">
        <ele>10.7</ele>
        <time>2022-05-27T15:57:05Z</time>
      </trkpt>
      <trkpt lat="48.38419" lon="-4.47817">
        <ele>10.7</ele>
        <time>2022-05-27T15:57:06Z</time>
      </trkpt>
      <trkpt lat="48.38405" lon="-4.47803">
        <ele>10.7</ele>
        <time>2022-05-27T15:57:08Z</time>
      </trkpt>
      <trkpt lat="48.38425" lon="-4.47817">
        <ele>10.7</ele>
        <time>2022-05-27T15:57:12Z</time>
      </trkpt>
      <trkpt lat="48.38426" lon="-4.47818">
        <ele>10.7</ele>
        <time>2022-05-27T15:57:13Z</time>
      </trkpt>
      <trkpt lat="48.38473" lon="-4.4783">
        <ele>10.7</ele>
        <time>2022-05-27T15:57:21Z</time>
      </trkpt>
      <trkpt lat="48.38473" lon="-4.47828">
        <ele>10.7</ele>
        <time>2022-05-27T15:57:22Z</time>
      </trkpt>
      <trkpt lat="48.38466" lon="-4.47822">
        <ele>10.7</ele>
        <time>2022-05-27T15:57:23Z</time>
      </trkpt>
      <trkpt lat="48.38461" lon="-4.47834">
        <ele>10.7</ele>
        <time>2022-05-27T15:57:24Z</time>
      </trkpt>
      <trkpt lat="48.38447" lon="-4.47859">
        <ele>10.7</ele>
        <time>2022-05-27T15:57:25Z</time>
      </trkpt>
      <trkpt lat="48.38457" lon="-4.4783">
        <ele>10.8</ele>
        <time>2022-05-27T15:57:29Z</time>
      </trkpt>
      <trkpt lat="48.38458" lon="-4.47831">
        <ele>10.8</ele>
        <time>2022-05-27T15:57:30Z</time>
      </trkpt>
      <trkpt lat="48.38475" lon="-4.47783">
        <ele>10.8</ele>
        <time>2022-05-27T15:57:35Z</time>
      </trkpt>
      <trkpt lat="48.38502" lon="-4.47778">
        <ele>10.8</ele>
        <time>2022-05-27T15:57:36Z</time>
      </trkpt>
      <trkpt lat="48.38514" lon="-4.47707">
        <ele>10.8</ele>
        <time>2022-05-27T15:57:43Z</time>
      </trkpt>
      <trkpt lat="48.38529" lon="-4.47641">
        <ele>10.8</ele>
        <time>2022-05-27T15:57:50Z</time>
      </trkpt>
      <trkpt lat="48.38548" lon="-4.47573">
        <ele>10.8</ele>
        <time>2022-05-27T15:57:58Z</time>
      </trkpt>
      <trkpt lat="48.38556" lon="-4.47542">
        <ele>10.9</ele>
        <time>2022-05-27T15:58:02Z</time>
      </trkpt>
      <trkpt lat="48.38555" lon="-4.47533">
        <ele>10.9</ele>
        <time>2022-05-27T15:58:03Z</time>
      </trkpt>
      <trkpt lat="48.38554" lon="-4.47525">
        <ele>10.9</ele>
        <time>2022-05-27T15:58:04Z</time>
      </trkpt>
      <trkpt lat="48.38556" lon="-4.47517">
        <ele>10.9</ele>
        <time>2022-05-27T15:58:05Z</time>
      </trkpt>
      <trkpt lat="48.38549" lon="-4.47485">
        <ele>10.9</ele>
        <time>2022-05-27T15:58:09Z</time>
      </trkpt>
      <trkpt lat="48.38521" lon="-4.47431">
        <ele>10.9</ele>
        <time>2022-05-27T15:58:16Z</time>
      </trkpt>
      <trkpt lat="48.38511" lon="-4.47407">
        <ele>10.9</ele>
        <time>2022-05-27T15:58:19Z</time>
      </trkpt>
      <trkpt lat="48.3851" lon="-4.47357">
        <ele>10.9</ele>
        <time>2022-05-27T15:58:24Z</time>
      </trkpt>
      <trkpt lat="48.38524" lon="-4.47287">
        <ele>10.9</ele>
        <time>2022-05-27T15:58:31Z</time>
      </trkpt>
      <trkpt lat="48.38534" lon="-4.47223">
        <ele>11</ele>
        <time>2022-05-27T15:58:38Z</time>
      </trkpt>
      <trkpt lat="48.38541" lon="-4.47155">
        <ele>11</ele>
        <time>2022-05-27T15:58:45Z</time>
      </trkpt>
      <trkpt lat="48.38549" lon="-4.47083">
        <ele>11</ele>
        <time>2022-05-27T15:58:52Z</time>
      </trkpt>
      <trkpt lat="48.38559" lon="-4.4701">
        <ele>11</ele>
        <time>2022-05-27T15:58:59Z</time>
      </trkpt>
      <trkpt lat="48.38569" lon="-4.46939">
        <ele>11</ele>
        <time>2022-05-27T15:59:06Z</time>
      </trkpt>
      <trkpt lat="48.38577" lon="-4.46869">
        <ele>11.1</ele>
        <time>2022-05-27T15:59:13Z</time>
      </trkpt>
      <trkpt lat="48.38587" lon="-4.46797">
        <ele>11.1</ele>
        <time>2022-05-27T15:59:20Z</time>
      </trkpt>
      <trkpt lat="48.38593" lon="-4.46755">
        <ele>11.1</ele>
        <time>2022-05-27T15:59:24Z</time>
      </trkpt>
      <trkpt lat="48.38601" lon="-4.46684">
        <ele>11.1</ele>
        <time>2022-05-27T15:59:31Z</time>
      </trkpt>
      <trkpt lat="48.38609" lon="-4.46614">
        <ele>11.1</ele>
        <time>2022-05-27T15:59:38Z</time>
      </trkpt>
      <trkpt lat="48.38619" lon="-4.46543">
        <ele>11.1</ele>
        <time>2022-05-27T15:59:45Z</time>
      </trkpt>
      <trkpt lat="48.38626" lon="-4.46468">
        <ele>11.2</ele>
        <time>2022-05-27T15:59:52Z</time>
      </trkpt>
      <trkpt lat="48.38634" lon="-4.46398">
        <ele>11.2</ele>
        <time>2022-05-27T15:59:59Z</time>
      </trkpt>
      <trkpt lat="48.38653" lon="-4.4633">
        <ele>11.2</ele>
        <time>2022-05-27T16:00:06Z</time>
      </trkpt>
      <trkpt lat="48.38678" lon="-4.46281">
        <ele>11.2</ele>
        <time>2022-05-27T16:00:12Z</time>
      </trkpt>
      <trkpt lat="48.38681" lon="-4.4627">
        <ele>11.2</ele>
        <time>2022-05-27T16:00:13Z</time>
      </trkpt>
      <trkpt lat="48.38687" lon="-4.46265">
        <ele>11.2</ele>
        <time>2022-05-27T16:00:14Z</time>
      </trkpt>
      <trkpt lat="48.38694" lon="-4.46261">
        <ele>11.2</ele>
        <time>2022-05-27T16:00:15Z</time>
      </trkpt>
      <trkpt lat="48.38727" lon="-4.4621">
        <ele>11.2</ele>
        <time>2022-05-27T16:00:22Z</time>
      </trkpt>
      <trkpt lat="48.38753" lon="-4.46152">
        <ele>11.3</ele>
        <time>2022-05-27T16:00:29Z</time>
      </trkpt>
      <trkpt lat="48.38773" lon="-4.4609">
        <ele>11.3</ele>
        <time>2022-05-27T16:00:36Z</time>
      </trkpt>
      <trkpt lat="48.38788" lon="-4.46055">
        <ele>11.3</ele>
        <time>2022-05-27T16:00:40Z</time>
      </trkpt>
      <trkpt lat="48.3881" lon="-4.45991">
        <ele>11.3</ele>
        <time>2022-05-27T16:00:47Z</time>
      </trkpt>
      <trkpt lat="48.38815" lon="-4.45968">
        <ele>11.3</ele>
        <time>2022-05-27T16:00:50Z</time>
      </trkpt>
      <trkpt lat="48.38827" lon="-4.4596">
        <ele>11.3</ele>
        <time>2022-05-27T16:00:52Z</time>
      </trkpt>
      <trkpt lat="48.38856" lon="-4.45906">
        <ele>11.3</ele>
        <time>2022-05-27T16:00:59Z</time>
      </trkpt>
      <trkpt lat="48.3888" lon="-4.45849">
        <ele>11.4</ele>
        <time>2022-05-27T16:01:06Z</time>
      </trkpt>
      <trkpt lat="48.38883" lon="-4.4582">
        <ele>11.4</ele>
        <time>2022-05-27T16:01:09Z</time>
      </trkpt>
      <trkpt lat="48.38876" lon="-4.4581">
        <ele>11.4</ele>
        <time>2022-05-27T16:01:10Z</time>
      </trkpt>
      <trkpt lat="48.38875" lon="-4.45777">
        <ele>11.4</ele>
        <time>2022-05-27T16:01:13Z</time>
      </trkpt>
      <trkpt lat="48.38885" lon="-4.45755">
        <ele>11.4</ele>
        <time>2022-05-27T16:01:15Z</time>
      </trkpt>
      <trkpt lat="48.38887" lon="-4.45745">
        <ele>11.4</ele>
        <time>2022-05-27T16:01:16Z</time>
      </trkpt>
      <trkpt lat="48.38889" lon="-4.45717">
        <ele>11.4</ele>
        <time>2022-05-27T16:01:19Z</time>
      </trkpt>
      <trkpt lat="48.38909" lon="-4.45652">
        <ele>11.4</ele>
        <time>2022-05-27T16:01:26Z</time>
      </trkpt>
      <trkpt lat="48.38927" lon="-4.45586">
        <ele>11.4</ele>
        <time>2022-05-27T16:01:33Z</time>
      </trkpt>
      <trkpt lat="48.38947" lon="-4.45524">
        <ele>11.5</ele>
        <time>2022-05-27T16:01:40Z</time>
      </trkpt>
      <trkpt lat="48.38965" lon="-4.4546">
        <ele>11.5</ele>
        <time>2022-05-27T16:01:47Z</time>
      </trkpt>
      <trkpt lat="48.38984" lon="-4.45395">
        <ele>11.5</ele>
        <time>2022-05-27T16:01:54Z</time>
      </trkpt>
      <trkpt lat="48.39003" lon="-4.45331">
        <ele>11.5</ele>
        <time>2022-05-27T16:02:01Z</time>
      </trkpt>
      <trkpt lat="48.39022" lon="-4.45269">
        <ele>11.5</ele>
        <time>2022-05-27T16:02:08Z</time>
      </trkpt>
      <trkpt lat="48.39041" lon="-4.45204">
        <ele>11.6</ele>
        <time>2022-05-27T16:02:15Z</time>
      </trkpt>
      <trkpt lat="48.39061" lon="-4.45138">
        <ele>11.6</ele>
        <time>2022-05-27T16:02:22Z</time>
      </trkpt>
      <trkpt lat="48.39081" lon="-4.4507">
        <ele>11.6</ele>
        <time>2022-05-27T16:02:29Z</time>
      </trkpt>
      <trkpt lat="48.391" lon="-4.45004">
        <ele>11.6</ele>
        <time>2022-05-27T16:02:36Z</time>
      </trkpt>
      <trkpt lat="48.39118" lon="-4.44938">
        <ele>11.6</ele>
        <time>2022-05-27T16:02:43Z</time>
      </trkpt>
      <trkpt lat="48.39136" lon="-4.44875">
        <ele>11.7</ele>
        <time>2022-05-27T16:02:50Z</time>
      </trkpt>
      <trkpt lat="48.39154" lon="-4.44809">
        <ele>11.7</ele>
        <time>2022-05-27T16:02:57Z</time>
      </trkpt>
      <trkpt lat="48.3916" lon="-4.44778">
        <ele>11.7</ele>
        <time>2022-05-27T16:03:00Z</time>
      </trkpt>
      <trkpt lat="48.3916" lon="-4.44768">
        <ele>11.7</ele>
        <time>2022-05-27T16:03:01Z</time>
      </trkpt>
      <trkpt lat="48.39163" lon="-4.44737">
        <ele>11.7</ele>
        <time>2022-05-27T16:03:04Z</time>
      </trkpt>
      <trkpt lat="48.3916" lon="-4.44666">
        <ele>11.7</ele>
        <time>2022-05-27T16:03:11Z</time>
      </trkpt>
      <trkpt lat="48.39152" lon="-4.44618">
        <ele>11.7</ele>
        <time>2022-05-27T16:03:16Z</time>
      </trkpt>
      <trkpt lat="48.39127" lon="-4.44556">
        <ele>11.8</ele>
        <time>2022-05-27T16:03:23Z</time>
      </trkpt>
      <trkpt lat="48.39102" lon="-4.44497">
        <ele>11.8</ele>
        <time>2022-05-27T16:03:30Z</time>
      </trkpt>
      <trkpt lat="48.39083" lon="-4.44448">
        <ele>11.8</ele>
        <time>2022-05-27T16:03:40Z</time>
      </trkpt>
      <trkpt lat="48.39083" lon="-4.44448">
        <ele>11.8</ele>
        <time>2022-05-27T16:04:02Z</time>
      </trkpt>
      <trkpt lat="48.3909" lon="-4.44455">
        <ele>11.9</ele>
        <time>2022-05-27T16:04:07Z</time>
      </trkpt>
      <trkpt lat="48.39092" lon="-4.44459">
        <ele>11.9</ele>
        <time>2022-05-27T16:04:08Z</time>
      </trkpt>
      <trkpt lat="48.39083" lon="-4.44428">
        <ele>14.2</ele>
        <time>2022-05-27T16:04:13Z</time>
      </trkpt>
      <trkpt lat="48.39083" lon="-4.44428">
        <ele>14.2</ele>
        <time>2022-05-27T16:54:45Z</time>
      </trkpt>
      <trkpt lat="48.39063" lon="-4.44401">
        <ele>16.5</ele>
        <time>2022-05-27T16:54:50Z</time>
      </trkpt>
      <trkpt lat="48.39056" lon="-4.44388">
        <ele>16.5</ele>
        <time>2022-05-27T16:54:52Z</time>
      </trkpt>
      <trkpt lat="48.39052" lon="-4.44382">
        <ele>16.5</ele>
        <time>2022-05-27T16:54:53Z</time>
      </trkpt>
      <trkpt lat="48.39051" lon="-4.44373">
        <ele>16.5</ele>
        <time>2022-05-27T16:54:54Z</time>
      </trkpt>
      <trkpt lat="48.39027" lon="-4.44314">
        <ele>16.5</ele>
        <time>2022-05-27T16:55:02Z</time>
      </trkpt>
      <trkpt lat="48.39002" lon="-4.44254">
        <ele>16.5</ele>
        <time>2022-05-27T16:55:10Z</time>
      </trkpt>
      <trkpt lat="48.38978" lon="-4.44194">
        <ele>16.5</ele>
        <time>2022-05-27T16:55:18Z</time>
      </trkpt>
      <trkpt lat="48.38963" lon="-4.4413">
        <ele>16.5</ele>
        <time>2022-05-27T16:55:26Z</time>
      </trkpt>
      <trkpt lat="48.38956" lon="-4.44098">
        <ele>16.5</ele>
        <time>2022-05-27T16:55:30Z</time>
      </trkpt>
      <trkpt lat="48.38949" lon="-4.44077">
        <ele>16.5</ele>
        <time>2022-05-27T16:55:33Z</time>
      </trkpt>
      <trkpt lat="48.38953" lon="-4.44009">
        <ele>16.5</ele>
        <time>2022-05-27T16:55:41Z</time>
      </trkpt>
      <trkpt lat="48.38954" lon="-4.44001">
        <ele>16.5</ele>
        <time>2022-05-27T16:55:42Z</time>
      </trkpt>
      <trkpt lat="48.3897" lon="-4.43936">
        <ele>16.4</ele>
        <time>2022-05-27T16:55:50Z</time>
      </trkpt>
      <trkpt lat="48.38981" lon="-4.4387">
        <ele>16.3</ele>
        <time>2022-05-27T16:55:58Z</time>
      </trkpt>
      <trkpt lat="48.38978" lon="-4.43853">
        <ele>16.3</ele>
        <time>2022-05-27T16:56:00Z</time>
      </trkpt>
      <trkpt lat="48.38979" lon="-4.43845">
        <ele>16.3</ele>
        <time>2022-05-27T16:56:01Z</time>
      </trkpt>
      <trkpt lat="48.38984" lon="-4.43838">
        <ele>16.3</ele>
        <time>2022-05-27T16:56:02Z</time>
      </trkpt>
      <trkpt lat="48.38994" lon="-4.43828">
        <ele>16.3</ele>
        <time>2022-05-27T16:56:04Z</time>
      </trkpt>
      <trkpt lat="48.39011" lon="-4.43765">
        <ele>16.2</ele>
        <time>2022-05-27T16:56:11Z</time>
      </trkpt>
      <trkpt lat="48.39037" lon="-4.43711">
        <ele>16.1</ele>
        <time>2022-05-27T16:56:18Z</time>
      </trkpt>
      <trkpt lat="48.39069" lon="-4.4366">
        <ele>16.1</ele>
        <time>2022-05-27T16:56:25Z</time>
      </trkpt>
      <trkpt lat="48.39073" lon="-4.43642">
        <ele>16</ele>
        <time>2022-05-27T16:56:27Z</time>
      </trkpt>
      <trkpt lat="48.39074" lon="-4.43622">
        <ele>15.8</ele>
        <time>2022-05-27T16:56:29Z</time>
      </trkpt>
      <trkpt lat="48.39083" lon="-4.43608">
        <ele>15.6</ele>
        <time>2022-05-27T16:56:31Z</time>
      </trkpt>
      <trkpt lat="48.39089" lon="-4.43605">
        <ele>15.5</ele>
        <time>2022-05-27T16:56:32Z</time>
      </trkpt>
      <trkpt lat="48.39096" lon="-4.43604">
        <ele>15.5</ele>
        <time>2022-05-27T16:56:33Z</time>
      </trkpt>
      <trkpt lat="48.39122" lon="-4.43607">
        <ele>15.3</ele>
        <time>2022-05-27T16:56:37Z</time>
      </trkpt>
      <trkpt lat="48.39135" lon="-4.436">
        <ele>15.3</ele>
        <time>2022-05-27T16:56:39Z</time>
      </trkpt>
      <trkpt lat="48.39176" lon="-4.43565">
        <ele>15</ele>
        <time>2022-05-27T16:56:46Z</time>
      </trkpt>
      <trkpt lat="48.39218" lon="-4.43533">
        <ele>14.7</ele>
        <time>2022-05-27T16:56:53Z</time>
      </trkpt>
      <trkpt lat="48.39263" lon="-4.43505">
        <ele>14.4</ele>
        <time>2022-05-27T16:57:01Z</time>
      </trkpt>
      <trkpt lat="48.39308" lon="-4.43481">
        <ele>14.1</ele>
        <time>2022-05-27T16:57:09Z</time>
      </trkpt>
      <trkpt lat="48.3935" lon="-4.43457">
        <ele>13.8</ele>
        <time>2022-05-27T16:57:16Z</time>
      </trkpt>
      <trkpt lat="48.39397" lon="-4.43432">
        <ele>13.4</ele>
        <time>2022-05-27T16:57:24Z</time>
      </trkpt>
      <trkpt lat="48.39446" lon="-4.43411">
        <ele>13.1</ele>
        <time>2022-05-27T16:57:33Z</time>
      </trkpt>
      <trkpt lat="48.39489" lon="-4.43391">
        <ele>12.8</ele>
        <time>2022-05-27T16:57:41Z</time>
      </trkpt>
      <trkpt lat="48.3951" lon="-4.43386">
        <ele>12.6</ele>
        <time>2022-05-27T16:57:45Z</time>
      </trkpt>
      <trkpt lat="48.39532" lon="-4.43412">
        <ele>12.4</ele>
        <time>2022-05-27T16:57:52Z</time>
      </trkpt>
      <trkpt lat="48.39547" lon="-4.4343">
        <ele>12.8</ele>
        <time>2022-05-27T16:57:57Z</time>
      </trkpt>
      <trkpt lat="48.39563" lon="-4.43444">
        <ele>13.3</ele>
        <time>2022-05-27T16:58:02Z</time>
      </trkpt>
      <trkpt lat="48.39609" lon="-4.43427">
        <ele>14.2</ele>
        <time>2022-05-27T16:58:12Z</time>
      </trkpt>
      <trkpt lat="48.39645" lon="-4.43403">
        <ele>15.1</ele>
        <time>2022-05-27T16:58:21Z</time>
      </trkpt>
      <trkpt lat="48.39652" lon="-4.43397">
        <ele>15.5</ele>
        <time>2022-05-27T16:58:23Z</time>
      </trkpt>
      <trkpt lat="48.39688" lon="-4.43352">
        <ele>17.9</ele>
        <time>2022-05-27T16:58:34Z</time>
      </trkpt>
      <trkpt lat="48.39699" lon="-4.43324">
        <ele>18.9</ele>
        <time>2022-05-27T16:58:39Z</time>
      </trkpt>
      <trkpt lat="48.39714" lon="-4.43289">
        <ele>19.4</ele>
        <time>2022-05-27T16:58:45Z</time>
      </trkpt>
      <trkpt lat="48.39727" lon="-4.43247">
        <ele>19.9</ele>
        <time>2022-05-27T16:58:51Z</time>
      </trkpt>
      <trkpt lat="48.39733" lon="-4.43226">
        <ele>20.2</ele>
        <time>2022-05-27T16:58:54Z</time>
      </trkpt>
      <trkpt lat="48.39749" lon="-4.43159">
        <ele>21</ele>
        <time>2022-05-27T16:59:03Z</time>
      </trkpt>
      <trkpt lat="48.39762" lon="-4.43092">
        <ele>21.9</ele>
        <time>2022-05-27T16:59:12Z</time>
      </trkpt>
      <trkpt lat="48.39772" lon="-4.43026">
        <ele>22.8</ele>
        <time>2022-05-27T16:59:21Z</time>
      </trkpt>
      <trkpt lat="48.39774" lon="-4.43012">
        <ele>23</ele>
        <time>2022-05-27T16:59:23Z</time>
      </trkpt>
      <trkpt lat="48.3978" lon="-4.42954">
        <ele>23.9</ele>
        <time>2022-05-27T16:59:31Z</time>
      </trkpt>
      <trkpt lat="48.39781" lon="-4.42938">
        <ele>24.1</ele>
        <time>2022-05-27T16:59:33Z</time>
      </trkpt>
      <trkpt lat="48.39783" lon="-4.42882">
        <ele>23.4</ele>
        <time>2022-05-27T16:59:40Z</time>
      </trkpt>
      <trkpt lat="48.39788" lon="-4.42813">
        <ele>22.7</ele>
        <time>2022-05-27T16:59:48Z</time>
      </trkpt>
      <trkpt lat="48.39792" lon="-4.4274">
        <ele>21.9</ele>
        <time>2022-05-27T16:59:56Z</time>
      </trkpt>
      <trkpt lat="48.39795" lon="-4.42667">
        <ele>21.2</ele>
        <time>2022-05-27T17:00:04Z</time>
      </trkpt>
      <trkpt lat="48.39795" lon="-4.42595">
        <ele>20.4</ele>
        <time>2022-05-27T17:00:12Z</time>
      </trkpt>
      <trkpt lat="48.3979" lon="-4.42525">
        <ele>19.7</ele>
        <time>2022-05-27T17:00:19Z</time>
      </trkpt>
      <trkpt lat="48.39786" lon="-4.42504">
        <ele>19.5</ele>
        <time>2022-05-27T17:00:21Z</time>
      </trkpt>
      <trkpt lat="48.39776" lon="-4.42452">
        <ele>18.2</ele>
        <time>2022-05-27T17:00:26Z</time>
      </trkpt>
      <trkpt lat="48.39774" lon="-4.42442">
        <ele>18</ele>
        <time>2022-05-27T17:00:27Z</time>
      </trkpt>
      <trkpt lat="48.39758" lon="-4.42382">
        <ele>16</ele>
        <time>2022-05-27T17:00:33Z</time>
      </trkpt>
      <trkpt lat="48.39742" lon="-4.4232">
        <ele>14.2</ele>
        <time>2022-05-27T17:00:39Z</time>
      </trkpt>
      <trkpt lat="48.39739" lon="-4.42309">
        <ele>14</ele>
        <time>2022-05-27T17:00:40Z</time>
      </trkpt>
      <trkpt lat="48.39722" lon="-4.42241">
        <ele>12.8</ele>
        <time>2022-05-27T17:00:46Z</time>
      </trkpt>
      <trkpt lat="48.39714" lon="-4.42219">
        <ele>12.4</ele>
        <time>2022-05-27T17:00:48Z</time>
      </trkpt>
      <trkpt lat="48.39709" lon="-4.42209">
        <ele>12.2</ele>
        <time>2022-05-27T17:00:49Z</time>
      </trkpt>
      <trkpt lat="48.39706" lon="-4.42198">
        <ele>12</ele>
        <time>2022-05-27T17:00:50Z</time>
      </trkpt>
      <trkpt lat="48.39702" lon="-4.42188">
        <ele>11.9</ele>
        <time>2022-05-27T17:00:51Z</time>
      </trkpt>
      <trkpt lat="48.39685" lon="-4.42138">
        <ele>11.8</ele>
        <time>2022-05-27T17:00:56Z</time>
      </trkpt>
      <trkpt lat="48.39682" lon="-4.42129">
        <ele>11.8</ele>
        <time>2022-05-27T17:00:57Z</time>
      </trkpt>
      <trkpt lat="48.39664" lon="-4.42073">
        <ele>12.3</ele>
        <time>2022-05-27T17:01:03Z</time>
      </trkpt>
      <trkpt lat="48.39643" lon="-4.4201">
        <ele>13.1</ele>
        <time>2022-05-27T17:01:11Z</time>
      </trkpt>
      <trkpt lat="48.39637" lon="-4.42003">
        <ele>13.2</ele>
        <time>2022-05-27T17:01:12Z</time>
      </trkpt>
      <trkpt lat="48.39637" lon="-4.41992">
        <ele>13.3</ele>
        <time>2022-05-27T17:01:13Z</time>
      </trkpt>
      <trkpt lat="48.39637" lon="-4.41983">
        <ele>13.3</ele>
        <time>2022-05-27T17:01:14Z</time>
      </trkpt>
      <trkpt lat="48.39606" lon="-4.41924">
        <ele>14.1</ele>
        <time>2022-05-27T17:01:22Z</time>
      </trkpt>
      <trkpt lat="48.39584" lon="-4.41877">
        <ele>14.6</ele>
        <time>2022-05-27T17:01:28Z</time>
      </trkpt>
      <trkpt lat="48.39578" lon="-4.4186">
        <ele>14.8</ele>
        <time>2022-05-27T17:01:30Z</time>
      </trkpt>
      <trkpt lat="48.39575" lon="-4.41853">
        <ele>14.9</ele>
        <time>2022-05-27T17:01:31Z</time>
      </trkpt>
      <trkpt lat="48.39573" lon="-4.41844">
        <ele>15</ele>
        <time>2022-05-27T17:01:32Z</time>
      </trkpt>
      <trkpt lat="48.39559" lon="-4.41789">
        <ele>15.7</ele>
        <time>2022-05-27T17:01:39Z</time>
      </trkpt>
      <trkpt lat="48.39551" lon="-4.41717">
        <ele>18.2</ele>
        <time>2022-05-27T17:01:49Z</time>
      </trkpt>
      <trkpt lat="48.3955" lon="-4.41703">
        <ele>18.7</ele>
        <time>2022-05-27T17:01:51Z</time>
      </trkpt>
      <trkpt lat="48.39546" lon="-4.41644">
        <ele>21.5</ele>
        <time>2022-05-27T17:02:00Z</time>
      </trkpt>
      <trkpt lat="48.39546" lon="-4.41625">
        <ele>22.4</ele>
        <time>2022-05-27T17:02:03Z</time>
      </trkpt>
      <trkpt lat="48.39545" lon="-4.41593">
        <ele>23.8</ele>
        <time>2022-05-27T17:02:08Z</time>
      </trkpt>
      <trkpt lat="48.3954" lon="-4.41557">
        <ele>25.5</ele>
        <time>2022-05-27T17:02:14Z</time>
      </trkpt>
      <trkpt lat="48.39536" lon="-4.41527">
        <ele>26.9</ele>
        <time>2022-05-27T17:02:19Z</time>
      </trkpt>
      <trkpt lat="48.3953" lon="-4.41486">
        <ele>28.8</ele>
        <time>2022-05-27T17:02:26Z</time>
      </trkpt>
      <trkpt lat="48.39526" lon="-4.41457">
        <ele>29.9</ele>
        <time>2022-05-27T17:02:31Z</time>
      </trkpt>
      <trkpt lat="48.39519" lon="-4.41419">
        <ele>31.5</ele>
        <time>2022-05-27T17:02:38Z</time>
      </trkpt>
      <trkpt lat="48.39517" lon="-4.41407">
        <ele>31.8</ele>
        <time>2022-05-27T17:02:40Z</time>
      </trkpt>
      <trkpt lat="48.3952" lon="-4.41337">
        <ele>33.6</ele>
        <time>2022-05-27T17:02:51Z</time>
      </trkpt>
      <trkpt lat="48.39521" lon="-4.41305">
        <ele>34.4</ele>
        <time>2022-05-27T17:02:56Z</time>
      </trkpt>
      <trkpt lat="48.39523" lon="-4.41267">
        <ele>35</ele>
        <time>2022-05-27T17:03:02Z</time>
      </trkpt>
      <trkpt lat="48.39525" lon="-4.41196">
        <ele>36.1</ele>
        <time>2022-05-27T17:03:13Z</time>
      </trkpt>
      <trkpt lat="48.39521" lon="-4.41125">
        <ele>37.2</ele>
        <time>2022-05-27T17:03:24Z</time>
      </trkpt>
      <trkpt lat="48.3952" lon="-4.41112">
        <ele>37.4</ele>
        <time>2022-05-27T17:03:26Z</time>
      </trkpt>
      <trkpt lat="48.39515" lon="-4.41074">
        <ele>38.3</ele>
        <time>2022-05-27T17:03:32Z</time>
      </trkpt>
      <trkpt lat="48.39513" lon="-4.41055">
        <ele>38.5</ele>
        <time>2022-05-27T17:03:35Z</time>
      </trkpt>
      <trkpt lat="48.3951" lon="-4.41035">
        <ele>38.8</ele>
        <time>2022-05-27T17:03:38Z</time>
      </trkpt>
      <trkpt lat="48.39505" lon="-4.41002">
        <ele>39.4</ele>
        <time>2022-05-27T17:03:43Z</time>
      </trkpt>
      <trkpt lat="48.3949" lon="-4.40931">
        <ele>40.4</ele>
        <time>2022-05-27T17:03:53Z</time>
      </trkpt>
      <trkpt lat="48.39487" lon="-4.40908">
        <ele>40.7</ele>
        <time>2022-05-27T17:03:56Z</time>
      </trkpt>
      <trkpt lat="48.39485" lon="-4.40877">
        <ele>40.7</ele>
        <time>2022-05-27T17:04:00Z</time>
      </trkpt>
      <trkpt lat="48.39486" lon="-4.40869">
        <ele>40.7</ele>
        <time>2022-05-27T17:04:01Z</time>
      </trkpt>
      <trkpt lat="48.39486" lon="-4.40861">
        <ele>40.7</ele>
        <time>2022-05-27T17:04:02Z</time>
      </trkpt>
      <trkpt lat="48.39484" lon="-4.40845">
        <ele>40.5</ele>
        <time>2022-05-27T17:04:04Z</time>
      </trkpt>
      <trkpt lat="48.39466" lon="-4.40804">
        <ele>40.2</ele>
        <time>2022-05-27T17:04:10Z</time>
      </trkpt>
      <trkpt lat="48.39452" lon="-4.40738">
        <ele>39.7</ele>
        <time>2022-05-27T17:04:18Z</time>
      </trkpt>
      <trkpt lat="48.39432" lon="-4.40676">
        <ele>39.2</ele>
        <time>2022-05-27T17:04:26Z</time>
      </trkpt>
      <trkpt lat="48.3941" lon="-4.40617">
        <ele>38.8</ele>
        <time>2022-05-27T17:04:33Z</time>
      </trkpt>
      <trkpt lat="48.39397" lon="-4.40588">
        <ele>38.4</ele>
        <time>2022-05-27T17:04:38Z</time>
      </trkpt>
      <trkpt lat="48.39381" lon="-4.40553">
        <ele>36.9</ele>
        <time>2022-05-27T17:04:44Z</time>
      </trkpt>
      <trkpt lat="48.39349" lon="-4.40501">
        <ele>35.3</ele>
        <time>2022-05-27T17:04:50Z</time>
      </trkpt>
      <trkpt lat="48.39307" lon="-4.4045">
        <ele>33.1</ele>
        <time>2022-05-27T17:04:56Z</time>
      </trkpt>
      <trkpt lat="48.39268" lon="-4.40412">
        <ele>31.3</ele>
        <time>2022-05-27T17:05:01Z</time>
      </trkpt>
      <trkpt lat="48.39261" lon="-4.40406">
        <ele>31</ele>
        <time>2022-05-27T17:05:02Z</time>
      </trkpt>
      <trkpt lat="48.39226" lon="-4.40376">
        <ele>30.6</ele>
        <time>2022-05-27T17:05:07Z</time>
      </trkpt>
      <trkpt lat="48.3922" lon="-4.40371">
        <ele>30.7</ele>
        <time>2022-05-27T17:05:08Z</time>
      </trkpt>
      <trkpt lat="48.39186" lon="-4.40341">
        <ele>31.9</ele>
        <time>2022-05-27T17:05:14Z</time>
      </trkpt>
      <trkpt lat="48.39177" lon="-4.40331">
        <ele>32.3</ele>
        <time>2022-05-27T17:05:16Z</time>
      </trkpt>
      <trkpt lat="48.39174" lon="-4.4032">
        <ele>32.6</ele>
        <time>2022-05-27T17:05:17Z</time>
      </trkpt>
      <trkpt lat="48.39159" lon="-4.40308">
        <ele>33.3</ele>
        <time>2022-05-27T17:05:20Z</time>
      </trkpt>
      <trkpt lat="48.39132" lon="-4.40291">
        <ele>34.3</ele>
        <time>2022-05-27T17:05:25Z</time>
      </trkpt>
      <trkpt lat="48.39125" lon="-4.40294">
        <ele>34.5</ele>
        <time>2022-05-27T17:05:26Z</time>
      </trkpt>
      <trkpt lat="48.39098" lon="-4.40267">
        <ele>35.7</ele>
        <time>2022-05-27T17:05:32Z</time>
      </trkpt>
      <trkpt lat="48.39096" lon="-4.40257">
        <ele>35.9</ele>
        <time>2022-05-27T17:05:33Z</time>
      </trkpt>
      <trkpt lat="48.39081" lon="-4.40247">
        <ele>36.5</ele>
        <time>2022-05-27T17:05:36Z</time>
      </trkpt>
      <trkpt lat="48.39074" lon="-4.40248">
        <ele>36.7</ele>
        <time>2022-05-27T17:05:37Z</time>
      </trkpt>
      <trkpt lat="48.3907" lon="-4.40244">
        <ele>36.9</ele>
        <time>2022-05-27T17:05:38Z</time>
      </trkpt>
      <trkpt lat="48.39046" lon="-4.40219">
        <ele>38.7</ele>
        <time>2022-05-27T17:05:44Z</time>
      </trkpt>
      <trkpt lat="48.39033" lon="-4.40207">
        <ele>39.5</ele>
        <time>2022-05-27T17:05:47Z</time>
      </trkpt>
      <trkpt lat="48.38999" lon="-4.4018">
        <ele>41.8</ele>
        <time>2022-05-27T17:05:56Z</time>
      </trkpt>
      <trkpt lat="48.38991" lon="-4.40174">
        <ele>42.2</ele>
        <time>2022-05-27T17:05:58Z</time>
      </trkpt>
      <trkpt lat="48.38952" lon="-4.40142">
        <ele>44.1</ele>
        <time>2022-05-27T17:06:08Z</time>
      </trkpt>
      <trkpt lat="48.3894" lon="-4.40129">
        <ele>44.4</ele>
        <time>2022-05-27T17:06:11Z</time>
      </trkpt>
      <trkpt lat="48.38926" lon="-4.40117">
        <ele>44.7</ele>
        <time>2022-05-27T17:06:14Z</time>
      </trkpt>
      <trkpt lat="48.38899" lon="-4.40094">
        <ele>44.8</ele>
        <time>2022-05-27T17:06:20Z</time>
      </trkpt>
      <trkpt lat="48.38859" lon="-4.40058">
        <ele>45.1</ele>
        <time>2022-05-27T17:06:29Z</time>
      </trkpt>
      <trkpt lat="48.38818" lon="-4.40025">
        <ele>45.3</ele>
        <time>2022-05-27T17:06:38Z</time>
      </trkpt>
      <trkpt lat="48.38776" lon="-4.39993">
        <ele>45.6</ele>
        <time>2022-05-27T17:06:48Z</time>
      </trkpt>
      <trkpt lat="48.38736" lon="-4.39962">
        <ele>45.8</ele>
        <time>2022-05-27T17:06:56Z</time>
      </trkpt>
      <trkpt lat="48.38693" lon="-4.39927">
        <ele>46</ele>
        <time>2022-05-27T17:07:04Z</time>
      </trkpt>
      <trkpt lat="48.38652" lon="-4.39895">
        <ele>46.3</ele>
        <time>2022-05-27T17:07:12Z</time>
      </trkpt>
      <trkpt lat="48.38612" lon="-4.39862">
        <ele>46.5</ele>
        <time>2022-05-27T17:07:20Z</time>
      </trkpt>
      <trkpt lat="48.38572" lon="-4.39829">
        <ele>46.7</ele>
        <time>2022-05-27T17:07:28Z</time>
      </trkpt>
      <trkpt lat="48.38532" lon="-4.39796">
        <ele>46.9</ele>
        <time>2022-05-27T17:07:36Z</time>
      </trkpt>
      <trkpt lat="48.38488" lon="-4.39761">
        <ele>47.1</ele>
        <time>2022-05-27T17:07:45Z</time>
      </trkpt>
      <trkpt lat="48.38447" lon="-4.39727">
        <ele>47.4</ele>
        <time>2022-05-27T17:07:53Z</time>
      </trkpt>
      <trkpt lat="48.38406" lon="-4.39683">
        <ele>47.6</ele>
        <time>2022-05-27T17:08:01Z</time>
      </trkpt>
      <trkpt lat="48.38376" lon="-4.39631">
        <ele>47.8</ele>
        <time>2022-05-27T17:08:09Z</time>
      </trkpt>
      <trkpt lat="48.38358" lon="-4.3957">
        <ele>48</ele>
        <time>2022-05-27T17:08:17Z</time>
      </trkpt>
      <trkpt lat="48.38356" lon="-4.3954">
        <ele>48.2</ele>
        <time>2022-05-27T17:08:22Z</time>
      </trkpt>
      <trkpt lat="48.38362" lon="-4.39525">
        <ele>48.3</ele>
        <time>2022-05-27T17:08:25Z</time>
      </trkpt>
      <trkpt lat="48.38373" lon="-4.39493">
        <ele>48.9</ele>
        <time>2022-05-27T17:08:31Z</time>
      </trkpt>
      <trkpt lat="48.3837" lon="-4.39485">
        <ele>49.1</ele>
        <time>2022-05-27T17:08:33Z</time>
      </trkpt>
      <trkpt lat="48.38358" lon="-4.3948">
        <ele>49.4</ele>
        <time>2022-05-27T17:08:36Z</time>
      </trkpt>
      <trkpt lat="48.38355" lon="-4.39478">
        <ele>49.6</ele>
        <time>2022-05-27T17:08:37Z</time>
      </trkpt>
      <trkpt lat="48.3835" lon="-4.39465">
        <ele>50.2</ele>
        <time>2022-05-27T17:08:40Z</time>
      </trkpt>
      <trkpt lat="48.3835" lon="-4.39459">
        <ele>50.4</ele>
        <time>2022-05-27T17:08:41Z</time>
      </trkpt>
      <trkpt lat="48.38352" lon="-4.39397">
        <ele>51.6</ele>
        <time>2022-05-27T17:08:51Z</time>
      </trkpt>
      <trkpt lat="48.38353" lon="-4.39384">
        <ele>51.8</ele>
        <time>2022-05-27T17:08:53Z</time>
      </trkpt>
      <trkpt lat="48.38354" lon="-4.39359">
        <ele>52.3</ele>
        <time>2022-05-27T17:08:57Z</time>
      </trkpt>
      <trkpt lat="48.38355" lon="-4.39346">
        <ele>52.6</ele>
        <time>2022-05-27T17:08:59Z</time>
      </trkpt>
      <trkpt lat="48.38357" lon="-4.39327">
        <ele>53.2</ele>
        <time>2022-05-27T17:09:02Z</time>
      </trkpt>
      <trkpt lat="48.38359" lon="-4.39256">
        <ele>55.2</ele>
        <time>2022-05-27T17:09:13Z</time>
      </trkpt>
      <trkpt lat="48.38361" lon="-4.3923">
        <ele>55.9</ele>
        <time>2022-05-27T17:09:17Z</time>
      </trkpt>
      <trkpt lat="48.38366" lon="-4.39186">
        <ele>57.1</ele>
        <time>2022-05-27T17:09:24Z</time>
      </trkpt>
      <trkpt lat="48.38369" lon="-4.39116">
        <ele>59.1</ele>
        <time>2022-05-27T17:09:35Z</time>
      </trkpt>
      <trkpt lat="48.38366" lon="-4.3908">
        <ele>60.3</ele>
        <time>2022-05-27T17:09:41Z</time>
      </trkpt>
      <trkpt lat="48.38363" lon="-4.39044">
        <ele>62</ele>
        <time>2022-05-27T17:09:47Z</time>
      </trkpt>
      <trkpt lat="48.38363" lon="-4.39008">
        <ele>63.2</ele>
        <time>2022-05-27T17:09:53Z</time>
      </trkpt>
      <trkpt lat="48.38362" lon="-4.38973">
        <ele>64.5</ele>
        <time>2022-05-27T17:09:59Z</time>
      </trkpt>
      <trkpt lat="48.38369" lon="-4.38901">
        <ele>67.1</ele>
        <time>2022-05-27T17:10:11Z</time>
      </trkpt>
      <trkpt lat="48.38375" lon="-4.3883">
        <ele>69.7</ele>
        <time>2022-05-27T17:10:23Z</time>
      </trkpt>
      <trkpt lat="48.38377" lon="-4.38795">
        <ele>71</ele>
        <time>2022-05-27T17:10:29Z</time>
      </trkpt>
      <trkpt lat="48.3838" lon="-4.3876">
        <ele>72.3</ele>
        <time>2022-05-27T17:10:35Z</time>
      </trkpt>
      <trkpt lat="48.38382" lon="-4.38708">
        <ele>74.3</ele>
        <time>2022-05-27T17:10:44Z</time>
      </trkpt>
      <trkpt lat="48.38382" lon="-4.38691">
        <ele>74.8</ele>
        <time>2022-05-27T17:10:47Z</time>
      </trkpt>
      <trkpt lat="48.38384" lon="-4.3862">
        <ele>77</ele>
        <time>2022-05-27T17:10:59Z</time>
      </trkpt>
      <trkpt lat="48.38387" lon="-4.38583">
        <ele>78.1</ele>
        <time>2022-05-27T17:11:05Z</time>
      </trkpt>
      <trkpt lat="48.38389" lon="-4.38553">
        <ele>79.1</ele>
        <time>2022-05-27T17:11:10Z</time>
      </trkpt>
      <trkpt lat="48.38391" lon="-4.38485">
        <ele>81.4</ele>
        <time>2022-05-27T17:11:21Z</time>
      </trkpt>
      <trkpt lat="48.3839" lon="-4.38473">
        <ele>81.8</ele>
        <time>2022-05-27T17:11:23Z</time>
      </trkpt>
      <trkpt lat="48.38387" lon="-4.38412">
        <ele>83.8</ele>
        <time>2022-05-27T17:11:33Z</time>
      </trkpt>
      <trkpt lat="48.38381" lon="-4.38365">
        <ele>85.5</ele>
        <time>2022-05-27T17:11:41Z</time>
      </trkpt>
      <trkpt lat="48.38377" lon="-4.38341">
        <ele>86.4</ele>
        <time>2022-05-27T17:11:45Z</time>
      </trkpt>
      <trkpt lat="48.38369" lon="-4.38269">
        <ele>89.1</ele>
        <time>2022-05-27T17:11:57Z</time>
      </trkpt>
      <trkpt lat="48.38368" lon="-4.38257">
        <ele>89.5</ele>
        <time>2022-05-27T17:11:59Z</time>
      </trkpt>
      <trkpt lat="48.38363" lon="-4.38198">
        <ele>91.8</ele>
        <time>2022-05-27T17:12:09Z</time>
      </trkpt>
      <trkpt lat="48.38359" lon="-4.3815">
        <ele>93.5</ele>
        <time>2022-05-27T17:12:17Z</time>
      </trkpt>
      <trkpt lat="48.38357" lon="-4.38125">
        <ele>94.3</ele>
        <time>2022-05-27T17:12:21Z</time>
      </trkpt>
      <trkpt lat="48.38352" lon="-4.38054">
        <ele>96.8</ele>
        <time>2022-05-27T17:12:33Z</time>
      </trkpt>
      <trkpt lat="48.38351" lon="-4.38042">
        <ele>97.2</ele>
        <time>2022-05-27T17:12:35Z</time>
      </trkpt>
      <trkpt lat="48.38349" lon="-4.37983">
        <ele>99.2</ele>
        <time>2022-05-27T17:12:45Z</time>
      </trkpt>
      <trkpt lat="48.38347" lon="-4.37944">
        <ele>100.6</ele>
        <time>2022-05-27T17:12:52Z</time>
      </trkpt>
      <trkpt lat="48.38344" lon="-4.37911">
        <ele>101.4</ele>
        <time>2022-05-27T17:12:58Z</time>
      </trkpt>
      <trkpt lat="48.3832" lon="-4.37853">
        <ele>102.8</ele>
        <time>2022-05-27T17:13:09Z</time>
      </trkpt>
      <trkpt lat="48.38306" lon="-4.37822">
        <ele>104</ele>
        <time>2022-05-27T17:13:15Z</time>
      </trkpt>
      <trkpt lat="48.38294" lon="-4.37796">
        <ele>104.5</ele>
        <time>2022-05-27T17:13:20Z</time>
      </trkpt>
      <trkpt lat="48.38277" lon="-4.37763">
        <ele>105.1</ele>
        <time>2022-05-27T17:13:26Z</time>
      </trkpt>
      <trkpt lat="48.38277" lon="-4.37755">
        <ele>105.1</ele>
        <time>2022-05-27T17:13:27Z</time>
      </trkpt>
      <trkpt lat="48.38277" lon="-4.3769">
        <ele>104.3</ele>
        <time>2022-05-27T17:13:35Z</time>
      </trkpt>
      <trkpt lat="48.38272" lon="-4.3762">
        <ele>103.6</ele>
        <time>2022-05-27T17:13:42Z</time>
      </trkpt>
      <trkpt lat="48.38266" lon="-4.37591">
        <ele>103.3</ele>
        <time>2022-05-27T17:13:45Z</time>
      </trkpt>
      <trkpt lat="48.38257" lon="-4.37552">
        <ele>103.1</ele>
        <time>2022-05-27T17:13:49Z</time>
      </trkpt>
      <trkpt lat="48.38238" lon="-4.3749">
        <ele>102.8</ele>
        <time>2022-05-27T17:13:56Z</time>
      </trkpt>
      <trkpt lat="48.38235" lon="-4.37483">
        <ele>102.8</ele>
        <time>2022-05-27T17:13:57Z</time>
      </trkpt>
      <trkpt lat="48.38222" lon="-4.37437">
        <ele>104.1</ele>
        <time>2022-05-27T17:14:03Z</time>
      </trkpt>
      <trkpt lat="48.38218" lon="-4.37423">
        <ele>104.4</ele>
        <time>2022-05-27T17:14:05Z</time>
      </trkpt>
      <trkpt lat="48.38199" lon="-4.37355">
        <ele>106.2</ele>
        <time>2022-05-27T17:14:15Z</time>
      </trkpt>
      <trkpt lat="48.38187" lon="-4.37313">
        <ele>107.3</ele>
        <time>2022-05-27T17:14:21Z</time>
      </trkpt>
      <trkpt lat="48.38179" lon="-4.37285">
        <ele>107.6</ele>
        <time>2022-05-27T17:14:25Z</time>
      </trkpt>
      <trkpt lat="48.38175" lon="-4.3727">
        <ele>107.8</ele>
        <time>2022-05-27T17:14:27Z</time>
      </trkpt>
      <trkpt lat="48.38162" lon="-4.37216">
        <ele>108.8</ele>
        <time>2022-05-27T17:14:34Z</time>
      </trkpt>
      <trkpt lat="48.38149" lon="-4.37148">
        <ele>110</ele>
        <time>2022-05-27T17:14:43Z</time>
      </trkpt>
      <trkpt lat="48.38148" lon="-4.37141">
        <ele>110.1</ele>
        <time>2022-05-27T17:14:44Z</time>
      </trkpt>
      <trkpt lat="48.38138" lon="-4.37079">
        <ele>111.9</ele>
        <time>2022-05-27T17:14:53Z</time>
      </trkpt>
      <trkpt lat="48.3813" lon="-4.37017">
        <ele>113.7</ele>
        <time>2022-05-27T17:15:02Z</time>
      </trkpt>
      <trkpt lat="48.3813" lon="-4.37011">
        <ele>113.9</ele>
        <time>2022-05-27T17:15:03Z</time>
      </trkpt>
      <trkpt lat="48.38124" lon="-4.36941">
        <ele>116.1</ele>
        <time>2022-05-27T17:15:14Z</time>
      </trkpt>
      <trkpt lat="48.38124" lon="-4.36902">
        <ele>117.4</ele>
        <time>2022-05-27T17:15:20Z</time>
      </trkpt>
      <trkpt lat="48.38123" lon="-4.3687">
        <ele>118.3</ele>
        <time>2022-05-27T17:15:25Z</time>
      </trkpt>
      <trkpt lat="48.38125" lon="-4.36797">
        <ele>120.4</ele>
        <time>2022-05-27T17:15:36Z</time>
      </trkpt>
      <trkpt lat="48.38125" lon="-4.36783">
        <ele>120.8</ele>
        <time>2022-05-27T17:15:38Z</time>
      </trkpt>
      <trkpt lat="48.38125" lon="-4.36741">
        <ele>121.2</ele>
        <time>2022-05-27T17:15:44Z</time>
      </trkpt>
      <trkpt lat="48.38126" lon="-4.36727">
        <ele>121.2</ele>
        <time>2022-05-27T17:15:46Z</time>
      </trkpt>
      <trkpt lat="48.3813" lon="-4.36658">
        <ele>121.1</ele>
        <time>2022-05-27T17:15:55Z</time>
      </trkpt>
      <trkpt lat="48.38137" lon="-4.36586">
        <ele>121.1</ele>
        <time>2022-05-27T17:16:04Z</time>
      </trkpt>
      <trkpt lat="48.38142" lon="-4.36519">
        <ele>121</ele>
        <time>2022-05-27T17:16:12Z</time>
      </trkpt>
      <trkpt lat="48.38148" lon="-4.3645">
        <ele>120.9</ele>
        <time>2022-05-27T17:16:20Z</time>
      </trkpt>
      <trkpt lat="48.38154" lon="-4.36377">
        <ele>120.9</ele>
        <time>2022-05-27T17:16:28Z</time>
      </trkpt>
      <trkpt lat="48.3816" lon="-4.36301">
        <ele>120.8</ele>
        <time>2022-05-27T17:16:36Z</time>
      </trkpt>
      <trkpt lat="48.38168" lon="-4.36232">
        <ele>120.8</ele>
        <time>2022-05-27T17:16:43Z</time>
      </trkpt>
      <trkpt lat="48.38174" lon="-4.36164">
        <ele>120.7</ele>
        <time>2022-05-27T17:16:50Z</time>
      </trkpt>
      <trkpt lat="48.3818" lon="-4.36096">
        <ele>120.7</ele>
        <time>2022-05-27T17:16:57Z</time>
      </trkpt>
      <trkpt lat="48.38186" lon="-4.36028">
        <ele>120.6</ele>
        <time>2022-05-27T17:17:04Z</time>
      </trkpt>
      <trkpt lat="48.38189" lon="-4.35957">
        <ele>120.6</ele>
        <time>2022-05-27T17:17:11Z</time>
      </trkpt>
      <trkpt lat="48.3819" lon="-4.35887">
        <ele>120.5</ele>
        <time>2022-05-27T17:17:18Z</time>
      </trkpt>
      <trkpt lat="48.38187" lon="-4.35815">
        <ele>120.5</ele>
        <time>2022-05-27T17:17:25Z</time>
      </trkpt>
      <trkpt lat="48.38184" lon="-4.35745">
        <ele>120.4</ele>
        <time>2022-05-27T17:17:32Z</time>
      </trkpt>
      <trkpt lat="48.38178" lon="-4.35708">
        <ele>120.4</ele>
        <time>2022-05-27T17:17:37Z</time>
      </trkpt>
      <trkpt lat="48.38185" lon="-4.35668">
        <ele>120.3</ele>
        <time>2022-05-27T17:17:42Z</time>
      </trkpt>
      <trkpt lat="48.38185" lon="-4.35598">
        <ele>120.3</ele>
        <time>2022-05-27T17:17:49Z</time>
      </trkpt>
      <trkpt lat="48.38189" lon="-4.35543">
        <ele>120.2</ele>
        <time>2022-05-27T17:17:54Z</time>
      </trkpt>
      <trkpt lat="48.3819" lon="-4.35521">
        <ele>120</ele>
        <time>2022-05-27T17:17:56Z</time>
      </trkpt>
      <trkpt lat="48.38191" lon="-4.35446">
        <ele>119.3</ele>
        <time>2022-05-27T17:18:03Z</time>
      </trkpt>
      <trkpt lat="48.38193" lon="-4.35413">
        <ele>119</ele>
        <time>2022-05-27T17:18:06Z</time>
      </trkpt>
      <trkpt lat="48.38195" lon="-4.35369">
        <ele>118.4</ele>
        <time>2022-05-27T17:18:10Z</time>
      </trkpt>
      <trkpt lat="48.38196" lon="-4.35345">
        <ele>118.1</ele>
        <time>2022-05-27T17:18:12Z</time>
      </trkpt>
      <trkpt lat="48.38197" lon="-4.35298">
        <ele>117.7</ele>
        <time>2022-05-27T17:18:16Z</time>
      </trkpt>
      <trkpt lat="48.38198" lon="-4.35274">
        <ele>117.4</ele>
        <time>2022-05-27T17:18:18Z</time>
      </trkpt>
      <trkpt lat="48.38201" lon="-4.35225">
        <ele>116.6</ele>
        <time>2022-05-27T17:18:22Z</time>
      </trkpt>
      <trkpt lat="48.382" lon="-4.35201">
        <ele>116.2</ele>
        <time>2022-05-27T17:18:24Z</time>
      </trkpt>
      <trkpt lat="48.38196" lon="-4.35189">
        <ele>116.1</ele>
        <time>2022-05-27T17:18:25Z</time>
      </trkpt>
      <trkpt lat="48.38197" lon="-4.35118">
        <ele>115.5</ele>
        <time>2022-05-27T17:18:31Z</time>
      </trkpt>
      <trkpt lat="48.38192" lon="-4.35047">
        <ele>114.8</ele>
        <time>2022-05-27T17:18:37Z</time>
      </trkpt>
      <trkpt lat="48.38187" lon="-4.34991">
        <ele>114.4</ele>
        <time>2022-05-27T17:18:42Z</time>
      </trkpt>
      <trkpt lat="48.38186" lon="-4.3498">
        <ele>114.3</ele>
        <time>2022-05-27T17:18:43Z</time>
      </trkpt>
      <trkpt lat="48.3818" lon="-4.34919">
        <ele>113.9</ele>
        <time>2022-05-27T17:18:49Z</time>
      </trkpt>
      <trkpt lat="48.38181" lon="-4.3489">
        <ele>113.7</ele>
        <time>2022-05-27T17:18:52Z</time>
      </trkpt>
      <trkpt lat="48.38177" lon="-4.34884">
        <ele>113.7</ele>
        <time>2022-05-27T17:18:53Z</time>
      </trkpt>
      <trkpt lat="48.38172" lon="-4.34857">
        <ele>113.5</ele>
        <time>2022-05-27T17:18:56Z</time>
      </trkpt>
      <trkpt lat="48.38182" lon="-4.34818">
        <ele>113.2</ele>
        <time>2022-05-27T17:19:01Z</time>
      </trkpt>
      <trkpt lat="48.38164" lon="-4.34747">
        <ele>112.7</ele>
        <time>2022-05-27T17:19:10Z</time>
      </trkpt>
      <trkpt lat="48.3815" lon="-4.34687">
        <ele>112.2</ele>
        <time>2022-05-27T17:19:16Z</time>
      </trkpt>
      <trkpt lat="48.38147" lon="-4.34676">
        <ele>111.9</ele>
        <time>2022-05-27T17:19:17Z</time>
      </trkpt>
      <trkpt lat="48.38129" lon="-4.34607">
        <ele>109.9</ele>
        <time>2022-05-27T17:19:23Z</time>
      </trkpt>
      <trkpt lat="48.38119" lon="-4.3454">
        <ele>108.2</ele>
        <time>2022-05-27T17:19:28Z</time>
      </trkpt>
      <trkpt lat="48.38117" lon="-4.34472">
        <ele>106.8</ele>
        <time>2022-05-27T17:19:33Z</time>
      </trkpt>
      <trkpt lat="48.38122" lon="-4.34402">
        <ele>105.4</ele>
        <time>2022-05-27T17:19:38Z</time>
      </trkpt>
      <trkpt lat="48.38124" lon="-4.34373">
        <ele>104.8</ele>
        <time>2022-05-27T17:19:40Z</time>
      </trkpt>
      <trkpt lat="48.38127" lon="-4.34328">
        <ele>103.4</ele>
        <time>2022-05-27T17:19:43Z</time>
      </trkpt>
      <trkpt lat="48.38132" lon="-4.34251">
        <ele>101.2</ele>
        <time>2022-05-27T17:19:48Z</time>
      </trkpt>
      <trkpt lat="48.38134" lon="-4.34188">
        <ele>99.4</ele>
        <time>2022-05-27T17:19:52Z</time>
      </trkpt>
      <trkpt lat="48.38135" lon="-4.34172">
        <ele>98.8</ele>
        <time>2022-05-27T17:19:53Z</time>
      </trkpt>
      <trkpt lat="48.38138" lon="-4.34107">
        <ele>96.7</ele>
        <time>2022-05-27T17:19:57Z</time>
      </trkpt>
      <trkpt lat="48.38137" lon="-4.3409">
        <ele>96.2</ele>
        <time>2022-05-27T17:19:58Z</time>
      </trkpt>
      <trkpt lat="48.38135" lon="-4.34024">
        <ele>94.1</ele>
        <time>2022-05-27T17:20:02Z</time>
      </trkpt>
      <trkpt lat="48.38136" lon="-4.33991">
        <ele>93.1</ele>
        <time>2022-05-27T17:20:04Z</time>
      </trkpt>
      <trkpt lat="48.38137" lon="-4.33941">
        <ele>91.6</ele>
        <time>2022-05-27T17:20:07Z</time>
      </trkpt>
      <trkpt lat="48.3814" lon="-4.33892">
        <ele>90.1</ele>
        <time>2022-05-27T17:20:10Z</time>
      </trkpt>
      <trkpt lat="48.38156" lon="-4.33826">
        <ele>88</ele>
        <time>2022-05-27T17:20:14Z</time>
      </trkpt>
      <trkpt lat="48.3816" lon="-4.33809">
        <ele>87.5</ele>
        <time>2022-05-27T17:20:15Z</time>
      </trkpt>
      <trkpt lat="48.38186" lon="-4.33751">
        <ele>85.4</ele>
        <time>2022-05-27T17:20:19Z</time>
      </trkpt>
      <trkpt lat="48.38207" lon="-4.33709">
        <ele>83.7</ele>
        <time>2022-05-27T17:20:22Z</time>
      </trkpt>
      <trkpt lat="48.38213" lon="-4.33695">
        <ele>82.8</ele>
        <time>2022-05-27T17:20:23Z</time>
      </trkpt>
      <trkpt lat="48.38237" lon="-4.33636">
        <ele>79.4</ele>
        <time>2022-05-27T17:20:27Z</time>
      </trkpt>
      <trkpt lat="48.38242" lon="-4.33619">
        <ele>78.6</ele>
        <time>2022-05-27T17:20:28Z</time>
      </trkpt>
      <trkpt lat="48.3825" lon="-4.33585">
        <ele>77.5</ele>
        <time>2022-05-27T17:20:30Z</time>
      </trkpt>
      <trkpt lat="48.38255" lon="-4.33518">
        <ele>75.3</ele>
        <time>2022-05-27T17:20:34Z</time>
      </trkpt>
      <trkpt lat="48.3825" lon="-4.33453">
        <ele>74.7</ele>
        <time>2022-05-27T17:20:38Z</time>
      </trkpt>
      <trkpt lat="48.38233" lon="-4.33386">
        <ele>74</ele>
        <time>2022-05-27T17:20:43Z</time>
      </trkpt>
      <trkpt lat="48.38223" lon="-4.33349">
        <ele>73.6</ele>
        <time>2022-05-27T17:20:46Z</time>
      </trkpt>
      <trkpt lat="48.38218" lon="-4.33337">
        <ele>73.4</ele>
        <time>2022-05-27T17:20:47Z</time>
      </trkpt>
      <trkpt lat="48.38215" lon="-4.33324">
        <ele>73.3</ele>
        <time>2022-05-27T17:20:48Z</time>
      </trkpt>
      <trkpt lat="48.3819" lon="-4.33254">
        <ele>72.4</ele>
        <time>2022-05-27T17:20:54Z</time>
      </trkpt>
      <trkpt lat="48.38168" lon="-4.33189">
        <ele>71.5</ele>
        <time>2022-05-27T17:21:00Z</time>
      </trkpt>
      <trkpt lat="48.38137" lon="-4.33124">
        <ele>70.6</ele>
        <time>2022-05-27T17:21:06Z</time>
      </trkpt>
      <trkpt lat="48.38116" lon="-4.3309">
        <ele>70</ele>
        <time>2022-05-27T17:21:09Z</time>
      </trkpt>
      <trkpt lat="48.38102" lon="-4.33068">
        <ele>68.9</ele>
        <time>2022-05-27T17:21:11Z</time>
      </trkpt>
      <trkpt lat="48.38078" lon="-4.33032">
        <ele>67.1</ele>
        <time>2022-05-27T17:21:14Z</time>
      </trkpt>
      <trkpt lat="48.38063" lon="-4.33008">
        <ele>65.6</ele>
        <time>2022-05-27T17:21:16Z</time>
      </trkpt>
      <trkpt lat="48.38038" lon="-4.32967">
        <ele>63.5</ele>
        <time>2022-05-27T17:21:19Z</time>
      </trkpt>
      <trkpt lat="48.3803" lon="-4.32953">
        <ele>62.9</ele>
        <time>2022-05-27T17:21:20Z</time>
      </trkpt>
      <trkpt lat="48.37997" lon="-4.329">
        <ele>60.3</ele>
        <time>2022-05-27T17:21:24Z</time>
      </trkpt>
      <trkpt lat="48.3799" lon="-4.32886">
        <ele>59.9</ele>
        <time>2022-05-27T17:21:25Z</time>
      </trkpt>
      <trkpt lat="48.37971" lon="-4.32847">
        <ele>60</ele>
        <time>2022-05-27T17:21:28Z</time>
      </trkpt>
      <trkpt lat="48.37946" lon="-4.32787">
        <ele>60</ele>
        <time>2022-05-27T17:21:33Z</time>
      </trkpt>
      <trkpt lat="48.37936" lon="-4.32765">
        <ele>60.1</ele>
        <time>2022-05-27T17:21:35Z</time>
      </trkpt>
      <trkpt lat="48.37935" lon="-4.3275">
        <ele>60.1</ele>
        <time>2022-05-27T17:21:36Z</time>
      </trkpt>
      <trkpt lat="48.37932" lon="-4.32737">
        <ele>60</ele>
        <time>2022-05-27T17:21:37Z</time>
      </trkpt>
      <trkpt lat="48.37925" lon="-4.32712">
        <ele>59.4</ele>
        <time>2022-05-27T17:21:39Z</time>
      </trkpt>
      <trkpt lat="48.37917" lon="-4.32687">
        <ele>58.8</ele>
        <time>2022-05-27T17:21:41Z</time>
      </trkpt>
      <trkpt lat="48.37909" lon="-4.32628">
        <ele>57.6</ele>
        <time>2022-05-27T17:21:45Z</time>
      </trkpt>
      <trkpt lat="48.37908" lon="-4.3256">
        <ele>56.1</ele>
        <time>2022-05-27T17:21:49Z</time>
      </trkpt>
      <trkpt lat="48.37908" lon="-4.32543">
        <ele>55.2</ele>
        <time>2022-05-27T17:21:50Z</time>
      </trkpt>
      <trkpt lat="48.37909" lon="-4.32472">
        <ele>51.6</ele>
        <time>2022-05-27T17:21:54Z</time>
      </trkpt>
      <trkpt lat="48.37909" lon="-4.32455">
        <ele>50.9</ele>
        <time>2022-05-27T17:21:55Z</time>
      </trkpt>
      <trkpt lat="48.37909" lon="-4.32402">
        <ele>49.9</ele>
        <time>2022-05-27T17:21:58Z</time>
      </trkpt>
      <trkpt lat="48.37911" lon="-4.32351">
        <ele>48.9</ele>
        <time>2022-05-27T17:22:01Z</time>
      </trkpt>
      <trkpt lat="48.37906" lon="-4.3227">
        <ele>47.2</ele>
        <time>2022-05-27T17:22:06Z</time>
      </trkpt>
      <trkpt lat="48.37903" lon="-4.32255">
        <ele>46.9</ele>
        <time>2022-05-27T17:22:07Z</time>
      </trkpt>
      <trkpt lat="48.3789" lon="-4.32195">
        <ele>45.8</ele>
        <time>2022-05-27T17:22:11Z</time>
      </trkpt>
      <trkpt lat="48.37868" lon="-4.32129">
        <ele>44.5</ele>
        <time>2022-05-27T17:22:16Z</time>
      </trkpt>
      <trkpt lat="48.37852" lon="-4.32091">
        <ele>43.7</ele>
        <time>2022-05-27T17:22:19Z</time>
      </trkpt>
      <trkpt lat="48.37842" lon="-4.32066">
        <ele>43.6</ele>
        <time>2022-05-27T17:22:21Z</time>
      </trkpt>
      <trkpt lat="48.37824" lon="-4.32018">
        <ele>43.4</ele>
        <time>2022-05-27T17:22:25Z</time>
      </trkpt>
      <trkpt lat="48.37806" lon="-4.31948">
        <ele>43.9</ele>
        <time>2022-05-27T17:22:31Z</time>
      </trkpt>
      <trkpt lat="48.37796" lon="-4.31882">
        <ele>45.3</ele>
        <time>2022-05-27T17:22:37Z</time>
      </trkpt>
      <trkpt lat="48.37792" lon="-4.31815">
        <ele>47.3</ele>
        <time>2022-05-27T17:22:44Z</time>
      </trkpt>
      <trkpt lat="48.37789" lon="-4.31775">
        <ele>48.8</ele>
        <time>2022-05-27T17:22:49Z</time>
      </trkpt>
      <trkpt lat="48.37787" lon="-4.31743">
        <ele>50</ele>
        <time>2022-05-27T17:22:53Z</time>
      </trkpt>
      <trkpt lat="48.37782" lon="-4.31686">
        <ele>52.4</ele>
        <time>2022-05-27T17:23:01Z</time>
      </trkpt>
      <trkpt lat="48.37781" lon="-4.31672">
        <ele>52.8</ele>
        <time>2022-05-27T17:23:03Z</time>
      </trkpt>
      <trkpt lat="48.37779" lon="-4.31645">
        <ele>53.5</ele>
        <time>2022-05-27T17:23:07Z</time>
      </trkpt>
      <trkpt lat="48.37777" lon="-4.31599">
        <ele>55.4</ele>
        <time>2022-05-27T17:23:14Z</time>
      </trkpt>
      <trkpt lat="48.37778" lon="-4.3158">
        <ele>56.1</ele>
        <time>2022-05-27T17:23:17Z</time>
      </trkpt>
      <trkpt lat="48.3778" lon="-4.31549">
        <ele>57.2</ele>
        <time>2022-05-27T17:23:22Z</time>
      </trkpt>
      <trkpt lat="48.37781" lon="-4.3153">
        <ele>57.9</ele>
        <time>2022-05-27T17:23:25Z</time>
      </trkpt>
      <trkpt lat="48.37791" lon="-4.31461">
        <ele>60.5</ele>
        <time>2022-05-27T17:23:36Z</time>
      </trkpt>
      <trkpt lat="48.37791" lon="-4.31438">
        <ele>61.5</ele>
        <time>2022-05-27T17:23:40Z</time>
      </trkpt>
      <trkpt lat="48.37791" lon="-4.31402">
        <ele>63.3</ele>
        <time>2022-05-27T17:23:46Z</time>
      </trkpt>
      <trkpt lat="48.37791" lon="-4.3139">
        <ele>63.8</ele>
        <time>2022-05-27T17:23:48Z</time>
      </trkpt>
      <trkpt lat="48.37792" lon="-4.3133">
        <ele>66.2</ele>
        <time>2022-05-27T17:23:58Z</time>
      </trkpt>
      <trkpt lat="48.37792" lon="-4.31318">
        <ele>66.6</ele>
        <time>2022-05-27T17:24:00Z</time>
      </trkpt>
      <trkpt lat="48.37789" lon="-4.31244">
        <ele>68.8</ele>
        <time>2022-05-27T17:24:11Z</time>
      </trkpt>
      <trkpt lat="48.37788" lon="-4.31213">
        <ele>69.8</ele>
        <time>2022-05-27T17:24:16Z</time>
      </trkpt>
      <trkpt lat="48.37786" lon="-4.31174">
        <ele>70.9</ele>
        <time>2022-05-27T17:24:22Z</time>
      </trkpt>
      <trkpt lat="48.37777" lon="-4.31102">
        <ele>73</ele>
        <time>2022-05-27T17:24:33Z</time>
      </trkpt>
      <trkpt lat="48.37775" lon="-4.31094">
        <ele>73.1</ele>
        <time>2022-05-27T17:24:34Z</time>
      </trkpt>
      <trkpt lat="48.37764" lon="-4.31047">
        <ele>73.3</ele>
        <time>2022-05-27T17:24:40Z</time>
      </trkpt>
      <trkpt lat="48.3776" lon="-4.31031">
        <ele>73.2</ele>
        <time>2022-05-27T17:24:42Z</time>
      </trkpt>
      <trkpt lat="48.37737" lon="-4.30972">
        <ele>72.9</ele>
        <time>2022-05-27T17:24:50Z</time>
      </trkpt>
      <trkpt lat="48.37717" lon="-4.30926">
        <ele>72.7</ele>
        <time>2022-05-27T17:24:57Z</time>
      </trkpt>
      <trkpt lat="48.3771" lon="-4.30913">
        <ele>72.6</ele>
        <time>2022-05-27T17:24:59Z</time>
      </trkpt>
      <trkpt lat="48.37678" lon="-4.30855">
        <ele>72.2</ele>
        <time>2022-05-27T17:25:08Z</time>
      </trkpt>
      <trkpt lat="48.37645" lon="-4.30803">
        <ele>71.9</ele>
        <time>2022-05-27T17:25:16Z</time>
      </trkpt>
      <trkpt lat="48.37614" lon="-4.3075">
        <ele>71.7</ele>
        <time>2022-05-27T17:25:23Z</time>
      </trkpt>
      <trkpt lat="48.37585" lon="-4.30694">
        <ele>71.4</ele>
        <time>2022-05-27T17:25:29Z</time>
      </trkpt>
      <trkpt lat="48.37581" lon="-4.30682">
        <ele>71.4</ele>
        <time>2022-05-27T17:25:30Z</time>
      </trkpt>
      <trkpt lat="48.37561" lon="-4.30641">
        <ele>70.9</ele>
        <time>2022-05-27T17:25:34Z</time>
      </trkpt>
      <trkpt lat="48.37551" lon="-4.30634">
        <ele>70.8</ele>
        <time>2022-05-27T17:25:35Z</time>
      </trkpt>
      <trkpt lat="48.37537" lon="-4.30575">
        <ele>70.2</ele>
        <time>2022-05-27T17:25:40Z</time>
      </trkpt>
      <trkpt lat="48.37537" lon="-4.30565">
        <ele>70.1</ele>
        <time>2022-05-27T17:25:41Z</time>
      </trkpt>
      <trkpt lat="48.37536" lon="-4.30501">
        <ele>69.7</ele>
        <time>2022-05-27T17:25:47Z</time>
      </trkpt>
      <trkpt lat="48.37517" lon="-4.30394">
        <ele>66.8</ele>
        <time>2022-05-27T17:25:57Z</time>
      </trkpt>
      <trkpt lat="48.37517" lon="-4.30394">
        <ele>66.8</ele>
        <time>2022-05-27T17:26:41Z</time>
      </trkpt>
      <trkpt lat="48.37499" lon="-4.30359">
        <ele>64.3</ele>
        <time>2022-05-27T17:26:41Z</time>
      </trkpt>
      <trkpt lat="48.37482" lon="-4.30308">
        <ele>63</ele>
        <time>2022-05-27T17:26:47Z</time>
      </trkpt>
      <trkpt lat="48.37476" lon="-4.30291">
        <ele>61.2</ele>
        <time>2022-05-27T17:26:49Z</time>
      </trkpt>
      <trkpt lat="48.37467" lon="-4.30253">
        <ele>57.7</ele>
        <time>2022-05-27T17:26:53Z</time>
      </trkpt>
      <trkpt lat="48.3746" lon="-4.30225">
        <ele>55</ele>
        <time>2022-05-27T17:26:56Z</time>
      </trkpt>
      <trkpt lat="48.37455" lon="-4.30206">
        <ele>52.2</ele>
        <time>2022-05-27T17:26:59Z</time>
      </trkpt>
      <trkpt lat="48.37449" lon="-4.30181">
        <ele>47.2</ele>
        <time>2022-05-27T17:27:03Z</time>
      </trkpt>
      <trkpt lat="48.37448" lon="-4.30176">
        <ele>46</ele>
        <time>2022-05-27T17:27:04Z</time>
      </trkpt>
      <trkpt lat="48.37444" lon="-4.30172">
        <ele>44.9</ele>
        <time>2022-05-27T17:27:05Z</time>
      </trkpt>
      <trkpt lat="48.37437" lon="-4.30162">
        <ele>43.5</ele>
        <time>2022-05-27T17:27:07Z</time>
      </trkpt>
      <trkpt lat="48.37436" lon="-4.30153">
        <ele>42.7</ele>
        <time>2022-05-27T17:27:08Z</time>
      </trkpt>
      <trkpt lat="48.37456" lon="-4.30128">
        <ele>41.2</ele>
        <time>2022-05-27T17:27:10Z</time>
      </trkpt>
      <trkpt lat="48.37492" lon="-4.3009">
        <ele>40.7</ele>
        <time>2022-05-27T17:27:11Z</time>
      </trkpt>
      <trkpt lat="48.37496" lon="-4.30085">
        <ele>40.7</ele>
        <time>2022-05-27T17:27:12Z</time>
      </trkpt>
      <trkpt lat="48.37505" lon="-4.30082">
        <ele>40.8</ele>
        <time>2022-05-27T17:27:14Z</time>
      </trkpt>
      <trkpt lat="48.37507" lon="-4.30088">
        <ele>40.8</ele>
        <time>2022-05-27T17:27:16Z</time>
      </trkpt>
      <trkpt lat="48.37493" lon="-4.30101">
        <ele>40.7</ele>
        <time>2022-05-27T17:27:22Z</time>
      </trkpt>
      <trkpt lat="48.37486" lon="-4.30107">
        <ele>39.9</ele>
        <time>2022-05-27T17:27:25Z</time>
      </trkpt>
      <trkpt lat="48.37477" lon="-4.30093">
        <ele>38.5</ele>
        <time>2022-05-27T17:27:30Z</time>
      </trkpt>
      <trkpt lat="48.37474" lon="-4.30082">
        <ele>38</ele>
        <time>2022-05-27T17:27:32Z</time>
      </trkpt>
      <trkpt lat="48.37463" lon="-4.30041">
        <ele>36.3</ele>
        <time>2022-05-27T17:27:39Z</time>
      </trkpt>
      <trkpt lat="48.37451" lon="-4.30016">
        <ele>35.2</ele>
        <time>2022-05-27T17:27:44Z</time>
      </trkpt>
      <trkpt lat="48.37442" lon="-4.29997">
        <ele>35.4</ele>
        <time>2022-05-27T17:27:48Z</time>
      </trkpt>
      <trkpt lat="48.37439" lon="-4.29986">
        <ele>35.5</ele>
        <time>2022-05-27T17:27:50Z</time>
      </trkpt>
      <trkpt lat="48.37431" lon="-4.29955">
        <ele>36.3</ele>
        <time>2022-05-27T17:27:56Z</time>
      </trkpt>
      <trkpt lat="48.37431" lon="-4.2995">
        <ele>36.5</ele>
        <time>2022-05-27T17:27:57Z</time>
      </trkpt>
      <trkpt lat="48.37423" lon="-4.29927">
        <ele>37.2</ele>
        <time>2022-05-27T17:28:02Z</time>
      </trkpt>
      <trkpt lat="48.37411" lon="-4.29887">
        <ele>39.5</ele>
        <time>2022-05-27T17:28:11Z</time>
      </trkpt>
      <trkpt lat="48.37404" lon="-4.29874">
        <ele>40.3</ele>
        <time>2022-05-27T17:28:14Z</time>
      </trkpt>
      <trkpt lat="48.37391" lon="-4.29847">
        <ele>41.8</ele>
        <time>2022-05-27T17:28:20Z</time>
      </trkpt>
      <trkpt lat="48.37383" lon="-4.29829">
        <ele>42.6</ele>
        <time>2022-05-27T17:28:24Z</time>
      </trkpt>
      <trkpt lat="48.37357" lon="-4.29776">
        <ele>45.5</ele>
        <time>2022-05-27T17:28:38Z</time>
      </trkpt>
      <trkpt lat="48.37355" lon="-4.29773">
        <ele>45.7</ele>
        <time>2022-05-27T17:28:39Z</time>
      </trkpt>
      <trkpt lat="48.37339" lon="-4.29739">
        <ele>48.5</ele>
        <time>2022-05-27T17:28:51Z</time>
      </trkpt>
      <trkpt lat="48.37333" lon="-4.29728">
        <ele>49.6</ele>
        <time>2022-05-27T17:28:56Z</time>
      </trkpt>
      <trkpt lat="48.37313" lon="-4.29689">
        <ele>53.2</ele>
        <time>2022-05-27T17:29:13Z</time>
      </trkpt>
      <trkpt lat="48.37312" lon="-4.29687">
        <ele>53.5</ele>
        <time>2022-05-27T17:29:14Z</time>
      </trkpt>
      <trkpt lat="48.37305" lon="-4.29671">
        <ele>55.6</ele>
        <time>2022-05-27T17:29:20Z</time>
      </trkpt>
      <trkpt lat="48.37293" lon="-4.29644">
        <ele>58.7</ele>
        <time>2022-05-27T17:29:31Z</time>
      </trkpt>
      <trkpt lat="48.37287" lon="-4.29631">
        <ele>59.8</ele>
        <time>2022-05-27T17:29:36Z</time>
      </trkpt>
      <trkpt lat="48.37286" lon="-4.29629">
        <ele>60</ele>
        <time>2022-05-27T17:29:37Z</time>
      </trkpt>
      <trkpt lat="48.37275" lon="-4.29598">
        <ele>62.9</ele>
        <time>2022-05-27T17:29:50Z</time>
      </trkpt>
      <trkpt lat="48.37271" lon="-4.29591">
        <ele>63.5</ele>
        <time>2022-05-27T17:29:53Z</time>
      </trkpt>
      <trkpt lat="48.37266" lon="-4.29578">
        <ele>64.5</ele>
        <time>2022-05-27T17:29:58Z</time>
      </trkpt>
      <trkpt lat="48.37262" lon="-4.29538">
        <ele>67.1</ele>
        <time>2022-05-27T17:30:11Z</time>
      </trkpt>
      <trkpt lat="48.37259" lon="-4.29511">
        <ele>68.9</ele>
        <time>2022-05-27T17:30:20Z</time>
      </trkpt>
      <trkpt lat="48.37259" lon="-4.29502">
        <ele>69.6</ele>
        <time>2022-05-27T17:30:23Z</time>
      </trkpt>
      <trkpt lat="48.37256" lon="-4.29493">
        <ele>70.2</ele>
        <time>2022-05-27T17:30:26Z</time>
      </trkpt>
      <trkpt lat="48.37255" lon="-4.29486">
        <ele>70.8</ele>
        <time>2022-05-27T17:30:29Z</time>
      </trkpt>
      <trkpt lat="48.37255" lon="-4.29482">
        <ele>71.2</ele>
        <time>2022-05-27T17:30:31Z</time>
      </trkpt>
      <trkpt lat="48.37246" lon="-4.29462">
        <ele>73.5</ele>
        <time>2022-05-27T17:30:41Z</time>
      </trkpt>
      <trkpt lat="48.37237" lon="-4.29446">
        <ele>74.8</ele>
        <time>2022-05-27T17:30:47Z</time>
      </trkpt>
      <trkpt lat="48.3722" lon="-4.29415">
        <ele>78</ele>
        <time>2022-05-27T17:30:59Z</time>
      </trkpt>
      <trkpt lat="48.37216" lon="-4.29407">
        <ele>78.7</ele>
        <time>2022-05-27T17:31:02Z</time>
      </trkpt>
      <trkpt lat="48.37209" lon="-4.29378">
        <ele>81</ele>
        <time>2022-05-27T17:31:11Z</time>
      </trkpt>
      <trkpt lat="48.37207" lon="-4.29355">
        <ele>82.5</ele>
        <time>2022-05-27T17:31:18Z</time>
      </trkpt>
      <trkpt lat="48.3721" lon="-4.2935">
        <ele>82.7</ele>
        <time>2022-05-27T17:31:19Z</time>
      </trkpt>
      <trkpt lat="48.37205" lon="-4.29335">
        <ele>83.5</ele>
        <time>2022-05-27T17:31:23Z</time>
      </trkpt>
      <trkpt lat="48.37198" lon="-4.29323">
        <ele>84.2</ele>
        <time>2022-05-27T17:31:26Z</time>
      </trkpt>
      <trkpt lat="48.37188" lon="-4.29318">
        <ele>84.4</ele>
        <time>2022-05-27T17:31:27Z</time>
      </trkpt>
      <trkpt lat="48.37182" lon="-4.29291">
        <ele>86.5</ele>
        <time>2022-05-27T17:31:36Z</time>
      </trkpt>
      <trkpt lat="48.37178" lon="-4.29281">
        <ele>87.5</ele>
        <time>2022-05-27T17:31:40Z</time>
      </trkpt>
      <trkpt lat="48.37164" lon="-4.29238">
        <ele>91</ele>
        <time>2022-05-27T17:31:57Z</time>
      </trkpt>
      <trkpt lat="48.37161" lon="-4.2923">
        <ele>91.7</ele>
        <time>2022-05-27T17:32:00Z</time>
      </trkpt>
      <trkpt lat="48.37142" lon="-4.29175">
        <ele>95.1</ele>
        <time>2022-05-27T17:32:15Z</time>
      </trkpt>
      <trkpt lat="48.37139" lon="-4.29168">
        <ele>95.5</ele>
        <time>2022-05-27T17:32:17Z</time>
      </trkpt>
      <trkpt lat="48.37122" lon="-4.29118">
        <ele>99</ele>
        <time>2022-05-27T17:32:33Z</time>
      </trkpt>
      <trkpt lat="48.37118" lon="-4.29108">
        <ele>98.9</ele>
        <time>2022-05-27T17:32:36Z</time>
      </trkpt>
      <trkpt lat="48.37103" lon="-4.29059">
        <ele>98.9</ele>
        <time>2022-05-27T17:32:45Z</time>
      </trkpt>
      <trkpt lat="48.37107" lon="-4.2905">
        <ele>98.8</ele>
        <time>2022-05-27T17:32:46Z</time>
      </trkpt>
      <trkpt lat="48.37108" lon="-4.29024">
        <ele>98.7</ele>
        <time>2022-05-27T17:32:50Z</time>
      </trkpt>
      <trkpt lat="48.37116" lon="-4.28985">
        <ele>98.5</ele>
        <time>2022-05-27T17:32:53Z</time>
      </trkpt>
      <trkpt lat="48.37127" lon="-4.28914">
        <ele>98.2</ele>
        <time>2022-05-27T17:33:00Z</time>
      </trkpt>
      <trkpt lat="48.3714" lon="-4.28841">
        <ele>97.8</ele>
        <time>2022-05-27T17:33:09Z</time>
      </trkpt>
      <trkpt lat="48.37151" lon="-4.28767">
        <ele>97.3</ele>
        <time>2022-05-27T17:33:18Z</time>
      </trkpt>
      <trkpt lat="48.37157" lon="-4.2869">
        <ele>97</ele>
        <time>2022-05-27T17:33:25Z</time>
      </trkpt>
      <trkpt lat="48.37159" lon="-4.28671">
        <ele>96.7</ele>
        <time>2022-05-27T17:33:27Z</time>
      </trkpt>
      <trkpt lat="48.37163" lon="-4.28621">
        <ele>94.2</ele>
        <time>2022-05-27T17:33:32Z</time>
      </trkpt>
      <trkpt lat="48.37166" lon="-4.28609">
        <ele>93.8</ele>
        <time>2022-05-27T17:33:33Z</time>
      </trkpt>
      <trkpt lat="48.37176" lon="-4.28543">
        <ele>93.3</ele>
        <time>2022-05-27T17:33:38Z</time>
      </trkpt>
      <trkpt lat="48.37184" lon="-4.28487">
        <ele>93</ele>
        <time>2022-05-27T17:33:41Z</time>
      </trkpt>
      <trkpt lat="48.372" lon="-4.28404">
        <ele>92.3</ele>
        <time>2022-05-27T17:33:47Z</time>
      </trkpt>
      <trkpt lat="48.37202" lon="-4.28387">
        <ele>92.2</ele>
        <time>2022-05-27T17:33:48Z</time>
      </trkpt>
      <trkpt lat="48.372" lon="-4.2838">
        <ele>92.2</ele>
        <time>2022-05-27T17:33:49Z</time>
      </trkpt>
      <trkpt lat="48.37194" lon="-4.28394">
        <ele>92.5</ele>
        <time>2022-05-27T17:33:50Z</time>
      </trkpt>
      <trkpt lat="48.37188" lon="-4.28393">
        <ele>92.7</ele>
        <time>2022-05-27T17:33:51Z</time>
      </trkpt>
      <trkpt lat="48.37171" lon="-4.28377">
        <ele>93.2</ele>
        <time>2022-05-27T17:33:54Z</time>
      </trkpt>
      <trkpt lat="48.37148" lon="-4.28356">
        <ele>92.5</ele>
        <time>2022-05-27T17:33:58Z</time>
      </trkpt>
      <trkpt lat="48.37142" lon="-4.28349">
        <ele>92.3</ele>
        <time>2022-05-27T17:33:59Z</time>
      </trkpt>
      <trkpt lat="48.37111" lon="-4.28316">
        <ele>91</ele>
        <time>2022-05-27T17:34:04Z</time>
      </trkpt>
      <trkpt lat="48.37104" lon="-4.28309">
        <ele>90.8</ele>
        <time>2022-05-27T17:34:05Z</time>
      </trkpt>
      <trkpt lat="48.3709" lon="-4.28295">
        <ele>90.2</ele>
        <time>2022-05-27T17:34:07Z</time>
      </trkpt>
      <trkpt lat="48.37073" lon="-4.28268">
        <ele>89.4</ele>
        <time>2022-05-27T17:34:10Z</time>
      </trkpt>
      <trkpt lat="48.37069" lon="-4.28256">
        <ele>89.2</ele>
        <time>2022-05-27T17:34:11Z</time>
      </trkpt>
      <trkpt lat="48.37054" lon="-4.28208">
        <ele>88.6</ele>
        <time>2022-05-27T17:34:15Z</time>
      </trkpt>
      <trkpt lat="48.37047" lon="-4.28185">
        <ele>88.4</ele>
        <time>2022-05-27T17:34:17Z</time>
      </trkpt>
      <trkpt lat="48.37035" lon="-4.2814">
        <ele>88.2</ele>
        <time>2022-05-27T17:34:21Z</time>
      </trkpt>
      <trkpt lat="48.37029" lon="-4.2812">
        <ele>88.1</ele>
        <time>2022-05-27T17:34:23Z</time>
      </trkpt>
      <trkpt lat="48.37014" lon="-4.2807">
        <ele>87.9</ele>
        <time>2022-05-27T17:34:28Z</time>
      </trkpt>
      <trkpt lat="48.36986" lon="-4.28005">
        <ele>87.7</ele>
        <time>2022-05-27T17:34:35Z</time>
      </trkpt>
      <trkpt lat="48.36959" lon="-4.27942">
        <ele>87.5</ele>
        <time>2022-05-27T17:34:42Z</time>
      </trkpt>
      <trkpt lat="48.36939" lon="-4.27896">
        <ele>87.3</ele>
        <time>2022-05-27T17:34:47Z</time>
      </trkpt>
      <trkpt lat="48.36903" lon="-4.27852">
        <ele>87.1</ele>
        <time>2022-05-27T17:34:53Z</time>
      </trkpt>
      <trkpt lat="48.36882" lon="-4.27835">
        <ele>86.4</ele>
        <time>2022-05-27T17:34:56Z</time>
      </trkpt>
      <trkpt lat="48.36831" lon="-4.27826">
        <ele>85</ele>
        <time>2022-05-27T17:35:02Z</time>
      </trkpt>
      <trkpt lat="48.36785" lon="-4.27821">
        <ele>83.8</ele>
        <time>2022-05-27T17:35:07Z</time>
      </trkpt>
      <trkpt lat="48.36747" lon="-4.27815">
        <ele>82.8</ele>
        <time>2022-05-27T17:35:11Z</time>
      </trkpt>
      <trkpt lat="48.36737" lon="-4.27814">
        <ele>82.3</ele>
        <time>2022-05-27T17:35:12Z</time>
      </trkpt>
      <trkpt lat="48.36728" lon="-4.2781">
        <ele>81.7</ele>
        <time>2022-05-27T17:35:13Z</time>
      </trkpt>
      <trkpt lat="48.3669" lon="-4.27781">
        <ele>79.6</ele>
        <time>2022-05-27T17:35:17Z</time>
      </trkpt>
      <trkpt lat="48.36681" lon="-4.27773">
        <ele>79</ele>
        <time>2022-05-27T17:35:18Z</time>
      </trkpt>
      <trkpt lat="48.36639" lon="-4.27732">
        <ele>76.2</ele>
        <time>2022-05-27T17:35:23Z</time>
      </trkpt>
      <trkpt lat="48.36609" lon="-4.27706">
        <ele>74.6</ele>
        <time>2022-05-27T17:35:26Z</time>
      </trkpt>
      <trkpt lat="48.36597" lon="-4.27702">
        <ele>74</ele>
        <time>2022-05-27T17:35:27Z</time>
      </trkpt>
      <trkpt lat="48.36574" lon="-4.27702">
        <ele>72.9</ele>
        <time>2022-05-27T17:35:29Z</time>
      </trkpt>
      <trkpt lat="48.3655" lon="-4.27703">
        <ele>71.6</ele>
        <time>2022-05-27T17:35:31Z</time>
      </trkpt>
      <trkpt lat="48.36504" lon="-4.27705">
        <ele>69.1</ele>
        <time>2022-05-27T17:35:35Z</time>
      </trkpt>
      <trkpt lat="48.3645" lon="-4.27707">
        <ele>65.3</ele>
        <time>2022-05-27T17:35:40Z</time>
      </trkpt>
      <trkpt lat="48.36438" lon="-4.27705">
        <ele>64.6</ele>
        <time>2022-05-27T17:35:41Z</time>
      </trkpt>
      <trkpt lat="48.36404" lon="-4.277">
        <ele>62.7</ele>
        <time>2022-05-27T17:35:44Z</time>
      </trkpt>
      <trkpt lat="48.36368" lon="-4.27692">
        <ele>60.8</ele>
        <time>2022-05-27T17:35:47Z</time>
      </trkpt>
      <trkpt lat="48.36324" lon="-4.27669">
        <ele>58.3</ele>
        <time>2022-05-27T17:35:51Z</time>
      </trkpt>
      <trkpt lat="48.36312" lon="-4.27664">
        <ele>57.6</ele>
        <time>2022-05-27T17:35:52Z</time>
      </trkpt>
      <trkpt lat="48.36279" lon="-4.27648">
        <ele>55.8</ele>
        <time>2022-05-27T17:35:55Z</time>
      </trkpt>
      <trkpt lat="48.36233" lon="-4.27632">
        <ele>53.3</ele>
        <time>2022-05-27T17:35:59Z</time>
      </trkpt>
      <trkpt lat="48.36185" lon="-4.27621">
        <ele>50.8</ele>
        <time>2022-05-27T17:36:03Z</time>
      </trkpt>
      <trkpt lat="48.36174" lon="-4.27619">
        <ele>50</ele>
        <time>2022-05-27T17:36:04Z</time>
      </trkpt>
      <trkpt lat="48.36154" lon="-4.27608">
        <ele>48.5</ele>
        <time>2022-05-27T17:36:06Z</time>
      </trkpt>
      <trkpt lat="48.36145" lon="-4.27579">
        <ele>47.7</ele>
        <time>2022-05-27T17:36:07Z</time>
      </trkpt>
      <trkpt lat="48.36131" lon="-4.27544">
        <ele>46.2</ele>
        <time>2022-05-27T17:36:09Z</time>
      </trkpt>
      <trkpt lat="48.36118" lon="-4.27508">
        <ele>44.6</ele>
        <time>2022-05-27T17:36:11Z</time>
      </trkpt>
      <trkpt lat="48.36097" lon="-4.27439">
        <ele>41.5</ele>
        <time>2022-05-27T17:36:15Z</time>
      </trkpt>
      <trkpt lat="48.3608" lon="-4.27374">
        <ele>38.1</ele>
        <time>2022-05-27T17:36:19Z</time>
      </trkpt>
      <trkpt lat="48.3609" lon="-4.27349">
        <ele>37.2</ele>
        <time>2022-05-27T17:36:20Z</time>
      </trkpt>
      <trkpt lat="48.36095" lon="-4.27331">
        <ele>36.4</ele>
        <time>2022-05-27T17:36:21Z</time>
      </trkpt>
      <trkpt lat="48.36104" lon="-4.27296">
        <ele>34.9</ele>
        <time>2022-05-27T17:36:23Z</time>
      </trkpt>
      <trkpt lat="48.36112" lon="-4.27222">
        <ele>31.8</ele>
        <time>2022-05-27T17:36:27Z</time>
      </trkpt>
      <trkpt lat="48.36108" lon="-4.27145">
        <ele>28.6</ele>
        <time>2022-05-27T17:36:31Z</time>
      </trkpt>
      <trkpt lat="48.36105" lon="-4.27108">
        <ele>27.3</ele>
        <time>2022-05-27T17:36:33Z</time>
      </trkpt>
      <trkpt lat="48.36103" lon="-4.27072">
        <ele>27.1</ele>
        <time>2022-05-27T17:36:35Z</time>
      </trkpt>
      <trkpt lat="48.36102" lon="-4.27023">
        <ele>26.8</ele>
        <time>2022-05-27T17:36:38Z</time>
      </trkpt>
      <trkpt lat="48.36115" lon="-4.26952">
        <ele>26.3</ele>
        <time>2022-05-27T17:36:43Z</time>
      </trkpt>
      <trkpt lat="48.36119" lon="-4.26928">
        <ele>26.2</ele>
        <time>2022-05-27T17:36:45Z</time>
      </trkpt>
      <trkpt lat="48.36128" lon="-4.2688">
        <ele>27</ele>
        <time>2022-05-27T17:36:49Z</time>
      </trkpt>
      <trkpt lat="48.3613" lon="-4.26858">
        <ele>27.4</ele>
        <time>2022-05-27T17:36:51Z</time>
      </trkpt>
      <trkpt lat="48.36135" lon="-4.26814">
        <ele>27.7</ele>
        <time>2022-05-27T17:36:55Z</time>
      </trkpt>
      <trkpt lat="48.36136" lon="-4.26793">
        <ele>27.9</ele>
        <time>2022-05-27T17:36:57Z</time>
      </trkpt>
      <trkpt lat="48.36143" lon="-4.26723">
        <ele>28.3</ele>
        <time>2022-05-27T17:37:03Z</time>
      </trkpt>
      <trkpt lat="48.36144" lon="-4.26699">
        <ele>27.7</ele>
        <time>2022-05-27T17:37:05Z</time>
      </trkpt>
      <trkpt lat="48.36137" lon="-4.26662">
        <ele>26.8</ele>
        <time>2022-05-27T17:37:08Z</time>
      </trkpt>
      <trkpt lat="48.36132" lon="-4.26651">
        <ele>26.5</ele>
        <time>2022-05-27T17:37:09Z</time>
      </trkpt>
      <trkpt lat="48.36126" lon="-4.26641">
        <ele>26.1</ele>
        <time>2022-05-27T17:37:10Z</time>
      </trkpt>
      <trkpt lat="48.36088" lon="-4.26606">
        <ele>24.3</ele>
        <time>2022-05-27T17:37:15Z</time>
      </trkpt>
      <trkpt lat="48.36081" lon="-4.26599">
        <ele>24.2</ele>
        <time>2022-05-27T17:37:16Z</time>
      </trkpt>
      <trkpt lat="48.36054" lon="-4.26567">
        <ele>23.6</ele>
        <time>2022-05-27T17:37:20Z</time>
      </trkpt>
      <trkpt lat="48.36047" lon="-4.26552">
        <ele>23.4</ele>
        <time>2022-05-27T17:37:21Z</time>
      </trkpt>
      <trkpt lat="48.36044" lon="-4.26534">
        <ele>23.3</ele>
        <time>2022-05-27T17:37:22Z</time>
      </trkpt>
      <trkpt lat="48.36045" lon="-4.26493">
        <ele>22.8</ele>
        <time>2022-05-27T17:37:25Z</time>
      </trkpt>
      <trkpt lat="48.36053" lon="-4.26468">
        <ele>22.4</ele>
        <time>2022-05-27T17:37:27Z</time>
      </trkpt>
      <trkpt lat="48.36065" lon="-4.26431">
        <ele>21</ele>
        <time>2022-05-27T17:37:30Z</time>
      </trkpt>
      <trkpt lat="48.36091" lon="-4.26361">
        <ele>18.3</ele>
        <time>2022-05-27T17:37:36Z</time>
      </trkpt>
      <trkpt lat="48.36106" lon="-4.26327">
        <ele>17</ele>
        <time>2022-05-27T17:37:39Z</time>
      </trkpt>
      <trkpt lat="48.36115" lon="-4.26304">
        <ele>16.5</ele>
        <time>2022-05-27T17:37:41Z</time>
      </trkpt>
      <trkpt lat="48.36127" lon="-4.26231">
        <ele>15.1</ele>
        <time>2022-05-27T17:37:47Z</time>
      </trkpt>
      <trkpt lat="48.36131" lon="-4.26211">
        <ele>14.7</ele>
        <time>2022-05-27T17:37:49Z</time>
      </trkpt>
      <trkpt lat="48.36132" lon="-4.262">
        <ele>14.4</ele>
        <time>2022-05-27T17:37:50Z</time>
      </trkpt>
      <trkpt lat="48.36142" lon="-4.26167">
        <ele>13.7</ele>
        <time>2022-05-27T17:37:53Z</time>
      </trkpt>
      <trkpt lat="48.36146" lon="-4.26157">
        <ele>13.5</ele>
        <time>2022-05-27T17:37:54Z</time>
      </trkpt>
      <trkpt lat="48.3615" lon="-4.2614">
        <ele>13.1</ele>
        <time>2022-05-27T17:37:56Z</time>
      </trkpt>
      <trkpt lat="48.36161" lon="-4.26088">
        <ele>12.6</ele>
        <time>2022-05-27T17:38:02Z</time>
      </trkpt>
      <trkpt lat="48.3616" lon="-4.26065">
        <ele>12.4</ele>
        <time>2022-05-27T17:38:05Z</time>
      </trkpt>
      <trkpt lat="48.36156" lon="-4.26049">
        <ele>12.2</ele>
        <time>2022-05-27T17:38:07Z</time>
      </trkpt>
      <trkpt lat="48.36153" lon="-4.26033">
        <ele>12.3</ele>
        <time>2022-05-27T17:38:09Z</time>
      </trkpt>
      <trkpt lat="48.3612" lon="-4.26004">
        <ele>13.1</ele>
        <time>2022-05-27T17:38:13Z</time>
      </trkpt>
      <trkpt lat="48.3612" lon="-4.26004">
        <ele>13.1</ele>
        <time>2022-05-27T17:38:44Z</time>
      </trkpt>
      <trkpt lat="48.36086" lon="-4.25981">
        <ele>13.9</ele>
        <time>2022-05-27T17:38:49Z</time>
      </trkpt>
      <trkpt lat="48.36036" lon="-4.25987">
        <ele>14.2</ele>
        <time>2022-05-27T17:38:56Z</time>
      </trkpt>
      <trkpt lat="48.36022" lon="-4.25988">
        <ele>14.3</ele>
        <time>2022-05-27T17:38:58Z</time>
      </trkpt>
      <trkpt lat="48.35972" lon="-4.2599">
        <ele>14.5</ele>
        <time>2022-05-27T17:39:05Z</time>
      </trkpt>
      <trkpt lat="48.35922" lon="-4.25992">
        <ele>14.8</ele>
        <time>2022-05-27T17:39:12Z</time>
      </trkpt>
      <trkpt lat="48.35874" lon="-4.25984">
        <ele>15.1</ele>
        <time>2022-05-27T17:39:19Z</time>
      </trkpt>
      <trkpt lat="48.35844" lon="-4.25974">
        <ele>15.4</ele>
        <time>2022-05-27T17:39:24Z</time>
      </trkpt>
      <trkpt lat="48.35826" lon="-4.25968">
        <ele>16.3</ele>
        <time>2022-05-27T17:39:27Z</time>
      </trkpt>
      <trkpt lat="48.35811" lon="-4.25959">
        <ele>17.3</ele>
        <time>2022-05-27T17:39:30Z</time>
      </trkpt>
      <trkpt lat="48.35782" lon="-4.2594">
        <ele>19</ele>
        <time>2022-05-27T17:39:36Z</time>
      </trkpt>
      <trkpt lat="48.35756" lon="-4.25916">
        <ele>20.7</ele>
        <time>2022-05-27T17:39:42Z</time>
      </trkpt>
      <trkpt lat="48.35743" lon="-4.25904">
        <ele>21.5</ele>
        <time>2022-05-27T17:39:45Z</time>
      </trkpt>
      <trkpt lat="48.35731" lon="-4.25892">
        <ele>22.4</ele>
        <time>2022-05-27T17:39:48Z</time>
      </trkpt>
      <trkpt lat="48.35707" lon="-4.25869">
        <ele>23.9</ele>
        <time>2022-05-27T17:39:54Z</time>
      </trkpt>
      <trkpt lat="48.35703" lon="-4.25865">
        <ele>24.2</ele>
        <time>2022-05-27T17:39:55Z</time>
      </trkpt>
      <trkpt lat="48.35666" lon="-4.25831">
        <ele>26.3</ele>
        <time>2022-05-27T17:40:04Z</time>
      </trkpt>
      <trkpt lat="48.35662" lon="-4.25827">
        <ele>26.5</ele>
        <time>2022-05-27T17:40:05Z</time>
      </trkpt>
      <trkpt lat="48.35621" lon="-4.2579">
        <ele>28.4</ele>
        <time>2022-05-27T17:40:15Z</time>
      </trkpt>
      <trkpt lat="48.35597" lon="-4.25767">
        <ele>29.5</ele>
        <time>2022-05-27T17:40:21Z</time>
      </trkpt>
      <trkpt lat="48.35584" lon="-4.25755">
        <ele>30.2</ele>
        <time>2022-05-27T17:40:24Z</time>
      </trkpt>
      <trkpt lat="48.35542" lon="-4.2572">
        <ele>32.3</ele>
        <time>2022-05-27T17:40:34Z</time>
      </trkpt>
      <trkpt lat="48.35526" lon="-4.25702">
        <ele>33.2</ele>
        <time>2022-05-27T17:40:38Z</time>
      </trkpt>
      <trkpt lat="48.35502" lon="-4.25676">
        <ele>35</ele>
        <time>2022-05-27T17:40:44Z</time>
      </trkpt>
      <trkpt lat="48.35479" lon="-4.25655">
        <ele>36.2</ele>
        <time>2022-05-27T17:40:50Z</time>
      </trkpt>
      <trkpt lat="48.35463" lon="-4.25641">
        <ele>37</ele>
        <time>2022-05-27T17:40:54Z</time>
      </trkpt>
      <trkpt lat="48.3545" lon="-4.25628">
        <ele>37.6</ele>
        <time>2022-05-27T17:40:57Z</time>
      </trkpt>
      <trkpt lat="48.35425" lon="-4.25604">
        <ele>38.9</ele>
        <time>2022-05-27T17:41:03Z</time>
      </trkpt>
      <trkpt lat="48.35402" lon="-4.25587">
        <ele>39.9</ele>
        <time>2022-05-27T17:41:08Z</time>
      </trkpt>
      <trkpt lat="48.35384" lon="-4.25574">
        <ele>40.7</ele>
        <time>2022-05-27T17:41:12Z</time>
      </trkpt>
      <trkpt lat="48.35339" lon="-4.25544">
        <ele>42.7</ele>
        <time>2022-05-27T17:41:22Z</time>
      </trkpt>
      <trkpt lat="48.35321" lon="-4.25537">
        <ele>43.5</ele>
        <time>2022-05-27T17:41:26Z</time>
      </trkpt>
      <trkpt lat="48.35312" lon="-4.25533">
        <ele>43.7</ele>
        <time>2022-05-27T17:41:28Z</time>
      </trkpt>
      <trkpt lat="48.35271" lon="-4.25501">
        <ele>44.8</ele>
        <time>2022-05-27T17:41:37Z</time>
      </trkpt>
      <trkpt lat="48.35242" lon="-4.2548">
        <ele>45.6</ele>
        <time>2022-05-27T17:41:43Z</time>
      </trkpt>
      <trkpt lat="48.3523" lon="-4.25476">
        <ele>45.8</ele>
        <time>2022-05-27T17:41:45Z</time>
      </trkpt>
      <trkpt lat="48.35202" lon="-4.25463">
        <ele>46.4</ele>
        <time>2022-05-27T17:41:50Z</time>
      </trkpt>
      <trkpt lat="48.35185" lon="-4.25456">
        <ele>46.7</ele>
        <time>2022-05-27T17:41:53Z</time>
      </trkpt>
      <trkpt lat="48.35134" lon="-4.25457">
        <ele>47.5</ele>
        <time>2022-05-27T17:42:01Z</time>
      </trkpt>
      <trkpt lat="48.35087" lon="-4.25466">
        <ele>48.2</ele>
        <time>2022-05-27T17:42:08Z</time>
      </trkpt>
      <trkpt lat="48.35043" lon="-4.25491">
        <ele>48.9</ele>
        <time>2022-05-27T17:42:15Z</time>
      </trkpt>
      <trkpt lat="48.3502" lon="-4.25505">
        <ele>49.3</ele>
        <time>2022-05-27T17:42:19Z</time>
      </trkpt>
      <trkpt lat="48.34996" lon="-4.25519">
        <ele>49.7</ele>
        <time>2022-05-27T17:42:23Z</time>
      </trkpt>
      <trkpt lat="48.34984" lon="-4.25527">
        <ele>50</ele>
        <time>2022-05-27T17:42:25Z</time>
      </trkpt>
      <trkpt lat="48.34953" lon="-4.25546">
        <ele>50.4</ele>
        <time>2022-05-27T17:42:30Z</time>
      </trkpt>
      <trkpt lat="48.34908" lon="-4.25578">
        <ele>51</ele>
        <time>2022-05-27T17:42:37Z</time>
      </trkpt>
      <trkpt lat="48.34868" lon="-4.25617">
        <ele>51.6</ele>
        <time>2022-05-27T17:42:44Z</time>
      </trkpt>
      <trkpt lat="48.34844" lon="-4.25644">
        <ele>52.1</ele>
        <time>2022-05-27T17:42:49Z</time>
      </trkpt>
      <trkpt lat="48.34829" lon="-4.2566">
        <ele>52.8</ele>
        <time>2022-05-27T17:42:52Z</time>
      </trkpt>
      <trkpt lat="48.3479" lon="-4.25704">
        <ele>55</ele>
        <time>2022-05-27T17:43:01Z</time>
      </trkpt>
      <trkpt lat="48.34763" lon="-4.25729">
        <ele>56.1</ele>
        <time>2022-05-27T17:43:07Z</time>
      </trkpt>
      <trkpt lat="48.34749" lon="-4.25742">
        <ele>56.9</ele>
        <time>2022-05-27T17:43:10Z</time>
      </trkpt>
      <trkpt lat="48.34706" lon="-4.25773">
        <ele>59.2</ele>
        <time>2022-05-27T17:43:19Z</time>
      </trkpt>
      <trkpt lat="48.34662" lon="-4.25805">
        <ele>61.3</ele>
        <time>2022-05-27T17:43:29Z</time>
      </trkpt>
      <trkpt lat="48.34613" lon="-4.25832">
        <ele>60.4</ele>
        <time>2022-05-27T17:43:35Z</time>
      </trkpt>
      <trkpt lat="48.34613" lon="-4.25832">
        <ele>60.4</ele>
        <time>2022-05-27T17:44:33Z</time>
      </trkpt>
      <trkpt lat="48.34572" lon="-4.25854">
        <ele>59</ele>
        <time>2022-05-27T17:44:39Z</time>
      </trkpt>
      <trkpt lat="48.34521" lon="-4.25869">
        <ele>58.6</ele>
        <time>2022-05-27T17:44:48Z</time>
      </trkpt>
      <trkpt lat="48.34513" lon="-4.25871">
        <ele>58.5</ele>
        <time>2022-05-27T17:44:49Z</time>
      </trkpt>
      <trkpt lat="48.34475" lon="-4.25877">
        <ele>57</ele>
        <time>2022-05-27T17:44:54Z</time>
      </trkpt>
      <trkpt lat="48.34466" lon="-4.25879">
        <ele>56.6</ele>
        <time>2022-05-27T17:44:55Z</time>
      </trkpt>
      <trkpt lat="48.34422" lon="-4.25887">
        <ele>54.7</ele>
        <time>2022-05-27T17:45:00Z</time>
      </trkpt>
      <trkpt lat="48.34375" lon="-4.25896">
        <ele>52.7</ele>
        <time>2022-05-27T17:45:05Z</time>
      </trkpt>
      <trkpt lat="48.34355" lon="-4.259">
        <ele>51.9</ele>
        <time>2022-05-27T17:45:07Z</time>
      </trkpt>
      <trkpt lat="48.34325" lon="-4.25905">
        <ele>50.8</ele>
        <time>2022-05-27T17:45:10Z</time>
      </trkpt>
      <trkpt lat="48.34273" lon="-4.25917">
        <ele>49</ele>
        <time>2022-05-27T17:45:15Z</time>
      </trkpt>
      <trkpt lat="48.34241" lon="-4.25922">
        <ele>47.8</ele>
        <time>2022-05-27T17:45:18Z</time>
      </trkpt>
      <trkpt lat="48.3423" lon="-4.25925">
        <ele>47.6</ele>
        <time>2022-05-27T17:45:19Z</time>
      </trkpt>
      <trkpt lat="48.3422" lon="-4.25926">
        <ele>47.6</ele>
        <time>2022-05-27T17:45:20Z</time>
      </trkpt>
      <trkpt lat="48.34174" lon="-4.25937">
        <ele>47.6</ele>
        <time>2022-05-27T17:45:25Z</time>
      </trkpt>
      <trkpt lat="48.34122" lon="-4.25947">
        <ele>47.6</ele>
        <time>2022-05-27T17:45:31Z</time>
      </trkpt>
      <trkpt lat="48.34077" lon="-4.25956">
        <ele>48.3</ele>
        <time>2022-05-27T17:45:37Z</time>
      </trkpt>
      <trkpt lat="48.34043" lon="-4.25957">
        <ele>48.9</ele>
        <time>2022-05-27T17:45:42Z</time>
      </trkpt>
      <trkpt lat="48.34036" lon="-4.25954">
        <ele>48.9</ele>
        <time>2022-05-27T17:45:43Z</time>
      </trkpt>
      <trkpt lat="48.34005" lon="-4.25943">
        <ele>48.6</ele>
        <time>2022-05-27T17:45:48Z</time>
      </trkpt>
      <trkpt lat="48.33963" lon="-4.25918">
        <ele>48.3</ele>
        <time>2022-05-27T17:45:55Z</time>
      </trkpt>
      <trkpt lat="48.33933" lon="-4.25886">
        <ele>48</ele>
        <time>2022-05-27T17:46:00Z</time>
      </trkpt>
      <trkpt lat="48.33906" lon="-4.25862">
        <ele>47.8</ele>
        <time>2022-05-27T17:46:04Z</time>
      </trkpt>
      <trkpt lat="48.33899" lon="-4.25854">
        <ele>47.7</ele>
        <time>2022-05-27T17:46:05Z</time>
      </trkpt>
      <trkpt lat="48.33892" lon="-4.25848">
        <ele>47.7</ele>
        <time>2022-05-27T17:46:06Z</time>
      </trkpt>
      <trkpt lat="48.33885" lon="-4.25839">
        <ele>47.6</ele>
        <time>2022-05-27T17:46:07Z</time>
      </trkpt>
      <trkpt lat="48.33847" lon="-4.25803">
        <ele>47.3</ele>
        <time>2022-05-27T17:46:12Z</time>
      </trkpt>
      <trkpt lat="48.33839" lon="-4.25796">
        <ele>47.3</ele>
        <time>2022-05-27T17:46:13Z</time>
      </trkpt>
      <trkpt lat="48.33808" lon="-4.25766">
        <ele>46.8</ele>
        <time>2022-05-27T17:46:17Z</time>
      </trkpt>
      <trkpt lat="48.33777" lon="-4.25736">
        <ele>46.4</ele>
        <time>2022-05-27T17:46:21Z</time>
      </trkpt>
      <trkpt lat="48.33768" lon="-4.25732">
        <ele>46.3</ele>
        <time>2022-05-27T17:46:22Z</time>
      </trkpt>
      <trkpt lat="48.33726" lon="-4.25692">
        <ele>45.7</ele>
        <time>2022-05-27T17:46:28Z</time>
      </trkpt>
      <trkpt lat="48.3372" lon="-4.25686">
        <ele>45.7</ele>
        <time>2022-05-27T17:46:29Z</time>
      </trkpt>
      <trkpt lat="48.33684" lon="-4.25652">
        <ele>46.7</ele>
        <time>2022-05-27T17:46:35Z</time>
      </trkpt>
      <trkpt lat="48.33657" lon="-4.25627">
        <ele>47.5</ele>
        <time>2022-05-27T17:46:40Z</time>
      </trkpt>
      <trkpt lat="48.33651" lon="-4.25623">
        <ele>47.7</ele>
        <time>2022-05-27T17:46:41Z</time>
      </trkpt>
      <trkpt lat="48.33612" lon="-4.25591">
        <ele>49</ele>
        <time>2022-05-27T17:46:48Z</time>
      </trkpt>
      <trkpt lat="48.33571" lon="-4.25554">
        <ele>50.4</ele>
        <time>2022-05-27T17:46:56Z</time>
      </trkpt>
      <trkpt lat="48.33555" lon="-4.2554">
        <ele>50.9</ele>
        <time>2022-05-27T17:46:59Z</time>
      </trkpt>
      <trkpt lat="48.33528" lon="-4.25517">
        <ele>50.9</ele>
        <time>2022-05-27T17:47:04Z</time>
      </trkpt>
      <trkpt lat="48.33523" lon="-4.25511">
        <ele>50.9</ele>
        <time>2022-05-27T17:47:05Z</time>
      </trkpt>
      <trkpt lat="48.33518" lon="-4.25504">
        <ele>51</ele>
        <time>2022-05-27T17:47:06Z</time>
      </trkpt>
      <trkpt lat="48.33497" lon="-4.25494">
        <ele>51</ele>
        <time>2022-05-27T17:47:09Z</time>
      </trkpt>
      <trkpt lat="48.3349" lon="-4.25493">
        <ele>51</ele>
        <time>2022-05-27T17:47:10Z</time>
      </trkpt>
      <trkpt lat="48.33482" lon="-4.2549">
        <ele>50.9</ele>
        <time>2022-05-27T17:47:11Z</time>
      </trkpt>
      <trkpt lat="48.33444" lon="-4.25474">
        <ele>49.2</ele>
        <time>2022-05-27T17:47:16Z</time>
      </trkpt>
      <trkpt lat="48.33435" lon="-4.25471">
        <ele>48.8</ele>
        <time>2022-05-27T17:47:17Z</time>
      </trkpt>
      <trkpt lat="48.33399" lon="-4.25456">
        <ele>47.4</ele>
        <time>2022-05-27T17:47:21Z</time>
      </trkpt>
      <trkpt lat="48.33381" lon="-4.25447">
        <ele>46.7</ele>
        <time>2022-05-27T17:47:23Z</time>
      </trkpt>
      <trkpt lat="48.33355" lon="-4.25433">
        <ele>45.5</ele>
        <time>2022-05-27T17:47:26Z</time>
      </trkpt>
      <trkpt lat="48.3333" lon="-4.25407">
        <ele>44.4</ele>
        <time>2022-05-27T17:47:29Z</time>
      </trkpt>
      <trkpt lat="48.33316" lon="-4.25378">
        <ele>43.6</ele>
        <time>2022-05-27T17:47:31Z</time>
      </trkpt>
      <trkpt lat="48.33309" lon="-4.25365">
        <ele>43.2</ele>
        <time>2022-05-27T17:47:32Z</time>
      </trkpt>
      <trkpt lat="48.33295" lon="-4.25321">
        <ele>42</ele>
        <time>2022-05-27T17:47:35Z</time>
      </trkpt>
      <trkpt lat="48.33286" lon="-4.25292">
        <ele>40.8</ele>
        <time>2022-05-27T17:47:37Z</time>
      </trkpt>
      <trkpt lat="48.33269" lon="-4.25231">
        <ele>38.5</ele>
        <time>2022-05-27T17:47:41Z</time>
      </trkpt>
      <trkpt lat="48.33265" lon="-4.25216">
        <ele>38.1</ele>
        <time>2022-05-27T17:47:42Z</time>
      </trkpt>
      <trkpt lat="48.33246" lon="-4.2514">
        <ele>36.2</ele>
        <time>2022-05-27T17:47:47Z</time>
      </trkpt>
      <trkpt lat="48.33226" lon="-4.25069">
        <ele>34.2</ele>
        <time>2022-05-27T17:47:52Z</time>
      </trkpt>
      <trkpt lat="48.33222" lon="-4.25055">
        <ele>33.8</ele>
        <time>2022-05-27T17:47:53Z</time>
      </trkpt>
      <trkpt lat="48.33207" lon="-4.24998">
        <ele>32.4</ele>
        <time>2022-05-27T17:47:57Z</time>
      </trkpt>
      <trkpt lat="48.33191" lon="-4.2494">
        <ele>30.9</ele>
        <time>2022-05-27T17:48:01Z</time>
      </trkpt>
      <trkpt lat="48.33174" lon="-4.24879">
        <ele>29.5</ele>
        <time>2022-05-27T17:48:05Z</time>
      </trkpt>
      <trkpt lat="48.3317" lon="-4.24864">
        <ele>29</ele>
        <time>2022-05-27T17:48:06Z</time>
      </trkpt>
      <trkpt lat="48.33151" lon="-4.24784">
        <ele>26.5</ele>
        <time>2022-05-27T17:48:11Z</time>
      </trkpt>
      <trkpt lat="48.33131" lon="-4.24706">
        <ele>24</ele>
        <time>2022-05-27T17:48:16Z</time>
      </trkpt>
      <trkpt lat="48.33115" lon="-4.24645">
        <ele>22.1</ele>
        <time>2022-05-27T17:48:20Z</time>
      </trkpt>
      <trkpt lat="48.33105" lon="-4.24615">
        <ele>21.2</ele>
        <time>2022-05-27T17:48:22Z</time>
      </trkpt>
      <trkpt lat="48.3309" lon="-4.24571">
        <ele>20</ele>
        <time>2022-05-27T17:48:25Z</time>
      </trkpt>
      <trkpt lat="48.33067" lon="-4.24496">
        <ele>18.1</ele>
        <time>2022-05-27T17:48:30Z</time>
      </trkpt>
      <trkpt lat="48.33057" lon="-4.24469">
        <ele>17.3</ele>
        <time>2022-05-27T17:48:32Z</time>
      </trkpt>
      <trkpt lat="48.33041" lon="-4.2443">
        <ele>16.6</ele>
        <time>2022-05-27T17:48:35Z</time>
      </trkpt>
      <trkpt lat="48.33005" lon="-4.24379">
        <ele>15.4</ele>
        <time>2022-05-27T17:48:40Z</time>
      </trkpt>
      <trkpt lat="48.32983" lon="-4.2435">
        <ele>14.8</ele>
        <time>2022-05-27T17:48:43Z</time>
      </trkpt>
      <trkpt lat="48.32968" lon="-4.24331">
        <ele>14.5</ele>
        <time>2022-05-27T17:48:45Z</time>
      </trkpt>
      <trkpt lat="48.32933" lon="-4.24286">
        <ele>13.9</ele>
        <time>2022-05-27T17:48:50Z</time>
      </trkpt>
      <trkpt lat="48.329" lon="-4.24247">
        <ele>13.3</ele>
        <time>2022-05-27T17:48:55Z</time>
      </trkpt>
      <trkpt lat="48.32894" lon="-4.2424">
        <ele>13.3</ele>
        <time>2022-05-27T17:48:56Z</time>
      </trkpt>
      <trkpt lat="48.32859" lon="-4.24192">
        <ele>13.4</ele>
        <time>2022-05-27T17:49:03Z</time>
      </trkpt>
      <trkpt lat="48.32853" lon="-4.24187">
        <ele>13.4</ele>
        <time>2022-05-27T17:49:05Z</time>
      </trkpt>
      <trkpt lat="48.32848" lon="-4.24183">
        <ele>13.5</ele>
        <time>2022-05-27T17:49:10Z</time>
      </trkpt>
      <trkpt lat="48.32844" lon="-4.24189">
        <ele>13.5</ele>
        <time>2022-05-27T17:49:12Z</time>
      </trkpt>
      <trkpt lat="48.32838" lon="-4.24193">
        <ele>13.5</ele>
        <time>2022-05-27T17:49:13Z</time>
      </trkpt>
      <trkpt lat="48.32834" lon="-4.24209">
        <ele>13.5</ele>
        <time>2022-05-27T17:49:15Z</time>
      </trkpt>
      <trkpt lat="48.32834" lon="-4.24217">
        <ele>13.5</ele>
        <time>2022-05-27T17:49:16Z</time>
      </trkpt>
      <trkpt lat="48.32826" lon="-4.24235">
        <ele>13.6</ele>
        <time>2022-05-27T17:49:19Z</time>
      </trkpt>
      <trkpt lat="48.32813" lon="-4.24255">
        <ele>13.6</ele>
        <time>2022-05-27T17:49:24Z</time>
      </trkpt>
      <trkpt lat="48.32788" lon="-4.24198">
        <ele>13.7</ele>
        <time>2022-05-27T17:49:34Z</time>
      </trkpt>
      <trkpt lat="48.32768" lon="-4.24149">
        <ele>13.9</ele>
        <time>2022-05-27T17:49:43Z</time>
      </trkpt>
      <trkpt lat="48.32759" lon="-4.24122">
        <ele>15.5</ele>
        <time>2022-05-27T17:49:48Z</time>
      </trkpt>
      <trkpt lat="48.32756" lon="-4.24117">
        <ele>15.8</ele>
        <time>2022-05-27T17:49:49Z</time>
      </trkpt>
      <trkpt lat="48.32753" lon="-4.24112">
        <ele>16</ele>
        <time>2022-05-27T17:49:50Z</time>
      </trkpt>
      <trkpt lat="48.32736" lon="-4.24091">
        <ele>17</ele>
        <time>2022-05-27T17:49:55Z</time>
      </trkpt>
      <trkpt lat="48.32716" lon="-4.24066">
        <ele>18.4</ele>
        <time>2022-05-27T17:50:01Z</time>
      </trkpt>
      <trkpt lat="48.32675" lon="-4.2403">
        <ele>21.3</ele>
        <time>2022-05-27T17:50:13Z</time>
      </trkpt>
      <trkpt lat="48.32673" lon="-4.24026">
        <ele>21.5</ele>
        <time>2022-05-27T17:50:14Z</time>
      </trkpt>
      <trkpt lat="48.32671" lon="-4.24022">
        <ele>21.8</ele>
        <time>2022-05-27T17:50:15Z</time>
      </trkpt>
      <trkpt lat="48.32657" lon="-4.24015">
        <ele>22.8</ele>
        <time>2022-05-27T17:50:19Z</time>
      </trkpt>
      <trkpt lat="48.32628" lon="-4.24">
        <ele>25.1</ele>
        <time>2022-05-27T17:50:27Z</time>
      </trkpt>
      <trkpt lat="48.32617" lon="-4.23987">
        <ele>26.2</ele>
        <time>2022-05-27T17:50:31Z</time>
      </trkpt>
      <trkpt lat="48.32611" lon="-4.23981">
        <ele>26.8</ele>
        <time>2022-05-27T17:50:33Z</time>
      </trkpt>
      <trkpt lat="48.32602" lon="-4.23975">
        <ele>27.7</ele>
        <time>2022-05-27T17:50:36Z</time>
      </trkpt>
      <trkpt lat="48.32595" lon="-4.23965">
        <ele>28.5</ele>
        <time>2022-05-27T17:50:39Z</time>
      </trkpt>
      <trkpt lat="48.32584" lon="-4.23954">
        <ele>29.7</ele>
        <time>2022-05-27T17:50:43Z</time>
      </trkpt>
      <trkpt lat="48.32567" lon="-4.23938">
        <ele>31</ele>
        <time>2022-05-27T17:50:49Z</time>
      </trkpt>
      <trkpt lat="48.32555" lon="-4.23927">
        <ele>31.9</ele>
        <time>2022-05-27T17:50:53Z</time>
      </trkpt>
      <trkpt lat="48.32545" lon="-4.23919">
        <ele>32.6</ele>
        <time>2022-05-27T17:50:56Z</time>
      </trkpt>
      <trkpt lat="48.32541" lon="-4.23919">
        <ele>32.8</ele>
        <time>2022-05-27T17:50:57Z</time>
      </trkpt>
      <trkpt lat="48.32513" lon="-4.23903">
        <ele>35.1</ele>
        <time>2022-05-27T17:51:07Z</time>
      </trkpt>
      <trkpt lat="48.32498" lon="-4.23896">
        <ele>36.7</ele>
        <time>2022-05-27T17:51:12Z</time>
      </trkpt>
      <trkpt lat="48.32496" lon="-4.23895">
        <ele>37</ele>
        <time>2022-05-27T17:51:13Z</time>
      </trkpt>
      <trkpt lat="48.32462" lon="-4.23882">
        <ele>39.3</ele>
        <time>2022-05-27T17:51:25Z</time>
      </trkpt>
      <trkpt lat="48.32453" lon="-4.23879">
        <ele>39.5</ele>
        <time>2022-05-27T17:51:28Z</time>
      </trkpt>
      <trkpt lat="48.32448" lon="-4.23875">
        <ele>39.6</ele>
        <time>2022-05-27T17:51:30Z</time>
      </trkpt>
      <trkpt lat="48.32444" lon="-4.23874">
        <ele>39.7</ele>
        <time>2022-05-27T17:51:31Z</time>
      </trkpt>
      <trkpt lat="48.32413" lon="-4.23868">
        <ele>41</ele>
        <time>2022-05-27T17:51:40Z</time>
      </trkpt>
      <trkpt lat="48.32401" lon="-4.23871">
        <ele>41.5</ele>
        <time>2022-05-27T17:51:43Z</time>
      </trkpt>
      <trkpt lat="48.32368" lon="-4.23879">
        <ele>43.6</ele>
        <time>2022-05-27T17:51:51Z</time>
      </trkpt>
      <trkpt lat="48.32354" lon="-4.23883">
        <ele>44.7</ele>
        <time>2022-05-27T17:51:55Z</time>
      </trkpt>
      <trkpt lat="48.32334" lon="-4.23889">
        <ele>46.2</ele>
        <time>2022-05-27T17:52:01Z</time>
      </trkpt>
      <trkpt lat="48.32324" lon="-4.23892">
        <ele>47.4</ele>
        <time>2022-05-27T17:52:04Z</time>
      </trkpt>
      <trkpt lat="48.32317" lon="-4.23895">
        <ele>48.6</ele>
        <time>2022-05-27T17:52:07Z</time>
      </trkpt>
      <trkpt lat="48.32291" lon="-4.23907">
        <ele>53.1</ele>
        <time>2022-05-27T17:52:19Z</time>
      </trkpt>
      <trkpt lat="48.3228" lon="-4.23912">
        <ele>54.9</ele>
        <time>2022-05-27T17:52:24Z</time>
      </trkpt>
      <trkpt lat="48.32265" lon="-4.2392">
        <ele>57.3</ele>
        <time>2022-05-27T17:52:31Z</time>
      </trkpt>
      <trkpt lat="48.32242" lon="-4.23932">
        <ele>59.8</ele>
        <time>2022-05-27T17:52:42Z</time>
      </trkpt>
      <trkpt lat="48.32235" lon="-4.23935">
        <ele>60.5</ele>
        <time>2022-05-27T17:52:45Z</time>
      </trkpt>
      <trkpt lat="48.32206" lon="-4.23957">
        <ele>63.6</ele>
        <time>2022-05-27T17:52:57Z</time>
      </trkpt>
      <trkpt lat="48.32193" lon="-4.23966">
        <ele>65.1</ele>
        <time>2022-05-27T17:53:02Z</time>
      </trkpt>
      <trkpt lat="48.32179" lon="-4.23982">
        <ele>67</ele>
        <time>2022-05-27T17:53:09Z</time>
      </trkpt>
      <trkpt lat="48.32155" lon="-4.24005">
        <ele>70.4</ele>
        <time>2022-05-27T17:53:20Z</time>
      </trkpt>
      <trkpt lat="48.32153" lon="-4.24007">
        <ele>70.7</ele>
        <time>2022-05-27T17:53:21Z</time>
      </trkpt>
      <trkpt lat="48.32131" lon="-4.24032">
        <ele>73.9</ele>
        <time>2022-05-27T17:53:33Z</time>
      </trkpt>
      <trkpt lat="48.32116" lon="-4.24048">
        <ele>76.1</ele>
        <time>2022-05-27T17:53:41Z</time>
      </trkpt>
      <trkpt lat="48.32104" lon="-4.24059">
        <ele>77.1</ele>
        <time>2022-05-27T17:53:45Z</time>
      </trkpt>
      <trkpt lat="48.32085" lon="-4.24075">
        <ele>78.2</ele>
        <time>2022-05-27T17:53:51Z</time>
      </trkpt>
      <trkpt lat="48.32075" lon="-4.24083">
        <ele>78.5</ele>
        <time>2022-05-27T17:53:54Z</time>
      </trkpt>
      <trkpt lat="48.32063" lon="-4.24089">
        <ele>78.6</ele>
        <time>2022-05-27T17:53:57Z</time>
      </trkpt>
      <trkpt lat="48.3203" lon="-4.24108">
        <ele>77.4</ele>
        <time>2022-05-27T17:54:05Z</time>
      </trkpt>
      <trkpt lat="48.31984" lon="-4.2413">
        <ele>76.1</ele>
        <time>2022-05-27T17:54:13Z</time>
      </trkpt>
      <trkpt lat="48.31968" lon="-4.24138">
        <ele>75.7</ele>
        <time>2022-05-27T17:54:15Z</time>
      </trkpt>
      <trkpt lat="48.31936" lon="-4.24155">
        <ele>73.6</ele>
        <time>2022-05-27T17:54:19Z</time>
      </trkpt>
      <trkpt lat="48.3192" lon="-4.24168">
        <ele>72.6</ele>
        <time>2022-05-27T17:54:21Z</time>
      </trkpt>
      <trkpt lat="48.31895" lon="-4.24188">
        <ele>71.1</ele>
        <time>2022-05-27T17:54:24Z</time>
      </trkpt>
      <trkpt lat="48.3185" lon="-4.2423">
        <ele>68.7</ele>
        <time>2022-05-27T17:54:29Z</time>
      </trkpt>
      <trkpt lat="48.31825" lon="-4.24253">
        <ele>67.5</ele>
        <time>2022-05-27T17:54:32Z</time>
      </trkpt>
      <trkpt lat="48.3181" lon="-4.24268">
        <ele>67.9</ele>
        <time>2022-05-27T17:54:34Z</time>
      </trkpt>
      <trkpt lat="48.31797" lon="-4.2429">
        <ele>68.7</ele>
        <time>2022-05-27T17:54:37Z</time>
      </trkpt>
      <trkpt lat="48.3178" lon="-4.2432">
        <ele>70.7</ele>
        <time>2022-05-27T17:54:41Z</time>
      </trkpt>
      <trkpt lat="48.31777" lon="-4.24328">
        <ele>71.1</ele>
        <time>2022-05-27T17:54:42Z</time>
      </trkpt>
      <trkpt lat="48.31755" lon="-4.24383">
        <ele>72</ele>
        <time>2022-05-27T17:54:49Z</time>
      </trkpt>
      <trkpt lat="48.31743" lon="-4.24405">
        <ele>72.4</ele>
        <time>2022-05-27T17:54:52Z</time>
      </trkpt>
      <trkpt lat="48.31724" lon="-4.24442">
        <ele>73</ele>
        <time>2022-05-27T17:54:57Z</time>
      </trkpt>
      <trkpt lat="48.31719" lon="-4.24449">
        <ele>73</ele>
        <time>2022-05-27T17:54:58Z</time>
      </trkpt>
      <trkpt lat="48.31689" lon="-4.24494">
        <ele>71.8</ele>
        <time>2022-05-27T17:55:04Z</time>
      </trkpt>
      <trkpt lat="48.31652" lon="-4.24542">
        <ele>70.5</ele>
        <time>2022-05-27T17:55:10Z</time>
      </trkpt>
      <trkpt lat="48.31639" lon="-4.24559">
        <ele>69.2</ele>
        <time>2022-05-27T17:55:12Z</time>
      </trkpt>
      <trkpt lat="48.31601" lon="-4.24587">
        <ele>66.7</ele>
        <time>2022-05-27T17:55:16Z</time>
      </trkpt>
      <trkpt lat="48.31592" lon="-4.24593">
        <ele>66.3</ele>
        <time>2022-05-27T17:55:17Z</time>
      </trkpt>
      <trkpt lat="48.31549" lon="-4.24624">
        <ele>64.4</ele>
        <time>2022-05-27T17:55:22Z</time>
      </trkpt>
      <trkpt lat="48.31509" lon="-4.24667">
        <ele>62.5</ele>
        <time>2022-05-27T17:55:27Z</time>
      </trkpt>
      <trkpt lat="48.31502" lon="-4.24676">
        <ele>62.2</ele>
        <time>2022-05-27T17:55:28Z</time>
      </trkpt>
      <trkpt lat="48.31488" lon="-4.24695">
        <ele>61.7</ele>
        <time>2022-05-27T17:55:30Z</time>
      </trkpt>
      <trkpt lat="48.31455" lon="-4.24749">
        <ele>60.4</ele>
        <time>2022-05-27T17:55:35Z</time>
      </trkpt>
      <trkpt lat="48.31422" lon="-4.24791">
        <ele>59.2</ele>
        <time>2022-05-27T17:55:40Z</time>
      </trkpt>
      <trkpt lat="48.31416" lon="-4.24799">
        <ele>59.1</ele>
        <time>2022-05-27T17:55:41Z</time>
      </trkpt>
      <trkpt lat="48.31381" lon="-4.24834">
        <ele>58.7</ele>
        <time>2022-05-27T17:55:46Z</time>
      </trkpt>
      <trkpt lat="48.31373" lon="-4.24841">
        <ele>58.5</ele>
        <time>2022-05-27T17:55:47Z</time>
      </trkpt>
      <trkpt lat="48.31335" lon="-4.24874">
        <ele>57.1</ele>
        <time>2022-05-27T17:55:52Z</time>
      </trkpt>
      <trkpt lat="48.3128" lon="-4.24897">
        <ele>52.5</ele>
        <time>2022-05-27T17:55:57Z</time>
      </trkpt>
      <trkpt lat="48.31267" lon="-4.24898">
        <ele>51.6</ele>
        <time>2022-05-27T17:55:58Z</time>
      </trkpt>
      <trkpt lat="48.31241" lon="-4.249">
        <ele>49.2</ele>
        <time>2022-05-27T17:56:00Z</time>
      </trkpt>
      <trkpt lat="48.31185" lon="-4.24891">
        <ele>44.5</ele>
        <time>2022-05-27T17:56:04Z</time>
      </trkpt>
      <trkpt lat="48.31142" lon="-4.24885">
        <ele>40.4</ele>
        <time>2022-05-27T17:56:07Z</time>
      </trkpt>
      <trkpt lat="48.31101" lon="-4.24891">
        <ele>36.9</ele>
        <time>2022-05-27T17:56:10Z</time>
      </trkpt>
      <trkpt lat="48.31088" lon="-4.24894">
        <ele>36.9</ele>
        <time>2022-05-27T17:56:11Z</time>
      </trkpt>
      <trkpt lat="48.31045" lon="-4.24916">
        <ele>37.1</ele>
        <time>2022-05-27T17:56:15Z</time>
      </trkpt>
      <trkpt lat="48.30995" lon="-4.24938">
        <ele>37.4</ele>
        <time>2022-05-27T17:56:21Z</time>
      </trkpt>
      <trkpt lat="48.30987" lon="-4.24943">
        <ele>37.3</ele>
        <time>2022-05-27T17:56:22Z</time>
      </trkpt>
      <trkpt lat="48.30978" lon="-4.24947">
        <ele>37</ele>
        <time>2022-05-27T17:56:23Z</time>
      </trkpt>
      <trkpt lat="48.3093" lon="-4.24957">
        <ele>35.3</ele>
        <time>2022-05-27T17:56:28Z</time>
      </trkpt>
      <trkpt lat="48.30901" lon="-4.24964">
        <ele>34.3</ele>
        <time>2022-05-27T17:56:31Z</time>
      </trkpt>
      <trkpt lat="48.30873" lon="-4.24963">
        <ele>33.4</ele>
        <time>2022-05-27T17:56:34Z</time>
      </trkpt>
      <trkpt lat="48.30855" lon="-4.24962">
        <ele>33.1</ele>
        <time>2022-05-27T17:56:36Z</time>
      </trkpt>
      <trkpt lat="48.3084" lon="-4.24959">
        <ele>32.8</ele>
        <time>2022-05-27T17:56:38Z</time>
      </trkpt>
      <trkpt lat="48.30823" lon="-4.24964">
        <ele>32.3</ele>
        <time>2022-05-27T17:56:40Z</time>
      </trkpt>
      <trkpt lat="48.30813" lon="-4.24966">
        <ele>31.6</ele>
        <time>2022-05-27T17:56:41Z</time>
      </trkpt>
      <trkpt lat="48.30773" lon="-4.24986">
        <ele>29.2</ele>
        <time>2022-05-27T17:56:45Z</time>
      </trkpt>
      <trkpt lat="48.30764" lon="-4.2499">
        <ele>28.9</ele>
        <time>2022-05-27T17:56:46Z</time>
      </trkpt>
      <trkpt lat="48.30716" lon="-4.24994">
        <ele>27.9</ele>
        <time>2022-05-27T17:56:51Z</time>
      </trkpt>
      <trkpt lat="48.30672" lon="-4.24996">
        <ele>26.9</ele>
        <time>2022-05-27T17:56:56Z</time>
      </trkpt>
      <trkpt lat="48.30664" lon="-4.24993">
        <ele>26.8</ele>
        <time>2022-05-27T17:56:57Z</time>
      </trkpt>
      <trkpt lat="48.30632" lon="-4.24982">
        <ele>26.5</ele>
        <time>2022-05-27T17:57:01Z</time>
      </trkpt>
      <trkpt lat="48.30624" lon="-4.2498">
        <ele>26.4</ele>
        <time>2022-05-27T17:57:02Z</time>
      </trkpt>
      <trkpt lat="48.30602" lon="-4.24979">
        <ele>26.1</ele>
        <time>2022-05-27T17:57:05Z</time>
      </trkpt>
      <trkpt lat="48.30596" lon="-4.24983">
        <ele>26</ele>
        <time>2022-05-27T17:57:06Z</time>
      </trkpt>
      <trkpt lat="48.30547" lon="-4.24992">
        <ele>25.4</ele>
        <time>2022-05-27T17:57:13Z</time>
      </trkpt>
      <trkpt lat="48.30517" lon="-4.24983">
        <ele>25.1</ele>
        <time>2022-05-27T17:57:17Z</time>
      </trkpt>
      <trkpt lat="48.30501" lon="-4.24968">
        <ele>24.7</ele>
        <time>2022-05-27T17:57:19Z</time>
      </trkpt>
      <trkpt lat="48.30477" lon="-4.24945">
        <ele>22.4</ele>
        <time>2022-05-27T17:57:22Z</time>
      </trkpt>
      <trkpt lat="48.30451" lon="-4.24917">
        <ele>20.1</ele>
        <time>2022-05-27T17:57:25Z</time>
      </trkpt>
      <trkpt lat="48.30434" lon="-4.24899">
        <ele>18.6</ele>
        <time>2022-05-27T17:57:27Z</time>
      </trkpt>
      <trkpt lat="48.30425" lon="-4.24893">
        <ele>17.9</ele>
        <time>2022-05-27T17:57:28Z</time>
      </trkpt>
      <trkpt lat="48.30393" lon="-4.24883">
        <ele>15.8</ele>
        <time>2022-05-27T17:57:31Z</time>
      </trkpt>
      <trkpt lat="48.30382" lon="-4.24881">
        <ele>15.6</ele>
        <time>2022-05-27T17:57:32Z</time>
      </trkpt>
      <trkpt lat="48.30335" lon="-4.24891">
        <ele>14.8</ele>
        <time>2022-05-27T17:57:37Z</time>
      </trkpt>
      <trkpt lat="48.30288" lon="-4.24906">
        <ele>13.9</ele>
        <time>2022-05-27T17:57:43Z</time>
      </trkpt>
      <trkpt lat="48.30249" lon="-4.24922">
        <ele>13.9</ele>
        <time>2022-05-27T17:57:49Z</time>
      </trkpt>
      <trkpt lat="48.30243" lon="-4.24924">
        <ele>13.6</ele>
        <time>2022-05-27T17:57:50Z</time>
      </trkpt>
      <trkpt lat="48.30213" lon="-4.24926">
        <ele>12.5</ele>
        <time>2022-05-27T17:57:55Z</time>
      </trkpt>
      <trkpt lat="48.30207" lon="-4.24926">
        <ele>12.5</ele>
        <time>2022-05-27T17:57:56Z</time>
      </trkpt>
      <trkpt lat="48.3018" lon="-4.24916">
        <ele>12.3</ele>
        <time>2022-05-27T17:58:01Z</time>
      </trkpt>
      <trkpt lat="48.30169" lon="-4.24902">
        <ele>12.7</ele>
        <time>2022-05-27T17:58:08Z</time>
      </trkpt>
      <trkpt lat="48.30169" lon="-4.24902">
        <ele>12.7</ele>
        <time>2022-05-27T18:19:25Z</time>
      </trkpt>
      <trkpt lat="48.30175" lon="-4.24894">
        <ele>13.1</ele>
        <time>2022-05-27T18:19:29Z</time>
      </trkpt>
      <trkpt lat="48.30184" lon="-4.24902">
        <ele>13.1</ele>
        <time>2022-05-27T18:19:31Z</time>
      </trkpt>
      <trkpt lat="48.30189" lon="-4.24908">
        <ele>13.1</ele>
        <time>2022-05-27T18:19:32Z</time>
      </trkpt>
      <trkpt lat="48.30196" lon="-4.24902">
        <ele>13.2</ele>
        <time>2022-05-27T18:19:33Z</time>
      </trkpt>
      <trkpt lat="48.3024" lon="-4.24912">
        <ele>13.2</ele>
        <time>2022-05-27T18:19:41Z</time>
      </trkpt>
      <trkpt lat="48.30288" lon="-4.24902">
        <ele>13.2</ele>
        <time>2022-05-27T18:19:50Z</time>
      </trkpt>
      <trkpt lat="48.30298" lon="-4.24899">
        <ele>13.2</ele>
        <time>2022-05-27T18:19:52Z</time>
      </trkpt>
      <trkpt lat="48.30324" lon="-4.24891">
        <ele>13.4</ele>
        <time>2022-05-27T18:19:57Z</time>
      </trkpt>
      <trkpt lat="48.30335" lon="-4.24887">
        <ele>13.6</ele>
        <time>2022-05-27T18:19:59Z</time>
      </trkpt>
      <trkpt lat="48.30383" lon="-4.24879">
        <ele>14.3</ele>
        <time>2022-05-27T18:20:07Z</time>
      </trkpt>
      <trkpt lat="48.30431" lon="-4.24889">
        <ele>15.1</ele>
        <time>2022-05-27T18:20:16Z</time>
      </trkpt>
      <trkpt lat="48.30467" lon="-4.24921">
        <ele>16.1</ele>
        <time>2022-05-27T18:20:26Z</time>
      </trkpt>
      <trkpt lat="48.3047" lon="-4.24924">
        <ele>16.4</ele>
        <time>2022-05-27T18:20:27Z</time>
      </trkpt>
      <trkpt lat="48.305" lon="-4.24955">
        <ele>19.7</ele>
        <time>2022-05-27T18:20:38Z</time>
      </trkpt>
      <trkpt lat="48.30509" lon="-4.24963">
        <ele>20.6</ele>
        <time>2022-05-27T18:20:41Z</time>
      </trkpt>
      <trkpt lat="48.30537" lon="-4.24978">
        <ele>23.2</ele>
        <time>2022-05-27T18:20:50Z</time>
      </trkpt>
      <trkpt lat="48.3055" lon="-4.24984">
        <ele>23.7</ele>
        <time>2022-05-27T18:20:54Z</time>
      </trkpt>
      <trkpt lat="48.30558" lon="-4.24982">
        <ele>24</ele>
        <time>2022-05-27T18:20:56Z</time>
      </trkpt>
      <trkpt lat="48.30585" lon="-4.24977">
        <ele>24.7</ele>
        <time>2022-05-27T18:21:02Z</time>
      </trkpt>
      <trkpt lat="48.30598" lon="-4.24974">
        <ele>24.9</ele>
        <time>2022-05-27T18:21:05Z</time>
      </trkpt>
      <trkpt lat="48.30629" lon="-4.24971">
        <ele>25.3</ele>
        <time>2022-05-27T18:21:11Z</time>
      </trkpt>
      <trkpt lat="48.30677" lon="-4.24986">
        <ele>25.9</ele>
        <time>2022-05-27T18:21:20Z</time>
      </trkpt>
      <trkpt lat="48.30723" lon="-4.24987">
        <ele>26.5</ele>
        <time>2022-05-27T18:21:29Z</time>
      </trkpt>
      <trkpt lat="48.30772" lon="-4.24983">
        <ele>27.1</ele>
        <time>2022-05-27T18:21:38Z</time>
      </trkpt>
      <trkpt lat="48.30816" lon="-4.24963">
        <ele>27.8</ele>
        <time>2022-05-27T18:21:48Z</time>
      </trkpt>
      <trkpt lat="48.30823" lon="-4.24962">
        <ele>28.1</ele>
        <time>2022-05-27T18:21:50Z</time>
      </trkpt>
      <trkpt lat="48.3084" lon="-4.2496">
        <ele>29.9</ele>
        <time>2022-05-27T18:21:55Z</time>
      </trkpt>
      <trkpt lat="48.30864" lon="-4.24958">
        <ele>31.3</ele>
        <time>2022-05-27T18:22:02Z</time>
      </trkpt>
      <trkpt lat="48.30887" lon="-4.24957">
        <ele>32.3</ele>
        <time>2022-05-27T18:22:07Z</time>
      </trkpt>
      <trkpt lat="48.3091" lon="-4.24956">
        <ele>32.5</ele>
        <time>2022-05-27T18:22:12Z</time>
      </trkpt>
      <trkpt lat="48.30914" lon="-4.24955">
        <ele>32.6</ele>
        <time>2022-05-27T18:22:13Z</time>
      </trkpt>
      <trkpt lat="48.30955" lon="-4.24945">
        <ele>34.2</ele>
        <time>2022-05-27T18:22:23Z</time>
      </trkpt>
      <trkpt lat="48.30984" lon="-4.24938">
        <ele>35.5</ele>
        <time>2022-05-27T18:22:31Z</time>
      </trkpt>
      <trkpt lat="48.31002" lon="-4.24933">
        <ele>36.4</ele>
        <time>2022-05-27T18:22:36Z</time>
      </trkpt>
      <trkpt lat="48.31007" lon="-4.2493">
        <ele>36.5</ele>
        <time>2022-05-27T18:22:37Z</time>
      </trkpt>
      <trkpt lat="48.31032" lon="-4.24918">
        <ele>36.5</ele>
        <time>2022-05-27T18:22:43Z</time>
      </trkpt>
      <trkpt lat="48.31046" lon="-4.24912">
        <ele>35.8</ele>
        <time>2022-05-27T18:22:46Z</time>
      </trkpt>
      <trkpt lat="48.31095" lon="-4.24891">
        <ele>34</ele>
        <time>2022-05-27T18:22:54Z</time>
      </trkpt>
      <trkpt lat="48.31099" lon="-4.2489">
        <ele>33.8</ele>
        <time>2022-05-27T18:22:55Z</time>
      </trkpt>
      <trkpt lat="48.31128" lon="-4.24885">
        <ele>33.7</ele>
        <time>2022-05-27T18:23:01Z</time>
      </trkpt>
      <trkpt lat="48.31141" lon="-4.24883">
        <ele>33.5</ele>
        <time>2022-05-27T18:23:04Z</time>
      </trkpt>
      <trkpt lat="48.31145" lon="-4.24878">
        <ele>33.3</ele>
        <time>2022-05-27T18:23:06Z</time>
      </trkpt>
      <trkpt lat="48.31136" lon="-4.24807">
        <ele>32.1</ele>
        <time>2022-05-27T18:23:18Z</time>
      </trkpt>
      <trkpt lat="48.31134" lon="-4.248">
        <ele>31.9</ele>
        <time>2022-05-27T18:23:19Z</time>
      </trkpt>
      <trkpt lat="48.31125" lon="-4.24756">
        <ele>29.5</ele>
        <time>2022-05-27T18:23:25Z</time>
      </trkpt>
      <trkpt lat="48.31123" lon="-4.24742">
        <ele>28.7</ele>
        <time>2022-05-27T18:23:27Z</time>
      </trkpt>
      <trkpt lat="48.31117" lon="-4.24688">
        <ele>25.5</ele>
        <time>2022-05-27T18:23:36Z</time>
      </trkpt>
      <trkpt lat="48.31115" lon="-4.2467">
        <ele>23.8</ele>
        <time>2022-05-27T18:23:39Z</time>
      </trkpt>
      <trkpt lat="48.31104" lon="-4.24615">
        <ele>19</ele>
        <time>2022-05-27T18:23:48Z</time>
      </trkpt>
      <trkpt lat="48.31103" lon="-4.24609">
        <ele>18.4</ele>
        <time>2022-05-27T18:23:49Z</time>
      </trkpt>
      <trkpt lat="48.31111" lon="-4.2458">
        <ele>15.6</ele>
        <time>2022-05-27T18:23:54Z</time>
      </trkpt>
      <trkpt lat="48.31121" lon="-4.24566">
        <ele>14.7</ele>
        <time>2022-05-27T18:23:59Z</time>
      </trkpt>
      <trkpt lat="48.31125" lon="-4.24542">
        <ele>13.7</ele>
        <time>2022-05-27T18:24:04Z</time>
      </trkpt>
      <trkpt lat="48.31125" lon="-4.24536">
        <ele>13.6</ele>
        <time>2022-05-27T18:24:05Z</time>
      </trkpt>
      <trkpt lat="48.31125" lon="-4.24505">
        <ele>13.9</ele>
        <time>2022-05-27T18:24:11Z</time>
      </trkpt>
      <trkpt lat="48.31125" lon="-4.24474">
        <ele>15.4</ele>
        <time>2022-05-27T18:24:17Z</time>
      </trkpt>
      <trkpt lat="48.31124" lon="-4.2446">
        <ele>16.3</ele>
        <time>2022-05-27T18:24:21Z</time>
      </trkpt>
      <trkpt lat="48.31122" lon="-4.24441">
        <ele>17.9</ele>
        <time>2022-05-27T18:24:27Z</time>
      </trkpt>
      <trkpt lat="48.3112" lon="-4.24404">
        <ele>21</ele>
        <time>2022-05-27T18:24:38Z</time>
      </trkpt>
      <trkpt lat="48.3112" lon="-4.244">
        <ele>21.3</ele>
        <time>2022-05-27T18:24:39Z</time>
      </trkpt>
      <trkpt lat="48.31116" lon="-4.24352">
        <ele>24.5</ele>
        <time>2022-05-27T18:24:51Z</time>
      </trkpt>
      <trkpt lat="48.31133" lon="-4.24326">
        <ele>29</ele>
        <time>2022-05-27T18:24:56Z</time>
      </trkpt>
      <trkpt lat="48.31133" lon="-4.24326">
        <ele>29</ele>
        <time>2022-05-27T18:25:18Z</time>
      </trkpt>
      <trkpt lat="48.31151" lon="-4.24315">
        <ele>32.4</ele>
        <time>2022-05-27T18:25:25Z</time>
      </trkpt>
      <trkpt lat="48.31153" lon="-4.2431">
        <ele>32.8</ele>
        <time>2022-05-27T18:25:27Z</time>
      </trkpt>
      <trkpt lat="48.31174" lon="-4.24258">
        <ele>36.2</ele>
        <time>2022-05-27T18:25:45Z</time>
      </trkpt>
      <trkpt lat="48.31194" lon="-4.24194">
        <ele>38.5</ele>
        <time>2022-05-27T18:26:03Z</time>
      </trkpt>
      <trkpt lat="48.31206" lon="-4.24119">
        <ele>40.1</ele>
        <time>2022-05-27T18:26:15Z</time>
      </trkpt>
      <trkpt lat="48.31206" lon="-4.24119">
        <ele>40.1</ele>
        <time>2022-05-27T18:26:52Z</time>
      </trkpt>
      <trkpt lat="48.31216" lon="-4.24058">
        <ele>41</ele>
        <time>2022-05-27T18:26:58Z</time>
      </trkpt>
      <trkpt lat="48.31223" lon="-4.23987">
        <ele>41.4</ele>
        <time>2022-05-27T18:27:09Z</time>
      </trkpt>
      <trkpt lat="48.3123" lon="-4.23916">
        <ele>41.9</ele>
        <time>2022-05-27T18:27:21Z</time>
      </trkpt>
      <trkpt lat="48.31246" lon="-4.23875">
        <ele>42.3</ele>
        <time>2022-05-27T18:27:30Z</time>
      </trkpt>
      <trkpt lat="48.31252" lon="-4.23857">
        <ele>43.6</ele>
        <time>2022-05-27T18:27:34Z</time>
      </trkpt>
      <trkpt lat="48.31254" lon="-4.2385">
        <ele>44.3</ele>
        <time>2022-05-27T18:27:36Z</time>
      </trkpt>
      <trkpt lat="48.31266" lon="-4.23809">
        <ele>47.7</ele>
        <time>2022-05-27T18:27:48Z</time>
      </trkpt>
      <trkpt lat="48.3127" lon="-4.23795">
        <ele>48.6</ele>
        <time>2022-05-27T18:27:52Z</time>
      </trkpt>
      <trkpt lat="48.31287" lon="-4.23767">
        <ele>50.3</ele>
        <time>2022-05-27T18:28:00Z</time>
      </trkpt>
      <trkpt lat="48.31299" lon="-4.23747">
        <ele>50.7</ele>
        <time>2022-05-27T18:28:06Z</time>
      </trkpt>
      <trkpt lat="48.31302" lon="-4.23743">
        <ele>50.6</ele>
        <time>2022-05-27T18:28:07Z</time>
      </trkpt>
      <trkpt lat="48.31334" lon="-4.23691">
        <ele>49.5</ele>
        <time>2022-05-27T18:28:18Z</time>
      </trkpt>
      <trkpt lat="48.31367" lon="-4.23638">
        <ele>48.5</ele>
        <time>2022-05-27T18:28:28Z</time>
      </trkpt>
      <trkpt lat="48.31388" lon="-4.23609">
        <ele>47.8</ele>
        <time>2022-05-27T18:28:34Z</time>
      </trkpt>
      <trkpt lat="48.31402" lon="-4.23589">
        <ele>46.4</ele>
        <time>2022-05-27T18:28:38Z</time>
      </trkpt>
      <trkpt lat="48.31432" lon="-4.23551">
        <ele>43.7</ele>
        <time>2022-05-27T18:28:46Z</time>
      </trkpt>
      <trkpt lat="48.3144" lon="-4.23541">
        <ele>43</ele>
        <time>2022-05-27T18:28:48Z</time>
      </trkpt>
      <trkpt lat="48.31466" lon="-4.23514">
        <ele>40.9</ele>
        <time>2022-05-27T18:28:54Z</time>
      </trkpt>
      <trkpt lat="48.31473" lon="-4.23514">
        <ele>40.2</ele>
        <time>2022-05-27T18:28:56Z</time>
      </trkpt>
      <trkpt lat="48.31474" lon="-4.23516">
        <ele>39.9</ele>
        <time>2022-05-27T18:28:57Z</time>
      </trkpt>
      <trkpt lat="48.31475" lon="-4.23518">
        <ele>39.7</ele>
        <time>2022-05-27T18:28:58Z</time>
      </trkpt>
      <trkpt lat="48.31482" lon="-4.2353">
        <ele>40.8</ele>
        <time>2022-05-27T18:29:04Z</time>
      </trkpt>
      <trkpt lat="48.31489" lon="-4.23542">
        <ele>42.7</ele>
        <time>2022-05-27T18:29:10Z</time>
      </trkpt>
      <trkpt lat="48.31502" lon="-4.23567">
        <ele>46.2</ele>
        <time>2022-05-27T18:29:22Z</time>
      </trkpt>
      <trkpt lat="48.31516" lon="-4.23596">
        <ele>50.4</ele>
        <time>2022-05-27T18:29:34Z</time>
      </trkpt>
      <trkpt lat="48.31529" lon="-4.23623">
        <ele>54</ele>
        <time>2022-05-27T18:29:45Z</time>
      </trkpt>
      <trkpt lat="48.3153" lon="-4.23625">
        <ele>54.3</ele>
        <time>2022-05-27T18:29:46Z</time>
      </trkpt>
      <trkpt lat="48.31543" lon="-4.23651">
        <ele>57.8</ele>
        <time>2022-05-27T18:29:58Z</time>
      </trkpt>
      <trkpt lat="48.31555" lon="-4.23678">
        <ele>60.8</ele>
        <time>2022-05-27T18:30:10Z</time>
      </trkpt>
      <trkpt lat="48.31578" lon="-4.23721">
        <ele>64.1</ele>
        <time>2022-05-27T18:30:26Z</time>
      </trkpt>
      <trkpt lat="48.31583" lon="-4.23732">
        <ele>64.5</ele>
        <time>2022-05-27T18:30:30Z</time>
      </trkpt>
      <trkpt lat="48.31596" lon="-4.23759">
        <ele>65</ele>
        <time>2022-05-27T18:30:36Z</time>
      </trkpt>
      <trkpt lat="48.31611" lon="-4.2379">
        <ele>64.3</ele>
        <time>2022-05-27T18:30:43Z</time>
      </trkpt>
      <trkpt lat="48.31642" lon="-4.23845">
        <ele>63.4</ele>
        <time>2022-05-27T18:30:52Z</time>
      </trkpt>
      <trkpt lat="48.31673" lon="-4.23892">
        <ele>60.8</ele>
        <time>2022-05-27T18:30:58Z</time>
      </trkpt>
      <trkpt lat="48.31678" lon="-4.239">
        <ele>60.6</ele>
        <time>2022-05-27T18:30:59Z</time>
      </trkpt>
      <trkpt lat="48.317" lon="-4.23941">
        <ele>60</ele>
        <time>2022-05-27T18:31:04Z</time>
      </trkpt>
      <trkpt lat="48.31716" lon="-4.23992">
        <ele>59.4</ele>
        <time>2022-05-27T18:31:10Z</time>
      </trkpt>
      <trkpt lat="48.31721" lon="-4.24008">
        <ele>59.8</ele>
        <time>2022-05-27T18:31:12Z</time>
      </trkpt>
      <trkpt lat="48.31743" lon="-4.24074">
        <ele>61.5</ele>
        <time>2022-05-27T18:31:21Z</time>
      </trkpt>
      <trkpt lat="48.31762" lon="-4.24107">
        <ele>62.9</ele>
        <time>2022-05-27T18:31:28Z</time>
      </trkpt>
      <trkpt lat="48.31774" lon="-4.24126">
        <ele>63.8</ele>
        <time>2022-05-27T18:31:32Z</time>
      </trkpt>
      <trkpt lat="48.31799" lon="-4.24166">
        <ele>65.6</ele>
        <time>2022-05-27T18:31:40Z</time>
      </trkpt>
      <trkpt lat="48.31805" lon="-4.24175">
        <ele>65.8</ele>
        <time>2022-05-27T18:31:42Z</time>
      </trkpt>
      <trkpt lat="48.31834" lon="-4.24217">
        <ele>66.7</ele>
        <time>2022-05-27T18:31:52Z</time>
      </trkpt>
      <trkpt lat="48.31838" lon="-4.2422">
        <ele>66.7</ele>
        <time>2022-05-27T18:31:53Z</time>
      </trkpt>
      <trkpt lat="48.31847" lon="-4.24222">
        <ele>66.9</ele>
        <time>2022-05-27T18:31:55Z</time>
      </trkpt>
      <trkpt lat="48.31866" lon="-4.24205">
        <ele>67.2</ele>
        <time>2022-05-27T18:32:00Z</time>
      </trkpt>
      <trkpt lat="48.31875" lon="-4.24141">
        <ele>68</ele>
        <time>2022-05-27T18:32:10Z</time>
      </trkpt>
      <trkpt lat="48.31876" lon="-4.24135">
        <ele>68.2</ele>
        <time>2022-05-27T18:32:11Z</time>
      </trkpt>
      <trkpt lat="48.3188" lon="-4.24065">
        <ele>70.3</ele>
        <time>2022-05-27T18:32:22Z</time>
      </trkpt>
      <trkpt lat="48.31883" lon="-4.24034">
        <ele>71.3</ele>
        <time>2022-05-27T18:32:27Z</time>
      </trkpt>
      <trkpt lat="48.31887" lon="-4.23998">
        <ele>72.1</ele>
        <time>2022-05-27T18:32:33Z</time>
      </trkpt>
      <trkpt lat="48.31906" lon="-4.23942">
        <ele>73.2</ele>
        <time>2022-05-27T18:32:42Z</time>
      </trkpt>
      <trkpt lat="48.31908" lon="-4.23935">
        <ele>73.1</ele>
        <time>2022-05-27T18:32:43Z</time>
      </trkpt>
      <trkpt lat="48.31941" lon="-4.23879">
        <ele>72.2</ele>
        <time>2022-05-27T18:32:52Z</time>
      </trkpt>
      <trkpt lat="48.31974" lon="-4.23833">
        <ele>71.6</ele>
        <time>2022-05-27T18:32:59Z</time>
      </trkpt>
      <trkpt lat="48.31979" lon="-4.23827">
        <ele>71.5</ele>
        <time>2022-05-27T18:33:00Z</time>
      </trkpt>
      <trkpt lat="48.32013" lon="-4.23778">
        <ele>70.8</ele>
        <time>2022-05-27T18:33:07Z</time>
      </trkpt>
      <trkpt lat="48.32031" lon="-4.23753">
        <ele>70.4</ele>
        <time>2022-05-27T18:33:11Z</time>
      </trkpt>
      <trkpt lat="48.32049" lon="-4.23728">
        <ele>70</ele>
        <time>2022-05-27T18:33:15Z</time>
      </trkpt>
      <trkpt lat="48.32085" lon="-4.23677">
        <ele>69.1</ele>
        <time>2022-05-27T18:33:24Z</time>
      </trkpt>
      <trkpt lat="48.32118" lon="-4.23624">
        <ele>68.3</ele>
        <time>2022-05-27T18:33:32Z</time>
      </trkpt>
      <trkpt lat="48.32155" lon="-4.23566">
        <ele>67.6</ele>
        <time>2022-05-27T18:33:39Z</time>
      </trkpt>
      <trkpt lat="48.32167" lon="-4.23545">
        <ele>67.3</ele>
        <time>2022-05-27T18:33:41Z</time>
      </trkpt>
      <trkpt lat="48.32191" lon="-4.23504">
        <ele>64.7</ele>
        <time>2022-05-27T18:33:45Z</time>
      </trkpt>
      <trkpt lat="48.32201" lon="-4.23483">
        <ele>63.4</ele>
        <time>2022-05-27T18:33:47Z</time>
      </trkpt>
      <trkpt lat="48.32209" lon="-4.23461">
        <ele>62.3</ele>
        <time>2022-05-27T18:33:49Z</time>
      </trkpt>
      <trkpt lat="48.3221" lon="-4.23451">
        <ele>61.7</ele>
        <time>2022-05-27T18:33:50Z</time>
      </trkpt>
      <trkpt lat="48.32218" lon="-4.23433">
        <ele>60</ele>
        <time>2022-05-27T18:33:53Z</time>
      </trkpt>
      <trkpt lat="48.3222" lon="-4.23427">
        <ele>59.6</ele>
        <time>2022-05-27T18:33:54Z</time>
      </trkpt>
      <trkpt lat="48.32217" lon="-4.23423">
        <ele>59.2</ele>
        <time>2022-05-27T18:33:55Z</time>
      </trkpt>
      <trkpt lat="48.32165" lon="-4.23404">
        <ele>55.3</ele>
        <time>2022-05-27T18:34:04Z</time>
      </trkpt>
      <trkpt lat="48.32153" lon="-4.23402">
        <ele>54.9</ele>
        <time>2022-05-27T18:34:05Z</time>
      </trkpt>
      <trkpt lat="48.32118" lon="-4.23397">
        <ele>53.1</ele>
        <time>2022-05-27T18:34:08Z</time>
      </trkpt>
      <trkpt lat="48.32087" lon="-4.23396">
        <ele>51.5</ele>
        <time>2022-05-27T18:34:11Z</time>
      </trkpt>
      <trkpt lat="48.32066" lon="-4.23394">
        <ele>51.1</ele>
        <time>2022-05-27T18:34:13Z</time>
      </trkpt>
      <trkpt lat="48.32031" lon="-4.23389">
        <ele>50.2</ele>
        <time>2022-05-27T18:34:17Z</time>
      </trkpt>
      <trkpt lat="48.31982" lon="-4.23384">
        <ele>48.8</ele>
        <time>2022-05-27T18:34:23Z</time>
      </trkpt>
      <trkpt lat="48.31939" lon="-4.2337">
        <ele>46.4</ele>
        <time>2022-05-27T18:34:28Z</time>
      </trkpt>
      <trkpt lat="48.31933" lon="-4.23363">
        <ele>46.2</ele>
        <time>2022-05-27T18:34:29Z</time>
      </trkpt>
      <trkpt lat="48.31915" lon="-4.23345">
        <ele>46.5</ele>
        <time>2022-05-27T18:34:32Z</time>
      </trkpt>
      <trkpt lat="48.31906" lon="-4.23338">
        <ele>46.8</ele>
        <time>2022-05-27T18:34:34Z</time>
      </trkpt>
      <trkpt lat="48.3189" lon="-4.23306">
        <ele>48.7</ele>
        <time>2022-05-27T18:34:39Z</time>
      </trkpt>
      <trkpt lat="48.31877" lon="-4.2328">
        <ele>49.4</ele>
        <time>2022-05-27T18:34:43Z</time>
      </trkpt>
      <trkpt lat="48.31868" lon="-4.23247">
        <ele>50.1</ele>
        <time>2022-05-27T18:34:47Z</time>
      </trkpt>
      <trkpt lat="48.31869" lon="-4.23227">
        <ele>50.1</ele>
        <time>2022-05-27T18:34:49Z</time>
      </trkpt>
      <trkpt lat="48.31896" lon="-4.23172">
        <ele>47.2</ele>
        <time>2022-05-27T18:34:54Z</time>
      </trkpt>
      <trkpt lat="48.31903" lon="-4.23159">
        <ele>46.5</ele>
        <time>2022-05-27T18:34:55Z</time>
      </trkpt>
      <trkpt lat="48.31932" lon="-4.2311">
        <ele>42.3</ele>
        <time>2022-05-27T18:34:59Z</time>
      </trkpt>
      <trkpt lat="48.31947" lon="-4.23082">
        <ele>40.2</ele>
        <time>2022-05-27T18:35:01Z</time>
      </trkpt>
      <trkpt lat="48.31962" lon="-4.23054">
        <ele>38.3</ele>
        <time>2022-05-27T18:35:03Z</time>
      </trkpt>
      <trkpt lat="48.31992" lon="-4.23">
        <ele>34.6</ele>
        <time>2022-05-27T18:35:07Z</time>
      </trkpt>
      <trkpt lat="48.32013" lon="-4.2297">
        <ele>32.3</ele>
        <time>2022-05-27T18:35:10Z</time>
      </trkpt>
      <trkpt lat="48.32018" lon="-4.22943">
        <ele>30.8</ele>
        <time>2022-05-27T18:35:12Z</time>
      </trkpt>
      <trkpt lat="48.32019" lon="-4.22931">
        <ele>30.2</ele>
        <time>2022-05-27T18:35:13Z</time>
      </trkpt>
      <trkpt lat="48.32023" lon="-4.22871">
        <ele>29</ele>
        <time>2022-05-27T18:35:18Z</time>
      </trkpt>
      <trkpt lat="48.32025" lon="-4.22847">
        <ele>28.5</ele>
        <time>2022-05-27T18:35:20Z</time>
      </trkpt>
      <trkpt lat="48.32021" lon="-4.22783">
        <ele>27.2</ele>
        <time>2022-05-27T18:35:25Z</time>
      </trkpt>
      <trkpt lat="48.3202" lon="-4.22771">
        <ele>26.6</ele>
        <time>2022-05-27T18:35:26Z</time>
      </trkpt>
      <trkpt lat="48.32014" lon="-4.22722">
        <ele>24.1</ele>
        <time>2022-05-27T18:35:31Z</time>
      </trkpt>
      <trkpt lat="48.32012" lon="-4.22714">
        <ele>23.9</ele>
        <time>2022-05-27T18:35:32Z</time>
      </trkpt>
      <trkpt lat="48.3201" lon="-4.22709">
        <ele>23.7</ele>
        <time>2022-05-27T18:35:33Z</time>
      </trkpt>
      <trkpt lat="48.32004" lon="-4.22706">
        <ele>23.4</ele>
        <time>2022-05-27T18:35:35Z</time>
      </trkpt>
      <trkpt lat="48.31993" lon="-4.22712">
        <ele>23.2</ele>
        <time>2022-05-27T18:35:36Z</time>
      </trkpt>
      <trkpt lat="48.31955" lon="-4.22725">
        <ele>22.1</ele>
        <time>2022-05-27T18:35:43Z</time>
      </trkpt>
      <trkpt lat="48.31949" lon="-4.22727">
        <ele>22.1</ele>
        <time>2022-05-27T18:35:44Z</time>
      </trkpt>
      <trkpt lat="48.31919" lon="-4.22739">
        <ele>22.2</ele>
        <time>2022-05-27T18:35:49Z</time>
      </trkpt>
      <trkpt lat="48.31901" lon="-4.22746">
        <ele>22.4</ele>
        <time>2022-05-27T18:35:52Z</time>
      </trkpt>
      <trkpt lat="48.31869" lon="-4.22763">
        <ele>22.8</ele>
        <time>2022-05-27T18:35:58Z</time>
      </trkpt>
      <trkpt lat="48.31824" lon="-4.22788">
        <ele>23.5</ele>
        <time>2022-05-27T18:36:07Z</time>
      </trkpt>
      <trkpt lat="48.31794" lon="-4.22791">
        <ele>23.7</ele>
        <time>2022-05-27T18:36:11Z</time>
      </trkpt>
      <trkpt lat="48.31746" lon="-4.22791">
        <ele>24.2</ele>
        <time>2022-05-27T18:36:18Z</time>
      </trkpt>
      <trkpt lat="48.31702" lon="-4.22811">
        <ele>24.7</ele>
        <time>2022-05-27T18:36:25Z</time>
      </trkpt>
      <trkpt lat="48.31672" lon="-4.22836">
        <ele>25.1</ele>
        <time>2022-05-27T18:36:31Z</time>
      </trkpt>
      <trkpt lat="48.31663" lon="-4.22844">
        <ele>25.6</ele>
        <time>2022-05-27T18:36:33Z</time>
      </trkpt>
      <trkpt lat="48.31622" lon="-4.22878">
        <ele>27.4</ele>
        <time>2022-05-27T18:36:42Z</time>
      </trkpt>
      <trkpt lat="48.31597" lon="-4.22887">
        <ele>28.4</ele>
        <time>2022-05-27T18:36:47Z</time>
      </trkpt>
      <trkpt lat="48.31577" lon="-4.22894">
        <ele>28.9</ele>
        <time>2022-05-27T18:36:51Z</time>
      </trkpt>
      <trkpt lat="48.31567" lon="-4.22891">
        <ele>29.1</ele>
        <time>2022-05-27T18:36:53Z</time>
      </trkpt>
      <trkpt lat="48.31531" lon="-4.22881">
        <ele>30.2</ele>
        <time>2022-05-27T18:37:00Z</time>
      </trkpt>
      <trkpt lat="48.31509" lon="-4.22857">
        <ele>30.9</ele>
        <time>2022-05-27T18:37:05Z</time>
      </trkpt>
      <trkpt lat="48.31491" lon="-4.22838">
        <ele>31.4</ele>
        <time>2022-05-27T18:37:09Z</time>
      </trkpt>
      <trkpt lat="48.31476" lon="-4.22804">
        <ele>32</ele>
        <time>2022-05-27T18:37:14Z</time>
      </trkpt>
      <trkpt lat="48.31463" lon="-4.2273">
        <ele>33</ele>
        <time>2022-05-27T18:37:23Z</time>
      </trkpt>
      <trkpt lat="48.31455" lon="-4.22663">
        <ele>32.1</ele>
        <time>2022-05-27T18:37:31Z</time>
      </trkpt>
      <trkpt lat="48.31452" lon="-4.22603">
        <ele>31.3</ele>
        <time>2022-05-27T18:37:37Z</time>
      </trkpt>
      <trkpt lat="48.31453" lon="-4.22592">
        <ele>31.2</ele>
        <time>2022-05-27T18:37:38Z</time>
      </trkpt>
      <trkpt lat="48.31452" lon="-4.22542">
        <ele>30.7</ele>
        <time>2022-05-27T18:37:42Z</time>
      </trkpt>
      <trkpt lat="48.31453" lon="-4.22528">
        <ele>30.6</ele>
        <time>2022-05-27T18:37:43Z</time>
      </trkpt>
      <trkpt lat="48.31453" lon="-4.22474">
        <ele>30</ele>
        <time>2022-05-27T18:37:47Z</time>
      </trkpt>
      <trkpt lat="48.31454" lon="-4.22447">
        <ele>29.3</ele>
        <time>2022-05-27T18:37:49Z</time>
      </trkpt>
      <trkpt lat="48.31455" lon="-4.22376">
        <ele>27.6</ele>
        <time>2022-05-27T18:37:54Z</time>
      </trkpt>
      <trkpt lat="48.31455" lon="-4.22349">
        <ele>26.9</ele>
        <time>2022-05-27T18:37:56Z</time>
      </trkpt>
      <trkpt lat="48.31453" lon="-4.22336">
        <ele>26.6</ele>
        <time>2022-05-27T18:37:57Z</time>
      </trkpt>
      <trkpt lat="48.31454" lon="-4.22306">
        <ele>25.9</ele>
        <time>2022-05-27T18:37:59Z</time>
      </trkpt>
      <trkpt lat="48.31456" lon="-4.22262">
        <ele>24.9</ele>
        <time>2022-05-27T18:38:02Z</time>
      </trkpt>
      <trkpt lat="48.31458" lon="-4.22192">
        <ele>23.1</ele>
        <time>2022-05-27T18:38:07Z</time>
      </trkpt>
      <trkpt lat="48.31458" lon="-4.22132">
        <ele>21.7</ele>
        <time>2022-05-27T18:38:11Z</time>
      </trkpt>
      <trkpt lat="48.31458" lon="-4.22117">
        <ele>21.4</ele>
        <time>2022-05-27T18:38:12Z</time>
      </trkpt>
      <trkpt lat="48.31454" lon="-4.22055">
        <ele>20</ele>
        <time>2022-05-27T18:38:16Z</time>
      </trkpt>
      <trkpt lat="48.31452" lon="-4.2204">
        <ele>19.7</ele>
        <time>2022-05-27T18:38:17Z</time>
      </trkpt>
      <trkpt lat="48.3145" lon="-4.22015">
        <ele>19</ele>
        <time>2022-05-27T18:38:19Z</time>
      </trkpt>
      <trkpt lat="48.31444" lon="-4.21997">
        <ele>17.5</ele>
        <time>2022-05-27T18:38:23Z</time>
      </trkpt>
      <trkpt lat="48.31422" lon="-4.22011">
        <ele>15.6</ele>
        <time>2022-05-27T18:38:28Z</time>
      </trkpt>
      <trkpt lat="48.31409" lon="-4.22024">
        <ele>14.9</ele>
        <time>2022-05-27T18:38:30Z</time>
      </trkpt>
      <trkpt lat="48.31372" lon="-4.22053">
        <ele>13.1</ele>
        <time>2022-05-27T18:38:35Z</time>
      </trkpt>
      <trkpt lat="48.31365" lon="-4.22058">
        <ele>13</ele>
        <time>2022-05-27T18:38:36Z</time>
      </trkpt>
      <trkpt lat="48.31319" lon="-4.22085">
        <ele>12.7</ele>
        <time>2022-05-27T18:38:43Z</time>
      </trkpt>
      <trkpt lat="48.31302" lon="-4.22095">
        <ele>12.7</ele>
        <time>2022-05-27T18:38:46Z</time>
      </trkpt>
      <trkpt lat="48.31292" lon="-4.22104">
        <ele>13.1</ele>
        <time>2022-05-27T18:38:48Z</time>
      </trkpt>
      <trkpt lat="48.31281" lon="-4.2212">
        <ele>13.8</ele>
        <time>2022-05-27T18:38:51Z</time>
      </trkpt>
      <trkpt lat="48.3126" lon="-4.22151">
        <ele>14.8</ele>
        <time>2022-05-27T18:38:57Z</time>
      </trkpt>
      <trkpt lat="48.31255" lon="-4.22162">
        <ele>15.1</ele>
        <time>2022-05-27T18:38:59Z</time>
      </trkpt>
      <trkpt lat="48.31225" lon="-4.22218">
        <ele>16.8</ele>
        <time>2022-05-27T18:39:09Z</time>
      </trkpt>
      <trkpt lat="48.31216" lon="-4.22245">
        <ele>17.5</ele>
        <time>2022-05-27T18:39:13Z</time>
      </trkpt>
      <trkpt lat="48.31204" lon="-4.2228">
        <ele>17.9</ele>
        <time>2022-05-27T18:39:18Z</time>
      </trkpt>
      <trkpt lat="48.31202" lon="-4.22287">
        <ele>18</ele>
        <time>2022-05-27T18:39:19Z</time>
      </trkpt>
      <trkpt lat="48.31186" lon="-4.22347">
        <ele>18.8</ele>
        <time>2022-05-27T18:39:27Z</time>
      </trkpt>
      <trkpt lat="48.31168" lon="-4.2241">
        <ele>19.7</ele>
        <time>2022-05-27T18:39:35Z</time>
      </trkpt>
      <trkpt lat="48.31163" lon="-4.22435">
        <ele>20</ele>
        <time>2022-05-27T18:39:38Z</time>
      </trkpt>
      <trkpt lat="48.31144" lon="-4.22503">
        <ele>20.9</ele>
        <time>2022-05-27T18:39:47Z</time>
      </trkpt>
      <trkpt lat="48.3114" lon="-4.22516">
        <ele>21.2</ele>
        <time>2022-05-27T18:39:49Z</time>
      </trkpt>
      <trkpt lat="48.31125" lon="-4.22569">
        <ele>22.6</ele>
        <time>2022-05-27T18:39:57Z</time>
      </trkpt>
      <trkpt lat="48.31109" lon="-4.2264">
        <ele>24.5</ele>
        <time>2022-05-27T18:40:07Z</time>
      </trkpt>
      <trkpt lat="48.31101" lon="-4.22676">
        <ele>25.5</ele>
        <time>2022-05-27T18:40:12Z</time>
      </trkpt>
      <trkpt lat="48.31084" lon="-4.22741">
        <ele>27.4</ele>
        <time>2022-05-27T18:40:21Z</time>
      </trkpt>
      <trkpt lat="48.31077" lon="-4.22766">
        <ele>28.2</ele>
        <time>2022-05-27T18:40:25Z</time>
      </trkpt>
      <trkpt lat="48.31063" lon="-4.22809">
        <ele>29.6</ele>
        <time>2022-05-27T18:40:32Z</time>
      </trkpt>
      <trkpt lat="48.31036" lon="-4.22868">
        <ele>31.6</ele>
        <time>2022-05-27T18:40:42Z</time>
      </trkpt>
      <trkpt lat="48.31033" lon="-4.22873">
        <ele>31.8</ele>
        <time>2022-05-27T18:40:43Z</time>
      </trkpt>
      <trkpt lat="48.31006" lon="-4.22926">
        <ele>34.2</ele>
        <time>2022-05-27T18:40:53Z</time>
      </trkpt>
      <trkpt lat="48.3099" lon="-4.2296">
        <ele>35.7</ele>
        <time>2022-05-27T18:40:59Z</time>
      </trkpt>
      <trkpt lat="48.30984" lon="-4.22968">
        <ele>36.2</ele>
        <time>2022-05-27T18:41:01Z</time>
      </trkpt>
      <trkpt lat="48.30955" lon="-4.23006">
        <ele>38.1</ele>
        <time>2022-05-27T18:41:10Z</time>
      </trkpt>
      <trkpt lat="48.30943" lon="-4.23015">
        <ele>38.7</ele>
        <time>2022-05-27T18:41:13Z</time>
      </trkpt>
      <trkpt lat="48.30913" lon="-4.23041">
        <ele>40.3</ele>
        <time>2022-05-27T18:41:21Z</time>
      </trkpt>
      <trkpt lat="48.30877" lon="-4.2306">
        <ele>41.8</ele>
        <time>2022-05-27T18:41:29Z</time>
      </trkpt>
      <trkpt lat="48.30869" lon="-4.23066">
        <ele>42.2</ele>
        <time>2022-05-27T18:41:31Z</time>
      </trkpt>
      <trkpt lat="48.30834" lon="-4.2309">
        <ele>44.1</ele>
        <time>2022-05-27T18:41:40Z</time>
      </trkpt>
      <trkpt lat="48.30797" lon="-4.23113">
        <ele>45.9</ele>
        <time>2022-05-27T18:41:49Z</time>
      </trkpt>
      <trkpt lat="48.30788" lon="-4.23118">
        <ele>46.2</ele>
        <time>2022-05-27T18:41:51Z</time>
      </trkpt>
      <trkpt lat="48.30744" lon="-4.23147">
        <ele>47.7</ele>
        <time>2022-05-27T18:42:02Z</time>
      </trkpt>
      <trkpt lat="48.30702" lon="-4.23173">
        <ele>48.9</ele>
        <time>2022-05-27T18:42:11Z</time>
      </trkpt>
      <trkpt lat="48.30692" lon="-4.23179">
        <ele>49.1</ele>
        <time>2022-05-27T18:42:13Z</time>
      </trkpt>
      <trkpt lat="48.30655" lon="-4.23199">
        <ele>47.7</ele>
        <time>2022-05-27T18:42:20Z</time>
      </trkpt>
      <trkpt lat="48.30605" lon="-4.23226">
        <ele>46.2</ele>
        <time>2022-05-27T18:42:28Z</time>
      </trkpt>
      <trkpt lat="48.30582" lon="-4.23238">
        <ele>45.5</ele>
        <time>2022-05-27T18:42:31Z</time>
      </trkpt>
      <trkpt lat="48.30558" lon="-4.23251">
        <ele>43.8</ele>
        <time>2022-05-27T18:42:34Z</time>
      </trkpt>
      <trkpt lat="48.30528" lon="-4.23266">
        <ele>42</ele>
        <time>2022-05-27T18:42:37Z</time>
      </trkpt>
      <trkpt lat="48.30507" lon="-4.23277">
        <ele>40.6</ele>
        <time>2022-05-27T18:42:39Z</time>
      </trkpt>
      <trkpt lat="48.30463" lon="-4.233">
        <ele>37.6</ele>
        <time>2022-05-27T18:42:43Z</time>
      </trkpt>
      <trkpt lat="48.30427" lon="-4.23316">
        <ele>35</ele>
        <time>2022-05-27T18:42:46Z</time>
      </trkpt>
      <trkpt lat="48.30387" lon="-4.23339">
        <ele>32.3</ele>
        <time>2022-05-27T18:42:49Z</time>
      </trkpt>
      <trkpt lat="48.30374" lon="-4.23346">
        <ele>31</ele>
        <time>2022-05-27T18:42:50Z</time>
      </trkpt>
      <trkpt lat="48.3032" lon="-4.23372">
        <ele>26</ele>
        <time>2022-05-27T18:42:54Z</time>
      </trkpt>
      <trkpt lat="48.30307" lon="-4.23379">
        <ele>24.8</ele>
        <time>2022-05-27T18:42:55Z</time>
      </trkpt>
      <trkpt lat="48.30267" lon="-4.23402">
        <ele>21.8</ele>
        <time>2022-05-27T18:42:58Z</time>
      </trkpt>
      <trkpt lat="48.30229" lon="-4.23422">
        <ele>19.2</ele>
        <time>2022-05-27T18:43:01Z</time>
      </trkpt>
      <trkpt lat="48.30217" lon="-4.23427">
        <ele>19.2</ele>
        <time>2022-05-27T18:43:02Z</time>
      </trkpt>
      <trkpt lat="48.30174" lon="-4.23438">
        <ele>19.3</ele>
        <time>2022-05-27T18:43:06Z</time>
      </trkpt>
      <trkpt lat="48.30163" lon="-4.23431">
        <ele>19.3</ele>
        <time>2022-05-27T18:43:07Z</time>
      </trkpt>
      <trkpt lat="48.30137" lon="-4.23424">
        <ele>19.4</ele>
        <time>2022-05-27T18:43:10Z</time>
      </trkpt>
      <trkpt lat="48.30128" lon="-4.23425">
        <ele>19.4</ele>
        <time>2022-05-27T18:43:11Z</time>
      </trkpt>
      <trkpt lat="48.30112" lon="-4.23417">
        <ele>19.5</ele>
        <time>2022-05-27T18:43:13Z</time>
      </trkpt>
      <trkpt lat="48.30105" lon="-4.23412">
        <ele>19.6</ele>
        <time>2022-05-27T18:43:14Z</time>
      </trkpt>
      <trkpt lat="48.30073" lon="-4.2338">
        <ele>20.4</ele>
        <time>2022-05-27T18:43:19Z</time>
      </trkpt>
      <trkpt lat="48.30067" lon="-4.23374">
        <ele>20.5</ele>
        <time>2022-05-27T18:43:20Z</time>
      </trkpt>
      <trkpt lat="48.30039" lon="-4.23334">
        <ele>21</ele>
        <time>2022-05-27T18:43:25Z</time>
      </trkpt>
      <trkpt lat="48.30033" lon="-4.23326">
        <ele>21.1</ele>
        <time>2022-05-27T18:43:26Z</time>
      </trkpt>
      <trkpt lat="48.29998" lon="-4.23272">
        <ele>22.1</ele>
        <time>2022-05-27T18:43:33Z</time>
      </trkpt>
      <trkpt lat="48.29979" lon="-4.23246">
        <ele>22.7</ele>
        <time>2022-05-27T18:43:37Z</time>
      </trkpt>
      <trkpt lat="48.29965" lon="-4.23226">
        <ele>23.1</ele>
        <time>2022-05-27T18:43:40Z</time>
      </trkpt>
      <trkpt lat="48.29934" lon="-4.23171">
        <ele>24.2</ele>
        <time>2022-05-27T18:43:48Z</time>
      </trkpt>
      <trkpt lat="48.29918" lon="-4.23129">
        <ele>24.9</ele>
        <time>2022-05-27T18:43:53Z</time>
      </trkpt>
      <trkpt lat="48.29917" lon="-4.23119">
        <ele>25</ele>
        <time>2022-05-27T18:43:54Z</time>
      </trkpt>
      <trkpt lat="48.29915" lon="-4.2311">
        <ele>25.2</ele>
        <time>2022-05-27T18:43:55Z</time>
      </trkpt>
      <trkpt lat="48.29903" lon="-4.23052">
        <ele>26.3</ele>
        <time>2022-05-27T18:44:02Z</time>
      </trkpt>
      <trkpt lat="48.29899" lon="-4.23013">
        <ele>27.2</ele>
        <time>2022-05-27T18:44:07Z</time>
      </trkpt>
      <trkpt lat="48.29896" lon="-4.22983">
        <ele>28.2</ele>
        <time>2022-05-27T18:44:11Z</time>
      </trkpt>
      <trkpt lat="48.2989" lon="-4.22945">
        <ele>29.9</ele>
        <time>2022-05-27T18:44:17Z</time>
      </trkpt>
      <trkpt lat="48.29886" lon="-4.22939">
        <ele>30.1</ele>
        <time>2022-05-27T18:44:18Z</time>
      </trkpt>
      <trkpt lat="48.29886" lon="-4.22933">
        <ele>30.4</ele>
        <time>2022-05-27T18:44:19Z</time>
      </trkpt>
      <trkpt lat="48.29881" lon="-4.22871">
        <ele>32.7</ele>
        <time>2022-05-27T18:44:29Z</time>
      </trkpt>
      <trkpt lat="48.2988" lon="-4.22859">
        <ele>33.1</ele>
        <time>2022-05-27T18:44:31Z</time>
      </trkpt>
      <trkpt lat="48.29878" lon="-4.22803">
        <ele>33.7</ele>
        <time>2022-05-27T18:44:40Z</time>
      </trkpt>
      <trkpt lat="48.29877" lon="-4.22791">
        <ele>33.8</ele>
        <time>2022-05-27T18:44:42Z</time>
      </trkpt>
      <trkpt lat="48.29877" lon="-4.22768">
        <ele>34.1</ele>
        <time>2022-05-27T18:44:46Z</time>
      </trkpt>
      <trkpt lat="48.29869" lon="-4.2276">
        <ele>34.1</ele>
        <time>2022-05-27T18:44:47Z</time>
      </trkpt>
      <trkpt lat="48.29864" lon="-4.22744">
        <ele>34.1</ele>
        <time>2022-05-27T18:44:49Z</time>
      </trkpt>
      <trkpt lat="48.29856" lon="-4.2271">
        <ele>33</ele>
        <time>2022-05-27T18:44:53Z</time>
      </trkpt>
      <trkpt lat="48.29854" lon="-4.22698">
        <ele>32.7</ele>
        <time>2022-05-27T18:44:54Z</time>
      </trkpt>
      <trkpt lat="48.29852" lon="-4.22685">
        <ele>32.3</ele>
        <time>2022-05-27T18:44:55Z</time>
      </trkpt>
      <trkpt lat="48.29847" lon="-4.22658">
        <ele>31.4</ele>
        <time>2022-05-27T18:44:57Z</time>
      </trkpt>
      <trkpt lat="48.29841" lon="-4.22618">
        <ele>30</ele>
        <time>2022-05-27T18:45:00Z</time>
      </trkpt>
      <trkpt lat="48.2984" lon="-4.22603">
        <ele>29.4</ele>
        <time>2022-05-27T18:45:01Z</time>
      </trkpt>
      <trkpt lat="48.29839" lon="-4.22587">
        <ele>28.7</ele>
        <time>2022-05-27T18:45:02Z</time>
      </trkpt>
      <trkpt lat="48.29839" lon="-4.22504">
        <ele>25.1</ele>
        <time>2022-05-27T18:45:07Z</time>
      </trkpt>
      <trkpt lat="48.29836" lon="-4.22435">
        <ele>22</ele>
        <time>2022-05-27T18:45:11Z</time>
      </trkpt>
      <trkpt lat="48.29833" lon="-4.22401">
        <ele>20.8</ele>
        <time>2022-05-27T18:45:13Z</time>
      </trkpt>
      <trkpt lat="48.2983" lon="-4.22369">
        <ele>21.4</ele>
        <time>2022-05-27T18:45:15Z</time>
      </trkpt>
      <trkpt lat="48.29831" lon="-4.22318">
        <ele>22.5</ele>
        <time>2022-05-27T18:45:19Z</time>
      </trkpt>
      <trkpt lat="48.29836" lon="-4.22265">
        <ele>24.2</ele>
        <time>2022-05-27T18:45:25Z</time>
      </trkpt>
      <trkpt lat="48.29838" lon="-4.22248">
        <ele>24.8</ele>
        <time>2022-05-27T18:45:27Z</time>
      </trkpt>
      <trkpt lat="48.29841" lon="-4.22177">
        <ele>27.7</ele>
        <time>2022-05-27T18:45:36Z</time>
      </trkpt>
      <trkpt lat="48.29842" lon="-4.22169">
        <ele>28</ele>
        <time>2022-05-27T18:45:37Z</time>
      </trkpt>
      <trkpt lat="48.29844" lon="-4.22121">
        <ele>29.3</ele>
        <time>2022-05-27T18:45:43Z</time>
      </trkpt>
      <trkpt lat="48.29845" lon="-4.22105">
        <ele>29.7</ele>
        <time>2022-05-27T18:45:45Z</time>
      </trkpt>
      <trkpt lat="48.29863" lon="-4.22042">
        <ele>31.8</ele>
        <time>2022-05-27T18:45:54Z</time>
      </trkpt>
      <trkpt lat="48.29871" lon="-4.21996">
        <ele>33.3</ele>
        <time>2022-05-27T18:46:01Z</time>
      </trkpt>
      <trkpt lat="48.29875" lon="-4.21975">
        <ele>33.4</ele>
        <time>2022-05-27T18:46:04Z</time>
      </trkpt>
      <trkpt lat="48.2988" lon="-4.21949">
        <ele>33.4</ele>
        <time>2022-05-27T18:46:07Z</time>
      </trkpt>
      <trkpt lat="48.29883" lon="-4.21931">
        <ele>33</ele>
        <time>2022-05-27T18:46:09Z</time>
      </trkpt>
      <trkpt lat="48.29889" lon="-4.21892">
        <ele>32.3</ele>
        <time>2022-05-27T18:46:13Z</time>
      </trkpt>
      <trkpt lat="48.29893" lon="-4.21863">
        <ele>31.9</ele>
        <time>2022-05-27T18:46:16Z</time>
      </trkpt>
      <trkpt lat="48.29898" lon="-4.21833">
        <ele>31.5</ele>
        <time>2022-05-27T18:46:19Z</time>
      </trkpt>
      <trkpt lat="48.29905" lon="-4.21795">
        <ele>31.3</ele>
        <time>2022-05-27T18:46:23Z</time>
      </trkpt>
      <trkpt lat="48.29914" lon="-4.21783">
        <ele>31.1</ele>
        <time>2022-05-27T18:46:25Z</time>
      </trkpt>
      <trkpt lat="48.29922" lon="-4.21761">
        <ele>30.9</ele>
        <time>2022-05-27T18:46:28Z</time>
      </trkpt>
      <trkpt lat="48.29918" lon="-4.21745">
        <ele>30.8</ele>
        <time>2022-05-27T18:46:29Z</time>
      </trkpt>
      <trkpt lat="48.29928" lon="-4.21676">
        <ele>30.2</ele>
        <time>2022-05-27T18:46:36Z</time>
      </trkpt>
      <trkpt lat="48.29943" lon="-4.21603">
        <ele>29.6</ele>
        <time>2022-05-27T18:46:43Z</time>
      </trkpt>
      <trkpt lat="48.2996" lon="-4.21528">
        <ele>28.2</ele>
        <time>2022-05-27T18:46:50Z</time>
      </trkpt>
      <trkpt lat="48.29974" lon="-4.21458">
        <ele>27.1</ele>
        <time>2022-05-27T18:46:56Z</time>
      </trkpt>
      <trkpt lat="48.29987" lon="-4.214">
        <ele>26.2</ele>
        <time>2022-05-27T18:47:01Z</time>
      </trkpt>
      <trkpt lat="48.29989" lon="-4.21388">
        <ele>26.1</ele>
        <time>2022-05-27T18:47:02Z</time>
      </trkpt>
      <trkpt lat="48.29998" lon="-4.21331">
        <ele>25.5</ele>
        <time>2022-05-27T18:47:07Z</time>
      </trkpt>
      <trkpt lat="48.29998" lon="-4.21319">
        <ele>25.4</ele>
        <time>2022-05-27T18:47:08Z</time>
      </trkpt>
      <trkpt lat="48.3" lon="-4.21308">
        <ele>25.2</ele>
        <time>2022-05-27T18:47:09Z</time>
      </trkpt>
      <trkpt lat="48.29998" lon="-4.21264">
        <ele>24.8</ele>
        <time>2022-05-27T18:47:13Z</time>
      </trkpt>
      <trkpt lat="48.29998" lon="-4.21254">
        <ele>24.7</ele>
        <time>2022-05-27T18:47:14Z</time>
      </trkpt>
      <trkpt lat="48.2999" lon="-4.21197">
        <ele>24.1</ele>
        <time>2022-05-27T18:47:19Z</time>
      </trkpt>
      <trkpt lat="48.29987" lon="-4.21186">
        <ele>23.9</ele>
        <time>2022-05-27T18:47:20Z</time>
      </trkpt>
      <trkpt lat="48.29973" lon="-4.21144">
        <ele>23.2</ele>
        <time>2022-05-27T18:47:24Z</time>
      </trkpt>
      <trkpt lat="48.29952" lon="-4.21073">
        <ele>22.2</ele>
        <time>2022-05-27T18:47:30Z</time>
      </trkpt>
      <trkpt lat="48.29948" lon="-4.21062">
        <ele>22.1</ele>
        <time>2022-05-27T18:47:31Z</time>
      </trkpt>
      <trkpt lat="48.2993" lon="-4.21006">
        <ele>21.7</ele>
        <time>2022-05-27T18:47:36Z</time>
      </trkpt>
      <trkpt lat="48.29916" lon="-4.20941">
        <ele>21.2</ele>
        <time>2022-05-27T18:47:42Z</time>
      </trkpt>
      <trkpt lat="48.29915" lon="-4.20931">
        <ele>21.2</ele>
        <time>2022-05-27T18:47:43Z</time>
      </trkpt>
      <trkpt lat="48.2991" lon="-4.20876">
        <ele>23.1</ele>
        <time>2022-05-27T18:47:49Z</time>
      </trkpt>
      <trkpt lat="48.29909" lon="-4.20867">
        <ele>23.5</ele>
        <time>2022-05-27T18:47:50Z</time>
      </trkpt>
      <trkpt lat="48.29906" lon="-4.2083">
        <ele>25</ele>
        <time>2022-05-27T18:47:55Z</time>
      </trkpt>
      <trkpt lat="48.29903" lon="-4.20799">
        <ele>25.8</ele>
        <time>2022-05-27T18:47:59Z</time>
      </trkpt>
      <trkpt lat="48.29902" lon="-4.20783">
        <ele>26.2</ele>
        <time>2022-05-27T18:48:01Z</time>
      </trkpt>
      <trkpt lat="48.29898" lon="-4.20726">
        <ele>26.9</ele>
        <time>2022-05-27T18:48:08Z</time>
      </trkpt>
      <trkpt lat="48.29896" lon="-4.20682">
        <ele>27.4</ele>
        <time>2022-05-27T18:48:13Z</time>
      </trkpt>
      <trkpt lat="48.29894" lon="-4.20656">
        <ele>27.2</ele>
        <time>2022-05-27T18:48:16Z</time>
      </trkpt>
      <trkpt lat="48.2989" lon="-4.20581">
        <ele>26.8</ele>
        <time>2022-05-27T18:48:24Z</time>
      </trkpt>
      <trkpt lat="48.29883" lon="-4.20509">
        <ele>26.3</ele>
        <time>2022-05-27T18:48:32Z</time>
      </trkpt>
      <trkpt lat="48.29879" lon="-4.20462">
        <ele>26.1</ele>
        <time>2022-05-27T18:48:37Z</time>
      </trkpt>
      <trkpt lat="48.2988" lon="-4.20429">
        <ele>25.9</ele>
        <time>2022-05-27T18:48:40Z</time>
      </trkpt>
      <trkpt lat="48.29874" lon="-4.20369">
        <ele>25.6</ele>
        <time>2022-05-27T18:48:46Z</time>
      </trkpt>
      <trkpt lat="48.29874" lon="-4.20336">
        <ele>25.4</ele>
        <time>2022-05-27T18:48:49Z</time>
      </trkpt>
      <trkpt lat="48.29877" lon="-4.20268">
        <ele>25.1</ele>
        <time>2022-05-27T18:48:55Z</time>
      </trkpt>
      <trkpt lat="48.29878" lon="-4.20191">
        <ele>24.5</ele>
        <time>2022-05-27T18:49:02Z</time>
      </trkpt>
      <trkpt lat="48.29877" lon="-4.20141">
        <ele>24.1</ele>
        <time>2022-05-27T18:49:07Z</time>
      </trkpt>
      <trkpt lat="48.29877" lon="-4.20121">
        <ele>24</ele>
        <time>2022-05-27T18:49:09Z</time>
      </trkpt>
      <trkpt lat="48.29879" lon="-4.20053">
        <ele>23.8</ele>
        <time>2022-05-27T18:49:16Z</time>
      </trkpt>
      <trkpt lat="48.2988" lon="-4.20024">
        <ele>23.7</ele>
        <time>2022-05-27T18:49:19Z</time>
      </trkpt>
      <trkpt lat="48.29879" lon="-4.19953">
        <ele>23.5</ele>
        <time>2022-05-27T18:49:26Z</time>
      </trkpt>
      <trkpt lat="48.29881" lon="-4.19878">
        <ele>23.3</ele>
        <time>2022-05-27T18:49:33Z</time>
      </trkpt>
      <trkpt lat="48.2988" lon="-4.19834">
        <ele>23.1</ele>
        <time>2022-05-27T18:49:37Z</time>
      </trkpt>
      <trkpt lat="48.29879" lon="-4.198">
        <ele>22.6</ele>
        <time>2022-05-27T18:49:40Z</time>
      </trkpt>
      <trkpt lat="48.2988" lon="-4.19732">
        <ele>21.5</ele>
        <time>2022-05-27T18:49:46Z</time>
      </trkpt>
      <trkpt lat="48.29882" lon="-4.19661">
        <ele>20.3</ele>
        <time>2022-05-27T18:49:52Z</time>
      </trkpt>
      <trkpt lat="48.29882" lon="-4.19623">
        <ele>19.7</ele>
        <time>2022-05-27T18:49:55Z</time>
      </trkpt>
      <trkpt lat="48.29883" lon="-4.19584">
        <ele>18.7</ele>
        <time>2022-05-27T18:49:58Z</time>
      </trkpt>
      <trkpt lat="48.29882" lon="-4.19541">
        <ele>17.7</ele>
        <time>2022-05-27T18:50:01Z</time>
      </trkpt>
      <trkpt lat="48.29882" lon="-4.19512">
        <ele>17.3</ele>
        <time>2022-05-27T18:50:03Z</time>
      </trkpt>
      <trkpt lat="48.29883" lon="-4.19499">
        <ele>17.2</ele>
        <time>2022-05-27T18:50:04Z</time>
      </trkpt>
      <trkpt lat="48.29873" lon="-4.19437">
        <ele>16.2</ele>
        <time>2022-05-27T18:50:09Z</time>
      </trkpt>
      <trkpt lat="48.29868" lon="-4.19396">
        <ele>15.6</ele>
        <time>2022-05-27T18:50:13Z</time>
      </trkpt>
      <trkpt lat="48.29865" lon="-4.19365">
        <ele>16.3</ele>
        <time>2022-05-27T18:50:16Z</time>
      </trkpt>
      <trkpt lat="48.29864" lon="-4.19346">
        <ele>16.7</ele>
        <time>2022-05-27T18:50:18Z</time>
      </trkpt>
      <trkpt lat="48.29863" lon="-4.19338">
        <ele>16.9</ele>
        <time>2022-05-27T18:50:19Z</time>
      </trkpt>
      <trkpt lat="48.29853" lon="-4.19273">
        <ele>17.8</ele>
        <time>2022-05-27T18:50:27Z</time>
      </trkpt>
      <trkpt lat="48.29848" lon="-4.19238">
        <ele>18.1</ele>
        <time>2022-05-27T18:50:31Z</time>
      </trkpt>
      <trkpt lat="48.29844" lon="-4.19219">
        <ele>17.6</ele>
        <time>2022-05-27T18:50:33Z</time>
      </trkpt>
      <trkpt lat="48.2983" lon="-4.19179">
        <ele>16.6</ele>
        <time>2022-05-27T18:50:37Z</time>
      </trkpt>
      <trkpt lat="48.29812" lon="-4.19123">
        <ele>15.2</ele>
        <time>2022-05-27T18:50:43Z</time>
      </trkpt>
      <trkpt lat="48.29809" lon="-4.19115">
        <ele>15.3</ele>
        <time>2022-05-27T18:50:44Z</time>
      </trkpt>
      <trkpt lat="48.29793" lon="-4.19078">
        <ele>16</ele>
        <time>2022-05-27T18:50:49Z</time>
      </trkpt>
      <trkpt lat="48.29783" lon="-4.19056">
        <ele>16.6</ele>
        <time>2022-05-27T18:50:52Z</time>
      </trkpt>
      <trkpt lat="48.29776" lon="-4.19036">
        <ele>17.2</ele>
        <time>2022-05-27T18:50:55Z</time>
      </trkpt>
      <trkpt lat="48.2976" lon="-4.18996">
        <ele>17.7</ele>
        <time>2022-05-27T18:51:01Z</time>
      </trkpt>
      <trkpt lat="48.29753" lon="-4.18982">
        <ele>17.9</ele>
        <time>2022-05-27T18:51:03Z</time>
      </trkpt>
      <trkpt lat="48.29747" lon="-4.18958">
        <ele>18.2</ele>
        <time>2022-05-27T18:51:06Z</time>
      </trkpt>
      <trkpt lat="48.29744" lon="-4.18949">
        <ele>18.2</ele>
        <time>2022-05-27T18:51:07Z</time>
      </trkpt>
      <trkpt lat="48.29727" lon="-4.18893">
        <ele>16.4</ele>
        <time>2022-05-27T18:51:13Z</time>
      </trkpt>
      <trkpt lat="48.29711" lon="-4.18822">
        <ele>13.9</ele>
        <time>2022-05-27T18:51:19Z</time>
      </trkpt>
      <trkpt lat="48.297" lon="-4.18746">
        <ele>12.8</ele>
        <time>2022-05-27T18:51:25Z</time>
      </trkpt>
      <trkpt lat="48.29695" lon="-4.18677">
        <ele>11.7</ele>
        <time>2022-05-27T18:51:31Z</time>
      </trkpt>
      <trkpt lat="48.2968" lon="-4.18616">
        <ele>11.4</ele>
        <time>2022-05-27T18:51:37Z</time>
      </trkpt>
      <trkpt lat="48.29672" lon="-4.18541">
        <ele>11.6</ele>
        <time>2022-05-27T18:51:44Z</time>
      </trkpt>
      <trkpt lat="48.29669" lon="-4.18488">
        <ele>11.7</ele>
        <time>2022-05-27T18:51:49Z</time>
      </trkpt>
      <trkpt lat="48.2967" lon="-4.18478">
        <ele>11.7</ele>
        <time>2022-05-27T18:51:50Z</time>
      </trkpt>
      <trkpt lat="48.29665" lon="-4.18458">
        <ele>11.8</ele>
        <time>2022-05-27T18:51:52Z</time>
      </trkpt>
      <trkpt lat="48.29659" lon="-4.18419">
        <ele>11.9</ele>
        <time>2022-05-27T18:51:56Z</time>
      </trkpt>
      <trkpt lat="48.29656" lon="-4.18409">
        <ele>11.9</ele>
        <time>2022-05-27T18:51:57Z</time>
      </trkpt>
      <trkpt lat="48.29644" lon="-4.18349">
        <ele>12.1</ele>
        <time>2022-05-27T18:52:03Z</time>
      </trkpt>
      <trkpt lat="48.29646" lon="-4.18273">
        <ele>12.3</ele>
        <time>2022-05-27T18:52:10Z</time>
      </trkpt>
      <trkpt lat="48.2965" lon="-4.182">
        <ele>12.5</ele>
        <time>2022-05-27T18:52:17Z</time>
      </trkpt>
      <trkpt lat="48.29654" lon="-4.18181">
        <ele>12.5</ele>
        <time>2022-05-27T18:52:19Z</time>
      </trkpt>
      <trkpt lat="48.2966" lon="-4.1812">
        <ele>12.7</ele>
        <time>2022-05-27T18:52:26Z</time>
      </trkpt>
      <trkpt lat="48.29658" lon="-4.18104">
        <ele>12.7</ele>
        <time>2022-05-27T18:52:28Z</time>
      </trkpt>
      <trkpt lat="48.29656" lon="-4.18097">
        <ele>12.8</ele>
        <time>2022-05-27T18:52:30Z</time>
      </trkpt>
      <trkpt lat="48.29606" lon="-4.18099">
        <ele>13</ele>
        <time>2022-05-27T18:52:37Z</time>
      </trkpt>
      <trkpt lat="48.29575" lon="-4.18089">
        <ele>13.1</ele>
        <time>2022-05-27T18:52:42Z</time>
      </trkpt>
      <trkpt lat="48.29562" lon="-4.18073">
        <ele>13.2</ele>
        <time>2022-05-27T18:52:45Z</time>
      </trkpt>
      <trkpt lat="48.29558" lon="-4.18066">
        <ele>13.2</ele>
        <time>2022-05-27T18:52:46Z</time>
      </trkpt>
      <trkpt lat="48.29537" lon="-4.1805">
        <ele>13.3</ele>
        <time>2022-05-27T18:52:50Z</time>
      </trkpt>
      <trkpt lat="48.29521" lon="-4.18018">
        <ele>13.5</ele>
        <time>2022-05-27T18:52:55Z</time>
      </trkpt>
      <trkpt lat="48.29495" lon="-4.17989">
        <ele>13.7</ele>
        <time>2022-05-27T18:53:01Z</time>
      </trkpt>
      <trkpt lat="48.29486" lon="-4.17981">
        <ele>14</ele>
        <time>2022-05-27T18:53:03Z</time>
      </trkpt>
      <trkpt lat="48.29454" lon="-4.17965">
        <ele>15.5</ele>
        <time>2022-05-27T18:53:11Z</time>
      </trkpt>
      <trkpt lat="48.2945" lon="-4.17964">
        <ele>15.6</ele>
        <time>2022-05-27T18:53:12Z</time>
      </trkpt>
      <trkpt lat="48.29446" lon="-4.17967">
        <ele>15.8</ele>
        <time>2022-05-27T18:53:13Z</time>
      </trkpt>
      <trkpt lat="48.29437" lon="-4.17963">
        <ele>16.2</ele>
        <time>2022-05-27T18:53:15Z</time>
      </trkpt>
      <trkpt lat="48.29433" lon="-4.17959">
        <ele>16.3</ele>
        <time>2022-05-27T18:53:16Z</time>
      </trkpt>
      <trkpt lat="48.2942" lon="-4.17954">
        <ele>16.9</ele>
        <time>2022-05-27T18:53:19Z</time>
      </trkpt>
      <trkpt lat="48.29385" lon="-4.17939">
        <ele>17.9</ele>
        <time>2022-05-27T18:53:27Z</time>
      </trkpt>
      <trkpt lat="48.29365" lon="-4.17935">
        <ele>18.4</ele>
        <time>2022-05-27T18:53:31Z</time>
      </trkpt>
      <trkpt lat="48.29356" lon="-4.17935">
        <ele>18.6</ele>
        <time>2022-05-27T18:53:33Z</time>
      </trkpt>
      <trkpt lat="48.29352" lon="-4.17942">
        <ele>18.7</ele>
        <time>2022-05-27T18:53:34Z</time>
      </trkpt>
      <trkpt lat="48.2934" lon="-4.1795">
        <ele>19.1</ele>
        <time>2022-05-27T18:53:37Z</time>
      </trkpt>
      <trkpt lat="48.29336" lon="-4.1795">
        <ele>19.2</ele>
        <time>2022-05-27T18:53:38Z</time>
      </trkpt>
      <trkpt lat="48.2932" lon="-4.17964">
        <ele>20</ele>
        <time>2022-05-27T18:53:45Z</time>
      </trkpt>
      <trkpt lat="48.29305" lon="-4.1801">
        <ele>20.9</ele>
        <time>2022-05-27T18:53:53Z</time>
      </trkpt>
      <trkpt lat="48.29302" lon="-4.18012">
        <ele>21.1</ele>
        <time>2022-05-27T18:53:55Z</time>
      </trkpt>
      <trkpt lat="48.29287" lon="-4.18006">
        <ele>21.5</ele>
        <time>2022-05-27T18:53:59Z</time>
      </trkpt>
      <trkpt lat="48.29273" lon="-4.18011">
        <ele>22.2</ele>
        <time>2022-05-27T18:54:05Z</time>
      </trkpt>
      <trkpt lat="48.2927" lon="-4.18018">
        <ele>22.4</ele>
        <time>2022-05-27T18:54:06Z</time>
      </trkpt>
      <trkpt lat="48.29256" lon="-4.18052">
        <ele>23.2</ele>
        <time>2022-05-27T18:54:11Z</time>
      </trkpt>
      <trkpt lat="48.29214" lon="-4.18088">
        <ele>25.2</ele>
        <time>2022-05-27T18:54:22Z</time>
      </trkpt>
      <trkpt lat="48.29204" lon="-4.1809">
        <ele>25.5</ele>
        <time>2022-05-27T18:54:24Z</time>
      </trkpt>
      <trkpt lat="48.29169" lon="-4.18097">
        <ele>26</ele>
        <time>2022-05-27T18:54:31Z</time>
      </trkpt>
      <trkpt lat="48.29159" lon="-4.18101">
        <ele>26.2</ele>
        <time>2022-05-27T18:54:33Z</time>
      </trkpt>
      <trkpt lat="48.29144" lon="-4.18102">
        <ele>26.5</ele>
        <time>2022-05-27T18:54:36Z</time>
      </trkpt>
      <trkpt lat="48.2911" lon="-4.18106">
        <ele>27.8</ele>
        <time>2022-05-27T18:54:43Z</time>
      </trkpt>
      <trkpt lat="48.29096" lon="-4.1811">
        <ele>28.4</ele>
        <time>2022-05-27T18:54:46Z</time>
      </trkpt>
      <trkpt lat="48.29089" lon="-4.18115">
        <ele>28.8</ele>
        <time>2022-05-27T18:54:48Z</time>
      </trkpt>
      <trkpt lat="48.29065" lon="-4.18131">
        <ele>30</ele>
        <time>2022-05-27T18:54:54Z</time>
      </trkpt>
      <trkpt lat="48.29061" lon="-4.18132">
        <ele>30.2</ele>
        <time>2022-05-27T18:54:55Z</time>
      </trkpt>
      <trkpt lat="48.29034" lon="-4.18154">
        <ele>31.6</ele>
        <time>2022-05-27T18:55:02Z</time>
      </trkpt>
      <trkpt lat="48.29018" lon="-4.18162">
        <ele>32.3</ele>
        <time>2022-05-27T18:55:06Z</time>
      </trkpt>
      <trkpt lat="48.29014" lon="-4.18166">
        <ele>32.3</ele>
        <time>2022-05-27T18:55:07Z</time>
      </trkpt>
      <trkpt lat="48.28988" lon="-4.18181">
        <ele>32.4</ele>
        <time>2022-05-27T18:55:12Z</time>
      </trkpt>
      <trkpt lat="48.28966" lon="-4.18192">
        <ele>31.4</ele>
        <time>2022-05-27T18:55:16Z</time>
      </trkpt>
      <trkpt lat="48.2892" lon="-4.18211">
        <ele>29.9</ele>
        <time>2022-05-27T18:55:22Z</time>
      </trkpt>
      <trkpt lat="48.28904" lon="-4.1822">
        <ele>29.4</ele>
        <time>2022-05-27T18:55:24Z</time>
      </trkpt>
      <trkpt lat="48.28872" lon="-4.18238">
        <ele>28.9</ele>
        <time>2022-05-27T18:55:28Z</time>
      </trkpt>
      <trkpt lat="48.2883" lon="-4.18263">
        <ele>28.1</ele>
        <time>2022-05-27T18:55:34Z</time>
      </trkpt>
      <trkpt lat="48.28823" lon="-4.18267">
        <ele>28</ele>
        <time>2022-05-27T18:55:35Z</time>
      </trkpt>
      <trkpt lat="48.28784" lon="-4.1829">
        <ele>28.7</ele>
        <time>2022-05-27T18:55:41Z</time>
      </trkpt>
      <trkpt lat="48.28746" lon="-4.18302">
        <ele>29.4</ele>
        <time>2022-05-27T18:55:47Z</time>
      </trkpt>
      <trkpt lat="48.28731" lon="-4.18316">
        <ele>29.8</ele>
        <time>2022-05-27T18:55:50Z</time>
      </trkpt>
      <trkpt lat="48.28728" lon="-4.18321">
        <ele>29.9</ele>
        <time>2022-05-27T18:55:51Z</time>
      </trkpt>
      <trkpt lat="48.28725" lon="-4.18333">
        <ele>30.2</ele>
        <time>2022-05-27T18:55:52Z</time>
      </trkpt>
      <trkpt lat="48.28696" lon="-4.18383">
        <ele>33</ele>
        <time>2022-05-27T18:56:02Z</time>
      </trkpt>
      <trkpt lat="48.28694" lon="-4.18387">
        <ele>33.2</ele>
        <time>2022-05-27T18:56:03Z</time>
      </trkpt>
      <trkpt lat="48.28679" lon="-4.1841">
        <ele>34.1</ele>
        <time>2022-05-27T18:56:08Z</time>
      </trkpt>
      <trkpt lat="48.28662" lon="-4.18437">
        <ele>35.4</ele>
        <time>2022-05-27T18:56:14Z</time>
      </trkpt>
      <trkpt lat="48.28625" lon="-4.18479">
        <ele>38.1</ele>
        <time>2022-05-27T18:56:26Z</time>
      </trkpt>
      <trkpt lat="48.28612" lon="-4.18498">
        <ele>39.9</ele>
        <time>2022-05-27T18:56:32Z</time>
      </trkpt>
      <trkpt lat="48.28592" lon="-4.18525">
        <ele>42.6</ele>
        <time>2022-05-27T18:56:41Z</time>
      </trkpt>
      <trkpt lat="48.28587" lon="-4.18532">
        <ele>43.5</ele>
        <time>2022-05-27T18:56:44Z</time>
      </trkpt>
      <trkpt lat="48.28567" lon="-4.18564">
        <ele>47.1</ele>
        <time>2022-05-27T18:56:56Z</time>
      </trkpt>
      <trkpt lat="48.2856" lon="-4.18574">
        <ele>48.3</ele>
        <time>2022-05-27T18:57:00Z</time>
      </trkpt>
      <trkpt lat="48.28544" lon="-4.18588">
        <ele>50.6</ele>
        <time>2022-05-27T18:57:08Z</time>
      </trkpt>
      <trkpt lat="48.2852" lon="-4.1861">
        <ele>53.5</ele>
        <time>2022-05-27T18:57:20Z</time>
      </trkpt>
      <trkpt lat="48.28507" lon="-4.18619">
        <ele>55.3</ele>
        <time>2022-05-27T18:57:26Z</time>
      </trkpt>
      <trkpt lat="48.28484" lon="-4.18634">
        <ele>58.6</ele>
        <time>2022-05-27T18:57:37Z</time>
      </trkpt>
      <trkpt lat="48.28477" lon="-4.18638">
        <ele>59.3</ele>
        <time>2022-05-27T18:57:40Z</time>
      </trkpt>
      <trkpt lat="48.28457" lon="-4.1865">
        <ele>61.2</ele>
        <time>2022-05-27T18:57:48Z</time>
      </trkpt>
      <trkpt lat="48.28433" lon="-4.18662">
        <ele>62.6</ele>
        <time>2022-05-27T18:57:57Z</time>
      </trkpt>
      <trkpt lat="48.28402" lon="-4.1867">
        <ele>63.8</ele>
        <time>2022-05-27T18:58:05Z</time>
      </trkpt>
      <trkpt lat="48.28387" lon="-4.18675">
        <ele>63.9</ele>
        <time>2022-05-27T18:58:09Z</time>
      </trkpt>
      <trkpt lat="48.28338" lon="-4.18684">
        <ele>64.3</ele>
        <time>2022-05-27T18:58:19Z</time>
      </trkpt>
      <trkpt lat="48.2829" lon="-4.18691">
        <ele>64.6</ele>
        <time>2022-05-27T18:58:28Z</time>
      </trkpt>
      <trkpt lat="48.28245" lon="-4.18699">
        <ele>65</ele>
        <time>2022-05-27T18:58:37Z</time>
      </trkpt>
      <trkpt lat="48.28206" lon="-4.18718">
        <ele>65.4</ele>
        <time>2022-05-27T18:58:47Z</time>
      </trkpt>
      <trkpt lat="48.28202" lon="-4.1872">
        <ele>65.7</ele>
        <time>2022-05-27T18:58:48Z</time>
      </trkpt>
      <trkpt lat="48.28189" lon="-4.18728">
        <ele>67.1</ele>
        <time>2022-05-27T18:58:53Z</time>
      </trkpt>
      <trkpt lat="48.28174" lon="-4.18738">
        <ele>68.7</ele>
        <time>2022-05-27T18:58:59Z</time>
      </trkpt>
      <trkpt lat="48.28161" lon="-4.18746">
        <ele>70.4</ele>
        <time>2022-05-27T18:59:04Z</time>
      </trkpt>
      <trkpt lat="48.28158" lon="-4.18748">
        <ele>70.7</ele>
        <time>2022-05-27T18:59:05Z</time>
      </trkpt>
      <trkpt lat="48.28131" lon="-4.18766">
        <ele>73.8</ele>
        <time>2022-05-27T18:59:17Z</time>
      </trkpt>
      <trkpt lat="48.28118" lon="-4.18775">
        <ele>75.5</ele>
        <time>2022-05-27T18:59:23Z</time>
      </trkpt>
      <trkpt lat="48.28107" lon="-4.18781">
        <ele>77.3</ele>
        <time>2022-05-27T18:59:29Z</time>
      </trkpt>
      <trkpt lat="48.28085" lon="-4.18794">
        <ele>80.4</ele>
        <time>2022-05-27T18:59:41Z</time>
      </trkpt>
      <trkpt lat="48.28076" lon="-4.18799">
        <ele>81.9</ele>
        <time>2022-05-27T18:59:46Z</time>
      </trkpt>
      <trkpt lat="48.28067" lon="-4.18804">
        <ele>83.4</ele>
        <time>2022-05-27T18:59:51Z</time>
      </trkpt>
      <trkpt lat="48.28058" lon="-4.1881">
        <ele>84.7</ele>
        <time>2022-05-27T18:59:56Z</time>
      </trkpt>
      <trkpt lat="48.2805" lon="-4.18815">
        <ele>86.3</ele>
        <time>2022-05-27T19:00:01Z</time>
      </trkpt>
      <trkpt lat="48.28034" lon="-4.18824">
        <ele>88.4</ele>
        <time>2022-05-27T19:00:10Z</time>
      </trkpt>
      <trkpt lat="48.28029" lon="-4.18831">
        <ele>89.1</ele>
        <time>2022-05-27T19:00:13Z</time>
      </trkpt>
      <trkpt lat="48.2801" lon="-4.18857">
        <ele>92.1</ele>
        <time>2022-05-27T19:00:25Z</time>
      </trkpt>
      <trkpt lat="48.28009" lon="-4.1886">
        <ele>92.2</ele>
        <time>2022-05-27T19:00:26Z</time>
      </trkpt>
      <trkpt lat="48.27999" lon="-4.18918">
        <ele>93.1</ele>
        <time>2022-05-27T19:00:37Z</time>
      </trkpt>
      <trkpt lat="48.27997" lon="-4.18929">
        <ele>93</ele>
        <time>2022-05-27T19:00:39Z</time>
      </trkpt>
      <trkpt lat="48.27991" lon="-4.19003">
        <ele>92.6</ele>
        <time>2022-05-27T19:00:50Z</time>
      </trkpt>
      <trkpt lat="48.27982" lon="-4.19058">
        <ele>92.3</ele>
        <time>2022-05-27T19:00:58Z</time>
      </trkpt>
      <trkpt lat="48.2798" lon="-4.19072">
        <ele>92.2</ele>
        <time>2022-05-27T19:01:00Z</time>
      </trkpt>
      <trkpt lat="48.27962" lon="-4.19135">
        <ele>91.8</ele>
        <time>2022-05-27T19:01:10Z</time>
      </trkpt>
      <trkpt lat="48.27944" lon="-4.19202">
        <ele>91.3</ele>
        <time>2022-05-27T19:01:21Z</time>
      </trkpt>
      <trkpt lat="48.27926" lon="-4.1927">
        <ele>90.9</ele>
        <time>2022-05-27T19:01:32Z</time>
      </trkpt>
      <trkpt lat="48.27899" lon="-4.19332">
        <ele>90.5</ele>
        <time>2022-05-27T19:01:41Z</time>
      </trkpt>
      <trkpt lat="48.2789" lon="-4.19346">
        <ele>90.4</ele>
        <time>2022-05-27T19:01:43Z</time>
      </trkpt>
      <trkpt lat="48.27864" lon="-4.19388">
        <ele>88.6</ele>
        <time>2022-05-27T19:01:49Z</time>
      </trkpt>
      <trkpt lat="48.27831" lon="-4.19439">
        <ele>86.4</ele>
        <time>2022-05-27T19:01:56Z</time>
      </trkpt>
      <trkpt lat="48.27817" lon="-4.1946">
        <ele>85.5</ele>
        <time>2022-05-27T19:01:59Z</time>
      </trkpt>
      <trkpt lat="48.27798" lon="-4.19489">
        <ele>84</ele>
        <time>2022-05-27T19:02:03Z</time>
      </trkpt>
      <trkpt lat="48.27767" lon="-4.19551">
        <ele>81.3</ele>
        <time>2022-05-27T19:02:10Z</time>
      </trkpt>
      <trkpt lat="48.27741" lon="-4.19607">
        <ele>78.5</ele>
        <time>2022-05-27T19:02:16Z</time>
      </trkpt>
      <trkpt lat="48.27717" lon="-4.19657">
        <ele>75.6</ele>
        <time>2022-05-27T19:02:22Z</time>
      </trkpt>
      <trkpt lat="48.27713" lon="-4.19665">
        <ele>74.9</ele>
        <time>2022-05-27T19:02:23Z</time>
      </trkpt>
      <trkpt lat="48.27696" lon="-4.197">
        <ele>71.4</ele>
        <time>2022-05-27T19:02:28Z</time>
      </trkpt>
      <trkpt lat="48.27687" lon="-4.1972">
        <ele>69.4</ele>
        <time>2022-05-27T19:02:31Z</time>
      </trkpt>
      <trkpt lat="48.2768" lon="-4.19735">
        <ele>67.5</ele>
        <time>2022-05-27T19:02:34Z</time>
      </trkpt>
      <trkpt lat="48.27666" lon="-4.19759">
        <ele>64.8</ele>
        <time>2022-05-27T19:02:39Z</time>
      </trkpt>
      <trkpt lat="48.27658" lon="-4.1976">
        <ele>64.4</ele>
        <time>2022-05-27T19:02:40Z</time>
      </trkpt>
      <trkpt lat="48.27618" lon="-4.19767">
        <ele>63.3</ele>
        <time>2022-05-27T19:02:45Z</time>
      </trkpt>
      <trkpt lat="48.27568" lon="-4.19781">
        <ele>61.9</ele>
        <time>2022-05-27T19:02:52Z</time>
      </trkpt>
      <trkpt lat="48.2754" lon="-4.1979">
        <ele>63.4</ele>
        <time>2022-05-27T19:02:58Z</time>
      </trkpt>
      <trkpt lat="48.27522" lon="-4.19796">
        <ele>65.1</ele>
        <time>2022-05-27T19:03:02Z</time>
      </trkpt>
      <trkpt lat="48.27517" lon="-4.19797">
        <ele>66</ele>
        <time>2022-05-27T19:03:04Z</time>
      </trkpt>
      <trkpt lat="48.27488" lon="-4.19804">
        <ele>70.5</ele>
        <time>2022-05-27T19:03:16Z</time>
      </trkpt>
      <trkpt lat="48.27476" lon="-4.19808">
        <ele>72.1</ele>
        <time>2022-05-27T19:03:21Z</time>
      </trkpt>
      <trkpt lat="48.27473" lon="-4.1981">
        <ele>72.8</ele>
        <time>2022-05-27T19:03:23Z</time>
      </trkpt>
      <trkpt lat="48.27468" lon="-4.19811">
        <ele>73.5</ele>
        <time>2022-05-27T19:03:25Z</time>
      </trkpt>
      <trkpt lat="48.27466" lon="-4.19813">
        <ele>73.8</ele>
        <time>2022-05-27T19:03:26Z</time>
      </trkpt>
      <trkpt lat="48.27463" lon="-4.19813">
        <ele>74.4</ele>
        <time>2022-05-27T19:03:28Z</time>
      </trkpt>
      <trkpt lat="48.27443" lon="-4.19815">
        <ele>77.5</ele>
        <time>2022-05-27T19:03:40Z</time>
      </trkpt>
      <trkpt lat="48.27433" lon="-4.19816">
        <ele>79</ele>
        <time>2022-05-27T19:03:46Z</time>
      </trkpt>
      <trkpt lat="48.27423" lon="-4.19817">
        <ele>80.7</ele>
        <time>2022-05-27T19:03:52Z</time>
      </trkpt>
      <trkpt lat="48.27419" lon="-4.19817">
        <ele>81.2</ele>
        <time>2022-05-27T19:03:54Z</time>
      </trkpt>
      <trkpt lat="48.27403" lon="-4.19817">
        <ele>83.3</ele>
        <time>2022-05-27T19:04:03Z</time>
      </trkpt>
      <trkpt lat="48.27373" lon="-4.19816">
        <ele>87</ele>
        <time>2022-05-27T19:04:19Z</time>
      </trkpt>
      <trkpt lat="48.27372" lon="-4.19816">
        <ele>87.2</ele>
        <time>2022-05-27T19:04:20Z</time>
      </trkpt>
      <trkpt lat="48.27351" lon="-4.1981">
        <ele>90.4</ele>
        <time>2022-05-27T19:04:32Z</time>
      </trkpt>
      <trkpt lat="48.27341" lon="-4.19807">
        <ele>91.5</ele>
        <time>2022-05-27T19:04:38Z</time>
      </trkpt>
      <trkpt lat="48.27329" lon="-4.19803">
        <ele>93</ele>
        <time>2022-05-27T19:04:45Z</time>
      </trkpt>
      <trkpt lat="48.27307" lon="-4.19792">
        <ele>95.4</ele>
        <time>2022-05-27T19:04:56Z</time>
      </trkpt>
      <trkpt lat="48.27285" lon="-4.19781">
        <ele>97.7</ele>
        <time>2022-05-27T19:05:07Z</time>
      </trkpt>
      <trkpt lat="48.27267" lon="-4.19774">
        <ele>99.1</ele>
        <time>2022-05-27T19:05:14Z</time>
      </trkpt>
      <trkpt lat="48.27238" lon="-4.19763">
        <ele>100.5</ele>
        <time>2022-05-27T19:05:25Z</time>
      </trkpt>
      <trkpt lat="48.27233" lon="-4.1976">
        <ele>100.6</ele>
        <time>2022-05-27T19:05:26Z</time>
      </trkpt>
      <trkpt lat="48.27204" lon="-4.19744">
        <ele>101.7</ele>
        <time>2022-05-27T19:05:32Z</time>
      </trkpt>
      <trkpt lat="48.27195" lon="-4.19739">
        <ele>102</ele>
        <time>2022-05-27T19:05:34Z</time>
      </trkpt>
      <trkpt lat="48.27151" lon="-4.19716">
        <ele>103.7</ele>
        <time>2022-05-27T19:05:45Z</time>
      </trkpt>
      <trkpt lat="48.27109" lon="-4.19696">
        <ele>105.4</ele>
        <time>2022-05-27T19:05:56Z</time>
      </trkpt>
      <trkpt lat="48.27105" lon="-4.19695">
        <ele>105.6</ele>
        <time>2022-05-27T19:05:57Z</time>
      </trkpt>
      <trkpt lat="48.27057" lon="-4.19684">
        <ele>107.3</ele>
        <time>2022-05-27T19:06:09Z</time>
      </trkpt>
      <trkpt lat="48.27015" lon="-4.19684">
        <ele>108.8</ele>
        <time>2022-05-27T19:06:19Z</time>
      </trkpt>
      <trkpt lat="48.27011" lon="-4.19684">
        <ele>109</ele>
        <time>2022-05-27T19:06:20Z</time>
      </trkpt>
      <trkpt lat="48.26963" lon="-4.19688">
        <ele>111.2</ele>
        <time>2022-05-27T19:06:32Z</time>
      </trkpt>
      <trkpt lat="48.26944" lon="-4.19691">
        <ele>112.1</ele>
        <time>2022-05-27T19:06:37Z</time>
      </trkpt>
      <trkpt lat="48.26918" lon="-4.19695">
        <ele>113.7</ele>
        <time>2022-05-27T19:06:44Z</time>
      </trkpt>
      <trkpt lat="48.26875" lon="-4.19703">
        <ele>116.2</ele>
        <time>2022-05-27T19:06:55Z</time>
      </trkpt>
      <trkpt lat="48.26872" lon="-4.19704">
        <ele>116.4</ele>
        <time>2022-05-27T19:06:56Z</time>
      </trkpt>
      <trkpt lat="48.26827" lon="-4.19716">
        <ele>119.1</ele>
        <time>2022-05-27T19:07:08Z</time>
      </trkpt>
      <trkpt lat="48.26811" lon="-4.19721">
        <ele>120.2</ele>
        <time>2022-05-27T19:07:13Z</time>
      </trkpt>
      <trkpt lat="48.26781" lon="-4.19731">
        <ele>122.4</ele>
        <time>2022-05-27T19:07:22Z</time>
      </trkpt>
      <trkpt lat="48.26751" lon="-4.19742">
        <ele>124.6</ele>
        <time>2022-05-27T19:07:31Z</time>
      </trkpt>
      <trkpt lat="48.26737" lon="-4.19746">
        <ele>125.4</ele>
        <time>2022-05-27T19:07:35Z</time>
      </trkpt>
      <trkpt lat="48.26692" lon="-4.19751">
        <ele>128.3</ele>
        <time>2022-05-27T19:07:49Z</time>
      </trkpt>
      <trkpt lat="48.26677" lon="-4.19752">
        <ele>129</ele>
        <time>2022-05-27T19:07:54Z</time>
      </trkpt>
      <trkpt lat="48.26673" lon="-4.19759">
        <ele>129.3</ele>
        <time>2022-05-27T19:07:56Z</time>
      </trkpt>
      <trkpt lat="48.26676" lon="-4.19826">
        <ele>130.8</ele>
        <time>2022-05-27T19:08:07Z</time>
      </trkpt>
      <trkpt lat="48.26676" lon="-4.19833">
        <ele>130.8</ele>
        <time>2022-05-27T19:08:08Z</time>
      </trkpt>
      <trkpt lat="48.26681" lon="-4.19904">
        <ele>131.1</ele>
        <time>2022-05-27T19:08:17Z</time>
      </trkpt>
      <trkpt lat="48.26682" lon="-4.19945">
        <ele>131.3</ele>
        <time>2022-05-27T19:08:22Z</time>
      </trkpt>
      <trkpt lat="48.26664" lon="-4.20008">
        <ele>131.7</ele>
        <time>2022-05-27T19:08:31Z</time>
      </trkpt>
      <trkpt lat="48.26657" lon="-4.20016">
        <ele>131.9</ele>
        <time>2022-05-27T19:08:34Z</time>
      </trkpt>
      <trkpt lat="48.26643" lon="-4.20033">
        <ele>133.3</ele>
        <time>2022-05-27T19:08:40Z</time>
      </trkpt>
      <trkpt lat="48.26629" lon="-4.20049">
        <ele>134.9</ele>
        <time>2022-05-27T19:08:46Z</time>
      </trkpt>
      <trkpt lat="48.26615" lon="-4.20059">
        <ele>136.5</ele>
        <time>2022-05-27T19:08:52Z</time>
      </trkpt>
      <trkpt lat="48.26588" lon="-4.20078">
        <ele>139.8</ele>
        <time>2022-05-27T19:09:04Z</time>
      </trkpt>
      <trkpt lat="48.26586" lon="-4.2008">
        <ele>140</ele>
        <time>2022-05-27T19:09:05Z</time>
      </trkpt>
      <trkpt lat="48.26573" lon="-4.2009">
        <ele>141.2</ele>
        <time>2022-05-27T19:09:10Z</time>
      </trkpt>
      <trkpt lat="48.26545" lon="-4.20113">
        <ele>143.8</ele>
        <time>2022-05-27T19:09:21Z</time>
      </trkpt>
      <trkpt lat="48.26525" lon="-4.20125">
        <ele>145.3</ele>
        <time>2022-05-27T19:09:28Z</time>
      </trkpt>
      <trkpt lat="48.26503" lon="-4.20138">
        <ele>146.4</ele>
        <time>2022-05-27T19:09:36Z</time>
      </trkpt>
      <trkpt lat="48.26467" lon="-4.20143">
        <ele>147.7</ele>
        <time>2022-05-27T19:09:46Z</time>
      </trkpt>
      <trkpt lat="48.26421" lon="-4.20177">
        <ele>146.3</ele>
        <time>2022-05-27T19:10:00Z</time>
      </trkpt>
      <trkpt lat="48.26421" lon="-4.20177">
        <ele>146.3</ele>
        <time>2022-05-27T19:10:57Z</time>
      </trkpt>
      <trkpt lat="48.26385" lon="-4.20209">
        <ele>145.1</ele>
        <time>2022-05-27T19:11:02Z</time>
      </trkpt>
      <trkpt lat="48.26387" lon="-4.20282">
        <ele>144.8</ele>
        <time>2022-05-27T19:11:11Z</time>
      </trkpt>
      <trkpt lat="48.26388" lon="-4.2035">
        <ele>144.5</ele>
        <time>2022-05-27T19:11:18Z</time>
      </trkpt>
      <trkpt lat="48.26388" lon="-4.20382">
        <ele>144.4</ele>
        <time>2022-05-27T19:11:21Z</time>
      </trkpt>
      <trkpt lat="48.26388" lon="-4.20425">
        <ele>144.2</ele>
        <time>2022-05-27T19:11:25Z</time>
      </trkpt>
      <trkpt lat="48.26389" lon="-4.20492">
        <ele>143.8</ele>
        <time>2022-05-27T19:11:31Z</time>
      </trkpt>
      <trkpt lat="48.26396" lon="-4.2056">
        <ele>143.4</ele>
        <time>2022-05-27T19:11:37Z</time>
      </trkpt>
      <trkpt lat="48.26411" lon="-4.20626">
        <ele>142.9</ele>
        <time>2022-05-27T19:11:44Z</time>
      </trkpt>
      <trkpt lat="48.26413" lon="-4.20633">
        <ele>142.9</ele>
        <time>2022-05-27T19:11:45Z</time>
      </trkpt>
      <trkpt lat="48.26427" lon="-4.20676">
        <ele>144</ele>
        <time>2022-05-27T19:11:51Z</time>
      </trkpt>
      <trkpt lat="48.26432" lon="-4.2069">
        <ele>144.4</ele>
        <time>2022-05-27T19:11:53Z</time>
      </trkpt>
      <trkpt lat="48.26454" lon="-4.20755">
        <ele>146.2</ele>
        <time>2022-05-27T19:12:03Z</time>
      </trkpt>
      <trkpt lat="48.26467" lon="-4.20791">
        <ele>147.3</ele>
        <time>2022-05-27T19:12:09Z</time>
      </trkpt>
      <trkpt lat="48.26477" lon="-4.20821">
        <ele>148.1</ele>
        <time>2022-05-27T19:12:14Z</time>
      </trkpt>
      <trkpt lat="48.26488" lon="-4.20885">
        <ele>149.8</ele>
        <time>2022-05-27T19:12:25Z</time>
      </trkpt>
      <trkpt lat="48.26477" lon="-4.20892">
        <ele>150</ele>
        <time>2022-05-27T19:12:26Z</time>
      </trkpt>
      <trkpt lat="48.26465" lon="-4.20915">
        <ele>150.5</ele>
        <time>2022-05-27T19:12:30Z</time>
      </trkpt>
      <trkpt lat="48.26447" lon="-4.20949">
        <ele>150.1</ele>
        <time>2022-05-27T19:12:36Z</time>
      </trkpt>
      <trkpt lat="48.26415" lon="-4.21">
        <ele>149.4</ele>
        <time>2022-05-27T19:12:45Z</time>
      </trkpt>
      <trkpt lat="48.2638" lon="-4.21053">
        <ele>148.9</ele>
        <time>2022-05-27T19:12:53Z</time>
      </trkpt>
      <trkpt lat="48.26345" lon="-4.21109">
        <ele>148.4</ele>
        <time>2022-05-27T19:13:00Z</time>
      </trkpt>
      <trkpt lat="48.26318" lon="-4.21163">
        <ele>147.8</ele>
        <time>2022-05-27T19:13:06Z</time>
      </trkpt>
      <trkpt lat="48.26308" lon="-4.21196">
        <ele>147.5</ele>
        <time>2022-05-27T19:13:09Z</time>
      </trkpt>
      <trkpt lat="48.26301" lon="-4.21262">
        <ele>146.9</ele>
        <time>2022-05-27T19:13:15Z</time>
      </trkpt>
      <trkpt lat="48.263" lon="-4.21293">
        <ele>146.7</ele>
        <time>2022-05-27T19:13:18Z</time>
      </trkpt>
      <trkpt lat="48.26299" lon="-4.21333">
        <ele>147.1</ele>
        <time>2022-05-27T19:13:22Z</time>
      </trkpt>
      <trkpt lat="48.26309" lon="-4.21404">
        <ele>147.9</ele>
        <time>2022-05-27T19:13:30Z</time>
      </trkpt>
      <trkpt lat="48.26325" lon="-4.21469">
        <ele>148.8</ele>
        <time>2022-05-27T19:13:38Z</time>
      </trkpt>
      <trkpt lat="48.26336" lon="-4.21491">
        <ele>149.1</ele>
        <time>2022-05-27T19:13:42Z</time>
      </trkpt>
      <trkpt lat="48.26351" lon="-4.21525">
        <ele>149.2</ele>
        <time>2022-05-27T19:13:48Z</time>
      </trkpt>
      <trkpt lat="48.26348" lon="-4.21541">
        <ele>149.2</ele>
        <time>2022-05-27T19:13:51Z</time>
      </trkpt>
      <trkpt lat="48.26345" lon="-4.21547">
        <ele>149.2</ele>
        <time>2022-05-27T19:13:52Z</time>
      </trkpt>
      <trkpt lat="48.26341" lon="-4.21584">
        <ele>149.2</ele>
        <time>2022-05-27T19:13:56Z</time>
      </trkpt>
      <trkpt lat="48.26351" lon="-4.21625">
        <ele>149.2</ele>
        <time>2022-05-27T19:14:00Z</time>
      </trkpt>
      <trkpt lat="48.26358" lon="-4.21656">
        <ele>149</ele>
        <time>2022-05-27T19:14:03Z</time>
      </trkpt>
      <trkpt lat="48.26376" lon="-4.21719">
        <ele>148.8</ele>
        <time>2022-05-27T19:14:10Z</time>
      </trkpt>
      <trkpt lat="48.26382" lon="-4.21736">
        <ele>148.7</ele>
        <time>2022-05-27T19:14:12Z</time>
      </trkpt>
      <trkpt lat="48.264" lon="-4.21786">
        <ele>148.4</ele>
        <time>2022-05-27T19:14:18Z</time>
      </trkpt>
      <trkpt lat="48.26424" lon="-4.21854">
        <ele>147.9</ele>
        <time>2022-05-27T19:14:26Z</time>
      </trkpt>
      <trkpt lat="48.26433" lon="-4.21886">
        <ele>147.6</ele>
        <time>2022-05-27T19:14:29Z</time>
      </trkpt>
      <trkpt lat="48.26429" lon="-4.21955">
        <ele>143.9</ele>
        <time>2022-05-27T19:14:35Z</time>
      </trkpt>
      <trkpt lat="48.26421" lon="-4.22031">
        <ele>139.3</ele>
        <time>2022-05-27T19:14:41Z</time>
      </trkpt>
      <trkpt lat="48.26413" lon="-4.22091">
        <ele>135.8</ele>
        <time>2022-05-27T19:14:46Z</time>
      </trkpt>
      <trkpt lat="48.26408" lon="-4.22113">
        <ele>135.4</ele>
        <time>2022-05-27T19:14:48Z</time>
      </trkpt>
      <trkpt lat="48.26407" lon="-4.22123">
        <ele>135.2</ele>
        <time>2022-05-27T19:14:49Z</time>
      </trkpt>
      <trkpt lat="48.2639" lon="-4.22194">
        <ele>133.9</ele>
        <time>2022-05-27T19:14:57Z</time>
      </trkpt>
      <trkpt lat="48.26378" lon="-4.22249">
        <ele>133.1</ele>
        <time>2022-05-27T19:15:03Z</time>
      </trkpt>
      <trkpt lat="48.26375" lon="-4.22267">
        <ele>132.6</ele>
        <time>2022-05-27T19:15:05Z</time>
      </trkpt>
      <trkpt lat="48.26369" lon="-4.22308">
        <ele>131.6</ele>
        <time>2022-05-27T19:15:09Z</time>
      </trkpt>
      <trkpt lat="48.26365" lon="-4.22338">
        <ele>130.8</ele>
        <time>2022-05-27T19:15:12Z</time>
      </trkpt>
      <trkpt lat="48.26363" lon="-4.22372">
        <ele>129.9</ele>
        <time>2022-05-27T19:15:15Z</time>
      </trkpt>
      <trkpt lat="48.26361" lon="-4.22418">
        <ele>128.5</ele>
        <time>2022-05-27T19:15:19Z</time>
      </trkpt>
      <trkpt lat="48.26359" lon="-4.22491">
        <ele>126.4</ele>
        <time>2022-05-27T19:15:25Z</time>
      </trkpt>
      <trkpt lat="48.26357" lon="-4.22522">
        <ele>125.7</ele>
        <time>2022-05-27T19:15:27Z</time>
      </trkpt>
      <trkpt lat="48.26355" lon="-4.22567">
        <ele>124.4</ele>
        <time>2022-05-27T19:15:30Z</time>
      </trkpt>
      <trkpt lat="48.26349" lon="-4.22638">
        <ele>122.2</ele>
        <time>2022-05-27T19:15:35Z</time>
      </trkpt>
      <trkpt lat="48.26343" lon="-4.22671">
        <ele>120.4</ele>
        <time>2022-05-27T19:15:39Z</time>
      </trkpt>
      <trkpt lat="48.26336" lon="-4.22713">
        <ele>117.3</ele>
        <time>2022-05-27T19:15:44Z</time>
      </trkpt>
      <trkpt lat="48.26334" lon="-4.22723">
        <ele>116.9</ele>
        <time>2022-05-27T19:15:45Z</time>
      </trkpt>
      <trkpt lat="48.26331" lon="-4.22793">
        <ele>116.5</ele>
        <time>2022-05-27T19:15:52Z</time>
      </trkpt>
      <trkpt lat="48.26328" lon="-4.22836">
        <ele>116.1</ele>
        <time>2022-05-27T19:15:57Z</time>
      </trkpt>
      <trkpt lat="48.26325" lon="-4.22861">
        <ele>115.5</ele>
        <time>2022-05-27T19:16:00Z</time>
      </trkpt>
      <trkpt lat="48.26323" lon="-4.22927">
        <ele>113.8</ele>
        <time>2022-05-27T19:16:09Z</time>
      </trkpt>
      <trkpt lat="48.26323" lon="-4.22935">
        <ele>113.5</ele>
        <time>2022-05-27T19:16:10Z</time>
      </trkpt>
      <trkpt lat="48.2633" lon="-4.23009">
        <ele>111.4</ele>
        <time>2022-05-27T19:16:18Z</time>
      </trkpt>
      <trkpt lat="48.26336" lon="-4.23035">
        <ele>110.6</ele>
        <time>2022-05-27T19:16:21Z</time>
      </trkpt>
      <trkpt lat="48.26347" lon="-4.23079">
        <ele>109.5</ele>
        <time>2022-05-27T19:16:26Z</time>
      </trkpt>
      <trkpt lat="48.26349" lon="-4.23089">
        <ele>109.4</ele>
        <time>2022-05-27T19:16:27Z</time>
      </trkpt>
      <trkpt lat="48.26359" lon="-4.23147">
        <ele>109.1</ele>
        <time>2022-05-27T19:16:33Z</time>
      </trkpt>
      <trkpt lat="48.26369" lon="-4.23174">
        <ele>108.9</ele>
        <time>2022-05-27T19:16:38Z</time>
      </trkpt>
      <trkpt lat="48.2638" lon="-4.23207">
        <ele>110.5</ele>
        <time>2022-05-27T19:16:44Z</time>
      </trkpt>
      <trkpt lat="48.26388" lon="-4.23224">
        <ele>112.2</ele>
        <time>2022-05-27T19:16:49Z</time>
      </trkpt>
      <trkpt lat="48.264" lon="-4.23253">
        <ele>114.7</ele>
        <time>2022-05-27T19:16:57Z</time>
      </trkpt>
      <trkpt lat="48.26405" lon="-4.23268">
        <ele>115.9</ele>
        <time>2022-05-27T19:17:01Z</time>
      </trkpt>
      <trkpt lat="48.26411" lon="-4.23282">
        <ele>116.8</ele>
        <time>2022-05-27T19:17:05Z</time>
      </trkpt>
      <trkpt lat="48.26414" lon="-4.2329">
        <ele>117.1</ele>
        <time>2022-05-27T19:17:07Z</time>
      </trkpt>
      <trkpt lat="48.26434" lon="-4.23341">
        <ele>118.7</ele>
        <time>2022-05-27T19:17:20Z</time>
      </trkpt>
      <trkpt lat="48.26454" lon="-4.2339">
        <ele>120</ele>
        <time>2022-05-27T19:17:31Z</time>
      </trkpt>
      <trkpt lat="48.26459" lon="-4.23403">
        <ele>119.9</ele>
        <time>2022-05-27T19:17:34Z</time>
      </trkpt>
      <trkpt lat="48.26483" lon="-4.23465">
        <ele>119.4</ele>
        <time>2022-05-27T19:17:46Z</time>
      </trkpt>
      <trkpt lat="48.26508" lon="-4.23527">
        <ele>119</ele>
        <time>2022-05-27T19:17:56Z</time>
      </trkpt>
      <trkpt lat="48.26533" lon="-4.23588">
        <ele>118.6</ele>
        <time>2022-05-27T19:18:05Z</time>
      </trkpt>
      <trkpt lat="48.26556" lon="-4.23632">
        <ele>118.3</ele>
        <time>2022-05-27T19:18:12Z</time>
      </trkpt>
      <trkpt lat="48.26561" lon="-4.23637">
        <ele>118.3</ele>
        <time>2022-05-27T19:18:13Z</time>
      </trkpt>
      <trkpt lat="48.26596" lon="-4.23677">
        <ele>117.5</ele>
        <time>2022-05-27T19:18:21Z</time>
      </trkpt>
      <trkpt lat="48.26613" lon="-4.23698">
        <ele>117.1</ele>
        <time>2022-05-27T19:18:25Z</time>
      </trkpt>
      <trkpt lat="48.26634" lon="-4.23724">
        <ele>116.8</ele>
        <time>2022-05-27T19:18:30Z</time>
      </trkpt>
      <trkpt lat="48.26661" lon="-4.23747">
        <ele>116.5</ele>
        <time>2022-05-27T19:18:37Z</time>
      </trkpt>
      <trkpt lat="48.26667" lon="-4.23751">
        <ele>116.3</ele>
        <time>2022-05-27T19:18:40Z</time>
      </trkpt>
      <trkpt lat="48.26679" lon="-4.23725">
        <ele>115.9</ele>
        <time>2022-05-27T19:18:47Z</time>
      </trkpt>
      <trkpt lat="48.26685" lon="-4.23733">
        <ele>115.9</ele>
        <time>2022-05-27T19:18:48Z</time>
      </trkpt>
      <trkpt lat="48.26685" lon="-4.2374">
        <ele>115.8</ele>
        <time>2022-05-27T19:18:49Z</time>
      </trkpt>
      <trkpt lat="48.26688" lon="-4.23747">
        <ele>115.8</ele>
        <time>2022-05-27T19:18:50Z</time>
      </trkpt>
      <trkpt lat="48.26692" lon="-4.23754">
        <ele>115.7</ele>
        <time>2022-05-27T19:18:51Z</time>
      </trkpt>
      <trkpt lat="48.26726" lon="-4.23773">
        <ele>115.4</ele>
        <time>2022-05-27T19:18:57Z</time>
      </trkpt>
      <trkpt lat="48.26761" lon="-4.23825">
        <ele>114.9</ele>
        <time>2022-05-27T19:19:06Z</time>
      </trkpt>
      <trkpt lat="48.26794" lon="-4.23873">
        <ele>114.5</ele>
        <time>2022-05-27T19:19:14Z</time>
      </trkpt>
      <trkpt lat="48.26818" lon="-4.23899">
        <ele>114.2</ele>
        <time>2022-05-27T19:19:19Z</time>
      </trkpt>
      <trkpt lat="48.26834" lon="-4.23907">
        <ele>114.1</ele>
        <time>2022-05-27T19:19:22Z</time>
      </trkpt>
      <trkpt lat="48.26843" lon="-4.23907">
        <ele>114</ele>
        <time>2022-05-27T19:19:24Z</time>
      </trkpt>
      <trkpt lat="48.26853" lon="-4.23906">
        <ele>113.8</ele>
        <time>2022-05-27T19:19:27Z</time>
      </trkpt>
      <trkpt lat="48.26858" lon="-4.23919">
        <ele>113.8</ele>
        <time>2022-05-27T19:19:28Z</time>
      </trkpt>
      <trkpt lat="48.26865" lon="-4.23933">
        <ele>113.6</ele>
        <time>2022-05-27T19:19:30Z</time>
      </trkpt>
      <trkpt lat="48.26886" lon="-4.23977">
        <ele>113</ele>
        <time>2022-05-27T19:19:36Z</time>
      </trkpt>
      <trkpt lat="48.26915" lon="-4.24037">
        <ele>112</ele>
        <time>2022-05-27T19:19:43Z</time>
      </trkpt>
      <trkpt lat="48.26937" lon="-4.2408">
        <ele>111.4</ele>
        <time>2022-05-27T19:19:48Z</time>
      </trkpt>
      <trkpt lat="48.26946" lon="-4.24097">
        <ele>111.3</ele>
        <time>2022-05-27T19:19:50Z</time>
      </trkpt>
      <trkpt lat="48.26964" lon="-4.24131">
        <ele>111.2</ele>
        <time>2022-05-27T19:19:54Z</time>
      </trkpt>
      <trkpt lat="48.26977" lon="-4.24157">
        <ele>111.3</ele>
        <time>2022-05-27T19:19:57Z</time>
      </trkpt>
      <trkpt lat="48.27006" lon="-4.24217">
        <ele>111.7</ele>
        <time>2022-05-27T19:20:04Z</time>
      </trkpt>
      <trkpt lat="48.27033" lon="-4.24275">
        <ele>112</ele>
        <time>2022-05-27T19:20:11Z</time>
      </trkpt>
      <trkpt lat="48.27055" lon="-4.24337">
        <ele>112.3</ele>
        <time>2022-05-27T19:20:18Z</time>
      </trkpt>
      <trkpt lat="48.27078" lon="-4.24401">
        <ele>112.6</ele>
        <time>2022-05-27T19:20:25Z</time>
      </trkpt>
      <trkpt lat="48.27099" lon="-4.24464">
        <ele>112.9</ele>
        <time>2022-05-27T19:20:32Z</time>
      </trkpt>
      <trkpt lat="48.27109" lon="-4.2449">
        <ele>113</ele>
        <time>2022-05-27T19:20:35Z</time>
      </trkpt>
      <trkpt lat="48.27112" lon="-4.24499">
        <ele>113.1</ele>
        <time>2022-05-27T19:20:36Z</time>
      </trkpt>
      <trkpt lat="48.27134" lon="-4.24558">
        <ele>113.4</ele>
        <time>2022-05-27T19:20:43Z</time>
      </trkpt>
      <trkpt lat="48.27154" lon="-4.24627">
        <ele>113.7</ele>
        <time>2022-05-27T19:20:51Z</time>
      </trkpt>
      <trkpt lat="48.27155" lon="-4.24635">
        <ele>113.8</ele>
        <time>2022-05-27T19:20:52Z</time>
      </trkpt>
      <trkpt lat="48.27154" lon="-4.24643">
        <ele>113.8</ele>
        <time>2022-05-27T19:20:53Z</time>
      </trkpt>
      <trkpt lat="48.27164" lon="-4.24711">
        <ele>114.2</ele>
        <time>2022-05-27T19:21:01Z</time>
      </trkpt>
      <trkpt lat="48.27165" lon="-4.24729">
        <ele>114.3</ele>
        <time>2022-05-27T19:21:03Z</time>
      </trkpt>
      <trkpt lat="48.27166" lon="-4.24772">
        <ele>115</ele>
        <time>2022-05-27T19:21:08Z</time>
      </trkpt>
      <trkpt lat="48.27166" lon="-4.24781">
        <ele>115.1</ele>
        <time>2022-05-27T19:21:09Z</time>
      </trkpt>
      <trkpt lat="48.27162" lon="-4.24825">
        <ele>115.5</ele>
        <time>2022-05-27T19:21:14Z</time>
      </trkpt>
      <trkpt lat="48.2716" lon="-4.24851">
        <ele>115.5</ele>
        <time>2022-05-27T19:21:17Z</time>
      </trkpt>
      <trkpt lat="48.27152" lon="-4.24922">
        <ele>115.5</ele>
        <time>2022-05-27T19:21:25Z</time>
      </trkpt>
      <trkpt lat="48.27143" lon="-4.24993">
        <ele>115.5</ele>
        <time>2022-05-27T19:21:33Z</time>
      </trkpt>
      <trkpt lat="48.27132" lon="-4.25061">
        <ele>115.5</ele>
        <time>2022-05-27T19:21:41Z</time>
      </trkpt>
      <trkpt lat="48.27123" lon="-4.25135">
        <ele>115.5</ele>
        <time>2022-05-27T19:21:49Z</time>
      </trkpt>
      <trkpt lat="48.27114" lon="-4.25205">
        <ele>115.5</ele>
        <time>2022-05-27T19:21:57Z</time>
      </trkpt>
      <trkpt lat="48.27104" lon="-4.25277">
        <ele>115.6</ele>
        <time>2022-05-27T19:22:04Z</time>
      </trkpt>
      <trkpt lat="48.27094" lon="-4.2535">
        <ele>115.6</ele>
        <time>2022-05-27T19:22:11Z</time>
      </trkpt>
      <trkpt lat="48.27085" lon="-4.25418">
        <ele>115.6</ele>
        <time>2022-05-27T19:22:17Z</time>
      </trkpt>
      <trkpt lat="48.27079" lon="-4.25455">
        <ele>115.4</ele>
        <time>2022-05-27T19:22:20Z</time>
      </trkpt>
      <trkpt lat="48.27073" lon="-4.25493">
        <ele>114.2</ele>
        <time>2022-05-27T19:22:23Z</time>
      </trkpt>
      <trkpt lat="48.27073" lon="-4.25516">
        <ele>113.4</ele>
        <time>2022-05-27T19:22:25Z</time>
      </trkpt>
      <trkpt lat="48.27076" lon="-4.25525">
        <ele>113</ele>
        <time>2022-05-27T19:22:26Z</time>
      </trkpt>
      <trkpt lat="48.27087" lon="-4.25601">
        <ele>110.3</ele>
        <time>2022-05-27T19:22:31Z</time>
      </trkpt>
      <trkpt lat="48.271" lon="-4.25674">
        <ele>107.7</ele>
        <time>2022-05-27T19:22:36Z</time>
      </trkpt>
      <trkpt lat="48.27106" lon="-4.25704">
        <ele>106.6</ele>
        <time>2022-05-27T19:22:38Z</time>
      </trkpt>
      <trkpt lat="48.27114" lon="-4.25749">
        <ele>105.2</ele>
        <time>2022-05-27T19:22:41Z</time>
      </trkpt>
      <trkpt lat="48.2713" lon="-4.25825">
        <ele>102.8</ele>
        <time>2022-05-27T19:22:46Z</time>
      </trkpt>
      <trkpt lat="48.27139" lon="-4.25872">
        <ele>101.2</ele>
        <time>2022-05-27T19:22:49Z</time>
      </trkpt>
      <trkpt lat="48.27145" lon="-4.25903">
        <ele>99.8</ele>
        <time>2022-05-27T19:22:51Z</time>
      </trkpt>
      <trkpt lat="48.2716" lon="-4.25963">
        <ele>97.1</ele>
        <time>2022-05-27T19:22:55Z</time>
      </trkpt>
      <trkpt lat="48.27165" lon="-4.25977">
        <ele>96.5</ele>
        <time>2022-05-27T19:22:56Z</time>
      </trkpt>
      <trkpt lat="48.27196" lon="-4.26044">
        <ele>93.4</ele>
        <time>2022-05-27T19:23:01Z</time>
      </trkpt>
      <trkpt lat="48.27228" lon="-4.2611">
        <ele>89.8</ele>
        <time>2022-05-27T19:23:06Z</time>
      </trkpt>
      <trkpt lat="48.27235" lon="-4.26124">
        <ele>89.1</ele>
        <time>2022-05-27T19:23:07Z</time>
      </trkpt>
      <trkpt lat="48.27255" lon="-4.26165">
        <ele>87.1</ele>
        <time>2022-05-27T19:23:10Z</time>
      </trkpt>
      <trkpt lat="48.27276" lon="-4.26206">
        <ele>85.2</ele>
        <time>2022-05-27T19:23:13Z</time>
      </trkpt>
      <trkpt lat="48.27283" lon="-4.2622">
        <ele>84.5</ele>
        <time>2022-05-27T19:23:14Z</time>
      </trkpt>
      <trkpt lat="48.27309" lon="-4.26275">
        <ele>81.6</ele>
        <time>2022-05-27T19:23:18Z</time>
      </trkpt>
      <trkpt lat="48.27315" lon="-4.2629">
        <ele>81</ele>
        <time>2022-05-27T19:23:19Z</time>
      </trkpt>
      <trkpt lat="48.27333" lon="-4.26334">
        <ele>79.3</ele>
        <time>2022-05-27T19:23:22Z</time>
      </trkpt>
      <trkpt lat="48.27348" lon="-4.26379">
        <ele>77.7</ele>
        <time>2022-05-27T19:23:25Z</time>
      </trkpt>
      <trkpt lat="48.27353" lon="-4.26394">
        <ele>77.1</ele>
        <time>2022-05-27T19:23:26Z</time>
      </trkpt>
      <trkpt lat="48.2738" lon="-4.26468">
        <ele>74</ele>
        <time>2022-05-27T19:23:31Z</time>
      </trkpt>
      <trkpt lat="48.27399" lon="-4.2653">
        <ele>71.2</ele>
        <time>2022-05-27T19:23:35Z</time>
      </trkpt>
      <trkpt lat="48.27407" lon="-4.26557">
        <ele>69.9</ele>
        <time>2022-05-27T19:23:37Z</time>
      </trkpt>
      <trkpt lat="48.27419" lon="-4.26595">
        <ele>68.2</ele>
        <time>2022-05-27T19:23:40Z</time>
      </trkpt>
      <trkpt lat="48.27422" lon="-4.26614">
        <ele>67.1</ele>
        <time>2022-05-27T19:23:42Z</time>
      </trkpt>
      <trkpt lat="48.2742" lon="-4.2662">
        <ele>66.7</ele>
        <time>2022-05-27T19:23:43Z</time>
      </trkpt>
      <trkpt lat="48.27409" lon="-4.26646">
        <ele>65.5</ele>
        <time>2022-05-27T19:23:48Z</time>
      </trkpt>
      <trkpt lat="48.27402" lon="-4.26639">
        <ele>65.2</ele>
        <time>2022-05-27T19:23:49Z</time>
      </trkpt>
      <trkpt lat="48.27384" lon="-4.26596">
        <ele>63.8</ele>
        <time>2022-05-27T19:23:55Z</time>
      </trkpt>
      <trkpt lat="48.27375" lon="-4.26574">
        <ele>63.5</ele>
        <time>2022-05-27T19:23:58Z</time>
      </trkpt>
      <trkpt lat="48.27364" lon="-4.2655">
        <ele>63.1</ele>
        <time>2022-05-27T19:24:01Z</time>
      </trkpt>
      <trkpt lat="48.27348" lon="-4.26516">
        <ele>61.9</ele>
        <time>2022-05-27T19:24:05Z</time>
      </trkpt>
      <trkpt lat="48.27337" lon="-4.26497">
        <ele>61.3</ele>
        <time>2022-05-27T19:24:07Z</time>
      </trkpt>
      <trkpt lat="48.27314" lon="-4.26457">
        <ele>59.5</ele>
        <time>2022-05-27T19:24:11Z</time>
      </trkpt>
      <trkpt lat="48.27302" lon="-4.26436">
        <ele>58.6</ele>
        <time>2022-05-27T19:24:13Z</time>
      </trkpt>
      <trkpt lat="48.27283" lon="-4.26405">
        <ele>56.9</ele>
        <time>2022-05-27T19:24:16Z</time>
      </trkpt>
      <trkpt lat="48.27262" lon="-4.26373">
        <ele>55.2</ele>
        <time>2022-05-27T19:24:19Z</time>
      </trkpt>
      <trkpt lat="48.27248" lon="-4.26352">
        <ele>54.1</ele>
        <time>2022-05-27T19:24:21Z</time>
      </trkpt>
      <trkpt lat="48.27227" lon="-4.26324">
        <ele>52.4</ele>
        <time>2022-05-27T19:24:24Z</time>
      </trkpt>
      <trkpt lat="48.2722" lon="-4.2632">
        <ele>51.8</ele>
        <time>2022-05-27T19:24:25Z</time>
      </trkpt>
      <trkpt lat="48.27146" lon="-4.26282">
        <ele>47.8</ele>
        <time>2022-05-27T19:24:31Z</time>
      </trkpt>
      <trkpt lat="48.27146" lon="-4.26282">
        <ele>47.8</ele>
        <time>2022-05-27T19:25:15Z</time>
      </trkpt>
      <trkpt lat="48.27107" lon="-4.26265">
        <ele>46.9</ele>
        <time>2022-05-27T19:25:20Z</time>
      </trkpt>
      <trkpt lat="48.27058" lon="-4.26269">
        <ele>46.9</ele>
        <time>2022-05-27T19:25:30Z</time>
      </trkpt>
      <trkpt lat="48.27013" lon="-4.26288">
        <ele>47</ele>
        <time>2022-05-27T19:25:39Z</time>
      </trkpt>
      <trkpt lat="48.26965" lon="-4.26312">
        <ele>47</ele>
        <time>2022-05-27T19:25:48Z</time>
      </trkpt>
      <trkpt lat="48.26921" lon="-4.26341">
        <ele>47.1</ele>
        <time>2022-05-27T19:25:56Z</time>
      </trkpt>
      <trkpt lat="48.26877" lon="-4.26375">
        <ele>47.1</ele>
        <time>2022-05-27T19:26:04Z</time>
      </trkpt>
      <trkpt lat="48.26834" lon="-4.26415">
        <ele>47.2</ele>
        <time>2022-05-27T19:26:12Z</time>
      </trkpt>
      <trkpt lat="48.26795" lon="-4.26452">
        <ele>47.2</ele>
        <time>2022-05-27T19:26:20Z</time>
      </trkpt>
      <trkpt lat="48.26762" lon="-4.26499">
        <ele>47.3</ele>
        <time>2022-05-27T19:26:27Z</time>
      </trkpt>
      <trkpt lat="48.26758" lon="-4.26507">
        <ele>47.3</ele>
        <time>2022-05-27T19:26:28Z</time>
      </trkpt>
      <trkpt lat="48.26736" lon="-4.26569">
        <ele>47.3</ele>
        <time>2022-05-27T19:26:35Z</time>
      </trkpt>
      <trkpt lat="48.26728" lon="-4.26603">
        <ele>47.4</ele>
        <time>2022-05-27T19:26:39Z</time>
      </trkpt>
      <trkpt lat="48.26723" lon="-4.26654">
        <ele>47.5</ele>
        <time>2022-05-27T19:26:46Z</time>
      </trkpt>
      <trkpt lat="48.26721" lon="-4.26675">
        <ele>48.4</ele>
        <time>2022-05-27T19:26:49Z</time>
      </trkpt>
      <trkpt lat="48.26722" lon="-4.26727">
        <ele>51.1</ele>
        <time>2022-05-27T19:26:58Z</time>
      </trkpt>
      <trkpt lat="48.26722" lon="-4.26744">
        <ele>51.9</ele>
        <time>2022-05-27T19:27:01Z</time>
      </trkpt>
      <trkpt lat="48.26723" lon="-4.26782">
        <ele>53.6</ele>
        <time>2022-05-27T19:27:08Z</time>
      </trkpt>
      <trkpt lat="48.26724" lon="-4.26815">
        <ele>55</ele>
        <time>2022-05-27T19:27:14Z</time>
      </trkpt>
      <trkpt lat="48.26724" lon="-4.26841">
        <ele>56.2</ele>
        <time>2022-05-27T19:27:19Z</time>
      </trkpt>
      <trkpt lat="48.26723" lon="-4.26883">
        <ele>58.3</ele>
        <time>2022-05-27T19:27:27Z</time>
      </trkpt>
      <trkpt lat="48.26722" lon="-4.26902">
        <ele>59.3</ele>
        <time>2022-05-27T19:27:31Z</time>
      </trkpt>
      <trkpt lat="48.26721" lon="-4.26932">
        <ele>60.4</ele>
        <time>2022-05-27T19:27:37Z</time>
      </trkpt>
      <trkpt lat="48.26721" lon="-4.26952">
        <ele>61.3</ele>
        <time>2022-05-27T19:27:41Z</time>
      </trkpt>
      <trkpt lat="48.26724" lon="-4.27013">
        <ele>64.4</ele>
        <time>2022-05-27T19:27:55Z</time>
      </trkpt>
      <trkpt lat="48.26725" lon="-4.27021">
        <ele>64.9</ele>
        <time>2022-05-27T19:27:57Z</time>
      </trkpt>
      <trkpt lat="48.26728" lon="-4.27037">
        <ele>65.7</ele>
        <time>2022-05-27T19:28:01Z</time>
      </trkpt>
      <trkpt lat="48.26732" lon="-4.27061">
        <ele>66.9</ele>
        <time>2022-05-27T19:28:07Z</time>
      </trkpt>
      <trkpt lat="48.26737" lon="-4.27089">
        <ele>68.5</ele>
        <time>2022-05-27T19:28:14Z</time>
      </trkpt>
      <trkpt lat="48.26748" lon="-4.27141">
        <ele>70.9</ele>
        <time>2022-05-27T19:28:25Z</time>
      </trkpt>
      <trkpt lat="48.26751" lon="-4.27155">
        <ele>71.5</ele>
        <time>2022-05-27T19:28:28Z</time>
      </trkpt>
      <trkpt lat="48.26768" lon="-4.27217">
        <ele>74.3</ele>
        <time>2022-05-27T19:28:43Z</time>
      </trkpt>
      <trkpt lat="48.26769" lon="-4.27222">
        <ele>74.5</ele>
        <time>2022-05-27T19:28:44Z</time>
      </trkpt>
      <trkpt lat="48.26788" lon="-4.27284">
        <ele>77.8</ele>
        <time>2022-05-27T19:28:59Z</time>
      </trkpt>
      <trkpt lat="48.26791" lon="-4.27292">
        <ele>78.2</ele>
        <time>2022-05-27T19:29:01Z</time>
      </trkpt>
      <trkpt lat="48.26809" lon="-4.27348">
        <ele>80.9</ele>
        <time>2022-05-27T19:29:15Z</time>
      </trkpt>
      <trkpt lat="48.26812" lon="-4.2736">
        <ele>81.5</ele>
        <time>2022-05-27T19:29:18Z</time>
      </trkpt>
      <trkpt lat="48.26827" lon="-4.27411">
        <ele>83.9</ele>
        <time>2022-05-27T19:29:31Z</time>
      </trkpt>
      <trkpt lat="48.26833" lon="-4.27431">
        <ele>84.9</ele>
        <time>2022-05-27T19:29:36Z</time>
      </trkpt>
      <trkpt lat="48.26846" lon="-4.27474">
        <ele>87.5</ele>
        <time>2022-05-27T19:29:47Z</time>
      </trkpt>
      <trkpt lat="48.26852" lon="-4.27502">
        <ele>89.1</ele>
        <time>2022-05-27T19:29:54Z</time>
      </trkpt>
      <trkpt lat="48.26858" lon="-4.27526">
        <ele>90.6</ele>
        <time>2022-05-27T19:30:00Z</time>
      </trkpt>
      <trkpt lat="48.26861" lon="-4.27542">
        <ele>91.6</ele>
        <time>2022-05-27T19:30:04Z</time>
      </trkpt>
      <trkpt lat="48.26861" lon="-4.27553">
        <ele>92.1</ele>
        <time>2022-05-27T19:30:06Z</time>
      </trkpt>
      <trkpt lat="48.26863" lon="-4.27615">
        <ele>93.7</ele>
        <time>2022-05-27T19:30:18Z</time>
      </trkpt>
      <trkpt lat="48.26855" lon="-4.27683">
        <ele>95.1</ele>
        <time>2022-05-27T19:30:28Z</time>
      </trkpt>
      <trkpt lat="48.2685" lon="-4.27697">
        <ele>95.3</ele>
        <time>2022-05-27T19:30:30Z</time>
      </trkpt>
      <trkpt lat="48.26833" lon="-4.27748">
        <ele>95</ele>
        <time>2022-05-27T19:30:37Z</time>
      </trkpt>
      <trkpt lat="48.26806" lon="-4.27806">
        <ele>94.6</ele>
        <time>2022-05-27T19:30:45Z</time>
      </trkpt>
      <trkpt lat="48.26786" lon="-4.27857">
        <ele>94.4</ele>
        <time>2022-05-27T19:30:51Z</time>
      </trkpt>
      <trkpt lat="48.26778" lon="-4.27884">
        <ele>94.3</ele>
        <time>2022-05-27T19:30:54Z</time>
      </trkpt>
      <trkpt lat="48.26773" lon="-4.27893">
        <ele>94.2</ele>
        <time>2022-05-27T19:30:56Z</time>
      </trkpt>
      <trkpt lat="48.26775" lon="-4.27899">
        <ele>94.1</ele>
        <time>2022-05-27T19:30:57Z</time>
      </trkpt>
      <trkpt lat="48.26775" lon="-4.27905">
        <ele>94</ele>
        <time>2022-05-27T19:30:59Z</time>
      </trkpt>
      <trkpt lat="48.26804" lon="-4.27915">
        <ele>93.6</ele>
        <time>2022-05-27T19:31:06Z</time>
      </trkpt>
      <trkpt lat="48.26821" lon="-4.27922">
        <ele>91.9</ele>
        <time>2022-05-27T19:31:10Z</time>
      </trkpt>
      <trkpt lat="48.26829" lon="-4.27926">
        <ele>91.1</ele>
        <time>2022-05-27T19:31:12Z</time>
      </trkpt>
      <trkpt lat="48.26853" lon="-4.2794">
        <ele>88.4</ele>
        <time>2022-05-27T19:31:18Z</time>
      </trkpt>
      <trkpt lat="48.26865" lon="-4.27962">
        <ele>87.1</ele>
        <time>2022-05-27T19:31:21Z</time>
      </trkpt>
      <trkpt lat="48.26867" lon="-4.27969">
        <ele>86.7</ele>
        <time>2022-05-27T19:31:22Z</time>
      </trkpt>
      <trkpt lat="48.26878" lon="-4.28027">
        <ele>83.7</ele>
        <time>2022-05-27T19:31:30Z</time>
      </trkpt>
      <trkpt lat="48.26883" lon="-4.28049">
        <ele>82.6</ele>
        <time>2022-05-27T19:31:33Z</time>
      </trkpt>
      <trkpt lat="48.26892" lon="-4.28093">
        <ele>80.6</ele>
        <time>2022-05-27T19:31:39Z</time>
      </trkpt>
      <trkpt lat="48.26908" lon="-4.28144">
        <ele>78.6</ele>
        <time>2022-05-27T19:31:45Z</time>
      </trkpt>
      <trkpt lat="48.26915" lon="-4.28161">
        <ele>77.5</ele>
        <time>2022-05-27T19:31:47Z</time>
      </trkpt>
      <trkpt lat="48.26937" lon="-4.28193">
        <ele>75.3</ele>
        <time>2022-05-27T19:31:51Z</time>
      </trkpt>
      <trkpt lat="48.26948" lon="-4.28209">
        <ele>73.8</ele>
        <time>2022-05-27T19:31:53Z</time>
      </trkpt>
      <trkpt lat="48.2697" lon="-4.28238">
        <ele>70.7</ele>
        <time>2022-05-27T19:31:57Z</time>
      </trkpt>
      <trkpt lat="48.26985" lon="-4.28259">
        <ele>68.6</ele>
        <time>2022-05-27T19:32:00Z</time>
      </trkpt>
      <trkpt lat="48.26999" lon="-4.28279">
        <ele>66.6</ele>
        <time>2022-05-27T19:32:03Z</time>
      </trkpt>
      <trkpt lat="48.27019" lon="-4.28302">
        <ele>64.3</ele>
        <time>2022-05-27T19:32:07Z</time>
      </trkpt>
      <trkpt lat="48.27032" lon="-4.28296">
        <ele>63.1</ele>
        <time>2022-05-27T19:32:09Z</time>
      </trkpt>
      <trkpt lat="48.27061" lon="-4.28238">
        <ele>59.4</ele>
        <time>2022-05-27T19:32:16Z</time>
      </trkpt>
      <trkpt lat="48.27073" lon="-4.28217">
        <ele>57.8</ele>
        <time>2022-05-27T19:32:19Z</time>
      </trkpt>
      <trkpt lat="48.27079" lon="-4.28213">
        <ele>57.3</ele>
        <time>2022-05-27T19:32:20Z</time>
      </trkpt>
      <trkpt lat="48.27084" lon="-4.28207">
        <ele>56.9</ele>
        <time>2022-05-27T19:32:21Z</time>
      </trkpt>
      <trkpt lat="48.27109" lon="-4.28204">
        <ele>56.1</ele>
        <time>2022-05-27T19:32:25Z</time>
      </trkpt>
      <trkpt lat="48.27148" lon="-4.28223">
        <ele>54.7</ele>
        <time>2022-05-27T19:32:33Z</time>
      </trkpt>
      <trkpt lat="48.27179" lon="-4.28253">
        <ele>54.3</ele>
        <time>2022-05-27T19:32:39Z</time>
      </trkpt>
      <trkpt lat="48.2719" lon="-4.28264">
        <ele>53.6</ele>
        <time>2022-05-27T19:32:41Z</time>
      </trkpt>
      <trkpt lat="48.27206" lon="-4.28287">
        <ele>52.5</ele>
        <time>2022-05-27T19:32:44Z</time>
      </trkpt>
      <trkpt lat="48.27233" lon="-4.28349">
        <ele>50</ele>
        <time>2022-05-27T19:32:51Z</time>
      </trkpt>
      <trkpt lat="48.27238" lon="-4.28387">
        <ele>48.1</ele>
        <time>2022-05-27T19:32:54Z</time>
      </trkpt>
      <trkpt lat="48.27238" lon="-4.2842">
        <ele>46.9</ele>
        <time>2022-05-27T19:32:56Z</time>
      </trkpt>
      <trkpt lat="48.27236" lon="-4.28434">
        <ele>46.2</ele>
        <time>2022-05-27T19:32:57Z</time>
      </trkpt>
      <trkpt lat="48.27231" lon="-4.28488">
        <ele>43.7</ele>
        <time>2022-05-27T19:33:01Z</time>
      </trkpt>
      <trkpt lat="48.27236" lon="-4.28511">
        <ele>42.4</ele>
        <time>2022-05-27T19:33:03Z</time>
      </trkpt>
      <trkpt lat="48.27236" lon="-4.28567">
        <ele>39.7</ele>
        <time>2022-05-27T19:33:08Z</time>
      </trkpt>
      <trkpt lat="48.27234" lon="-4.28582">
        <ele>39.2</ele>
        <time>2022-05-27T19:33:09Z</time>
      </trkpt>
      <trkpt lat="48.27225" lon="-4.28637">
        <ele>36.8</ele>
        <time>2022-05-27T19:33:13Z</time>
      </trkpt>
      <trkpt lat="48.27223" lon="-4.28654">
        <ele>35.7</ele>
        <time>2022-05-27T19:33:15Z</time>
      </trkpt>
      <trkpt lat="48.27221" lon="-4.28678">
        <ele>34.6</ele>
        <time>2022-05-27T19:33:18Z</time>
      </trkpt>
      <trkpt lat="48.27229" lon="-4.28714">
        <ele>32.8</ele>
        <time>2022-05-27T19:33:23Z</time>
      </trkpt>
      <trkpt lat="48.27234" lon="-4.28723">
        <ele>32.1</ele>
        <time>2022-05-27T19:33:25Z</time>
      </trkpt>
      <trkpt lat="48.27239" lon="-4.28722">
        <ele>31.3</ele>
        <time>2022-05-27T19:33:27Z</time>
      </trkpt>
      <trkpt lat="48.27242" lon="-4.28702">
        <ele>30.8</ele>
        <time>2022-05-27T19:33:28Z</time>
      </trkpt>
      <trkpt lat="48.27259" lon="-4.28643">
        <ele>28</ele>
        <time>2022-05-27T19:33:35Z</time>
      </trkpt>
      <trkpt lat="48.27272" lon="-4.2862">
        <ele>26.8</ele>
        <time>2022-05-27T19:33:38Z</time>
      </trkpt>
      <trkpt lat="48.27294" lon="-4.28598">
        <ele>25.2</ele>
        <time>2022-05-27T19:33:42Z</time>
      </trkpt>
      <trkpt lat="48.27302" lon="-4.28596">
        <ele>24.8</ele>
        <time>2022-05-27T19:33:43Z</time>
      </trkpt>
      <trkpt lat="48.27318" lon="-4.28601">
        <ele>23.9</ele>
        <time>2022-05-27T19:33:45Z</time>
      </trkpt>
      <trkpt lat="48.27323" lon="-4.28605">
        <ele>23.5</ele>
        <time>2022-05-27T19:33:46Z</time>
      </trkpt>
      <trkpt lat="48.27337" lon="-4.28618">
        <ele>21.8</ele>
        <time>2022-05-27T19:33:49Z</time>
      </trkpt>
      <trkpt lat="48.27343" lon="-4.28639">
        <ele>20</ele>
        <time>2022-05-27T19:33:52Z</time>
      </trkpt>
      <trkpt lat="48.27318" lon="-4.28708">
        <ele>17.1</ele>
        <time>2022-05-27T19:33:57Z</time>
      </trkpt>
      <trkpt lat="48.27312" lon="-4.2872">
        <ele>16.7</ele>
        <time>2022-05-27T19:33:58Z</time>
      </trkpt>
      <trkpt lat="48.27303" lon="-4.28746">
        <ele>16.2</ele>
        <time>2022-05-27T19:34:00Z</time>
      </trkpt>
      <trkpt lat="48.27304" lon="-4.28775">
        <ele>15.7</ele>
        <time>2022-05-27T19:34:02Z</time>
      </trkpt>
      <trkpt lat="48.27316" lon="-4.28844">
        <ele>14.3</ele>
        <time>2022-05-27T19:34:08Z</time>
      </trkpt>
      <trkpt lat="48.27319" lon="-4.28865">
        <ele>13.8</ele>
        <time>2022-05-27T19:34:10Z</time>
      </trkpt>
      <trkpt lat="48.27326" lon="-4.28898">
        <ele>12.7</ele>
        <time>2022-05-27T19:34:13Z</time>
      </trkpt>
      <trkpt lat="48.27338" lon="-4.28931">
        <ele>11.7</ele>
        <time>2022-05-27T19:34:16Z</time>
      </trkpt>
      <trkpt lat="48.27339" lon="-4.28943">
        <ele>11.6</ele>
        <time>2022-05-27T19:34:17Z</time>
      </trkpt>
      <trkpt lat="48.27337" lon="-4.28953">
        <ele>11.5</ele>
        <time>2022-05-27T19:34:18Z</time>
      </trkpt>
      <trkpt lat="48.27341" lon="-4.28994">
        <ele>11.1</ele>
        <time>2022-05-27T19:34:22Z</time>
      </trkpt>
      <trkpt lat="48.27343" lon="-4.29023">
        <ele>11.4</ele>
        <time>2022-05-27T19:34:25Z</time>
      </trkpt>
      <trkpt lat="48.27344" lon="-4.29049">
        <ele>11.7</ele>
        <time>2022-05-27T19:34:28Z</time>
      </trkpt>
      <trkpt lat="48.27345" lon="-4.29099">
        <ele>12.4</ele>
        <time>2022-05-27T19:34:34Z</time>
      </trkpt>
      <trkpt lat="48.27349" lon="-4.2917">
        <ele>13.6</ele>
        <time>2022-05-27T19:34:44Z</time>
      </trkpt>
      <trkpt lat="48.2735" lon="-4.29182">
        <ele>13.8</ele>
        <time>2022-05-27T19:34:46Z</time>
      </trkpt>
      <trkpt lat="48.2735" lon="-4.29194">
        <ele>13.7</ele>
        <time>2022-05-27T19:34:48Z</time>
      </trkpt>
      <trkpt lat="48.27348" lon="-4.29224">
        <ele>13.7</ele>
        <time>2022-05-27T19:34:52Z</time>
      </trkpt>
      <trkpt lat="48.27344" lon="-4.29268">
        <ele>13.8</ele>
        <time>2022-05-27T19:34:58Z</time>
      </trkpt>
      <trkpt lat="48.27349" lon="-4.29274">
        <ele>13.8</ele>
        <time>2022-05-27T19:34:59Z</time>
      </trkpt>
      <trkpt lat="48.27362" lon="-4.29283">
        <ele>13.9</ele>
        <time>2022-05-27T19:35:00Z</time>
      </trkpt>
      <trkpt lat="48.27371" lon="-4.29309">
        <ele>14</ele>
        <time>2022-05-27T19:35:03Z</time>
      </trkpt>
      <trkpt lat="48.27371" lon="-4.29332">
        <ele>14</ele>
        <time>2022-05-27T19:35:05Z</time>
      </trkpt>
      <trkpt lat="48.27367" lon="-4.29345">
        <ele>14</ele>
        <time>2022-05-27T19:35:06Z</time>
      </trkpt>
      <trkpt lat="48.27373" lon="-4.29403">
        <ele>14.2</ele>
        <time>2022-05-27T19:35:12Z</time>
      </trkpt>
      <trkpt lat="48.27367" lon="-4.29442">
        <ele>14.4</ele>
        <time>2022-05-27T19:35:16Z</time>
      </trkpt>
      <trkpt lat="48.27366" lon="-4.29448">
        <ele>14.8</ele>
        <time>2022-05-27T19:35:17Z</time>
      </trkpt>
      <trkpt lat="48.27363" lon="-4.29449">
        <ele>15.9</ele>
        <time>2022-05-27T19:35:20Z</time>
      </trkpt>
      <trkpt lat="48.27366" lon="-4.29453">
        <ele>16.6</ele>
        <time>2022-05-27T19:35:22Z</time>
      </trkpt>
      <trkpt lat="48.27362" lon="-4.2946">
        <ele>17.4</ele>
        <time>2022-05-27T19:35:25Z</time>
      </trkpt>
      <trkpt lat="48.27358" lon="-4.29461">
        <ele>17.7</ele>
        <time>2022-05-27T19:35:26Z</time>
      </trkpt>
      <trkpt lat="48.27361" lon="-4.29505">
        <ele>20.6</ele>
        <time>2022-05-27T19:35:37Z</time>
      </trkpt>
      <trkpt lat="48.27361" lon="-4.29517">
        <ele>21.2</ele>
        <time>2022-05-27T19:35:40Z</time>
      </trkpt>
      <trkpt lat="48.27358" lon="-4.29548">
        <ele>23.1</ele>
        <time>2022-05-27T19:35:49Z</time>
      </trkpt>
      <trkpt lat="48.27361" lon="-4.29566">
        <ele>23.9</ele>
        <time>2022-05-27T19:35:53Z</time>
      </trkpt>
      <trkpt lat="48.27369" lon="-4.29617">
        <ele>26.8</ele>
        <time>2022-05-27T19:36:05Z</time>
      </trkpt>
      <trkpt lat="48.27372" lon="-4.2964">
        <ele>28.3</ele>
        <time>2022-05-27T19:36:11Z</time>
      </trkpt>
      <trkpt lat="48.27378" lon="-4.29677">
        <ele>30</ele>
        <time>2022-05-27T19:36:21Z</time>
      </trkpt>
      <trkpt lat="48.27375" lon="-4.29693">
        <ele>30.9</ele>
        <time>2022-05-27T19:36:26Z</time>
      </trkpt>
      <trkpt lat="48.27376" lon="-4.29704">
        <ele>31.4</ele>
        <time>2022-05-27T19:36:29Z</time>
      </trkpt>
      <trkpt lat="48.27379" lon="-4.29743">
        <ele>33.9</ele>
        <time>2022-05-27T19:36:40Z</time>
      </trkpt>
      <trkpt lat="48.2738" lon="-4.29747">
        <ele>34.1</ele>
        <time>2022-05-27T19:36:41Z</time>
      </trkpt>
      <trkpt lat="48.2738" lon="-4.29763">
        <ele>35.2</ele>
        <time>2022-05-27T19:36:46Z</time>
      </trkpt>
      <trkpt lat="48.27381" lon="-4.29767">
        <ele>35.4</ele>
        <time>2022-05-27T19:36:47Z</time>
      </trkpt>
      <trkpt lat="48.27385" lon="-4.29783">
        <ele>36.2</ele>
        <time>2022-05-27T19:36:51Z</time>
      </trkpt>
      <trkpt lat="48.27387" lon="-4.29836">
        <ele>38.9</ele>
        <time>2022-05-27T19:37:04Z</time>
      </trkpt>
      <trkpt lat="48.27388" lon="-4.2984">
        <ele>39.1</ele>
        <time>2022-05-27T19:37:05Z</time>
      </trkpt>
      <trkpt lat="48.27394" lon="-4.2986">
        <ele>40.2</ele>
        <time>2022-05-27T19:37:10Z</time>
      </trkpt>
      <trkpt lat="48.27398" lon="-4.29879">
        <ele>41.1</ele>
        <time>2022-05-27T19:37:14Z</time>
      </trkpt>
      <trkpt lat="48.274" lon="-4.29882">
        <ele>41.3</ele>
        <time>2022-05-27T19:37:15Z</time>
      </trkpt>
      <trkpt lat="48.27402" lon="-4.29913">
        <ele>43.1</ele>
        <time>2022-05-27T19:37:23Z</time>
      </trkpt>
      <trkpt lat="48.27402" lon="-4.29916">
        <ele>43.3</ele>
        <time>2022-05-27T19:37:24Z</time>
      </trkpt>
      <trkpt lat="48.27399" lon="-4.29934">
        <ele>44.3</ele>
        <time>2022-05-27T19:37:28Z</time>
      </trkpt>
      <trkpt lat="48.27409" lon="-4.2998">
        <ele>47.2</ele>
        <time>2022-05-27T19:37:39Z</time>
      </trkpt>
      <trkpt lat="48.27408" lon="-4.29984">
        <ele>47.4</ele>
        <time>2022-05-27T19:37:40Z</time>
      </trkpt>
      <trkpt lat="48.27406" lon="-4.30032">
        <ele>49.8</ele>
        <time>2022-05-27T19:37:51Z</time>
      </trkpt>
      <trkpt lat="48.27405" lon="-4.3005">
        <ele>50.6</ele>
        <time>2022-05-27T19:37:55Z</time>
      </trkpt>
      <trkpt lat="48.27403" lon="-4.30095">
        <ele>52.8</ele>
        <time>2022-05-27T19:38:05Z</time>
      </trkpt>
      <trkpt lat="48.27403" lon="-4.30102">
        <ele>53.3</ele>
        <time>2022-05-27T19:38:07Z</time>
      </trkpt>
      <trkpt lat="48.27406" lon="-4.30126">
        <ele>54.6</ele>
        <time>2022-05-27T19:38:13Z</time>
      </trkpt>
      <trkpt lat="48.27407" lon="-4.3013">
        <ele>54.8</ele>
        <time>2022-05-27T19:38:14Z</time>
      </trkpt>
      <trkpt lat="48.27406" lon="-4.30148">
        <ele>55.9</ele>
        <time>2022-05-27T19:38:19Z</time>
      </trkpt>
      <trkpt lat="48.27404" lon="-4.30166">
        <ele>57</ele>
        <time>2022-05-27T19:38:24Z</time>
      </trkpt>
      <trkpt lat="48.27402" lon="-4.30187">
        <ele>58.9</ele>
        <time>2022-05-27T19:38:30Z</time>
      </trkpt>
      <trkpt lat="48.274" lon="-4.30202">
        <ele>59.6</ele>
        <time>2022-05-27T19:38:34Z</time>
      </trkpt>
      <trkpt lat="48.27398" lon="-4.30214">
        <ele>60.2</ele>
        <time>2022-05-27T19:38:37Z</time>
      </trkpt>
      <trkpt lat="48.27396" lon="-4.30239">
        <ele>61.1</ele>
        <time>2022-05-27T19:38:42Z</time>
      </trkpt>
      <trkpt lat="48.27394" lon="-4.30283">
        <ele>63</ele>
        <time>2022-05-27T19:38:51Z</time>
      </trkpt>
      <trkpt lat="48.27395" lon="-4.30324">
        <ele>64.8</ele>
        <time>2022-05-27T19:39:00Z</time>
      </trkpt>
      <trkpt lat="48.27395" lon="-4.30351">
        <ele>66.4</ele>
        <time>2022-05-27T19:39:06Z</time>
      </trkpt>
      <trkpt lat="48.27396" lon="-4.30377">
        <ele>67.8</ele>
        <time>2022-05-27T19:39:12Z</time>
      </trkpt>
      <trkpt lat="48.27396" lon="-4.30381">
        <ele>68</ele>
        <time>2022-05-27T19:39:13Z</time>
      </trkpt>
      <trkpt lat="48.27398" lon="-4.3045">
        <ele>71.5</ele>
        <time>2022-05-27T19:39:29Z</time>
      </trkpt>
      <trkpt lat="48.27398" lon="-4.30454">
        <ele>71.7</ele>
        <time>2022-05-27T19:39:30Z</time>
      </trkpt>
      <trkpt lat="48.27404" lon="-4.30476">
        <ele>72.6</ele>
        <time>2022-05-27T19:39:35Z</time>
      </trkpt>
      <trkpt lat="48.27434" lon="-4.30523">
        <ele>74.6</ele>
        <time>2022-05-27T19:39:46Z</time>
      </trkpt>
      <trkpt lat="48.27435" lon="-4.30529">
        <ele>74.8</ele>
        <time>2022-05-27T19:39:47Z</time>
      </trkpt>
      <trkpt lat="48.27442" lon="-4.30542">
        <ele>75.3</ele>
        <time>2022-05-27T19:39:50Z</time>
      </trkpt>
      <trkpt lat="48.27446" lon="-4.30553">
        <ele>75.9</ele>
        <time>2022-05-27T19:39:53Z</time>
      </trkpt>
      <trkpt lat="48.27453" lon="-4.30573">
        <ele>77.8</ele>
        <time>2022-05-27T19:39:59Z</time>
      </trkpt>
      <trkpt lat="48.27467" lon="-4.30558">
        <ele>80.7</ele>
        <time>2022-05-27T19:40:11Z</time>
      </trkpt>
      <trkpt lat="48.27477" lon="-4.30546">
        <ele>82.3</ele>
        <time>2022-05-27T19:40:19Z</time>
      </trkpt>
      <trkpt lat="48.27496" lon="-4.30488">
        <ele>84.3</ele>
        <time>2022-05-27T19:40:29Z</time>
      </trkpt>
      <trkpt lat="48.27498" lon="-4.30483">
        <ele>84.4</ele>
        <time>2022-05-27T19:40:30Z</time>
      </trkpt>
      <trkpt lat="48.27513" lon="-4.3047">
        <ele>84.8</ele>
        <time>2022-05-27T19:40:35Z</time>
      </trkpt>
      <trkpt lat="48.27537" lon="-4.30449">
        <ele>86.8</ele>
        <time>2022-05-27T19:40:43Z</time>
      </trkpt>
      <trkpt lat="48.27545" lon="-4.30446">
        <ele>87.9</ele>
        <time>2022-05-27T19:40:47Z</time>
      </trkpt>
      <trkpt lat="48.27571" lon="-4.30439">
        <ele>91.6</ele>
        <time>2022-05-27T19:40:59Z</time>
      </trkpt>
      <trkpt lat="48.27573" lon="-4.30437">
        <ele>91.8</ele>
        <time>2022-05-27T19:41:00Z</time>
      </trkpt>
      <trkpt lat="48.27587" lon="-4.30407">
        <ele>94.5</ele>
        <time>2022-05-27T19:41:11Z</time>
      </trkpt>
      <trkpt lat="48.27597" lon="-4.30387">
        <ele>95.2</ele>
        <time>2022-05-27T19:41:18Z</time>
      </trkpt>
      <trkpt lat="48.27607" lon="-4.3036">
        <ele>95.7</ele>
        <time>2022-05-27T19:41:23Z</time>
      </trkpt>
      <trkpt lat="48.2762" lon="-4.30329">
        <ele>95.7</ele>
        <time>2022-05-27T19:41:29Z</time>
      </trkpt>
      <trkpt lat="48.27638" lon="-4.30304">
        <ele>95.7</ele>
        <time>2022-05-27T19:41:35Z</time>
      </trkpt>
      <trkpt lat="48.27659" lon="-4.30243">
        <ele>95.7</ele>
        <time>2022-05-27T19:41:43Z</time>
      </trkpt>
      <trkpt lat="48.27686" lon="-4.30188">
        <ele>95.6</ele>
        <time>2022-05-27T19:41:52Z</time>
      </trkpt>
      <trkpt lat="48.27697" lon="-4.30175">
        <ele>95.6</ele>
        <time>2022-05-27T19:41:55Z</time>
      </trkpt>
      <trkpt lat="48.27743" lon="-4.30173">
        <ele>95.6</ele>
        <time>2022-05-27T19:42:06Z</time>
      </trkpt>
      <trkpt lat="48.27784" lon="-4.30153">
        <ele>95.6</ele>
        <time>2022-05-27T19:42:18Z</time>
      </trkpt>
      <trkpt lat="48.278" lon="-4.30159">
        <ele>95.4</ele>
        <time>2022-05-27T19:42:21Z</time>
      </trkpt>
      <trkpt lat="48.27832" lon="-4.3017">
        <ele>92.2</ele>
        <time>2022-05-27T19:42:27Z</time>
      </trkpt>
      <trkpt lat="48.27878" lon="-4.30184">
        <ele>89.6</ele>
        <time>2022-05-27T19:42:32Z</time>
      </trkpt>
      <trkpt lat="48.27887" lon="-4.30179">
        <ele>89</ele>
        <time>2022-05-27T19:42:33Z</time>
      </trkpt>
      <trkpt lat="48.27924" lon="-4.30142">
        <ele>86.3</ele>
        <time>2022-05-27T19:42:37Z</time>
      </trkpt>
      <trkpt lat="48.27934" lon="-4.30132">
        <ele>85.6</ele>
        <time>2022-05-27T19:42:38Z</time>
      </trkpt>
      <trkpt lat="48.27955" lon="-4.30114">
        <ele>84.2</ele>
        <time>2022-05-27T19:42:40Z</time>
      </trkpt>
      <trkpt lat="48.27965" lon="-4.30106">
        <ele>83.5</ele>
        <time>2022-05-27T19:42:41Z</time>
      </trkpt>
      <trkpt lat="48.2798" lon="-4.30085">
        <ele>82.1</ele>
        <time>2022-05-27T19:42:43Z</time>
      </trkpt>
      <trkpt lat="48.27985" lon="-4.30076">
        <ele>81.7</ele>
        <time>2022-05-27T19:42:44Z</time>
      </trkpt>
      <trkpt lat="48.28007" lon="-4.3003">
        <ele>82.4</ele>
        <time>2022-05-27T19:42:49Z</time>
      </trkpt>
      <trkpt lat="48.28012" lon="-4.30025">
        <ele>82.6</ele>
        <time>2022-05-27T19:42:50Z</time>
      </trkpt>
      <trkpt lat="48.28041" lon="-4.29996">
        <ele>84.5</ele>
        <time>2022-05-27T19:42:56Z</time>
      </trkpt>
      <trkpt lat="48.28046" lon="-4.29991">
        <ele>84.8</ele>
        <time>2022-05-27T19:42:57Z</time>
      </trkpt>
      <trkpt lat="48.28087" lon="-4.29961">
        <ele>87.9</ele>
        <time>2022-05-27T19:43:08Z</time>
      </trkpt>
      <trkpt lat="48.28108" lon="-4.29947">
        <ele>89.2</ele>
        <time>2022-05-27T19:43:14Z</time>
      </trkpt>
      <trkpt lat="48.28129" lon="-4.29934">
        <ele>90.7</ele>
        <time>2022-05-27T19:43:20Z</time>
      </trkpt>
      <trkpt lat="48.28168" lon="-4.29908">
        <ele>93.5</ele>
        <time>2022-05-27T19:43:32Z</time>
      </trkpt>
      <trkpt lat="48.28171" lon="-4.29906">
        <ele>93.8</ele>
        <time>2022-05-27T19:43:33Z</time>
      </trkpt>
      <trkpt lat="48.28195" lon="-4.29887">
        <ele>95.6</ele>
        <time>2022-05-27T19:43:41Z</time>
      </trkpt>
      <trkpt lat="48.28216" lon="-4.29863">
        <ele>97.5</ele>
        <time>2022-05-27T19:43:49Z</time>
      </trkpt>
      <trkpt lat="48.28232" lon="-4.29846">
        <ele>98.6</ele>
        <time>2022-05-27T19:43:55Z</time>
      </trkpt>
      <trkpt lat="48.28246" lon="-4.29833">
        <ele>99.5</ele>
        <time>2022-05-27T19:44:00Z</time>
      </trkpt>
      <trkpt lat="48.28248" lon="-4.2983">
        <ele>99.7</ele>
        <time>2022-05-27T19:44:01Z</time>
      </trkpt>
      <trkpt lat="48.28251" lon="-4.29829">
        <ele>99.9</ele>
        <time>2022-05-27T19:44:02Z</time>
      </trkpt>
      <trkpt lat="48.28261" lon="-4.29818">
        <ele>100.7</ele>
        <time>2022-05-27T19:44:06Z</time>
      </trkpt>
      <trkpt lat="48.28289" lon="-4.2979">
        <ele>103.6</ele>
        <time>2022-05-27T19:44:17Z</time>
      </trkpt>
      <trkpt lat="48.28306" lon="-4.29776">
        <ele>105.1</ele>
        <time>2022-05-27T19:44:23Z</time>
      </trkpt>
      <trkpt lat="48.28308" lon="-4.29773">
        <ele>105.3</ele>
        <time>2022-05-27T19:44:24Z</time>
      </trkpt>
      <trkpt lat="48.2831" lon="-4.2977">
        <ele>105.5</ele>
        <time>2022-05-27T19:44:25Z</time>
      </trkpt>
      <trkpt lat="48.28313" lon="-4.29769">
        <ele>105.7</ele>
        <time>2022-05-27T19:44:26Z</time>
      </trkpt>
      <trkpt lat="48.28321" lon="-4.29759">
        <ele>106.2</ele>
        <time>2022-05-27T19:44:29Z</time>
      </trkpt>
      <trkpt lat="48.28348" lon="-4.29723">
        <ele>108.1</ele>
        <time>2022-05-27T19:44:40Z</time>
      </trkpt>
      <trkpt lat="48.28365" lon="-4.29697">
        <ele>109.3</ele>
        <time>2022-05-27T19:44:47Z</time>
      </trkpt>
      <trkpt lat="48.28381" lon="-4.29674">
        <ele>109.9</ele>
        <time>2022-05-27T19:44:53Z</time>
      </trkpt>
      <trkpt lat="48.28408" lon="-4.29627">
        <ele>110.9</ele>
        <time>2022-05-27T19:45:03Z</time>
      </trkpt>
      <trkpt lat="48.2844" lon="-4.29576">
        <ele>111.9</ele>
        <time>2022-05-27T19:45:13Z</time>
      </trkpt>
      <trkpt lat="48.28451" lon="-4.29561">
        <ele>112.2</ele>
        <time>2022-05-27T19:45:16Z</time>
      </trkpt>
      <trkpt lat="48.28483" lon="-4.2951">
        <ele>113.2</ele>
        <time>2022-05-27T19:45:27Z</time>
      </trkpt>
      <trkpt lat="48.28489" lon="-4.29502">
        <ele>113.5</ele>
        <time>2022-05-27T19:45:29Z</time>
      </trkpt>
      <trkpt lat="48.28506" lon="-4.29476">
        <ele>114.6</ele>
        <time>2022-05-27T19:45:35Z</time>
      </trkpt>
      <trkpt lat="48.28516" lon="-4.29463">
        <ele>115</ele>
        <time>2022-05-27T19:45:38Z</time>
      </trkpt>
      <trkpt lat="48.28539" lon="-4.29437">
        <ele>116</ele>
        <time>2022-05-27T19:45:45Z</time>
      </trkpt>
      <trkpt lat="48.28549" lon="-4.29423">
        <ele>116.5</ele>
        <time>2022-05-27T19:45:48Z</time>
      </trkpt>
      <trkpt lat="48.28557" lon="-4.29417">
        <ele>116.7</ele>
        <time>2022-05-27T19:45:50Z</time>
      </trkpt>
      <trkpt lat="48.28581" lon="-4.29385">
        <ele>117.9</ele>
        <time>2022-05-27T19:45:58Z</time>
      </trkpt>
      <trkpt lat="48.28591" lon="-4.29373">
        <ele>118.5</ele>
        <time>2022-05-27T19:46:01Z</time>
      </trkpt>
      <trkpt lat="48.28601" lon="-4.2936">
        <ele>119.1</ele>
        <time>2022-05-27T19:46:04Z</time>
      </trkpt>
      <trkpt lat="48.28627" lon="-4.29328">
        <ele>119.6</ele>
        <time>2022-05-27T19:46:12Z</time>
      </trkpt>
      <trkpt lat="48.28642" lon="-4.29311">
        <ele>119.9</ele>
        <time>2022-05-27T19:46:16Z</time>
      </trkpt>
      <trkpt lat="48.28653" lon="-4.29298">
        <ele>119.7</ele>
        <time>2022-05-27T19:46:19Z</time>
      </trkpt>
      <trkpt lat="48.2867" lon="-4.29274">
        <ele>119.5</ele>
        <time>2022-05-27T19:46:24Z</time>
      </trkpt>
      <trkpt lat="48.28693" lon="-4.29248">
        <ele>119.2</ele>
        <time>2022-05-27T19:46:30Z</time>
      </trkpt>
      <trkpt lat="48.28706" lon="-4.29226">
        <ele>119</ele>
        <time>2022-05-27T19:46:34Z</time>
      </trkpt>
      <trkpt lat="48.28719" lon="-4.29208">
        <ele>118.8</ele>
        <time>2022-05-27T19:46:38Z</time>
      </trkpt>
      <trkpt lat="48.28754" lon="-4.29152">
        <ele>118.4</ele>
        <time>2022-05-27T19:46:46Z</time>
      </trkpt>
      <trkpt lat="48.2879" lon="-4.29097">
        <ele>118.1</ele>
        <time>2022-05-27T19:46:53Z</time>
      </trkpt>
      <trkpt lat="48.2883" lon="-4.29049">
        <ele>117.7</ele>
        <time>2022-05-27T19:47:01Z</time>
      </trkpt>
      <trkpt lat="48.28843" lon="-4.29041">
        <ele>117.6</ele>
        <time>2022-05-27T19:47:03Z</time>
      </trkpt>
      <trkpt lat="48.2887" lon="-4.29029">
        <ele>117.3</ele>
        <time>2022-05-27T19:47:08Z</time>
      </trkpt>
      <trkpt lat="48.28885" lon="-4.29021">
        <ele>116.9</ele>
        <time>2022-05-27T19:47:11Z</time>
      </trkpt>
      <trkpt lat="48.28887" lon="-4.29014">
        <ele>116.8</ele>
        <time>2022-05-27T19:47:12Z</time>
      </trkpt>
      <trkpt lat="48.28888" lon="-4.29004">
        <ele>116.6</ele>
        <time>2022-05-27T19:47:13Z</time>
      </trkpt>
      <trkpt lat="48.28915" lon="-4.28947">
        <ele>115.5</ele>
        <time>2022-05-27T19:47:21Z</time>
      </trkpt>
      <trkpt lat="48.28943" lon="-4.28891">
        <ele>114.5</ele>
        <time>2022-05-27T19:47:28Z</time>
      </trkpt>
      <trkpt lat="48.2896" lon="-4.2886">
        <ele>114</ele>
        <time>2022-05-27T19:47:32Z</time>
      </trkpt>
      <trkpt lat="48.28965" lon="-4.28851">
        <ele>113.9</ele>
        <time>2022-05-27T19:47:33Z</time>
      </trkpt>
      <trkpt lat="48.28992" lon="-4.28793">
        <ele>113.6</ele>
        <time>2022-05-27T19:47:40Z</time>
      </trkpt>
      <trkpt lat="48.29021" lon="-4.28736">
        <ele>113.1</ele>
        <time>2022-05-27T19:47:49Z</time>
      </trkpt>
      <trkpt lat="48.29027" lon="-4.28725">
        <ele>113</ele>
        <time>2022-05-27T19:47:51Z</time>
      </trkpt>
      <trkpt lat="48.2903" lon="-4.28705">
        <ele>112.8</ele>
        <time>2022-05-27T19:47:54Z</time>
      </trkpt>
      <trkpt lat="48.29032" lon="-4.28698">
        <ele>112.8</ele>
        <time>2022-05-27T19:47:55Z</time>
      </trkpt>
      <trkpt lat="48.29031" lon="-4.28687">
        <ele>112.7</ele>
        <time>2022-05-27T19:47:56Z</time>
      </trkpt>
      <trkpt lat="48.29046" lon="-4.28645">
        <ele>112.4</ele>
        <time>2022-05-27T19:48:01Z</time>
      </trkpt>
      <trkpt lat="48.2905" lon="-4.28627">
        <ele>111.7</ele>
        <time>2022-05-27T19:48:03Z</time>
      </trkpt>
      <trkpt lat="48.29046" lon="-4.28582">
        <ele>110.4</ele>
        <time>2022-05-27T19:48:07Z</time>
      </trkpt>
      <trkpt lat="48.29043" lon="-4.2856">
        <ele>109.8</ele>
        <time>2022-05-27T19:48:09Z</time>
      </trkpt>
      <trkpt lat="48.2903" lon="-4.28486">
        <ele>108.1</ele>
        <time>2022-05-27T19:48:15Z</time>
      </trkpt>
      <trkpt lat="48.29031" lon="-4.28454">
        <ele>107.2</ele>
        <time>2022-05-27T19:48:18Z</time>
      </trkpt>
      <trkpt lat="48.29033" lon="-4.28443">
        <ele>107</ele>
        <time>2022-05-27T19:48:19Z</time>
      </trkpt>
      <trkpt lat="48.29047" lon="-4.28391">
        <ele>106.6</ele>
        <time>2022-05-27T19:48:24Z</time>
      </trkpt>
      <trkpt lat="48.29057" lon="-4.28319">
        <ele>106</ele>
        <time>2022-05-27T19:48:31Z</time>
      </trkpt>
      <trkpt lat="48.2906" lon="-4.2827">
        <ele>105.7</ele>
        <time>2022-05-27T19:48:36Z</time>
      </trkpt>
      <trkpt lat="48.29061" lon="-4.28261">
        <ele>105.6</ele>
        <time>2022-05-27T19:48:37Z</time>
      </trkpt>
      <trkpt lat="48.29066" lon="-4.28197">
        <ele>104.3</ele>
        <time>2022-05-27T19:48:44Z</time>
      </trkpt>
      <trkpt lat="48.29068" lon="-4.28142">
        <ele>103.4</ele>
        <time>2022-05-27T19:48:49Z</time>
      </trkpt>
      <trkpt lat="48.29069" lon="-4.28122">
        <ele>102.3</ele>
        <time>2022-05-27T19:48:51Z</time>
      </trkpt>
      <trkpt lat="48.29072" lon="-4.28097">
        <ele>100.3</ele>
        <time>2022-05-27T19:48:55Z</time>
      </trkpt>
      <trkpt lat="48.29074" lon="-4.28078">
        <ele>99.2</ele>
        <time>2022-05-27T19:48:58Z</time>
      </trkpt>
      <trkpt lat="48.29077" lon="-4.28058">
        <ele>98.2</ele>
        <time>2022-05-27T19:49:01Z</time>
      </trkpt>
      <trkpt lat="48.29103" lon="-4.28001">
        <ele>96.1</ele>
        <time>2022-05-27T19:49:07Z</time>
      </trkpt>
      <trkpt lat="48.29109" lon="-4.27992">
        <ele>95.6</ele>
        <time>2022-05-27T19:49:08Z</time>
      </trkpt>
      <trkpt lat="48.29131" lon="-4.27969">
        <ele>94</ele>
        <time>2022-05-27T19:49:11Z</time>
      </trkpt>
      <trkpt lat="48.29149" lon="-4.27956">
        <ele>92.8</ele>
        <time>2022-05-27T19:49:13Z</time>
      </trkpt>
      <trkpt lat="48.29157" lon="-4.27947">
        <ele>91.8</ele>
        <time>2022-05-27T19:49:14Z</time>
      </trkpt>
      <trkpt lat="48.29167" lon="-4.2792">
        <ele>89.7</ele>
        <time>2022-05-27T19:49:16Z</time>
      </trkpt>
      <trkpt lat="48.29176" lon="-4.27865">
        <ele>87</ele>
        <time>2022-05-27T19:49:19Z</time>
      </trkpt>
      <trkpt lat="48.29178" lon="-4.27847">
        <ele>86.8</ele>
        <time>2022-05-27T19:49:20Z</time>
      </trkpt>
      <trkpt lat="48.29179" lon="-4.27781">
        <ele>86.3</ele>
        <time>2022-05-27T19:49:24Z</time>
      </trkpt>
      <trkpt lat="48.29169" lon="-4.27713">
        <ele>85.4</ele>
        <time>2022-05-27T19:49:30Z</time>
      </trkpt>
      <trkpt lat="48.29169" lon="-4.27704">
        <ele>85.4</ele>
        <time>2022-05-27T19:49:31Z</time>
      </trkpt>
      <trkpt lat="48.29167" lon="-4.2765">
        <ele>86.7</ele>
        <time>2022-05-27T19:49:37Z</time>
      </trkpt>
      <trkpt lat="48.29166" lon="-4.2764">
        <ele>86.5</ele>
        <time>2022-05-27T19:49:38Z</time>
      </trkpt>
      <trkpt lat="48.29159" lon="-4.27577">
        <ele>85.5</ele>
        <time>2022-05-27T19:49:43Z</time>
      </trkpt>
      <trkpt lat="48.29158" lon="-4.27564">
        <ele>85.1</ele>
        <time>2022-05-27T19:49:44Z</time>
      </trkpt>
      <trkpt lat="48.29156" lon="-4.2754">
        <ele>84.2</ele>
        <time>2022-05-27T19:49:46Z</time>
      </trkpt>
      <trkpt lat="48.29149" lon="-4.27503">
        <ele>83</ele>
        <time>2022-05-27T19:49:49Z</time>
      </trkpt>
      <trkpt lat="48.29138" lon="-4.27425">
        <ele>80.4</ele>
        <time>2022-05-27T19:49:55Z</time>
      </trkpt>
      <trkpt lat="48.29129" lon="-4.27371">
        <ele>78.6</ele>
        <time>2022-05-27T19:49:59Z</time>
      </trkpt>
      <trkpt lat="48.29123" lon="-4.27345">
        <ele>77.7</ele>
        <time>2022-05-27T19:50:01Z</time>
      </trkpt>
      <trkpt lat="48.29115" lon="-4.27307">
        <ele>76</ele>
        <time>2022-05-27T19:50:04Z</time>
      </trkpt>
      <trkpt lat="48.29107" lon="-4.27262">
        <ele>74.3</ele>
        <time>2022-05-27T19:50:07Z</time>
      </trkpt>
      <trkpt lat="48.29106" lon="-4.27247">
        <ele>73.6</ele>
        <time>2022-05-27T19:50:08Z</time>
      </trkpt>
      <trkpt lat="48.29103" lon="-4.2718">
        <ele>70.7</ele>
        <time>2022-05-27T19:50:12Z</time>
      </trkpt>
      <trkpt lat="48.29104" lon="-4.27145">
        <ele>68</ele>
        <time>2022-05-27T19:50:14Z</time>
      </trkpt>
      <trkpt lat="48.29111" lon="-4.27091">
        <ele>64.1</ele>
        <time>2022-05-27T19:50:17Z</time>
      </trkpt>
      <trkpt lat="48.29115" lon="-4.27074">
        <ele>62.7</ele>
        <time>2022-05-27T19:50:18Z</time>
      </trkpt>
      <trkpt lat="48.29122" lon="-4.27041">
        <ele>59.4</ele>
        <time>2022-05-27T19:50:20Z</time>
      </trkpt>
      <trkpt lat="48.29129" lon="-4.26974">
        <ele>52.7</ele>
        <time>2022-05-27T19:50:24Z</time>
      </trkpt>
      <trkpt lat="48.29138" lon="-4.26907">
        <ele>45.2</ele>
        <time>2022-05-27T19:50:28Z</time>
      </trkpt>
      <trkpt lat="48.29143" lon="-4.26874">
        <ele>41.5</ele>
        <time>2022-05-27T19:50:30Z</time>
      </trkpt>
      <trkpt lat="48.29149" lon="-4.26843">
        <ele>38.9</ele>
        <time>2022-05-27T19:50:32Z</time>
      </trkpt>
      <trkpt lat="48.29153" lon="-4.26801">
        <ele>33.7</ele>
        <time>2022-05-27T19:50:36Z</time>
      </trkpt>
      <trkpt lat="48.29156" lon="-4.26772">
        <ele>30.8</ele>
        <time>2022-05-27T19:50:39Z</time>
      </trkpt>
      <trkpt lat="48.29158" lon="-4.26759">
        <ele>28.1</ele>
        <time>2022-05-27T19:50:42Z</time>
      </trkpt>
      <trkpt lat="48.29158" lon="-4.26755">
        <ele>28</ele>
        <time>2022-05-27T19:50:43Z</time>
      </trkpt>
      <trkpt lat="48.29159" lon="-4.26747">
        <ele>27.3</ele>
        <time>2022-05-27T19:50:48Z</time>
      </trkpt>
      <trkpt lat="48.29183" lon="-4.26753">
        <ele>26.5</ele>
        <time>2022-05-27T19:50:54Z</time>
      </trkpt>
      <trkpt lat="48.29204" lon="-4.26758">
        <ele>25.6</ele>
        <time>2022-05-27T19:50:59Z</time>
      </trkpt>
      <trkpt lat="48.29252" lon="-4.26758">
        <ele>24</ele>
        <time>2022-05-27T19:51:09Z</time>
      </trkpt>
      <trkpt lat="48.29271" lon="-4.26759">
        <ele>23.4</ele>
        <time>2022-05-27T19:51:12Z</time>
      </trkpt>
      <trkpt lat="48.29301" lon="-4.26761">
        <ele>22</ele>
        <time>2022-05-27T19:51:17Z</time>
      </trkpt>
      <trkpt lat="48.29338" lon="-4.26766">
        <ele>20.1</ele>
        <time>2022-05-27T19:51:24Z</time>
      </trkpt>
      <trkpt lat="48.29342" lon="-4.26767">
        <ele>19.9</ele>
        <time>2022-05-27T19:51:25Z</time>
      </trkpt>
      <trkpt lat="48.29377" lon="-4.26789">
        <ele>23.4</ele>
        <time>2022-05-27T19:51:31Z</time>
      </trkpt>
      <trkpt lat="48.29377" lon="-4.26789">
        <ele>23.4</ele>
        <time>2022-05-28T02:20:18Z</time>
      </trkpt>
      <trkpt lat="48.29403" lon="-4.26807">
        <ele>27.3</ele>
        <time>2022-05-28T02:20:21Z</time>
      </trkpt>
      <trkpt lat="48.29416" lon="-4.26842">
        <ele>30</ele>
        <time>2022-05-28T02:20:30Z</time>
      </trkpt>
      <trkpt lat="48.29416" lon="-4.26842">
        <ele>30</ele>
        <time>2022-05-28T04:55:22Z</time>
      </trkpt>
      <trkpt lat="48.29426" lon="-4.26877">
        <ele>32.8</ele>
        <time>2022-05-28T04:55:27Z</time>
      </trkpt>
      <trkpt lat="48.29429" lon="-4.26896">
        <ele>32.8</ele>
        <time>2022-05-28T04:55:31Z</time>
      </trkpt>
      <trkpt lat="48.29434" lon="-4.26925">
        <ele>33.6</ele>
        <time>2022-05-28T04:55:37Z</time>
      </trkpt>
      <trkpt lat="48.29437" lon="-4.26943">
        <ele>34.5</ele>
        <time>2022-05-28T04:55:41Z</time>
      </trkpt>
      <trkpt lat="48.29464" lon="-4.27005">
        <ele>37.6</ele>
        <time>2022-05-28T04:55:58Z</time>
      </trkpt>
      <trkpt lat="48.29464" lon="-4.27005">
        <ele>37.6</ele>
        <time>2022-05-28T04:56:42Z</time>
      </trkpt>
      <trkpt lat="48.29487" lon="-4.27061">
        <ele>40.3</ele>
        <time>2022-05-28T04:56:42Z</time>
      </trkpt>
      <trkpt lat="48.29508" lon="-4.27107">
        <ele>41.6</ele>
        <time>2022-05-28T04:56:59Z</time>
      </trkpt>
      <trkpt lat="48.29513" lon="-4.27118">
        <ele>42.7</ele>
        <time>2022-05-28T04:57:03Z</time>
      </trkpt>
      <trkpt lat="48.29514" lon="-4.27122">
        <ele>43.3</ele>
        <time>2022-05-28T04:57:05Z</time>
      </trkpt>
      <trkpt lat="48.29519" lon="-4.27136">
        <ele>44.7</ele>
        <time>2022-05-28T04:57:11Z</time>
      </trkpt>
      <trkpt lat="48.29523" lon="-4.27149">
        <ele>46.5</ele>
        <time>2022-05-28T04:57:17Z</time>
      </trkpt>
      <trkpt lat="48.29532" lon="-4.27175">
        <ele>50</ele>
        <time>2022-05-28T04:57:29Z</time>
      </trkpt>
      <trkpt lat="48.29534" lon="-4.2718">
        <ele>50.5</ele>
        <time>2022-05-28T04:57:31Z</time>
      </trkpt>
      <trkpt lat="48.29534" lon="-4.27203">
        <ele>53.3</ele>
        <time>2022-05-28T04:57:41Z</time>
      </trkpt>
      <trkpt lat="48.29534" lon="-4.27231">
        <ele>56.1</ele>
        <time>2022-05-28T04:57:53Z</time>
      </trkpt>
      <trkpt lat="48.29534" lon="-4.2725">
        <ele>57.9</ele>
        <time>2022-05-28T04:58:01Z</time>
      </trkpt>
      <trkpt lat="48.29529" lon="-4.27264">
        <ele>58.9</ele>
        <time>2022-05-28T04:58:06Z</time>
      </trkpt>
      <trkpt lat="48.29525" lon="-4.27278">
        <ele>60</ele>
        <time>2022-05-28T04:58:11Z</time>
      </trkpt>
      <trkpt lat="48.29514" lon="-4.27329">
        <ele>63.8</ele>
        <time>2022-05-28T04:58:29Z</time>
      </trkpt>
      <trkpt lat="48.29496" lon="-4.27376">
        <ele>67.1</ele>
        <time>2022-05-28T04:58:47Z</time>
      </trkpt>
      <trkpt lat="48.29491" lon="-4.27389">
        <ele>67.9</ele>
        <time>2022-05-28T04:58:52Z</time>
      </trkpt>
      <trkpt lat="48.29479" lon="-4.27435">
        <ele>70.2</ele>
        <time>2022-05-28T04:59:05Z</time>
      </trkpt>
      <trkpt lat="48.29474" lon="-4.27457">
        <ele>70.9</ele>
        <time>2022-05-28T04:59:11Z</time>
      </trkpt>
      <trkpt lat="48.29463" lon="-4.2751">
        <ele>72.3</ele>
        <time>2022-05-28T04:59:23Z</time>
      </trkpt>
      <trkpt lat="48.2946" lon="-4.27523">
        <ele>72.8</ele>
        <time>2022-05-28T04:59:26Z</time>
      </trkpt>
      <trkpt lat="48.29455" lon="-4.27555">
        <ele>74.3</ele>
        <time>2022-05-28T04:59:35Z</time>
      </trkpt>
      <trkpt lat="48.29448" lon="-4.2759">
        <ele>76.8</ele>
        <time>2022-05-28T04:59:45Z</time>
      </trkpt>
      <trkpt lat="48.29449" lon="-4.27597">
        <ele>77.3</ele>
        <time>2022-05-28T04:59:47Z</time>
      </trkpt>
      <trkpt lat="48.29454" lon="-4.27637">
        <ele>80.2</ele>
        <time>2022-05-28T04:59:59Z</time>
      </trkpt>
      <trkpt lat="48.29457" lon="-4.2766">
        <ele>81.8</ele>
        <time>2022-05-28T05:00:06Z</time>
      </trkpt>
      <trkpt lat="48.29457" lon="-4.27694">
        <ele>84.2</ele>
        <time>2022-05-28T05:00:17Z</time>
      </trkpt>
      <trkpt lat="48.29458" lon="-4.27728">
        <ele>86.2</ele>
        <time>2022-05-28T05:00:28Z</time>
      </trkpt>
      <trkpt lat="48.29457" lon="-4.27748">
        <ele>87.5</ele>
        <time>2022-05-28T05:00:35Z</time>
      </trkpt>
      <trkpt lat="48.29454" lon="-4.27798">
        <ele>91.9</ele>
        <time>2022-05-28T05:00:52Z</time>
      </trkpt>
      <trkpt lat="48.29454" lon="-4.278">
        <ele>92.2</ele>
        <time>2022-05-28T05:00:53Z</time>
      </trkpt>
      <trkpt lat="48.29449" lon="-4.27832">
        <ele>95.2</ele>
        <time>2022-05-28T05:01:05Z</time>
      </trkpt>
      <trkpt lat="48.29446" lon="-4.27848">
        <ele>96.7</ele>
        <time>2022-05-28T05:01:11Z</time>
      </trkpt>
      <trkpt lat="48.29444" lon="-4.27864">
        <ele>98.1</ele>
        <time>2022-05-28T05:01:17Z</time>
      </trkpt>
      <trkpt lat="48.29443" lon="-4.27866">
        <ele>98.4</ele>
        <time>2022-05-28T05:01:18Z</time>
      </trkpt>
      <trkpt lat="48.29433" lon="-4.27916">
        <ele>102.2</ele>
        <time>2022-05-28T05:01:35Z</time>
      </trkpt>
      <trkpt lat="48.29429" lon="-4.27931">
        <ele>102.9</ele>
        <time>2022-05-28T05:01:40Z</time>
      </trkpt>
      <trkpt lat="48.29406" lon="-4.27991">
        <ele>105.6</ele>
        <time>2022-05-28T05:01:58Z</time>
      </trkpt>
      <trkpt lat="48.29404" lon="-4.27995">
        <ele>105.8</ele>
        <time>2022-05-28T05:01:59Z</time>
      </trkpt>
      <trkpt lat="48.29377" lon="-4.28045">
        <ele>107.7</ele>
        <time>2022-05-28T05:02:13Z</time>
      </trkpt>
      <trkpt lat="48.29371" lon="-4.28058">
        <ele>108.2</ele>
        <time>2022-05-28T05:02:17Z</time>
      </trkpt>
      <trkpt lat="48.2935" lon="-4.281">
        <ele>110.5</ele>
        <time>2022-05-28T05:02:30Z</time>
      </trkpt>
      <trkpt lat="48.29344" lon="-4.28118">
        <ele>111.3</ele>
        <time>2022-05-28T05:02:35Z</time>
      </trkpt>
      <trkpt lat="48.29328" lon="-4.2816">
        <ele>113.5</ele>
        <time>2022-05-28T05:02:47Z</time>
      </trkpt>
      <trkpt lat="48.29313" lon="-4.2819">
        <ele>115.1</ele>
        <time>2022-05-28T05:02:56Z</time>
      </trkpt>
      <trkpt lat="48.29301" lon="-4.28216">
        <ele>116.5</ele>
        <time>2022-05-28T05:03:04Z</time>
      </trkpt>
      <trkpt lat="48.29286" lon="-4.28244">
        <ele>118.1</ele>
        <time>2022-05-28T05:03:13Z</time>
      </trkpt>
      <trkpt lat="48.29281" lon="-4.28257">
        <ele>118.6</ele>
        <time>2022-05-28T05:03:17Z</time>
      </trkpt>
      <trkpt lat="48.29289" lon="-4.28295">
        <ele>119.6</ele>
        <time>2022-05-28T05:03:25Z</time>
      </trkpt>
      <trkpt lat="48.29294" lon="-4.28324">
        <ele>120.2</ele>
        <time>2022-05-28T05:03:31Z</time>
      </trkpt>
      <trkpt lat="48.29291" lon="-4.28379">
        <ele>121.4</ele>
        <time>2022-05-28T05:03:43Z</time>
      </trkpt>
      <trkpt lat="48.2929" lon="-4.28393">
        <ele>121.9</ele>
        <time>2022-05-28T05:03:46Z</time>
      </trkpt>
      <trkpt lat="48.29288" lon="-4.28461">
        <ele>124.4</ele>
        <time>2022-05-28T05:04:01Z</time>
      </trkpt>
      <trkpt lat="48.29295" lon="-4.28492">
        <ele>124.6</ele>
        <time>2022-05-28T05:04:07Z</time>
      </trkpt>
      <trkpt lat="48.29305" lon="-4.28529">
        <ele>124.6</ele>
        <time>2022-05-28T05:04:14Z</time>
      </trkpt>
      <trkpt lat="48.29317" lon="-4.28557">
        <ele>124.5</ele>
        <time>2022-05-28T05:04:19Z</time>
      </trkpt>
      <trkpt lat="48.29325" lon="-4.2857">
        <ele>124.5</ele>
        <time>2022-05-28T05:04:22Z</time>
      </trkpt>
      <trkpt lat="48.29324" lon="-4.28641">
        <ele>124.4</ele>
        <time>2022-05-28T05:04:37Z</time>
      </trkpt>
      <trkpt lat="48.29325" lon="-4.28698">
        <ele>125.7</ele>
        <time>2022-05-28T05:04:48Z</time>
      </trkpt>
      <trkpt lat="48.29325" lon="-4.28713">
        <ele>125.6</ele>
        <time>2022-05-28T05:04:51Z</time>
      </trkpt>
      <trkpt lat="48.29319" lon="-4.28785">
        <ele>125.5</ele>
        <time>2022-05-28T05:05:04Z</time>
      </trkpt>
      <trkpt lat="48.29319" lon="-4.28857">
        <ele>125.4</ele>
        <time>2022-05-28T05:05:17Z</time>
      </trkpt>
      <trkpt lat="48.29319" lon="-4.28931">
        <ele>125.3</ele>
        <time>2022-05-28T05:05:28Z</time>
      </trkpt>
      <trkpt lat="48.29326" lon="-4.28998">
        <ele>125.2</ele>
        <time>2022-05-28T05:05:38Z</time>
      </trkpt>
      <trkpt lat="48.29334" lon="-4.2907">
        <ele>125.2</ele>
        <time>2022-05-28T05:05:48Z</time>
      </trkpt>
      <trkpt lat="48.29341" lon="-4.29135">
        <ele>125.1</ele>
        <time>2022-05-28T05:05:56Z</time>
      </trkpt>
      <trkpt lat="48.29341" lon="-4.29143">
        <ele>125</ele>
        <time>2022-05-28T05:05:57Z</time>
      </trkpt>
      <trkpt lat="48.29334" lon="-4.29204">
        <ele>124.2</ele>
        <time>2022-05-28T05:06:05Z</time>
      </trkpt>
      <trkpt lat="48.2932" lon="-4.29255">
        <ele>123.4</ele>
        <time>2022-05-28T05:06:14Z</time>
      </trkpt>
      <trkpt lat="48.29316" lon="-4.29272">
        <ele>123.7</ele>
        <time>2022-05-28T05:06:17Z</time>
      </trkpt>
      <trkpt lat="48.29309" lon="-4.29341">
        <ele>124.7</ele>
        <time>2022-05-28T05:06:29Z</time>
      </trkpt>
      <trkpt lat="48.29304" lon="-4.2941">
        <ele>125.6</ele>
        <time>2022-05-28T05:06:40Z</time>
      </trkpt>
      <trkpt lat="48.29298" lon="-4.29473">
        <ele>126.4</ele>
        <time>2022-05-28T05:06:50Z</time>
      </trkpt>
      <trkpt lat="48.29297" lon="-4.2948">
        <ele>126.5</ele>
        <time>2022-05-28T05:06:51Z</time>
      </trkpt>
      <trkpt lat="48.29299" lon="-4.29549">
        <ele>126.6</ele>
        <time>2022-05-28T05:07:02Z</time>
      </trkpt>
      <trkpt lat="48.29304" lon="-4.2962">
        <ele>126.8</ele>
        <time>2022-05-28T05:07:12Z</time>
      </trkpt>
      <trkpt lat="48.29302" lon="-4.29688">
        <ele>127</ele>
        <time>2022-05-28T05:07:22Z</time>
      </trkpt>
      <trkpt lat="48.29301" lon="-4.29757">
        <ele>127.1</ele>
        <time>2022-05-28T05:07:33Z</time>
      </trkpt>
      <trkpt lat="48.29303" lon="-4.29829">
        <ele>127.3</ele>
        <time>2022-05-28T05:07:45Z</time>
      </trkpt>
      <trkpt lat="48.29326" lon="-4.29884">
        <ele>127.5</ele>
        <time>2022-05-28T05:07:54Z</time>
      </trkpt>
      <trkpt lat="48.29329" lon="-4.29951">
        <ele>127.7</ele>
        <time>2022-05-28T05:08:04Z</time>
      </trkpt>
      <trkpt lat="48.29314" lon="-4.30015">
        <ele>127.8</ele>
        <time>2022-05-28T05:08:15Z</time>
      </trkpt>
      <trkpt lat="48.29291" lon="-4.30064">
        <ele>128</ele>
        <time>2022-05-28T05:08:25Z</time>
      </trkpt>
      <trkpt lat="48.29264" lon="-4.3008">
        <ele>128.2</ele>
        <time>2022-05-28T05:08:33Z</time>
      </trkpt>
      <trkpt lat="48.29247" lon="-4.30092">
        <ele>128.8</ele>
        <time>2022-05-28T05:08:38Z</time>
      </trkpt>
      <trkpt lat="48.29238" lon="-4.30132">
        <ele>129.6</ele>
        <time>2022-05-28T05:08:45Z</time>
      </trkpt>
      <trkpt lat="48.29232" lon="-4.3016">
        <ele>129.1</ele>
        <time>2022-05-28T05:08:50Z</time>
      </trkpt>
      <trkpt lat="48.29227" lon="-4.30213">
        <ele>128.3</ele>
        <time>2022-05-28T05:08:59Z</time>
      </trkpt>
      <trkpt lat="48.29226" lon="-4.3023">
        <ele>128</ele>
        <time>2022-05-28T05:09:02Z</time>
      </trkpt>
      <trkpt lat="48.29219" lon="-4.30304">
        <ele>127.1</ele>
        <time>2022-05-28T05:09:12Z</time>
      </trkpt>
      <trkpt lat="48.29217" lon="-4.30376">
        <ele>126.4</ele>
        <time>2022-05-28T05:09:20Z</time>
      </trkpt>
      <trkpt lat="48.29211" lon="-4.30441">
        <ele>125.5</ele>
        <time>2022-05-28T05:09:27Z</time>
      </trkpt>
      <trkpt lat="48.29211" lon="-4.3049">
        <ele>124.8</ele>
        <time>2022-05-28T05:09:32Z</time>
      </trkpt>
      <trkpt lat="48.29211" lon="-4.3051">
        <ele>124.4</ele>
        <time>2022-05-28T05:09:34Z</time>
      </trkpt>
      <trkpt lat="48.29208" lon="-4.30549">
        <ele>123.7</ele>
        <time>2022-05-28T05:09:38Z</time>
      </trkpt>
      <trkpt lat="48.29207" lon="-4.30559">
        <ele>123.7</ele>
        <time>2022-05-28T05:09:39Z</time>
      </trkpt>
      <trkpt lat="48.29203" lon="-4.30605">
        <ele>123.4</ele>
        <time>2022-05-28T05:09:44Z</time>
      </trkpt>
      <trkpt lat="48.292" lon="-4.30632">
        <ele>123.2</ele>
        <time>2022-05-28T05:09:47Z</time>
      </trkpt>
      <trkpt lat="48.29194" lon="-4.307">
        <ele>122.6</ele>
        <time>2022-05-28T05:09:55Z</time>
      </trkpt>
      <trkpt lat="48.29185" lon="-4.30767">
        <ele>122</ele>
        <time>2022-05-28T05:10:03Z</time>
      </trkpt>
      <trkpt lat="48.29161" lon="-4.30826">
        <ele>121.4</ele>
        <time>2022-05-28T05:10:11Z</time>
      </trkpt>
      <trkpt lat="48.2914" lon="-4.30894">
        <ele>120.7</ele>
        <time>2022-05-28T05:10:19Z</time>
      </trkpt>
      <trkpt lat="48.29123" lon="-4.30967">
        <ele>120.1</ele>
        <time>2022-05-28T05:10:27Z</time>
      </trkpt>
      <trkpt lat="48.2911" lon="-4.31016">
        <ele>119.7</ele>
        <time>2022-05-28T05:10:32Z</time>
      </trkpt>
      <trkpt lat="48.29105" lon="-4.31035">
        <ele>119.4</ele>
        <time>2022-05-28T05:10:34Z</time>
      </trkpt>
      <trkpt lat="48.29097" lon="-4.31065">
        <ele>118.9</ele>
        <time>2022-05-28T05:10:37Z</time>
      </trkpt>
      <trkpt lat="48.29095" lon="-4.3113">
        <ele>117.6</ele>
        <time>2022-05-28T05:10:44Z</time>
      </trkpt>
      <trkpt lat="48.29086" lon="-4.31143">
        <ele>116.6</ele>
        <time>2022-05-28T05:10:50Z</time>
      </trkpt>
      <trkpt lat="48.29036" lon="-4.31149">
        <ele>113</ele>
        <time>2022-05-28T05:11:02Z</time>
      </trkpt>
      <trkpt lat="48.2899" lon="-4.31132">
        <ele>109.6</ele>
        <time>2022-05-28T05:11:10Z</time>
      </trkpt>
      <trkpt lat="48.28978" lon="-4.31123">
        <ele>108.3</ele>
        <time>2022-05-28T05:11:13Z</time>
      </trkpt>
      <trkpt lat="48.2895" lon="-4.31102">
        <ele>105.9</ele>
        <time>2022-05-28T05:11:20Z</time>
      </trkpt>
      <trkpt lat="48.28927" lon="-4.31101">
        <ele>104.1</ele>
        <time>2022-05-28T05:11:25Z</time>
      </trkpt>
      <trkpt lat="48.28904" lon="-4.31101">
        <ele>101.9</ele>
        <time>2022-05-28T05:11:30Z</time>
      </trkpt>
      <trkpt lat="48.28879" lon="-4.31105">
        <ele>99.3</ele>
        <time>2022-05-28T05:11:36Z</time>
      </trkpt>
      <trkpt lat="48.28857" lon="-4.31108">
        <ele>97.4</ele>
        <time>2022-05-28T05:11:41Z</time>
      </trkpt>
      <trkpt lat="48.28848" lon="-4.31112">
        <ele>96.7</ele>
        <time>2022-05-28T05:11:43Z</time>
      </trkpt>
      <trkpt lat="48.28825" lon="-4.31129">
        <ele>94.9</ele>
        <time>2022-05-28T05:11:48Z</time>
      </trkpt>
      <trkpt lat="48.28807" lon="-4.31143">
        <ele>94.2</ele>
        <time>2022-05-28T05:11:52Z</time>
      </trkpt>
      <trkpt lat="48.28769" lon="-4.31168">
        <ele>92.8</ele>
        <time>2022-05-28T05:12:00Z</time>
      </trkpt>
      <trkpt lat="48.28765" lon="-4.31171">
        <ele>92.5</ele>
        <time>2022-05-28T05:12:01Z</time>
      </trkpt>
      <trkpt lat="48.28725" lon="-4.31191">
        <ele>89.3</ele>
        <time>2022-05-28T05:12:12Z</time>
      </trkpt>
      <trkpt lat="48.28702" lon="-4.31183">
        <ele>87</ele>
        <time>2022-05-28T05:12:19Z</time>
      </trkpt>
      <trkpt lat="48.28699" lon="-4.31171">
        <ele>86</ele>
        <time>2022-05-28T05:12:22Z</time>
      </trkpt>
      <trkpt lat="48.28699" lon="-4.31162">
        <ele>85.4</ele>
        <time>2022-05-28T05:12:24Z</time>
      </trkpt>
      <trkpt lat="48.287" lon="-4.31133">
        <ele>86.2</ele>
        <time>2022-05-28T05:12:30Z</time>
      </trkpt>
      <trkpt lat="48.287" lon="-4.31114">
        <ele>88</ele>
        <time>2022-05-28T05:12:36Z</time>
      </trkpt>
      <trkpt lat="48.287" lon="-4.31095">
        <ele>89.8</ele>
        <time>2022-05-28T05:12:42Z</time>
      </trkpt>
      <trkpt lat="48.287" lon="-4.31064">
        <ele>92.7</ele>
        <time>2022-05-28T05:12:52Z</time>
      </trkpt>
      <trkpt lat="48.28698" lon="-4.31059">
        <ele>93.3</ele>
        <time>2022-05-28T05:12:54Z</time>
      </trkpt>
      <trkpt lat="48.2869" lon="-4.31042">
        <ele>95.3</ele>
        <time>2022-05-28T05:13:01Z</time>
      </trkpt>
      <trkpt lat="48.2868" lon="-4.31032">
        <ele>96.6</ele>
        <time>2022-05-28T05:13:06Z</time>
      </trkpt>
      <trkpt lat="48.2867" lon="-4.31022">
        <ele>97.4</ele>
        <time>2022-05-28T05:13:11Z</time>
      </trkpt>
      <trkpt lat="48.28653" lon="-4.31003">
        <ele>99.1</ele>
        <time>2022-05-28T05:13:20Z</time>
      </trkpt>
      <trkpt lat="48.2864" lon="-4.30981">
        <ele>100.7</ele>
        <time>2022-05-28T05:13:29Z</time>
      </trkpt>
      <trkpt lat="48.28622" lon="-4.30951">
        <ele>103</ele>
        <time>2022-05-28T05:13:41Z</time>
      </trkpt>
      <trkpt lat="48.28621" lon="-4.3093">
        <ele>104.1</ele>
        <time>2022-05-28T05:13:47Z</time>
      </trkpt>
      <trkpt lat="48.28619" lon="-4.30882">
        <ele>106.2</ele>
        <time>2022-05-28T05:14:01Z</time>
      </trkpt>
      <trkpt lat="48.28618" lon="-4.3084">
        <ele>107.6</ele>
        <time>2022-05-28T05:14:11Z</time>
      </trkpt>
      <trkpt lat="48.28617" lon="-4.30827">
        <ele>107.8</ele>
        <time>2022-05-28T05:14:14Z</time>
      </trkpt>
      <trkpt lat="48.28612" lon="-4.30809">
        <ele>108.1</ele>
        <time>2022-05-28T05:14:18Z</time>
      </trkpt>
      <trkpt lat="48.28611" lon="-4.30788">
        <ele>108.4</ele>
        <time>2022-05-28T05:14:22Z</time>
      </trkpt>
      <trkpt lat="48.28603" lon="-4.30779">
        <ele>108.6</ele>
        <time>2022-05-28T05:14:25Z</time>
      </trkpt>
      <trkpt lat="48.28574" lon="-4.3078">
        <ele>109.4</ele>
        <time>2022-05-28T05:14:35Z</time>
      </trkpt>
      <trkpt lat="48.28557" lon="-4.30781">
        <ele>110.7</ele>
        <time>2022-05-28T05:14:41Z</time>
      </trkpt>
      <trkpt lat="48.28524" lon="-4.30778">
        <ele>113.2</ele>
        <time>2022-05-28T05:14:53Z</time>
      </trkpt>
      <trkpt lat="48.2851" lon="-4.30777">
        <ele>114.3</ele>
        <time>2022-05-28T05:14:58Z</time>
      </trkpt>
      <trkpt lat="48.28482" lon="-4.30772">
        <ele>117.1</ele>
        <time>2022-05-28T05:15:11Z</time>
      </trkpt>
      <trkpt lat="48.28469" lon="-4.3077">
        <ele>119.2</ele>
        <time>2022-05-28T05:15:17Z</time>
      </trkpt>
      <trkpt lat="48.28465" lon="-4.30769">
        <ele>119.8</ele>
        <time>2022-05-28T05:15:19Z</time>
      </trkpt>
      <trkpt lat="48.2845" lon="-4.30752">
        <ele>122.7</ele>
        <time>2022-05-28T05:15:29Z</time>
      </trkpt>
      <trkpt lat="48.28431" lon="-4.30732">
        <ele>125.6</ele>
        <time>2022-05-28T05:15:41Z</time>
      </trkpt>
      <trkpt lat="48.28428" lon="-4.30728">
        <ele>125.9</ele>
        <time>2022-05-28T05:15:43Z</time>
      </trkpt>
      <trkpt lat="48.28397" lon="-4.30692">
        <ele>128.1</ele>
        <time>2022-05-28T05:15:59Z</time>
      </trkpt>
      <trkpt lat="48.28389" lon="-4.30682">
        <ele>128.6</ele>
        <time>2022-05-28T05:16:03Z</time>
      </trkpt>
      <trkpt lat="48.28386" lon="-4.30677">
        <ele>128.9</ele>
        <time>2022-05-28T05:16:05Z</time>
      </trkpt>
      <trkpt lat="48.28376" lon="-4.30661">
        <ele>129.3</ele>
        <time>2022-05-28T05:16:11Z</time>
      </trkpt>
      <trkpt lat="48.28365" lon="-4.30645">
        <ele>129.5</ele>
        <time>2022-05-28T05:16:18Z</time>
      </trkpt>
      <trkpt lat="48.2835" lon="-4.30712">
        <ele>130</ele>
        <time>2022-05-28T05:16:35Z</time>
      </trkpt>
      <trkpt lat="48.28346" lon="-4.30781">
        <ele>130.3</ele>
        <time>2022-05-28T05:16:46Z</time>
      </trkpt>
      <trkpt lat="48.28332" lon="-4.3085">
        <ele>130.5</ele>
        <time>2022-05-28T05:16:57Z</time>
      </trkpt>
      <trkpt lat="48.28313" lon="-4.30916">
        <ele>130.8</ele>
        <time>2022-05-28T05:17:08Z</time>
      </trkpt>
      <trkpt lat="48.28289" lon="-4.30976">
        <ele>131.1</ele>
        <time>2022-05-28T05:17:19Z</time>
      </trkpt>
      <trkpt lat="48.28268" lon="-4.31039">
        <ele>131.4</ele>
        <time>2022-05-28T05:17:29Z</time>
      </trkpt>
      <trkpt lat="48.28244" lon="-4.31103">
        <ele>131.7</ele>
        <time>2022-05-28T05:17:40Z</time>
      </trkpt>
      <trkpt lat="48.28223" lon="-4.31169">
        <ele>132</ele>
        <time>2022-05-28T05:17:51Z</time>
      </trkpt>
      <trkpt lat="48.28207" lon="-4.31232">
        <ele>132.2</ele>
        <time>2022-05-28T05:18:01Z</time>
      </trkpt>
      <trkpt lat="48.28189" lon="-4.31294">
        <ele>132.5</ele>
        <time>2022-05-28T05:18:12Z</time>
      </trkpt>
      <trkpt lat="48.28181" lon="-4.31314">
        <ele>132.6</ele>
        <time>2022-05-28T05:18:16Z</time>
      </trkpt>
      <trkpt lat="48.28172" lon="-4.31317">
        <ele>132.7</ele>
        <time>2022-05-28T05:18:19Z</time>
      </trkpt>
      <trkpt lat="48.28128" lon="-4.31288">
        <ele>133.1</ele>
        <time>2022-05-28T05:18:33Z</time>
      </trkpt>
      <trkpt lat="48.28087" lon="-4.31252">
        <ele>134.4</ele>
        <time>2022-05-28T05:18:44Z</time>
      </trkpt>
      <trkpt lat="48.28068" lon="-4.31233">
        <ele>135</ele>
        <time>2022-05-28T05:18:49Z</time>
      </trkpt>
      <trkpt lat="48.2806" lon="-4.31235">
        <ele>135.2</ele>
        <time>2022-05-28T05:18:51Z</time>
      </trkpt>
      <trkpt lat="48.28054" lon="-4.31245">
        <ele>135.1</ele>
        <time>2022-05-28T05:18:53Z</time>
      </trkpt>
      <trkpt lat="48.28031" lon="-4.3131">
        <ele>134.7</ele>
        <time>2022-05-28T05:19:03Z</time>
      </trkpt>
      <trkpt lat="48.28004" lon="-4.3137">
        <ele>134.2</ele>
        <time>2022-05-28T05:19:12Z</time>
      </trkpt>
      <trkpt lat="48.27995" lon="-4.31375">
        <ele>134.2</ele>
        <time>2022-05-28T05:19:14Z</time>
      </trkpt>
      <trkpt lat="48.27951" lon="-4.31348">
        <ele>133.7</ele>
        <time>2022-05-28T05:19:23Z</time>
      </trkpt>
      <trkpt lat="48.27907" lon="-4.31318">
        <ele>133.2</ele>
        <time>2022-05-28T05:19:34Z</time>
      </trkpt>
      <trkpt lat="48.27859" lon="-4.31287">
        <ele>132.8</ele>
        <time>2022-05-28T05:19:44Z</time>
      </trkpt>
      <trkpt lat="48.27812" lon="-4.31264">
        <ele>132.4</ele>
        <time>2022-05-28T05:19:51Z</time>
      </trkpt>
      <trkpt lat="48.27788" lon="-4.3125">
        <ele>132.2</ele>
        <time>2022-05-28T05:19:54Z</time>
      </trkpt>
      <trkpt lat="48.27765" lon="-4.31237">
        <ele>131.3</ele>
        <time>2022-05-28T05:19:57Z</time>
      </trkpt>
      <trkpt lat="48.27719" lon="-4.31213">
        <ele>129.6</ele>
        <time>2022-05-28T05:20:03Z</time>
      </trkpt>
      <trkpt lat="48.27687" lon="-4.31198">
        <ele>128.4</ele>
        <time>2022-05-28T05:20:07Z</time>
      </trkpt>
      <trkpt lat="48.27679" lon="-4.31197">
        <ele>128.1</ele>
        <time>2022-05-28T05:20:08Z</time>
      </trkpt>
      <trkpt lat="48.27648" lon="-4.31169">
        <ele>126.9</ele>
        <time>2022-05-28T05:20:12Z</time>
      </trkpt>
      <trkpt lat="48.27633" lon="-4.31155">
        <ele>126</ele>
        <time>2022-05-28T05:20:14Z</time>
      </trkpt>
      <trkpt lat="48.27604" lon="-4.31125">
        <ele>123.9</ele>
        <time>2022-05-28T05:20:19Z</time>
      </trkpt>
      <trkpt lat="48.27591" lon="-4.31131">
        <ele>123.1</ele>
        <time>2022-05-28T05:20:21Z</time>
      </trkpt>
      <trkpt lat="48.27587" lon="-4.31154">
        <ele>121.9</ele>
        <time>2022-05-28T05:20:24Z</time>
      </trkpt>
      <trkpt lat="48.27579" lon="-4.312">
        <ele>122</ele>
        <time>2022-05-28T05:20:30Z</time>
      </trkpt>
      <trkpt lat="48.27571" lon="-4.31251">
        <ele>121.7</ele>
        <time>2022-05-28T05:20:36Z</time>
      </trkpt>
      <trkpt lat="48.27568" lon="-4.31268">
        <ele>121.5</ele>
        <time>2022-05-28T05:20:38Z</time>
      </trkpt>
      <trkpt lat="48.2755" lon="-4.31332">
        <ele>120.7</ele>
        <time>2022-05-28T05:20:45Z</time>
      </trkpt>
      <trkpt lat="48.27545" lon="-4.31352">
        <ele>120.3</ele>
        <time>2022-05-28T05:20:48Z</time>
      </trkpt>
      <trkpt lat="48.27538" lon="-4.31359">
        <ele>120</ele>
        <time>2022-05-28T05:20:51Z</time>
      </trkpt>
      <trkpt lat="48.27521" lon="-4.31357">
        <ele>119.6</ele>
        <time>2022-05-28T05:20:54Z</time>
      </trkpt>
      <trkpt lat="48.27493" lon="-4.31353">
        <ele>117.6</ele>
        <time>2022-05-28T05:20:59Z</time>
      </trkpt>
      <trkpt lat="48.27488" lon="-4.31352">
        <ele>117.2</ele>
        <time>2022-05-28T05:21:00Z</time>
      </trkpt>
      <trkpt lat="48.27478" lon="-4.31349">
        <ele>116.4</ele>
        <time>2022-05-28T05:21:02Z</time>
      </trkpt>
      <trkpt lat="48.27451" lon="-4.31323">
        <ele>113.9</ele>
        <time>2022-05-28T05:21:08Z</time>
      </trkpt>
      <trkpt lat="48.27436" lon="-4.31315">
        <ele>112.3</ele>
        <time>2022-05-28T05:21:12Z</time>
      </trkpt>
      <trkpt lat="48.27431" lon="-4.31309">
        <ele>111.4</ele>
        <time>2022-05-28T05:21:14Z</time>
      </trkpt>
      <trkpt lat="48.27428" lon="-4.31307">
        <ele>111</ele>
        <time>2022-05-28T05:21:15Z</time>
      </trkpt>
      <trkpt lat="48.27423" lon="-4.31298">
        <ele>110.1</ele>
        <time>2022-05-28T05:21:17Z</time>
      </trkpt>
      <trkpt lat="48.27397" lon="-4.31284">
        <ele>107.6</ele>
        <time>2022-05-28T05:21:23Z</time>
      </trkpt>
      <trkpt lat="48.27394" lon="-4.31284">
        <ele>107.1</ele>
        <time>2022-05-28T05:21:24Z</time>
      </trkpt>
      <trkpt lat="48.27388" lon="-4.31283">
        <ele>105.9</ele>
        <time>2022-05-28T05:21:26Z</time>
      </trkpt>
      <trkpt lat="48.2736" lon="-4.31299">
        <ele>103.3</ele>
        <time>2022-05-28T05:21:30Z</time>
      </trkpt>
      <trkpt lat="48.27353" lon="-4.31302">
        <ele>102.5</ele>
        <time>2022-05-28T05:21:31Z</time>
      </trkpt>
      <trkpt lat="48.27325" lon="-4.31306">
        <ele>99.2</ele>
        <time>2022-05-28T05:21:35Z</time>
      </trkpt>
      <trkpt lat="48.27303" lon="-4.31308">
        <ele>97.4</ele>
        <time>2022-05-28T05:21:38Z</time>
      </trkpt>
      <trkpt lat="48.27283" lon="-4.313">
        <ele>95.6</ele>
        <time>2022-05-28T05:21:41Z</time>
      </trkpt>
      <trkpt lat="48.27255" lon="-4.3129">
        <ele>92.8</ele>
        <time>2022-05-28T05:21:45Z</time>
      </trkpt>
      <trkpt lat="48.2725" lon="-4.31287">
        <ele>92.1</ele>
        <time>2022-05-28T05:21:46Z</time>
      </trkpt>
      <trkpt lat="48.27222" lon="-4.31275">
        <ele>88.4</ele>
        <time>2022-05-28T05:21:51Z</time>
      </trkpt>
      <trkpt lat="48.27211" lon="-4.3127">
        <ele>87</ele>
        <time>2022-05-28T05:21:53Z</time>
      </trkpt>
      <trkpt lat="48.27191" lon="-4.31259">
        <ele>84.2</ele>
        <time>2022-05-28T05:21:57Z</time>
      </trkpt>
      <trkpt lat="48.27167" lon="-4.31246">
        <ele>80</ele>
        <time>2022-05-28T05:22:02Z</time>
      </trkpt>
      <trkpt lat="48.27161" lon="-4.31241">
        <ele>79.2</ele>
        <time>2022-05-28T05:22:03Z</time>
      </trkpt>
      <trkpt lat="48.27125" lon="-4.31214">
        <ele>74.8</ele>
        <time>2022-05-28T05:22:09Z</time>
      </trkpt>
      <trkpt lat="48.27093" lon="-4.31178">
        <ele>68.9</ele>
        <time>2022-05-28T05:22:15Z</time>
      </trkpt>
      <trkpt lat="48.27082" lon="-4.31165">
        <ele>67.3</ele>
        <time>2022-05-28T05:22:17Z</time>
      </trkpt>
      <trkpt lat="48.27056" lon="-4.31135">
        <ele>64.4</ele>
        <time>2022-05-28T05:22:21Z</time>
      </trkpt>
      <trkpt lat="48.27043" lon="-4.31121">
        <ele>64.2</ele>
        <time>2022-05-28T05:22:23Z</time>
      </trkpt>
      <trkpt lat="48.27002" lon="-4.31092">
        <ele>63.3</ele>
        <time>2022-05-28T05:22:32Z</time>
      </trkpt>
      <trkpt lat="48.27" lon="-4.31092">
        <ele>63.4</ele>
        <time>2022-05-28T05:22:33Z</time>
      </trkpt>
      <trkpt lat="48.26987" lon="-4.31088">
        <ele>65.2</ele>
        <time>2022-05-28T05:22:39Z</time>
      </trkpt>
      <trkpt lat="48.2696" lon="-4.31079">
        <ele>69.3</ele>
        <time>2022-05-28T05:22:51Z</time>
      </trkpt>
      <trkpt lat="48.26958" lon="-4.31078">
        <ele>69.6</ele>
        <time>2022-05-28T05:22:52Z</time>
      </trkpt>
      <trkpt lat="48.26956" lon="-4.31075">
        <ele>70.2</ele>
        <time>2022-05-28T05:22:54Z</time>
      </trkpt>
      <trkpt lat="48.26941" lon="-4.31073">
        <ele>72.6</ele>
        <time>2022-05-28T05:23:02Z</time>
      </trkpt>
      <trkpt lat="48.2694" lon="-4.31072">
        <ele>72.9</ele>
        <time>2022-05-28T05:23:03Z</time>
      </trkpt>
      <trkpt lat="48.26921" lon="-4.31065">
        <ele>76.5</ele>
        <time>2022-05-28T05:23:15Z</time>
      </trkpt>
      <trkpt lat="48.26902" lon="-4.31058">
        <ele>79.8</ele>
        <time>2022-05-28T05:23:27Z</time>
      </trkpt>
      <trkpt lat="48.26897" lon="-4.31056">
        <ele>80.5</ele>
        <time>2022-05-28T05:23:30Z</time>
      </trkpt>
      <trkpt lat="48.26883" lon="-4.31051">
        <ele>82.6</ele>
        <time>2022-05-28T05:23:39Z</time>
      </trkpt>
      <trkpt lat="48.26875" lon="-4.31049">
        <ele>83.8</ele>
        <time>2022-05-28T05:23:44Z</time>
      </trkpt>
      <trkpt lat="48.26867" lon="-4.31046">
        <ele>85.1</ele>
        <time>2022-05-28T05:23:49Z</time>
      </trkpt>
      <trkpt lat="48.26858" lon="-4.31043">
        <ele>87</ele>
        <time>2022-05-28T05:23:55Z</time>
      </trkpt>
      <trkpt lat="48.26853" lon="-4.31042">
        <ele>87.8</ele>
        <time>2022-05-28T05:23:58Z</time>
      </trkpt>
      <trkpt lat="48.26838" lon="-4.31035">
        <ele>90.3</ele>
        <time>2022-05-28T05:24:07Z</time>
      </trkpt>
      <trkpt lat="48.26817" lon="-4.31025">
        <ele>93.3</ele>
        <time>2022-05-28T05:24:19Z</time>
      </trkpt>
      <trkpt lat="48.2681" lon="-4.31022">
        <ele>94.4</ele>
        <time>2022-05-28T05:24:23Z</time>
      </trkpt>
      <trkpt lat="48.26807" lon="-4.3102">
        <ele>95</ele>
        <time>2022-05-28T05:24:25Z</time>
      </trkpt>
      <trkpt lat="48.26797" lon="-4.31015">
        <ele>96.1</ele>
        <time>2022-05-28T05:24:31Z</time>
      </trkpt>
      <trkpt lat="48.26768" lon="-4.31">
        <ele>100</ele>
        <time>2022-05-28T05:24:49Z</time>
      </trkpt>
      <trkpt lat="48.26766" lon="-4.30999">
        <ele>100.3</ele>
        <time>2022-05-28T05:24:50Z</time>
      </trkpt>
      <trkpt lat="48.26739" lon="-4.30984">
        <ele>104.2</ele>
        <time>2022-05-28T05:25:07Z</time>
      </trkpt>
      <trkpt lat="48.26722" lon="-4.30974">
        <ele>106.6</ele>
        <time>2022-05-28T05:25:18Z</time>
      </trkpt>
      <trkpt lat="48.2672" lon="-4.30973">
        <ele>106.8</ele>
        <time>2022-05-28T05:25:19Z</time>
      </trkpt>
      <trkpt lat="48.2671" lon="-4.30967">
        <ele>108.2</ele>
        <time>2022-05-28T05:25:25Z</time>
      </trkpt>
      <trkpt lat="48.26679" lon="-4.30948">
        <ele>111.4</ele>
        <time>2022-05-28T05:25:43Z</time>
      </trkpt>
      <trkpt lat="48.26677" lon="-4.30947">
        <ele>111.6</ele>
        <time>2022-05-28T05:25:44Z</time>
      </trkpt>
      <trkpt lat="48.2664" lon="-4.30925">
        <ele>114.7</ele>
        <time>2022-05-28T05:26:00Z</time>
      </trkpt>
      <trkpt lat="48.26633" lon="-4.3092">
        <ele>115.1</ele>
        <time>2022-05-28T05:26:03Z</time>
      </trkpt>
      <trkpt lat="48.26612" lon="-4.30901">
        <ele>116.1</ele>
        <time>2022-05-28T05:26:11Z</time>
      </trkpt>
      <trkpt lat="48.26597" lon="-4.30886">
        <ele>117.2</ele>
        <time>2022-05-28T05:26:17Z</time>
      </trkpt>
      <trkpt lat="48.26595" lon="-4.30884">
        <ele>117.2</ele>
        <time>2022-05-28T05:26:18Z</time>
      </trkpt>
      <trkpt lat="48.26566" lon="-4.30852">
        <ele>117.9</ele>
        <time>2022-05-28T05:26:29Z</time>
      </trkpt>
      <trkpt lat="48.26575" lon="-4.3078">
        <ele>115.2</ele>
        <time>2022-05-28T05:26:40Z</time>
      </trkpt>
      <trkpt lat="48.26576" lon="-4.30775">
        <ele>115</ele>
        <time>2022-05-28T05:26:41Z</time>
      </trkpt>
      <trkpt lat="48.26581" lon="-4.30743">
        <ele>115</ele>
        <time>2022-05-28T05:26:47Z</time>
      </trkpt>
      <trkpt lat="48.26587" lon="-4.30711">
        <ele>116.1</ele>
        <time>2022-05-28T05:26:53Z</time>
      </trkpt>
      <trkpt lat="48.26593" lon="-4.30685">
        <ele>117</ele>
        <time>2022-05-28T05:26:59Z</time>
      </trkpt>
      <trkpt lat="48.26602" lon="-4.30647">
        <ele>118.4</ele>
        <time>2022-05-28T05:27:08Z</time>
      </trkpt>
      <trkpt lat="48.26607" lon="-4.30614">
        <ele>119.5</ele>
        <time>2022-05-28T05:27:15Z</time>
      </trkpt>
      <trkpt lat="48.26602" lon="-4.30599">
        <ele>120.1</ele>
        <time>2022-05-28T05:27:19Z</time>
      </trkpt>
      <trkpt lat="48.26591" lon="-4.30591">
        <ele>120.7</ele>
        <time>2022-05-28T05:27:23Z</time>
      </trkpt>
      <trkpt lat="48.26561" lon="-4.30568">
        <ele>122.3</ele>
        <time>2022-05-28T05:27:35Z</time>
      </trkpt>
      <trkpt lat="48.26528" lon="-4.30545">
        <ele>123.9</ele>
        <time>2022-05-28T05:27:47Z</time>
      </trkpt>
      <trkpt lat="48.26518" lon="-4.30537">
        <ele>124.4</ele>
        <time>2022-05-28T05:27:51Z</time>
      </trkpt>
      <trkpt lat="48.26512" lon="-4.30532">
        <ele>124.7</ele>
        <time>2022-05-28T05:27:53Z</time>
      </trkpt>
      <trkpt lat="48.26475" lon="-4.30504">
        <ele>126.3</ele>
        <time>2022-05-28T05:28:06Z</time>
      </trkpt>
      <trkpt lat="48.26436" lon="-4.30475">
        <ele>128.3</ele>
        <time>2022-05-28T05:28:22Z</time>
      </trkpt>
      <trkpt lat="48.26434" lon="-4.30474">
        <ele>128.4</ele>
        <time>2022-05-28T05:28:23Z</time>
      </trkpt>
      <trkpt lat="48.26409" lon="-4.30486">
        <ele>129.4</ele>
        <time>2022-05-28T05:28:31Z</time>
      </trkpt>
      <trkpt lat="48.26398" lon="-4.30481">
        <ele>129.8</ele>
        <time>2022-05-28T05:28:34Z</time>
      </trkpt>
      <trkpt lat="48.26377" lon="-4.30472">
        <ele>130.7</ele>
        <time>2022-05-28T05:28:40Z</time>
      </trkpt>
      <trkpt lat="48.26363" lon="-4.30465">
        <ele>131.4</ele>
        <time>2022-05-28T05:28:44Z</time>
      </trkpt>
      <trkpt lat="48.26318" lon="-4.30439">
        <ele>133.5</ele>
        <time>2022-05-28T05:28:57Z</time>
      </trkpt>
      <trkpt lat="48.26291" lon="-4.3043">
        <ele>134.7</ele>
        <time>2022-05-28T05:29:04Z</time>
      </trkpt>
      <trkpt lat="48.26272" lon="-4.30423">
        <ele>135.1</ele>
        <time>2022-05-28T05:29:09Z</time>
      </trkpt>
      <trkpt lat="48.26242" lon="-4.30413">
        <ele>135.7</ele>
        <time>2022-05-28T05:29:16Z</time>
      </trkpt>
      <trkpt lat="48.26225" lon="-4.30407">
        <ele>135.7</ele>
        <time>2022-05-28T05:29:20Z</time>
      </trkpt>
      <trkpt lat="48.26181" lon="-4.30391">
        <ele>135.7</ele>
        <time>2022-05-28T05:29:30Z</time>
      </trkpt>
      <trkpt lat="48.26132" lon="-4.30376">
        <ele>135.6</ele>
        <time>2022-05-28T05:29:40Z</time>
      </trkpt>
      <trkpt lat="48.26083" lon="-4.30366">
        <ele>135.6</ele>
        <time>2022-05-28T05:29:49Z</time>
      </trkpt>
      <trkpt lat="48.26038" lon="-4.30355">
        <ele>135.6</ele>
        <time>2022-05-28T05:29:57Z</time>
      </trkpt>
      <trkpt lat="48.25993" lon="-4.30348">
        <ele>135.6</ele>
        <time>2022-05-28T05:30:05Z</time>
      </trkpt>
      <trkpt lat="48.25944" lon="-4.30344">
        <ele>135.5</ele>
        <time>2022-05-28T05:30:14Z</time>
      </trkpt>
      <trkpt lat="48.25894" lon="-4.30345">
        <ele>135.5</ele>
        <time>2022-05-28T05:30:23Z</time>
      </trkpt>
      <trkpt lat="48.25844" lon="-4.30351">
        <ele>135.5</ele>
        <time>2022-05-28T05:30:31Z</time>
      </trkpt>
      <trkpt lat="48.25797" lon="-4.30365">
        <ele>135.3</ele>
        <time>2022-05-28T05:30:38Z</time>
      </trkpt>
      <trkpt lat="48.25754" lon="-4.30383">
        <ele>133.1</ele>
        <time>2022-05-28T05:30:44Z</time>
      </trkpt>
      <trkpt lat="48.25748" lon="-4.30386">
        <ele>132.8</ele>
        <time>2022-05-28T05:30:45Z</time>
      </trkpt>
      <trkpt lat="48.25734" lon="-4.30391">
        <ele>132</ele>
        <time>2022-05-28T05:30:48Z</time>
      </trkpt>
      <trkpt lat="48.25727" lon="-4.30382">
        <ele>131.5</ele>
        <time>2022-05-28T05:30:50Z</time>
      </trkpt>
      <trkpt lat="48.25724" lon="-4.30367">
        <ele>131</ele>
        <time>2022-05-28T05:30:52Z</time>
      </trkpt>
      <trkpt lat="48.25725" lon="-4.30334">
        <ele>130.1</ele>
        <time>2022-05-28T05:30:56Z</time>
      </trkpt>
      <trkpt lat="48.25726" lon="-4.30292">
        <ele>129.8</ele>
        <time>2022-05-28T05:31:01Z</time>
      </trkpt>
      <trkpt lat="48.25726" lon="-4.30283">
        <ele>129.8</ele>
        <time>2022-05-28T05:31:02Z</time>
      </trkpt>
      <trkpt lat="48.25726" lon="-4.30219">
        <ele>129.6</ele>
        <time>2022-05-28T05:31:09Z</time>
      </trkpt>
      <trkpt lat="48.25727" lon="-4.30146">
        <ele>129.4</ele>
        <time>2022-05-28T05:31:17Z</time>
      </trkpt>
      <trkpt lat="48.2573" lon="-4.30074">
        <ele>129.3</ele>
        <time>2022-05-28T05:31:25Z</time>
      </trkpt>
      <trkpt lat="48.25726" lon="-4.30003">
        <ele>129.1</ele>
        <time>2022-05-28T05:31:33Z</time>
      </trkpt>
      <trkpt lat="48.25728" lon="-4.29934">
        <ele>128.9</ele>
        <time>2022-05-28T05:31:39Z</time>
      </trkpt>
      <trkpt lat="48.25727" lon="-4.29865">
        <ele>128.8</ele>
        <time>2022-05-28T05:31:46Z</time>
      </trkpt>
      <trkpt lat="48.25729" lon="-4.29797">
        <ele>128.6</ele>
        <time>2022-05-28T05:31:53Z</time>
      </trkpt>
      <trkpt lat="48.25734" lon="-4.29729">
        <ele>128.5</ele>
        <time>2022-05-28T05:32:00Z</time>
      </trkpt>
      <trkpt lat="48.2575" lon="-4.29658">
        <ele>128.3</ele>
        <time>2022-05-28T05:32:08Z</time>
      </trkpt>
      <trkpt lat="48.25773" lon="-4.29589">
        <ele>128.1</ele>
        <time>2022-05-28T05:32:16Z</time>
      </trkpt>
      <trkpt lat="48.25797" lon="-4.29526">
        <ele>128</ele>
        <time>2022-05-28T05:32:23Z</time>
      </trkpt>
      <trkpt lat="48.25821" lon="-4.2946">
        <ele>127.8</ele>
        <time>2022-05-28T05:32:30Z</time>
      </trkpt>
      <trkpt lat="48.25824" lon="-4.29451">
        <ele>127.7</ele>
        <time>2022-05-28T05:32:31Z</time>
      </trkpt>
      <trkpt lat="48.25844" lon="-4.29394">
        <ele>127.1</ele>
        <time>2022-05-28T05:32:37Z</time>
      </trkpt>
      <trkpt lat="48.25859" lon="-4.29334">
        <ele>126.4</ele>
        <time>2022-05-28T05:32:43Z</time>
      </trkpt>
      <trkpt lat="48.25861" lon="-4.29323">
        <ele>126.2</ele>
        <time>2022-05-28T05:32:44Z</time>
      </trkpt>
      <trkpt lat="48.2587" lon="-4.29269">
        <ele>125.2</ele>
        <time>2022-05-28T05:32:49Z</time>
      </trkpt>
      <trkpt lat="48.25871" lon="-4.29257">
        <ele>124.9</ele>
        <time>2022-05-28T05:32:50Z</time>
      </trkpt>
      <trkpt lat="48.25872" lon="-4.29184">
        <ele>123</ele>
        <time>2022-05-28T05:32:56Z</time>
      </trkpt>
      <trkpt lat="48.25869" lon="-4.29172">
        <ele>122.7</ele>
        <time>2022-05-28T05:32:57Z</time>
      </trkpt>
      <trkpt lat="48.25865" lon="-4.29159">
        <ele>122.4</ele>
        <time>2022-05-28T05:32:58Z</time>
      </trkpt>
      <trkpt lat="48.25862" lon="-4.29119">
        <ele>121.4</ele>
        <time>2022-05-28T05:33:01Z</time>
      </trkpt>
      <trkpt lat="48.25859" lon="-4.29082">
        <ele>120.5</ele>
        <time>2022-05-28T05:33:04Z</time>
      </trkpt>
      <trkpt lat="48.25841" lon="-4.29038">
        <ele>118.6</ele>
        <time>2022-05-28T05:33:10Z</time>
      </trkpt>
      <trkpt lat="48.25834" lon="-4.29041">
        <ele>118.2</ele>
        <time>2022-05-28T05:33:11Z</time>
      </trkpt>
      <trkpt lat="48.25836" lon="-4.29041">
        <ele>117.7</ele>
        <time>2022-05-28T05:33:13Z</time>
      </trkpt>
      <trkpt lat="48.25842" lon="-4.29046">
        <ele>116.7</ele>
        <time>2022-05-28T05:33:25Z</time>
      </trkpt>
      <trkpt lat="48.25847" lon="-4.29045">
        <ele>115.2</ele>
        <time>2022-05-28T05:33:32Z</time>
      </trkpt>
      <trkpt lat="48.25859" lon="-4.28977">
        <ele>113.7</ele>
        <time>2022-05-28T05:33:39Z</time>
      </trkpt>
      <trkpt lat="48.25864" lon="-4.28945">
        <ele>113</ele>
        <time>2022-05-28T05:33:42Z</time>
      </trkpt>
      <trkpt lat="48.25865" lon="-4.28934">
        <ele>112.6</ele>
        <time>2022-05-28T05:33:43Z</time>
      </trkpt>
      <trkpt lat="48.25866" lon="-4.28913">
        <ele>110.9</ele>
        <time>2022-05-28T05:33:45Z</time>
      </trkpt>
      <trkpt lat="48.25865" lon="-4.28888">
        <ele>108.3</ele>
        <time>2022-05-28T05:33:48Z</time>
      </trkpt>
      <trkpt lat="48.25864" lon="-4.28882">
        <ele>107.5</ele>
        <time>2022-05-28T05:33:49Z</time>
      </trkpt>
      <trkpt lat="48.25862" lon="-4.28876">
        <ele>106.7</ele>
        <time>2022-05-28T05:33:50Z</time>
      </trkpt>
      <trkpt lat="48.25857" lon="-4.28872">
        <ele>106</ele>
        <time>2022-05-28T05:33:51Z</time>
      </trkpt>
      <trkpt lat="48.25845" lon="-4.28866">
        <ele>103.8</ele>
        <time>2022-05-28T05:33:54Z</time>
      </trkpt>
      <trkpt lat="48.25844" lon="-4.28862">
        <ele>103.1</ele>
        <time>2022-05-28T05:33:55Z</time>
      </trkpt>
      <trkpt lat="48.25843" lon="-4.28855">
        <ele>102.7</ele>
        <time>2022-05-28T05:33:56Z</time>
      </trkpt>
      <trkpt lat="48.25845" lon="-4.28843">
        <ele>102.2</ele>
        <time>2022-05-28T05:33:57Z</time>
      </trkpt>
      <trkpt lat="48.25881" lon="-4.28795">
        <ele>99</ele>
        <time>2022-05-28T05:34:04Z</time>
      </trkpt>
      <trkpt lat="48.25892" lon="-4.28778">
        <ele>98.1</ele>
        <time>2022-05-28T05:34:06Z</time>
      </trkpt>
      <trkpt lat="48.25897" lon="-4.28766">
        <ele>97.6</ele>
        <time>2022-05-28T05:34:07Z</time>
      </trkpt>
      <trkpt lat="48.25918" lon="-4.28709">
        <ele>94.4</ele>
        <time>2022-05-28T05:34:12Z</time>
      </trkpt>
      <trkpt lat="48.25928" lon="-4.2867">
        <ele>92.5</ele>
        <time>2022-05-28T05:34:15Z</time>
      </trkpt>
      <trkpt lat="48.25931" lon="-4.28643">
        <ele>91.4</ele>
        <time>2022-05-28T05:34:17Z</time>
      </trkpt>
      <trkpt lat="48.25935" lon="-4.28617">
        <ele>91.1</ele>
        <time>2022-05-28T05:34:19Z</time>
      </trkpt>
      <trkpt lat="48.25941" lon="-4.28567">
        <ele>90.4</ele>
        <time>2022-05-28T05:34:23Z</time>
      </trkpt>
      <trkpt lat="48.25941" lon="-4.28556">
        <ele>90.2</ele>
        <time>2022-05-28T05:34:24Z</time>
      </trkpt>
      <trkpt lat="48.25943" lon="-4.28545">
        <ele>90.1</ele>
        <time>2022-05-28T05:34:25Z</time>
      </trkpt>
      <trkpt lat="48.25943" lon="-4.28535">
        <ele>89.9</ele>
        <time>2022-05-28T05:34:26Z</time>
      </trkpt>
      <trkpt lat="48.25944" lon="-4.28526">
        <ele>89.7</ele>
        <time>2022-05-28T05:34:27Z</time>
      </trkpt>
      <trkpt lat="48.25944" lon="-4.28518">
        <ele>89.7</ele>
        <time>2022-05-28T05:34:28Z</time>
      </trkpt>
      <trkpt lat="48.25945" lon="-4.28485">
        <ele>90.5</ele>
        <time>2022-05-28T05:34:32Z</time>
      </trkpt>
      <trkpt lat="48.25946" lon="-4.28478">
        <ele>90.7</ele>
        <time>2022-05-28T05:34:33Z</time>
      </trkpt>
      <trkpt lat="48.25937" lon="-4.28429">
        <ele>90.5</ele>
        <time>2022-05-28T05:34:39Z</time>
      </trkpt>
      <trkpt lat="48.25933" lon="-4.28403">
        <ele>89.4</ele>
        <time>2022-05-28T05:34:42Z</time>
      </trkpt>
      <trkpt lat="48.25918" lon="-4.28337">
        <ele>87.2</ele>
        <time>2022-05-28T05:34:48Z</time>
      </trkpt>
      <trkpt lat="48.25905" lon="-4.28239">
        <ele>81.6</ele>
        <time>2022-05-28T05:34:53Z</time>
      </trkpt>
      <trkpt lat="48.25905" lon="-4.28239">
        <ele>81.6</ele>
        <time>2022-05-28T05:35:36Z</time>
      </trkpt>
      <trkpt lat="48.25899" lon="-4.28178">
        <ele>77.3</ele>
        <time>2022-05-28T05:35:39Z</time>
      </trkpt>
      <trkpt lat="48.25896" lon="-4.2813">
        <ele>74.8</ele>
        <time>2022-05-28T05:35:43Z</time>
      </trkpt>
      <trkpt lat="48.25896" lon="-4.28104">
        <ele>73.6</ele>
        <time>2022-05-28T05:35:45Z</time>
      </trkpt>
      <trkpt lat="48.25895" lon="-4.28051">
        <ele>71.5</ele>
        <time>2022-05-28T05:35:49Z</time>
      </trkpt>
      <trkpt lat="48.25901" lon="-4.2798">
        <ele>68.9</ele>
        <time>2022-05-28T05:35:54Z</time>
      </trkpt>
      <trkpt lat="48.25904" lon="-4.27953">
        <ele>67.8</ele>
        <time>2022-05-28T05:35:56Z</time>
      </trkpt>
      <trkpt lat="48.25907" lon="-4.27941">
        <ele>67.4</ele>
        <time>2022-05-28T05:35:57Z</time>
      </trkpt>
      <trkpt lat="48.25922" lon="-4.27881">
        <ele>66.5</ele>
        <time>2022-05-28T05:36:02Z</time>
      </trkpt>
      <trkpt lat="48.25933" lon="-4.27841">
        <ele>65.7</ele>
        <time>2022-05-28T05:36:06Z</time>
      </trkpt>
      <trkpt lat="48.25936" lon="-4.27811">
        <ele>65.1</ele>
        <time>2022-05-28T05:36:09Z</time>
      </trkpt>
      <trkpt lat="48.25939" lon="-4.2777">
        <ele>63.6</ele>
        <time>2022-05-28T05:36:13Z</time>
      </trkpt>
      <trkpt lat="48.25941" lon="-4.27712">
        <ele>61.7</ele>
        <time>2022-05-28T05:36:18Z</time>
      </trkpt>
      <trkpt lat="48.25939" lon="-4.27689">
        <ele>60.8</ele>
        <time>2022-05-28T05:36:20Z</time>
      </trkpt>
      <trkpt lat="48.25933" lon="-4.27643">
        <ele>58.1</ele>
        <time>2022-05-28T05:36:24Z</time>
      </trkpt>
      <trkpt lat="48.2593" lon="-4.2763">
        <ele>57.4</ele>
        <time>2022-05-28T05:36:25Z</time>
      </trkpt>
      <trkpt lat="48.25913" lon="-4.27566">
        <ele>53.4</ele>
        <time>2022-05-28T05:36:30Z</time>
      </trkpt>
      <trkpt lat="48.25911" lon="-4.2755">
        <ele>52.5</ele>
        <time>2022-05-28T05:36:31Z</time>
      </trkpt>
      <trkpt lat="48.25901" lon="-4.27489">
        <ele>48.3</ele>
        <time>2022-05-28T05:36:35Z</time>
      </trkpt>
      <trkpt lat="48.25897" lon="-4.27465">
        <ele>46.4</ele>
        <time>2022-05-28T05:36:37Z</time>
      </trkpt>
      <trkpt lat="48.25891" lon="-4.27417">
        <ele>44.3</ele>
        <time>2022-05-28T05:36:41Z</time>
      </trkpt>
      <trkpt lat="48.25888" lon="-4.27399">
        <ele>43.3</ele>
        <time>2022-05-28T05:36:43Z</time>
      </trkpt>
      <trkpt lat="48.25884" lon="-4.27382">
        <ele>42.9</ele>
        <time>2022-05-28T05:36:45Z</time>
      </trkpt>
      <trkpt lat="48.25867" lon="-4.27358">
        <ele>42</ele>
        <time>2022-05-28T05:36:49Z</time>
      </trkpt>
      <trkpt lat="48.25843" lon="-4.27334">
        <ele>40.8</ele>
        <time>2022-05-28T05:36:55Z</time>
      </trkpt>
      <trkpt lat="48.25831" lon="-4.27321">
        <ele>40.6</ele>
        <time>2022-05-28T05:36:58Z</time>
      </trkpt>
      <trkpt lat="48.25817" lon="-4.273">
        <ele>40.4</ele>
        <time>2022-05-28T05:37:01Z</time>
      </trkpt>
      <trkpt lat="48.25798" lon="-4.27271">
        <ele>38.8</ele>
        <time>2022-05-28T05:37:05Z</time>
      </trkpt>
      <trkpt lat="48.25786" lon="-4.27256">
        <ele>37.9</ele>
        <time>2022-05-28T05:37:07Z</time>
      </trkpt>
      <trkpt lat="48.25767" lon="-4.27234">
        <ele>35.6</ele>
        <time>2022-05-28T05:37:10Z</time>
      </trkpt>
      <trkpt lat="48.25742" lon="-4.27218">
        <ele>33.6</ele>
        <time>2022-05-28T05:37:13Z</time>
      </trkpt>
      <trkpt lat="48.25726" lon="-4.27207">
        <ele>33.5</ele>
        <time>2022-05-28T05:37:15Z</time>
      </trkpt>
      <trkpt lat="48.25684" lon="-4.2718">
        <ele>33.4</ele>
        <time>2022-05-28T05:37:21Z</time>
      </trkpt>
      <trkpt lat="48.25661" lon="-4.27168">
        <ele>33.4</ele>
        <time>2022-05-28T05:37:25Z</time>
      </trkpt>
      <trkpt lat="48.25638" lon="-4.27157">
        <ele>34.4</ele>
        <time>2022-05-28T05:37:29Z</time>
      </trkpt>
      <trkpt lat="48.25629" lon="-4.27152">
        <ele>34.9</ele>
        <time>2022-05-28T05:37:31Z</time>
      </trkpt>
      <trkpt lat="48.25612" lon="-4.27143">
        <ele>35.7</ele>
        <time>2022-05-28T05:37:35Z</time>
      </trkpt>
      <trkpt lat="48.25565" lon="-4.27126">
        <ele>38.4</ele>
        <time>2022-05-28T05:37:47Z</time>
      </trkpt>
      <trkpt lat="48.25562" lon="-4.27124">
        <ele>38.6</ele>
        <time>2022-05-28T05:37:48Z</time>
      </trkpt>
      <trkpt lat="48.25555" lon="-4.27121">
        <ele>39.2</ele>
        <time>2022-05-28T05:37:50Z</time>
      </trkpt>
      <trkpt lat="48.25549" lon="-4.2712">
        <ele>39.8</ele>
        <time>2022-05-28T05:37:52Z</time>
      </trkpt>
      <trkpt lat="48.25537" lon="-4.27112">
        <ele>41.6</ele>
        <time>2022-05-28T05:37:58Z</time>
      </trkpt>
      <trkpt lat="48.2553" lon="-4.27106">
        <ele>42.2</ele>
        <time>2022-05-28T05:38:00Z</time>
      </trkpt>
      <trkpt lat="48.25498" lon="-4.27077">
        <ele>44.4</ele>
        <time>2022-05-28T05:38:09Z</time>
      </trkpt>
      <trkpt lat="48.25494" lon="-4.27062">
        <ele>45.1</ele>
        <time>2022-05-28T05:38:12Z</time>
      </trkpt>
      <trkpt lat="48.25483" lon="-4.2702">
        <ele>46.7</ele>
        <time>2022-05-28T05:38:20Z</time>
      </trkpt>
      <trkpt lat="48.25482" lon="-4.27015">
        <ele>46.9</ele>
        <time>2022-05-28T05:38:21Z</time>
      </trkpt>
      <trkpt lat="48.25474" lon="-4.26992">
        <ele>48.3</ele>
        <time>2022-05-28T05:38:28Z</time>
      </trkpt>
      <trkpt lat="48.25461" lon="-4.26954">
        <ele>50.7</ele>
        <time>2022-05-28T05:38:39Z</time>
      </trkpt>
      <trkpt lat="48.25456" lon="-4.26939">
        <ele>51.8</ele>
        <time>2022-05-28T05:38:44Z</time>
      </trkpt>
      <trkpt lat="48.2544" lon="-4.26891">
        <ele>54.5</ele>
        <time>2022-05-28T05:39:00Z</time>
      </trkpt>
      <trkpt lat="48.25434" lon="-4.26863">
        <ele>55.8</ele>
        <time>2022-05-28T05:39:08Z</time>
      </trkpt>
      <trkpt lat="48.25426" lon="-4.26824">
        <ele>57.2</ele>
        <time>2022-05-28T05:39:19Z</time>
      </trkpt>
      <trkpt lat="48.25425" lon="-4.26819">
        <ele>57.3</ele>
        <time>2022-05-28T05:39:20Z</time>
      </trkpt>
      <trkpt lat="48.2541" lon="-4.26763">
        <ele>59</ele>
        <time>2022-05-28T05:39:32Z</time>
      </trkpt>
      <trkpt lat="48.25408" lon="-4.26759">
        <ele>59.3</ele>
        <time>2022-05-28T05:39:33Z</time>
      </trkpt>
      <trkpt lat="48.25378" lon="-4.26704">
        <ele>63.3</ele>
        <time>2022-05-28T05:39:50Z</time>
      </trkpt>
      <trkpt lat="48.25354" lon="-4.26683">
        <ele>66</ele>
        <time>2022-05-28T05:40:07Z</time>
      </trkpt>
      <trkpt lat="48.25355" lon="-4.2668">
        <ele>66.1</ele>
        <time>2022-05-28T05:40:08Z</time>
      </trkpt>
      <trkpt lat="48.25356" lon="-4.26675">
        <ele>65.6</ele>
        <time>2022-05-28T05:40:10Z</time>
      </trkpt>
      <trkpt lat="48.25351" lon="-4.26659">
        <ele>64.8</ele>
        <time>2022-05-28T05:40:14Z</time>
      </trkpt>
      <trkpt lat="48.25343" lon="-4.26636">
        <ele>65.6</ele>
        <time>2022-05-28T05:40:20Z</time>
      </trkpt>
      <trkpt lat="48.25336" lon="-4.26613">
        <ele>66.7</ele>
        <time>2022-05-28T05:40:26Z</time>
      </trkpt>
      <trkpt lat="48.25334" lon="-4.26586">
        <ele>67.5</ele>
        <time>2022-05-28T05:40:32Z</time>
      </trkpt>
      <trkpt lat="48.25327" lon="-4.26571">
        <ele>68.2</ele>
        <time>2022-05-28T05:40:37Z</time>
      </trkpt>
      <trkpt lat="48.25318" lon="-4.26553">
        <ele>69.2</ele>
        <time>2022-05-28T05:40:43Z</time>
      </trkpt>
      <trkpt lat="48.25306" lon="-4.26529">
        <ele>70.5</ele>
        <time>2022-05-28T05:40:51Z</time>
      </trkpt>
      <trkpt lat="48.25303" lon="-4.26505">
        <ele>71.5</ele>
        <time>2022-05-28T05:40:57Z</time>
      </trkpt>
      <trkpt lat="48.25299" lon="-4.26466">
        <ele>73.1</ele>
        <time>2022-05-28T05:41:07Z</time>
      </trkpt>
      <trkpt lat="48.25298" lon="-4.26462">
        <ele>73.3</ele>
        <time>2022-05-28T05:41:08Z</time>
      </trkpt>
      <trkpt lat="48.25279" lon="-4.26413">
        <ele>76.3</ele>
        <time>2022-05-28T05:41:25Z</time>
      </trkpt>
      <trkpt lat="48.25274" lon="-4.26402">
        <ele>77.2</ele>
        <time>2022-05-28T05:41:29Z</time>
      </trkpt>
      <trkpt lat="48.25255" lon="-4.26367">
        <ele>80.4</ele>
        <time>2022-05-28T05:41:43Z</time>
      </trkpt>
      <trkpt lat="48.25247" lon="-4.26352">
        <ele>82.2</ele>
        <time>2022-05-28T05:41:49Z</time>
      </trkpt>
      <trkpt lat="48.25245" lon="-4.26347">
        <ele>82.8</ele>
        <time>2022-05-28T05:41:51Z</time>
      </trkpt>
      <trkpt lat="48.25233" lon="-4.26327">
        <ele>85.7</ele>
        <time>2022-05-28T05:42:01Z</time>
      </trkpt>
      <trkpt lat="48.25219" lon="-4.26302">
        <ele>88.8</ele>
        <time>2022-05-28T05:42:13Z</time>
      </trkpt>
      <trkpt lat="48.25214" lon="-4.26293">
        <ele>89.8</ele>
        <time>2022-05-28T05:42:17Z</time>
      </trkpt>
      <trkpt lat="48.25212" lon="-4.26289">
        <ele>90.3</ele>
        <time>2022-05-28T05:42:19Z</time>
      </trkpt>
      <trkpt lat="48.25188" lon="-4.26252">
        <ele>93.8</ele>
        <time>2022-05-28T05:42:36Z</time>
      </trkpt>
      <trkpt lat="48.25182" lon="-4.26243">
        <ele>94.4</ele>
        <time>2022-05-28T05:42:40Z</time>
      </trkpt>
      <trkpt lat="48.25148" lon="-4.26194">
        <ele>97.3</ele>
        <time>2022-05-28T05:42:58Z</time>
      </trkpt>
      <trkpt lat="48.25114" lon="-4.26147">
        <ele>99.1</ele>
        <time>2022-05-28T05:43:15Z</time>
      </trkpt>
      <trkpt lat="48.25111" lon="-4.26144">
        <ele>99.1</ele>
        <time>2022-05-28T05:43:16Z</time>
      </trkpt>
      <trkpt lat="48.25087" lon="-4.26119">
        <ele>96.7</ele>
        <time>2022-05-28T05:43:24Z</time>
      </trkpt>
      <trkpt lat="48.25063" lon="-4.2611">
        <ele>95.5</ele>
        <time>2022-05-28T05:43:28Z</time>
      </trkpt>
      <trkpt lat="48.2504" lon="-4.26102">
        <ele>94.6</ele>
        <time>2022-05-28T05:43:32Z</time>
      </trkpt>
      <trkpt lat="48.25008" lon="-4.26094">
        <ele>93.3</ele>
        <time>2022-05-28T05:43:38Z</time>
      </trkpt>
      <trkpt lat="48.25" lon="-4.26095">
        <ele>92.9</ele>
        <time>2022-05-28T05:43:40Z</time>
      </trkpt>
      <trkpt lat="48.24976" lon="-4.26096">
        <ele>92.9</ele>
        <time>2022-05-28T05:43:46Z</time>
      </trkpt>
      <trkpt lat="48.24968" lon="-4.26096">
        <ele>92.6</ele>
        <time>2022-05-28T05:43:48Z</time>
      </trkpt>
      <trkpt lat="48.24958" lon="-4.26096">
        <ele>92.2</ele>
        <time>2022-05-28T05:43:50Z</time>
      </trkpt>
      <trkpt lat="48.24942" lon="-4.26116">
        <ele>91.5</ele>
        <time>2022-05-28T05:43:54Z</time>
      </trkpt>
      <trkpt lat="48.24934" lon="-4.26139">
        <ele>90.8</ele>
        <time>2022-05-28T05:43:58Z</time>
      </trkpt>
      <trkpt lat="48.24884" lon="-4.26156">
        <ele>87.4</ele>
        <time>2022-05-28T05:44:08Z</time>
      </trkpt>
      <trkpt lat="48.24871" lon="-4.26159">
        <ele>86.8</ele>
        <time>2022-05-28T05:44:10Z</time>
      </trkpt>
      <trkpt lat="48.24837" lon="-4.26166">
        <ele>86.4</ele>
        <time>2022-05-28T05:44:15Z</time>
      </trkpt>
      <trkpt lat="48.24805" lon="-4.26161">
        <ele>85.8</ele>
        <time>2022-05-28T05:44:22Z</time>
      </trkpt>
      <trkpt lat="48.24791" lon="-4.26158">
        <ele>85.9</ele>
        <time>2022-05-28T05:44:25Z</time>
      </trkpt>
      <trkpt lat="48.24775" lon="-4.2615">
        <ele>86</ele>
        <time>2022-05-28T05:44:29Z</time>
      </trkpt>
      <trkpt lat="48.24751" lon="-4.26093">
        <ele>86.2</ele>
        <time>2022-05-28T05:44:40Z</time>
      </trkpt>
      <trkpt lat="48.24726" lon="-4.26036">
        <ele>86.4</ele>
        <time>2022-05-28T05:44:51Z</time>
      </trkpt>
      <trkpt lat="48.24711" lon="-4.26001">
        <ele>86.6</ele>
        <time>2022-05-28T05:44:58Z</time>
      </trkpt>
      <trkpt lat="48.24695" lon="-4.25988">
        <ele>86.7</ele>
        <time>2022-05-28T05:45:04Z</time>
      </trkpt>
      <trkpt lat="48.24675" lon="-4.2599">
        <ele>87</ele>
        <time>2022-05-28T05:45:14Z</time>
      </trkpt>
      <trkpt lat="48.24652" lon="-4.25994">
        <ele>90.9</ele>
        <time>2022-05-28T05:45:26Z</time>
      </trkpt>
      <trkpt lat="48.24623" lon="-4.25961">
        <ele>93.9</ele>
        <time>2022-05-28T05:45:34Z</time>
      </trkpt>
      <trkpt lat="48.24623" lon="-4.25961">
        <ele>93.9</ele>
        <time>2022-05-28T05:46:26Z</time>
      </trkpt>
      <trkpt lat="48.24597" lon="-4.25928">
        <ele>96.3</ele>
        <time>2022-05-28T05:46:30Z</time>
      </trkpt>
      <trkpt lat="48.24598" lon="-4.259">
        <ele>96.2</ele>
        <time>2022-05-28T05:46:33Z</time>
      </trkpt>
      <trkpt lat="48.24596" lon="-4.25891">
        <ele>96.1</ele>
        <time>2022-05-28T05:46:34Z</time>
      </trkpt>
      <trkpt lat="48.24598" lon="-4.25882">
        <ele>96.1</ele>
        <time>2022-05-28T05:46:35Z</time>
      </trkpt>
      <trkpt lat="48.24592" lon="-4.2581">
        <ele>95.8</ele>
        <time>2022-05-28T05:46:44Z</time>
      </trkpt>
      <trkpt lat="48.24576" lon="-4.25741">
        <ele>95.5</ele>
        <time>2022-05-28T05:46:53Z</time>
      </trkpt>
      <trkpt lat="48.24562" lon="-4.25671">
        <ele>95.2</ele>
        <time>2022-05-28T05:47:02Z</time>
      </trkpt>
      <trkpt lat="48.24551" lon="-4.25605">
        <ele>95</ele>
        <time>2022-05-28T05:47:10Z</time>
      </trkpt>
      <trkpt lat="48.24545" lon="-4.25567">
        <ele>94.8</ele>
        <time>2022-05-28T05:47:15Z</time>
      </trkpt>
      <trkpt lat="48.24534" lon="-4.25501">
        <ele>94.5</ele>
        <time>2022-05-28T05:47:24Z</time>
      </trkpt>
      <trkpt lat="48.24522" lon="-4.25469">
        <ele>94.3</ele>
        <time>2022-05-28T05:47:29Z</time>
      </trkpt>
      <trkpt lat="48.2452" lon="-4.25431">
        <ele>94.2</ele>
        <time>2022-05-28T05:47:34Z</time>
      </trkpt>
      <trkpt lat="48.24518" lon="-4.25416">
        <ele>94.1</ele>
        <time>2022-05-28T05:47:36Z</time>
      </trkpt>
      <trkpt lat="48.24521" lon="-4.25383">
        <ele>94</ele>
        <time>2022-05-28T05:47:40Z</time>
      </trkpt>
      <trkpt lat="48.2452" lon="-4.25363">
        <ele>93.8</ele>
        <time>2022-05-28T05:47:42Z</time>
      </trkpt>
      <trkpt lat="48.24518" lon="-4.25312">
        <ele>92.4</ele>
        <time>2022-05-28T05:47:47Z</time>
      </trkpt>
      <trkpt lat="48.24519" lon="-4.25299">
        <ele>92</ele>
        <time>2022-05-28T05:47:48Z</time>
      </trkpt>
      <trkpt lat="48.24519" lon="-4.25275">
        <ele>91.3</ele>
        <time>2022-05-28T05:47:50Z</time>
      </trkpt>
      <trkpt lat="48.24514" lon="-4.25218">
        <ele>89.7</ele>
        <time>2022-05-28T05:47:54Z</time>
      </trkpt>
      <trkpt lat="48.2452" lon="-4.25162">
        <ele>88.1</ele>
        <time>2022-05-28T05:47:58Z</time>
      </trkpt>
      <trkpt lat="48.24526" lon="-4.25131">
        <ele>87.5</ele>
        <time>2022-05-28T05:48:00Z</time>
      </trkpt>
      <trkpt lat="48.24527" lon="-4.25117">
        <ele>87.3</ele>
        <time>2022-05-28T05:48:01Z</time>
      </trkpt>
      <trkpt lat="48.24525" lon="-4.25073">
        <ele>86.9</ele>
        <time>2022-05-28T05:48:04Z</time>
      </trkpt>
      <trkpt lat="48.24519" lon="-4.2506">
        <ele>86.7</ele>
        <time>2022-05-28T05:48:05Z</time>
      </trkpt>
      <trkpt lat="48.2452" lon="-4.25047">
        <ele>86.6</ele>
        <time>2022-05-28T05:48:06Z</time>
      </trkpt>
      <trkpt lat="48.2452" lon="-4.25036">
        <ele>86.4</ele>
        <time>2022-05-28T05:48:07Z</time>
      </trkpt>
      <trkpt lat="48.24514" lon="-4.25015">
        <ele>86.1</ele>
        <time>2022-05-28T05:48:09Z</time>
      </trkpt>
      <trkpt lat="48.24499" lon="-4.24996">
        <ele>85.8</ele>
        <time>2022-05-28T05:48:12Z</time>
      </trkpt>
      <trkpt lat="48.24468" lon="-4.24982">
        <ele>87.5</ele>
        <time>2022-05-28T05:48:18Z</time>
      </trkpt>
      <trkpt lat="48.24454" lon="-4.24975">
        <ele>87.9</ele>
        <time>2022-05-28T05:48:21Z</time>
      </trkpt>
      <trkpt lat="48.24414" lon="-4.24943">
        <ele>88.8</ele>
        <time>2022-05-28T05:48:30Z</time>
      </trkpt>
      <trkpt lat="48.24371" lon="-4.24915">
        <ele>87.5</ele>
        <time>2022-05-28T05:48:39Z</time>
      </trkpt>
      <trkpt lat="48.24353" lon="-4.24911">
        <ele>87.1</ele>
        <time>2022-05-28T05:48:42Z</time>
      </trkpt>
      <trkpt lat="48.24323" lon="-4.24905">
        <ele>86</ele>
        <time>2022-05-28T05:48:47Z</time>
      </trkpt>
      <trkpt lat="48.24276" lon="-4.24898">
        <ele>84.4</ele>
        <time>2022-05-28T05:48:54Z</time>
      </trkpt>
      <trkpt lat="48.24249" lon="-4.24895">
        <ele>83.5</ele>
        <time>2022-05-28T05:48:58Z</time>
      </trkpt>
      <trkpt lat="48.24228" lon="-4.24892">
        <ele>82.8</ele>
        <time>2022-05-28T05:49:01Z</time>
      </trkpt>
      <trkpt lat="48.24189" lon="-4.24879">
        <ele>81.4</ele>
        <time>2022-05-28T05:49:06Z</time>
      </trkpt>
      <trkpt lat="48.2418" lon="-4.24868">
        <ele>81.2</ele>
        <time>2022-05-28T05:49:07Z</time>
      </trkpt>
      <trkpt lat="48.24173" lon="-4.24853">
        <ele>80.9</ele>
        <time>2022-05-28T05:49:08Z</time>
      </trkpt>
      <trkpt lat="48.24169" lon="-4.24837">
        <ele>80.6</ele>
        <time>2022-05-28T05:49:09Z</time>
      </trkpt>
      <trkpt lat="48.24169" lon="-4.24819">
        <ele>80.3</ele>
        <time>2022-05-28T05:49:10Z</time>
      </trkpt>
      <trkpt lat="48.24174" lon="-4.24803">
        <ele>80</ele>
        <time>2022-05-28T05:49:11Z</time>
      </trkpt>
      <trkpt lat="48.24181" lon="-4.24792">
        <ele>79.7</ele>
        <time>2022-05-28T05:49:12Z</time>
      </trkpt>
      <trkpt lat="48.24197" lon="-4.24783">
        <ele>79.1</ele>
        <time>2022-05-28T05:49:14Z</time>
      </trkpt>
      <trkpt lat="48.24207" lon="-4.24784">
        <ele>78.8</ele>
        <time>2022-05-28T05:49:15Z</time>
      </trkpt>
      <trkpt lat="48.24226" lon="-4.24783">
        <ele>78.2</ele>
        <time>2022-05-28T05:49:17Z</time>
      </trkpt>
      <trkpt lat="48.24258" lon="-4.24781">
        <ele>77.1</ele>
        <time>2022-05-28T05:49:21Z</time>
      </trkpt>
      <trkpt lat="48.24273" lon="-4.24779">
        <ele>77</ele>
        <time>2022-05-28T05:49:23Z</time>
      </trkpt>
      <trkpt lat="48.2429" lon="-4.24767">
        <ele>76.9</ele>
        <time>2022-05-28T05:49:27Z</time>
      </trkpt>
      <trkpt lat="48.24302" lon="-4.24757">
        <ele>77.4</ele>
        <time>2022-05-28T05:49:30Z</time>
      </trkpt>
      <trkpt lat="48.24303" lon="-4.24752">
        <ele>77.6</ele>
        <time>2022-05-28T05:49:31Z</time>
      </trkpt>
      <trkpt lat="48.24301" lon="-4.24748">
        <ele>77.8</ele>
        <time>2022-05-28T05:49:32Z</time>
      </trkpt>
      <trkpt lat="48.24299" lon="-4.24749">
        <ele>78</ele>
        <time>2022-05-28T05:49:33Z</time>
      </trkpt>
      <trkpt lat="48.24273" lon="-4.24737">
        <ele>80.1</ele>
        <time>2022-05-28T05:49:45Z</time>
      </trkpt>
      <trkpt lat="48.24255" lon="-4.24728">
        <ele>82.6</ele>
        <time>2022-05-28T05:49:53Z</time>
      </trkpt>
      <trkpt lat="48.24247" lon="-4.24723">
        <ele>83.8</ele>
        <time>2022-05-28T05:49:57Z</time>
      </trkpt>
      <trkpt lat="48.2422" lon="-4.24707">
        <ele>87.2</ele>
        <time>2022-05-28T05:50:09Z</time>
      </trkpt>
      <trkpt lat="48.24212" lon="-4.24702">
        <ele>88.2</ele>
        <time>2022-05-28T05:50:13Z</time>
      </trkpt>
      <trkpt lat="48.24198" lon="-4.24694">
        <ele>90.1</ele>
        <time>2022-05-28T05:50:21Z</time>
      </trkpt>
      <trkpt lat="48.24176" lon="-4.24682">
        <ele>93.4</ele>
        <time>2022-05-28T05:50:33Z</time>
      </trkpt>
      <trkpt lat="48.24171" lon="-4.24679">
        <ele>94</ele>
        <time>2022-05-28T05:50:36Z</time>
      </trkpt>
      <trkpt lat="48.24166" lon="-4.24676">
        <ele>94.7</ele>
        <time>2022-05-28T05:50:39Z</time>
      </trkpt>
      <trkpt lat="48.24135" lon="-4.24658">
        <ele>98.8</ele>
        <time>2022-05-28T05:50:57Z</time>
      </trkpt>
      <trkpt lat="48.24128" lon="-4.24653">
        <ele>99.6</ele>
        <time>2022-05-28T05:51:01Z</time>
      </trkpt>
      <trkpt lat="48.24106" lon="-4.2463">
        <ele>102</ele>
        <time>2022-05-28T05:51:13Z</time>
      </trkpt>
      <trkpt lat="48.24084" lon="-4.24582">
        <ele>104.3</ele>
        <time>2022-05-28T05:51:27Z</time>
      </trkpt>
      <trkpt lat="48.24084" lon="-4.24577">
        <ele>104.4</ele>
        <time>2022-05-28T05:51:28Z</time>
      </trkpt>
      <trkpt lat="48.24063" lon="-4.24556">
        <ele>105.9</ele>
        <time>2022-05-28T05:51:37Z</time>
      </trkpt>
      <trkpt lat="48.24046" lon="-4.2454">
        <ele>106.9</ele>
        <time>2022-05-28T05:51:44Z</time>
      </trkpt>
      <trkpt lat="48.24007" lon="-4.24503">
        <ele>109.2</ele>
        <time>2022-05-28T05:51:59Z</time>
      </trkpt>
      <trkpt lat="48.24001" lon="-4.24497">
        <ele>109.5</ele>
        <time>2022-05-28T05:52:01Z</time>
      </trkpt>
      <trkpt lat="48.23983" lon="-4.24477">
        <ele>109.7</ele>
        <time>2022-05-28T05:52:07Z</time>
      </trkpt>
      <trkpt lat="48.23971" lon="-4.24463">
        <ele>109.8</ele>
        <time>2022-05-28T05:52:11Z</time>
      </trkpt>
      <trkpt lat="48.23933" lon="-4.24417">
        <ele>110</ele>
        <time>2022-05-28T05:52:22Z</time>
      </trkpt>
      <trkpt lat="48.23894" lon="-4.24368">
        <ele>110.2</ele>
        <time>2022-05-28T05:52:32Z</time>
      </trkpt>
      <trkpt lat="48.23856" lon="-4.24323">
        <ele>110.4</ele>
        <time>2022-05-28T05:52:41Z</time>
      </trkpt>
      <trkpt lat="48.23826" lon="-4.24302">
        <ele>110.7</ele>
        <time>2022-05-28T05:52:49Z</time>
      </trkpt>
      <trkpt lat="48.23819" lon="-4.24298">
        <ele>111.1</ele>
        <time>2022-05-28T05:52:51Z</time>
      </trkpt>
      <trkpt lat="48.23778" lon="-4.24288">
        <ele>114.4</ele>
        <time>2022-05-28T05:53:06Z</time>
      </trkpt>
      <trkpt lat="48.23775" lon="-4.24289">
        <ele>114.6</ele>
        <time>2022-05-28T05:53:07Z</time>
      </trkpt>
      <trkpt lat="48.23763" lon="-4.24286">
        <ele>115.7</ele>
        <time>2022-05-28T05:53:13Z</time>
      </trkpt>
      <trkpt lat="48.23733" lon="-4.24294">
        <ele>118.1</ele>
        <time>2022-05-28T05:53:26Z</time>
      </trkpt>
      <trkpt lat="48.23718" lon="-4.24298">
        <ele>119.1</ele>
        <time>2022-05-28T05:53:33Z</time>
      </trkpt>
      <trkpt lat="48.23697" lon="-4.24295">
        <ele>120.5</ele>
        <time>2022-05-28T05:53:44Z</time>
      </trkpt>
      <trkpt lat="48.23686" lon="-4.24293">
        <ele>121.4</ele>
        <time>2022-05-28T05:53:50Z</time>
      </trkpt>
      <trkpt lat="48.23672" lon="-4.2429">
        <ele>122.8</ele>
        <time>2022-05-28T05:53:58Z</time>
      </trkpt>
      <trkpt lat="48.23649" lon="-4.24277">
        <ele>124.5</ele>
        <time>2022-05-28T05:54:08Z</time>
      </trkpt>
      <trkpt lat="48.23629" lon="-4.24265">
        <ele>126</ele>
        <time>2022-05-28T05:54:17Z</time>
      </trkpt>
      <trkpt lat="48.23622" lon="-4.24261">
        <ele>126.8</ele>
        <time>2022-05-28T05:54:22Z</time>
      </trkpt>
      <trkpt lat="48.23603" lon="-4.24249">
        <ele>128.4</ele>
        <time>2022-05-28T05:54:32Z</time>
      </trkpt>
      <trkpt lat="48.23579" lon="-4.24233">
        <ele>130.2</ele>
        <time>2022-05-28T05:54:45Z</time>
      </trkpt>
      <trkpt lat="48.23569" lon="-4.24228">
        <ele>130.9</ele>
        <time>2022-05-28T05:54:50Z</time>
      </trkpt>
      <trkpt lat="48.23557" lon="-4.24223">
        <ele>132</ele>
        <time>2022-05-28T05:54:56Z</time>
      </trkpt>
      <trkpt lat="48.23535" lon="-4.24213">
        <ele>134</ele>
        <time>2022-05-28T05:55:07Z</time>
      </trkpt>
      <trkpt lat="48.23524" lon="-4.24208">
        <ele>135.1</ele>
        <time>2022-05-28T05:55:13Z</time>
      </trkpt>
      <trkpt lat="48.23491" lon="-4.24193">
        <ele>138.1</ele>
        <time>2022-05-28T05:55:30Z</time>
      </trkpt>
      <trkpt lat="48.23461" lon="-4.24181">
        <ele>141.7</ele>
        <time>2022-05-28T05:55:47Z</time>
      </trkpt>
      <trkpt lat="48.23447" lon="-4.24175">
        <ele>143.1</ele>
        <time>2022-05-28T05:55:55Z</time>
      </trkpt>
      <trkpt lat="48.23431" lon="-4.24166">
        <ele>145</ele>
        <time>2022-05-28T05:56:05Z</time>
      </trkpt>
      <trkpt lat="48.23402" lon="-4.24149">
        <ele>148.7</ele>
        <time>2022-05-28T05:56:22Z</time>
      </trkpt>
      <trkpt lat="48.234" lon="-4.24148">
        <ele>148.9</ele>
        <time>2022-05-28T05:56:23Z</time>
      </trkpt>
      <trkpt lat="48.23375" lon="-4.24129">
        <ele>151.4</ele>
        <time>2022-05-28T05:56:36Z</time>
      </trkpt>
      <trkpt lat="48.23367" lon="-4.24124">
        <ele>152.4</ele>
        <time>2022-05-28T05:56:41Z</time>
      </trkpt>
      <trkpt lat="48.23343" lon="-4.24108">
        <ele>155.3</ele>
        <time>2022-05-28T05:56:57Z</time>
      </trkpt>
      <trkpt lat="48.2334" lon="-4.24106">
        <ele>155.7</ele>
        <time>2022-05-28T05:56:59Z</time>
      </trkpt>
      <trkpt lat="48.23333" lon="-4.24101">
        <ele>156.7</ele>
        <time>2022-05-28T05:57:04Z</time>
      </trkpt>
      <trkpt lat="48.23309" lon="-4.24082">
        <ele>159.2</ele>
        <time>2022-05-28T05:57:17Z</time>
      </trkpt>
      <trkpt lat="48.23298" lon="-4.24073">
        <ele>160.1</ele>
        <time>2022-05-28T05:57:23Z</time>
      </trkpt>
      <trkpt lat="48.23292" lon="-4.24071">
        <ele>160.5</ele>
        <time>2022-05-28T05:57:26Z</time>
      </trkpt>
      <trkpt lat="48.2329" lon="-4.24069">
        <ele>160.7</ele>
        <time>2022-05-28T05:57:27Z</time>
      </trkpt>
      <trkpt lat="48.23287" lon="-4.24068">
        <ele>160.8</ele>
        <time>2022-05-28T05:57:28Z</time>
      </trkpt>
      <trkpt lat="48.23266" lon="-4.24052">
        <ele>162.3</ele>
        <time>2022-05-28T05:57:38Z</time>
      </trkpt>
      <trkpt lat="48.23262" lon="-4.24048">
        <ele>162.5</ele>
        <time>2022-05-28T05:57:40Z</time>
      </trkpt>
      <trkpt lat="48.23254" lon="-4.24043">
        <ele>163</ele>
        <time>2022-05-28T05:57:44Z</time>
      </trkpt>
      <trkpt lat="48.2323" lon="-4.24029">
        <ele>164.7</ele>
        <time>2022-05-28T05:57:56Z</time>
      </trkpt>
      <trkpt lat="48.23218" lon="-4.24021">
        <ele>165.6</ele>
        <time>2022-05-28T05:58:02Z</time>
      </trkpt>
      <trkpt lat="48.23178" lon="-4.23987">
        <ele>168.1</ele>
        <time>2022-05-28T05:58:20Z</time>
      </trkpt>
      <trkpt lat="48.23178" lon="-4.23965">
        <ele>167.8</ele>
        <time>2022-05-28T05:58:22Z</time>
      </trkpt>
      <trkpt lat="48.23185" lon="-4.2397">
        <ele>167.6</ele>
        <time>2022-05-28T05:58:24Z</time>
      </trkpt>
      <trkpt lat="48.23184" lon="-4.2396">
        <ele>167.4</ele>
        <time>2022-05-28T05:58:26Z</time>
      </trkpt>
      <trkpt lat="48.23182" lon="-4.23954">
        <ele>167.5</ele>
        <time>2022-05-28T05:58:27Z</time>
      </trkpt>
      <trkpt lat="48.23181" lon="-4.23945">
        <ele>167.7</ele>
        <time>2022-05-28T05:58:29Z</time>
      </trkpt>
      <trkpt lat="48.23159" lon="-4.23929">
        <ele>169.4</ele>
        <time>2022-05-28T05:58:44Z</time>
      </trkpt>
      <trkpt lat="48.23147" lon="-4.23925">
        <ele>171</ele>
        <time>2022-05-28T05:58:51Z</time>
      </trkpt>
      <trkpt lat="48.23144" lon="-4.23929">
        <ele>171.2</ele>
        <time>2022-05-28T05:58:52Z</time>
      </trkpt>
      <trkpt lat="48.2314" lon="-4.23924">
        <ele>171.8</ele>
        <time>2022-05-28T05:58:55Z</time>
      </trkpt>
      <trkpt lat="48.23141" lon="-4.23917">
        <ele>172.1</ele>
        <time>2022-05-28T05:58:56Z</time>
      </trkpt>
      <trkpt lat="48.23128" lon="-4.23909">
        <ele>173.3</ele>
        <time>2022-05-28T05:59:02Z</time>
      </trkpt>
      <trkpt lat="48.23124" lon="-4.23905">
        <ele>173.4</ele>
        <time>2022-05-28T05:59:04Z</time>
      </trkpt>
      <trkpt lat="48.23121" lon="-4.239">
        <ele>173.4</ele>
        <time>2022-05-28T05:59:05Z</time>
      </trkpt>
      <trkpt lat="48.23109" lon="-4.23892">
        <ele>173.5</ele>
        <time>2022-05-28T05:59:08Z</time>
      </trkpt>
      <trkpt lat="48.23096" lon="-4.23853">
        <ele>172.7</ele>
        <time>2022-05-28T05:59:17Z</time>
      </trkpt>
      <trkpt lat="48.2309" lon="-4.23784">
        <ele>171.3</ele>
        <time>2022-05-28T05:59:34Z</time>
      </trkpt>
      <trkpt lat="48.23077" lon="-4.2375">
        <ele>170.6</ele>
        <time>2022-05-28T05:59:43Z</time>
      </trkpt>
      <trkpt lat="48.23068" lon="-4.23728">
        <ele>170.4</ele>
        <time>2022-05-28T05:59:49Z</time>
      </trkpt>
      <trkpt lat="48.23066" lon="-4.23724">
        <ele>170.4</ele>
        <time>2022-05-28T05:59:50Z</time>
      </trkpt>
      <trkpt lat="48.2303" lon="-4.23681">
        <ele>171.1</ele>
        <time>2022-05-28T06:00:03Z</time>
      </trkpt>
      <trkpt lat="48.23022" lon="-4.23674">
        <ele>171.3</ele>
        <time>2022-05-28T06:00:06Z</time>
      </trkpt>
      <trkpt lat="48.22985" lon="-4.23642">
        <ele>172</ele>
        <time>2022-05-28T06:00:18Z</time>
      </trkpt>
      <trkpt lat="48.2296" lon="-4.23643">
        <ele>172.5</ele>
        <time>2022-05-28T06:00:27Z</time>
      </trkpt>
      <trkpt lat="48.22958" lon="-4.23644">
        <ele>172.5</ele>
        <time>2022-05-28T06:00:28Z</time>
      </trkpt>
      <trkpt lat="48.22937" lon="-4.23628">
        <ele>173.1</ele>
        <time>2022-05-28T06:00:37Z</time>
      </trkpt>
      <trkpt lat="48.22935" lon="-4.23627">
        <ele>173.4</ele>
        <time>2022-05-28T06:00:38Z</time>
      </trkpt>
      <trkpt lat="48.22925" lon="-4.23623">
        <ele>175</ele>
        <time>2022-05-28T06:00:44Z</time>
      </trkpt>
      <trkpt lat="48.22924" lon="-4.2362">
        <ele>175.3</ele>
        <time>2022-05-28T06:00:45Z</time>
      </trkpt>
      <trkpt lat="48.22918" lon="-4.23616">
        <ele>176.4</ele>
        <time>2022-05-28T06:00:49Z</time>
      </trkpt>
      <trkpt lat="48.22899" lon="-4.23605">
        <ele>179.4</ele>
        <time>2022-05-28T06:01:01Z</time>
      </trkpt>
      <trkpt lat="48.2288" lon="-4.23594">
        <ele>181.8</ele>
        <time>2022-05-28T06:01:13Z</time>
      </trkpt>
      <trkpt lat="48.2287" lon="-4.23584">
        <ele>183</ele>
        <time>2022-05-28T06:01:19Z</time>
      </trkpt>
      <trkpt lat="48.22852" lon="-4.23566">
        <ele>184.5</ele>
        <time>2022-05-28T06:01:30Z</time>
      </trkpt>
      <trkpt lat="48.22847" lon="-4.23561">
        <ele>185</ele>
        <time>2022-05-28T06:01:33Z</time>
      </trkpt>
      <trkpt lat="48.22845" lon="-4.23556">
        <ele>185.4</ele>
        <time>2022-05-28T06:01:35Z</time>
      </trkpt>
      <trkpt lat="48.22822" lon="-4.23514">
        <ele>188.6</ele>
        <time>2022-05-28T06:01:52Z</time>
      </trkpt>
      <trkpt lat="48.22818" lon="-4.23507">
        <ele>189.3</ele>
        <time>2022-05-28T06:01:55Z</time>
      </trkpt>
      <trkpt lat="48.22793" lon="-4.23491">
        <ele>192.7</ele>
        <time>2022-05-28T06:02:10Z</time>
      </trkpt>
      <trkpt lat="48.22783" lon="-4.23485">
        <ele>193.7</ele>
        <time>2022-05-28T06:02:16Z</time>
      </trkpt>
      <trkpt lat="48.22775" lon="-4.23479">
        <ele>194.7</ele>
        <time>2022-05-28T06:02:21Z</time>
      </trkpt>
      <trkpt lat="48.22756" lon="-4.2346">
        <ele>197.2</ele>
        <time>2022-05-28T06:02:34Z</time>
      </trkpt>
      <trkpt lat="48.22737" lon="-4.23441">
        <ele>199.8</ele>
        <time>2022-05-28T06:02:47Z</time>
      </trkpt>
      <trkpt lat="48.2273" lon="-4.23433">
        <ele>200.9</ele>
        <time>2022-05-28T06:02:52Z</time>
      </trkpt>
      <trkpt lat="48.22714" lon="-4.23416">
        <ele>203.2</ele>
        <time>2022-05-28T06:03:03Z</time>
      </trkpt>
      <trkpt lat="48.22713" lon="-4.23416">
        <ele>203.4</ele>
        <time>2022-05-28T06:03:04Z</time>
      </trkpt>
      <trkpt lat="48.22709" lon="-4.2341">
        <ele>204.1</ele>
        <time>2022-05-28T06:03:07Z</time>
      </trkpt>
      <trkpt lat="48.22704" lon="-4.23405">
        <ele>204.7</ele>
        <time>2022-05-28T06:03:10Z</time>
      </trkpt>
      <trkpt lat="48.22673" lon="-4.23373">
        <ele>208.1</ele>
        <time>2022-05-28T06:03:28Z</time>
      </trkpt>
      <trkpt lat="48.22671" lon="-4.23371">
        <ele>208.3</ele>
        <time>2022-05-28T06:03:29Z</time>
      </trkpt>
      <trkpt lat="48.22647" lon="-4.23338">
        <ele>211.2</ele>
        <time>2022-05-28T06:03:45Z</time>
      </trkpt>
      <trkpt lat="48.22638" lon="-4.23326">
        <ele>211.9</ele>
        <time>2022-05-28T06:03:51Z</time>
      </trkpt>
      <trkpt lat="48.22633" lon="-4.23317">
        <ele>212.6</ele>
        <time>2022-05-28T06:03:57Z</time>
      </trkpt>
      <trkpt lat="48.22637" lon="-4.23287">
        <ele>213.2</ele>
        <time>2022-05-28T06:04:02Z</time>
      </trkpt>
      <trkpt lat="48.22641" lon="-4.2325">
        <ele>213.1</ele>
        <time>2022-05-28T06:04:08Z</time>
      </trkpt>
      <trkpt lat="48.22652" lon="-4.23182">
        <ele>213</ele>
        <time>2022-05-28T06:04:20Z</time>
      </trkpt>
      <trkpt lat="48.22657" lon="-4.2313">
        <ele>212.9</ele>
        <time>2022-05-28T06:04:30Z</time>
      </trkpt>
      <trkpt lat="48.22656" lon="-4.23125">
        <ele>212.8</ele>
        <time>2022-05-28T06:04:31Z</time>
      </trkpt>
      <trkpt lat="48.22653" lon="-4.23114">
        <ele>212.8</ele>
        <time>2022-05-28T06:04:34Z</time>
      </trkpt>
      <trkpt lat="48.22622" lon="-4.23101">
        <ele>212.7</ele>
        <time>2022-05-28T06:04:38Z</time>
      </trkpt>
      <trkpt lat="48.22617" lon="-4.23092">
        <ele>212.7</ele>
        <time>2022-05-28T06:04:40Z</time>
      </trkpt>
      <trkpt lat="48.22623" lon="-4.23077">
        <ele>212.7</ele>
        <time>2022-05-28T06:04:42Z</time>
      </trkpt>
      <trkpt lat="48.22641" lon="-4.2305">
        <ele>212.7</ele>
        <time>2022-05-28T06:04:45Z</time>
      </trkpt>
      <trkpt lat="48.22646" lon="-4.23042">
        <ele>212.6</ele>
        <time>2022-05-28T06:04:46Z</time>
      </trkpt>
      <trkpt lat="48.22655" lon="-4.23032">
        <ele>212.6</ele>
        <time>2022-05-28T06:04:47Z</time>
      </trkpt>
      <trkpt lat="48.22648" lon="-4.22988">
        <ele>212.5</ele>
        <time>2022-05-28T06:04:55Z</time>
      </trkpt>
      <trkpt lat="48.22635" lon="-4.22933">
        <ele>212.4</ele>
        <time>2022-05-28T06:05:05Z</time>
      </trkpt>
      <trkpt lat="48.22612" lon="-4.22868">
        <ele>212.3</ele>
        <time>2022-05-28T06:05:16Z</time>
      </trkpt>
      <trkpt lat="48.22586" lon="-4.22808">
        <ele>212.1</ele>
        <time>2022-05-28T06:05:26Z</time>
      </trkpt>
      <trkpt lat="48.22577" lon="-4.22784">
        <ele>212.1</ele>
        <time>2022-05-28T06:05:30Z</time>
      </trkpt>
      <trkpt lat="48.22553" lon="-4.22724">
        <ele>212</ele>
        <time>2022-05-28T06:05:40Z</time>
      </trkpt>
      <trkpt lat="48.22552" lon="-4.22686">
        <ele>211.9</ele>
        <time>2022-05-28T06:05:45Z</time>
      </trkpt>
      <trkpt lat="48.22556" lon="-4.22672">
        <ele>211.9</ele>
        <time>2022-05-28T06:05:47Z</time>
      </trkpt>
      <trkpt lat="48.22593" lon="-4.22626">
        <ele>211.7</ele>
        <time>2022-05-28T06:05:58Z</time>
      </trkpt>
      <trkpt lat="48.22597" lon="-4.22622">
        <ele>211.7</ele>
        <time>2022-05-28T06:05:59Z</time>
      </trkpt>
      <trkpt lat="48.22611" lon="-4.22588">
        <ele>211.6</ele>
        <time>2022-05-28T06:06:05Z</time>
      </trkpt>
      <trkpt lat="48.22622" lon="-4.2256">
        <ele>210.2</ele>
        <time>2022-05-28T06:06:10Z</time>
      </trkpt>
      <trkpt lat="48.2263" lon="-4.22544">
        <ele>209.2</ele>
        <time>2022-05-28T06:06:14Z</time>
      </trkpt>
      <trkpt lat="48.22639" lon="-4.2252">
        <ele>208.4</ele>
        <time>2022-05-28T06:06:17Z</time>
      </trkpt>
      <trkpt lat="48.22665" lon="-4.22521">
        <ele>208.1</ele>
        <time>2022-05-28T06:06:18Z</time>
      </trkpt>
      <trkpt lat="48.22677" lon="-4.22501">
        <ele>207.3</ele>
        <time>2022-05-28T06:06:21Z</time>
      </trkpt>
      <trkpt lat="48.2268" lon="-4.22486">
        <ele>206.9</ele>
        <time>2022-05-28T06:06:23Z</time>
      </trkpt>
      <trkpt lat="48.2269" lon="-4.22442">
        <ele>206.3</ele>
        <time>2022-05-28T06:06:29Z</time>
      </trkpt>
      <trkpt lat="48.22691" lon="-4.22435">
        <ele>206.2</ele>
        <time>2022-05-28T06:06:30Z</time>
      </trkpt>
      <trkpt lat="48.227" lon="-4.22399">
        <ele>205.7</ele>
        <time>2022-05-28T06:06:35Z</time>
      </trkpt>
      <trkpt lat="48.22706" lon="-4.2237">
        <ele>205.4</ele>
        <time>2022-05-28T06:06:39Z</time>
      </trkpt>
      <trkpt lat="48.22718" lon="-4.22302">
        <ele>204.5</ele>
        <time>2022-05-28T06:06:49Z</time>
      </trkpt>
      <trkpt lat="48.22714" lon="-4.22285">
        <ele>204.3</ele>
        <time>2022-05-28T06:06:51Z</time>
      </trkpt>
      <trkpt lat="48.22704" lon="-4.22273">
        <ele>204.2</ele>
        <time>2022-05-28T06:06:52Z</time>
      </trkpt>
      <trkpt lat="48.22718" lon="-4.22202">
        <ele>203.3</ele>
        <time>2022-05-28T06:07:02Z</time>
      </trkpt>
      <trkpt lat="48.22722" lon="-4.2218">
        <ele>203</ele>
        <time>2022-05-28T06:07:05Z</time>
      </trkpt>
      <trkpt lat="48.22731" lon="-4.22131">
        <ele>201.3</ele>
        <time>2022-05-28T06:07:12Z</time>
      </trkpt>
      <trkpt lat="48.22747" lon="-4.22069">
        <ele>198.5</ele>
        <time>2022-05-28T06:07:23Z</time>
      </trkpt>
      <trkpt lat="48.22748" lon="-4.22063">
        <ele>198.2</ele>
        <time>2022-05-28T06:07:24Z</time>
      </trkpt>
      <trkpt lat="48.22755" lon="-4.22002">
        <ele>195.2</ele>
        <time>2022-05-28T06:07:35Z</time>
      </trkpt>
      <trkpt lat="48.22756" lon="-4.2199">
        <ele>195</ele>
        <time>2022-05-28T06:07:37Z</time>
      </trkpt>
      <trkpt lat="48.22757" lon="-4.2196">
        <ele>194.7</ele>
        <time>2022-05-28T06:07:41Z</time>
      </trkpt>
      <trkpt lat="48.22758" lon="-4.21916">
        <ele>194.3</ele>
        <time>2022-05-28T06:07:47Z</time>
      </trkpt>
      <trkpt lat="48.22756" lon="-4.21845">
        <ele>192.9</ele>
        <time>2022-05-28T06:07:58Z</time>
      </trkpt>
      <trkpt lat="48.22755" lon="-4.21839">
        <ele>192.8</ele>
        <time>2022-05-28T06:07:59Z</time>
      </trkpt>
      <trkpt lat="48.22749" lon="-4.21778">
        <ele>192.1</ele>
        <time>2022-05-28T06:08:09Z</time>
      </trkpt>
      <trkpt lat="48.22748" lon="-4.21774">
        <ele>192.1</ele>
        <time>2022-05-28T06:08:10Z</time>
      </trkpt>
      <trkpt lat="48.22736" lon="-4.21711">
        <ele>191.9</ele>
        <time>2022-05-28T06:08:23Z</time>
      </trkpt>
      <trkpt lat="48.22719" lon="-4.21646">
        <ele>191.8</ele>
        <time>2022-05-28T06:08:35Z</time>
      </trkpt>
      <trkpt lat="48.22703" lon="-4.21583">
        <ele>191.7</ele>
        <time>2022-05-28T06:08:46Z</time>
      </trkpt>
      <trkpt lat="48.22687" lon="-4.21519">
        <ele>191.6</ele>
        <time>2022-05-28T06:08:57Z</time>
      </trkpt>
      <trkpt lat="48.22675" lon="-4.21473">
        <ele>191.4</ele>
        <time>2022-05-28T06:09:04Z</time>
      </trkpt>
      <trkpt lat="48.2267" lon="-4.21453">
        <ele>190.7</ele>
        <time>2022-05-28T06:09:07Z</time>
      </trkpt>
      <trkpt lat="48.22656" lon="-4.21394">
        <ele>188.4</ele>
        <time>2022-05-28T06:09:16Z</time>
      </trkpt>
      <trkpt lat="48.22654" lon="-4.21387">
        <ele>188.1</ele>
        <time>2022-05-28T06:09:17Z</time>
      </trkpt>
      <trkpt lat="48.22648" lon="-4.21352">
        <ele>186.5</ele>
        <time>2022-05-28T06:09:22Z</time>
      </trkpt>
      <trkpt lat="48.22643" lon="-4.21316">
        <ele>184.7</ele>
        <time>2022-05-28T06:09:27Z</time>
      </trkpt>
      <trkpt lat="48.22642" lon="-4.21273">
        <ele>182.1</ele>
        <time>2022-05-28T06:09:34Z</time>
      </trkpt>
      <trkpt lat="48.22642" lon="-4.21248">
        <ele>180.3</ele>
        <time>2022-05-28T06:09:38Z</time>
      </trkpt>
      <trkpt lat="48.22643" lon="-4.21203">
        <ele>176.7</ele>
        <time>2022-05-28T06:09:46Z</time>
      </trkpt>
      <trkpt lat="48.22644" lon="-4.21181">
        <ele>175</ele>
        <time>2022-05-28T06:09:50Z</time>
      </trkpt>
      <trkpt lat="48.2264" lon="-4.21161">
        <ele>172.9</ele>
        <time>2022-05-28T06:09:55Z</time>
      </trkpt>
      <trkpt lat="48.2264" lon="-4.21158">
        <ele>172.5</ele>
        <time>2022-05-28T06:09:56Z</time>
      </trkpt>
      <trkpt lat="48.22638" lon="-4.21156">
        <ele>172.1</ele>
        <time>2022-05-28T06:09:57Z</time>
      </trkpt>
      <trkpt lat="48.22639" lon="-4.21151">
        <ele>171.7</ele>
        <time>2022-05-28T06:09:59Z</time>
      </trkpt>
      <trkpt lat="48.22621" lon="-4.21119">
        <ele>169.6</ele>
        <time>2022-05-28T06:10:09Z</time>
      </trkpt>
      <trkpt lat="48.22609" lon="-4.21098">
        <ele>168</ele>
        <time>2022-05-28T06:10:15Z</time>
      </trkpt>
      <trkpt lat="48.22587" lon="-4.21056">
        <ele>166</ele>
        <time>2022-05-28T06:10:23Z</time>
      </trkpt>
      <trkpt lat="48.22566" lon="-4.21067">
        <ele>169.5</ele>
        <time>2022-05-28T06:10:25Z</time>
      </trkpt>
      <trkpt lat="48.22566" lon="-4.21067">
        <ele>169.5</ele>
        <time>2022-05-28T06:11:07Z</time>
      </trkpt>
      <trkpt lat="48.22546" lon="-4.21083">
        <ele>173.2</ele>
        <time>2022-05-28T06:11:09Z</time>
      </trkpt>
      <trkpt lat="48.22542" lon="-4.21095">
        <ele>175</ele>
        <time>2022-05-28T06:11:15Z</time>
      </trkpt>
      <trkpt lat="48.22532" lon="-4.21119">
        <ele>178</ele>
        <time>2022-05-28T06:11:27Z</time>
      </trkpt>
      <trkpt lat="48.2253" lon="-4.21127">
        <ele>178.7</ele>
        <time>2022-05-28T06:11:31Z</time>
      </trkpt>
      <trkpt lat="48.22528" lon="-4.21134">
        <ele>179.2</ele>
        <time>2022-05-28T06:11:34Z</time>
      </trkpt>
      <trkpt lat="48.22513" lon="-4.21151">
        <ele>181.1</ele>
        <time>2022-05-28T06:11:45Z</time>
      </trkpt>
      <trkpt lat="48.22507" lon="-4.21158">
        <ele>181.6</ele>
        <time>2022-05-28T06:11:49Z</time>
      </trkpt>
      <trkpt lat="48.22484" lon="-4.21188">
        <ele>184.2</ele>
        <time>2022-05-28T06:12:08Z</time>
      </trkpt>
      <trkpt lat="48.22477" lon="-4.21198">
        <ele>185.3</ele>
        <time>2022-05-28T06:12:14Z</time>
      </trkpt>
      <trkpt lat="48.22476" lon="-4.212">
        <ele>185.4</ele>
        <time>2022-05-28T06:12:15Z</time>
      </trkpt>
      <trkpt lat="48.22482" lon="-4.21244">
        <ele>187.3</ele>
        <time>2022-05-28T06:12:27Z</time>
      </trkpt>
      <trkpt lat="48.22478" lon="-4.21273">
        <ele>189.1</ele>
        <time>2022-05-28T06:12:38Z</time>
      </trkpt>
      <trkpt lat="48.22476" lon="-4.21286">
        <ele>189.8</ele>
        <time>2022-05-28T06:12:43Z</time>
      </trkpt>
      <trkpt lat="48.22474" lon="-4.21288">
        <ele>190</ele>
        <time>2022-05-28T06:12:44Z</time>
      </trkpt>
      <trkpt lat="48.22473" lon="-4.21296">
        <ele>190.5</ele>
        <time>2022-05-28T06:12:47Z</time>
      </trkpt>
      <trkpt lat="48.22457" lon="-4.21307">
        <ele>191.7</ele>
        <time>2022-05-28T06:12:55Z</time>
      </trkpt>
      <trkpt lat="48.22454" lon="-4.21311">
        <ele>192</ele>
        <time>2022-05-28T06:12:57Z</time>
      </trkpt>
      <trkpt lat="48.22447" lon="-4.21322">
        <ele>192.8</ele>
        <time>2022-05-28T06:13:02Z</time>
      </trkpt>
      <trkpt lat="48.22441" lon="-4.21329">
        <ele>193.5</ele>
        <time>2022-05-28T06:13:06Z</time>
      </trkpt>
      <trkpt lat="48.22428" lon="-4.21326">
        <ele>194.5</ele>
        <time>2022-05-28T06:13:11Z</time>
      </trkpt>
      <trkpt lat="48.22403" lon="-4.21333">
        <ele>197.2</ele>
        <time>2022-05-28T06:13:26Z</time>
      </trkpt>
      <trkpt lat="48.22399" lon="-4.21331">
        <ele>197.4</ele>
        <time>2022-05-28T06:13:28Z</time>
      </trkpt>
      <trkpt lat="48.2237" lon="-4.21331">
        <ele>198.5</ele>
        <time>2022-05-28T06:13:38Z</time>
      </trkpt>
      <trkpt lat="48.22352" lon="-4.21332">
        <ele>199</ele>
        <time>2022-05-28T06:13:44Z</time>
      </trkpt>
      <trkpt lat="48.22319" lon="-4.21339">
        <ele>199.8</ele>
        <time>2022-05-28T06:13:55Z</time>
      </trkpt>
      <trkpt lat="48.22316" lon="-4.21341">
        <ele>199.9</ele>
        <time>2022-05-28T06:13:56Z</time>
      </trkpt>
      <trkpt lat="48.22309" lon="-4.21344">
        <ele>200.1</ele>
        <time>2022-05-28T06:13:58Z</time>
      </trkpt>
      <trkpt lat="48.22266" lon="-4.21379">
        <ele>201.1</ele>
        <time>2022-05-28T06:14:11Z</time>
      </trkpt>
      <trkpt lat="48.22234" lon="-4.21396">
        <ele>201.6</ele>
        <time>2022-05-28T06:14:19Z</time>
      </trkpt>
      <trkpt lat="48.22222" lon="-4.21403">
        <ele>201.2</ele>
        <time>2022-05-28T06:14:22Z</time>
      </trkpt>
      <trkpt lat="48.22187" lon="-4.21413">
        <ele>200.3</ele>
        <time>2022-05-28T06:14:29Z</time>
      </trkpt>
      <trkpt lat="48.22176" lon="-4.21421">
        <ele>200.1</ele>
        <time>2022-05-28T06:14:31Z</time>
      </trkpt>
      <trkpt lat="48.22143" lon="-4.21442">
        <ele>199.1</ele>
        <time>2022-05-28T06:14:37Z</time>
      </trkpt>
      <trkpt lat="48.22097" lon="-4.21459">
        <ele>197.9</ele>
        <time>2022-05-28T06:14:45Z</time>
      </trkpt>
      <trkpt lat="48.22076" lon="-4.21469">
        <ele>197.4</ele>
        <time>2022-05-28T06:14:49Z</time>
      </trkpt>
      <trkpt lat="48.22051" lon="-4.21482">
        <ele>197.9</ele>
        <time>2022-05-28T06:14:54Z</time>
      </trkpt>
      <trkpt lat="48.22028" lon="-4.21499">
        <ele>198.5</ele>
        <time>2022-05-28T06:15:01Z</time>
      </trkpt>
      <trkpt lat="48.22007" lon="-4.21513">
        <ele>199.1</ele>
        <time>2022-05-28T06:15:07Z</time>
      </trkpt>
      <trkpt lat="48.2199" lon="-4.21525">
        <ele>199.7</ele>
        <time>2022-05-28T06:15:12Z</time>
      </trkpt>
      <trkpt lat="48.21986" lon="-4.21528">
        <ele>199.8</ele>
        <time>2022-05-28T06:15:13Z</time>
      </trkpt>
      <trkpt lat="48.21948" lon="-4.21563">
        <ele>200</ele>
        <time>2022-05-28T06:15:24Z</time>
      </trkpt>
      <trkpt lat="48.21906" lon="-4.21591">
        <ele>200.2</ele>
        <time>2022-05-28T06:15:35Z</time>
      </trkpt>
      <trkpt lat="48.2187" lon="-4.21621">
        <ele>200.3</ele>
        <time>2022-05-28T06:15:46Z</time>
      </trkpt>
      <trkpt lat="48.21865" lon="-4.21623">
        <ele>200.4</ele>
        <time>2022-05-28T06:15:47Z</time>
      </trkpt>
      <trkpt lat="48.21824" lon="-4.21658">
        <ele>200.5</ele>
        <time>2022-05-28T06:15:57Z</time>
      </trkpt>
      <trkpt lat="48.21726" lon="-4.21723">
        <ele>201.1</ele>
        <time>2022-05-28T06:16:14Z</time>
      </trkpt>
      <trkpt lat="48.21726" lon="-4.21723">
        <ele>201.1</ele>
        <time>2022-05-28T06:16:55Z</time>
      </trkpt>
      <trkpt lat="48.21671" lon="-4.21757">
        <ele>201.6</ele>
        <time>2022-05-28T06:17:05Z</time>
      </trkpt>
      <trkpt lat="48.21626" lon="-4.21779">
        <ele>201.8</ele>
        <time>2022-05-28T06:17:20Z</time>
      </trkpt>
      <trkpt lat="48.21597" lon="-4.21795">
        <ele>202</ele>
        <time>2022-05-28T06:17:29Z</time>
      </trkpt>
      <trkpt lat="48.21585" lon="-4.21804">
        <ele>202.1</ele>
        <time>2022-05-28T06:17:35Z</time>
      </trkpt>
      <trkpt lat="48.21579" lon="-4.21806">
        <ele>202.1</ele>
        <time>2022-05-28T06:17:37Z</time>
      </trkpt>
      <trkpt lat="48.21535" lon="-4.21834">
        <ele>202.3</ele>
        <time>2022-05-28T06:17:51Z</time>
      </trkpt>
      <trkpt lat="48.21495" lon="-4.21865">
        <ele>202.5</ele>
        <time>2022-05-28T06:18:01Z</time>
      </trkpt>
      <trkpt lat="48.21456" lon="-4.21904">
        <ele>202.7</ele>
        <time>2022-05-28T06:18:14Z</time>
      </trkpt>
      <trkpt lat="48.21418" lon="-4.21945">
        <ele>202.9</ele>
        <time>2022-05-28T06:18:26Z</time>
      </trkpt>
      <trkpt lat="48.21415" lon="-4.21949">
        <ele>202.9</ele>
        <time>2022-05-28T06:18:27Z</time>
      </trkpt>
      <trkpt lat="48.21392" lon="-4.21977">
        <ele>203.4</ele>
        <time>2022-05-28T06:18:35Z</time>
      </trkpt>
      <trkpt lat="48.21362" lon="-4.22034">
        <ele>204.1</ele>
        <time>2022-05-28T06:18:47Z</time>
      </trkpt>
      <trkpt lat="48.21342" lon="-4.22091">
        <ele>204.7</ele>
        <time>2022-05-28T06:18:57Z</time>
      </trkpt>
      <trkpt lat="48.21348" lon="-4.22135">
        <ele>205.3</ele>
        <time>2022-05-28T06:19:06Z</time>
      </trkpt>
      <trkpt lat="48.21349" lon="-4.22138">
        <ele>205.4</ele>
        <time>2022-05-28T06:19:07Z</time>
      </trkpt>
      <trkpt lat="48.21377" lon="-4.22186">
        <ele>208.4</ele>
        <time>2022-05-28T06:19:24Z</time>
      </trkpt>
      <trkpt lat="48.21379" lon="-4.22188">
        <ele>208.6</ele>
        <time>2022-05-28T06:19:25Z</time>
      </trkpt>
      <trkpt lat="48.21405" lon="-4.22218">
        <ele>211.6</ele>
        <time>2022-05-28T06:19:43Z</time>
      </trkpt>
      <trkpt lat="48.21462" lon="-4.22296">
        <ele>219.6</ele>
        <time>2022-05-28T06:19:50Z</time>
      </trkpt>
      <trkpt lat="48.21462" lon="-4.22296">
        <ele>219.6</ele>
        <time>2022-05-28T06:22:48Z</time>
      </trkpt>
      <trkpt lat="48.2151" lon="-4.22365">
        <ele>226.5</ele>
        <time>2022-05-28T06:22:49Z</time>
      </trkpt>
      <trkpt lat="48.21524" lon="-4.22408">
        <ele>229.6</ele>
        <time>2022-05-28T06:23:07Z</time>
      </trkpt>
      <trkpt lat="48.2153" lon="-4.22425">
        <ele>231</ele>
        <time>2022-05-28T06:23:14Z</time>
      </trkpt>
      <trkpt lat="48.21533" lon="-4.22435">
        <ele>232</ele>
        <time>2022-05-28T06:23:19Z</time>
      </trkpt>
      <trkpt lat="48.21533" lon="-4.22438">
        <ele>232.2</ele>
        <time>2022-05-28T06:23:20Z</time>
      </trkpt>
      <trkpt lat="48.21534" lon="-4.2244">
        <ele>232.4</ele>
        <time>2022-05-28T06:23:21Z</time>
      </trkpt>
      <trkpt lat="48.21518" lon="-4.22485">
        <ele>232.9</ele>
        <time>2022-05-28T06:23:27Z</time>
      </trkpt>
      <trkpt lat="48.21518" lon="-4.22485">
        <ele>232.9</ele>
        <time>2022-05-28T06:24:34Z</time>
      </trkpt>
      <trkpt lat="48.21501" lon="-4.22521">
        <ele>232.6</ele>
        <time>2022-05-28T06:24:34Z</time>
      </trkpt>
      <trkpt lat="48.21497" lon="-4.22523">
        <ele>232.6</ele>
        <time>2022-05-28T06:24:35Z</time>
      </trkpt>
      <trkpt lat="48.21494" lon="-4.22526">
        <ele>232.6</ele>
        <time>2022-05-28T06:24:36Z</time>
      </trkpt>
      <trkpt lat="48.21479" lon="-4.22528">
        <ele>232.5</ele>
        <time>2022-05-28T06:24:39Z</time>
      </trkpt>
      <trkpt lat="48.21463" lon="-4.22534">
        <ele>232.4</ele>
        <time>2022-05-28T06:24:42Z</time>
      </trkpt>
      <trkpt lat="48.21437" lon="-4.22542">
        <ele>230.7</ele>
        <time>2022-05-28T06:24:47Z</time>
      </trkpt>
      <trkpt lat="48.21433" lon="-4.22541">
        <ele>230.4</ele>
        <time>2022-05-28T06:24:48Z</time>
      </trkpt>
      <trkpt lat="48.21405" lon="-4.22535">
        <ele>227.7</ele>
        <time>2022-05-28T06:24:55Z</time>
      </trkpt>
      <trkpt lat="48.21392" lon="-4.22523">
        <ele>225.8</ele>
        <time>2022-05-28T06:25:00Z</time>
      </trkpt>
      <trkpt lat="48.21385" lon="-4.22518">
        <ele>225.3</ele>
        <time>2022-05-28T06:25:03Z</time>
      </trkpt>
      <trkpt lat="48.2136" lon="-4.22546">
        <ele>223.8</ele>
        <time>2022-05-28T06:25:12Z</time>
      </trkpt>
      <trkpt lat="48.21349" lon="-4.22559">
        <ele>223.9</ele>
        <time>2022-05-28T06:25:16Z</time>
      </trkpt>
      <trkpt lat="48.21343" lon="-4.22567">
        <ele>223.9</ele>
        <time>2022-05-28T06:25:18Z</time>
      </trkpt>
      <trkpt lat="48.21316" lon="-4.22607">
        <ele>223.3</ele>
        <time>2022-05-28T06:25:28Z</time>
      </trkpt>
      <trkpt lat="48.21287" lon="-4.22648">
        <ele>222.8</ele>
        <time>2022-05-28T06:25:38Z</time>
      </trkpt>
      <trkpt lat="48.21278" lon="-4.22649">
        <ele>222.6</ele>
        <time>2022-05-28T06:25:40Z</time>
      </trkpt>
      <trkpt lat="48.21248" lon="-4.22616">
        <ele>222.2</ele>
        <time>2022-05-28T06:25:47Z</time>
      </trkpt>
      <trkpt lat="48.21244" lon="-4.22617">
        <ele>222.1</ele>
        <time>2022-05-28T06:25:48Z</time>
      </trkpt>
      <trkpt lat="48.21235" lon="-4.22618">
        <ele>221.3</ele>
        <time>2022-05-28T06:25:50Z</time>
      </trkpt>
      <trkpt lat="48.21222" lon="-4.22616">
        <ele>219.7</ele>
        <time>2022-05-28T06:25:54Z</time>
      </trkpt>
      <trkpt lat="48.21197" lon="-4.22613">
        <ele>217.9</ele>
        <time>2022-05-28T06:26:02Z</time>
      </trkpt>
      <trkpt lat="48.21192" lon="-4.22601">
        <ele>217.3</ele>
        <time>2022-05-28T06:26:05Z</time>
      </trkpt>
      <trkpt lat="48.21191" lon="-4.22595">
        <ele>217</ele>
        <time>2022-05-28T06:26:06Z</time>
      </trkpt>
      <trkpt lat="48.21186" lon="-4.22559">
        <ele>215.3</ele>
        <time>2022-05-28T06:26:12Z</time>
      </trkpt>
      <trkpt lat="48.21182" lon="-4.22527">
        <ele>212.8</ele>
        <time>2022-05-28T06:26:17Z</time>
      </trkpt>
      <trkpt lat="48.21181" lon="-4.22465">
        <ele>209.1</ele>
        <time>2022-05-28T06:26:24Z</time>
      </trkpt>
      <trkpt lat="48.21181" lon="-4.22457">
        <ele>208.4</ele>
        <time>2022-05-28T06:26:25Z</time>
      </trkpt>
      <trkpt lat="48.21175" lon="-4.22426">
        <ele>204.9</ele>
        <time>2022-05-28T06:26:30Z</time>
      </trkpt>
      <trkpt lat="48.21171" lon="-4.22409">
        <ele>202.7</ele>
        <time>2022-05-28T06:26:33Z</time>
      </trkpt>
      <trkpt lat="48.21162" lon="-4.224">
        <ele>200.5</ele>
        <time>2022-05-28T06:26:36Z</time>
      </trkpt>
      <trkpt lat="48.21159" lon="-4.22399">
        <ele>200.1</ele>
        <time>2022-05-28T06:26:37Z</time>
      </trkpt>
      <trkpt lat="48.21139" lon="-4.22405">
        <ele>198.4</ele>
        <time>2022-05-28T06:26:41Z</time>
      </trkpt>
      <trkpt lat="48.21114" lon="-4.22428">
        <ele>196.3</ele>
        <time>2022-05-28T06:26:46Z</time>
      </trkpt>
      <trkpt lat="48.21099" lon="-4.22442">
        <ele>195.8</ele>
        <time>2022-05-28T06:26:49Z</time>
      </trkpt>
      <trkpt lat="48.21089" lon="-4.22448">
        <ele>195.4</ele>
        <time>2022-05-28T06:26:51Z</time>
      </trkpt>
      <trkpt lat="48.2107" lon="-4.2246">
        <ele>193.5</ele>
        <time>2022-05-28T06:26:55Z</time>
      </trkpt>
      <trkpt lat="48.21059" lon="-4.22457">
        <ele>192.6</ele>
        <time>2022-05-28T06:26:57Z</time>
      </trkpt>
      <trkpt lat="48.21043" lon="-4.22444">
        <ele>191.2</ele>
        <time>2022-05-28T06:27:00Z</time>
      </trkpt>
      <trkpt lat="48.21035" lon="-4.22443">
        <ele>190.8</ele>
        <time>2022-05-28T06:27:01Z</time>
      </trkpt>
      <trkpt lat="48.21028" lon="-4.22446">
        <ele>190.3</ele>
        <time>2022-05-28T06:27:02Z</time>
      </trkpt>
      <trkpt lat="48.21008" lon="-4.22458">
        <ele>188.9</ele>
        <time>2022-05-28T06:27:05Z</time>
      </trkpt>
      <trkpt lat="48.20988" lon="-4.22491">
        <ele>187.1</ele>
        <time>2022-05-28T06:27:09Z</time>
      </trkpt>
      <trkpt lat="48.20983" lon="-4.225">
        <ele>186.6</ele>
        <time>2022-05-28T06:27:10Z</time>
      </trkpt>
      <trkpt lat="48.20957" lon="-4.22524">
        <ele>184.9</ele>
        <time>2022-05-28T06:27:14Z</time>
      </trkpt>
      <trkpt lat="48.20917" lon="-4.22553">
        <ele>184.1</ele>
        <time>2022-05-28T06:27:21Z</time>
      </trkpt>
      <trkpt lat="48.20899" lon="-4.22568">
        <ele>183.6</ele>
        <time>2022-05-28T06:27:26Z</time>
      </trkpt>
      <trkpt lat="48.20877" lon="-4.22588">
        <ele>183.3</ele>
        <time>2022-05-28T06:27:32Z</time>
      </trkpt>
      <trkpt lat="48.20836" lon="-4.22625">
        <ele>183</ele>
        <time>2022-05-28T06:27:41Z</time>
      </trkpt>
      <trkpt lat="48.20834" lon="-4.22633">
        <ele>182.9</ele>
        <time>2022-05-28T06:27:42Z</time>
      </trkpt>
      <trkpt lat="48.2082" lon="-4.2265">
        <ele>182.8</ele>
        <time>2022-05-28T06:27:45Z</time>
      </trkpt>
      <trkpt lat="48.20779" lon="-4.22679">
        <ele>182.5</ele>
        <time>2022-05-28T06:27:53Z</time>
      </trkpt>
      <trkpt lat="48.20754" lon="-4.22697">
        <ele>182.2</ele>
        <time>2022-05-28T06:27:59Z</time>
      </trkpt>
      <trkpt lat="48.20693" lon="-4.22721">
        <ele>181.4</ele>
        <time>2022-05-28T06:28:09Z</time>
      </trkpt>
      <trkpt lat="48.20693" lon="-4.22721">
        <ele>181.4</ele>
        <time>2022-05-28T06:28:41Z</time>
      </trkpt>
      <trkpt lat="48.20653" lon="-4.2273">
        <ele>180.8</ele>
        <time>2022-05-28T06:28:50Z</time>
      </trkpt>
      <trkpt lat="48.20643" lon="-4.22744">
        <ele>180.9</ele>
        <time>2022-05-28T06:28:53Z</time>
      </trkpt>
      <trkpt lat="48.20629" lon="-4.22769">
        <ele>181</ele>
        <time>2022-05-28T06:28:57Z</time>
      </trkpt>
      <trkpt lat="48.20625" lon="-4.22774">
        <ele>181.1</ele>
        <time>2022-05-28T06:28:58Z</time>
      </trkpt>
      <trkpt lat="48.20616" lon="-4.22792">
        <ele>181.1</ele>
        <time>2022-05-28T06:29:01Z</time>
      </trkpt>
      <trkpt lat="48.20585" lon="-4.22817">
        <ele>181.4</ele>
        <time>2022-05-28T06:29:08Z</time>
      </trkpt>
      <trkpt lat="48.20563" lon="-4.22829">
        <ele>181.6</ele>
        <time>2022-05-28T06:29:15Z</time>
      </trkpt>
      <trkpt lat="48.20562" lon="-4.22842">
        <ele>181.6</ele>
        <time>2022-05-28T06:29:16Z</time>
      </trkpt>
      <trkpt lat="48.20559" lon="-4.22856">
        <ele>181.7</ele>
        <time>2022-05-28T06:29:19Z</time>
      </trkpt>
      <trkpt lat="48.20547" lon="-4.22909">
        <ele>183.2</ele>
        <time>2022-05-28T06:29:30Z</time>
      </trkpt>
      <trkpt lat="48.20548" lon="-4.22946">
        <ele>184.2</ele>
        <time>2022-05-28T06:29:37Z</time>
      </trkpt>
      <trkpt lat="48.20549" lon="-4.22978">
        <ele>185.1</ele>
        <time>2022-05-28T06:29:43Z</time>
      </trkpt>
      <trkpt lat="48.20551" lon="-4.23021">
        <ele>186.2</ele>
        <time>2022-05-28T06:29:51Z</time>
      </trkpt>
      <trkpt lat="48.20554" lon="-4.23041">
        <ele>186.8</ele>
        <time>2022-05-28T06:29:55Z</time>
      </trkpt>
      <trkpt lat="48.20555" lon="-4.23046">
        <ele>187</ele>
        <time>2022-05-28T06:29:56Z</time>
      </trkpt>
      <trkpt lat="48.20556" lon="-4.2305">
        <ele>187.1</ele>
        <time>2022-05-28T06:29:57Z</time>
      </trkpt>
      <trkpt lat="48.20556" lon="-4.23055">
        <ele>187.3</ele>
        <time>2022-05-28T06:29:58Z</time>
      </trkpt>
      <trkpt lat="48.20572" lon="-4.23119">
        <ele>189.5</ele>
        <time>2022-05-28T06:30:11Z</time>
      </trkpt>
      <trkpt lat="48.20579" lon="-4.23151">
        <ele>190.6</ele>
        <time>2022-05-28T06:30:18Z</time>
      </trkpt>
      <trkpt lat="48.20586" lon="-4.23184">
        <ele>191.9</ele>
        <time>2022-05-28T06:30:25Z</time>
      </trkpt>
      <trkpt lat="48.20597" lon="-4.23233">
        <ele>193.8</ele>
        <time>2022-05-28T06:30:36Z</time>
      </trkpt>
      <trkpt lat="48.20602" lon="-4.23251">
        <ele>194.6</ele>
        <time>2022-05-28T06:30:40Z</time>
      </trkpt>
      <trkpt lat="48.20618" lon="-4.2331">
        <ele>197</ele>
        <time>2022-05-28T06:30:53Z</time>
      </trkpt>
      <trkpt lat="48.20619" lon="-4.23314">
        <ele>197.2</ele>
        <time>2022-05-28T06:30:54Z</time>
      </trkpt>
      <trkpt lat="48.20614" lon="-4.23382">
        <ele>199.1</ele>
        <time>2022-05-28T06:31:08Z</time>
      </trkpt>
      <trkpt lat="48.20593" lon="-4.23413">
        <ele>200.2</ele>
        <time>2022-05-28T06:31:16Z</time>
      </trkpt>
      <trkpt lat="48.20589" lon="-4.23413">
        <ele>200.4</ele>
        <time>2022-05-28T06:31:17Z</time>
      </trkpt>
      <trkpt lat="48.20546" lon="-4.23424">
        <ele>202.8</ele>
        <time>2022-05-28T06:31:30Z</time>
      </trkpt>
      <trkpt lat="48.2053" lon="-4.23418">
        <ele>203.7</ele>
        <time>2022-05-28T06:31:35Z</time>
      </trkpt>
      <trkpt lat="48.20502" lon="-4.23407">
        <ele>205.3</ele>
        <time>2022-05-28T06:31:44Z</time>
      </trkpt>
      <trkpt lat="48.20475" lon="-4.23393">
        <ele>206.9</ele>
        <time>2022-05-28T06:31:53Z</time>
      </trkpt>
      <trkpt lat="48.20457" lon="-4.23385">
        <ele>207.9</ele>
        <time>2022-05-28T06:31:59Z</time>
      </trkpt>
      <trkpt lat="48.2042" lon="-4.23381">
        <ele>210.1</ele>
        <time>2022-05-28T06:32:11Z</time>
      </trkpt>
      <trkpt lat="48.20411" lon="-4.23381">
        <ele>210.7</ele>
        <time>2022-05-28T06:32:14Z</time>
      </trkpt>
      <trkpt lat="48.20369" lon="-4.23404">
        <ele>213.5</ele>
        <time>2022-05-28T06:32:29Z</time>
      </trkpt>
      <trkpt lat="48.20366" lon="-4.23405">
        <ele>213.7</ele>
        <time>2022-05-28T06:32:30Z</time>
      </trkpt>
      <trkpt lat="48.20321" lon="-4.23424">
        <ele>216.3</ele>
        <time>2022-05-28T06:32:45Z</time>
      </trkpt>
      <trkpt lat="48.20315" lon="-4.23423">
        <ele>216.7</ele>
        <time>2022-05-28T06:32:47Z</time>
      </trkpt>
      <trkpt lat="48.20276" lon="-4.2342">
        <ele>219</ele>
        <time>2022-05-28T06:33:00Z</time>
      </trkpt>
      <trkpt lat="48.20248" lon="-4.23413">
        <ele>220.6</ele>
        <time>2022-05-28T06:33:09Z</time>
      </trkpt>
      <trkpt lat="48.20216" lon="-4.23419">
        <ele>221.1</ele>
        <time>2022-05-28T06:33:17Z</time>
      </trkpt>
      <trkpt lat="48.20216" lon="-4.23419">
        <ele>221.1</ele>
        <time>2022-05-28T06:39:36Z</time>
      </trkpt>
      <trkpt lat="48.202" lon="-4.23427">
        <ele>221.1</ele>
        <time>2022-05-28T06:39:36Z</time>
      </trkpt>
      <trkpt lat="48.20188" lon="-4.23473">
        <ele>221.1</ele>
        <time>2022-05-28T06:39:47Z</time>
      </trkpt>
      <trkpt lat="48.20161" lon="-4.2349">
        <ele>221.1</ele>
        <time>2022-05-28T06:39:56Z</time>
      </trkpt>
      <trkpt lat="48.20115" lon="-4.23494">
        <ele>221.1</ele>
        <time>2022-05-28T06:40:08Z</time>
      </trkpt>
      <trkpt lat="48.2009" lon="-4.23499">
        <ele>221.1</ele>
        <time>2022-05-28T06:40:15Z</time>
      </trkpt>
      <trkpt lat="48.20082" lon="-4.23518">
        <ele>221</ele>
        <time>2022-05-28T06:40:20Z</time>
      </trkpt>
      <trkpt lat="48.20077" lon="-4.2359">
        <ele>221</ele>
        <time>2022-05-28T06:40:33Z</time>
      </trkpt>
      <trkpt lat="48.20066" lon="-4.23658">
        <ele>221</ele>
        <time>2022-05-28T06:40:45Z</time>
      </trkpt>
      <trkpt lat="48.20005" lon="-4.23763">
        <ele>218.7</ele>
        <time>2022-05-28T06:40:59Z</time>
      </trkpt>
      <trkpt lat="48.20005" lon="-4.23763">
        <ele>218.7</ele>
        <time>2022-05-28T06:41:36Z</time>
      </trkpt>
      <trkpt lat="48.19966" lon="-4.23804">
        <ele>216.5</ele>
        <time>2022-05-28T06:41:43Z</time>
      </trkpt>
      <trkpt lat="48.1995" lon="-4.23814">
        <ele>216</ele>
        <time>2022-05-28T06:41:47Z</time>
      </trkpt>
      <trkpt lat="48.19924" lon="-4.23829">
        <ele>214.1</ele>
        <time>2022-05-28T06:41:53Z</time>
      </trkpt>
      <trkpt lat="48.19876" lon="-4.23847">
        <ele>211.7</ele>
        <time>2022-05-28T06:42:02Z</time>
      </trkpt>
      <trkpt lat="48.19828" lon="-4.2386">
        <ele>208.8</ele>
        <time>2022-05-28T06:42:07Z</time>
      </trkpt>
      <trkpt lat="48.19828" lon="-4.2386">
        <ele>208.8</ele>
        <time>2022-05-28T06:42:49Z</time>
      </trkpt>
      <trkpt lat="48.19785" lon="-4.23872">
        <ele>206.5</ele>
        <time>2022-05-28T06:42:55Z</time>
      </trkpt>
      <trkpt lat="48.1974" lon="-4.23883">
        <ele>205.8</ele>
        <time>2022-05-28T06:43:05Z</time>
      </trkpt>
      <trkpt lat="48.19711" lon="-4.23891">
        <ele>205.3</ele>
        <time>2022-05-28T06:43:11Z</time>
      </trkpt>
      <trkpt lat="48.19691" lon="-4.23897">
        <ele>204.4</ele>
        <time>2022-05-28T06:43:15Z</time>
      </trkpt>
      <trkpt lat="48.19671" lon="-4.23905">
        <ele>203.3</ele>
        <time>2022-05-28T06:43:20Z</time>
      </trkpt>
      <trkpt lat="48.19662" lon="-4.23921">
        <ele>202.4</ele>
        <time>2022-05-28T06:43:24Z</time>
      </trkpt>
      <trkpt lat="48.1966" lon="-4.23952">
        <ele>201.3</ele>
        <time>2022-05-28T06:43:29Z</time>
      </trkpt>
      <trkpt lat="48.19658" lon="-4.23994">
        <ele>199.4</ele>
        <time>2022-05-28T06:43:36Z</time>
      </trkpt>
      <trkpt lat="48.19656" lon="-4.24052">
        <ele>196.9</ele>
        <time>2022-05-28T06:43:45Z</time>
      </trkpt>
      <trkpt lat="48.19655" lon="-4.24065">
        <ele>196.3</ele>
        <time>2022-05-28T06:43:47Z</time>
      </trkpt>
      <trkpt lat="48.19649" lon="-4.24124">
        <ele>193.8</ele>
        <time>2022-05-28T06:43:55Z</time>
      </trkpt>
      <trkpt lat="48.19643" lon="-4.24129">
        <ele>193.3</ele>
        <time>2022-05-28T06:43:57Z</time>
      </trkpt>
      <trkpt lat="48.19636" lon="-4.24133">
        <ele>192.9</ele>
        <time>2022-05-28T06:43:59Z</time>
      </trkpt>
      <trkpt lat="48.19593" lon="-4.24133">
        <ele>191.1</ele>
        <time>2022-05-28T06:44:09Z</time>
      </trkpt>
      <trkpt lat="48.19589" lon="-4.24133">
        <ele>190.8</ele>
        <time>2022-05-28T06:44:10Z</time>
      </trkpt>
      <trkpt lat="48.1954" lon="-4.24135">
        <ele>187.5</ele>
        <time>2022-05-28T06:44:21Z</time>
      </trkpt>
      <trkpt lat="48.19496" lon="-4.24135">
        <ele>182.7</ele>
        <time>2022-05-28T06:44:33Z</time>
      </trkpt>
      <trkpt lat="48.19493" lon="-4.24135">
        <ele>182.3</ele>
        <time>2022-05-28T06:44:34Z</time>
      </trkpt>
      <trkpt lat="48.19451" lon="-4.24138">
        <ele>178.1</ele>
        <time>2022-05-28T06:44:45Z</time>
      </trkpt>
      <trkpt lat="48.19447" lon="-4.24138">
        <ele>177.7</ele>
        <time>2022-05-28T06:44:46Z</time>
      </trkpt>
      <trkpt lat="48.19396" lon="-4.24133">
        <ele>173.2</ele>
        <time>2022-05-28T06:44:57Z</time>
      </trkpt>
      <trkpt lat="48.19353" lon="-4.24124">
        <ele>168.1</ele>
        <time>2022-05-28T06:45:03Z</time>
      </trkpt>
      <trkpt lat="48.19345" lon="-4.24122">
        <ele>166.8</ele>
        <time>2022-05-28T06:45:04Z</time>
      </trkpt>
      <trkpt lat="48.19303" lon="-4.2411">
        <ele>160.2</ele>
        <time>2022-05-28T06:45:09Z</time>
      </trkpt>
      <trkpt lat="48.19294" lon="-4.24108">
        <ele>158.7</ele>
        <time>2022-05-28T06:45:10Z</time>
      </trkpt>
      <trkpt lat="48.19248" lon="-4.24102">
        <ele>151.2</ele>
        <time>2022-05-28T06:45:15Z</time>
      </trkpt>
      <trkpt lat="48.19201" lon="-4.24096">
        <ele>144.8</ele>
        <time>2022-05-28T06:45:20Z</time>
      </trkpt>
      <trkpt lat="48.1919" lon="-4.24094">
        <ele>143.5</ele>
        <time>2022-05-28T06:45:21Z</time>
      </trkpt>
      <trkpt lat="48.19171" lon="-4.2409">
        <ele>140.7</ele>
        <time>2022-05-28T06:45:23Z</time>
      </trkpt>
      <trkpt lat="48.19148" lon="-4.24086">
        <ele>135.2</ele>
        <time>2022-05-28T06:45:27Z</time>
      </trkpt>
      <trkpt lat="48.19127" lon="-4.24083">
        <ele>131.5</ele>
        <time>2022-05-28T06:45:31Z</time>
      </trkpt>
      <trkpt lat="48.19124" lon="-4.24084">
        <ele>129.9</ele>
        <time>2022-05-28T06:45:33Z</time>
      </trkpt>
      <trkpt lat="48.19119" lon="-4.24089">
        <ele>128.3</ele>
        <time>2022-05-28T06:45:37Z</time>
      </trkpt>
      <trkpt lat="48.19109" lon="-4.24135">
        <ele>126</ele>
        <time>2022-05-28T06:45:43Z</time>
      </trkpt>
      <trkpt lat="48.19104" lon="-4.24158">
        <ele>124.9</ele>
        <time>2022-05-28T06:45:46Z</time>
      </trkpt>
      <trkpt lat="48.19089" lon="-4.24228">
        <ele>121.4</ele>
        <time>2022-05-28T06:45:55Z</time>
      </trkpt>
      <trkpt lat="48.19088" lon="-4.24237">
        <ele>121</ele>
        <time>2022-05-28T06:45:56Z</time>
      </trkpt>
      <trkpt lat="48.19081" lon="-4.24267">
        <ele>119.1</ele>
        <time>2022-05-28T06:46:00Z</time>
      </trkpt>
      <trkpt lat="48.19082" lon="-4.24326">
        <ele>116.7</ele>
        <time>2022-05-28T06:46:05Z</time>
      </trkpt>
      <trkpt lat="48.19083" lon="-4.24339">
        <ele>115.8</ele>
        <time>2022-05-28T06:46:07Z</time>
      </trkpt>
      <trkpt lat="48.19089" lon="-4.24398">
        <ele>113.3</ele>
        <time>2022-05-28T06:46:16Z</time>
      </trkpt>
      <trkpt lat="48.19088" lon="-4.24412">
        <ele>112.4</ele>
        <time>2022-05-28T06:46:19Z</time>
      </trkpt>
      <trkpt lat="48.19086" lon="-4.2442">
        <ele>111.7</ele>
        <time>2022-05-28T06:46:21Z</time>
      </trkpt>
      <trkpt lat="48.19084" lon="-4.24419">
        <ele>111.3</ele>
        <time>2022-05-28T06:46:22Z</time>
      </trkpt>
      <trkpt lat="48.19079" lon="-4.24424">
        <ele>110.2</ele>
        <time>2022-05-28T06:46:25Z</time>
      </trkpt>
      <trkpt lat="48.19049" lon="-4.24422">
        <ele>107.9</ele>
        <time>2022-05-28T06:46:31Z</time>
      </trkpt>
      <trkpt lat="48.19033" lon="-4.2442">
        <ele>107</ele>
        <time>2022-05-28T06:46:34Z</time>
      </trkpt>
      <trkpt lat="48.18985" lon="-4.24416">
        <ele>104.6</ele>
        <time>2022-05-28T06:46:42Z</time>
      </trkpt>
      <trkpt lat="48.18984" lon="-4.24417">
        <ele>104.3</ele>
        <time>2022-05-28T06:46:43Z</time>
      </trkpt>
      <trkpt lat="48.18972" lon="-4.24422">
        <ele>103.3</ele>
        <time>2022-05-28T06:46:47Z</time>
      </trkpt>
      <trkpt lat="48.18957" lon="-4.24435">
        <ele>103.1</ele>
        <time>2022-05-28T06:46:48Z</time>
      </trkpt>
      <trkpt lat="48.18955" lon="-4.24442">
        <ele>102.8</ele>
        <time>2022-05-28T06:46:49Z</time>
      </trkpt>
      <trkpt lat="48.18942" lon="-4.24501">
        <ele>100.6</ele>
        <time>2022-05-28T06:46:57Z</time>
      </trkpt>
      <trkpt lat="48.18928" lon="-4.24535">
        <ele>99.4</ele>
        <time>2022-05-28T06:47:01Z</time>
      </trkpt>
      <trkpt lat="48.18901" lon="-4.24576">
        <ele>98.1</ele>
        <time>2022-05-28T06:47:06Z</time>
      </trkpt>
      <trkpt lat="48.18898" lon="-4.24592">
        <ele>97.8</ele>
        <time>2022-05-28T06:47:07Z</time>
      </trkpt>
      <trkpt lat="48.18897" lon="-4.24663">
        <ele>96.3</ele>
        <time>2022-05-28T06:47:13Z</time>
      </trkpt>
      <trkpt lat="48.18889" lon="-4.24733">
        <ele>95.6</ele>
        <time>2022-05-28T06:47:20Z</time>
      </trkpt>
      <trkpt lat="48.18879" lon="-4.24781">
        <ele>95</ele>
        <time>2022-05-28T06:47:25Z</time>
      </trkpt>
      <trkpt lat="48.18876" lon="-4.24799">
        <ele>94.7</ele>
        <time>2022-05-28T06:47:27Z</time>
      </trkpt>
      <trkpt lat="48.18864" lon="-4.24845">
        <ele>93.6</ele>
        <time>2022-05-28T06:47:33Z</time>
      </trkpt>
      <trkpt lat="48.1885" lon="-4.24868">
        <ele>92.8</ele>
        <time>2022-05-28T06:47:37Z</time>
      </trkpt>
      <trkpt lat="48.18843" lon="-4.2488">
        <ele>92.1</ele>
        <time>2022-05-28T06:47:39Z</time>
      </trkpt>
      <trkpt lat="48.18836" lon="-4.24905">
        <ele>91.2</ele>
        <time>2022-05-28T06:47:42Z</time>
      </trkpt>
      <trkpt lat="48.18824" lon="-4.24946">
        <ele>91.6</ele>
        <time>2022-05-28T06:47:47Z</time>
      </trkpt>
      <trkpt lat="48.18805" lon="-4.25016">
        <ele>90.8</ele>
        <time>2022-05-28T06:47:56Z</time>
      </trkpt>
      <trkpt lat="48.18786" lon="-4.25084">
        <ele>90.2</ele>
        <time>2022-05-28T06:48:04Z</time>
      </trkpt>
      <trkpt lat="48.18768" lon="-4.25146">
        <ele>89.5</ele>
        <time>2022-05-28T06:48:11Z</time>
      </trkpt>
      <trkpt lat="48.18751" lon="-4.25211">
        <ele>88.6</ele>
        <time>2022-05-28T06:48:19Z</time>
      </trkpt>
      <trkpt lat="48.18751" lon="-4.25227">
        <ele>88.2</ele>
        <time>2022-05-28T06:48:22Z</time>
      </trkpt>
      <trkpt lat="48.18746" lon="-4.25229">
        <ele>88</ele>
        <time>2022-05-28T06:48:23Z</time>
      </trkpt>
      <trkpt lat="48.18715" lon="-4.25236">
        <ele>86.5</ele>
        <time>2022-05-28T06:48:29Z</time>
      </trkpt>
      <trkpt lat="48.18699" lon="-4.2524">
        <ele>85.4</ele>
        <time>2022-05-28T06:48:32Z</time>
      </trkpt>
      <trkpt lat="48.18681" lon="-4.25238">
        <ele>84.2</ele>
        <time>2022-05-28T06:48:35Z</time>
      </trkpt>
      <trkpt lat="48.18652" lon="-4.25233">
        <ele>82.4</ele>
        <time>2022-05-28T06:48:40Z</time>
      </trkpt>
      <trkpt lat="48.18626" lon="-4.25168">
        <ele>80.2</ele>
        <time>2022-05-28T06:48:46Z</time>
      </trkpt>
      <trkpt lat="48.18623" lon="-4.25158">
        <ele>79.9</ele>
        <time>2022-05-28T06:48:47Z</time>
      </trkpt>
      <trkpt lat="48.18606" lon="-4.2511">
        <ele>78.8</ele>
        <time>2022-05-28T06:48:52Z</time>
      </trkpt>
      <trkpt lat="48.18601" lon="-4.25103">
        <ele>78.5</ele>
        <time>2022-05-28T06:48:53Z</time>
      </trkpt>
      <trkpt lat="48.18593" lon="-4.25084">
        <ele>78.1</ele>
        <time>2022-05-28T06:48:55Z</time>
      </trkpt>
      <trkpt lat="48.18577" lon="-4.25066">
        <ele>77.4</ele>
        <time>2022-05-28T06:48:58Z</time>
      </trkpt>
      <trkpt lat="48.18574" lon="-4.25058">
        <ele>77.3</ele>
        <time>2022-05-28T06:48:59Z</time>
      </trkpt>
      <trkpt lat="48.18557" lon="-4.25021">
        <ele>77.1</ele>
        <time>2022-05-28T06:49:04Z</time>
      </trkpt>
      <trkpt lat="48.18552" lon="-4.25015">
        <ele>77.1</ele>
        <time>2022-05-28T06:49:05Z</time>
      </trkpt>
      <trkpt lat="48.18517" lon="-4.24963">
        <ele>77.8</ele>
        <time>2022-05-28T06:49:14Z</time>
      </trkpt>
      <trkpt lat="48.18477" lon="-4.24919">
        <ele>78.3</ele>
        <time>2022-05-28T06:49:22Z</time>
      </trkpt>
      <trkpt lat="48.18434" lon="-4.24887">
        <ele>78.9</ele>
        <time>2022-05-28T06:49:30Z</time>
      </trkpt>
      <trkpt lat="48.18413" lon="-4.24874">
        <ele>79.3</ele>
        <time>2022-05-28T06:49:35Z</time>
      </trkpt>
      <trkpt lat="48.18392" lon="-4.24861">
        <ele>80.5</ele>
        <time>2022-05-28T06:49:40Z</time>
      </trkpt>
      <trkpt lat="48.18389" lon="-4.2486">
        <ele>80.7</ele>
        <time>2022-05-28T06:49:41Z</time>
      </trkpt>
      <trkpt lat="48.18368" lon="-4.24848">
        <ele>82</ele>
        <time>2022-05-28T06:49:47Z</time>
      </trkpt>
      <trkpt lat="48.18348" lon="-4.24837">
        <ele>83.3</ele>
        <time>2022-05-28T06:49:53Z</time>
      </trkpt>
      <trkpt lat="48.18312" lon="-4.24807">
        <ele>85.8</ele>
        <time>2022-05-28T06:50:05Z</time>
      </trkpt>
      <trkpt lat="48.18306" lon="-4.24802">
        <ele>86.1</ele>
        <time>2022-05-28T06:50:07Z</time>
      </trkpt>
      <trkpt lat="48.1827" lon="-4.24761">
        <ele>88.7</ele>
        <time>2022-05-28T06:50:22Z</time>
      </trkpt>
      <trkpt lat="48.18257" lon="-4.24736">
        <ele>89.9</ele>
        <time>2022-05-28T06:50:29Z</time>
      </trkpt>
      <trkpt lat="48.18242" lon="-4.24707">
        <ele>91.2</ele>
        <time>2022-05-28T06:50:37Z</time>
      </trkpt>
      <trkpt lat="48.18225" lon="-4.24672">
        <ele>92.9</ele>
        <time>2022-05-28T06:50:47Z</time>
      </trkpt>
      <trkpt lat="48.18214" lon="-4.2465">
        <ele>93.9</ele>
        <time>2022-05-28T06:50:53Z</time>
      </trkpt>
      <trkpt lat="48.18195" lon="-4.24602">
        <ele>96</ele>
        <time>2022-05-28T06:51:06Z</time>
      </trkpt>
      <trkpt lat="48.18191" lon="-4.24603">
        <ele>96.3</ele>
        <time>2022-05-28T06:51:08Z</time>
      </trkpt>
      <trkpt lat="48.18186" lon="-4.24619">
        <ele>96.7</ele>
        <time>2022-05-28T06:51:11Z</time>
      </trkpt>
      <trkpt lat="48.18176" lon="-4.24651">
        <ele>96.1</ele>
        <time>2022-05-28T06:51:17Z</time>
      </trkpt>
      <trkpt lat="48.18171" lon="-4.24668">
        <ele>95.7</ele>
        <time>2022-05-28T06:51:20Z</time>
      </trkpt>
      <trkpt lat="48.18166" lon="-4.24693">
        <ele>95.3</ele>
        <time>2022-05-28T06:51:23Z</time>
      </trkpt>
      <trkpt lat="48.18157" lon="-4.24736">
        <ele>93.9</ele>
        <time>2022-05-28T06:51:28Z</time>
      </trkpt>
      <trkpt lat="48.18139" lon="-4.24809">
        <ele>91.9</ele>
        <time>2022-05-28T06:51:35Z</time>
      </trkpt>
      <trkpt lat="48.18114" lon="-4.24881">
        <ele>88.8</ele>
        <time>2022-05-28T06:51:41Z</time>
      </trkpt>
      <trkpt lat="48.18099" lon="-4.24936">
        <ele>86.6</ele>
        <time>2022-05-28T06:51:45Z</time>
      </trkpt>
      <trkpt lat="48.18098" lon="-4.24966">
        <ele>85.6</ele>
        <time>2022-05-28T06:51:47Z</time>
      </trkpt>
      <trkpt lat="48.18098" lon="-4.2501">
        <ele>84.8</ele>
        <time>2022-05-28T06:51:50Z</time>
      </trkpt>
      <trkpt lat="48.18099" lon="-4.25079">
        <ele>83.4</ele>
        <time>2022-05-28T06:51:55Z</time>
      </trkpt>
      <trkpt lat="48.181" lon="-4.25117">
        <ele>82.5</ele>
        <time>2022-05-28T06:51:58Z</time>
      </trkpt>
      <trkpt lat="48.181" lon="-4.25155">
        <ele>82</ele>
        <time>2022-05-28T06:52:01Z</time>
      </trkpt>
      <trkpt lat="48.18099" lon="-4.25177">
        <ele>81.7</ele>
        <time>2022-05-28T06:52:03Z</time>
      </trkpt>
      <trkpt lat="48.18095" lon="-4.25222">
        <ele>81.4</ele>
        <time>2022-05-28T06:52:07Z</time>
      </trkpt>
      <trkpt lat="48.18094" lon="-4.25266">
        <ele>81.2</ele>
        <time>2022-05-28T06:52:11Z</time>
      </trkpt>
      <trkpt lat="48.18095" lon="-4.25288">
        <ele>81</ele>
        <time>2022-05-28T06:52:13Z</time>
      </trkpt>
      <trkpt lat="48.18094" lon="-4.25299">
        <ele>81</ele>
        <time>2022-05-28T06:52:14Z</time>
      </trkpt>
      <trkpt lat="48.18096" lon="-4.25375">
        <ele>80.7</ele>
        <time>2022-05-28T06:52:21Z</time>
      </trkpt>
      <trkpt lat="48.18096" lon="-4.25447">
        <ele>80.4</ele>
        <time>2022-05-28T06:52:28Z</time>
      </trkpt>
      <trkpt lat="48.18093" lon="-4.25517">
        <ele>80.2</ele>
        <time>2022-05-28T06:52:35Z</time>
      </trkpt>
      <trkpt lat="48.18088" lon="-4.25585">
        <ele>79.9</ele>
        <time>2022-05-28T06:52:42Z</time>
      </trkpt>
      <trkpt lat="48.18085" lon="-4.2566">
        <ele>79.6</ele>
        <time>2022-05-28T06:52:50Z</time>
      </trkpt>
      <trkpt lat="48.18082" lon="-4.25735">
        <ele>79.4</ele>
        <time>2022-05-28T06:52:58Z</time>
      </trkpt>
      <trkpt lat="48.18076" lon="-4.2581">
        <ele>79.1</ele>
        <time>2022-05-28T06:53:06Z</time>
      </trkpt>
      <trkpt lat="48.18064" lon="-4.25883">
        <ele>78.8</ele>
        <time>2022-05-28T06:53:14Z</time>
      </trkpt>
      <trkpt lat="48.1805" lon="-4.25955">
        <ele>78.5</ele>
        <time>2022-05-28T06:53:22Z</time>
      </trkpt>
      <trkpt lat="48.18032" lon="-4.26026">
        <ele>78.2</ele>
        <time>2022-05-28T06:53:29Z</time>
      </trkpt>
      <trkpt lat="48.18018" lon="-4.26058">
        <ele>78.1</ele>
        <time>2022-05-28T06:53:32Z</time>
      </trkpt>
      <trkpt lat="48.18004" lon="-4.2609">
        <ele>77.4</ele>
        <time>2022-05-28T06:53:35Z</time>
      </trkpt>
      <trkpt lat="48.17984" lon="-4.26157">
        <ele>76.2</ele>
        <time>2022-05-28T06:53:41Z</time>
      </trkpt>
      <trkpt lat="48.1798" lon="-4.26191">
        <ele>75.7</ele>
        <time>2022-05-28T06:53:44Z</time>
      </trkpt>
      <trkpt lat="48.17977" lon="-4.26224">
        <ele>75.8</ele>
        <time>2022-05-28T06:53:47Z</time>
      </trkpt>
      <trkpt lat="48.17976" lon="-4.26254">
        <ele>75.9</ele>
        <time>2022-05-28T06:53:50Z</time>
      </trkpt>
      <trkpt lat="48.17974" lon="-4.26294">
        <ele>75.8</ele>
        <time>2022-05-28T06:53:54Z</time>
      </trkpt>
      <trkpt lat="48.17975" lon="-4.26362">
        <ele>75.7</ele>
        <time>2022-05-28T06:54:01Z</time>
      </trkpt>
      <trkpt lat="48.1798" lon="-4.2643">
        <ele>75.5</ele>
        <time>2022-05-28T06:54:08Z</time>
      </trkpt>
      <trkpt lat="48.1798" lon="-4.26491">
        <ele>75.4</ele>
        <time>2022-05-28T06:54:14Z</time>
      </trkpt>
      <trkpt lat="48.17965" lon="-4.26563">
        <ele>75.3</ele>
        <time>2022-05-28T06:54:21Z</time>
      </trkpt>
      <trkpt lat="48.17952" lon="-4.26609">
        <ele>75.1</ele>
        <time>2022-05-28T06:54:25Z</time>
      </trkpt>
      <trkpt lat="48.17945" lon="-4.26632">
        <ele>74.2</ele>
        <time>2022-05-28T06:54:27Z</time>
      </trkpt>
      <trkpt lat="48.17928" lon="-4.26682">
        <ele>72.5</ele>
        <time>2022-05-28T06:54:31Z</time>
      </trkpt>
      <trkpt lat="48.17923" lon="-4.26696">
        <ele>71.8</ele>
        <time>2022-05-28T06:54:32Z</time>
      </trkpt>
      <trkpt lat="48.17903" lon="-4.26767">
        <ele>68.6</ele>
        <time>2022-05-28T06:54:37Z</time>
      </trkpt>
      <trkpt lat="48.17888" lon="-4.26832">
        <ele>66.1</ele>
        <time>2022-05-28T06:54:41Z</time>
      </trkpt>
      <trkpt lat="48.17877" lon="-4.26866">
        <ele>64.7</ele>
        <time>2022-05-28T06:54:43Z</time>
      </trkpt>
      <trkpt lat="48.17846" lon="-4.26929">
        <ele>61.2</ele>
        <time>2022-05-28T06:54:47Z</time>
      </trkpt>
      <trkpt lat="48.1783" lon="-4.26961">
        <ele>59.4</ele>
        <time>2022-05-28T06:54:49Z</time>
      </trkpt>
      <trkpt lat="48.17815" lon="-4.26994">
        <ele>57.2</ele>
        <time>2022-05-28T06:54:51Z</time>
      </trkpt>
      <trkpt lat="48.17783" lon="-4.27057">
        <ele>52.9</ele>
        <time>2022-05-28T06:54:55Z</time>
      </trkpt>
      <trkpt lat="48.1775" lon="-4.27116">
        <ele>50.2</ele>
        <time>2022-05-28T06:54:59Z</time>
      </trkpt>
      <trkpt lat="48.17732" lon="-4.27142">
        <ele>48.9</ele>
        <time>2022-05-28T06:55:01Z</time>
      </trkpt>
      <trkpt lat="48.17713" lon="-4.27168">
        <ele>47.8</ele>
        <time>2022-05-28T06:55:03Z</time>
      </trkpt>
      <trkpt lat="48.17677" lon="-4.27217">
        <ele>45.8</ele>
        <time>2022-05-28T06:55:07Z</time>
      </trkpt>
      <trkpt lat="48.1764" lon="-4.27268">
        <ele>45.2</ele>
        <time>2022-05-28T06:55:12Z</time>
      </trkpt>
      <trkpt lat="48.17632" lon="-4.27272">
        <ele>45.1</ele>
        <time>2022-05-28T06:55:13Z</time>
      </trkpt>
      <trkpt lat="48.17623" lon="-4.27268">
        <ele>44.9</ele>
        <time>2022-05-28T06:55:14Z</time>
      </trkpt>
      <trkpt lat="48.17584" lon="-4.27268">
        <ele>44.4</ele>
        <time>2022-05-28T06:55:19Z</time>
      </trkpt>
      <trkpt lat="48.17577" lon="-4.27268">
        <ele>44.6</ele>
        <time>2022-05-28T06:55:20Z</time>
      </trkpt>
      <trkpt lat="48.17527" lon="-4.27271">
        <ele>45.8</ele>
        <time>2022-05-28T06:55:28Z</time>
      </trkpt>
      <trkpt lat="48.1751" lon="-4.27273">
        <ele>46.2</ele>
        <time>2022-05-28T06:55:31Z</time>
      </trkpt>
      <trkpt lat="48.17481" lon="-4.27277">
        <ele>47.4</ele>
        <time>2022-05-28T06:55:36Z</time>
      </trkpt>
      <trkpt lat="48.17437" lon="-4.27288">
        <ele>49.4</ele>
        <time>2022-05-28T06:55:45Z</time>
      </trkpt>
      <trkpt lat="48.17418" lon="-4.27293">
        <ele>50.2</ele>
        <time>2022-05-28T06:55:49Z</time>
      </trkpt>
      <trkpt lat="48.1739" lon="-4.273">
        <ele>51.1</ele>
        <time>2022-05-28T06:55:55Z</time>
      </trkpt>
      <trkpt lat="48.17344" lon="-4.27313">
        <ele>52.5</ele>
        <time>2022-05-28T06:56:05Z</time>
      </trkpt>
      <trkpt lat="48.17339" lon="-4.27315">
        <ele>52.6</ele>
        <time>2022-05-28T06:56:06Z</time>
      </trkpt>
      <trkpt lat="48.17315" lon="-4.27322">
        <ele>53.2</ele>
        <time>2022-05-28T06:56:11Z</time>
      </trkpt>
      <trkpt lat="48.17296" lon="-4.27328">
        <ele>53.6</ele>
        <time>2022-05-28T06:56:15Z</time>
      </trkpt>
      <trkpt lat="48.17288" lon="-4.2733">
        <ele>53.8</ele>
        <time>2022-05-28T06:56:17Z</time>
      </trkpt>
      <trkpt lat="48.17263" lon="-4.27336">
        <ele>54.8</ele>
        <time>2022-05-28T06:56:23Z</time>
      </trkpt>
      <trkpt lat="48.17251" lon="-4.27339">
        <ele>55.2</ele>
        <time>2022-05-28T06:56:26Z</time>
      </trkpt>
      <trkpt lat="48.17205" lon="-4.27353">
        <ele>56.8</ele>
        <time>2022-05-28T06:56:37Z</time>
      </trkpt>
      <trkpt lat="48.17161" lon="-4.27365">
        <ele>58.2</ele>
        <time>2022-05-28T06:56:47Z</time>
      </trkpt>
      <trkpt lat="48.17156" lon="-4.27366">
        <ele>58.4</ele>
        <time>2022-05-28T06:56:48Z</time>
      </trkpt>
      <trkpt lat="48.17112" lon="-4.27367">
        <ele>60.3</ele>
        <time>2022-05-28T06:56:59Z</time>
      </trkpt>
      <trkpt lat="48.17077" lon="-4.27365">
        <ele>61.8</ele>
        <time>2022-05-28T06:57:08Z</time>
      </trkpt>
      <trkpt lat="48.17073" lon="-4.27363">
        <ele>62</ele>
        <time>2022-05-28T06:57:09Z</time>
      </trkpt>
      <trkpt lat="48.17066" lon="-4.27363">
        <ele>62.3</ele>
        <time>2022-05-28T06:57:11Z</time>
      </trkpt>
      <trkpt lat="48.17041" lon="-4.27361">
        <ele>63.7</ele>
        <time>2022-05-28T06:57:18Z</time>
      </trkpt>
      <trkpt lat="48.17032" lon="-4.27362">
        <ele>64.4</ele>
        <time>2022-05-28T06:57:21Z</time>
      </trkpt>
      <trkpt lat="48.17007" lon="-4.2736">
        <ele>66</ele>
        <time>2022-05-28T06:57:29Z</time>
      </trkpt>
      <trkpt lat="48.16985" lon="-4.27359">
        <ele>67.6</ele>
        <time>2022-05-28T06:57:36Z</time>
      </trkpt>
      <trkpt lat="48.16956" lon="-4.27356">
        <ele>70.2</ele>
        <time>2022-05-28T06:57:47Z</time>
      </trkpt>
      <trkpt lat="48.16938" lon="-4.27355">
        <ele>71.5</ele>
        <time>2022-05-28T06:57:54Z</time>
      </trkpt>
      <trkpt lat="48.16935" lon="-4.27356">
        <ele>71.7</ele>
        <time>2022-05-28T06:57:55Z</time>
      </trkpt>
      <trkpt lat="48.16908" lon="-4.27355">
        <ele>73.6</ele>
        <time>2022-05-28T06:58:05Z</time>
      </trkpt>
      <trkpt lat="48.16889" lon="-4.27354">
        <ele>74.8</ele>
        <time>2022-05-28T06:58:12Z</time>
      </trkpt>
      <trkpt lat="48.16869" lon="-4.27354">
        <ele>75.9</ele>
        <time>2022-05-28T06:58:19Z</time>
      </trkpt>
      <trkpt lat="48.16859" lon="-4.27355">
        <ele>76.6</ele>
        <time>2022-05-28T06:58:23Z</time>
      </trkpt>
      <trkpt lat="48.16847" lon="-4.27357">
        <ele>77.1</ele>
        <time>2022-05-28T06:58:28Z</time>
      </trkpt>
      <trkpt lat="48.16833" lon="-4.27357">
        <ele>78.1</ele>
        <time>2022-05-28T06:58:34Z</time>
      </trkpt>
      <trkpt lat="48.16825" lon="-4.27334">
        <ele>78.1</ele>
        <time>2022-05-28T06:58:38Z</time>
      </trkpt>
      <trkpt lat="48.16823" lon="-4.27323">
        <ele>78.2</ele>
        <time>2022-05-28T06:58:40Z</time>
      </trkpt>
      <trkpt lat="48.16823" lon="-4.27317">
        <ele>78.2</ele>
        <time>2022-05-28T06:58:41Z</time>
      </trkpt>
      <trkpt lat="48.16812" lon="-4.27268">
        <ele>78.8</ele>
        <time>2022-05-28T06:58:49Z</time>
      </trkpt>
      <trkpt lat="48.16808" lon="-4.27241">
        <ele>79.1</ele>
        <time>2022-05-28T06:58:53Z</time>
      </trkpt>
      <trkpt lat="48.16795" lon="-4.27175">
        <ele>79.8</ele>
        <time>2022-05-28T06:59:03Z</time>
      </trkpt>
      <trkpt lat="48.16782" lon="-4.27106">
        <ele>80.6</ele>
        <time>2022-05-28T06:59:14Z</time>
      </trkpt>
      <trkpt lat="48.16772" lon="-4.27053">
        <ele>81.1</ele>
        <time>2022-05-28T06:59:22Z</time>
      </trkpt>
      <trkpt lat="48.1677" lon="-4.2704">
        <ele>81</ele>
        <time>2022-05-28T06:59:24Z</time>
      </trkpt>
      <trkpt lat="48.16756" lon="-4.26969">
        <ele>80.4</ele>
        <time>2022-05-28T06:59:34Z</time>
      </trkpt>
      <trkpt lat="48.16747" lon="-4.26915">
        <ele>80</ele>
        <time>2022-05-28T06:59:41Z</time>
      </trkpt>
      <trkpt lat="48.16747" lon="-4.26907">
        <ele>80</ele>
        <time>2022-05-28T06:59:42Z</time>
      </trkpt>
      <trkpt lat="48.16735" lon="-4.26841">
        <ele>79.5</ele>
        <time>2022-05-28T06:59:50Z</time>
      </trkpt>
      <trkpt lat="48.1673" lon="-4.26781">
        <ele>79.1</ele>
        <time>2022-05-28T06:59:57Z</time>
      </trkpt>
      <trkpt lat="48.16724" lon="-4.26765">
        <ele>79</ele>
        <time>2022-05-28T06:59:59Z</time>
      </trkpt>
      <trkpt lat="48.16721" lon="-4.26759">
        <ele>78.9</ele>
        <time>2022-05-28T07:00:00Z</time>
      </trkpt>
      <trkpt lat="48.16711" lon="-4.26687">
        <ele>78.5</ele>
        <time>2022-05-28T07:00:08Z</time>
      </trkpt>
      <trkpt lat="48.16707" lon="-4.26668">
        <ele>78.3</ele>
        <time>2022-05-28T07:00:10Z</time>
      </trkpt>
      <trkpt lat="48.16695" lon="-4.26621">
        <ele>77.4</ele>
        <time>2022-05-28T07:00:15Z</time>
      </trkpt>
      <trkpt lat="48.1668" lon="-4.26556">
        <ele>76</ele>
        <time>2022-05-28T07:00:22Z</time>
      </trkpt>
      <trkpt lat="48.16665" lon="-4.26509">
        <ele>75</ele>
        <time>2022-05-28T07:00:27Z</time>
      </trkpt>
      <trkpt lat="48.16658" lon="-4.26489">
        <ele>74.3</ele>
        <time>2022-05-28T07:00:29Z</time>
      </trkpt>
      <trkpt lat="48.16642" lon="-4.26443">
        <ele>72.7</ele>
        <time>2022-05-28T07:00:33Z</time>
      </trkpt>
      <trkpt lat="48.16634" lon="-4.26419">
        <ele>71.2</ele>
        <time>2022-05-28T07:00:35Z</time>
      </trkpt>
      <trkpt lat="48.16614" lon="-4.26366">
        <ele>68.2</ele>
        <time>2022-05-28T07:00:39Z</time>
      </trkpt>
      <trkpt lat="48.16609" lon="-4.26352">
        <ele>67.5</ele>
        <time>2022-05-28T07:00:40Z</time>
      </trkpt>
      <trkpt lat="48.16587" lon="-4.26296">
        <ele>64.8</ele>
        <time>2022-05-28T07:00:44Z</time>
      </trkpt>
      <trkpt lat="48.1658" lon="-4.26283">
        <ele>64.3</ele>
        <time>2022-05-28T07:00:45Z</time>
      </trkpt>
      <trkpt lat="48.16553" lon="-4.26234">
        <ele>63.1</ele>
        <time>2022-05-28T07:00:49Z</time>
      </trkpt>
      <trkpt lat="48.16517" lon="-4.26186">
        <ele>61.6</ele>
        <time>2022-05-28T07:00:54Z</time>
      </trkpt>
      <trkpt lat="48.16495" lon="-4.26166">
        <ele>60.8</ele>
        <time>2022-05-28T07:00:57Z</time>
      </trkpt>
      <trkpt lat="48.16474" lon="-4.26145">
        <ele>60.8</ele>
        <time>2022-05-28T07:01:00Z</time>
      </trkpt>
      <trkpt lat="48.16454" lon="-4.26128">
        <ele>60.8</ele>
        <time>2022-05-28T07:01:03Z</time>
      </trkpt>
      <trkpt lat="48.16434" lon="-4.26111">
        <ele>60.6</ele>
        <time>2022-05-28T07:01:06Z</time>
      </trkpt>
      <trkpt lat="48.1639" lon="-4.26075">
        <ele>60.2</ele>
        <time>2022-05-28T07:01:13Z</time>
      </trkpt>
      <trkpt lat="48.16348" lon="-4.26031">
        <ele>59.9</ele>
        <time>2022-05-28T07:01:20Z</time>
      </trkpt>
      <trkpt lat="48.16329" lon="-4.26">
        <ele>59.6</ele>
        <time>2022-05-28T07:01:24Z</time>
      </trkpt>
      <trkpt lat="48.16297" lon="-4.25946">
        <ele>59.3</ele>
        <time>2022-05-28T07:01:31Z</time>
      </trkpt>
      <trkpt lat="48.1627" lon="-4.25901">
        <ele>58.9</ele>
        <time>2022-05-28T07:01:37Z</time>
      </trkpt>
      <trkpt lat="48.16243" lon="-4.25846">
        <ele>58.6</ele>
        <time>2022-05-28T07:01:44Z</time>
      </trkpt>
      <trkpt lat="48.16212" lon="-4.25793">
        <ele>58.2</ele>
        <time>2022-05-28T07:01:51Z</time>
      </trkpt>
      <trkpt lat="48.16182" lon="-4.25747">
        <ele>57.8</ele>
        <time>2022-05-28T07:01:57Z</time>
      </trkpt>
      <trkpt lat="48.16176" lon="-4.25739">
        <ele>57.4</ele>
        <time>2022-05-28T07:01:58Z</time>
      </trkpt>
      <trkpt lat="48.16141" lon="-4.25704">
        <ele>55.5</ele>
        <time>2022-05-28T07:02:03Z</time>
      </trkpt>
      <trkpt lat="48.16134" lon="-4.25697">
        <ele>55</ele>
        <time>2022-05-28T07:02:04Z</time>
      </trkpt>
      <trkpt lat="48.16087" lon="-4.25655">
        <ele>52.1</ele>
        <time>2022-05-28T07:02:10Z</time>
      </trkpt>
      <trkpt lat="48.16064" lon="-4.25632">
        <ele>50.6</ele>
        <time>2022-05-28T07:02:13Z</time>
      </trkpt>
      <trkpt lat="48.16057" lon="-4.2562">
        <ele>50.1</ele>
        <time>2022-05-28T07:02:14Z</time>
      </trkpt>
      <trkpt lat="48.1605" lon="-4.25608">
        <ele>49.4</ele>
        <time>2022-05-28T07:02:15Z</time>
      </trkpt>
      <trkpt lat="48.16021" lon="-4.25557">
        <ele>46.8</ele>
        <time>2022-05-28T07:02:19Z</time>
      </trkpt>
      <trkpt lat="48.16018" lon="-4.25539">
        <ele>46.1</ele>
        <time>2022-05-28T07:02:20Z</time>
      </trkpt>
      <trkpt lat="48.16009" lon="-4.25486">
        <ele>43.1</ele>
        <time>2022-05-28T07:02:23Z</time>
      </trkpt>
      <trkpt lat="48.16007" lon="-4.2545">
        <ele>41.2</ele>
        <time>2022-05-28T07:02:25Z</time>
      </trkpt>
      <trkpt lat="48.16005" lon="-4.25415">
        <ele>39.9</ele>
        <time>2022-05-28T07:02:27Z</time>
      </trkpt>
      <trkpt lat="48.16004" lon="-4.25343">
        <ele>37.4</ele>
        <time>2022-05-28T07:02:31Z</time>
      </trkpt>
      <trkpt lat="48.16002" lon="-4.25266">
        <ele>36</ele>
        <time>2022-05-28T07:02:36Z</time>
      </trkpt>
      <trkpt lat="48.15997" lon="-4.25188">
        <ele>34.4</ele>
        <time>2022-05-28T07:02:42Z</time>
      </trkpt>
      <trkpt lat="48.15996" lon="-4.25176">
        <ele>34.2</ele>
        <time>2022-05-28T07:02:43Z</time>
      </trkpt>
      <trkpt lat="48.15994" lon="-4.25117">
        <ele>34.1</ele>
        <time>2022-05-28T07:02:48Z</time>
      </trkpt>
      <trkpt lat="48.15994" lon="-4.25107">
        <ele>34.1</ele>
        <time>2022-05-28T07:02:49Z</time>
      </trkpt>
      <trkpt lat="48.15994" lon="-4.25066">
        <ele>35.1</ele>
        <time>2022-05-28T07:02:53Z</time>
      </trkpt>
      <trkpt lat="48.16007" lon="-4.2501">
        <ele>37.1</ele>
        <time>2022-05-28T07:03:01Z</time>
      </trkpt>
      <trkpt lat="48.16008" lon="-4.25004">
        <ele>37.5</ele>
        <time>2022-05-28T07:03:02Z</time>
      </trkpt>
      <trkpt lat="48.16007" lon="-4.25">
        <ele>37.9</ele>
        <time>2022-05-28T07:03:03Z</time>
      </trkpt>
      <trkpt lat="48.16008" lon="-4.24989">
        <ele>39.2</ele>
        <time>2022-05-28T07:03:06Z</time>
      </trkpt>
      <trkpt lat="48.16002" lon="-4.24968">
        <ele>42.1</ele>
        <time>2022-05-28T07:03:13Z</time>
      </trkpt>
      <trkpt lat="48.15999" lon="-4.2496">
        <ele>42.9</ele>
        <time>2022-05-28T07:03:16Z</time>
      </trkpt>
      <trkpt lat="48.15989" lon="-4.24936">
        <ele>45.5</ele>
        <time>2022-05-28T07:03:25Z</time>
      </trkpt>
      <trkpt lat="48.15981" lon="-4.24919">
        <ele>46.9</ele>
        <time>2022-05-28T07:03:31Z</time>
      </trkpt>
      <trkpt lat="48.15974" lon="-4.24904">
        <ele>48.8</ele>
        <time>2022-05-28T07:03:37Z</time>
      </trkpt>
      <trkpt lat="48.15953" lon="-4.24883">
        <ele>51.9</ele>
        <time>2022-05-28T07:03:49Z</time>
      </trkpt>
      <trkpt lat="48.15943" lon="-4.24872">
        <ele>52.9</ele>
        <time>2022-05-28T07:03:55Z</time>
      </trkpt>
      <trkpt lat="48.15936" lon="-4.24865">
        <ele>53.7</ele>
        <time>2022-05-28T07:03:59Z</time>
      </trkpt>
      <trkpt lat="48.15908" lon="-4.24841">
        <ele>56.5</ele>
        <time>2022-05-28T07:04:13Z</time>
      </trkpt>
      <trkpt lat="48.15894" lon="-4.24828">
        <ele>57.9</ele>
        <time>2022-05-28T07:04:20Z</time>
      </trkpt>
      <trkpt lat="48.15868" lon="-4.24802">
        <ele>59.8</ele>
        <time>2022-05-28T07:04:30Z</time>
      </trkpt>
      <trkpt lat="48.15855" lon="-4.24789">
        <ele>60.9</ele>
        <time>2022-05-28T07:04:35Z</time>
      </trkpt>
      <trkpt lat="48.15829" lon="-4.2476">
        <ele>63.3</ele>
        <time>2022-05-28T07:04:47Z</time>
      </trkpt>
      <trkpt lat="48.15818" lon="-4.24747">
        <ele>63.9</ele>
        <time>2022-05-28T07:04:52Z</time>
      </trkpt>
      <trkpt lat="48.15799" lon="-4.24728">
        <ele>64.8</ele>
        <time>2022-05-28T07:04:59Z</time>
      </trkpt>
      <trkpt lat="48.1578" lon="-4.24708">
        <ele>64.8</ele>
        <time>2022-05-28T07:05:06Z</time>
      </trkpt>
      <trkpt lat="48.15741" lon="-4.24667">
        <ele>64.8</ele>
        <time>2022-05-28T07:05:18Z</time>
      </trkpt>
      <trkpt lat="48.15707" lon="-4.24624">
        <ele>64.9</ele>
        <time>2022-05-28T07:05:28Z</time>
      </trkpt>
      <trkpt lat="48.15675" lon="-4.24577">
        <ele>64.9</ele>
        <time>2022-05-28T07:05:38Z</time>
      </trkpt>
      <trkpt lat="48.15637" lon="-4.24532">
        <ele>65</ele>
        <time>2022-05-28T07:05:48Z</time>
      </trkpt>
      <trkpt lat="48.15622" lon="-4.24505">
        <ele>64.9</ele>
        <time>2022-05-28T07:05:53Z</time>
      </trkpt>
      <trkpt lat="48.15607" lon="-4.24477">
        <ele>63.7</ele>
        <time>2022-05-28T07:05:58Z</time>
      </trkpt>
      <trkpt lat="48.15575" lon="-4.24425">
        <ele>61.8</ele>
        <time>2022-05-28T07:06:06Z</time>
      </trkpt>
      <trkpt lat="48.15553" lon="-4.24385">
        <ele>60.6</ele>
        <time>2022-05-28T07:06:11Z</time>
      </trkpt>
      <trkpt lat="48.15544" lon="-4.24369">
        <ele>60.2</ele>
        <time>2022-05-28T07:06:13Z</time>
      </trkpt>
      <trkpt lat="48.15511" lon="-4.24309">
        <ele>58.7</ele>
        <time>2022-05-28T07:06:20Z</time>
      </trkpt>
      <trkpt lat="48.15498" lon="-4.24287">
        <ele>58</ele>
        <time>2022-05-28T07:06:23Z</time>
      </trkpt>
      <trkpt lat="48.1548" lon="-4.24258">
        <ele>57.2</ele>
        <time>2022-05-28T07:06:27Z</time>
      </trkpt>
      <trkpt lat="48.15442" lon="-4.24207">
        <ele>55.8</ele>
        <time>2022-05-28T07:06:34Z</time>
      </trkpt>
      <trkpt lat="48.15405" lon="-4.24161">
        <ele>54.5</ele>
        <time>2022-05-28T07:06:41Z</time>
      </trkpt>
      <trkpt lat="48.15371" lon="-4.24121">
        <ele>54.4</ele>
        <time>2022-05-28T07:06:47Z</time>
      </trkpt>
      <trkpt lat="48.15365" lon="-4.24115">
        <ele>54.5</ele>
        <time>2022-05-28T07:06:48Z</time>
      </trkpt>
      <trkpt lat="48.15327" lon="-4.24066">
        <ele>55</ele>
        <time>2022-05-28T07:06:56Z</time>
      </trkpt>
      <trkpt lat="48.15288" lon="-4.24023">
        <ele>55.5</ele>
        <time>2022-05-28T07:07:03Z</time>
      </trkpt>
      <trkpt lat="48.15251" lon="-4.23983">
        <ele>55.9</ele>
        <time>2022-05-28T07:07:10Z</time>
      </trkpt>
      <trkpt lat="48.15247" lon="-4.23978">
        <ele>56</ele>
        <time>2022-05-28T07:07:11Z</time>
      </trkpt>
      <trkpt lat="48.15213" lon="-4.23938">
        <ele>56.9</ele>
        <time>2022-05-28T07:07:19Z</time>
      </trkpt>
      <trkpt lat="48.15197" lon="-4.2392">
        <ele>57.4</ele>
        <time>2022-05-28T07:07:23Z</time>
      </trkpt>
      <trkpt lat="48.15174" lon="-4.23893">
        <ele>58.5</ele>
        <time>2022-05-28T07:07:29Z</time>
      </trkpt>
      <trkpt lat="48.15137" lon="-4.23851">
        <ele>60.2</ele>
        <time>2022-05-28T07:07:39Z</time>
      </trkpt>
      <trkpt lat="48.1511" lon="-4.23817">
        <ele>61.6</ele>
        <time>2022-05-28T07:07:47Z</time>
      </trkpt>
      <trkpt lat="48.15099" lon="-4.23804">
        <ele>62</ele>
        <time>2022-05-28T07:07:50Z</time>
      </trkpt>
      <trkpt lat="48.15069" lon="-4.23769">
        <ele>63.1</ele>
        <time>2022-05-28T07:07:59Z</time>
      </trkpt>
      <trkpt lat="48.15062" lon="-4.23761">
        <ele>63.4</ele>
        <time>2022-05-28T07:08:01Z</time>
      </trkpt>
      <trkpt lat="48.1505" lon="-4.23747">
        <ele>64.1</ele>
        <time>2022-05-28T07:08:05Z</time>
      </trkpt>
      <trkpt lat="48.15023" lon="-4.23715">
        <ele>65</ele>
        <time>2022-05-28T07:08:14Z</time>
      </trkpt>
      <trkpt lat="48.14988" lon="-4.23674">
        <ele>66</ele>
        <time>2022-05-28T07:08:23Z</time>
      </trkpt>
      <trkpt lat="48.14985" lon="-4.2367">
        <ele>66</ele>
        <time>2022-05-28T07:08:24Z</time>
      </trkpt>
      <trkpt lat="48.14967" lon="-4.23657">
        <ele>66.3</ele>
        <time>2022-05-28T07:08:29Z</time>
      </trkpt>
      <trkpt lat="48.1496" lon="-4.23665">
        <ele>66.5</ele>
        <time>2022-05-28T07:08:31Z</time>
      </trkpt>
      <trkpt lat="48.14939" lon="-4.23728">
        <ele>67.1</ele>
        <time>2022-05-28T07:08:41Z</time>
      </trkpt>
      <trkpt lat="48.14921" lon="-4.23791">
        <ele>67.8</ele>
        <time>2022-05-28T07:08:51Z</time>
      </trkpt>
      <trkpt lat="48.14917" lon="-4.23803">
        <ele>67.9</ele>
        <time>2022-05-28T07:08:53Z</time>
      </trkpt>
      <trkpt lat="48.14906" lon="-4.23837">
        <ele>68.5</ele>
        <time>2022-05-28T07:08:59Z</time>
      </trkpt>
      <trkpt lat="48.14901" lon="-4.23854">
        <ele>69.3</ele>
        <time>2022-05-28T07:09:02Z</time>
      </trkpt>
      <trkpt lat="48.14895" lon="-4.2387">
        <ele>70.1</ele>
        <time>2022-05-28T07:09:05Z</time>
      </trkpt>
      <trkpt lat="48.1488" lon="-4.23919">
        <ele>71.7</ele>
        <time>2022-05-28T07:09:14Z</time>
      </trkpt>
      <trkpt lat="48.14863" lon="-4.23967">
        <ele>73.3</ele>
        <time>2022-05-28T07:09:23Z</time>
      </trkpt>
      <trkpt lat="48.14858" lon="-4.23984">
        <ele>73.7</ele>
        <time>2022-05-28T07:09:26Z</time>
      </trkpt>
      <trkpt lat="48.14838" lon="-4.24046">
        <ele>75.4</ele>
        <time>2022-05-28T07:09:37Z</time>
      </trkpt>
      <trkpt lat="48.1482" lon="-4.24103">
        <ele>76.8</ele>
        <time>2022-05-28T07:09:47Z</time>
      </trkpt>
      <trkpt lat="48.14817" lon="-4.24109">
        <ele>76.9</ele>
        <time>2022-05-28T07:09:48Z</time>
      </trkpt>
      <trkpt lat="48.148" lon="-4.2414">
        <ele>77.3</ele>
        <time>2022-05-28T07:09:53Z</time>
      </trkpt>
      <trkpt lat="48.14786" lon="-4.24165">
        <ele>75.7</ele>
        <time>2022-05-28T07:09:57Z</time>
      </trkpt>
      <trkpt lat="48.1475" lon="-4.24213">
        <ele>73.3</ele>
        <time>2022-05-28T07:10:03Z</time>
      </trkpt>
      <trkpt lat="48.14738" lon="-4.24238">
        <ele>72.4</ele>
        <time>2022-05-28T07:10:05Z</time>
      </trkpt>
      <trkpt lat="48.14728" lon="-4.24263">
        <ele>70.9</ele>
        <time>2022-05-28T07:10:07Z</time>
      </trkpt>
      <trkpt lat="48.1471" lon="-4.24327">
        <ele>67.8</ele>
        <time>2022-05-28T07:10:11Z</time>
      </trkpt>
      <trkpt lat="48.14691" lon="-4.24398">
        <ele>63.9</ele>
        <time>2022-05-28T07:10:15Z</time>
      </trkpt>
      <trkpt lat="48.14688" lon="-4.24437">
        <ele>61.9</ele>
        <time>2022-05-28T07:10:17Z</time>
      </trkpt>
      <trkpt lat="48.14685" lon="-4.24477">
        <ele>59.4</ele>
        <time>2022-05-28T07:10:19Z</time>
      </trkpt>
      <trkpt lat="48.14683" lon="-4.24497">
        <ele>58.2</ele>
        <time>2022-05-28T07:10:20Z</time>
      </trkpt>
      <trkpt lat="48.14671" lon="-4.24535">
        <ele>55.7</ele>
        <time>2022-05-28T07:10:22Z</time>
      </trkpt>
      <trkpt lat="48.1466" lon="-4.24551">
        <ele>54.6</ele>
        <time>2022-05-28T07:10:23Z</time>
      </trkpt>
      <trkpt lat="48.14649" lon="-4.24566">
        <ele>53.7</ele>
        <time>2022-05-28T07:10:24Z</time>
      </trkpt>
      <trkpt lat="48.14609" lon="-4.24611">
        <ele>50.1</ele>
        <time>2022-05-28T07:10:28Z</time>
      </trkpt>
      <trkpt lat="48.14603" lon="-4.24623">
        <ele>49.6</ele>
        <time>2022-05-28T07:10:29Z</time>
      </trkpt>
      <trkpt lat="48.14592" lon="-4.24645">
        <ele>50.3</ele>
        <time>2022-05-28T07:10:31Z</time>
      </trkpt>
      <trkpt lat="48.14581" lon="-4.24685">
        <ele>51.6</ele>
        <time>2022-05-28T07:10:35Z</time>
      </trkpt>
      <trkpt lat="48.14578" lon="-4.24694">
        <ele>52.2</ele>
        <time>2022-05-28T07:10:36Z</time>
      </trkpt>
      <trkpt lat="48.14571" lon="-4.24728">
        <ele>54.8</ele>
        <time>2022-05-28T07:10:41Z</time>
      </trkpt>
      <trkpt lat="48.14564" lon="-4.24762">
        <ele>56.2</ele>
        <time>2022-05-28T07:10:46Z</time>
      </trkpt>
      <trkpt lat="48.14557" lon="-4.24797">
        <ele>58.2</ele>
        <time>2022-05-28T07:10:53Z</time>
      </trkpt>
      <trkpt lat="48.14551" lon="-4.24827">
        <ele>59.5</ele>
        <time>2022-05-28T07:10:59Z</time>
      </trkpt>
      <trkpt lat="48.14537" lon="-4.24894">
        <ele>62.6</ele>
        <time>2022-05-28T07:11:13Z</time>
      </trkpt>
      <trkpt lat="48.14534" lon="-4.2491">
        <ele>63.5</ele>
        <time>2022-05-28T07:11:17Z</time>
      </trkpt>
      <trkpt lat="48.14523" lon="-4.24959">
        <ele>66.3</ele>
        <time>2022-05-28T07:11:29Z</time>
      </trkpt>
      <trkpt lat="48.14519" lon="-4.24981">
        <ele>67.7</ele>
        <time>2022-05-28T07:11:35Z</time>
      </trkpt>
      <trkpt lat="48.14509" lon="-4.25023">
        <ele>70.7</ele>
        <time>2022-05-28T07:11:47Z</time>
      </trkpt>
      <trkpt lat="48.14504" lon="-4.25043">
        <ele>71.8</ele>
        <time>2022-05-28T07:11:53Z</time>
      </trkpt>
      <trkpt lat="48.14494" lon="-4.2509">
        <ele>74.9</ele>
        <time>2022-05-28T07:12:07Z</time>
      </trkpt>
      <trkpt lat="48.14491" lon="-4.25104">
        <ele>75.7</ele>
        <time>2022-05-28T07:12:11Z</time>
      </trkpt>
      <trkpt lat="48.1448" lon="-4.25155">
        <ele>78.3</ele>
        <time>2022-05-28T07:12:25Z</time>
      </trkpt>
      <trkpt lat="48.14474" lon="-4.25169">
        <ele>79</ele>
        <time>2022-05-28T07:12:29Z</time>
      </trkpt>
      <trkpt lat="48.14453" lon="-4.25215">
        <ele>80.4</ele>
        <time>2022-05-28T07:12:42Z</time>
      </trkpt>
      <trkpt lat="48.14425" lon="-4.2526">
        <ele>81.5</ele>
        <time>2022-05-28T07:12:53Z</time>
      </trkpt>
      <trkpt lat="48.14422" lon="-4.25265">
        <ele>81.4</ele>
        <time>2022-05-28T07:12:54Z</time>
      </trkpt>
      <trkpt lat="48.14389" lon="-4.25313">
        <ele>80.4</ele>
        <time>2022-05-28T07:13:04Z</time>
      </trkpt>
      <trkpt lat="48.14362" lon="-4.25354">
        <ele>79.7</ele>
        <time>2022-05-28T07:13:11Z</time>
      </trkpt>
      <trkpt lat="48.14354" lon="-4.25366">
        <ele>79.5</ele>
        <time>2022-05-28T07:13:13Z</time>
      </trkpt>
      <trkpt lat="48.14337" lon="-4.25391">
        <ele>79.2</ele>
        <time>2022-05-28T07:13:17Z</time>
      </trkpt>
      <trkpt lat="48.1432" lon="-4.25416">
        <ele>78.5</ele>
        <time>2022-05-28T07:13:21Z</time>
      </trkpt>
      <trkpt lat="48.14287" lon="-4.25464">
        <ele>77.3</ele>
        <time>2022-05-28T07:13:28Z</time>
      </trkpt>
      <trkpt lat="48.14283" lon="-4.25471">
        <ele>77.1</ele>
        <time>2022-05-28T07:13:29Z</time>
      </trkpt>
      <trkpt lat="48.14255" lon="-4.25513">
        <ele>76.4</ele>
        <time>2022-05-28T07:13:35Z</time>
      </trkpt>
      <trkpt lat="48.14226" lon="-4.25552">
        <ele>75.7</ele>
        <time>2022-05-28T07:13:41Z</time>
      </trkpt>
      <trkpt lat="48.14221" lon="-4.25558">
        <ele>75.7</ele>
        <time>2022-05-28T07:13:42Z</time>
      </trkpt>
      <trkpt lat="48.14182" lon="-4.25589">
        <ele>75</ele>
        <time>2022-05-28T07:13:49Z</time>
      </trkpt>
      <trkpt lat="48.14132" lon="-4.25604">
        <ele>74.3</ele>
        <time>2022-05-28T07:13:57Z</time>
      </trkpt>
      <trkpt lat="48.14085" lon="-4.25602">
        <ele>73.6</ele>
        <time>2022-05-28T07:14:04Z</time>
      </trkpt>
      <trkpt lat="48.14037" lon="-4.25595">
        <ele>73</ele>
        <time>2022-05-28T07:14:11Z</time>
      </trkpt>
      <trkpt lat="48.13996" lon="-4.25587">
        <ele>72.4</ele>
        <time>2022-05-28T07:14:17Z</time>
      </trkpt>
      <trkpt lat="48.13989" lon="-4.25586">
        <ele>72.2</ele>
        <time>2022-05-28T07:14:18Z</time>
      </trkpt>
      <trkpt lat="48.13943" lon="-4.25577">
        <ele>71.2</ele>
        <time>2022-05-28T07:14:25Z</time>
      </trkpt>
      <trkpt lat="48.13917" lon="-4.25573">
        <ele>70.6</ele>
        <time>2022-05-28T07:14:29Z</time>
      </trkpt>
      <trkpt lat="48.1391" lon="-4.2557">
        <ele>70.5</ele>
        <time>2022-05-28T07:14:30Z</time>
      </trkpt>
      <trkpt lat="48.13873" lon="-4.25545">
        <ele>69.9</ele>
        <time>2022-05-28T07:14:36Z</time>
      </trkpt>
      <trkpt lat="48.13848" lon="-4.25515">
        <ele>69.3</ele>
        <time>2022-05-28T07:14:41Z</time>
      </trkpt>
      <trkpt lat="48.13842" lon="-4.25511">
        <ele>69.1</ele>
        <time>2022-05-28T07:14:42Z</time>
      </trkpt>
      <trkpt lat="48.1383" lon="-4.2551">
        <ele>68.7</ele>
        <time>2022-05-28T07:14:44Z</time>
      </trkpt>
      <trkpt lat="48.13824" lon="-4.25515">
        <ele>68.5</ele>
        <time>2022-05-28T07:14:45Z</time>
      </trkpt>
      <trkpt lat="48.13817" lon="-4.25532">
        <ele>68.1</ele>
        <time>2022-05-28T07:14:47Z</time>
      </trkpt>
      <trkpt lat="48.1379" lon="-4.25584">
        <ele>66.8</ele>
        <time>2022-05-28T07:14:53Z</time>
      </trkpt>
      <trkpt lat="48.13786" lon="-4.25593">
        <ele>66.4</ele>
        <time>2022-05-28T07:14:54Z</time>
      </trkpt>
      <trkpt lat="48.13769" lon="-4.25653">
        <ele>64.5</ele>
        <time>2022-05-28T07:14:59Z</time>
      </trkpt>
      <trkpt lat="48.13766" lon="-4.25666">
        <ele>64.1</ele>
        <time>2022-05-28T07:15:00Z</time>
      </trkpt>
      <trkpt lat="48.13755" lon="-4.25732">
        <ele>62.5</ele>
        <time>2022-05-28T07:15:05Z</time>
      </trkpt>
      <trkpt lat="48.13742" lon="-4.25799">
        <ele>61</ele>
        <time>2022-05-28T07:15:10Z</time>
      </trkpt>
      <trkpt lat="48.1372" lon="-4.25858">
        <ele>59.9</ele>
        <time>2022-05-28T07:15:15Z</time>
      </trkpt>
      <trkpt lat="48.13695" lon="-4.25915">
        <ele>58.9</ele>
        <time>2022-05-28T07:15:20Z</time>
      </trkpt>
      <trkpt lat="48.13691" lon="-4.25925">
        <ele>58.7</ele>
        <time>2022-05-28T07:15:21Z</time>
      </trkpt>
      <trkpt lat="48.13668" lon="-4.25977">
        <ele>58.1</ele>
        <time>2022-05-28T07:15:26Z</time>
      </trkpt>
      <trkpt lat="48.13642" lon="-4.26034">
        <ele>57.5</ele>
        <time>2022-05-28T07:15:32Z</time>
      </trkpt>
      <trkpt lat="48.13617" lon="-4.26036">
        <ele>57.4</ele>
        <time>2022-05-28T07:15:35Z</time>
      </trkpt>
      <trkpt lat="48.13617" lon="-4.26036">
        <ele>57.4</ele>
        <time>2022-05-28T07:17:15Z</time>
      </trkpt>
      <trkpt lat="48.13595" lon="-4.26033">
        <ele>57.4</ele>
        <time>2022-05-28T07:17:15Z</time>
      </trkpt>
      <trkpt lat="48.1358" lon="-4.26011">
        <ele>57.4</ele>
        <time>2022-05-28T07:17:19Z</time>
      </trkpt>
      <trkpt lat="48.13539" lon="-4.25972">
        <ele>57.3</ele>
        <time>2022-05-28T07:17:27Z</time>
      </trkpt>
      <trkpt lat="48.13498" lon="-4.25937">
        <ele>57.3</ele>
        <time>2022-05-28T07:17:35Z</time>
      </trkpt>
      <trkpt lat="48.1346" lon="-4.25902">
        <ele>57.3</ele>
        <time>2022-05-28T07:17:43Z</time>
      </trkpt>
      <trkpt lat="48.13419" lon="-4.25866">
        <ele>57.3</ele>
        <time>2022-05-28T07:17:52Z</time>
      </trkpt>
      <trkpt lat="48.13415" lon="-4.25863">
        <ele>57.4</ele>
        <time>2022-05-28T07:17:53Z</time>
      </trkpt>
      <trkpt lat="48.13391" lon="-4.25845">
        <ele>58.7</ele>
        <time>2022-05-28T07:17:59Z</time>
      </trkpt>
      <trkpt lat="48.13383" lon="-4.25835">
        <ele>59.1</ele>
        <time>2022-05-28T07:18:01Z</time>
      </trkpt>
      <trkpt lat="48.13344" lon="-4.25827">
        <ele>61.3</ele>
        <time>2022-05-28T07:18:11Z</time>
      </trkpt>
      <trkpt lat="48.13336" lon="-4.25825">
        <ele>61.7</ele>
        <time>2022-05-28T07:18:13Z</time>
      </trkpt>
      <trkpt lat="48.13291" lon="-4.25806">
        <ele>64</ele>
        <time>2022-05-28T07:18:26Z</time>
      </trkpt>
      <trkpt lat="48.13281" lon="-4.25796">
        <ele>64.5</ele>
        <time>2022-05-28T07:18:29Z</time>
      </trkpt>
      <trkpt lat="48.13251" lon="-4.25767">
        <ele>65.6</ele>
        <time>2022-05-28T07:18:38Z</time>
      </trkpt>
      <trkpt lat="48.13241" lon="-4.25753">
        <ele>65.9</ele>
        <time>2022-05-28T07:18:41Z</time>
      </trkpt>
      <trkpt lat="48.13216" lon="-4.25716">
        <ele>65.5</ele>
        <time>2022-05-28T07:18:49Z</time>
      </trkpt>
      <trkpt lat="48.13207" lon="-4.25701">
        <ele>65.3</ele>
        <time>2022-05-28T07:18:52Z</time>
      </trkpt>
      <trkpt lat="48.1319" lon="-4.25704">
        <ele>65.1</ele>
        <time>2022-05-28T07:18:55Z</time>
      </trkpt>
      <trkpt lat="48.13181" lon="-4.25724">
        <ele>65</ele>
        <time>2022-05-28T07:18:58Z</time>
      </trkpt>
      <trkpt lat="48.13149" lon="-4.2578">
        <ele>64.5</ele>
        <time>2022-05-28T07:19:07Z</time>
      </trkpt>
      <trkpt lat="48.13114" lon="-4.25835">
        <ele>64</ele>
        <time>2022-05-28T07:19:15Z</time>
      </trkpt>
      <trkpt lat="48.13096" lon="-4.25878">
        <ele>63.8</ele>
        <time>2022-05-28T07:19:20Z</time>
      </trkpt>
      <trkpt lat="48.13074" lon="-4.25941">
        <ele>63.4</ele>
        <time>2022-05-28T07:19:27Z</time>
      </trkpt>
      <trkpt lat="48.13066" lon="-4.25985">
        <ele>63.1</ele>
        <time>2022-05-28T07:19:32Z</time>
      </trkpt>
      <trkpt lat="48.13062" lon="-4.26002">
        <ele>63</ele>
        <time>2022-05-28T07:19:34Z</time>
      </trkpt>
      <trkpt lat="48.13036" lon="-4.26062">
        <ele>62.6</ele>
        <time>2022-05-28T07:19:42Z</time>
      </trkpt>
      <trkpt lat="48.13001" lon="-4.2611">
        <ele>62.2</ele>
        <time>2022-05-28T07:19:49Z</time>
      </trkpt>
      <trkpt lat="48.12961" lon="-4.2616">
        <ele>61.8</ele>
        <time>2022-05-28T07:19:56Z</time>
      </trkpt>
      <trkpt lat="48.12948" lon="-4.26178">
        <ele>61.5</ele>
        <time>2022-05-28T07:19:58Z</time>
      </trkpt>
      <trkpt lat="48.12922" lon="-4.26217">
        <ele>59.4</ele>
        <time>2022-05-28T07:20:02Z</time>
      </trkpt>
      <trkpt lat="48.12914" lon="-4.26245">
        <ele>58.3</ele>
        <time>2022-05-28T07:20:04Z</time>
      </trkpt>
      <trkpt lat="48.12906" lon="-4.26274">
        <ele>57.1</ele>
        <time>2022-05-28T07:20:06Z</time>
      </trkpt>
      <trkpt lat="48.12896" lon="-4.26339">
        <ele>54.6</ele>
        <time>2022-05-28T07:20:10Z</time>
      </trkpt>
      <trkpt lat="48.12897" lon="-4.26357">
        <ele>53.9</ele>
        <time>2022-05-28T07:20:11Z</time>
      </trkpt>
      <trkpt lat="48.12897" lon="-4.26393">
        <ele>52.6</ele>
        <time>2022-05-28T07:20:13Z</time>
      </trkpt>
      <trkpt lat="48.12902" lon="-4.26428">
        <ele>51.2</ele>
        <time>2022-05-28T07:20:15Z</time>
      </trkpt>
      <trkpt lat="48.12906" lon="-4.26445">
        <ele>50.5</ele>
        <time>2022-05-28T07:20:16Z</time>
      </trkpt>
      <trkpt lat="48.12921" lon="-4.26496">
        <ele>48</ele>
        <time>2022-05-28T07:20:19Z</time>
      </trkpt>
      <trkpt lat="48.12943" lon="-4.2654">
        <ele>45.6</ele>
        <time>2022-05-28T07:20:22Z</time>
      </trkpt>
      <trkpt lat="48.1295" lon="-4.26555">
        <ele>44.9</ele>
        <time>2022-05-28T07:20:23Z</time>
      </trkpt>
      <trkpt lat="48.1298" lon="-4.26613">
        <ele>42.1</ele>
        <time>2022-05-28T07:20:27Z</time>
      </trkpt>
      <trkpt lat="48.12985" lon="-4.26624">
        <ele>41.3</ele>
        <time>2022-05-28T07:20:28Z</time>
      </trkpt>
      <trkpt lat="48.13005" lon="-4.26668">
        <ele>38</ele>
        <time>2022-05-28T07:20:32Z</time>
      </trkpt>
      <trkpt lat="48.13008" lon="-4.26678">
        <ele>37.2</ele>
        <time>2022-05-28T07:20:33Z</time>
      </trkpt>
      <trkpt lat="48.13009" lon="-4.26693">
        <ele>36.6</ele>
        <time>2022-05-28T07:20:34Z</time>
      </trkpt>
      <trkpt lat="48.13007" lon="-4.26722">
        <ele>35.6</ele>
        <time>2022-05-28T07:20:37Z</time>
      </trkpt>
      <trkpt lat="48.12992" lon="-4.26701">
        <ele>35.2</ele>
        <time>2022-05-28T07:20:38Z</time>
      </trkpt>
      <trkpt lat="48.12957" lon="-4.26684">
        <ele>33.5</ele>
        <time>2022-05-28T07:20:43Z</time>
      </trkpt>
      <trkpt lat="48.12938" lon="-4.26678">
        <ele>32.7</ele>
        <time>2022-05-28T07:20:46Z</time>
      </trkpt>
      <trkpt lat="48.12912" lon="-4.2667">
        <ele>32.9</ele>
        <time>2022-05-28T07:20:50Z</time>
      </trkpt>
      <trkpt lat="48.129" lon="-4.26667">
        <ele>33.1</ele>
        <time>2022-05-28T07:20:52Z</time>
      </trkpt>
      <trkpt lat="48.12868" lon="-4.26658">
        <ele>34.7</ele>
        <time>2022-05-28T07:20:58Z</time>
      </trkpt>
      <trkpt lat="48.12853" lon="-4.26654">
        <ele>35.7</ele>
        <time>2022-05-28T07:21:02Z</time>
      </trkpt>
      <trkpt lat="48.1285" lon="-4.26652">
        <ele>36</ele>
        <time>2022-05-28T07:21:03Z</time>
      </trkpt>
      <trkpt lat="48.12848" lon="-4.26652">
        <ele>36.2</ele>
        <time>2022-05-28T07:21:04Z</time>
      </trkpt>
      <trkpt lat="48.12831" lon="-4.26648">
        <ele>37.4</ele>
        <time>2022-05-28T07:21:10Z</time>
      </trkpt>
      <trkpt lat="48.12807" lon="-4.26635">
        <ele>38.5</ele>
        <time>2022-05-28T07:21:16Z</time>
      </trkpt>
      <trkpt lat="48.12786" lon="-4.26624">
        <ele>38.4</ele>
        <time>2022-05-28T07:21:21Z</time>
      </trkpt>
      <trkpt lat="48.12746" lon="-4.26592">
        <ele>39.3</ele>
        <time>2022-05-28T07:21:30Z</time>
      </trkpt>
      <trkpt lat="48.12701" lon="-4.26568">
        <ele>40.3</ele>
        <time>2022-05-28T07:21:41Z</time>
      </trkpt>
      <trkpt lat="48.12665" lon="-4.26558">
        <ele>41.2</ele>
        <time>2022-05-28T07:21:50Z</time>
      </trkpt>
      <trkpt lat="48.12657" lon="-4.26555">
        <ele>41.6</ele>
        <time>2022-05-28T07:21:52Z</time>
      </trkpt>
      <trkpt lat="48.12612" lon="-4.26537">
        <ele>44.5</ele>
        <time>2022-05-28T07:22:06Z</time>
      </trkpt>
      <trkpt lat="48.12606" lon="-4.26533">
        <ele>44.9</ele>
        <time>2022-05-28T07:22:08Z</time>
      </trkpt>
      <trkpt lat="48.12573" lon="-4.26504">
        <ele>47</ele>
        <time>2022-05-28T07:22:20Z</time>
      </trkpt>
      <trkpt lat="48.12562" lon="-4.26489">
        <ele>47.9</ele>
        <time>2022-05-28T07:22:25Z</time>
      </trkpt>
      <trkpt lat="48.1256" lon="-4.26487">
        <ele>48.1</ele>
        <time>2022-05-28T07:22:26Z</time>
      </trkpt>
      <trkpt lat="48.12541" lon="-4.26456">
        <ele>50.5</ele>
        <time>2022-05-28T07:22:38Z</time>
      </trkpt>
      <trkpt lat="48.1254" lon="-4.2645">
        <ele>50.9</ele>
        <time>2022-05-28T07:22:40Z</time>
      </trkpt>
      <trkpt lat="48.12536" lon="-4.26444">
        <ele>51.5</ele>
        <time>2022-05-28T07:22:43Z</time>
      </trkpt>
      <trkpt lat="48.12529" lon="-4.2643">
        <ele>52.9</ele>
        <time>2022-05-28T07:22:49Z</time>
      </trkpt>
      <trkpt lat="48.12518" lon="-4.26399">
        <ele>55.6</ele>
        <time>2022-05-28T07:23:01Z</time>
      </trkpt>
      <trkpt lat="48.12508" lon="-4.2637">
        <ele>58.1</ele>
        <time>2022-05-28T07:23:12Z</time>
      </trkpt>
      <trkpt lat="48.12497" lon="-4.26352">
        <ele>59.7</ele>
        <time>2022-05-28T07:23:19Z</time>
      </trkpt>
      <trkpt lat="48.12478" lon="-4.2632">
        <ele>61.5</ele>
        <time>2022-05-28T07:23:31Z</time>
      </trkpt>
      <trkpt lat="48.12456" lon="-4.26299">
        <ele>62.9</ele>
        <time>2022-05-28T07:23:40Z</time>
      </trkpt>
      <trkpt lat="48.1244" lon="-4.26283">
        <ele>63.8</ele>
        <time>2022-05-28T07:23:47Z</time>
      </trkpt>
      <trkpt lat="48.12396" lon="-4.26259">
        <ele>65.6</ele>
        <time>2022-05-28T07:24:01Z</time>
      </trkpt>
      <trkpt lat="48.12378" lon="-4.26245">
        <ele>66.7</ele>
        <time>2022-05-28T07:24:09Z</time>
      </trkpt>
      <trkpt lat="48.12355" lon="-4.26227">
        <ele>68.9</ele>
        <time>2022-05-28T07:24:19Z</time>
      </trkpt>
      <trkpt lat="48.1234" lon="-4.26207">
        <ele>70.6</ele>
        <time>2022-05-28T07:24:27Z</time>
      </trkpt>
      <trkpt lat="48.12318" lon="-4.26179">
        <ele>71.8</ele>
        <time>2022-05-28T07:24:38Z</time>
      </trkpt>
      <trkpt lat="48.12289" lon="-4.26134">
        <ele>73.1</ele>
        <time>2022-05-28T07:24:51Z</time>
      </trkpt>
      <trkpt lat="48.12286" lon="-4.2613">
        <ele>73</ele>
        <time>2022-05-28T07:24:52Z</time>
      </trkpt>
      <trkpt lat="48.12248" lon="-4.26085">
        <ele>71.7</ele>
        <time>2022-05-28T07:25:01Z</time>
      </trkpt>
      <trkpt lat="48.12202" lon="-4.26053">
        <ele>70.8</ele>
        <time>2022-05-28T07:25:08Z</time>
      </trkpt>
      <trkpt lat="48.12193" lon="-4.2605">
        <ele>70.4</ele>
        <time>2022-05-28T07:25:09Z</time>
      </trkpt>
      <trkpt lat="48.12155" lon="-4.26037">
        <ele>67.8</ele>
        <time>2022-05-28T07:25:13Z</time>
      </trkpt>
      <trkpt lat="48.12137" lon="-4.26032">
        <ele>66.8</ele>
        <time>2022-05-28T07:25:15Z</time>
      </trkpt>
      <trkpt lat="48.12112" lon="-4.26024">
        <ele>67.3</ele>
        <time>2022-05-28T07:25:18Z</time>
      </trkpt>
      <trkpt lat="48.12065" lon="-4.26001">
        <ele>68.5</ele>
        <time>2022-05-28T07:25:26Z</time>
      </trkpt>
      <trkpt lat="48.12061" lon="-4.25999">
        <ele>68.7</ele>
        <time>2022-05-28T07:25:27Z</time>
      </trkpt>
      <trkpt lat="48.1202" lon="-4.25982">
        <ele>70.2</ele>
        <time>2022-05-28T07:25:36Z</time>
      </trkpt>
      <trkpt lat="48.11977" lon="-4.25962">
        <ele>72</ele>
        <time>2022-05-28T07:25:46Z</time>
      </trkpt>
      <trkpt lat="48.11964" lon="-4.25955">
        <ele>72.5</ele>
        <time>2022-05-28T07:25:49Z</time>
      </trkpt>
      <trkpt lat="48.11935" lon="-4.25936">
        <ele>73.2</ele>
        <time>2022-05-28T07:25:56Z</time>
      </trkpt>
      <trkpt lat="48.11912" lon="-4.2592">
        <ele>73.7</ele>
        <time>2022-05-28T07:26:01Z</time>
      </trkpt>
      <trkpt lat="48.11888" lon="-4.25903">
        <ele>72.2</ele>
        <time>2022-05-28T07:26:06Z</time>
      </trkpt>
      <trkpt lat="48.11838" lon="-4.25882">
        <ele>70.3</ele>
        <time>2022-05-28T07:26:13Z</time>
      </trkpt>
      <trkpt lat="48.11803" lon="-4.25868">
        <ele>69.7</ele>
        <time>2022-05-28T07:26:17Z</time>
      </trkpt>
      <trkpt lat="48.11764" lon="-4.25826">
        <ele>68.8</ele>
        <time>2022-05-28T07:26:23Z</time>
      </trkpt>
      <trkpt lat="48.11755" lon="-4.25815">
        <ele>68.6</ele>
        <time>2022-05-28T07:26:25Z</time>
      </trkpt>
      <trkpt lat="48.11746" lon="-4.25805">
        <ele>69.3</ele>
        <time>2022-05-28T07:26:27Z</time>
      </trkpt>
      <trkpt lat="48.11731" lon="-4.25797">
        <ele>70.7</ele>
        <time>2022-05-28T07:26:31Z</time>
      </trkpt>
      <trkpt lat="48.11708" lon="-4.25785">
        <ele>72.1</ele>
        <time>2022-05-28T07:26:37Z</time>
      </trkpt>
      <trkpt lat="48.11701" lon="-4.25781">
        <ele>72.6</ele>
        <time>2022-05-28T07:26:39Z</time>
      </trkpt>
      <trkpt lat="48.11668" lon="-4.25769">
        <ele>75.3</ele>
        <time>2022-05-28T07:26:49Z</time>
      </trkpt>
      <trkpt lat="48.11654" lon="-4.25764">
        <ele>76.1</ele>
        <time>2022-05-28T07:26:53Z</time>
      </trkpt>
      <trkpt lat="48.11647" lon="-4.25758">
        <ele>76.5</ele>
        <time>2022-05-28T07:26:55Z</time>
      </trkpt>
      <trkpt lat="48.11616" lon="-4.2573">
        <ele>77.3</ele>
        <time>2022-05-28T07:27:04Z</time>
      </trkpt>
      <trkpt lat="48.11603" lon="-4.2572">
        <ele>77.6</ele>
        <time>2022-05-28T07:27:07Z</time>
      </trkpt>
      <trkpt lat="48.11573" lon="-4.257">
        <ele>78.4</ele>
        <time>2022-05-28T07:27:14Z</time>
      </trkpt>
      <trkpt lat="48.11527" lon="-4.25686">
        <ele>79.7</ele>
        <time>2022-05-28T07:27:24Z</time>
      </trkpt>
      <trkpt lat="48.11495" lon="-4.25678">
        <ele>80.5</ele>
        <time>2022-05-28T07:27:31Z</time>
      </trkpt>
      <trkpt lat="48.11482" lon="-4.25674">
        <ele>80.9</ele>
        <time>2022-05-28T07:27:34Z</time>
      </trkpt>
      <trkpt lat="48.11474" lon="-4.25672">
        <ele>81.1</ele>
        <time>2022-05-28T07:27:36Z</time>
      </trkpt>
      <trkpt lat="48.11455" lon="-4.25669">
        <ele>82.4</ele>
        <time>2022-05-28T07:27:41Z</time>
      </trkpt>
      <trkpt lat="48.11435" lon="-4.25666">
        <ele>83.2</ele>
        <time>2022-05-28T07:27:46Z</time>
      </trkpt>
      <trkpt lat="48.11388" lon="-4.25672">
        <ele>85.5</ele>
        <time>2022-05-28T07:27:59Z</time>
      </trkpt>
      <trkpt lat="48.11341" lon="-4.25681">
        <ele>88.1</ele>
        <time>2022-05-28T07:28:12Z</time>
      </trkpt>
      <trkpt lat="48.11322" lon="-4.25682">
        <ele>89</ele>
        <time>2022-05-28T07:28:17Z</time>
      </trkpt>
      <trkpt lat="48.11294" lon="-4.25683">
        <ele>89.8</ele>
        <time>2022-05-28T07:28:24Z</time>
      </trkpt>
      <trkpt lat="48.11272" lon="-4.25687">
        <ele>90.3</ele>
        <time>2022-05-28T07:28:29Z</time>
      </trkpt>
      <trkpt lat="48.11245" lon="-4.25692">
        <ele>90.6</ele>
        <time>2022-05-28T07:28:35Z</time>
      </trkpt>
      <trkpt lat="48.11198" lon="-4.25714">
        <ele>91</ele>
        <time>2022-05-28T07:28:46Z</time>
      </trkpt>
      <trkpt lat="48.11156" lon="-4.25738">
        <ele>91.4</ele>
        <time>2022-05-28T07:28:56Z</time>
      </trkpt>
      <trkpt lat="48.11129" lon="-4.25759">
        <ele>91.7</ele>
        <time>2022-05-28T07:29:04Z</time>
      </trkpt>
      <trkpt lat="48.11126" lon="-4.25759">
        <ele>91.7</ele>
        <time>2022-05-28T07:29:05Z</time>
      </trkpt>
      <trkpt lat="48.11123" lon="-4.25758">
        <ele>91.8</ele>
        <time>2022-05-28T07:29:06Z</time>
      </trkpt>
      <trkpt lat="48.11118" lon="-4.25749">
        <ele>91.8</ele>
        <time>2022-05-28T07:29:07Z</time>
      </trkpt>
      <trkpt lat="48.11081" lon="-4.25697">
        <ele>92.2</ele>
        <time>2022-05-28T07:29:17Z</time>
      </trkpt>
      <trkpt lat="48.11051" lon="-4.25636">
        <ele>92.5</ele>
        <time>2022-05-28T07:29:26Z</time>
      </trkpt>
      <trkpt lat="48.11022" lon="-4.25581">
        <ele>92.9</ele>
        <time>2022-05-28T07:29:34Z</time>
      </trkpt>
      <trkpt lat="48.10992" lon="-4.25526">
        <ele>93.2</ele>
        <time>2022-05-28T07:29:42Z</time>
      </trkpt>
      <trkpt lat="48.10964" lon="-4.2547">
        <ele>93.5</ele>
        <time>2022-05-28T07:29:51Z</time>
      </trkpt>
      <trkpt lat="48.10951" lon="-4.25439">
        <ele>93.3</ele>
        <time>2022-05-28T07:29:56Z</time>
      </trkpt>
      <trkpt lat="48.10921" lon="-4.25381">
        <ele>92.8</ele>
        <time>2022-05-28T07:30:05Z</time>
      </trkpt>
      <trkpt lat="48.10894" lon="-4.25332">
        <ele>92.4</ele>
        <time>2022-05-28T07:30:13Z</time>
      </trkpt>
      <trkpt lat="48.10888" lon="-4.25329">
        <ele>92.3</ele>
        <time>2022-05-28T07:30:15Z</time>
      </trkpt>
      <trkpt lat="48.1086" lon="-4.2539">
        <ele>92</ele>
        <time>2022-05-28T07:30:23Z</time>
      </trkpt>
      <trkpt lat="48.10833" lon="-4.25449">
        <ele>91.5</ele>
        <time>2022-05-28T07:30:32Z</time>
      </trkpt>
      <trkpt lat="48.10801" lon="-4.25513">
        <ele>91.2</ele>
        <time>2022-05-28T07:30:40Z</time>
      </trkpt>
      <trkpt lat="48.10774" lon="-4.25566">
        <ele>90.7</ele>
        <time>2022-05-28T07:30:45Z</time>
      </trkpt>
      <trkpt lat="48.10769" lon="-4.25578">
        <ele>89.9</ele>
        <time>2022-05-28T07:30:46Z</time>
      </trkpt>
      <trkpt lat="48.1075" lon="-4.25614">
        <ele>87.7</ele>
        <time>2022-05-28T07:30:49Z</time>
      </trkpt>
      <trkpt lat="48.10733" lon="-4.25638">
        <ele>86.2</ele>
        <time>2022-05-28T07:30:51Z</time>
      </trkpt>
      <trkpt lat="48.10716" lon="-4.25661">
        <ele>84.4</ele>
        <time>2022-05-28T07:30:53Z</time>
      </trkpt>
      <trkpt lat="48.10678" lon="-4.25701">
        <ele>81.1</ele>
        <time>2022-05-28T07:30:57Z</time>
      </trkpt>
      <trkpt lat="48.10647" lon="-4.25731">
        <ele>81.4</ele>
        <time>2022-05-28T07:31:01Z</time>
      </trkpt>
      <trkpt lat="48.10612" lon="-4.25784">
        <ele>81.9</ele>
        <time>2022-05-28T07:31:08Z</time>
      </trkpt>
      <trkpt lat="48.10609" lon="-4.2579">
        <ele>82.2</ele>
        <time>2022-05-28T07:31:09Z</time>
      </trkpt>
      <trkpt lat="48.10595" lon="-4.25824">
        <ele>85</ele>
        <time>2022-05-28T07:31:15Z</time>
      </trkpt>
      <trkpt lat="48.10586" lon="-4.25874">
        <ele>87.3</ele>
        <time>2022-05-28T07:31:24Z</time>
      </trkpt>
      <trkpt lat="48.10581" lon="-4.25889">
        <ele>88.1</ele>
        <time>2022-05-28T07:31:27Z</time>
      </trkpt>
      <trkpt lat="48.10569" lon="-4.25918">
        <ele>88.8</ele>
        <time>2022-05-28T07:31:33Z</time>
      </trkpt>
      <trkpt lat="48.10563" lon="-4.25933">
        <ele>89.2</ele>
        <time>2022-05-28T07:31:36Z</time>
      </trkpt>
      <trkpt lat="48.10556" lon="-4.2595">
        <ele>89.6</ele>
        <time>2022-05-28T07:31:39Z</time>
      </trkpt>
      <trkpt lat="48.10541" lon="-4.25984">
        <ele>90.4</ele>
        <time>2022-05-28T07:31:45Z</time>
      </trkpt>
      <trkpt lat="48.10536" lon="-4.25995">
        <ele>90.6</ele>
        <time>2022-05-28T07:31:47Z</time>
      </trkpt>
      <trkpt lat="48.1053" lon="-4.26014">
        <ele>90.7</ele>
        <time>2022-05-28T07:31:50Z</time>
      </trkpt>
      <trkpt lat="48.10514" lon="-4.26058">
        <ele>90</ele>
        <time>2022-05-28T07:31:57Z</time>
      </trkpt>
      <trkpt lat="48.10494" lon="-4.26124">
        <ele>89.2</ele>
        <time>2022-05-28T07:32:05Z</time>
      </trkpt>
      <trkpt lat="48.1048" lon="-4.26197">
        <ele>88.6</ele>
        <time>2022-05-28T07:32:12Z</time>
      </trkpt>
      <trkpt lat="48.10477" lon="-4.26209">
        <ele>88.4</ele>
        <time>2022-05-28T07:32:13Z</time>
      </trkpt>
      <trkpt lat="48.10465" lon="-4.26266">
        <ele>86.9</ele>
        <time>2022-05-28T07:32:18Z</time>
      </trkpt>
      <trkpt lat="48.10462" lon="-4.26278">
        <ele>86.6</ele>
        <time>2022-05-28T07:32:19Z</time>
      </trkpt>
      <trkpt lat="48.10447" lon="-4.26339">
        <ele>85.5</ele>
        <time>2022-05-28T07:32:24Z</time>
      </trkpt>
      <trkpt lat="48.1043" lon="-4.26409">
        <ele>84.2</ele>
        <time>2022-05-28T07:32:30Z</time>
      </trkpt>
      <trkpt lat="48.10428" lon="-4.2642">
        <ele>84</ele>
        <time>2022-05-28T07:32:31Z</time>
      </trkpt>
      <trkpt lat="48.10416" lon="-4.26476">
        <ele>83.8</ele>
        <time>2022-05-28T07:32:36Z</time>
      </trkpt>
      <trkpt lat="48.10413" lon="-4.26486">
        <ele>83.8</ele>
        <time>2022-05-28T07:32:37Z</time>
      </trkpt>
      <trkpt lat="48.10402" lon="-4.26538">
        <ele>84.6</ele>
        <time>2022-05-28T07:32:42Z</time>
      </trkpt>
      <trkpt lat="48.10395" lon="-4.26594">
        <ele>85.5</ele>
        <time>2022-05-28T07:32:48Z</time>
      </trkpt>
      <trkpt lat="48.10393" lon="-4.26602">
        <ele>85.7</ele>
        <time>2022-05-28T07:32:49Z</time>
      </trkpt>
      <trkpt lat="48.10381" lon="-4.26658">
        <ele>87</ele>
        <time>2022-05-28T07:32:56Z</time>
      </trkpt>
      <trkpt lat="48.10378" lon="-4.26665">
        <ele>87.2</ele>
        <time>2022-05-28T07:32:57Z</time>
      </trkpt>
      <trkpt lat="48.10358" lon="-4.26717">
        <ele>88.7</ele>
        <time>2022-05-28T07:33:05Z</time>
      </trkpt>
      <trkpt lat="48.10353" lon="-4.26729">
        <ele>89.1</ele>
        <time>2022-05-28T07:33:07Z</time>
      </trkpt>
      <trkpt lat="48.10333" lon="-4.26775">
        <ele>90.4</ele>
        <time>2022-05-28T07:33:15Z</time>
      </trkpt>
      <trkpt lat="48.10329" lon="-4.26788">
        <ele>90.7</ele>
        <time>2022-05-28T07:33:17Z</time>
      </trkpt>
      <trkpt lat="48.10315" lon="-4.26841">
        <ele>92</ele>
        <time>2022-05-28T07:33:25Z</time>
      </trkpt>
      <trkpt lat="48.10312" lon="-4.26854">
        <ele>92.3</ele>
        <time>2022-05-28T07:33:27Z</time>
      </trkpt>
      <trkpt lat="48.10303" lon="-4.26881">
        <ele>92.7</ele>
        <time>2022-05-28T07:33:31Z</time>
      </trkpt>
      <trkpt lat="48.10291" lon="-4.26915">
        <ele>92.6</ele>
        <time>2022-05-28T07:33:36Z</time>
      </trkpt>
      <trkpt lat="48.1027" lon="-4.26978">
        <ele>92.6</ele>
        <time>2022-05-28T07:33:45Z</time>
      </trkpt>
      <trkpt lat="48.10252" lon="-4.27043">
        <ele>92.6</ele>
        <time>2022-05-28T07:33:54Z</time>
      </trkpt>
      <trkpt lat="48.10249" lon="-4.27065">
        <ele>92.5</ele>
        <time>2022-05-28T07:33:57Z</time>
      </trkpt>
      <trkpt lat="48.10223" lon="-4.2713">
        <ele>92.5</ele>
        <time>2022-05-28T07:34:06Z</time>
      </trkpt>
      <trkpt lat="48.10199" lon="-4.2719">
        <ele>92.4</ele>
        <time>2022-05-28T07:34:14Z</time>
      </trkpt>
      <trkpt lat="48.10171" lon="-4.27252">
        <ele>92.4</ele>
        <time>2022-05-28T07:34:22Z</time>
      </trkpt>
      <trkpt lat="48.10145" lon="-4.2731">
        <ele>92.4</ele>
        <time>2022-05-28T07:34:29Z</time>
      </trkpt>
      <trkpt lat="48.10121" lon="-4.27367">
        <ele>92.3</ele>
        <time>2022-05-28T07:34:35Z</time>
      </trkpt>
      <trkpt lat="48.10097" lon="-4.27421">
        <ele>92.2</ele>
        <time>2022-05-28T07:34:40Z</time>
      </trkpt>
      <trkpt lat="48.10092" lon="-4.27432">
        <ele>91.9</ele>
        <time>2022-05-28T07:34:41Z</time>
      </trkpt>
      <trkpt lat="48.10067" lon="-4.27492">
        <ele>90.1</ele>
        <time>2022-05-28T07:34:46Z</time>
      </trkpt>
      <trkpt lat="48.1004" lon="-4.27563">
        <ele>86.9</ele>
        <time>2022-05-28T07:34:51Z</time>
      </trkpt>
      <trkpt lat="48.10034" lon="-4.2758">
        <ele>86.2</ele>
        <time>2022-05-28T07:34:52Z</time>
      </trkpt>
      <trkpt lat="48.10018" lon="-4.27629">
        <ele>83.6</ele>
        <time>2022-05-28T07:34:55Z</time>
      </trkpt>
      <trkpt lat="48.10002" lon="-4.27685">
        <ele>80.8</ele>
        <time>2022-05-28T07:34:58Z</time>
      </trkpt>
      <trkpt lat="48.09996" lon="-4.27704">
        <ele>79.6</ele>
        <time>2022-05-28T07:34:59Z</time>
      </trkpt>
      <trkpt lat="48.09972" lon="-4.27785">
        <ele>74.8</ele>
        <time>2022-05-28T07:35:03Z</time>
      </trkpt>
      <trkpt lat="48.09966" lon="-4.27807">
        <ele>73.6</ele>
        <time>2022-05-28T07:35:04Z</time>
      </trkpt>
      <trkpt lat="48.09953" lon="-4.27849">
        <ele>71.5</ele>
        <time>2022-05-28T07:35:06Z</time>
      </trkpt>
      <trkpt lat="48.0993" lon="-4.27922">
        <ele>67.8</ele>
        <time>2022-05-28T07:35:10Z</time>
      </trkpt>
      <trkpt lat="48.09909" lon="-4.27982">
        <ele>71.5</ele>
        <time>2022-05-28T07:35:15Z</time>
      </trkpt>
      <trkpt lat="48.09906" lon="-4.27987">
        <ele>72.2</ele>
        <time>2022-05-28T07:35:16Z</time>
      </trkpt>
      <trkpt lat="48.09891" lon="-4.28017">
        <ele>76.7</ele>
        <time>2022-05-28T07:35:22Z</time>
      </trkpt>
      <trkpt lat="48.09881" lon="-4.28036">
        <ele>78.2</ele>
        <time>2022-05-28T07:35:26Z</time>
      </trkpt>
      <trkpt lat="48.09865" lon="-4.28064">
        <ele>81.2</ele>
        <time>2022-05-28T07:35:34Z</time>
      </trkpt>
      <trkpt lat="48.0985" lon="-4.28088">
        <ele>83.4</ele>
        <time>2022-05-28T07:35:41Z</time>
      </trkpt>
      <trkpt lat="48.09841" lon="-4.28104">
        <ele>84.9</ele>
        <time>2022-05-28T07:35:46Z</time>
      </trkpt>
      <trkpt lat="48.09819" lon="-4.28138">
        <ele>88.2</ele>
        <time>2022-05-28T07:35:57Z</time>
      </trkpt>
      <trkpt lat="48.09817" lon="-4.28141">
        <ele>88.5</ele>
        <time>2022-05-28T07:35:58Z</time>
      </trkpt>
      <trkpt lat="48.09808" lon="-4.28156">
        <ele>89.3</ele>
        <time>2022-05-28T07:36:03Z</time>
      </trkpt>
      <trkpt lat="48.09787" lon="-4.2819">
        <ele>91.6</ele>
        <time>2022-05-28T07:36:14Z</time>
      </trkpt>
      <trkpt lat="48.09771" lon="-4.28215">
        <ele>93</ele>
        <time>2022-05-28T07:36:21Z</time>
      </trkpt>
      <trkpt lat="48.09755" lon="-4.28241">
        <ele>93.7</ele>
        <time>2022-05-28T07:36:28Z</time>
      </trkpt>
      <trkpt lat="48.09743" lon="-4.28269">
        <ele>94.1</ele>
        <time>2022-05-28T07:36:33Z</time>
      </trkpt>
      <trkpt lat="48.09731" lon="-4.28298">
        <ele>93.7</ele>
        <time>2022-05-28T07:36:38Z</time>
      </trkpt>
      <trkpt lat="48.09712" lon="-4.28364">
        <ele>93</ele>
        <time>2022-05-28T07:36:47Z</time>
      </trkpt>
      <trkpt lat="48.09704" lon="-4.284">
        <ele>92.6</ele>
        <time>2022-05-28T07:36:51Z</time>
      </trkpt>
      <trkpt lat="48.09696" lon="-4.28435">
        <ele>91.8</ele>
        <time>2022-05-28T07:36:55Z</time>
      </trkpt>
      <trkpt lat="48.09674" lon="-4.28503">
        <ele>90.3</ele>
        <time>2022-05-28T07:37:02Z</time>
      </trkpt>
      <trkpt lat="48.09649" lon="-4.28562">
        <ele>89</ele>
        <time>2022-05-28T07:37:08Z</time>
      </trkpt>
      <trkpt lat="48.09645" lon="-4.28572">
        <ele>88.8</ele>
        <time>2022-05-28T07:37:09Z</time>
      </trkpt>
      <trkpt lat="48.09631" lon="-4.28604">
        <ele>87.9</ele>
        <time>2022-05-28T07:37:12Z</time>
      </trkpt>
      <trkpt lat="48.09606" lon="-4.28669">
        <ele>86.3</ele>
        <time>2022-05-28T07:37:18Z</time>
      </trkpt>
      <trkpt lat="48.09595" lon="-4.2869">
        <ele>85.7</ele>
        <time>2022-05-28T07:37:20Z</time>
      </trkpt>
      <trkpt lat="48.09588" lon="-4.28698">
        <ele>85.5</ele>
        <time>2022-05-28T07:37:21Z</time>
      </trkpt>
      <trkpt lat="48.09574" lon="-4.28716">
        <ele>85.1</ele>
        <time>2022-05-28T07:37:23Z</time>
      </trkpt>
      <trkpt lat="48.09571" lon="-4.28728">
        <ele>85</ele>
        <time>2022-05-28T07:37:24Z</time>
      </trkpt>
      <trkpt lat="48.09569" lon="-4.28741">
        <ele>84.8</ele>
        <time>2022-05-28T07:37:25Z</time>
      </trkpt>
      <trkpt lat="48.09555" lon="-4.28785">
        <ele>84.1</ele>
        <time>2022-05-28T07:37:29Z</time>
      </trkpt>
      <trkpt lat="48.09534" lon="-4.28821">
        <ele>83.5</ele>
        <time>2022-05-28T07:37:33Z</time>
      </trkpt>
      <trkpt lat="48.09524" lon="-4.28838">
        <ele>83.5</ele>
        <time>2022-05-28T07:37:35Z</time>
      </trkpt>
      <trkpt lat="48.09502" lon="-4.28869">
        <ele>83.4</ele>
        <time>2022-05-28T07:37:39Z</time>
      </trkpt>
      <trkpt lat="48.09491" lon="-4.28885">
        <ele>83.3</ele>
        <time>2022-05-28T07:37:41Z</time>
      </trkpt>
      <trkpt lat="48.09454" lon="-4.28936">
        <ele>83.1</ele>
        <time>2022-05-28T07:37:48Z</time>
      </trkpt>
      <trkpt lat="48.09427" lon="-4.28995">
        <ele>82.8</ele>
        <time>2022-05-28T07:37:55Z</time>
      </trkpt>
      <trkpt lat="48.09423" lon="-4.29004">
        <ele>82.8</ele>
        <time>2022-05-28T07:37:56Z</time>
      </trkpt>
      <trkpt lat="48.09408" lon="-4.29075">
        <ele>82.5</ele>
        <time>2022-05-28T07:38:03Z</time>
      </trkpt>
      <trkpt lat="48.094" lon="-4.29131">
        <ele>82.2</ele>
        <time>2022-05-28T07:38:08Z</time>
      </trkpt>
      <trkpt lat="48.09379" lon="-4.29191">
        <ele>79.7</ele>
        <time>2022-05-28T07:38:13Z</time>
      </trkpt>
      <trkpt lat="48.09375" lon="-4.29203">
        <ele>78.7</ele>
        <time>2022-05-28T07:38:14Z</time>
      </trkpt>
      <trkpt lat="48.09355" lon="-4.29245">
        <ele>74.9</ele>
        <time>2022-05-28T07:38:18Z</time>
      </trkpt>
      <trkpt lat="48.09346" lon="-4.29266">
        <ele>73.1</ele>
        <time>2022-05-28T07:38:20Z</time>
      </trkpt>
      <trkpt lat="48.09339" lon="-4.29285">
        <ele>71.3</ele>
        <time>2022-05-28T07:38:22Z</time>
      </trkpt>
      <trkpt lat="48.09337" lon="-4.29297">
        <ele>70.7</ele>
        <time>2022-05-28T07:38:23Z</time>
      </trkpt>
      <trkpt lat="48.09338" lon="-4.29309">
        <ele>68.8</ele>
        <time>2022-05-28T07:38:31Z</time>
      </trkpt>
      <trkpt lat="48.09336" lon="-4.29297">
        <ele>68.5</ele>
        <time>2022-05-28T07:38:32Z</time>
      </trkpt>
      <trkpt lat="48.09338" lon="-4.293">
        <ele>68.4</ele>
        <time>2022-05-28T07:38:33Z</time>
      </trkpt>
      <trkpt lat="48.09339" lon="-4.29301">
        <ele>68.4</ele>
        <time>2022-05-28T07:38:34Z</time>
      </trkpt>
      <trkpt lat="48.09337" lon="-4.29292">
        <ele>68.5</ele>
        <time>2022-05-28T07:38:37Z</time>
      </trkpt>
      <trkpt lat="48.09333" lon="-4.2929">
        <ele>68.4</ele>
        <time>2022-05-28T07:38:38Z</time>
      </trkpt>
      <trkpt lat="48.0933" lon="-4.29292">
        <ele>68.1</ele>
        <time>2022-05-28T07:38:39Z</time>
      </trkpt>
      <trkpt lat="48.09328" lon="-4.29298">
        <ele>67.8</ele>
        <time>2022-05-28T07:38:40Z</time>
      </trkpt>
      <trkpt lat="48.09323" lon="-4.29303">
        <ele>67.5</ele>
        <time>2022-05-28T07:38:41Z</time>
      </trkpt>
      <trkpt lat="48.09314" lon="-4.29317">
        <ele>66.5</ele>
        <time>2022-05-28T07:38:43Z</time>
      </trkpt>
      <trkpt lat="48.09301" lon="-4.29339">
        <ele>62.7</ele>
        <time>2022-05-28T07:38:46Z</time>
      </trkpt>
      <trkpt lat="48.0929" lon="-4.29352">
        <ele>60.2</ele>
        <time>2022-05-28T07:38:48Z</time>
      </trkpt>
      <trkpt lat="48.09285" lon="-4.29359">
        <ele>59.1</ele>
        <time>2022-05-28T07:38:49Z</time>
      </trkpt>
      <trkpt lat="48.09267" lon="-4.29395">
        <ele>54.5</ele>
        <time>2022-05-28T07:38:53Z</time>
      </trkpt>
      <trkpt lat="48.09254" lon="-4.29422">
        <ele>51.4</ele>
        <time>2022-05-28T07:38:56Z</time>
      </trkpt>
      <trkpt lat="48.09252" lon="-4.29433">
        <ele>50.4</ele>
        <time>2022-05-28T07:38:57Z</time>
      </trkpt>
      <trkpt lat="48.09245" lon="-4.2945">
        <ele>48.4</ele>
        <time>2022-05-28T07:38:59Z</time>
      </trkpt>
      <trkpt lat="48.09239" lon="-4.29465">
        <ele>46.4</ele>
        <time>2022-05-28T07:39:01Z</time>
      </trkpt>
      <trkpt lat="48.09236" lon="-4.29467">
        <ele>42.6</ele>
        <time>2022-05-28T07:39:05Z</time>
      </trkpt>
      <trkpt lat="48.09233" lon="-4.29474">
        <ele>41.7</ele>
        <time>2022-05-28T07:39:11Z</time>
      </trkpt>
      <trkpt lat="48.09239" lon="-4.29522">
        <ele>40.8</ele>
        <time>2022-05-28T07:39:17Z</time>
      </trkpt>
      <trkpt lat="48.09232" lon="-4.2959">
        <ele>39.1</ele>
        <time>2022-05-28T07:39:23Z</time>
      </trkpt>
      <trkpt lat="48.09217" lon="-4.2964">
        <ele>37.7</ele>
        <time>2022-05-28T07:39:27Z</time>
      </trkpt>
      <trkpt lat="48.09188" lon="-4.29691">
        <ele>35.9</ele>
        <time>2022-05-28T07:39:32Z</time>
      </trkpt>
      <trkpt lat="48.09172" lon="-4.29712">
        <ele>35</ele>
        <time>2022-05-28T07:39:35Z</time>
      </trkpt>
      <trkpt lat="48.09149" lon="-4.2974">
        <ele>35.4</ele>
        <time>2022-05-28T07:39:39Z</time>
      </trkpt>
      <trkpt lat="48.0914" lon="-4.29752">
        <ele>35.7</ele>
        <time>2022-05-28T07:39:41Z</time>
      </trkpt>
      <trkpt lat="48.09113" lon="-4.29785">
        <ele>37</ele>
        <time>2022-05-28T07:39:47Z</time>
      </trkpt>
      <trkpt lat="48.09089" lon="-4.29809">
        <ele>38.7</ele>
        <time>2022-05-28T07:39:53Z</time>
      </trkpt>
      <trkpt lat="48.09073" lon="-4.29824">
        <ele>39.5</ele>
        <time>2022-05-28T07:39:57Z</time>
      </trkpt>
      <trkpt lat="48.09067" lon="-4.29832">
        <ele>39.9</ele>
        <time>2022-05-28T07:39:59Z</time>
      </trkpt>
      <trkpt lat="48.09041" lon="-4.29873">
        <ele>42.2</ele>
        <time>2022-05-28T07:40:09Z</time>
      </trkpt>
      <trkpt lat="48.09033" lon="-4.29907">
        <ele>44.1</ele>
        <time>2022-05-28T07:40:17Z</time>
      </trkpt>
      <trkpt lat="48.09027" lon="-4.29932">
        <ele>45.8</ele>
        <time>2022-05-28T07:40:23Z</time>
      </trkpt>
      <trkpt lat="48.09026" lon="-4.29936">
        <ele>46</ele>
        <time>2022-05-28T07:40:24Z</time>
      </trkpt>
      <trkpt lat="48.09023" lon="-4.29983">
        <ele>48.8</ele>
        <time>2022-05-28T07:40:35Z</time>
      </trkpt>
      <trkpt lat="48.09022" lon="-4.30005">
        <ele>49.8</ele>
        <time>2022-05-28T07:40:40Z</time>
      </trkpt>
      <trkpt lat="48.09018" lon="-4.30055">
        <ele>52.5</ele>
        <time>2022-05-28T07:40:53Z</time>
      </trkpt>
      <trkpt lat="48.09017" lon="-4.30075">
        <ele>53.5</ele>
        <time>2022-05-28T07:40:58Z</time>
      </trkpt>
      <trkpt lat="48.09017" lon="-4.30098">
        <ele>54.8</ele>
        <time>2022-05-28T07:41:04Z</time>
      </trkpt>
      <trkpt lat="48.09011" lon="-4.30124">
        <ele>56.2</ele>
        <time>2022-05-28T07:41:11Z</time>
      </trkpt>
      <trkpt lat="48.09002" lon="-4.30161">
        <ele>58.4</ele>
        <time>2022-05-28T07:41:21Z</time>
      </trkpt>
      <trkpt lat="48.08993" lon="-4.30187">
        <ele>60.1</ele>
        <time>2022-05-28T07:41:29Z</time>
      </trkpt>
      <trkpt lat="48.08979" lon="-4.30223">
        <ele>62.5</ele>
        <time>2022-05-28T07:41:40Z</time>
      </trkpt>
      <trkpt lat="48.08971" lon="-4.30241">
        <ele>63.9</ele>
        <time>2022-05-28T07:41:46Z</time>
      </trkpt>
      <trkpt lat="48.08953" lon="-4.30278">
        <ele>66</ele>
        <time>2022-05-28T07:41:58Z</time>
      </trkpt>
      <trkpt lat="48.08945" lon="-4.30297">
        <ele>67</ele>
        <time>2022-05-28T07:42:04Z</time>
      </trkpt>
      <trkpt lat="48.08927" lon="-4.30334">
        <ele>69.3</ele>
        <time>2022-05-28T07:42:16Z</time>
      </trkpt>
      <trkpt lat="48.08918" lon="-4.30349">
        <ele>70.3</ele>
        <time>2022-05-28T07:42:21Z</time>
      </trkpt>
      <trkpt lat="48.08894" lon="-4.30385">
        <ele>72.8</ele>
        <time>2022-05-28T07:42:34Z</time>
      </trkpt>
      <trkpt lat="48.08884" lon="-4.30397">
        <ele>73.8</ele>
        <time>2022-05-28T07:42:39Z</time>
      </trkpt>
      <trkpt lat="48.08858" lon="-4.30426">
        <ele>76.5</ele>
        <time>2022-05-28T07:42:52Z</time>
      </trkpt>
      <trkpt lat="48.08848" lon="-4.30436">
        <ele>77.6</ele>
        <time>2022-05-28T07:42:57Z</time>
      </trkpt>
      <trkpt lat="48.0882" lon="-4.30466">
        <ele>80.7</ele>
        <time>2022-05-28T07:43:11Z</time>
      </trkpt>
      <trkpt lat="48.08815" lon="-4.30479">
        <ele>81.6</ele>
        <time>2022-05-28T07:43:15Z</time>
      </trkpt>
      <trkpt lat="48.08796" lon="-4.30525">
        <ele>84.3</ele>
        <time>2022-05-28T07:43:29Z</time>
      </trkpt>
      <trkpt lat="48.08794" lon="-4.30541">
        <ele>85.1</ele>
        <time>2022-05-28T07:43:33Z</time>
      </trkpt>
      <trkpt lat="48.08787" lon="-4.30594">
        <ele>87.6</ele>
        <time>2022-05-28T07:43:46Z</time>
      </trkpt>
      <trkpt lat="48.08792" lon="-4.3062">
        <ele>88.6</ele>
        <time>2022-05-28T07:43:51Z</time>
      </trkpt>
      <trkpt lat="48.08799" lon="-4.3065">
        <ele>89.2</ele>
        <time>2022-05-28T07:43:57Z</time>
      </trkpt>
      <trkpt lat="48.08802" lon="-4.30661">
        <ele>89.3</ele>
        <time>2022-05-28T07:43:59Z</time>
      </trkpt>
      <trkpt lat="48.0882" lon="-4.30729">
        <ele>90.1</ele>
        <time>2022-05-28T07:44:10Z</time>
      </trkpt>
      <trkpt lat="48.08836" lon="-4.30793">
        <ele>90.9</ele>
        <time>2022-05-28T07:44:20Z</time>
      </trkpt>
      <trkpt lat="48.08851" lon="-4.30858">
        <ele>91.6</ele>
        <time>2022-05-28T07:44:30Z</time>
      </trkpt>
      <trkpt lat="48.08857" lon="-4.30883">
        <ele>91.9</ele>
        <time>2022-05-28T07:44:34Z</time>
      </trkpt>
      <trkpt lat="48.08859" lon="-4.30937">
        <ele>92.6</ele>
        <time>2022-05-28T07:44:43Z</time>
      </trkpt>
      <trkpt lat="48.0886" lon="-4.30956">
        <ele>92.9</ele>
        <time>2022-05-28T07:44:46Z</time>
      </trkpt>
      <trkpt lat="48.0886" lon="-4.31013">
        <ele>93.9</ele>
        <time>2022-05-28T07:44:55Z</time>
      </trkpt>
      <trkpt lat="48.0886" lon="-4.31025">
        <ele>94</ele>
        <time>2022-05-28T07:44:57Z</time>
      </trkpt>
      <trkpt lat="48.08851" lon="-4.31095">
        <ele>94.5</ele>
        <time>2022-05-28T07:45:08Z</time>
      </trkpt>
      <trkpt lat="48.08844" lon="-4.31165">
        <ele>95</ele>
        <time>2022-05-28T07:45:18Z</time>
      </trkpt>
      <trkpt lat="48.08836" lon="-4.31239">
        <ele>95.5</ele>
        <time>2022-05-28T07:45:27Z</time>
      </trkpt>
      <trkpt lat="48.08831" lon="-4.31306">
        <ele>95.9</ele>
        <time>2022-05-28T07:45:35Z</time>
      </trkpt>
      <trkpt lat="48.08824" lon="-4.31374">
        <ele>96.3</ele>
        <time>2022-05-28T07:45:43Z</time>
      </trkpt>
      <trkpt lat="48.08817" lon="-4.31442">
        <ele>96.7</ele>
        <time>2022-05-28T07:45:51Z</time>
      </trkpt>
      <trkpt lat="48.08807" lon="-4.3151">
        <ele>97.2</ele>
        <time>2022-05-28T07:46:00Z</time>
      </trkpt>
      <trkpt lat="48.08794" lon="-4.31579">
        <ele>97.7</ele>
        <time>2022-05-28T07:46:10Z</time>
      </trkpt>
      <trkpt lat="48.0879" lon="-4.316">
        <ele>97.9</ele>
        <time>2022-05-28T07:46:13Z</time>
      </trkpt>
      <trkpt lat="48.08782" lon="-4.31649">
        <ele>98.6</ele>
        <time>2022-05-28T07:46:20Z</time>
      </trkpt>
      <trkpt lat="48.08779" lon="-4.31689">
        <ele>99.1</ele>
        <time>2022-05-28T07:46:25Z</time>
      </trkpt>
      <trkpt lat="48.08777" lon="-4.31721">
        <ele>98.8</ele>
        <time>2022-05-28T07:46:29Z</time>
      </trkpt>
      <trkpt lat="48.08774" lon="-4.31792">
        <ele>98.1</ele>
        <time>2022-05-28T07:46:37Z</time>
      </trkpt>
      <trkpt lat="48.08771" lon="-4.31869">
        <ele>97.5</ele>
        <time>2022-05-28T07:46:45Z</time>
      </trkpt>
      <trkpt lat="48.08769" lon="-4.31945">
        <ele>96.8</ele>
        <time>2022-05-28T07:46:53Z</time>
      </trkpt>
      <trkpt lat="48.08767" lon="-4.31964">
        <ele>96.7</ele>
        <time>2022-05-28T07:46:55Z</time>
      </trkpt>
      <trkpt lat="48.08768" lon="-4.31974">
        <ele>96.6</ele>
        <time>2022-05-28T07:46:56Z</time>
      </trkpt>
      <trkpt lat="48.08763" lon="-4.32038">
        <ele>96</ele>
        <time>2022-05-28T07:47:03Z</time>
      </trkpt>
      <trkpt lat="48.08763" lon="-4.32047">
        <ele>95.7</ele>
        <time>2022-05-28T07:47:04Z</time>
      </trkpt>
      <trkpt lat="48.08766" lon="-4.32088">
        <ele>94.7</ele>
        <time>2022-05-28T07:47:08Z</time>
      </trkpt>
      <trkpt lat="48.0877" lon="-4.32098">
        <ele>94.4</ele>
        <time>2022-05-28T07:47:09Z</time>
      </trkpt>
      <trkpt lat="48.0878" lon="-4.32119">
        <ele>93.6</ele>
        <time>2022-05-28T07:47:11Z</time>
      </trkpt>
      <trkpt lat="48.08805" lon="-4.32158">
        <ele>92</ele>
        <time>2022-05-28T07:47:15Z</time>
      </trkpt>
      <trkpt lat="48.08811" lon="-4.32168">
        <ele>91.4</ele>
        <time>2022-05-28T07:47:16Z</time>
      </trkpt>
      <trkpt lat="48.08844" lon="-4.32219">
        <ele>88.6</ele>
        <time>2022-05-28T07:47:21Z</time>
      </trkpt>
      <trkpt lat="48.08879" lon="-4.32274">
        <ele>87.5</ele>
        <time>2022-05-28T07:47:27Z</time>
      </trkpt>
      <trkpt lat="48.08893" lon="-4.32303">
        <ele>86.9</ele>
        <time>2022-05-28T07:47:30Z</time>
      </trkpt>
      <trkpt lat="48.08902" lon="-4.32333">
        <ele>86.2</ele>
        <time>2022-05-28T07:47:33Z</time>
      </trkpt>
      <trkpt lat="48.08914" lon="-4.32372">
        <ele>84</ele>
        <time>2022-05-28T07:47:37Z</time>
      </trkpt>
      <trkpt lat="48.08922" lon="-4.32392">
        <ele>83</ele>
        <time>2022-05-28T07:47:39Z</time>
      </trkpt>
      <trkpt lat="48.08939" lon="-4.3244">
        <ele>80.6</ele>
        <time>2022-05-28T07:47:44Z</time>
      </trkpt>
      <trkpt lat="48.08964" lon="-4.32501">
        <ele>77.4</ele>
        <time>2022-05-28T07:47:51Z</time>
      </trkpt>
      <trkpt lat="48.08984" lon="-4.32545">
        <ele>76.3</ele>
        <time>2022-05-28T07:47:57Z</time>
      </trkpt>
      <trkpt lat="48.09002" lon="-4.32569">
        <ele>75.2</ele>
        <time>2022-05-28T07:48:03Z</time>
      </trkpt>
      <trkpt lat="48.0902" lon="-4.32594">
        <ele>74.5</ele>
        <time>2022-05-28T07:48:09Z</time>
      </trkpt>
      <trkpt lat="48.09046" lon="-4.32624">
        <ele>73.8</ele>
        <time>2022-05-28T07:48:15Z</time>
      </trkpt>
      <trkpt lat="48.09058" lon="-4.32639">
        <ele>73.2</ele>
        <time>2022-05-28T07:48:18Z</time>
      </trkpt>
      <trkpt lat="48.09071" lon="-4.32651">
        <ele>72.7</ele>
        <time>2022-05-28T07:48:21Z</time>
      </trkpt>
      <trkpt lat="48.09097" lon="-4.32675">
        <ele>71.5</ele>
        <time>2022-05-28T07:48:27Z</time>
      </trkpt>
      <trkpt lat="48.0913" lon="-4.32714">
        <ele>69.3</ele>
        <time>2022-05-28T07:48:37Z</time>
      </trkpt>
      <trkpt lat="48.09137" lon="-4.32721">
        <ele>68.5</ele>
        <time>2022-05-28T07:48:39Z</time>
      </trkpt>
      <trkpt lat="48.09152" lon="-4.32738">
        <ele>67</ele>
        <time>2022-05-28T07:48:43Z</time>
      </trkpt>
      <trkpt lat="48.09175" lon="-4.32763">
        <ele>64.9</ele>
        <time>2022-05-28T07:48:49Z</time>
      </trkpt>
      <trkpt lat="48.09204" lon="-4.3279">
        <ele>62.9</ele>
        <time>2022-05-28T07:48:55Z</time>
      </trkpt>
      <trkpt lat="48.09213" lon="-4.32799">
        <ele>62.2</ele>
        <time>2022-05-28T07:48:57Z</time>
      </trkpt>
      <trkpt lat="48.09256" lon="-4.32838">
        <ele>59.6</ele>
        <time>2022-05-28T07:49:05Z</time>
      </trkpt>
      <trkpt lat="48.09269" lon="-4.32849">
        <ele>58.9</ele>
        <time>2022-05-28T07:49:07Z</time>
      </trkpt>
      <trkpt lat="48.09296" lon="-4.32872">
        <ele>57.7</ele>
        <time>2022-05-28T07:49:11Z</time>
      </trkpt>
      <trkpt lat="48.09326" lon="-4.32897">
        <ele>56.5</ele>
        <time>2022-05-28T07:49:15Z</time>
      </trkpt>
      <trkpt lat="48.09354" lon="-4.32917">
        <ele>55.4</ele>
        <time>2022-05-28T07:49:19Z</time>
      </trkpt>
      <trkpt lat="48.09366" lon="-4.32926">
        <ele>55.2</ele>
        <time>2022-05-28T07:49:21Z</time>
      </trkpt>
      <trkpt lat="48.09379" lon="-4.32936">
        <ele>54.7</ele>
        <time>2022-05-28T07:49:25Z</time>
      </trkpt>
      <trkpt lat="48.09399" lon="-4.32952">
        <ele>54.3</ele>
        <time>2022-05-28T07:49:31Z</time>
      </trkpt>
      <trkpt lat="48.09409" lon="-4.3296">
        <ele>54.1</ele>
        <time>2022-05-28T07:49:34Z</time>
      </trkpt>
      <trkpt lat="48.09447" lon="-4.33003">
        <ele>53.6</ele>
        <time>2022-05-28T07:49:44Z</time>
      </trkpt>
      <trkpt lat="48.0948" lon="-4.33051">
        <ele>53.1</ele>
        <time>2022-05-28T07:49:53Z</time>
      </trkpt>
      <trkpt lat="48.09514" lon="-4.33095">
        <ele>52.7</ele>
        <time>2022-05-28T07:50:01Z</time>
      </trkpt>
      <trkpt lat="48.09547" lon="-4.33144">
        <ele>52.3</ele>
        <time>2022-05-28T07:50:09Z</time>
      </trkpt>
      <trkpt lat="48.09555" lon="-4.33155">
        <ele>52.1</ele>
        <time>2022-05-28T07:50:11Z</time>
      </trkpt>
      <trkpt lat="48.09577" lon="-4.33177">
        <ele>51.9</ele>
        <time>2022-05-28T07:50:16Z</time>
      </trkpt>
      <trkpt lat="48.09607" lon="-4.33236">
        <ele>51.5</ele>
        <time>2022-05-28T07:50:24Z</time>
      </trkpt>
      <trkpt lat="48.09638" lon="-4.33299">
        <ele>51.1</ele>
        <time>2022-05-28T07:50:30Z</time>
      </trkpt>
      <trkpt lat="48.09643" lon="-4.33309">
        <ele>50.9</ele>
        <time>2022-05-28T07:50:31Z</time>
      </trkpt>
      <trkpt lat="48.09658" lon="-4.33339">
        <ele>48.6</ele>
        <time>2022-05-28T07:50:34Z</time>
      </trkpt>
      <trkpt lat="48.09662" lon="-4.33351">
        <ele>47.9</ele>
        <time>2022-05-28T07:50:35Z</time>
      </trkpt>
      <trkpt lat="48.09669" lon="-4.33359">
        <ele>47.1</ele>
        <time>2022-05-28T07:50:36Z</time>
      </trkpt>
      <trkpt lat="48.09674" lon="-4.33368">
        <ele>46.5</ele>
        <time>2022-05-28T07:50:37Z</time>
      </trkpt>
      <trkpt lat="48.097" lon="-4.33412">
        <ele>43.7</ele>
        <time>2022-05-28T07:50:42Z</time>
      </trkpt>
      <trkpt lat="48.09706" lon="-4.33461">
        <ele>40.4</ele>
        <time>2022-05-28T07:50:48Z</time>
      </trkpt>
      <trkpt lat="48.09669" lon="-4.33503">
        <ele>35.5</ele>
        <time>2022-05-28T07:50:52Z</time>
      </trkpt>
      <trkpt lat="48.09669" lon="-4.33503">
        <ele>35.5</ele>
        <time>2022-05-28T07:57:09Z</time>
      </trkpt>
      <trkpt lat="48.09629" lon="-4.33531">
        <ele>32.4</ele>
        <time>2022-05-28T07:57:22Z</time>
      </trkpt>
      <trkpt lat="48.09584" lon="-4.33514">
        <ele>32.4</ele>
        <time>2022-05-28T07:57:38Z</time>
      </trkpt>
      <trkpt lat="48.09539" lon="-4.33501">
        <ele>32.4</ele>
        <time>2022-05-28T07:57:47Z</time>
      </trkpt>
      <trkpt lat="48.09494" lon="-4.33488">
        <ele>32.4</ele>
        <time>2022-05-28T07:57:55Z</time>
      </trkpt>
      <trkpt lat="48.09448" lon="-4.33469">
        <ele>32.4</ele>
        <time>2022-05-28T07:58:03Z</time>
      </trkpt>
      <trkpt lat="48.09414" lon="-4.33445">
        <ele>32.4</ele>
        <time>2022-05-28T07:58:09Z</time>
      </trkpt>
      <trkpt lat="48.09371" lon="-4.33421">
        <ele>32.4</ele>
        <time>2022-05-28T07:58:16Z</time>
      </trkpt>
      <trkpt lat="48.09278" lon="-4.33361">
        <ele>33.8</ele>
        <time>2022-05-28T07:58:31Z</time>
      </trkpt>
      <trkpt lat="48.09278" lon="-4.33361">
        <ele>33.8</ele>
        <time>2022-05-28T08:43:02Z</time>
      </trkpt>
      <trkpt lat="48.09229" lon="-4.33331">
        <ele>35.2</ele>
        <time>2022-05-28T08:43:09Z</time>
      </trkpt>
      <trkpt lat="48.09183" lon="-4.33307">
        <ele>35.2</ele>
        <time>2022-05-28T08:43:20Z</time>
      </trkpt>
      <trkpt lat="48.09135" lon="-4.33282">
        <ele>35.2</ele>
        <time>2022-05-28T08:43:29Z</time>
      </trkpt>
      <trkpt lat="48.0909" lon="-4.33261">
        <ele>35.2</ele>
        <time>2022-05-28T08:43:37Z</time>
      </trkpt>
      <trkpt lat="48.09046" lon="-4.33235">
        <ele>35.2</ele>
        <time>2022-05-28T08:43:45Z</time>
      </trkpt>
      <trkpt lat="48.09001" lon="-4.33213">
        <ele>35.2</ele>
        <time>2022-05-28T08:43:55Z</time>
      </trkpt>
      <trkpt lat="48.08952" lon="-4.33198">
        <ele>35.2</ele>
        <time>2022-05-28T08:44:05Z</time>
      </trkpt>
      <trkpt lat="48.08906" lon="-4.33185">
        <ele>35.2</ele>
        <time>2022-05-28T08:44:14Z</time>
      </trkpt>
      <trkpt lat="48.08857" lon="-4.33168">
        <ele>35.2</ele>
        <time>2022-05-28T08:44:24Z</time>
      </trkpt>
      <trkpt lat="48.08813" lon="-4.33152">
        <ele>35.2</ele>
        <time>2022-05-28T08:44:33Z</time>
      </trkpt>
      <trkpt lat="48.08765" lon="-4.33155">
        <ele>35.2</ele>
        <time>2022-05-28T08:44:42Z</time>
      </trkpt>
      <trkpt lat="48.08718" lon="-4.33169">
        <ele>35.3</ele>
        <time>2022-05-28T08:44:51Z</time>
      </trkpt>
      <trkpt lat="48.08672" lon="-4.33183">
        <ele>35.3</ele>
        <time>2022-05-28T08:45:00Z</time>
      </trkpt>
      <trkpt lat="48.08625" lon="-4.33197">
        <ele>35.3</ele>
        <time>2022-05-28T08:45:09Z</time>
      </trkpt>
      <trkpt lat="48.08579" lon="-4.33215">
        <ele>35.3</ele>
        <time>2022-05-28T08:45:18Z</time>
      </trkpt>
      <trkpt lat="48.08533" lon="-4.33223">
        <ele>35.3</ele>
        <time>2022-05-28T08:45:27Z</time>
      </trkpt>
      <trkpt lat="48.08488" lon="-4.33205">
        <ele>35.3</ele>
        <time>2022-05-28T08:45:36Z</time>
      </trkpt>
      <trkpt lat="48.08446" lon="-4.33168">
        <ele>35.3</ele>
        <time>2022-05-28T08:45:45Z</time>
      </trkpt>
      <trkpt lat="48.08405" lon="-4.33127">
        <ele>35.3</ele>
        <time>2022-05-28T08:45:54Z</time>
      </trkpt>
      <trkpt lat="48.08367" lon="-4.33085">
        <ele>35.4</ele>
        <time>2022-05-28T08:46:04Z</time>
      </trkpt>
      <trkpt lat="48.08328" lon="-4.33044">
        <ele>37.1</ele>
        <time>2022-05-28T08:46:16Z</time>
      </trkpt>
      <trkpt lat="48.08289" lon="-4.33007">
        <ele>39</ele>
        <time>2022-05-28T08:46:29Z</time>
      </trkpt>
      <trkpt lat="48.08264" lon="-4.32981">
        <ele>40.4</ele>
        <time>2022-05-28T08:46:38Z</time>
      </trkpt>
      <trkpt lat="48.08249" lon="-4.32967">
        <ele>41</ele>
        <time>2022-05-28T08:46:43Z</time>
      </trkpt>
      <trkpt lat="48.08224" lon="-4.32935">
        <ele>42.1</ele>
        <time>2022-05-28T08:46:53Z</time>
      </trkpt>
      <trkpt lat="48.08213" lon="-4.32922">
        <ele>42.2</ele>
        <time>2022-05-28T08:46:57Z</time>
      </trkpt>
      <trkpt lat="48.08169" lon="-4.32897">
        <ele>42.5</ele>
        <time>2022-05-28T08:47:08Z</time>
      </trkpt>
      <trkpt lat="48.08142" lon="-4.3287">
        <ele>42.8</ele>
        <time>2022-05-28T08:47:16Z</time>
      </trkpt>
      <trkpt lat="48.08143" lon="-4.32817">
        <ele>43.2</ele>
        <time>2022-05-28T08:47:29Z</time>
      </trkpt>
      <trkpt lat="48.08143" lon="-4.328">
        <ele>44.4</ele>
        <time>2022-05-28T08:47:33Z</time>
      </trkpt>
      <trkpt lat="48.08143" lon="-4.32793">
        <ele>44.9</ele>
        <time>2022-05-28T08:47:35Z</time>
      </trkpt>
      <trkpt lat="48.08144" lon="-4.32749">
        <ele>47.6</ele>
        <time>2022-05-28T08:47:47Z</time>
      </trkpt>
      <trkpt lat="48.08145" lon="-4.32731">
        <ele>48.5</ele>
        <time>2022-05-28T08:47:52Z</time>
      </trkpt>
      <trkpt lat="48.08145" lon="-4.32673">
        <ele>50.6</ele>
        <time>2022-05-28T08:48:05Z</time>
      </trkpt>
      <trkpt lat="48.08145" lon="-4.32658">
        <ele>50.2</ele>
        <time>2022-05-28T08:48:08Z</time>
      </trkpt>
      <trkpt lat="48.08146" lon="-4.32637">
        <ele>49.8</ele>
        <time>2022-05-28T08:48:11Z</time>
      </trkpt>
      <trkpt lat="48.08143" lon="-4.32622">
        <ele>49.4</ele>
        <time>2022-05-28T08:48:13Z</time>
      </trkpt>
      <trkpt lat="48.08137" lon="-4.32614">
        <ele>49.1</ele>
        <time>2022-05-28T08:48:14Z</time>
      </trkpt>
      <trkpt lat="48.0814" lon="-4.32606">
        <ele>48.9</ele>
        <time>2022-05-28T08:48:15Z</time>
      </trkpt>
      <trkpt lat="48.08145" lon="-4.32596">
        <ele>48.7</ele>
        <time>2022-05-28T08:48:16Z</time>
      </trkpt>
      <trkpt lat="48.08145" lon="-4.32587">
        <ele>48.5</ele>
        <time>2022-05-28T08:48:17Z</time>
      </trkpt>
      <trkpt lat="48.08144" lon="-4.32529">
        <ele>48.2</ele>
        <time>2022-05-28T08:48:23Z</time>
      </trkpt>
      <trkpt lat="48.08138" lon="-4.32462">
        <ele>47.8</ele>
        <time>2022-05-28T08:48:31Z</time>
      </trkpt>
      <trkpt lat="48.08134" lon="-4.32437">
        <ele>47.6</ele>
        <time>2022-05-28T08:48:35Z</time>
      </trkpt>
      <trkpt lat="48.08127" lon="-4.32399">
        <ele>48.6</ele>
        <time>2022-05-28T08:48:41Z</time>
      </trkpt>
      <trkpt lat="48.08126" lon="-4.32394">
        <ele>48.8</ele>
        <time>2022-05-28T08:48:42Z</time>
      </trkpt>
      <trkpt lat="48.08109" lon="-4.3233">
        <ele>51</ele>
        <time>2022-05-28T08:48:55Z</time>
      </trkpt>
      <trkpt lat="48.08102" lon="-4.32312">
        <ele>51.6</ele>
        <time>2022-05-28T08:48:59Z</time>
      </trkpt>
      <trkpt lat="48.08095" lon="-4.32294">
        <ele>52.1</ele>
        <time>2022-05-28T08:49:03Z</time>
      </trkpt>
      <trkpt lat="48.08065" lon="-4.32242">
        <ele>53.5</ele>
        <time>2022-05-28T08:49:17Z</time>
      </trkpt>
      <trkpt lat="48.08039" lon="-4.32134">
        <ele>54.5</ele>
        <time>2022-05-28T08:49:29Z</time>
      </trkpt>
      <trkpt lat="48.08039" lon="-4.32134">
        <ele>54.5</ele>
        <time>2022-05-28T08:49:57Z</time>
      </trkpt>
      <trkpt lat="48.08035" lon="-4.32085">
        <ele>55.3</ele>
        <time>2022-05-28T08:50:03Z</time>
      </trkpt>
      <trkpt lat="48.08034" lon="-4.3208">
        <ele>55.3</ele>
        <time>2022-05-28T08:50:04Z</time>
      </trkpt>
      <trkpt lat="48.08031" lon="-4.32064">
        <ele>55.5</ele>
        <time>2022-05-28T08:50:07Z</time>
      </trkpt>
      <trkpt lat="48.08022" lon="-4.32056">
        <ele>55.5</ele>
        <time>2022-05-28T08:50:10Z</time>
      </trkpt>
      <trkpt lat="48.08014" lon="-4.3205">
        <ele>54.5</ele>
        <time>2022-05-28T08:50:13Z</time>
      </trkpt>
      <trkpt lat="48.08003" lon="-4.32065">
        <ele>53.5</ele>
        <time>2022-05-28T08:50:16Z</time>
      </trkpt>
      <trkpt lat="48.07982" lon="-4.32094">
        <ele>51.4</ele>
        <time>2022-05-28T08:50:22Z</time>
      </trkpt>
      <trkpt lat="48.07979" lon="-4.32099">
        <ele>51.2</ele>
        <time>2022-05-28T08:50:23Z</time>
      </trkpt>
      <trkpt lat="48.07973" lon="-4.32103">
        <ele>50.8</ele>
        <time>2022-05-28T08:50:25Z</time>
      </trkpt>
      <trkpt lat="48.07968" lon="-4.321">
        <ele>50.3</ele>
        <time>2022-05-28T08:50:27Z</time>
      </trkpt>
      <trkpt lat="48.07957" lon="-4.32063">
        <ele>49</ele>
        <time>2022-05-28T08:50:34Z</time>
      </trkpt>
      <trkpt lat="48.07948" lon="-4.32032">
        <ele>49.3</ele>
        <time>2022-05-28T08:50:40Z</time>
      </trkpt>
      <trkpt lat="48.0793" lon="-4.31965">
        <ele>50</ele>
        <time>2022-05-28T08:50:50Z</time>
      </trkpt>
      <trkpt lat="48.0792" lon="-4.31897">
        <ele>50.6</ele>
        <time>2022-05-28T08:51:00Z</time>
      </trkpt>
      <trkpt lat="48.07918" lon="-4.31825">
        <ele>51.3</ele>
        <time>2022-05-28T08:51:11Z</time>
      </trkpt>
      <trkpt lat="48.07919" lon="-4.31764">
        <ele>51.9</ele>
        <time>2022-05-28T08:51:20Z</time>
      </trkpt>
      <trkpt lat="48.07917" lon="-4.31758">
        <ele>52</ele>
        <time>2022-05-28T08:51:21Z</time>
      </trkpt>
      <trkpt lat="48.07915" lon="-4.31706">
        <ele>52.4</ele>
        <time>2022-05-28T08:51:28Z</time>
      </trkpt>
      <trkpt lat="48.07914" lon="-4.31684">
        <ele>52.6</ele>
        <time>2022-05-28T08:51:31Z</time>
      </trkpt>
      <trkpt lat="48.07914" lon="-4.31614">
        <ele>53.2</ele>
        <time>2022-05-28T08:51:40Z</time>
      </trkpt>
      <trkpt lat="48.07911" lon="-4.31547">
        <ele>53.8</ele>
        <time>2022-05-28T08:51:49Z</time>
      </trkpt>
      <trkpt lat="48.07902" lon="-4.31477">
        <ele>54.6</ele>
        <time>2022-05-28T08:52:00Z</time>
      </trkpt>
      <trkpt lat="48.07896" lon="-4.31405">
        <ele>55.3</ele>
        <time>2022-05-28T08:52:11Z</time>
      </trkpt>
      <trkpt lat="48.07894" lon="-4.31389">
        <ele>55.6</ele>
        <time>2022-05-28T08:52:15Z</time>
      </trkpt>
      <trkpt lat="48.0789" lon="-4.31366">
        <ele>56.4</ele>
        <time>2022-05-28T08:52:21Z</time>
      </trkpt>
      <trkpt lat="48.07861" lon="-4.31331">
        <ele>58</ele>
        <time>2022-05-28T08:52:33Z</time>
      </trkpt>
      <trkpt lat="48.07853" lon="-4.31322">
        <ele>58.9</ele>
        <time>2022-05-28T08:52:36Z</time>
      </trkpt>
      <trkpt lat="48.07833" lon="-4.313">
        <ele>61.7</ele>
        <time>2022-05-28T08:52:45Z</time>
      </trkpt>
      <trkpt lat="48.07815" lon="-4.3128">
        <ele>63.2</ele>
        <time>2022-05-28T08:52:53Z</time>
      </trkpt>
      <trkpt lat="48.07805" lon="-4.31268">
        <ele>64</ele>
        <time>2022-05-28T08:52:57Z</time>
      </trkpt>
      <trkpt lat="48.07778" lon="-4.31234">
        <ele>65.9</ele>
        <time>2022-05-28T08:53:08Z</time>
      </trkpt>
      <trkpt lat="48.07759" lon="-4.31214">
        <ele>67.1</ele>
        <time>2022-05-28T08:53:15Z</time>
      </trkpt>
      <trkpt lat="48.07741" lon="-4.31195">
        <ele>68.5</ele>
        <time>2022-05-28T08:53:22Z</time>
      </trkpt>
      <trkpt lat="48.07708" lon="-4.31173">
        <ele>70.6</ele>
        <time>2022-05-28T08:53:33Z</time>
      </trkpt>
      <trkpt lat="48.07696" lon="-4.31165">
        <ele>71.2</ele>
        <time>2022-05-28T08:53:37Z</time>
      </trkpt>
      <trkpt lat="48.07651" lon="-4.31147">
        <ele>73</ele>
        <time>2022-05-28T08:53:50Z</time>
      </trkpt>
      <trkpt lat="48.07605" lon="-4.31156">
        <ele>74.2</ele>
        <time>2022-05-28T08:54:02Z</time>
      </trkpt>
      <trkpt lat="48.0759" lon="-4.31164">
        <ele>74.6</ele>
        <time>2022-05-28T08:54:06Z</time>
      </trkpt>
      <trkpt lat="48.0757" lon="-4.31187">
        <ele>75.2</ele>
        <time>2022-05-28T08:54:12Z</time>
      </trkpt>
      <trkpt lat="48.07548" lon="-4.31186">
        <ele>75.9</ele>
        <time>2022-05-28T08:54:18Z</time>
      </trkpt>
      <trkpt lat="48.07543" lon="-4.31194">
        <ele>76.1</ele>
        <time>2022-05-28T08:54:20Z</time>
      </trkpt>
      <trkpt lat="48.07526" lon="-4.31217">
        <ele>76.8</ele>
        <time>2022-05-28T08:54:26Z</time>
      </trkpt>
      <trkpt lat="48.07521" lon="-4.31225">
        <ele>77</ele>
        <time>2022-05-28T08:54:28Z</time>
      </trkpt>
      <trkpt lat="48.07514" lon="-4.31252">
        <ele>77.3</ele>
        <time>2022-05-28T08:54:32Z</time>
      </trkpt>
      <trkpt lat="48.07503" lon="-4.31292">
        <ele>76.7</ele>
        <time>2022-05-28T08:54:38Z</time>
      </trkpt>
      <trkpt lat="48.0749" lon="-4.3133">
        <ele>76.1</ele>
        <time>2022-05-28T08:54:43Z</time>
      </trkpt>
      <trkpt lat="48.07449" lon="-4.31364">
        <ele>75.3</ele>
        <time>2022-05-28T08:54:50Z</time>
      </trkpt>
      <trkpt lat="48.07407" lon="-4.31389">
        <ele>73.9</ele>
        <time>2022-05-28T08:54:56Z</time>
      </trkpt>
      <trkpt lat="48.07362" lon="-4.31415">
        <ele>72.5</ele>
        <time>2022-05-28T08:55:02Z</time>
      </trkpt>
      <trkpt lat="48.07311" lon="-4.31436">
        <ele>71.2</ele>
        <time>2022-05-28T08:55:08Z</time>
      </trkpt>
      <trkpt lat="48.0726" lon="-4.31457">
        <ele>70.8</ele>
        <time>2022-05-28T08:55:14Z</time>
      </trkpt>
      <trkpt lat="48.07208" lon="-4.31475">
        <ele>69</ele>
        <time>2022-05-28T08:55:20Z</time>
      </trkpt>
      <trkpt lat="48.07171" lon="-4.31493">
        <ele>67.8</ele>
        <time>2022-05-28T08:55:24Z</time>
      </trkpt>
      <trkpt lat="48.07151" lon="-4.31504">
        <ele>67.1</ele>
        <time>2022-05-28T08:55:26Z</time>
      </trkpt>
      <trkpt lat="48.07132" lon="-4.31514">
        <ele>66</ele>
        <time>2022-05-28T08:55:28Z</time>
      </trkpt>
      <trkpt lat="48.07089" lon="-4.31518">
        <ele>63.7</ele>
        <time>2022-05-28T08:55:32Z</time>
      </trkpt>
      <trkpt lat="48.07042" lon="-4.3151">
        <ele>60.7</ele>
        <time>2022-05-28T08:55:37Z</time>
      </trkpt>
      <trkpt lat="48.0703" lon="-4.31509">
        <ele>60</ele>
        <time>2022-05-28T08:55:38Z</time>
      </trkpt>
      <trkpt lat="48.06993" lon="-4.31504">
        <ele>56.8</ele>
        <time>2022-05-28T08:55:41Z</time>
      </trkpt>
      <trkpt lat="48.06953" lon="-4.31501">
        <ele>53.9</ele>
        <time>2022-05-28T08:55:44Z</time>
      </trkpt>
      <trkpt lat="48.06941" lon="-4.31501">
        <ele>54</ele>
        <time>2022-05-28T08:55:45Z</time>
      </trkpt>
      <trkpt lat="48.06893" lon="-4.315">
        <ele>54.4</ele>
        <time>2022-05-28T08:55:50Z</time>
      </trkpt>
      <trkpt lat="48.0687" lon="-4.31506">
        <ele>55</ele>
        <time>2022-05-28T08:55:55Z</time>
      </trkpt>
      <trkpt lat="48.06852" lon="-4.31511">
        <ele>57.4</ele>
        <time>2022-05-28T08:55:59Z</time>
      </trkpt>
      <trkpt lat="48.06847" lon="-4.3151">
        <ele>58.5</ele>
        <time>2022-05-28T08:56:01Z</time>
      </trkpt>
      <trkpt lat="48.06836" lon="-4.31509">
        <ele>59.7</ele>
        <time>2022-05-28T08:56:05Z</time>
      </trkpt>
      <trkpt lat="48.06811" lon="-4.31514">
        <ele>62.1</ele>
        <time>2022-05-28T08:56:13Z</time>
      </trkpt>
      <trkpt lat="48.06789" lon="-4.31519">
        <ele>64</ele>
        <time>2022-05-28T08:56:20Z</time>
      </trkpt>
      <trkpt lat="48.06773" lon="-4.31522">
        <ele>65.4</ele>
        <time>2022-05-28T08:56:25Z</time>
      </trkpt>
      <trkpt lat="48.06743" lon="-4.31527">
        <ele>67.6</ele>
        <time>2022-05-28T08:56:34Z</time>
      </trkpt>
      <trkpt lat="48.06734" lon="-4.31529">
        <ele>68.3</ele>
        <time>2022-05-28T08:56:37Z</time>
      </trkpt>
      <trkpt lat="48.06696" lon="-4.31537">
        <ele>70.4</ele>
        <time>2022-05-28T08:56:50Z</time>
      </trkpt>
      <trkpt lat="48.06681" lon="-4.3154">
        <ele>71.1</ele>
        <time>2022-05-28T08:56:55Z</time>
      </trkpt>
      <trkpt lat="48.06649" lon="-4.31547">
        <ele>72</ele>
        <time>2022-05-28T08:57:05Z</time>
      </trkpt>
      <trkpt lat="48.06602" lon="-4.31557">
        <ele>73.3</ele>
        <time>2022-05-28T08:57:19Z</time>
      </trkpt>
      <trkpt lat="48.06556" lon="-4.31566">
        <ele>74.3</ele>
        <time>2022-05-28T08:57:30Z</time>
      </trkpt>
      <trkpt lat="48.06552" lon="-4.31567">
        <ele>74.4</ele>
        <time>2022-05-28T08:57:31Z</time>
      </trkpt>
      <trkpt lat="48.06511" lon="-4.31574">
        <ele>75.1</ele>
        <time>2022-05-28T08:57:41Z</time>
      </trkpt>
      <trkpt lat="48.06466" lon="-4.31579">
        <ele>75.9</ele>
        <time>2022-05-28T08:57:51Z</time>
      </trkpt>
      <trkpt lat="48.06427" lon="-4.31583">
        <ele>76.6</ele>
        <time>2022-05-28T08:58:00Z</time>
      </trkpt>
      <trkpt lat="48.06419" lon="-4.31584">
        <ele>76.9</ele>
        <time>2022-05-28T08:58:02Z</time>
      </trkpt>
      <trkpt lat="48.06373" lon="-4.31589">
        <ele>78.9</ele>
        <time>2022-05-28T08:58:13Z</time>
      </trkpt>
      <trkpt lat="48.06354" lon="-4.3159">
        <ele>79.8</ele>
        <time>2022-05-28T08:58:18Z</time>
      </trkpt>
      <trkpt lat="48.06326" lon="-4.31592">
        <ele>80.5</ele>
        <time>2022-05-28T08:58:25Z</time>
      </trkpt>
      <trkpt lat="48.06304" lon="-4.31591">
        <ele>81</ele>
        <time>2022-05-28T08:58:30Z</time>
      </trkpt>
      <trkpt lat="48.06279" lon="-4.31589">
        <ele>80.9</ele>
        <time>2022-05-28T08:58:36Z</time>
      </trkpt>
      <trkpt lat="48.06234" lon="-4.31575">
        <ele>80.8</ele>
        <time>2022-05-28T08:58:47Z</time>
      </trkpt>
      <trkpt lat="48.06187" lon="-4.31557">
        <ele>80.7</ele>
        <time>2022-05-28T08:58:59Z</time>
      </trkpt>
      <trkpt lat="48.0614" lon="-4.31542">
        <ele>80.6</ele>
        <time>2022-05-28T08:59:09Z</time>
      </trkpt>
      <trkpt lat="48.06096" lon="-4.31531">
        <ele>80.5</ele>
        <time>2022-05-28T08:59:17Z</time>
      </trkpt>
      <trkpt lat="48.06048" lon="-4.31535">
        <ele>80.4</ele>
        <time>2022-05-28T08:59:25Z</time>
      </trkpt>
      <trkpt lat="48.06017" lon="-4.31543">
        <ele>80.3</ele>
        <time>2022-05-28T08:59:30Z</time>
      </trkpt>
      <trkpt lat="48.05972" lon="-4.31559">
        <ele>80.3</ele>
        <time>2022-05-28T08:59:37Z</time>
      </trkpt>
      <trkpt lat="48.05935" lon="-4.31572">
        <ele>80.1</ele>
        <time>2022-05-28T08:59:42Z</time>
      </trkpt>
      <trkpt lat="48.0592" lon="-4.31577">
        <ele>79.5</ele>
        <time>2022-05-28T08:59:44Z</time>
      </trkpt>
      <trkpt lat="48.05884" lon="-4.31588">
        <ele>78.3</ele>
        <time>2022-05-28T08:59:48Z</time>
      </trkpt>
      <trkpt lat="48.05866" lon="-4.31595">
        <ele>77.3</ele>
        <time>2022-05-28T08:59:50Z</time>
      </trkpt>
      <trkpt lat="48.05827" lon="-4.31612">
        <ele>75</ele>
        <time>2022-05-28T08:59:54Z</time>
      </trkpt>
      <trkpt lat="48.05817" lon="-4.31618">
        <ele>74</ele>
        <time>2022-05-28T08:59:55Z</time>
      </trkpt>
      <trkpt lat="48.05786" lon="-4.31646">
        <ele>70.9</ele>
        <time>2022-05-28T08:59:58Z</time>
      </trkpt>
      <trkpt lat="48.05774" lon="-4.31658">
        <ele>69.8</ele>
        <time>2022-05-28T08:59:59Z</time>
      </trkpt>
      <trkpt lat="48.05763" lon="-4.31671">
        <ele>68.8</ele>
        <time>2022-05-28T09:00:00Z</time>
      </trkpt>
      <trkpt lat="48.05753" lon="-4.31685">
        <ele>67.8</ele>
        <time>2022-05-28T09:00:01Z</time>
      </trkpt>
      <trkpt lat="48.05742" lon="-4.31698">
        <ele>66.7</ele>
        <time>2022-05-28T09:00:02Z</time>
      </trkpt>
      <trkpt lat="48.05715" lon="-4.31743">
        <ele>64.1</ele>
        <time>2022-05-28T09:00:05Z</time>
      </trkpt>
      <trkpt lat="48.05708" lon="-4.31758">
        <ele>64.4</ele>
        <time>2022-05-28T09:00:06Z</time>
      </trkpt>
      <trkpt lat="48.05688" lon="-4.31817">
        <ele>65.8</ele>
        <time>2022-05-28T09:00:11Z</time>
      </trkpt>
      <trkpt lat="48.05678" lon="-4.31835">
        <ele>66.4</ele>
        <time>2022-05-28T09:00:13Z</time>
      </trkpt>
      <trkpt lat="48.05658" lon="-4.31852">
        <ele>67.3</ele>
        <time>2022-05-28T09:00:16Z</time>
      </trkpt>
      <trkpt lat="48.05652" lon="-4.31852">
        <ele>67.6</ele>
        <time>2022-05-28T09:00:17Z</time>
      </trkpt>
      <trkpt lat="48.05613" lon="-4.31855">
        <ele>69.7</ele>
        <time>2022-05-28T09:00:24Z</time>
      </trkpt>
      <trkpt lat="48.05593" lon="-4.31854">
        <ele>71.2</ele>
        <time>2022-05-28T09:00:29Z</time>
      </trkpt>
      <trkpt lat="48.05565" lon="-4.31852">
        <ele>73.3</ele>
        <time>2022-05-28T09:00:36Z</time>
      </trkpt>
      <trkpt lat="48.05549" lon="-4.31849">
        <ele>74.8</ele>
        <time>2022-05-28T09:00:41Z</time>
      </trkpt>
      <trkpt lat="48.05521" lon="-4.31845">
        <ele>77.3</ele>
        <time>2022-05-28T09:00:50Z</time>
      </trkpt>
      <trkpt lat="48.05512" lon="-4.31844">
        <ele>78.1</ele>
        <time>2022-05-28T09:00:53Z</time>
      </trkpt>
      <trkpt lat="48.05494" lon="-4.31843">
        <ele>79.4</ele>
        <time>2022-05-28T09:00:59Z</time>
      </trkpt>
      <trkpt lat="48.05478" lon="-4.31844">
        <ele>81.2</ele>
        <time>2022-05-28T09:01:05Z</time>
      </trkpt>
      <trkpt lat="48.05448" lon="-4.31847">
        <ele>83.6</ele>
        <time>2022-05-28T09:01:16Z</time>
      </trkpt>
      <trkpt lat="48.05445" lon="-4.31847">
        <ele>83.8</ele>
        <time>2022-05-28T09:01:17Z</time>
      </trkpt>
      <trkpt lat="48.05436" lon="-4.31847">
        <ele>84.3</ele>
        <time>2022-05-28T09:01:20Z</time>
      </trkpt>
      <trkpt lat="48.05427" lon="-4.31852">
        <ele>84.7</ele>
        <time>2022-05-28T09:01:23Z</time>
      </trkpt>
      <trkpt lat="48.05379" lon="-4.31854">
        <ele>86.3</ele>
        <time>2022-05-28T09:01:35Z</time>
      </trkpt>
      <trkpt lat="48.05334" lon="-4.31871">
        <ele>86.2</ele>
        <time>2022-05-28T09:01:47Z</time>
      </trkpt>
      <trkpt lat="48.05294" lon="-4.31905">
        <ele>86.1</ele>
        <time>2022-05-28T09:01:58Z</time>
      </trkpt>
      <trkpt lat="48.05253" lon="-4.31941">
        <ele>86</ele>
        <time>2022-05-28T09:02:09Z</time>
      </trkpt>
      <trkpt lat="48.0521" lon="-4.3198">
        <ele>86</ele>
        <time>2022-05-28T09:02:20Z</time>
      </trkpt>
      <trkpt lat="48.05186" lon="-4.32003">
        <ele>85.9</ele>
        <time>2022-05-28T09:02:25Z</time>
      </trkpt>
      <trkpt lat="48.05158" lon="-4.32015">
        <ele>85.8</ele>
        <time>2022-05-28T09:02:29Z</time>
      </trkpt>
      <trkpt lat="48.0515" lon="-4.32017">
        <ele>85.4</ele>
        <time>2022-05-28T09:02:30Z</time>
      </trkpt>
      <trkpt lat="48.05106" lon="-4.32021">
        <ele>83.6</ele>
        <time>2022-05-28T09:02:35Z</time>
      </trkpt>
      <trkpt lat="48.05097" lon="-4.32022">
        <ele>82.9</ele>
        <time>2022-05-28T09:02:36Z</time>
      </trkpt>
      <trkpt lat="48.05045" lon="-4.32026">
        <ele>78.8</ele>
        <time>2022-05-28T09:02:42Z</time>
      </trkpt>
      <trkpt lat="48.05015" lon="-4.32041">
        <ele>75.7</ele>
        <time>2022-05-28T09:02:47Z</time>
      </trkpt>
      <trkpt lat="48.05013" lon="-4.32043">
        <ele>75.5</ele>
        <time>2022-05-28T09:02:48Z</time>
      </trkpt>
      <trkpt lat="48.05003" lon="-4.32038">
        <ele>75.4</ele>
        <time>2022-05-28T09:02:49Z</time>
      </trkpt>
      <trkpt lat="48.04992" lon="-4.32028">
        <ele>75.3</ele>
        <time>2022-05-28T09:02:50Z</time>
      </trkpt>
      <trkpt lat="48.04965" lon="-4.31983">
        <ele>74.2</ele>
        <time>2022-05-28T09:02:59Z</time>
      </trkpt>
      <trkpt lat="48.04959" lon="-4.31973">
        <ele>74.8</ele>
        <time>2022-05-28T09:03:01Z</time>
      </trkpt>
      <trkpt lat="48.04952" lon="-4.31963">
        <ele>75.7</ele>
        <time>2022-05-28T09:03:04Z</time>
      </trkpt>
      <trkpt lat="48.04951" lon="-4.31959">
        <ele>75.8</ele>
        <time>2022-05-28T09:03:05Z</time>
      </trkpt>
      <trkpt lat="48.04946" lon="-4.31954">
        <ele>75</ele>
        <time>2022-05-28T09:03:07Z</time>
      </trkpt>
      <trkpt lat="48.0492" lon="-4.31987">
        <ele>73.5</ele>
        <time>2022-05-28T09:03:11Z</time>
      </trkpt>
      <trkpt lat="48.04908" lon="-4.32013">
        <ele>73</ele>
        <time>2022-05-28T09:03:13Z</time>
      </trkpt>
      <trkpt lat="48.04899" lon="-4.32019">
        <ele>72.8</ele>
        <time>2022-05-28T09:03:14Z</time>
      </trkpt>
      <trkpt lat="48.04884" lon="-4.32015">
        <ele>72.3</ele>
        <time>2022-05-28T09:03:17Z</time>
      </trkpt>
      <trkpt lat="48.04854" lon="-4.32007">
        <ele>73.5</ele>
        <time>2022-05-28T09:03:23Z</time>
      </trkpt>
      <trkpt lat="48.04812" lon="-4.32036">
        <ele>74</ele>
        <time>2022-05-28T09:03:32Z</time>
      </trkpt>
      <trkpt lat="48.04782" lon="-4.32061">
        <ele>74.3</ele>
        <time>2022-05-28T09:03:38Z</time>
      </trkpt>
      <trkpt lat="48.04757" lon="-4.32053">
        <ele>74.8</ele>
        <time>2022-05-28T09:03:47Z</time>
      </trkpt>
      <trkpt lat="48.04739" lon="-4.32047">
        <ele>75.1</ele>
        <time>2022-05-28T09:03:53Z</time>
      </trkpt>
      <trkpt lat="48.04737" lon="-4.32045">
        <ele>75.3</ele>
        <time>2022-05-28T09:03:54Z</time>
      </trkpt>
      <trkpt lat="48.04714" lon="-4.32018">
        <ele>77.2</ele>
        <time>2022-05-28T09:04:05Z</time>
      </trkpt>
      <trkpt lat="48.04702" lon="-4.32003">
        <ele>78.6</ele>
        <time>2022-05-28T09:04:11Z</time>
      </trkpt>
      <trkpt lat="48.04686" lon="-4.31983">
        <ele>81.3</ele>
        <time>2022-05-28T09:04:22Z</time>
      </trkpt>
      <trkpt lat="48.04678" lon="-4.31974">
        <ele>83</ele>
        <time>2022-05-28T09:04:27Z</time>
      </trkpt>
      <trkpt lat="48.04667" lon="-4.31959">
        <ele>84.9</ele>
        <time>2022-05-28T09:04:35Z</time>
      </trkpt>
      <trkpt lat="48.04666" lon="-4.31957">
        <ele>85.1</ele>
        <time>2022-05-28T09:04:36Z</time>
      </trkpt>
      <trkpt lat="48.0466" lon="-4.31952">
        <ele>85.8</ele>
        <time>2022-05-28T09:04:39Z</time>
      </trkpt>
      <trkpt lat="48.04626" lon="-4.31924">
        <ele>90</ele>
        <time>2022-05-28T09:04:57Z</time>
      </trkpt>
      <trkpt lat="48.04586" lon="-4.31893">
        <ele>93.7</ele>
        <time>2022-05-28T09:05:15Z</time>
      </trkpt>
      <trkpt lat="48.04564" lon="-4.31873">
        <ele>94.9</ele>
        <time>2022-05-28T09:05:26Z</time>
      </trkpt>
      <trkpt lat="48.04561" lon="-4.31871">
        <ele>94.9</ele>
        <time>2022-05-28T09:05:27Z</time>
      </trkpt>
      <trkpt lat="48.04521" lon="-4.31841">
        <ele>95</ele>
        <time>2022-05-28T09:05:42Z</time>
      </trkpt>
      <trkpt lat="48.04474" lon="-4.3182">
        <ele>95.1</ele>
        <time>2022-05-28T09:05:57Z</time>
      </trkpt>
      <trkpt lat="48.04426" lon="-4.31808">
        <ele>95.1</ele>
        <time>2022-05-28T09:06:06Z</time>
      </trkpt>
      <trkpt lat="48.04405" lon="-4.31803">
        <ele>95.1</ele>
        <time>2022-05-28T09:06:09Z</time>
      </trkpt>
      <trkpt lat="48.04377" lon="-4.31795">
        <ele>94</ele>
        <time>2022-05-28T09:06:13Z</time>
      </trkpt>
      <trkpt lat="48.04334" lon="-4.31783">
        <ele>92.1</ele>
        <time>2022-05-28T09:06:20Z</time>
      </trkpt>
      <trkpt lat="48.0431" lon="-4.31774">
        <ele>91.2</ele>
        <time>2022-05-28T09:06:27Z</time>
      </trkpt>
      <trkpt lat="48.04295" lon="-4.31763">
        <ele>90.8</ele>
        <time>2022-05-28T09:06:31Z</time>
      </trkpt>
      <trkpt lat="48.04268" lon="-4.31744">
        <ele>91.7</ele>
        <time>2022-05-28T09:06:38Z</time>
      </trkpt>
      <trkpt lat="48.0425" lon="-4.31731">
        <ele>92.4</ele>
        <time>2022-05-28T09:06:43Z</time>
      </trkpt>
      <trkpt lat="48.0423" lon="-4.31716">
        <ele>93.1</ele>
        <time>2022-05-28T09:06:49Z</time>
      </trkpt>
      <trkpt lat="48.04226" lon="-4.31714">
        <ele>93.3</ele>
        <time>2022-05-28T09:06:50Z</time>
      </trkpt>
      <trkpt lat="48.04216" lon="-4.31706">
        <ele>94</ele>
        <time>2022-05-28T09:06:53Z</time>
      </trkpt>
      <trkpt lat="48.0421" lon="-4.317">
        <ele>94.4</ele>
        <time>2022-05-28T09:06:55Z</time>
      </trkpt>
      <trkpt lat="48.04178" lon="-4.31669">
        <ele>96.7</ele>
        <time>2022-05-28T09:07:06Z</time>
      </trkpt>
      <trkpt lat="48.04164" lon="-4.31649">
        <ele>97.9</ele>
        <time>2022-05-28T09:07:12Z</time>
      </trkpt>
      <trkpt lat="48.04143" lon="-4.31619">
        <ele>100</ele>
        <time>2022-05-28T09:07:21Z</time>
      </trkpt>
      <trkpt lat="48.04123" lon="-4.31584">
        <ele>102.1</ele>
        <time>2022-05-28T09:07:30Z</time>
      </trkpt>
      <trkpt lat="48.04112" lon="-4.31565">
        <ele>102.7</ele>
        <time>2022-05-28T09:07:35Z</time>
      </trkpt>
      <trkpt lat="48.04106" lon="-4.31552">
        <ele>103</ele>
        <time>2022-05-28T09:07:38Z</time>
      </trkpt>
      <trkpt lat="48.04073" lon="-4.31502">
        <ele>104.5</ele>
        <time>2022-05-28T09:07:51Z</time>
      </trkpt>
      <trkpt lat="48.04065" lon="-4.31491">
        <ele>104.8</ele>
        <time>2022-05-28T09:07:54Z</time>
      </trkpt>
      <trkpt lat="48.0406" lon="-4.31483">
        <ele>105.1</ele>
        <time>2022-05-28T09:07:56Z</time>
      </trkpt>
      <trkpt lat="48.04035" lon="-4.31446">
        <ele>106.4</ele>
        <time>2022-05-28T09:08:06Z</time>
      </trkpt>
      <trkpt lat="48.04028" lon="-4.31435">
        <ele>106.6</ele>
        <time>2022-05-28T09:08:09Z</time>
      </trkpt>
      <trkpt lat="48.04021" lon="-4.31423">
        <ele>106.8</ele>
        <time>2022-05-28T09:08:12Z</time>
      </trkpt>
      <trkpt lat="48.03996" lon="-4.31383">
        <ele>106</ele>
        <time>2022-05-28T09:08:22Z</time>
      </trkpt>
      <trkpt lat="48.03981" lon="-4.31365">
        <ele>105.6</ele>
        <time>2022-05-28T09:08:26Z</time>
      </trkpt>
      <trkpt lat="48.03944" lon="-4.31323">
        <ele>105</ele>
        <time>2022-05-28T09:08:34Z</time>
      </trkpt>
      <trkpt lat="48.03937" lon="-4.31319">
        <ele>104.8</ele>
        <time>2022-05-28T09:08:35Z</time>
      </trkpt>
      <trkpt lat="48.03892" lon="-4.31302">
        <ele>102.5</ele>
        <time>2022-05-28T09:08:41Z</time>
      </trkpt>
      <trkpt lat="48.03869" lon="-4.31291">
        <ele>102.6</ele>
        <time>2022-05-28T09:08:44Z</time>
      </trkpt>
      <trkpt lat="48.03844" lon="-4.31258">
        <ele>102.6</ele>
        <time>2022-05-28T09:08:48Z</time>
      </trkpt>
      <trkpt lat="48.03838" lon="-4.31249">
        <ele>102.7</ele>
        <time>2022-05-28T09:08:49Z</time>
      </trkpt>
      <trkpt lat="48.03811" lon="-4.31223">
        <ele>102.9</ele>
        <time>2022-05-28T09:08:53Z</time>
      </trkpt>
      <trkpt lat="48.03801" lon="-4.31212">
        <ele>103.5</ele>
        <time>2022-05-28T09:08:55Z</time>
      </trkpt>
      <trkpt lat="48.03802" lon="-4.31213">
        <ele>104.2</ele>
        <time>2022-05-28T09:08:57Z</time>
      </trkpt>
      <trkpt lat="48.03802" lon="-4.31213">
        <ele>104.8</ele>
        <time>2022-05-28T09:08:59Z</time>
      </trkpt>
      <trkpt lat="48.0378" lon="-4.31191">
        <ele>106.6</ele>
        <time>2022-05-28T09:09:07Z</time>
      </trkpt>
      <trkpt lat="48.03771" lon="-4.31182">
        <ele>107.5</ele>
        <time>2022-05-28T09:09:11Z</time>
      </trkpt>
      <trkpt lat="48.03757" lon="-4.31169">
        <ele>108.2</ele>
        <time>2022-05-28T09:09:17Z</time>
      </trkpt>
      <trkpt lat="48.03743" lon="-4.31157">
        <ele>109.7</ele>
        <time>2022-05-28T09:09:23Z</time>
      </trkpt>
      <trkpt lat="48.0374" lon="-4.31155">
        <ele>110</ele>
        <time>2022-05-28T09:09:24Z</time>
      </trkpt>
      <trkpt lat="48.03728" lon="-4.31149">
        <ele>111.3</ele>
        <time>2022-05-28T09:09:29Z</time>
      </trkpt>
      <trkpt lat="48.03713" lon="-4.31141">
        <ele>112.6</ele>
        <time>2022-05-28T09:09:35Z</time>
      </trkpt>
      <trkpt lat="48.03695" lon="-4.31133">
        <ele>113.7</ele>
        <time>2022-05-28T09:09:42Z</time>
      </trkpt>
      <trkpt lat="48.03663" lon="-4.31127">
        <ele>115.2</ele>
        <time>2022-05-28T09:09:52Z</time>
      </trkpt>
      <trkpt lat="48.03657" lon="-4.31127">
        <ele>115.3</ele>
        <time>2022-05-28T09:09:54Z</time>
      </trkpt>
      <trkpt lat="48.03622" lon="-4.31137">
        <ele>115.6</ele>
        <time>2022-05-28T09:10:03Z</time>
      </trkpt>
      <trkpt lat="48.03613" lon="-4.31137">
        <ele>115.7</ele>
        <time>2022-05-28T09:10:05Z</time>
      </trkpt>
      <trkpt lat="48.03568" lon="-4.31151">
        <ele>116.1</ele>
        <time>2022-05-28T09:10:16Z</time>
      </trkpt>
      <trkpt lat="48.0353" lon="-4.31152">
        <ele>116.5</ele>
        <time>2022-05-28T09:10:25Z</time>
      </trkpt>
      <trkpt lat="48.03505" lon="-4.31149">
        <ele>116.7</ele>
        <time>2022-05-28T09:10:31Z</time>
      </trkpt>
      <trkpt lat="48.03485" lon="-4.31146">
        <ele>116.8</ele>
        <time>2022-05-28T09:10:35Z</time>
      </trkpt>
      <trkpt lat="48.03468" lon="-4.31132">
        <ele>117</ele>
        <time>2022-05-28T09:10:39Z</time>
      </trkpt>
      <trkpt lat="48.03445" lon="-4.31114">
        <ele>116.9</ele>
        <time>2022-05-28T09:10:44Z</time>
      </trkpt>
      <trkpt lat="48.03419" lon="-4.31093">
        <ele>117.2</ele>
        <time>2022-05-28T09:10:50Z</time>
      </trkpt>
      <trkpt lat="48.03378" lon="-4.31057">
        <ele>117.7</ele>
        <time>2022-05-28T09:11:00Z</time>
      </trkpt>
      <trkpt lat="48.03349" lon="-4.31035">
        <ele>118.2</ele>
        <time>2022-05-28T09:11:08Z</time>
      </trkpt>
      <trkpt lat="48.03335" lon="-4.31025">
        <ele>119</ele>
        <time>2022-05-28T09:11:12Z</time>
      </trkpt>
      <trkpt lat="48.03291" lon="-4.30997">
        <ele>121.6</ele>
        <time>2022-05-28T09:11:25Z</time>
      </trkpt>
      <trkpt lat="48.03288" lon="-4.30995">
        <ele>121.8</ele>
        <time>2022-05-28T09:11:26Z</time>
      </trkpt>
      <trkpt lat="48.03246" lon="-4.30974">
        <ele>123.2</ele>
        <time>2022-05-28T09:11:38Z</time>
      </trkpt>
      <trkpt lat="48.03223" lon="-4.30963">
        <ele>123.8</ele>
        <time>2022-05-28T09:11:44Z</time>
      </trkpt>
      <trkpt lat="48.03203" lon="-4.30956">
        <ele>124.1</ele>
        <time>2022-05-28T09:11:49Z</time>
      </trkpt>
      <trkpt lat="48.03159" lon="-4.30977">
        <ele>124.7</ele>
        <time>2022-05-28T09:12:01Z</time>
      </trkpt>
      <trkpt lat="48.03147" lon="-4.30976">
        <ele>125.4</ele>
        <time>2022-05-28T09:12:16Z</time>
      </trkpt>
      <trkpt lat="48.03133" lon="-4.30963">
        <ele>125.4</ele>
        <time>2022-05-28T09:12:17Z</time>
      </trkpt>
      <trkpt lat="48.03108" lon="-4.30904">
        <ele>125.9</ele>
        <time>2022-05-28T09:12:27Z</time>
      </trkpt>
      <trkpt lat="48.03099" lon="-4.30873">
        <ele>126.2</ele>
        <time>2022-05-28T09:12:32Z</time>
      </trkpt>
      <trkpt lat="48.03101" lon="-4.30862">
        <ele>126.2</ele>
        <time>2022-05-28T09:12:33Z</time>
      </trkpt>
      <trkpt lat="48.03074" lon="-4.30805">
        <ele>126.7</ele>
        <time>2022-05-28T09:12:43Z</time>
      </trkpt>
      <trkpt lat="48.03064" lon="-4.30781">
        <ele>127</ele>
        <time>2022-05-28T09:12:49Z</time>
      </trkpt>
      <trkpt lat="48.03048" lon="-4.30745">
        <ele>128</ele>
        <time>2022-05-28T09:12:58Z</time>
      </trkpt>
      <trkpt lat="48.03043" lon="-4.30732">
        <ele>128.4</ele>
        <time>2022-05-28T09:13:01Z</time>
      </trkpt>
      <trkpt lat="48.03025" lon="-4.30687">
        <ele>129.4</ele>
        <time>2022-05-28T09:13:11Z</time>
      </trkpt>
      <trkpt lat="48.03008" lon="-4.3065">
        <ele>130.3</ele>
        <time>2022-05-28T09:13:19Z</time>
      </trkpt>
      <trkpt lat="48.02998" lon="-4.30626">
        <ele>130.5</ele>
        <time>2022-05-28T09:13:24Z</time>
      </trkpt>
      <trkpt lat="48.02995" lon="-4.3062">
        <ele>130.5</ele>
        <time>2022-05-28T09:13:25Z</time>
      </trkpt>
      <trkpt lat="48.02973" lon="-4.30561">
        <ele>130.5</ele>
        <time>2022-05-28T09:13:34Z</time>
      </trkpt>
      <trkpt lat="48.0295" lon="-4.30493">
        <ele>130.6</ele>
        <time>2022-05-28T09:13:42Z</time>
      </trkpt>
      <trkpt lat="48.02927" lon="-4.30426">
        <ele>130.6</ele>
        <time>2022-05-28T09:13:50Z</time>
      </trkpt>
      <trkpt lat="48.02911" lon="-4.30374">
        <ele>130.6</ele>
        <time>2022-05-28T09:13:57Z</time>
      </trkpt>
      <trkpt lat="48.02897" lon="-4.30361">
        <ele>130.6</ele>
        <time>2022-05-28T09:14:00Z</time>
      </trkpt>
      <trkpt lat="48.02852" lon="-4.30357">
        <ele>130.7</ele>
        <time>2022-05-28T09:14:10Z</time>
      </trkpt>
      <trkpt lat="48.0284" lon="-4.30355">
        <ele>130.8</ele>
        <time>2022-05-28T09:14:13Z</time>
      </trkpt>
      <trkpt lat="48.02806" lon="-4.30347">
        <ele>132.3</ele>
        <time>2022-05-28T09:14:22Z</time>
      </trkpt>
      <trkpt lat="48.02773" lon="-4.30332">
        <ele>133.8</ele>
        <time>2022-05-28T09:14:31Z</time>
      </trkpt>
      <trkpt lat="48.02762" lon="-4.30326">
        <ele>134.2</ele>
        <time>2022-05-28T09:14:34Z</time>
      </trkpt>
      <trkpt lat="48.02751" lon="-4.30319">
        <ele>134.5</ele>
        <time>2022-05-28T09:14:37Z</time>
      </trkpt>
      <trkpt lat="48.02733" lon="-4.30306">
        <ele>135.3</ele>
        <time>2022-05-28T09:14:42Z</time>
      </trkpt>
      <trkpt lat="48.02718" lon="-4.30296">
        <ele>135.8</ele>
        <time>2022-05-28T09:14:46Z</time>
      </trkpt>
      <trkpt lat="48.02698" lon="-4.30277">
        <ele>136.4</ele>
        <time>2022-05-28T09:14:52Z</time>
      </trkpt>
      <trkpt lat="48.02678" lon="-4.30257">
        <ele>136.1</ele>
        <time>2022-05-28T09:14:58Z</time>
      </trkpt>
      <trkpt lat="48.02642" lon="-4.30213">
        <ele>135.5</ele>
        <time>2022-05-28T09:15:09Z</time>
      </trkpt>
      <trkpt lat="48.02609" lon="-4.30166">
        <ele>135.1</ele>
        <time>2022-05-28T09:15:18Z</time>
      </trkpt>
      <trkpt lat="48.02593" lon="-4.30143">
        <ele>134.9</ele>
        <time>2022-05-28T09:15:22Z</time>
      </trkpt>
      <trkpt lat="48.02577" lon="-4.30119">
        <ele>134.2</ele>
        <time>2022-05-28T09:15:26Z</time>
      </trkpt>
      <trkpt lat="48.02542" lon="-4.30063">
        <ele>133.1</ele>
        <time>2022-05-28T09:15:33Z</time>
      </trkpt>
      <trkpt lat="48.02504" lon="-4.30026">
        <ele>132.2</ele>
        <time>2022-05-28T09:15:40Z</time>
      </trkpt>
      <trkpt lat="48.02481" lon="-4.30012">
        <ele>134.2</ele>
        <time>2022-05-28T09:15:46Z</time>
      </trkpt>
      <trkpt lat="48.02462" lon="-4.30001">
        <ele>136.1</ele>
        <time>2022-05-28T09:15:51Z</time>
      </trkpt>
      <trkpt lat="48.02459" lon="-4.29999">
        <ele>136.4</ele>
        <time>2022-05-28T09:15:52Z</time>
      </trkpt>
      <trkpt lat="48.02422" lon="-4.29981">
        <ele>139.4</ele>
        <time>2022-05-28T09:16:04Z</time>
      </trkpt>
      <trkpt lat="48.02419" lon="-4.2998">
        <ele>139.7</ele>
        <time>2022-05-28T09:16:05Z</time>
      </trkpt>
      <trkpt lat="48.02405" lon="-4.29973">
        <ele>141.2</ele>
        <time>2022-05-28T09:16:10Z</time>
      </trkpt>
      <trkpt lat="48.02388" lon="-4.29965">
        <ele>142.5</ele>
        <time>2022-05-28T09:16:16Z</time>
      </trkpt>
      <trkpt lat="48.02374" lon="-4.29958">
        <ele>143.6</ele>
        <time>2022-05-28T09:16:21Z</time>
      </trkpt>
      <trkpt lat="48.0234" lon="-4.29942">
        <ele>146.3</ele>
        <time>2022-05-28T09:16:34Z</time>
      </trkpt>
      <trkpt lat="48.0233" lon="-4.29937">
        <ele>146.7</ele>
        <time>2022-05-28T09:16:38Z</time>
      </trkpt>
      <trkpt lat="48.02305" lon="-4.29925">
        <ele>147.5</ele>
        <time>2022-05-28T09:16:46Z</time>
      </trkpt>
      <trkpt lat="48.02283" lon="-4.29914">
        <ele>147</ele>
        <time>2022-05-28T09:16:53Z</time>
      </trkpt>
      <trkpt lat="48.02241" lon="-4.29894">
        <ele>146.4</ele>
        <time>2022-05-28T09:17:01Z</time>
      </trkpt>
      <trkpt lat="48.02235" lon="-4.29892">
        <ele>146.3</ele>
        <time>2022-05-28T09:17:02Z</time>
      </trkpt>
      <trkpt lat="48.02188" lon="-4.2987">
        <ele>145.4</ele>
        <time>2022-05-28T09:17:10Z</time>
      </trkpt>
      <trkpt lat="48.02179" lon="-4.29865">
        <ele>145.3</ele>
        <time>2022-05-28T09:17:12Z</time>
      </trkpt>
      <trkpt lat="48.02143" lon="-4.29846">
        <ele>145.1</ele>
        <time>2022-05-28T09:17:20Z</time>
      </trkpt>
      <trkpt lat="48.02101" lon="-4.29816">
        <ele>144.9</ele>
        <time>2022-05-28T09:17:29Z</time>
      </trkpt>
      <trkpt lat="48.02065" lon="-4.29782">
        <ele>144.6</ele>
        <time>2022-05-28T09:17:36Z</time>
      </trkpt>
      <trkpt lat="48.0206" lon="-4.29777">
        <ele>144.1</ele>
        <time>2022-05-28T09:17:37Z</time>
      </trkpt>
      <trkpt lat="48.02027" lon="-4.29745">
        <ele>141.9</ele>
        <time>2022-05-28T09:17:42Z</time>
      </trkpt>
      <trkpt lat="48.02013" lon="-4.29731">
        <ele>140.5</ele>
        <time>2022-05-28T09:17:44Z</time>
      </trkpt>
      <trkpt lat="48.01974" lon="-4.29696">
        <ele>137.7</ele>
        <time>2022-05-28T09:17:48Z</time>
      </trkpt>
      <trkpt lat="48.01964" lon="-4.29688">
        <ele>136.8</ele>
        <time>2022-05-28T09:17:49Z</time>
      </trkpt>
      <trkpt lat="48.01941" lon="-4.29676">
        <ele>135</ele>
        <time>2022-05-28T09:17:51Z</time>
      </trkpt>
      <trkpt lat="48.01929" lon="-4.29675">
        <ele>134.1</ele>
        <time>2022-05-28T09:17:52Z</time>
      </trkpt>
      <trkpt lat="48.01917" lon="-4.29679">
        <ele>133.2</ele>
        <time>2022-05-28T09:17:53Z</time>
      </trkpt>
      <trkpt lat="48.01905" lon="-4.29679">
        <ele>132.3</ele>
        <time>2022-05-28T09:17:54Z</time>
      </trkpt>
      <trkpt lat="48.01882" lon="-4.29683">
        <ele>130.4</ele>
        <time>2022-05-28T09:17:56Z</time>
      </trkpt>
      <trkpt lat="48.01849" lon="-4.29708">
        <ele>127.6</ele>
        <time>2022-05-28T09:17:59Z</time>
      </trkpt>
      <trkpt lat="48.01839" lon="-4.29719">
        <ele>126.6</ele>
        <time>2022-05-28T09:18:00Z</time>
      </trkpt>
      <trkpt lat="48.01807" lon="-4.29751">
        <ele>123.5</ele>
        <time>2022-05-28T09:18:03Z</time>
      </trkpt>
      <trkpt lat="48.01772" lon="-4.29786">
        <ele>120.4</ele>
        <time>2022-05-28T09:18:06Z</time>
      </trkpt>
      <trkpt lat="48.01761" lon="-4.29798">
        <ele>119.4</ele>
        <time>2022-05-28T09:18:07Z</time>
      </trkpt>
      <trkpt lat="48.01716" lon="-4.29845">
        <ele>115.7</ele>
        <time>2022-05-28T09:18:11Z</time>
      </trkpt>
      <trkpt lat="48.01707" lon="-4.29857">
        <ele>114.8</ele>
        <time>2022-05-28T09:18:12Z</time>
      </trkpt>
      <trkpt lat="48.01678" lon="-4.29891">
        <ele>112.7</ele>
        <time>2022-05-28T09:18:15Z</time>
      </trkpt>
      <trkpt lat="48.01654" lon="-4.29928">
        <ele>110.7</ele>
        <time>2022-05-28T09:18:18Z</time>
      </trkpt>
      <trkpt lat="48.01646" lon="-4.2994">
        <ele>110.5</ele>
        <time>2022-05-28T09:18:19Z</time>
      </trkpt>
      <trkpt lat="48.01606" lon="-4.2999">
        <ele>109.2</ele>
        <time>2022-05-28T09:18:24Z</time>
      </trkpt>
      <trkpt lat="48.01571" lon="-4.30049">
        <ele>108</ele>
        <time>2022-05-28T09:18:29Z</time>
      </trkpt>
      <trkpt lat="48.01564" lon="-4.3006">
        <ele>107.8</ele>
        <time>2022-05-28T09:18:30Z</time>
      </trkpt>
      <trkpt lat="48.01545" lon="-4.30094">
        <ele>107.9</ele>
        <time>2022-05-28T09:18:33Z</time>
      </trkpt>
      <trkpt lat="48.0153" lon="-4.30132">
        <ele>107.8</ele>
        <time>2022-05-28T09:18:36Z</time>
      </trkpt>
      <trkpt lat="48.01524" lon="-4.30144">
        <ele>107.7</ele>
        <time>2022-05-28T09:18:37Z</time>
      </trkpt>
      <trkpt lat="48.01508" lon="-4.30176">
        <ele>107.3</ele>
        <time>2022-05-28T09:18:40Z</time>
      </trkpt>
      <trkpt lat="48.01498" lon="-4.30221">
        <ele>106.7</ele>
        <time>2022-05-28T09:18:44Z</time>
      </trkpt>
      <trkpt lat="48.01495" lon="-4.30273">
        <ele>106</ele>
        <time>2022-05-28T09:18:48Z</time>
      </trkpt>
      <trkpt lat="48.01495" lon="-4.30286">
        <ele>105.3</ele>
        <time>2022-05-28T09:18:49Z</time>
      </trkpt>
      <trkpt lat="48.01502" lon="-4.30344">
        <ele>102.7</ele>
        <time>2022-05-28T09:18:53Z</time>
      </trkpt>
      <trkpt lat="48.01504" lon="-4.30357">
        <ele>102</ele>
        <time>2022-05-28T09:18:54Z</time>
      </trkpt>
      <trkpt lat="48.01504" lon="-4.30403">
        <ele>99.1</ele>
        <time>2022-05-28T09:18:58Z</time>
      </trkpt>
      <trkpt lat="48.01504" lon="-4.30411">
        <ele>99</ele>
        <time>2022-05-28T09:18:59Z</time>
      </trkpt>
      <trkpt lat="48.01501" lon="-4.30417">
        <ele>98.8</ele>
        <time>2022-05-28T09:19:01Z</time>
      </trkpt>
      <trkpt lat="48.01453" lon="-4.30423">
        <ele>98</ele>
        <time>2022-05-28T09:19:08Z</time>
      </trkpt>
      <trkpt lat="48.01433" lon="-4.30425">
        <ele>97.6</ele>
        <time>2022-05-28T09:19:13Z</time>
      </trkpt>
      <trkpt lat="48.01422" lon="-4.30426">
        <ele>98.3</ele>
        <time>2022-05-28T09:19:16Z</time>
      </trkpt>
      <trkpt lat="48.01412" lon="-4.30427">
        <ele>99.1</ele>
        <time>2022-05-28T09:19:19Z</time>
      </trkpt>
      <trkpt lat="48.01402" lon="-4.30427">
        <ele>99.7</ele>
        <time>2022-05-28T09:19:22Z</time>
      </trkpt>
      <trkpt lat="48.01361" lon="-4.30406">
        <ele>102.7</ele>
        <time>2022-05-28T09:19:37Z</time>
      </trkpt>
      <trkpt lat="48.01358" lon="-4.30405">
        <ele>102.9</ele>
        <time>2022-05-28T09:19:38Z</time>
      </trkpt>
      <trkpt lat="48.01313" lon="-4.30389">
        <ele>105</ele>
        <time>2022-05-28T09:19:53Z</time>
      </trkpt>
      <trkpt lat="48.01308" lon="-4.30388">
        <ele>105.3</ele>
        <time>2022-05-28T09:19:55Z</time>
      </trkpt>
      <trkpt lat="48.01276" lon="-4.30381">
        <ele>107</ele>
        <time>2022-05-28T09:20:07Z</time>
      </trkpt>
      <trkpt lat="48.01266" lon="-4.30379">
        <ele>107.8</ele>
        <time>2022-05-28T09:20:11Z</time>
      </trkpt>
      <trkpt lat="48.01229" lon="-4.3037">
        <ele>110.5</ele>
        <time>2022-05-28T09:20:25Z</time>
      </trkpt>
      <trkpt lat="48.01226" lon="-4.30369">
        <ele>110.8</ele>
        <time>2022-05-28T09:20:26Z</time>
      </trkpt>
      <trkpt lat="48.01184" lon="-4.30362">
        <ele>114.8</ele>
        <time>2022-05-28T09:20:43Z</time>
      </trkpt>
      <trkpt lat="48.01179" lon="-4.30361">
        <ele>115.3</ele>
        <time>2022-05-28T09:20:45Z</time>
      </trkpt>
      <trkpt lat="48.01146" lon="-4.30352">
        <ele>118.6</ele>
        <time>2022-05-28T09:21:00Z</time>
      </trkpt>
      <trkpt lat="48.01142" lon="-4.30351">
        <ele>118.9</ele>
        <time>2022-05-28T09:21:02Z</time>
      </trkpt>
      <trkpt lat="48.01098" lon="-4.30342">
        <ele>122.4</ele>
        <time>2022-05-28T09:21:22Z</time>
      </trkpt>
      <trkpt lat="48.01096" lon="-4.30342">
        <ele>122.5</ele>
        <time>2022-05-28T09:21:23Z</time>
      </trkpt>
      <trkpt lat="48.01064" lon="-4.30337">
        <ele>123.9</ele>
        <time>2022-05-28T09:21:34Z</time>
      </trkpt>
      <trkpt lat="48.01058" lon="-4.30337">
        <ele>124.2</ele>
        <time>2022-05-28T09:21:36Z</time>
      </trkpt>
      <trkpt lat="48.01048" lon="-4.3034">
        <ele>124.7</ele>
        <time>2022-05-28T09:21:40Z</time>
      </trkpt>
      <trkpt lat="48.0104" lon="-4.3034">
        <ele>125.1</ele>
        <time>2022-05-28T09:21:43Z</time>
      </trkpt>
      <trkpt lat="48.00998" lon="-4.30318">
        <ele>130.3</ele>
        <time>2022-05-28T09:21:59Z</time>
      </trkpt>
      <trkpt lat="48.00998" lon="-4.30318">
        <ele>130.3</ele>
        <time>2022-05-28T09:22:27Z</time>
      </trkpt>
      <trkpt lat="48.00978" lon="-4.30287">
        <ele>134.4</ele>
        <time>2022-05-28T09:22:33Z</time>
      </trkpt>
      <trkpt lat="48.00977" lon="-4.30284">
        <ele>134.6</ele>
        <time>2022-05-28T09:22:34Z</time>
      </trkpt>
      <trkpt lat="48.00969" lon="-4.30219">
        <ele>136.8</ele>
        <time>2022-05-28T09:22:52Z</time>
      </trkpt>
      <trkpt lat="48.00947" lon="-4.30155">
        <ele>137.3</ele>
        <time>2022-05-28T09:23:08Z</time>
      </trkpt>
      <trkpt lat="48.0092" lon="-4.30095">
        <ele>137.6</ele>
        <time>2022-05-28T09:23:20Z</time>
      </trkpt>
      <trkpt lat="48.00893" lon="-4.30039">
        <ele>137.9</ele>
        <time>2022-05-28T09:23:30Z</time>
      </trkpt>
      <trkpt lat="48.00853" lon="-4.30006">
        <ele>138.1</ele>
        <time>2022-05-28T09:23:39Z</time>
      </trkpt>
      <trkpt lat="48.0081" lon="-4.29987">
        <ele>138.4</ele>
        <time>2022-05-28T09:23:48Z</time>
      </trkpt>
      <trkpt lat="48.00794" lon="-4.29989">
        <ele>138.5</ele>
        <time>2022-05-28T09:23:51Z</time>
      </trkpt>
      <trkpt lat="48.00789" lon="-4.29988">
        <ele>138.5</ele>
        <time>2022-05-28T09:23:52Z</time>
      </trkpt>
      <trkpt lat="48.00742" lon="-4.29989">
        <ele>138.7</ele>
        <time>2022-05-28T09:24:01Z</time>
      </trkpt>
      <trkpt lat="48.00695" lon="-4.2999">
        <ele>139.1</ele>
        <time>2022-05-28T09:24:12Z</time>
      </trkpt>
      <trkpt lat="48.00691" lon="-4.2999">
        <ele>139.1</ele>
        <time>2022-05-28T09:24:13Z</time>
      </trkpt>
      <trkpt lat="48.00657" lon="-4.29989">
        <ele>140.3</ele>
        <time>2022-05-28T09:24:21Z</time>
      </trkpt>
      <trkpt lat="48.00612" lon="-4.2999">
        <ele>142.1</ele>
        <time>2022-05-28T09:24:33Z</time>
      </trkpt>
      <trkpt lat="48.00597" lon="-4.29989">
        <ele>142.7</ele>
        <time>2022-05-28T09:24:37Z</time>
      </trkpt>
      <trkpt lat="48.00574" lon="-4.29987">
        <ele>144</ele>
        <time>2022-05-28T09:24:43Z</time>
      </trkpt>
      <trkpt lat="48.00563" lon="-4.29986">
        <ele>144.6</ele>
        <time>2022-05-28T09:24:46Z</time>
      </trkpt>
      <trkpt lat="48.00525" lon="-4.29983">
        <ele>147</ele>
        <time>2022-05-28T09:24:58Z</time>
      </trkpt>
      <trkpt lat="48.00516" lon="-4.29982">
        <ele>147.6</ele>
        <time>2022-05-28T09:25:01Z</time>
      </trkpt>
      <trkpt lat="48.00474" lon="-4.29981">
        <ele>148.5</ele>
        <time>2022-05-28T09:25:12Z</time>
      </trkpt>
      <trkpt lat="48.00471" lon="-4.2998">
        <ele>148.6</ele>
        <time>2022-05-28T09:25:13Z</time>
      </trkpt>
      <trkpt lat="48.00424" lon="-4.2998">
        <ele>148.7</ele>
        <time>2022-05-28T09:25:26Z</time>
      </trkpt>
      <trkpt lat="48.00399" lon="-4.29978">
        <ele>148.8</ele>
        <time>2022-05-28T09:25:33Z</time>
      </trkpt>
      <trkpt lat="48.00353" lon="-4.29973">
        <ele>149</ele>
        <time>2022-05-28T09:25:45Z</time>
      </trkpt>
      <trkpt lat="48.00304" lon="-4.29964">
        <ele>149.1</ele>
        <time>2022-05-28T09:25:55Z</time>
      </trkpt>
      <trkpt lat="48.00259" lon="-4.29961">
        <ele>149.2</ele>
        <time>2022-05-28T09:26:03Z</time>
      </trkpt>
      <trkpt lat="48.00225" lon="-4.29956">
        <ele>149.2</ele>
        <time>2022-05-28T09:26:08Z</time>
      </trkpt>
      <trkpt lat="48.00172" lon="-4.29951">
        <ele>146.6</ele>
        <time>2022-05-28T09:26:15Z</time>
      </trkpt>
      <trkpt lat="48.00127" lon="-4.29946">
        <ele>144.9</ele>
        <time>2022-05-28T09:26:20Z</time>
      </trkpt>
      <trkpt lat="48.00118" lon="-4.29945">
        <ele>144.5</ele>
        <time>2022-05-28T09:26:21Z</time>
      </trkpt>
      <trkpt lat="48.00072" lon="-4.29941">
        <ele>142.7</ele>
        <time>2022-05-28T09:26:26Z</time>
      </trkpt>
      <trkpt lat="48.00027" lon="-4.29937">
        <ele>141</ele>
        <time>2022-05-28T09:26:31Z</time>
      </trkpt>
      <trkpt lat="47.99998" lon="-4.29931">
        <ele>141.3</ele>
        <time>2022-05-28T09:26:35Z</time>
      </trkpt>
      <trkpt lat="47.99998" lon="-4.29931">
        <ele>141.3</ele>
        <time>2022-05-28T09:27:10Z</time>
      </trkpt>
      <trkpt lat="47.99976" lon="-4.29926">
        <ele>142</ele>
        <time>2022-05-28T09:27:11Z</time>
      </trkpt>
      <trkpt lat="47.99973" lon="-4.29932">
        <ele>142</ele>
        <time>2022-05-28T09:27:12Z</time>
      </trkpt>
      <trkpt lat="47.99972" lon="-4.29923">
        <ele>142.1</ele>
        <time>2022-05-28T09:27:13Z</time>
      </trkpt>
      <trkpt lat="47.99972" lon="-4.29902">
        <ele>142.1</ele>
        <time>2022-05-28T09:27:14Z</time>
      </trkpt>
      <trkpt lat="47.99976" lon="-4.29831">
        <ele>142.6</ele>
        <time>2022-05-28T09:27:24Z</time>
      </trkpt>
      <trkpt lat="47.99974" lon="-4.29761">
        <ele>143.1</ele>
        <time>2022-05-28T09:27:34Z</time>
      </trkpt>
      <trkpt lat="47.99972" lon="-4.29692">
        <ele>143.5</ele>
        <time>2022-05-28T09:27:44Z</time>
      </trkpt>
      <trkpt lat="47.99964" lon="-4.29622">
        <ele>144</ele>
        <time>2022-05-28T09:27:53Z</time>
      </trkpt>
      <trkpt lat="47.99954" lon="-4.29551">
        <ele>144.5</ele>
        <time>2022-05-28T09:28:03Z</time>
      </trkpt>
      <trkpt lat="47.99942" lon="-4.29479">
        <ele>145.1</ele>
        <time>2022-05-28T09:28:13Z</time>
      </trkpt>
      <trkpt lat="47.99939" lon="-4.29473">
        <ele>145.2</ele>
        <time>2022-05-28T09:28:14Z</time>
      </trkpt>
      <trkpt lat="47.99929" lon="-4.29407">
        <ele>145.7</ele>
        <time>2022-05-28T09:28:23Z</time>
      </trkpt>
      <trkpt lat="47.99926" lon="-4.29387">
        <ele>145.9</ele>
        <time>2022-05-28T09:28:26Z</time>
      </trkpt>
      <trkpt lat="47.9991" lon="-4.29318">
        <ele>146.4</ele>
        <time>2022-05-28T09:28:36Z</time>
      </trkpt>
      <trkpt lat="47.99895" lon="-4.2926">
        <ele>146.9</ele>
        <time>2022-05-28T09:28:45Z</time>
      </trkpt>
      <trkpt lat="47.9989" lon="-4.29249">
        <ele>147.1</ele>
        <time>2022-05-28T09:28:47Z</time>
      </trkpt>
      <trkpt lat="47.99868" lon="-4.29199">
        <ele>148.2</ele>
        <time>2022-05-28T09:28:56Z</time>
      </trkpt>
      <trkpt lat="47.99864" lon="-4.29187">
        <ele>148.5</ele>
        <time>2022-05-28T09:28:58Z</time>
      </trkpt>
      <trkpt lat="47.99861" lon="-4.29181">
        <ele>148.6</ele>
        <time>2022-05-28T09:28:59Z</time>
      </trkpt>
      <trkpt lat="47.99844" lon="-4.29151">
        <ele>148.9</ele>
        <time>2022-05-28T09:29:05Z</time>
      </trkpt>
      <trkpt lat="47.99833" lon="-4.2913">
        <ele>149.4</ele>
        <time>2022-05-28T09:29:09Z</time>
      </trkpt>
      <trkpt lat="47.9981" lon="-4.29088">
        <ele>150.5</ele>
        <time>2022-05-28T09:29:17Z</time>
      </trkpt>
      <trkpt lat="47.99805" lon="-4.29077">
        <ele>150.7</ele>
        <time>2022-05-28T09:29:19Z</time>
      </trkpt>
      <trkpt lat="47.99784" lon="-4.29013">
        <ele>152.1</ele>
        <time>2022-05-28T09:29:30Z</time>
      </trkpt>
      <trkpt lat="47.99781" lon="-4.28993">
        <ele>152.5</ele>
        <time>2022-05-28T09:29:33Z</time>
      </trkpt>
      <trkpt lat="47.99774" lon="-4.28947">
        <ele>153.5</ele>
        <time>2022-05-28T09:29:40Z</time>
      </trkpt>
      <trkpt lat="47.99774" lon="-4.28928">
        <ele>154</ele>
        <time>2022-05-28T09:29:43Z</time>
      </trkpt>
      <trkpt lat="47.99774" lon="-4.28909">
        <ele>154.1</ele>
        <time>2022-05-28T09:29:46Z</time>
      </trkpt>
      <trkpt lat="47.9978" lon="-4.28858">
        <ele>154.6</ele>
        <time>2022-05-28T09:29:55Z</time>
      </trkpt>
      <trkpt lat="47.99782" lon="-4.28841">
        <ele>154.6</ele>
        <time>2022-05-28T09:29:58Z</time>
      </trkpt>
      <trkpt lat="47.99789" lon="-4.2877">
        <ele>154.5</ele>
        <time>2022-05-28T09:30:10Z</time>
      </trkpt>
      <trkpt lat="47.99791" lon="-4.2872">
        <ele>154.4</ele>
        <time>2022-05-28T09:30:18Z</time>
      </trkpt>
      <trkpt lat="47.9979" lon="-4.28713">
        <ele>154.4</ele>
        <time>2022-05-28T09:30:19Z</time>
      </trkpt>
      <trkpt lat="47.99795" lon="-4.28645">
        <ele>154.4</ele>
        <time>2022-05-28T09:30:28Z</time>
      </trkpt>
      <trkpt lat="47.99807" lon="-4.28579">
        <ele>154.3</ele>
        <time>2022-05-28T09:30:37Z</time>
      </trkpt>
      <trkpt lat="47.99815" lon="-4.28554">
        <ele>154.3</ele>
        <time>2022-05-28T09:30:41Z</time>
      </trkpt>
      <trkpt lat="47.99818" lon="-4.28549">
        <ele>154.3</ele>
        <time>2022-05-28T09:30:42Z</time>
      </trkpt>
      <trkpt lat="47.99834" lon="-4.28487">
        <ele>154.2</ele>
        <time>2022-05-28T09:30:53Z</time>
      </trkpt>
      <trkpt lat="47.99792" lon="-4.28455">
        <ele>154.1</ele>
        <time>2022-05-28T09:31:05Z</time>
      </trkpt>
      <trkpt lat="47.99744" lon="-4.28421">
        <ele>154</ele>
        <time>2022-05-28T09:31:17Z</time>
      </trkpt>
      <trkpt lat="47.99733" lon="-4.28412">
        <ele>154</ele>
        <time>2022-05-28T09:31:19Z</time>
      </trkpt>
      <trkpt lat="47.99714" lon="-4.28402">
        <ele>153.9</ele>
        <time>2022-05-28T09:31:22Z</time>
      </trkpt>
      <trkpt lat="47.99703" lon="-4.28392">
        <ele>153.8</ele>
        <time>2022-05-28T09:31:25Z</time>
      </trkpt>
      <trkpt lat="47.9967" lon="-4.28363">
        <ele>151.8</ele>
        <time>2022-05-28T09:31:34Z</time>
      </trkpt>
      <trkpt lat="47.99625" lon="-4.28328">
        <ele>150.2</ele>
        <time>2022-05-28T09:31:41Z</time>
      </trkpt>
      <trkpt lat="47.9959" lon="-4.28282">
        <ele>149.2</ele>
        <time>2022-05-28T09:31:49Z</time>
      </trkpt>
      <trkpt lat="47.99573" lon="-4.28257">
        <ele>148.8</ele>
        <time>2022-05-28T09:31:53Z</time>
      </trkpt>
      <trkpt lat="47.99557" lon="-4.28232">
        <ele>149.2</ele>
        <time>2022-05-28T09:31:57Z</time>
      </trkpt>
      <trkpt lat="47.99528" lon="-4.28179">
        <ele>150.2</ele>
        <time>2022-05-28T09:32:08Z</time>
      </trkpt>
      <trkpt lat="47.99524" lon="-4.28168">
        <ele>150.5</ele>
        <time>2022-05-28T09:32:11Z</time>
      </trkpt>
      <trkpt lat="47.99515" lon="-4.28148">
        <ele>151.2</ele>
        <time>2022-05-28T09:32:17Z</time>
      </trkpt>
      <trkpt lat="47.99507" lon="-4.28128">
        <ele>152.1</ele>
        <time>2022-05-28T09:32:23Z</time>
      </trkpt>
      <trkpt lat="47.99504" lon="-4.2812">
        <ele>152.1</ele>
        <time>2022-05-28T09:32:25Z</time>
      </trkpt>
      <trkpt lat="47.99496" lon="-4.28101">
        <ele>152</ele>
        <time>2022-05-28T09:32:29Z</time>
      </trkpt>
      <trkpt lat="47.99476" lon="-4.28053">
        <ele>151.1</ele>
        <time>2022-05-28T09:32:37Z</time>
      </trkpt>
      <trkpt lat="47.99454" lon="-4.27994">
        <ele>150.9</ele>
        <time>2022-05-28T09:32:39Z</time>
      </trkpt>
      <trkpt lat="47.99443" lon="-4.27965">
        <ele>150.4</ele>
        <time>2022-05-28T09:32:43Z</time>
      </trkpt>
      <trkpt lat="47.9944" lon="-4.27918">
        <ele>149.8</ele>
        <time>2022-05-28T09:32:49Z</time>
      </trkpt>
      <trkpt lat="47.99445" lon="-4.27871">
        <ele>149</ele>
        <time>2022-05-28T09:32:56Z</time>
      </trkpt>
      <trkpt lat="47.99437" lon="-4.27871">
        <ele>148.9</ele>
        <time>2022-05-28T09:32:57Z</time>
      </trkpt>
      <trkpt lat="47.99405" lon="-4.27844">
        <ele>148.3</ele>
        <time>2022-05-28T09:33:02Z</time>
      </trkpt>
      <trkpt lat="47.99399" lon="-4.27837">
        <ele>148.2</ele>
        <time>2022-05-28T09:33:03Z</time>
      </trkpt>
      <trkpt lat="47.9939" lon="-4.2783">
        <ele>147.9</ele>
        <time>2022-05-28T09:33:04Z</time>
      </trkpt>
      <trkpt lat="47.99357" lon="-4.27804">
        <ele>145.9</ele>
        <time>2022-05-28T09:33:08Z</time>
      </trkpt>
      <trkpt lat="47.99341" lon="-4.27789">
        <ele>144.9</ele>
        <time>2022-05-28T09:33:10Z</time>
      </trkpt>
      <trkpt lat="47.99317" lon="-4.27767">
        <ele>144.4</ele>
        <time>2022-05-28T09:33:13Z</time>
      </trkpt>
      <trkpt lat="47.99273" lon="-4.27732">
        <ele>143.3</ele>
        <time>2022-05-28T09:33:19Z</time>
      </trkpt>
      <trkpt lat="47.99261" lon="-4.27728">
        <ele>143</ele>
        <time>2022-05-28T09:33:21Z</time>
      </trkpt>
      <trkpt lat="47.99225" lon="-4.27719">
        <ele>144</ele>
        <time>2022-05-28T09:33:27Z</time>
      </trkpt>
      <trkpt lat="47.99198" lon="-4.27713">
        <ele>145.7</ele>
        <time>2022-05-28T09:33:33Z</time>
      </trkpt>
      <trkpt lat="47.9918" lon="-4.27709">
        <ele>146.9</ele>
        <time>2022-05-28T09:33:37Z</time>
      </trkpt>
      <trkpt lat="47.99177" lon="-4.27709">
        <ele>147.2</ele>
        <time>2022-05-28T09:33:38Z</time>
      </trkpt>
      <trkpt lat="47.99144" lon="-4.277">
        <ele>150.7</ele>
        <time>2022-05-28T09:33:49Z</time>
      </trkpt>
      <trkpt lat="47.99134" lon="-4.27697">
        <ele>151.4</ele>
        <time>2022-05-28T09:33:52Z</time>
      </trkpt>
      <trkpt lat="47.99103" lon="-4.27687">
        <ele>153.5</ele>
        <time>2022-05-28T09:34:01Z</time>
      </trkpt>
      <trkpt lat="47.99088" lon="-4.27683">
        <ele>153.6</ele>
        <time>2022-05-28T09:34:05Z</time>
      </trkpt>
      <trkpt lat="47.9908" lon="-4.27681">
        <ele>153.7</ele>
        <time>2022-05-28T09:34:07Z</time>
      </trkpt>
      <trkpt lat="47.99043" lon="-4.27673">
        <ele>153.2</ele>
        <time>2022-05-28T09:34:16Z</time>
      </trkpt>
      <trkpt lat="47.98994" lon="-4.27671">
        <ele>152.6</ele>
        <time>2022-05-28T09:34:25Z</time>
      </trkpt>
      <trkpt lat="47.98949" lon="-4.27658">
        <ele>152.2</ele>
        <time>2022-05-28T09:34:33Z</time>
      </trkpt>
      <trkpt lat="47.98914" lon="-4.27637">
        <ele>151.8</ele>
        <time>2022-05-28T09:34:39Z</time>
      </trkpt>
      <trkpt lat="47.98876" lon="-4.27599">
        <ele>151.4</ele>
        <time>2022-05-28T09:34:46Z</time>
      </trkpt>
      <trkpt lat="47.98832" lon="-4.27562">
        <ele>150.9</ele>
        <time>2022-05-28T09:34:54Z</time>
      </trkpt>
      <trkpt lat="47.98826" lon="-4.27557">
        <ele>150.8</ele>
        <time>2022-05-28T09:34:55Z</time>
      </trkpt>
      <trkpt lat="47.98793" lon="-4.27525">
        <ele>150.2</ele>
        <time>2022-05-28T09:35:01Z</time>
      </trkpt>
      <trkpt lat="47.9877" lon="-4.27501">
        <ele>149.7</ele>
        <time>2022-05-28T09:35:05Z</time>
      </trkpt>
      <trkpt lat="47.98758" lon="-4.27488">
        <ele>149.5</ele>
        <time>2022-05-28T09:35:07Z</time>
      </trkpt>
      <trkpt lat="47.98738" lon="-4.27477">
        <ele>149</ele>
        <time>2022-05-28T09:35:10Z</time>
      </trkpt>
      <trkpt lat="47.9873" lon="-4.27479">
        <ele>148.9</ele>
        <time>2022-05-28T09:35:11Z</time>
      </trkpt>
      <trkpt lat="47.98726" lon="-4.2746">
        <ele>148.7</ele>
        <time>2022-05-28T09:35:12Z</time>
      </trkpt>
      <trkpt lat="47.98686" lon="-4.27425">
        <ele>147.8</ele>
        <time>2022-05-28T09:35:18Z</time>
      </trkpt>
      <trkpt lat="47.98679" lon="-4.27419">
        <ele>147.7</ele>
        <time>2022-05-28T09:35:19Z</time>
      </trkpt>
      <trkpt lat="47.98647" lon="-4.27388">
        <ele>147.1</ele>
        <time>2022-05-28T09:35:24Z</time>
      </trkpt>
      <trkpt lat="47.98604" lon="-4.27348">
        <ele>146.4</ele>
        <time>2022-05-28T09:35:31Z</time>
      </trkpt>
      <trkpt lat="47.98586" lon="-4.2733">
        <ele>146.5</ele>
        <time>2022-05-28T09:35:34Z</time>
      </trkpt>
      <trkpt lat="47.98542" lon="-4.27294">
        <ele>146.8</ele>
        <time>2022-05-28T09:35:41Z</time>
      </trkpt>
      <trkpt lat="47.98504" lon="-4.27254">
        <ele>147.2</ele>
        <time>2022-05-28T09:35:48Z</time>
      </trkpt>
      <trkpt lat="47.98484" lon="-4.27237">
        <ele>147.3</ele>
        <time>2022-05-28T09:35:52Z</time>
      </trkpt>
      <trkpt lat="47.98456" lon="-4.27201">
        <ele>147.7</ele>
        <time>2022-05-28T09:36:00Z</time>
      </trkpt>
      <trkpt lat="47.98449" lon="-4.27192">
        <ele>147.8</ele>
        <time>2022-05-28T09:36:02Z</time>
      </trkpt>
      <trkpt lat="47.98436" lon="-4.27176">
        <ele>148.1</ele>
        <time>2022-05-28T09:36:06Z</time>
      </trkpt>
      <trkpt lat="47.98416" lon="-4.27177">
        <ele>148.4</ele>
        <time>2022-05-28T09:36:11Z</time>
      </trkpt>
      <trkpt lat="47.98412" lon="-4.27175">
        <ele>148.4</ele>
        <time>2022-05-28T09:36:12Z</time>
      </trkpt>
      <trkpt lat="47.98376" lon="-4.27158">
        <ele>147.3</ele>
        <time>2022-05-28T09:36:20Z</time>
      </trkpt>
      <trkpt lat="47.98353" lon="-4.2714">
        <ele>146.7</ele>
        <time>2022-05-28T09:36:24Z</time>
      </trkpt>
      <trkpt lat="47.98347" lon="-4.27136">
        <ele>146.4</ele>
        <time>2022-05-28T09:36:25Z</time>
      </trkpt>
      <trkpt lat="47.98326" lon="-4.27126">
        <ele>145.3</ele>
        <time>2022-05-28T09:36:28Z</time>
      </trkpt>
      <trkpt lat="47.98319" lon="-4.27124">
        <ele>145</ele>
        <time>2022-05-28T09:36:29Z</time>
      </trkpt>
      <trkpt lat="47.98311" lon="-4.27118">
        <ele>144.6</ele>
        <time>2022-05-28T09:36:30Z</time>
      </trkpt>
      <trkpt lat="47.98296" lon="-4.27105">
        <ele>143.7</ele>
        <time>2022-05-28T09:36:32Z</time>
      </trkpt>
      <trkpt lat="47.9828" lon="-4.27099">
        <ele>142.9</ele>
        <time>2022-05-28T09:36:34Z</time>
      </trkpt>
      <trkpt lat="47.98272" lon="-4.27102">
        <ele>142.4</ele>
        <time>2022-05-28T09:36:35Z</time>
      </trkpt>
      <trkpt lat="47.98231" lon="-4.27098">
        <ele>139.8</ele>
        <time>2022-05-28T09:36:41Z</time>
      </trkpt>
      <trkpt lat="47.98227" lon="-4.27093">
        <ele>139.4</ele>
        <time>2022-05-28T09:36:42Z</time>
      </trkpt>
      <trkpt lat="47.98222" lon="-4.27091">
        <ele>139</ele>
        <time>2022-05-28T09:36:43Z</time>
      </trkpt>
      <trkpt lat="47.98209" lon="-4.27098">
        <ele>137.8</ele>
        <time>2022-05-28T09:36:46Z</time>
      </trkpt>
      <trkpt lat="47.9816" lon="-4.27086">
        <ele>135</ele>
        <time>2022-05-28T09:36:53Z</time>
      </trkpt>
      <trkpt lat="47.98152" lon="-4.27082">
        <ele>134.6</ele>
        <time>2022-05-28T09:36:54Z</time>
      </trkpt>
      <trkpt lat="47.98109" lon="-4.27059">
        <ele>132</ele>
        <time>2022-05-28T09:36:59Z</time>
      </trkpt>
      <trkpt lat="47.981" lon="-4.27053">
        <ele>131.5</ele>
        <time>2022-05-28T09:37:00Z</time>
      </trkpt>
      <trkpt lat="47.98063" lon="-4.27031">
        <ele>129.6</ele>
        <time>2022-05-28T09:37:04Z</time>
      </trkpt>
      <trkpt lat="47.98018" lon="-4.27003">
        <ele>127.3</ele>
        <time>2022-05-28T09:37:09Z</time>
      </trkpt>
      <trkpt lat="47.98002" lon="-4.26994">
        <ele>126</ele>
        <time>2022-05-28T09:37:12Z</time>
      </trkpt>
      <trkpt lat="47.97971" lon="-4.26975">
        <ele>124.9</ele>
        <time>2022-05-28T09:37:18Z</time>
      </trkpt>
      <trkpt lat="47.97954" lon="-4.26963">
        <ele>124.3</ele>
        <time>2022-05-28T09:37:21Z</time>
      </trkpt>
      <trkpt lat="47.97934" lon="-4.26952">
        <ele>123.7</ele>
        <time>2022-05-28T09:37:24Z</time>
      </trkpt>
      <trkpt lat="47.97908" lon="-4.26938">
        <ele>123.4</ele>
        <time>2022-05-28T09:37:28Z</time>
      </trkpt>
      <trkpt lat="47.97896" lon="-4.2693">
        <ele>123.2</ele>
        <time>2022-05-28T09:37:30Z</time>
      </trkpt>
      <trkpt lat="47.97864" lon="-4.2691">
        <ele>122.3</ele>
        <time>2022-05-28T09:37:35Z</time>
      </trkpt>
      <trkpt lat="47.9782" lon="-4.26891">
        <ele>121.2</ele>
        <time>2022-05-28T09:37:41Z</time>
      </trkpt>
      <trkpt lat="47.97812" lon="-4.26888">
        <ele>120.8</ele>
        <time>2022-05-28T09:37:42Z</time>
      </trkpt>
      <trkpt lat="47.97777" lon="-4.26873">
        <ele>118.4</ele>
        <time>2022-05-28T09:37:46Z</time>
      </trkpt>
      <trkpt lat="47.97768" lon="-4.26868">
        <ele>117.8</ele>
        <time>2022-05-28T09:37:47Z</time>
      </trkpt>
      <trkpt lat="47.97719" lon="-4.26847">
        <ele>114.7</ele>
        <time>2022-05-28T09:37:52Z</time>
      </trkpt>
      <trkpt lat="47.97708" lon="-4.26843">
        <ele>114</ele>
        <time>2022-05-28T09:37:53Z</time>
      </trkpt>
      <trkpt lat="47.97664" lon="-4.26825">
        <ele>110.9</ele>
        <time>2022-05-28T09:37:57Z</time>
      </trkpt>
      <trkpt lat="47.9764" lon="-4.26816">
        <ele>109.2</ele>
        <time>2022-05-28T09:37:59Z</time>
      </trkpt>
      <trkpt lat="47.97615" lon="-4.26808">
        <ele>106.7</ele>
        <time>2022-05-28T09:38:01Z</time>
      </trkpt>
      <trkpt lat="47.97561" lon="-4.26793">
        <ele>101.9</ele>
        <time>2022-05-28T09:38:05Z</time>
      </trkpt>
      <trkpt lat="47.97507" lon="-4.26782">
        <ele>97.7</ele>
        <time>2022-05-28T09:38:09Z</time>
      </trkpt>
      <trkpt lat="47.97481" lon="-4.26777">
        <ele>96.1</ele>
        <time>2022-05-28T09:38:11Z</time>
      </trkpt>
      <trkpt lat="47.97457" lon="-4.26772">
        <ele>96.8</ele>
        <time>2022-05-28T09:38:13Z</time>
      </trkpt>
      <trkpt lat="47.97411" lon="-4.26764">
        <ele>98.8</ele>
        <time>2022-05-28T09:38:19Z</time>
      </trkpt>
      <trkpt lat="47.97389" lon="-4.26765">
        <ele>100.2</ele>
        <time>2022-05-28T09:38:23Z</time>
      </trkpt>
      <trkpt lat="47.97362" lon="-4.26766">
        <ele>101.5</ele>
        <time>2022-05-28T09:38:28Z</time>
      </trkpt>
      <trkpt lat="47.97332" lon="-4.26771">
        <ele>103.2</ele>
        <time>2022-05-28T09:38:34Z</time>
      </trkpt>
      <trkpt lat="47.97325" lon="-4.26771">
        <ele>103.5</ele>
        <time>2022-05-28T09:38:35Z</time>
      </trkpt>
      <trkpt lat="47.97313" lon="-4.26776">
        <ele>104.1</ele>
        <time>2022-05-28T09:38:37Z</time>
      </trkpt>
      <trkpt lat="47.97291" lon="-4.26779">
        <ele>105.3</ele>
        <time>2022-05-28T09:38:41Z</time>
      </trkpt>
      <trkpt lat="47.97263" lon="-4.26783">
        <ele>105.5</ele>
        <time>2022-05-28T09:38:46Z</time>
      </trkpt>
      <trkpt lat="47.97256" lon="-4.26784">
        <ele>105.5</ele>
        <time>2022-05-28T09:38:47Z</time>
      </trkpt>
      <trkpt lat="47.97219" lon="-4.26789">
        <ele>104.5</ele>
        <time>2022-05-28T09:38:53Z</time>
      </trkpt>
      <trkpt lat="47.97212" lon="-4.2679">
        <ele>104.3</ele>
        <time>2022-05-28T09:38:54Z</time>
      </trkpt>
      <trkpt lat="47.97176" lon="-4.26797">
        <ele>103</ele>
        <time>2022-05-28T09:38:59Z</time>
      </trkpt>
      <trkpt lat="47.97161" lon="-4.268">
        <ele>102.9</ele>
        <time>2022-05-28T09:39:01Z</time>
      </trkpt>
      <trkpt lat="47.97111" lon="-4.26808">
        <ele>102.7</ele>
        <time>2022-05-28T09:39:08Z</time>
      </trkpt>
      <trkpt lat="47.97063" lon="-4.2682">
        <ele>102.4</ele>
        <time>2022-05-28T09:39:16Z</time>
      </trkpt>
      <trkpt lat="47.9706" lon="-4.26821">
        <ele>102.5</ele>
        <time>2022-05-28T09:39:17Z</time>
      </trkpt>
      <trkpt lat="47.97041" lon="-4.26823">
        <ele>104.2</ele>
        <time>2022-05-28T09:39:22Z</time>
      </trkpt>
      <trkpt lat="47.97038" lon="-4.26824">
        <ele>104.5</ele>
        <time>2022-05-28T09:39:23Z</time>
      </trkpt>
      <trkpt lat="47.97005" lon="-4.26833">
        <ele>108.1</ele>
        <time>2022-05-28T09:39:33Z</time>
      </trkpt>
      <trkpt lat="47.97001" lon="-4.26835">
        <ele>108.8</ele>
        <time>2022-05-28T09:39:35Z</time>
      </trkpt>
      <trkpt lat="47.96987" lon="-4.26839">
        <ele>109.5</ele>
        <time>2022-05-28T09:39:41Z</time>
      </trkpt>
      <trkpt lat="47.96984" lon="-4.26844">
        <ele>109.3</ele>
        <time>2022-05-28T09:39:42Z</time>
      </trkpt>
      <trkpt lat="47.96981" lon="-4.26855">
        <ele>109</ele>
        <time>2022-05-28T09:39:43Z</time>
      </trkpt>
      <trkpt lat="47.96978" lon="-4.2686">
        <ele>108.7</ele>
        <time>2022-05-28T09:39:44Z</time>
      </trkpt>
      <trkpt lat="47.96978" lon="-4.26868">
        <ele>108.4</ele>
        <time>2022-05-28T09:39:45Z</time>
      </trkpt>
      <trkpt lat="47.96972" lon="-4.26884">
        <ele>107.8</ele>
        <time>2022-05-28T09:39:47Z</time>
      </trkpt>
      <trkpt lat="47.96953" lon="-4.26937">
        <ele>105.4</ele>
        <time>2022-05-28T09:39:53Z</time>
      </trkpt>
      <trkpt lat="47.96943" lon="-4.26952">
        <ele>104.7</ele>
        <time>2022-05-28T09:39:54Z</time>
      </trkpt>
      <trkpt lat="47.96928" lon="-4.26963">
        <ele>104</ele>
        <time>2022-05-28T09:39:55Z</time>
      </trkpt>
      <trkpt lat="47.96917" lon="-4.26965">
        <ele>103.3</ele>
        <time>2022-05-28T09:39:56Z</time>
      </trkpt>
      <trkpt lat="47.96895" lon="-4.26963">
        <ele>101.8</ele>
        <time>2022-05-28T09:39:58Z</time>
      </trkpt>
      <trkpt lat="47.96885" lon="-4.26962">
        <ele>101</ele>
        <time>2022-05-28T09:39:59Z</time>
      </trkpt>
      <trkpt lat="47.96853" lon="-4.26954">
        <ele>98.6</ele>
        <time>2022-05-28T09:40:02Z</time>
      </trkpt>
      <trkpt lat="47.96847" lon="-4.26953">
        <ele>98.2</ele>
        <time>2022-05-28T09:40:03Z</time>
      </trkpt>
      <trkpt lat="47.96807" lon="-4.26946">
        <ele>101</ele>
        <time>2022-05-28T09:40:09Z</time>
      </trkpt>
      <trkpt lat="47.96791" lon="-4.26942">
        <ele>103.5</ele>
        <time>2022-05-28T09:40:15Z</time>
      </trkpt>
      <trkpt lat="47.9676" lon="-4.26934">
        <ele>107.5</ele>
        <time>2022-05-28T09:40:27Z</time>
      </trkpt>
      <trkpt lat="47.96735" lon="-4.26924">
        <ele>110.5</ele>
        <time>2022-05-28T09:40:39Z</time>
      </trkpt>
      <trkpt lat="47.96716" lon="-4.26919">
        <ele>112.3</ele>
        <time>2022-05-28T09:40:48Z</time>
      </trkpt>
      <trkpt lat="47.96713" lon="-4.26922">
        <ele>112.5</ele>
        <time>2022-05-28T09:40:49Z</time>
      </trkpt>
      <trkpt lat="47.96694" lon="-4.26913">
        <ele>114.1</ele>
        <time>2022-05-28T09:40:57Z</time>
      </trkpt>
      <trkpt lat="47.96665" lon="-4.26899">
        <ele>117</ele>
        <time>2022-05-28T09:41:09Z</time>
      </trkpt>
      <trkpt lat="47.96654" lon="-4.26893">
        <ele>118.2</ele>
        <time>2022-05-28T09:41:15Z</time>
      </trkpt>
      <trkpt lat="47.96622" lon="-4.26873">
        <ele>122.6</ele>
        <time>2022-05-28T09:41:33Z</time>
      </trkpt>
      <trkpt lat="47.96578" lon="-4.26849">
        <ele>124.3</ele>
        <time>2022-05-28T09:41:47Z</time>
      </trkpt>
      <trkpt lat="47.96562" lon="-4.26839">
        <ele>124.7</ele>
        <time>2022-05-28T09:41:51Z</time>
      </trkpt>
      <trkpt lat="47.96533" lon="-4.26822">
        <ele>124</ele>
        <time>2022-05-28T09:41:58Z</time>
      </trkpt>
      <trkpt lat="47.96487" lon="-4.26793">
        <ele>123.2</ele>
        <time>2022-05-28T09:42:07Z</time>
      </trkpt>
      <trkpt lat="47.96444" lon="-4.26767">
        <ele>122.5</ele>
        <time>2022-05-28T09:42:14Z</time>
      </trkpt>
      <trkpt lat="47.96402" lon="-4.26742">
        <ele>121.8</ele>
        <time>2022-05-28T09:42:21Z</time>
      </trkpt>
      <trkpt lat="47.9636" lon="-4.26716">
        <ele>120.9</ele>
        <time>2022-05-28T09:42:29Z</time>
      </trkpt>
      <trkpt lat="47.96343" lon="-4.26706">
        <ele>120.6</ele>
        <time>2022-05-28T09:42:32Z</time>
      </trkpt>
      <trkpt lat="47.96315" lon="-4.2669">
        <ele>120.4</ele>
        <time>2022-05-28T09:42:37Z</time>
      </trkpt>
      <trkpt lat="47.9627" lon="-4.2666">
        <ele>120.1</ele>
        <time>2022-05-28T09:42:45Z</time>
      </trkpt>
      <trkpt lat="47.96229" lon="-4.26633">
        <ele>119.9</ele>
        <time>2022-05-28T09:42:52Z</time>
      </trkpt>
      <trkpt lat="47.96184" lon="-4.26604">
        <ele>119.6</ele>
        <time>2022-05-28T09:43:00Z</time>
      </trkpt>
      <trkpt lat="47.96141" lon="-4.26576">
        <ele>119.3</ele>
        <time>2022-05-28T09:43:08Z</time>
      </trkpt>
      <trkpt lat="47.96096" lon="-4.26546">
        <ele>119</ele>
        <time>2022-05-28T09:43:17Z</time>
      </trkpt>
      <trkpt lat="47.96056" lon="-4.26514">
        <ele>118.7</ele>
        <time>2022-05-28T09:43:25Z</time>
      </trkpt>
      <trkpt lat="47.96012" lon="-4.2648">
        <ele>118.4</ele>
        <time>2022-05-28T09:43:33Z</time>
      </trkpt>
      <trkpt lat="47.95967" lon="-4.26443">
        <ele>118.1</ele>
        <time>2022-05-28T09:43:41Z</time>
      </trkpt>
      <trkpt lat="47.95926" lon="-4.2641">
        <ele>117.9</ele>
        <time>2022-05-28T09:43:48Z</time>
      </trkpt>
      <trkpt lat="47.95882" lon="-4.26377">
        <ele>117.6</ele>
        <time>2022-05-28T09:43:55Z</time>
      </trkpt>
      <trkpt lat="47.95839" lon="-4.26341">
        <ele>117.4</ele>
        <time>2022-05-28T09:44:02Z</time>
      </trkpt>
      <trkpt lat="47.95798" lon="-4.26314">
        <ele>117.2</ele>
        <time>2022-05-28T09:44:08Z</time>
      </trkpt>
      <trkpt lat="47.95752" lon="-4.2628">
        <ele>116.9</ele>
        <time>2022-05-28T09:44:15Z</time>
      </trkpt>
      <trkpt lat="47.95726" lon="-4.26264">
        <ele>116.8</ele>
        <time>2022-05-28T09:44:19Z</time>
      </trkpt>
      <trkpt lat="47.95706" lon="-4.26253">
        <ele>116.9</ele>
        <time>2022-05-28T09:44:22Z</time>
      </trkpt>
      <trkpt lat="47.95687" lon="-4.26242">
        <ele>117</ele>
        <time>2022-05-28T09:44:25Z</time>
      </trkpt>
      <trkpt lat="47.95662" lon="-4.26229">
        <ele>116.9</ele>
        <time>2022-05-28T09:44:29Z</time>
      </trkpt>
      <trkpt lat="47.95615" lon="-4.26208">
        <ele>116.6</ele>
        <time>2022-05-28T09:44:37Z</time>
      </trkpt>
      <trkpt lat="47.95568" lon="-4.26183">
        <ele>116.3</ele>
        <time>2022-05-28T09:44:46Z</time>
      </trkpt>
      <trkpt lat="47.95524" lon="-4.26162">
        <ele>116</ele>
        <time>2022-05-28T09:44:53Z</time>
      </trkpt>
      <trkpt lat="47.9548" lon="-4.26141">
        <ele>115.7</ele>
        <time>2022-05-28T09:45:00Z</time>
      </trkpt>
      <trkpt lat="47.95446" lon="-4.26123">
        <ele>115.6</ele>
        <time>2022-05-28T09:45:05Z</time>
      </trkpt>
      <trkpt lat="47.95396" lon="-4.26106">
        <ele>115.3</ele>
        <time>2022-05-28T09:45:12Z</time>
      </trkpt>
      <trkpt lat="47.95352" lon="-4.26088">
        <ele>115</ele>
        <time>2022-05-28T09:45:18Z</time>
      </trkpt>
      <trkpt lat="47.95307" lon="-4.26059">
        <ele>113.9</ele>
        <time>2022-05-28T09:45:24Z</time>
      </trkpt>
      <trkpt lat="47.9526" lon="-4.26033">
        <ele>112.7</ele>
        <time>2022-05-28T09:45:30Z</time>
      </trkpt>
      <trkpt lat="47.95214" lon="-4.26007">
        <ele>111.5</ele>
        <time>2022-05-28T09:45:36Z</time>
      </trkpt>
      <trkpt lat="47.95166" lon="-4.25981">
        <ele>109.7</ele>
        <time>2022-05-28T09:45:42Z</time>
      </trkpt>
      <trkpt lat="47.95114" lon="-4.25959">
        <ele>107.8</ele>
        <time>2022-05-28T09:45:48Z</time>
      </trkpt>
      <trkpt lat="47.95067" lon="-4.25938">
        <ele>106.2</ele>
        <time>2022-05-28T09:45:53Z</time>
      </trkpt>
      <trkpt lat="47.95058" lon="-4.25933">
        <ele>105.9</ele>
        <time>2022-05-28T09:45:54Z</time>
      </trkpt>
      <trkpt lat="47.95018" lon="-4.25916">
        <ele>104.6</ele>
        <time>2022-05-28T09:45:58Z</time>
      </trkpt>
      <trkpt lat="47.9497" lon="-4.25893">
        <ele>102.9</ele>
        <time>2022-05-28T09:46:03Z</time>
      </trkpt>
      <trkpt lat="47.94943" lon="-4.2588">
        <ele>102</ele>
        <time>2022-05-28T09:46:06Z</time>
      </trkpt>
      <trkpt lat="47.94925" lon="-4.25871">
        <ele>102</ele>
        <time>2022-05-28T09:46:08Z</time>
      </trkpt>
      <trkpt lat="47.949" lon="-4.2586">
        <ele>102</ele>
        <time>2022-05-28T09:46:11Z</time>
      </trkpt>
      <trkpt lat="47.94874" lon="-4.25849">
        <ele>101.6</ele>
        <time>2022-05-28T09:46:14Z</time>
      </trkpt>
      <trkpt lat="47.94825" lon="-4.25828">
        <ele>100.9</ele>
        <time>2022-05-28T09:46:20Z</time>
      </trkpt>
      <trkpt lat="47.94779" lon="-4.25809">
        <ele>100.2</ele>
        <time>2022-05-28T09:46:26Z</time>
      </trkpt>
      <trkpt lat="47.94764" lon="-4.25802">
        <ele>99.9</ele>
        <time>2022-05-28T09:46:28Z</time>
      </trkpt>
      <trkpt lat="47.94742" lon="-4.25782">
        <ele>99.5</ele>
        <time>2022-05-28T09:46:31Z</time>
      </trkpt>
      <trkpt lat="47.9472" lon="-4.25763">
        <ele>98.6</ele>
        <time>2022-05-28T09:46:34Z</time>
      </trkpt>
      <trkpt lat="47.947" lon="-4.25745">
        <ele>97.9</ele>
        <time>2022-05-28T09:46:37Z</time>
      </trkpt>
      <trkpt lat="47.94679" lon="-4.25728">
        <ele>97.8</ele>
        <time>2022-05-28T09:46:40Z</time>
      </trkpt>
      <trkpt lat="47.9466" lon="-4.25722">
        <ele>97.7</ele>
        <time>2022-05-28T09:46:43Z</time>
      </trkpt>
      <trkpt lat="47.94648" lon="-4.25718">
        <ele>98.3</ele>
        <time>2022-05-28T09:46:45Z</time>
      </trkpt>
      <trkpt lat="47.94628" lon="-4.25724">
        <ele>99.4</ele>
        <time>2022-05-28T09:46:49Z</time>
      </trkpt>
      <trkpt lat="47.94614" lon="-4.25729">
        <ele>100.1</ele>
        <time>2022-05-28T09:46:52Z</time>
      </trkpt>
      <trkpt lat="47.94611" lon="-4.25734">
        <ele>100.3</ele>
        <time>2022-05-28T09:46:53Z</time>
      </trkpt>
      <trkpt lat="47.94604" lon="-4.25742">
        <ele>100.8</ele>
        <time>2022-05-28T09:46:55Z</time>
      </trkpt>
      <trkpt lat="47.94595" lon="-4.25753">
        <ele>101.4</ele>
        <time>2022-05-28T09:46:58Z</time>
      </trkpt>
      <trkpt lat="47.9459" lon="-4.25763">
        <ele>101.9</ele>
        <time>2022-05-28T09:47:01Z</time>
      </trkpt>
      <trkpt lat="47.94589" lon="-4.25776">
        <ele>102.3</ele>
        <time>2022-05-28T09:47:03Z</time>
      </trkpt>
      <trkpt lat="47.94567" lon="-4.2584">
        <ele>104</ele>
        <time>2022-05-28T09:47:14Z</time>
      </trkpt>
      <trkpt lat="47.94557" lon="-4.25873">
        <ele>104.7</ele>
        <time>2022-05-28T09:47:19Z</time>
      </trkpt>
      <trkpt lat="47.94549" lon="-4.25892">
        <ele>104.3</ele>
        <time>2022-05-28T09:47:22Z</time>
      </trkpt>
      <trkpt lat="47.94529" lon="-4.25958">
        <ele>103.3</ele>
        <time>2022-05-28T09:47:31Z</time>
      </trkpt>
      <trkpt lat="47.94507" lon="-4.26019">
        <ele>102.5</ele>
        <time>2022-05-28T09:47:38Z</time>
      </trkpt>
      <trkpt lat="47.94487" lon="-4.26066">
        <ele>102</ele>
        <time>2022-05-28T09:47:43Z</time>
      </trkpt>
      <trkpt lat="47.9448" lon="-4.26076">
        <ele>101.9</ele>
        <time>2022-05-28T09:47:44Z</time>
      </trkpt>
      <trkpt lat="47.94474" lon="-4.26086">
        <ele>101.8</ele>
        <time>2022-05-28T09:47:45Z</time>
      </trkpt>
      <trkpt lat="47.94441" lon="-4.26112">
        <ele>101.4</ele>
        <time>2022-05-28T09:47:49Z</time>
      </trkpt>
      <trkpt lat="47.94435" lon="-4.26119">
        <ele>101.3</ele>
        <time>2022-05-28T09:47:50Z</time>
      </trkpt>
      <trkpt lat="47.94432" lon="-4.26129">
        <ele>101.2</ele>
        <time>2022-05-28T09:47:51Z</time>
      </trkpt>
      <trkpt lat="47.94418" lon="-4.26143">
        <ele>100.8</ele>
        <time>2022-05-28T09:47:55Z</time>
      </trkpt>
      <trkpt lat="47.94391" lon="-4.26168">
        <ele>101.8</ele>
        <time>2022-05-28T09:48:02Z</time>
      </trkpt>
      <trkpt lat="47.94362" lon="-4.26196">
        <ele>102.5</ele>
        <time>2022-05-28T09:48:07Z</time>
      </trkpt>
      <trkpt lat="47.9435" lon="-4.26208">
        <ele>102.7</ele>
        <time>2022-05-28T09:48:09Z</time>
      </trkpt>
      <trkpt lat="47.94309" lon="-4.26247">
        <ele>103.5</ele>
        <time>2022-05-28T09:48:17Z</time>
      </trkpt>
      <trkpt lat="47.94305" lon="-4.26251">
        <ele>103.6</ele>
        <time>2022-05-28T09:48:18Z</time>
      </trkpt>
      <trkpt lat="47.94269" lon="-4.26286">
        <ele>104.9</ele>
        <time>2022-05-28T09:48:27Z</time>
      </trkpt>
      <trkpt lat="47.94261" lon="-4.26294">
        <ele>105.2</ele>
        <time>2022-05-28T09:48:29Z</time>
      </trkpt>
      <trkpt lat="47.94237" lon="-4.26319">
        <ele>105.9</ele>
        <time>2022-05-28T09:48:35Z</time>
      </trkpt>
      <trkpt lat="47.94229" lon="-4.26327">
        <ele>106.1</ele>
        <time>2022-05-28T09:48:37Z</time>
      </trkpt>
      <trkpt lat="47.9422" lon="-4.26334">
        <ele>106.2</ele>
        <time>2022-05-28T09:48:39Z</time>
      </trkpt>
      <trkpt lat="47.94213" lon="-4.26345">
        <ele>106.4</ele>
        <time>2022-05-28T09:48:41Z</time>
      </trkpt>
      <trkpt lat="47.94177" lon="-4.26397">
        <ele>107.1</ele>
        <time>2022-05-28T09:48:51Z</time>
      </trkpt>
      <trkpt lat="47.94143" lon="-4.26448">
        <ele>107.8</ele>
        <time>2022-05-28T09:48:59Z</time>
      </trkpt>
      <trkpt lat="47.94131" lon="-4.26461">
        <ele>108</ele>
        <time>2022-05-28T09:49:02Z</time>
      </trkpt>
      <trkpt lat="47.94087" lon="-4.26472">
        <ele>108.7</ele>
        <time>2022-05-28T09:49:11Z</time>
      </trkpt>
      <trkpt lat="47.94082" lon="-4.26471">
        <ele>108.7</ele>
        <time>2022-05-28T09:49:12Z</time>
      </trkpt>
      <trkpt lat="47.94055" lon="-4.26452">
        <ele>109</ele>
        <time>2022-05-28T09:49:17Z</time>
      </trkpt>
      <trkpt lat="47.94039" lon="-4.2644">
        <ele>108.8</ele>
        <time>2022-05-28T09:49:20Z</time>
      </trkpt>
      <trkpt lat="47.93995" lon="-4.26407">
        <ele>107.9</ele>
        <time>2022-05-28T09:49:30Z</time>
      </trkpt>
      <trkpt lat="47.93955" lon="-4.26376">
        <ele>107.1</ele>
        <time>2022-05-28T09:49:38Z</time>
      </trkpt>
      <trkpt lat="47.93919" lon="-4.26349">
        <ele>106.6</ele>
        <time>2022-05-28T09:49:44Z</time>
      </trkpt>
      <trkpt lat="47.93903" lon="-4.26342">
        <ele>106.2</ele>
        <time>2022-05-28T09:49:47Z</time>
      </trkpt>
      <trkpt lat="47.93872" lon="-4.26329">
        <ele>103.3</ele>
        <time>2022-05-28T09:49:53Z</time>
      </trkpt>
      <trkpt lat="47.9386" lon="-4.26331">
        <ele>103.2</ele>
        <time>2022-05-28T09:49:55Z</time>
      </trkpt>
      <trkpt lat="47.93857" lon="-4.26347">
        <ele>103.2</ele>
        <time>2022-05-28T09:49:56Z</time>
      </trkpt>
      <trkpt lat="47.93816" lon="-4.26376">
        <ele>103</ele>
        <time>2022-05-28T09:50:00Z</time>
      </trkpt>
      <trkpt lat="47.93773" lon="-4.26378">
        <ele>102.8</ele>
        <time>2022-05-28T09:50:04Z</time>
      </trkpt>
      <trkpt lat="47.93762" lon="-4.26372">
        <ele>102.8</ele>
        <time>2022-05-28T09:50:05Z</time>
      </trkpt>
      <trkpt lat="47.93731" lon="-4.26355">
        <ele>102.5</ele>
        <time>2022-05-28T09:50:08Z</time>
      </trkpt>
      <trkpt lat="47.93717" lon="-4.26346">
        <ele>102.3</ele>
        <time>2022-05-28T09:50:10Z</time>
      </trkpt>
      <trkpt lat="47.93709" lon="-4.26343">
        <ele>102.2</ele>
        <time>2022-05-28T09:50:11Z</time>
      </trkpt>
      <trkpt lat="47.93679" lon="-4.2631">
        <ele>101.6</ele>
        <time>2022-05-28T09:50:17Z</time>
      </trkpt>
      <trkpt lat="47.93643" lon="-4.26273">
        <ele>100.9</ele>
        <time>2022-05-28T09:50:23Z</time>
      </trkpt>
      <trkpt lat="47.93637" lon="-4.26267">
        <ele>100.6</ele>
        <time>2022-05-28T09:50:24Z</time>
      </trkpt>
      <trkpt lat="47.93597" lon="-4.26223">
        <ele>98.9</ele>
        <time>2022-05-28T09:50:31Z</time>
      </trkpt>
      <trkpt lat="47.93556" lon="-4.26179">
        <ele>97.4</ele>
        <time>2022-05-28T09:50:37Z</time>
      </trkpt>
      <trkpt lat="47.93513" lon="-4.26149">
        <ele>96.1</ele>
        <time>2022-05-28T09:50:42Z</time>
      </trkpt>
      <trkpt lat="47.93495" lon="-4.26138">
        <ele>95.6</ele>
        <time>2022-05-28T09:50:44Z</time>
      </trkpt>
      <trkpt lat="47.93486" lon="-4.26133">
        <ele>95.4</ele>
        <time>2022-05-28T09:50:45Z</time>
      </trkpt>
      <trkpt lat="47.93467" lon="-4.26128">
        <ele>95.1</ele>
        <time>2022-05-28T09:50:47Z</time>
      </trkpt>
      <trkpt lat="47.93426" lon="-4.26099">
        <ele>94.2</ele>
        <time>2022-05-28T09:50:52Z</time>
      </trkpt>
      <trkpt lat="47.93411" lon="-4.26088">
        <ele>93.7</ele>
        <time>2022-05-28T09:50:55Z</time>
      </trkpt>
      <trkpt lat="47.9338" lon="-4.26064">
        <ele>93.4</ele>
        <time>2022-05-28T09:51:01Z</time>
      </trkpt>
      <trkpt lat="47.93339" lon="-4.26028">
        <ele>90.8</ele>
        <time>2022-05-28T09:51:07Z</time>
      </trkpt>
      <trkpt lat="47.93307" lon="-4.25979">
        <ele>87</ele>
        <time>2022-05-28T09:51:11Z</time>
      </trkpt>
      <trkpt lat="47.9329" lon="-4.25955">
        <ele>85.1</ele>
        <time>2022-05-28T09:51:13Z</time>
      </trkpt>
      <trkpt lat="47.93282" lon="-4.25944">
        <ele>84.2</ele>
        <time>2022-05-28T09:51:14Z</time>
      </trkpt>
      <trkpt lat="47.9326" lon="-4.25901">
        <ele>81.3</ele>
        <time>2022-05-28T09:51:17Z</time>
      </trkpt>
      <trkpt lat="47.93263" lon="-4.25853">
        <ele>80.4</ele>
        <time>2022-05-28T09:51:18Z</time>
      </trkpt>
      <trkpt lat="47.93252" lon="-4.25836">
        <ele>79.5</ele>
        <time>2022-05-28T09:51:19Z</time>
      </trkpt>
      <trkpt lat="47.9323" lon="-4.25806">
        <ele>78.4</ele>
        <time>2022-05-28T09:51:21Z</time>
      </trkpt>
      <trkpt lat="47.93211" lon="-4.25811">
        <ele>77.8</ele>
        <time>2022-05-28T09:51:22Z</time>
      </trkpt>
      <trkpt lat="47.93151" lon="-4.25873">
        <ele>76.6</ele>
        <time>2022-05-28T09:51:24Z</time>
      </trkpt>
      <trkpt lat="47.93106" lon="-4.25839">
        <ele>74.3</ele>
        <time>2022-05-28T09:51:28Z</time>
      </trkpt>
      <trkpt lat="47.93075" lon="-4.25815">
        <ele>72.7</ele>
        <time>2022-05-28T09:51:31Z</time>
      </trkpt>
      <trkpt lat="47.93065" lon="-4.25807">
        <ele>72.5</ele>
        <time>2022-05-28T09:51:32Z</time>
      </trkpt>
      <trkpt lat="47.93018" lon="-4.25774">
        <ele>71.9</ele>
        <time>2022-05-28T09:51:37Z</time>
      </trkpt>
      <trkpt lat="47.92975" lon="-4.25745">
        <ele>71.3</ele>
        <time>2022-05-28T09:51:42Z</time>
      </trkpt>
      <trkpt lat="47.92967" lon="-4.25739">
        <ele>71.3</ele>
        <time>2022-05-28T09:51:43Z</time>
      </trkpt>
      <trkpt lat="47.92934" lon="-4.25718">
        <ele>72</ele>
        <time>2022-05-28T09:51:47Z</time>
      </trkpt>
      <trkpt lat="47.92888" lon="-4.25706">
        <ele>73</ele>
        <time>2022-05-28T09:51:53Z</time>
      </trkpt>
      <trkpt lat="47.92876" lon="-4.25705">
        <ele>73.3</ele>
        <time>2022-05-28T09:51:55Z</time>
      </trkpt>
      <trkpt lat="47.92858" lon="-4.25705">
        <ele>73.7</ele>
        <time>2022-05-28T09:51:58Z</time>
      </trkpt>
      <trkpt lat="47.92817" lon="-4.25734">
        <ele>74.7</ele>
        <time>2022-05-28T09:52:06Z</time>
      </trkpt>
      <trkpt lat="47.92782" lon="-4.25753">
        <ele>75.6</ele>
        <time>2022-05-28T09:52:13Z</time>
      </trkpt>
      <trkpt lat="47.92771" lon="-4.25758">
        <ele>75.6</ele>
        <time>2022-05-28T09:52:15Z</time>
      </trkpt>
      <trkpt lat="47.92723" lon="-4.25763">
        <ele>75.9</ele>
        <time>2022-05-28T09:52:24Z</time>
      </trkpt>
      <trkpt lat="47.92675" lon="-4.25763">
        <ele>76.2</ele>
        <time>2022-05-28T09:52:33Z</time>
      </trkpt>
      <trkpt lat="47.92629" lon="-4.25763">
        <ele>76.5</ele>
        <time>2022-05-28T09:52:42Z</time>
      </trkpt>
      <trkpt lat="47.9258" lon="-4.25756">
        <ele>76.8</ele>
        <time>2022-05-28T09:52:51Z</time>
      </trkpt>
      <trkpt lat="47.92549" lon="-4.25747">
        <ele>77</ele>
        <time>2022-05-28T09:52:56Z</time>
      </trkpt>
      <trkpt lat="47.92501" lon="-4.25721">
        <ele>77.2</ele>
        <time>2022-05-28T09:53:04Z</time>
      </trkpt>
      <trkpt lat="47.92456" lon="-4.25701">
        <ele>77.5</ele>
        <time>2022-05-28T09:53:11Z</time>
      </trkpt>
      <trkpt lat="47.9241" lon="-4.25682">
        <ele>77.7</ele>
        <time>2022-05-28T09:53:19Z</time>
      </trkpt>
      <trkpt lat="47.92362" lon="-4.25689">
        <ele>78</ele>
        <time>2022-05-28T09:53:28Z</time>
      </trkpt>
      <trkpt lat="47.92331" lon="-4.25692">
        <ele>78.6</ele>
        <time>2022-05-28T09:53:34Z</time>
      </trkpt>
      <trkpt lat="47.92316" lon="-4.25692">
        <ele>79.2</ele>
        <time>2022-05-28T09:53:37Z</time>
      </trkpt>
      <trkpt lat="47.92272" lon="-4.25671">
        <ele>80.7</ele>
        <time>2022-05-28T09:53:46Z</time>
      </trkpt>
      <trkpt lat="47.9225" lon="-4.25655">
        <ele>81.7</ele>
        <time>2022-05-28T09:53:52Z</time>
      </trkpt>
      <trkpt lat="47.92228" lon="-4.25639">
        <ele>82.3</ele>
        <time>2022-05-28T09:53:58Z</time>
      </trkpt>
      <trkpt lat="47.92186" lon="-4.25605">
        <ele>83.5</ele>
        <time>2022-05-28T09:54:09Z</time>
      </trkpt>
      <trkpt lat="47.9216" lon="-4.2558">
        <ele>84.2</ele>
        <time>2022-05-28T09:54:16Z</time>
      </trkpt>
      <trkpt lat="47.92149" lon="-4.2557">
        <ele>84.2</ele>
        <time>2022-05-28T09:54:19Z</time>
      </trkpt>
      <trkpt lat="47.92121" lon="-4.25565">
        <ele>84.2</ele>
        <time>2022-05-28T09:54:25Z</time>
      </trkpt>
      <trkpt lat="47.92119" lon="-4.25564">
        <ele>84.2</ele>
        <time>2022-05-28T09:54:26Z</time>
      </trkpt>
      <trkpt lat="47.92118" lon="-4.25564">
        <ele>84.2</ele>
        <time>2022-05-28T09:54:27Z</time>
      </trkpt>
      <trkpt lat="47.92116" lon="-4.25527">
        <ele>84.3</ele>
        <time>2022-05-28T09:54:33Z</time>
      </trkpt>
      <trkpt lat="47.92127" lon="-4.255">
        <ele>84.3</ele>
        <time>2022-05-28T09:54:39Z</time>
      </trkpt>
      <trkpt lat="47.92137" lon="-4.25472">
        <ele>85.3</ele>
        <time>2022-05-28T09:54:45Z</time>
      </trkpt>
      <trkpt lat="47.9215" lon="-4.2544">
        <ele>86.5</ele>
        <time>2022-05-28T09:54:53Z</time>
      </trkpt>
      <trkpt lat="47.92149" lon="-4.25426">
        <ele>87.2</ele>
        <time>2022-05-28T09:54:57Z</time>
      </trkpt>
      <trkpt lat="47.92138" lon="-4.25421">
        <ele>87.5</ele>
        <time>2022-05-28T09:54:59Z</time>
      </trkpt>
      <trkpt lat="47.92127" lon="-4.25409">
        <ele>87.9</ele>
        <time>2022-05-28T09:55:02Z</time>
      </trkpt>
      <trkpt lat="47.92106" lon="-4.25386">
        <ele>88.2</ele>
        <time>2022-05-28T09:55:08Z</time>
      </trkpt>
      <trkpt lat="47.92098" lon="-4.25378">
        <ele>87.9</ele>
        <time>2022-05-28T09:55:10Z</time>
      </trkpt>
      <trkpt lat="47.92058" lon="-4.25341">
        <ele>86.7</ele>
        <time>2022-05-28T09:55:18Z</time>
      </trkpt>
      <trkpt lat="47.92047" lon="-4.2533">
        <ele>86.4</ele>
        <time>2022-05-28T09:55:20Z</time>
      </trkpt>
      <trkpt lat="47.92023" lon="-4.25307">
        <ele>85.6</ele>
        <time>2022-05-28T09:55:24Z</time>
      </trkpt>
      <trkpt lat="47.91983" lon="-4.25272">
        <ele>84.3</ele>
        <time>2022-05-28T09:55:30Z</time>
      </trkpt>
      <trkpt lat="47.9194" lon="-4.25231">
        <ele>82.8</ele>
        <time>2022-05-28T09:55:37Z</time>
      </trkpt>
      <trkpt lat="47.91934" lon="-4.25225">
        <ele>82.7</ele>
        <time>2022-05-28T09:55:38Z</time>
      </trkpt>
      <trkpt lat="47.91899" lon="-4.25189">
        <ele>82.8</ele>
        <time>2022-05-28T09:55:44Z</time>
      </trkpt>
      <trkpt lat="47.91859" lon="-4.25154">
        <ele>82.9</ele>
        <time>2022-05-28T09:55:51Z</time>
      </trkpt>
      <trkpt lat="47.91818" lon="-4.25115">
        <ele>83.1</ele>
        <time>2022-05-28T09:55:59Z</time>
      </trkpt>
      <trkpt lat="47.91778" lon="-4.25077">
        <ele>83.2</ele>
        <time>2022-05-28T09:56:07Z</time>
      </trkpt>
      <trkpt lat="47.91741" lon="-4.25034">
        <ele>83.4</ele>
        <time>2022-05-28T09:56:14Z</time>
      </trkpt>
      <trkpt lat="47.91708" lon="-4.24988">
        <ele>83.5</ele>
        <time>2022-05-28T09:56:21Z</time>
      </trkpt>
      <trkpt lat="47.91667" lon="-4.24945">
        <ele>83.6</ele>
        <time>2022-05-28T09:56:29Z</time>
      </trkpt>
      <trkpt lat="47.91626" lon="-4.24915">
        <ele>83.8</ele>
        <time>2022-05-28T09:56:36Z</time>
      </trkpt>
      <trkpt lat="47.91583" lon="-4.24885">
        <ele>83.9</ele>
        <time>2022-05-28T09:56:43Z</time>
      </trkpt>
      <trkpt lat="47.91571" lon="-4.24879">
        <ele>84</ele>
        <time>2022-05-28T09:56:45Z</time>
      </trkpt>
      <trkpt lat="47.91527" lon="-4.24867">
        <ele>84.1</ele>
        <time>2022-05-28T09:56:52Z</time>
      </trkpt>
      <trkpt lat="47.91498" lon="-4.24857">
        <ele>84.2</ele>
        <time>2022-05-28T09:56:57Z</time>
      </trkpt>
      <trkpt lat="47.91481" lon="-4.24851">
        <ele>84.2</ele>
        <time>2022-05-28T09:57:00Z</time>
      </trkpt>
      <trkpt lat="47.91436" lon="-4.24839">
        <ele>84.4</ele>
        <time>2022-05-28T09:57:08Z</time>
      </trkpt>
      <trkpt lat="47.91418" lon="-4.24833">
        <ele>84.5</ele>
        <time>2022-05-28T09:57:11Z</time>
      </trkpt>
      <trkpt lat="47.91389" lon="-4.24824">
        <ele>84.6</ele>
        <time>2022-05-28T09:57:16Z</time>
      </trkpt>
      <trkpt lat="47.91382" lon="-4.24822">
        <ele>84.6</ele>
        <time>2022-05-28T09:57:17Z</time>
      </trkpt>
      <trkpt lat="47.91339" lon="-4.2481">
        <ele>83.9</ele>
        <time>2022-05-28T09:57:24Z</time>
      </trkpt>
      <trkpt lat="47.91291" lon="-4.24795">
        <ele>83.2</ele>
        <time>2022-05-28T09:57:31Z</time>
      </trkpt>
      <trkpt lat="47.91261" lon="-4.24785">
        <ele>82.9</ele>
        <time>2022-05-28T09:57:35Z</time>
      </trkpt>
      <trkpt lat="47.91247" lon="-4.24781">
        <ele>82.7</ele>
        <time>2022-05-28T09:57:37Z</time>
      </trkpt>
      <trkpt lat="47.91218" lon="-4.24773">
        <ele>82.4</ele>
        <time>2022-05-28T09:57:41Z</time>
      </trkpt>
      <trkpt lat="47.91196" lon="-4.24767">
        <ele>82.3</ele>
        <time>2022-05-28T09:57:44Z</time>
      </trkpt>
      <trkpt lat="47.91152" lon="-4.24751">
        <ele>81.9</ele>
        <time>2022-05-28T09:57:51Z</time>
      </trkpt>
      <trkpt lat="47.91126" lon="-4.24744">
        <ele>81.8</ele>
        <time>2022-05-28T09:57:55Z</time>
      </trkpt>
      <trkpt lat="47.91075" lon="-4.24744">
        <ele>81.4</ele>
        <time>2022-05-28T09:58:03Z</time>
      </trkpt>
      <trkpt lat="47.91025" lon="-4.24735">
        <ele>81</ele>
        <time>2022-05-28T09:58:10Z</time>
      </trkpt>
      <trkpt lat="47.90977" lon="-4.24724">
        <ele>80.7</ele>
        <time>2022-05-28T09:58:17Z</time>
      </trkpt>
      <trkpt lat="47.90929" lon="-4.24713">
        <ele>80.4</ele>
        <time>2022-05-28T09:58:24Z</time>
      </trkpt>
      <trkpt lat="47.90912" lon="-4.24703">
        <ele>80</ele>
        <time>2022-05-28T09:58:31Z</time>
      </trkpt>
      <trkpt lat="47.90919" lon="-4.24632">
        <ele>79.5</ele>
        <time>2022-05-28T09:58:42Z</time>
      </trkpt>
      <trkpt lat="47.9093" lon="-4.24592">
        <ele>79.2</ele>
        <time>2022-05-28T09:58:47Z</time>
      </trkpt>
      <trkpt lat="47.90937" lon="-4.24568">
        <ele>78.2</ele>
        <time>2022-05-28T09:58:50Z</time>
      </trkpt>
      <trkpt lat="47.90945" lon="-4.24549">
        <ele>77.5</ele>
        <time>2022-05-28T09:58:52Z</time>
      </trkpt>
      <trkpt lat="47.90955" lon="-4.24518">
        <ele>75.5</ele>
        <time>2022-05-28T09:58:55Z</time>
      </trkpt>
      <trkpt lat="47.90958" lon="-4.24475">
        <ele>73.5</ele>
        <time>2022-05-28T09:58:58Z</time>
      </trkpt>
      <trkpt lat="47.90945" lon="-4.24445">
        <ele>71.9</ele>
        <time>2022-05-28T09:59:00Z</time>
      </trkpt>
      <trkpt lat="47.90918" lon="-4.24411">
        <ele>69.4</ele>
        <time>2022-05-28T09:59:03Z</time>
      </trkpt>
      <trkpt lat="47.90909" lon="-4.244">
        <ele>68.5</ele>
        <time>2022-05-28T09:59:04Z</time>
      </trkpt>
      <trkpt lat="47.9088" lon="-4.24349">
        <ele>65</ele>
        <time>2022-05-28T09:59:08Z</time>
      </trkpt>
      <trkpt lat="47.90862" lon="-4.24291">
        <ele>62</ele>
        <time>2022-05-28T09:59:12Z</time>
      </trkpt>
      <trkpt lat="47.90861" lon="-4.24274">
        <ele>61.3</ele>
        <time>2022-05-28T09:59:13Z</time>
      </trkpt>
      <trkpt lat="47.90861" lon="-4.24257">
        <ele>60.7</ele>
        <time>2022-05-28T09:59:14Z</time>
      </trkpt>
      <trkpt lat="47.90865" lon="-4.2424">
        <ele>60.1</ele>
        <time>2022-05-28T09:59:15Z</time>
      </trkpt>
      <trkpt lat="47.90872" lon="-4.24227">
        <ele>59.5</ele>
        <time>2022-05-28T09:59:16Z</time>
      </trkpt>
      <trkpt lat="47.90896" lon="-4.24203">
        <ele>57.9</ele>
        <time>2022-05-28T09:59:19Z</time>
      </trkpt>
      <trkpt lat="47.90917" lon="-4.24215">
        <ele>58</ele>
        <time>2022-05-28T09:59:21Z</time>
      </trkpt>
      <trkpt lat="47.90929" lon="-4.24226">
        <ele>58.1</ele>
        <time>2022-05-28T09:59:23Z</time>
      </trkpt>
      <trkpt lat="47.90938" lon="-4.24232">
        <ele>58.3</ele>
        <time>2022-05-28T09:59:25Z</time>
      </trkpt>
      <trkpt lat="47.90947" lon="-4.24238">
        <ele>59.2</ele>
        <time>2022-05-28T09:59:27Z</time>
      </trkpt>
      <trkpt lat="47.90957" lon="-4.24246">
        <ele>60.5</ele>
        <time>2022-05-28T09:59:30Z</time>
      </trkpt>
      <trkpt lat="47.9096" lon="-4.24246">
        <ele>60.9</ele>
        <time>2022-05-28T09:59:31Z</time>
      </trkpt>
      <trkpt lat="47.90991" lon="-4.24243">
        <ele>63.3</ele>
        <time>2022-05-28T09:59:40Z</time>
      </trkpt>
      <trkpt lat="47.90999" lon="-4.24234">
        <ele>64.1</ele>
        <time>2022-05-28T09:59:43Z</time>
      </trkpt>
      <trkpt lat="47.91011" lon="-4.24222">
        <ele>65</ele>
        <time>2022-05-28T09:59:47Z</time>
      </trkpt>
      <trkpt lat="47.91015" lon="-4.24216">
        <ele>65.4</ele>
        <time>2022-05-28T09:59:49Z</time>
      </trkpt>
      <trkpt lat="47.91023" lon="-4.24202">
        <ele>66.3</ele>
        <time>2022-05-28T09:59:53Z</time>
      </trkpt>
      <trkpt lat="47.91025" lon="-4.24155">
        <ele>68.9</ele>
        <time>2022-05-28T10:00:05Z</time>
      </trkpt>
      <trkpt lat="47.91026" lon="-4.24151">
        <ele>69.1</ele>
        <time>2022-05-28T10:00:06Z</time>
      </trkpt>
      <trkpt lat="47.91026" lon="-4.24148">
        <ele>69.3</ele>
        <time>2022-05-28T10:00:07Z</time>
      </trkpt>
      <trkpt lat="47.91026" lon="-4.2409">
        <ele>72.7</ele>
        <time>2022-05-28T10:00:25Z</time>
      </trkpt>
      <trkpt lat="47.91026" lon="-4.24083">
        <ele>73.1</ele>
        <time>2022-05-28T10:00:27Z</time>
      </trkpt>
      <trkpt lat="47.91023" lon="-4.24027">
        <ele>76.2</ele>
        <time>2022-05-28T10:00:43Z</time>
      </trkpt>
      <trkpt lat="47.91022" lon="-4.24013">
        <ele>77</ele>
        <time>2022-05-28T10:00:47Z</time>
      </trkpt>
      <trkpt lat="47.91019" lon="-4.23962">
        <ele>79.6</ele>
        <time>2022-05-28T10:01:00Z</time>
      </trkpt>
      <trkpt lat="47.91019" lon="-4.23954">
        <ele>79.8</ele>
        <time>2022-05-28T10:01:02Z</time>
      </trkpt>
      <trkpt lat="47.91033" lon="-4.23888">
        <ele>81.1</ele>
        <time>2022-05-28T10:01:17Z</time>
      </trkpt>
      <trkpt lat="47.91051" lon="-4.23821">
        <ele>81.8</ele>
        <time>2022-05-28T10:01:29Z</time>
      </trkpt>
      <trkpt lat="47.91067" lon="-4.23754">
        <ele>82.4</ele>
        <time>2022-05-28T10:01:40Z</time>
      </trkpt>
      <trkpt lat="47.91075" lon="-4.23725">
        <ele>82.7</ele>
        <time>2022-05-28T10:01:45Z</time>
      </trkpt>
      <trkpt lat="47.91093" lon="-4.23659">
        <ele>83.5</ele>
        <time>2022-05-28T10:01:58Z</time>
      </trkpt>
      <trkpt lat="47.91094" lon="-4.23654">
        <ele>83.5</ele>
        <time>2022-05-28T10:01:59Z</time>
      </trkpt>
      <trkpt lat="47.91099" lon="-4.23622">
        <ele>83.9</ele>
        <time>2022-05-28T10:02:05Z</time>
      </trkpt>
      <trkpt lat="47.91103" lon="-4.236">
        <ele>83.9</ele>
        <time>2022-05-28T10:02:09Z</time>
      </trkpt>
      <trkpt lat="47.91105" lon="-4.23533">
        <ele>83.8</ele>
        <time>2022-05-28T10:02:20Z</time>
      </trkpt>
      <trkpt lat="47.91103" lon="-4.23461">
        <ele>83.8</ele>
        <time>2022-05-28T10:02:31Z</time>
      </trkpt>
      <trkpt lat="47.91102" lon="-4.23387">
        <ele>83.7</ele>
        <time>2022-05-28T10:02:41Z</time>
      </trkpt>
      <trkpt lat="47.91111" lon="-4.23315">
        <ele>83.7</ele>
        <time>2022-05-28T10:02:50Z</time>
      </trkpt>
      <trkpt lat="47.91104" lon="-4.23265">
        <ele>83.6</ele>
        <time>2022-05-28T10:02:56Z</time>
      </trkpt>
      <trkpt lat="47.91085" lon="-4.23238">
        <ele>83.6</ele>
        <time>2022-05-28T10:03:00Z</time>
      </trkpt>
      <trkpt lat="47.9106" lon="-4.23224">
        <ele>83.5</ele>
        <time>2022-05-28T10:03:04Z</time>
      </trkpt>
      <trkpt lat="47.91041" lon="-4.23213">
        <ele>83</ele>
        <time>2022-05-28T10:03:07Z</time>
      </trkpt>
      <trkpt lat="47.90993" lon="-4.23188">
        <ele>81.6</ele>
        <time>2022-05-28T10:03:14Z</time>
      </trkpt>
      <trkpt lat="47.90949" lon="-4.23166">
        <ele>80.5</ele>
        <time>2022-05-28T10:03:20Z</time>
      </trkpt>
      <trkpt lat="47.90942" lon="-4.23163">
        <ele>80.3</ele>
        <time>2022-05-28T10:03:21Z</time>
      </trkpt>
      <trkpt lat="47.90903" lon="-4.2315">
        <ele>79.3</ele>
        <time>2022-05-28T10:03:26Z</time>
      </trkpt>
      <trkpt lat="47.90857" lon="-4.23137">
        <ele>78.1</ele>
        <time>2022-05-28T10:03:32Z</time>
      </trkpt>
      <trkpt lat="47.90814" lon="-4.23113">
        <ele>76.9</ele>
        <time>2022-05-28T10:03:38Z</time>
      </trkpt>
      <trkpt lat="47.90807" lon="-4.23109">
        <ele>76.8</ele>
        <time>2022-05-28T10:03:39Z</time>
      </trkpt>
      <trkpt lat="47.90771" lon="-4.23086">
        <ele>76.1</ele>
        <time>2022-05-28T10:03:44Z</time>
      </trkpt>
      <trkpt lat="47.90745" lon="-4.23068">
        <ele>75.5</ele>
        <time>2022-05-28T10:03:48Z</time>
      </trkpt>
      <trkpt lat="47.90695" lon="-4.23044">
        <ele>74.5</ele>
        <time>2022-05-28T10:03:56Z</time>
      </trkpt>
      <trkpt lat="47.90688" lon="-4.23042">
        <ele>74.3</ele>
        <time>2022-05-28T10:03:57Z</time>
      </trkpt>
      <trkpt lat="47.90645" lon="-4.23031">
        <ele>73.3</ele>
        <time>2022-05-28T10:04:03Z</time>
      </trkpt>
      <trkpt lat="47.90605" lon="-4.2303">
        <ele>73.1</ele>
        <time>2022-05-28T10:04:09Z</time>
      </trkpt>
      <trkpt lat="47.90598" lon="-4.2303">
        <ele>73</ele>
        <time>2022-05-28T10:04:10Z</time>
      </trkpt>
      <trkpt lat="47.9057" lon="-4.23035">
        <ele>72.8</ele>
        <time>2022-05-28T10:04:14Z</time>
      </trkpt>
      <trkpt lat="47.90524" lon="-4.23069">
        <ele>72.3</ele>
        <time>2022-05-28T10:04:21Z</time>
      </trkpt>
      <trkpt lat="47.9048" lon="-4.231">
        <ele>71.9</ele>
        <time>2022-05-28T10:04:28Z</time>
      </trkpt>
      <trkpt lat="47.90433" lon="-4.23128">
        <ele>71.4</ele>
        <time>2022-05-28T10:04:35Z</time>
      </trkpt>
      <trkpt lat="47.90388" lon="-4.23152">
        <ele>70.9</ele>
        <time>2022-05-28T10:04:42Z</time>
      </trkpt>
      <trkpt lat="47.90341" lon="-4.23176">
        <ele>70.5</ele>
        <time>2022-05-28T10:04:49Z</time>
      </trkpt>
      <trkpt lat="47.90294" lon="-4.23197">
        <ele>70</ele>
        <time>2022-05-28T10:04:56Z</time>
      </trkpt>
      <trkpt lat="47.90288" lon="-4.23201">
        <ele>70</ele>
        <time>2022-05-28T10:04:57Z</time>
      </trkpt>
      <trkpt lat="47.90249" lon="-4.23226">
        <ele>69.7</ele>
        <time>2022-05-28T10:05:03Z</time>
      </trkpt>
      <trkpt lat="47.90204" lon="-4.23258">
        <ele>69.3</ele>
        <time>2022-05-28T10:05:10Z</time>
      </trkpt>
      <trkpt lat="47.90156" lon="-4.23262">
        <ele>69</ele>
        <time>2022-05-28T10:05:17Z</time>
      </trkpt>
      <trkpt lat="47.90112" lon="-4.23243">
        <ele>68.6</ele>
        <time>2022-05-28T10:05:24Z</time>
      </trkpt>
      <trkpt lat="47.90063" lon="-4.23214">
        <ele>68.3</ele>
        <time>2022-05-28T10:05:31Z</time>
      </trkpt>
      <trkpt lat="47.90036" lon="-4.232">
        <ele>68.1</ele>
        <time>2022-05-28T10:05:35Z</time>
      </trkpt>
      <trkpt lat="47.90016" lon="-4.23189">
        <ele>68.1</ele>
        <time>2022-05-28T10:05:38Z</time>
      </trkpt>
      <trkpt lat="47.89998" lon="-4.23179">
        <ele>68.1</ele>
        <time>2022-05-28T10:05:41Z</time>
      </trkpt>
      <trkpt lat="47.89992" lon="-4.23176">
        <ele>68.2</ele>
        <time>2022-05-28T10:05:42Z</time>
      </trkpt>
      <trkpt lat="47.89948" lon="-4.23153">
        <ele>68.7</ele>
        <time>2022-05-28T10:05:50Z</time>
      </trkpt>
      <trkpt lat="47.89902" lon="-4.23128">
        <ele>69.4</ele>
        <time>2022-05-28T10:06:00Z</time>
      </trkpt>
      <trkpt lat="47.89855" lon="-4.23104">
        <ele>70.1</ele>
        <time>2022-05-28T10:06:09Z</time>
      </trkpt>
      <trkpt lat="47.8981" lon="-4.23078">
        <ele>70.6</ele>
        <time>2022-05-28T10:06:17Z</time>
      </trkpt>
      <trkpt lat="47.89777" lon="-4.23058">
        <ele>71.1</ele>
        <time>2022-05-28T10:06:23Z</time>
      </trkpt>
      <trkpt lat="47.89744" lon="-4.23036">
        <ele>71.5</ele>
        <time>2022-05-28T10:06:29Z</time>
      </trkpt>
      <trkpt lat="47.89734" lon="-4.23028">
        <ele>71.8</ele>
        <time>2022-05-28T10:06:31Z</time>
      </trkpt>
      <trkpt lat="47.89693" lon="-4.22993">
        <ele>73.6</ele>
        <time>2022-05-28T10:06:41Z</time>
      </trkpt>
      <trkpt lat="47.89667" lon="-4.22972">
        <ele>74.5</ele>
        <time>2022-05-28T10:06:47Z</time>
      </trkpt>
      <trkpt lat="47.8965" lon="-4.22958">
        <ele>74.2</ele>
        <time>2022-05-28T10:06:51Z</time>
      </trkpt>
      <trkpt lat="47.89605" lon="-4.22924">
        <ele>73.6</ele>
        <time>2022-05-28T10:07:00Z</time>
      </trkpt>
      <trkpt lat="47.8959" lon="-4.22912">
        <ele>73.4</ele>
        <time>2022-05-28T10:07:03Z</time>
      </trkpt>
      <trkpt lat="47.89545" lon="-4.22881">
        <ele>72.8</ele>
        <time>2022-05-28T10:07:11Z</time>
      </trkpt>
      <trkpt lat="47.895" lon="-4.22854">
        <ele>72.3</ele>
        <time>2022-05-28T10:07:18Z</time>
      </trkpt>
      <trkpt lat="47.89467" lon="-4.22837">
        <ele>71.9</ele>
        <time>2022-05-28T10:07:23Z</time>
      </trkpt>
      <trkpt lat="47.89454" lon="-4.2283">
        <ele>71.7</ele>
        <time>2022-05-28T10:07:25Z</time>
      </trkpt>
      <trkpt lat="47.89406" lon="-4.22804">
        <ele>71</ele>
        <time>2022-05-28T10:07:32Z</time>
      </trkpt>
      <trkpt lat="47.89383" lon="-4.22792">
        <ele>70.8</ele>
        <time>2022-05-28T10:07:35Z</time>
      </trkpt>
      <trkpt lat="47.89362" lon="-4.2278">
        <ele>70.7</ele>
        <time>2022-05-28T10:07:38Z</time>
      </trkpt>
      <trkpt lat="47.89342" lon="-4.22765">
        <ele>70.5</ele>
        <time>2022-05-28T10:07:41Z</time>
      </trkpt>
      <trkpt lat="47.89298" lon="-4.22738">
        <ele>70.3</ele>
        <time>2022-05-28T10:07:48Z</time>
      </trkpt>
      <trkpt lat="47.89253" lon="-4.22707">
        <ele>69.9</ele>
        <time>2022-05-28T10:07:56Z</time>
      </trkpt>
      <trkpt lat="47.89223" lon="-4.22699">
        <ele>69.7</ele>
        <time>2022-05-28T10:08:01Z</time>
      </trkpt>
      <trkpt lat="47.89204" lon="-4.22702">
        <ele>69.6</ele>
        <time>2022-05-28T10:08:04Z</time>
      </trkpt>
      <trkpt lat="47.89159" lon="-4.22732">
        <ele>69.3</ele>
        <time>2022-05-28T10:08:12Z</time>
      </trkpt>
      <trkpt lat="47.89115" lon="-4.22755">
        <ele>69</ele>
        <time>2022-05-28T10:08:19Z</time>
      </trkpt>
      <trkpt lat="47.89067" lon="-4.22762">
        <ele>68.7</ele>
        <time>2022-05-28T10:08:26Z</time>
      </trkpt>
      <trkpt lat="47.89045" lon="-4.22761">
        <ele>68.5</ele>
        <time>2022-05-28T10:08:29Z</time>
      </trkpt>
      <trkpt lat="47.89015" lon="-4.22759">
        <ele>67.4</ele>
        <time>2022-05-28T10:08:33Z</time>
      </trkpt>
      <trkpt lat="47.89007" lon="-4.22758">
        <ele>67.2</ele>
        <time>2022-05-28T10:08:34Z</time>
      </trkpt>
      <trkpt lat="47.88998" lon="-4.22761">
        <ele>66.9</ele>
        <time>2022-05-28T10:08:35Z</time>
      </trkpt>
      <trkpt lat="47.88989" lon="-4.22764">
        <ele>66.8</ele>
        <time>2022-05-28T10:08:36Z</time>
      </trkpt>
      <trkpt lat="47.88982" lon="-4.22771">
        <ele>66.6</ele>
        <time>2022-05-28T10:08:37Z</time>
      </trkpt>
      <trkpt lat="47.88957" lon="-4.22823">
        <ele>65.8</ele>
        <time>2022-05-28T10:08:42Z</time>
      </trkpt>
      <trkpt lat="47.8894" lon="-4.22867">
        <ele>65</ele>
        <time>2022-05-28T10:08:47Z</time>
      </trkpt>
      <trkpt lat="47.88933" lon="-4.22884">
        <ele>65</ele>
        <time>2022-05-28T10:08:49Z</time>
      </trkpt>
      <trkpt lat="47.88921" lon="-4.22916">
        <ele>65.1</ele>
        <time>2022-05-28T10:08:53Z</time>
      </trkpt>
      <trkpt lat="47.88908" lon="-4.22947">
        <ele>65</ele>
        <time>2022-05-28T10:08:57Z</time>
      </trkpt>
      <trkpt lat="47.88887" lon="-4.22993">
        <ele>64.8</ele>
        <time>2022-05-28T10:09:03Z</time>
      </trkpt>
      <trkpt lat="47.88877" lon="-4.23007">
        <ele>64.7</ele>
        <time>2022-05-28T10:09:05Z</time>
      </trkpt>
      <trkpt lat="47.88873" lon="-4.23014">
        <ele>64.7</ele>
        <time>2022-05-28T10:09:06Z</time>
      </trkpt>
      <trkpt lat="47.88858" lon="-4.23021">
        <ele>64.6</ele>
        <time>2022-05-28T10:09:08Z</time>
      </trkpt>
      <trkpt lat="47.8881" lon="-4.23023">
        <ele>64.4</ele>
        <time>2022-05-28T10:09:15Z</time>
      </trkpt>
      <trkpt lat="47.88764" lon="-4.2303">
        <ele>64.1</ele>
        <time>2022-05-28T10:09:23Z</time>
      </trkpt>
      <trkpt lat="47.88714" lon="-4.23041">
        <ele>63.9</ele>
        <time>2022-05-28T10:09:30Z</time>
      </trkpt>
      <trkpt lat="47.88667" lon="-4.23052">
        <ele>63.7</ele>
        <time>2022-05-28T10:09:36Z</time>
      </trkpt>
      <trkpt lat="47.88652" lon="-4.23055">
        <ele>63.6</ele>
        <time>2022-05-28T10:09:38Z</time>
      </trkpt>
      <trkpt lat="47.88623" lon="-4.23062">
        <ele>63.2</ele>
        <time>2022-05-28T10:09:42Z</time>
      </trkpt>
      <trkpt lat="47.88575" lon="-4.2307">
        <ele>62.6</ele>
        <time>2022-05-28T10:09:49Z</time>
      </trkpt>
      <trkpt lat="47.88569" lon="-4.23071">
        <ele>62.5</ele>
        <time>2022-05-28T10:09:50Z</time>
      </trkpt>
      <trkpt lat="47.88544" lon="-4.23073">
        <ele>61.5</ele>
        <time>2022-05-28T10:09:54Z</time>
      </trkpt>
      <trkpt lat="47.88533" lon="-4.23062">
        <ele>61.1</ele>
        <time>2022-05-28T10:09:56Z</time>
      </trkpt>
      <trkpt lat="47.88526" lon="-4.23042">
        <ele>60.6</ele>
        <time>2022-05-28T10:09:58Z</time>
      </trkpt>
      <trkpt lat="47.88523" lon="-4.22998">
        <ele>59.6</ele>
        <time>2022-05-28T10:10:02Z</time>
      </trkpt>
      <trkpt lat="47.88519" lon="-4.22965">
        <ele>58.3</ele>
        <time>2022-05-28T10:10:05Z</time>
      </trkpt>
      <trkpt lat="47.88504" lon="-4.22935">
        <ele>57.1</ele>
        <time>2022-05-28T10:10:08Z</time>
      </trkpt>
      <trkpt lat="47.88488" lon="-4.22924">
        <ele>56.7</ele>
        <time>2022-05-28T10:10:10Z</time>
      </trkpt>
      <trkpt lat="47.88439" lon="-4.22916">
        <ele>55.4</ele>
        <time>2022-05-28T10:10:16Z</time>
      </trkpt>
      <trkpt lat="47.88424" lon="-4.22917">
        <ele>55</ele>
        <time>2022-05-28T10:10:18Z</time>
      </trkpt>
      <trkpt lat="47.8841" lon="-4.22922">
        <ele>54.6</ele>
        <time>2022-05-28T10:10:20Z</time>
      </trkpt>
      <trkpt lat="47.88376" lon="-4.22935">
        <ele>55</ele>
        <time>2022-05-28T10:10:25Z</time>
      </trkpt>
      <trkpt lat="47.8837" lon="-4.22936">
        <ele>55</ele>
        <time>2022-05-28T10:10:26Z</time>
      </trkpt>
      <trkpt lat="47.88336" lon="-4.22948">
        <ele>54.6</ele>
        <time>2022-05-28T10:10:32Z</time>
      </trkpt>
      <trkpt lat="47.88291" lon="-4.22977">
        <ele>54.1</ele>
        <time>2022-05-28T10:10:40Z</time>
      </trkpt>
      <trkpt lat="47.88247" lon="-4.23011">
        <ele>53.5</ele>
        <time>2022-05-28T10:10:48Z</time>
      </trkpt>
      <trkpt lat="47.88233" lon="-4.23013">
        <ele>53.4</ele>
        <time>2022-05-28T10:10:50Z</time>
      </trkpt>
      <trkpt lat="47.88208" lon="-4.23">
        <ele>53.1</ele>
        <time>2022-05-28T10:10:54Z</time>
      </trkpt>
      <trkpt lat="47.88175" lon="-4.22952">
        <ele>52.7</ele>
        <time>2022-05-28T10:11:00Z</time>
      </trkpt>
      <trkpt lat="47.88165" lon="-4.22932">
        <ele>52.4</ele>
        <time>2022-05-28T10:11:02Z</time>
      </trkpt>
      <trkpt lat="47.88146" lon="-4.22891">
        <ele>50.2</ele>
        <time>2022-05-28T10:11:06Z</time>
      </trkpt>
      <trkpt lat="47.88136" lon="-4.22868">
        <ele>49.1</ele>
        <time>2022-05-28T10:11:08Z</time>
      </trkpt>
      <trkpt lat="47.88121" lon="-4.22833">
        <ele>48.3</ele>
        <time>2022-05-28T10:11:11Z</time>
      </trkpt>
      <trkpt lat="47.88096" lon="-4.22776">
        <ele>46.8</ele>
        <time>2022-05-28T10:11:16Z</time>
      </trkpt>
      <trkpt lat="47.88085" lon="-4.22728">
        <ele>45.8</ele>
        <time>2022-05-28T10:11:20Z</time>
      </trkpt>
      <trkpt lat="47.88084" lon="-4.22673">
        <ele>45.8</ele>
        <time>2022-05-28T10:11:24Z</time>
      </trkpt>
      <trkpt lat="47.88083" lon="-4.22662">
        <ele>45.8</ele>
        <time>2022-05-28T10:11:25Z</time>
      </trkpt>
      <trkpt lat="47.88081" lon="-4.22653">
        <ele>46</ele>
        <time>2022-05-28T10:11:26Z</time>
      </trkpt>
      <trkpt lat="47.88062" lon="-4.22612">
        <ele>46.9</ele>
        <time>2022-05-28T10:11:32Z</time>
      </trkpt>
      <trkpt lat="47.8806" lon="-4.22606">
        <ele>47</ele>
        <time>2022-05-28T10:11:33Z</time>
      </trkpt>
      <trkpt lat="47.88055" lon="-4.22597">
        <ele>47.4</ele>
        <time>2022-05-28T10:11:35Z</time>
      </trkpt>
      <trkpt lat="47.8803" lon="-4.22555">
        <ele>49.2</ele>
        <time>2022-05-28T10:11:44Z</time>
      </trkpt>
      <trkpt lat="47.88014" lon="-4.22538">
        <ele>50.2</ele>
        <time>2022-05-28T10:11:49Z</time>
      </trkpt>
      <trkpt lat="47.8801" lon="-4.2253">
        <ele>50.6</ele>
        <time>2022-05-28T10:11:51Z</time>
      </trkpt>
      <trkpt lat="47.88005" lon="-4.22527">
        <ele>51</ele>
        <time>2022-05-28T10:11:53Z</time>
      </trkpt>
      <trkpt lat="47.87994" lon="-4.22519">
        <ele>52</ele>
        <time>2022-05-28T10:11:57Z</time>
      </trkpt>
      <trkpt lat="47.87991" lon="-4.22515">
        <ele>52.2</ele>
        <time>2022-05-28T10:11:58Z</time>
      </trkpt>
      <trkpt lat="47.87972" lon="-4.22506">
        <ele>53.9</ele>
        <time>2022-05-28T10:12:05Z</time>
      </trkpt>
      <trkpt lat="47.87957" lon="-4.22498">
        <ele>55.2</ele>
        <time>2022-05-28T10:12:11Z</time>
      </trkpt>
      <trkpt lat="47.87946" lon="-4.22492">
        <ele>56</ele>
        <time>2022-05-28T10:12:15Z</time>
      </trkpt>
      <trkpt lat="47.87909" lon="-4.2248">
        <ele>58.9</ele>
        <time>2022-05-28T10:12:29Z</time>
      </trkpt>
      <trkpt lat="47.87901" lon="-4.22477">
        <ele>59.5</ele>
        <time>2022-05-28T10:12:32Z</time>
      </trkpt>
      <trkpt lat="47.87861" lon="-4.2247">
        <ele>62.4</ele>
        <time>2022-05-28T10:12:47Z</time>
      </trkpt>
      <trkpt lat="47.87855" lon="-4.22469">
        <ele>62.6</ele>
        <time>2022-05-28T10:12:49Z</time>
      </trkpt>
      <trkpt lat="47.87826" lon="-4.22463">
        <ele>63.5</ele>
        <time>2022-05-28T10:12:57Z</time>
      </trkpt>
      <trkpt lat="47.87818" lon="-4.22462">
        <ele>63.7</ele>
        <time>2022-05-28T10:12:59Z</time>
      </trkpt>
      <trkpt lat="47.87807" lon="-4.2246">
        <ele>63.7</ele>
        <time>2022-05-28T10:13:02Z</time>
      </trkpt>
      <trkpt lat="47.87761" lon="-4.2245">
        <ele>63.5</ele>
        <time>2022-05-28T10:13:13Z</time>
      </trkpt>
      <trkpt lat="47.87714" lon="-4.22435">
        <ele>63.2</ele>
        <time>2022-05-28T10:13:24Z</time>
      </trkpt>
      <trkpt lat="47.87665" lon="-4.22424">
        <ele>63.1</ele>
        <time>2022-05-28T10:13:34Z</time>
      </trkpt>
      <trkpt lat="47.87645" lon="-4.22407">
        <ele>63</ele>
        <time>2022-05-28T10:13:38Z</time>
      </trkpt>
      <trkpt lat="47.8764" lon="-4.22401">
        <ele>63</ele>
        <time>2022-05-28T10:13:39Z</time>
      </trkpt>
      <trkpt lat="47.87635" lon="-4.22396">
        <ele>62.9</ele>
        <time>2022-05-28T10:13:40Z</time>
      </trkpt>
      <trkpt lat="47.87631" lon="-4.22387">
        <ele>62.9</ele>
        <time>2022-05-28T10:13:41Z</time>
      </trkpt>
      <trkpt lat="47.87627" lon="-4.22378">
        <ele>62.7</ele>
        <time>2022-05-28T10:13:42Z</time>
      </trkpt>
      <trkpt lat="47.87614" lon="-4.22305">
        <ele>61.3</ele>
        <time>2022-05-28T10:13:49Z</time>
      </trkpt>
      <trkpt lat="47.87606" lon="-4.22233">
        <ele>60</ele>
        <time>2022-05-28T10:13:56Z</time>
      </trkpt>
      <trkpt lat="47.87602" lon="-4.22165">
        <ele>58.9</ele>
        <time>2022-05-28T10:14:02Z</time>
      </trkpt>
      <trkpt lat="47.876" lon="-4.22143">
        <ele>58.5</ele>
        <time>2022-05-28T10:14:04Z</time>
      </trkpt>
      <trkpt lat="47.87596" lon="-4.22099">
        <ele>57.4</ele>
        <time>2022-05-28T10:14:08Z</time>
      </trkpt>
      <trkpt lat="47.87592" lon="-4.22078">
        <ele>56.9</ele>
        <time>2022-05-28T10:14:10Z</time>
      </trkpt>
      <trkpt lat="47.87589" lon="-4.22068">
        <ele>56.7</ele>
        <time>2022-05-28T10:14:11Z</time>
      </trkpt>
      <trkpt lat="47.87579" lon="-4.22054">
        <ele>56.2</ele>
        <time>2022-05-28T10:14:13Z</time>
      </trkpt>
      <trkpt lat="47.87559" lon="-4.22048">
        <ele>55.5</ele>
        <time>2022-05-28T10:14:16Z</time>
      </trkpt>
      <trkpt lat="47.87533" lon="-4.22041">
        <ele>55.3</ele>
        <time>2022-05-28T10:14:20Z</time>
      </trkpt>
      <trkpt lat="47.87504" lon="-4.22032">
        <ele>55</ele>
        <time>2022-05-28T10:14:25Z</time>
      </trkpt>
      <trkpt lat="47.87494" lon="-4.22025">
        <ele>54.9</ele>
        <time>2022-05-28T10:14:27Z</time>
      </trkpt>
      <trkpt lat="47.87489" lon="-4.22022">
        <ele>54.8</ele>
        <time>2022-05-28T10:14:28Z</time>
      </trkpt>
      <trkpt lat="47.87479" lon="-4.22015">
        <ele>54.6</ele>
        <time>2022-05-28T10:14:30Z</time>
      </trkpt>
      <trkpt lat="47.87431" lon="-4.22008">
        <ele>53.7</ele>
        <time>2022-05-28T10:14:38Z</time>
      </trkpt>
      <trkpt lat="47.8738" lon="-4.22001">
        <ele>52.9</ele>
        <time>2022-05-28T10:14:45Z</time>
      </trkpt>
      <trkpt lat="47.87373" lon="-4.21999">
        <ele>52.7</ele>
        <time>2022-05-28T10:14:46Z</time>
      </trkpt>
      <trkpt lat="47.87329" lon="-4.21992">
        <ele>51.9</ele>
        <time>2022-05-28T10:14:52Z</time>
      </trkpt>
      <trkpt lat="47.87303" lon="-4.21993">
        <ele>50.4</ele>
        <time>2022-05-28T10:14:56Z</time>
      </trkpt>
      <trkpt lat="47.87296" lon="-4.21984">
        <ele>50.1</ele>
        <time>2022-05-28T10:14:57Z</time>
      </trkpt>
      <trkpt lat="47.87288" lon="-4.21983">
        <ele>49.7</ele>
        <time>2022-05-28T10:14:58Z</time>
      </trkpt>
      <trkpt lat="47.87249" lon="-4.2198">
        <ele>48.2</ele>
        <time>2022-05-28T10:15:03Z</time>
      </trkpt>
      <trkpt lat="47.87241" lon="-4.21979">
        <ele>47.9</ele>
        <time>2022-05-28T10:15:04Z</time>
      </trkpt>
      <trkpt lat="47.87227" lon="-4.2198">
        <ele>47.6</ele>
        <time>2022-05-28T10:15:06Z</time>
      </trkpt>
      <trkpt lat="47.87219" lon="-4.21977">
        <ele>47.2</ele>
        <time>2022-05-28T10:15:08Z</time>
      </trkpt>
      <trkpt lat="47.87217" lon="-4.21947">
        <ele>46.9</ele>
        <time>2022-05-28T10:15:10Z</time>
      </trkpt>
      <trkpt lat="47.87218" lon="-4.21929">
        <ele>47.1</ele>
        <time>2022-05-28T10:15:12Z</time>
      </trkpt>
      <trkpt lat="47.87217" lon="-4.2192">
        <ele>47.1</ele>
        <time>2022-05-28T10:15:13Z</time>
      </trkpt>
      <trkpt lat="47.8722" lon="-4.21894">
        <ele>47.3</ele>
        <time>2022-05-28T10:15:16Z</time>
      </trkpt>
      <trkpt lat="47.87225" lon="-4.21851">
        <ele>47</ele>
        <time>2022-05-28T10:15:21Z</time>
      </trkpt>
      <trkpt lat="47.8723" lon="-4.21808">
        <ele>46.7</ele>
        <time>2022-05-28T10:15:26Z</time>
      </trkpt>
      <trkpt lat="47.87226" lon="-4.21733">
        <ele>46.1</ele>
        <time>2022-05-28T10:15:35Z</time>
      </trkpt>
      <trkpt lat="47.87217" lon="-4.21693">
        <ele>45.8</ele>
        <time>2022-05-28T10:15:40Z</time>
      </trkpt>
      <trkpt lat="47.87198" lon="-4.2166">
        <ele>45.5</ele>
        <time>2022-05-28T10:15:45Z</time>
      </trkpt>
      <trkpt lat="47.87179" lon="-4.21635">
        <ele>45.3</ele>
        <time>2022-05-28T10:15:49Z</time>
      </trkpt>
      <trkpt lat="47.87152" lon="-4.21576">
        <ele>44.8</ele>
        <time>2022-05-28T10:15:56Z</time>
      </trkpt>
      <trkpt lat="47.87126" lon="-4.21523">
        <ele>44.4</ele>
        <time>2022-05-28T10:16:03Z</time>
      </trkpt>
      <trkpt lat="47.87118" lon="-4.21503">
        <ele>44.2</ele>
        <time>2022-05-28T10:16:06Z</time>
      </trkpt>
      <trkpt lat="47.87113" lon="-4.21501">
        <ele>44.1</ele>
        <time>2022-05-28T10:16:07Z</time>
      </trkpt>
      <trkpt lat="47.87111" lon="-4.21494">
        <ele>44.1</ele>
        <time>2022-05-28T10:16:08Z</time>
      </trkpt>
      <trkpt lat="47.87115" lon="-4.21473">
        <ele>44</ele>
        <time>2022-05-28T10:16:10Z</time>
      </trkpt>
      <trkpt lat="47.87121" lon="-4.21457">
        <ele>43.8</ele>
        <time>2022-05-28T10:16:12Z</time>
      </trkpt>
      <trkpt lat="47.87122" lon="-4.21448">
        <ele>43.8</ele>
        <time>2022-05-28T10:16:13Z</time>
      </trkpt>
      <trkpt lat="47.87129" lon="-4.2139">
        <ele>43.3</ele>
        <time>2022-05-28T10:16:19Z</time>
      </trkpt>
      <trkpt lat="47.87135" lon="-4.21353">
        <ele>43.4</ele>
        <time>2022-05-28T10:16:23Z</time>
      </trkpt>
      <trkpt lat="47.87138" lon="-4.21343">
        <ele>43.4</ele>
        <time>2022-05-28T10:16:24Z</time>
      </trkpt>
      <trkpt lat="47.87146" lon="-4.21277">
        <ele>43.7</ele>
        <time>2022-05-28T10:16:31Z</time>
      </trkpt>
      <trkpt lat="47.87157" lon="-4.21204">
        <ele>44</ele>
        <time>2022-05-28T10:16:39Z</time>
      </trkpt>
      <trkpt lat="47.87161" lon="-4.21171">
        <ele>44.1</ele>
        <time>2022-05-28T10:16:43Z</time>
      </trkpt>
      <trkpt lat="47.8716" lon="-4.21126">
        <ele>44.4</ele>
        <time>2022-05-28T10:16:49Z</time>
      </trkpt>
      <trkpt lat="47.8716" lon="-4.21104">
        <ele>44.7</ele>
        <time>2022-05-28T10:16:52Z</time>
      </trkpt>
      <trkpt lat="47.87159" lon="-4.21086">
        <ele>44.9</ele>
        <time>2022-05-28T10:16:55Z</time>
      </trkpt>
      <trkpt lat="47.87156" lon="-4.21034">
        <ele>45.3</ele>
        <time>2022-05-28T10:17:04Z</time>
      </trkpt>
      <trkpt lat="47.87151" lon="-4.2096">
        <ele>45.7</ele>
        <time>2022-05-28T10:17:14Z</time>
      </trkpt>
      <trkpt lat="47.8715" lon="-4.20939">
        <ele>45.8</ele>
        <time>2022-05-28T10:17:17Z</time>
      </trkpt>
      <trkpt lat="47.87145" lon="-4.20865">
        <ele>46.1</ele>
        <time>2022-05-28T10:17:25Z</time>
      </trkpt>
      <trkpt lat="47.87149" lon="-4.20791">
        <ele>46.4</ele>
        <time>2022-05-28T10:17:33Z</time>
      </trkpt>
      <trkpt lat="47.87151" lon="-4.20773">
        <ele>46.5</ele>
        <time>2022-05-28T10:17:35Z</time>
      </trkpt>
      <trkpt lat="47.87149" lon="-4.2071">
        <ele>46.7</ele>
        <time>2022-05-28T10:17:42Z</time>
      </trkpt>
      <trkpt lat="47.87149" lon="-4.2065">
        <ele>47</ele>
        <time>2022-05-28T10:17:49Z</time>
      </trkpt>
      <trkpt lat="47.87152" lon="-4.20581">
        <ele>47.3</ele>
        <time>2022-05-28T10:17:57Z</time>
      </trkpt>
      <trkpt lat="47.87156" lon="-4.20537">
        <ele>47.5</ele>
        <time>2022-05-28T10:18:02Z</time>
      </trkpt>
      <trkpt lat="47.87153" lon="-4.20464">
        <ele>47.8</ele>
        <time>2022-05-28T10:18:10Z</time>
      </trkpt>
      <trkpt lat="47.8714" lon="-4.20396">
        <ele>48.2</ele>
        <time>2022-05-28T10:18:18Z</time>
      </trkpt>
      <trkpt lat="47.87136" lon="-4.2038">
        <ele>48.2</ele>
        <time>2022-05-28T10:18:20Z</time>
      </trkpt>
      <trkpt lat="47.87122" lon="-4.2033">
        <ele>48.3</ele>
        <time>2022-05-28T10:18:26Z</time>
      </trkpt>
      <trkpt lat="47.87106" lon="-4.20259">
        <ele>48.3</ele>
        <time>2022-05-28T10:18:34Z</time>
      </trkpt>
      <trkpt lat="47.87092" lon="-4.20188">
        <ele>48.4</ele>
        <time>2022-05-28T10:18:41Z</time>
      </trkpt>
      <trkpt lat="47.87078" lon="-4.20117">
        <ele>48.5</ele>
        <time>2022-05-28T10:18:48Z</time>
      </trkpt>
      <trkpt lat="47.8706" lon="-4.20067">
        <ele>48.5</ele>
        <time>2022-05-28T10:18:54Z</time>
      </trkpt>
      <trkpt lat="47.87036" lon="-4.20036">
        <ele>48.5</ele>
        <time>2022-05-28T10:18:59Z</time>
      </trkpt>
      <trkpt lat="47.86993" lon="-4.20005">
        <ele>48.6</ele>
        <time>2022-05-28T10:19:08Z</time>
      </trkpt>
      <trkpt lat="47.86958" lon="-4.19976">
        <ele>49.1</ele>
        <time>2022-05-28T10:19:15Z</time>
      </trkpt>
      <trkpt lat="47.86931" lon="-4.19953">
        <ele>49.4</ele>
        <time>2022-05-28T10:19:20Z</time>
      </trkpt>
      <trkpt lat="47.86921" lon="-4.19942">
        <ele>49.3</ele>
        <time>2022-05-28T10:19:22Z</time>
      </trkpt>
      <trkpt lat="47.8689" lon="-4.19884">
        <ele>48.9</ele>
        <time>2022-05-28T10:19:30Z</time>
      </trkpt>
      <trkpt lat="47.86864" lon="-4.1983">
        <ele>48.6</ele>
        <time>2022-05-28T10:19:36Z</time>
      </trkpt>
      <trkpt lat="47.86838" lon="-4.19765">
        <ele>48.2</ele>
        <time>2022-05-28T10:19:43Z</time>
      </trkpt>
      <trkpt lat="47.86815" lon="-4.197">
        <ele>47.8</ele>
        <time>2022-05-28T10:19:50Z</time>
      </trkpt>
      <trkpt lat="47.86802" lon="-4.19633">
        <ele>47.4</ele>
        <time>2022-05-28T10:19:57Z</time>
      </trkpt>
      <trkpt lat="47.86787" lon="-4.19563">
        <ele>47.1</ele>
        <time>2022-05-28T10:20:04Z</time>
      </trkpt>
      <trkpt lat="47.86772" lon="-4.19492">
        <ele>46.7</ele>
        <time>2022-05-28T10:20:11Z</time>
      </trkpt>
      <trkpt lat="47.86759" lon="-4.19423">
        <ele>46.3</ele>
        <time>2022-05-28T10:20:18Z</time>
      </trkpt>
      <trkpt lat="47.86755" lon="-4.19402">
        <ele>46.2</ele>
        <time>2022-05-28T10:20:20Z</time>
      </trkpt>
      <trkpt lat="47.86744" lon="-4.19351">
        <ele>45.4</ele>
        <time>2022-05-28T10:20:25Z</time>
      </trkpt>
      <trkpt lat="47.86733" lon="-4.19279">
        <ele>44.4</ele>
        <time>2022-05-28T10:20:32Z</time>
      </trkpt>
      <trkpt lat="47.86714" lon="-4.19218">
        <ele>43.4</ele>
        <time>2022-05-28T10:20:38Z</time>
      </trkpt>
      <trkpt lat="47.8671" lon="-4.19207">
        <ele>43.2</ele>
        <time>2022-05-28T10:20:39Z</time>
      </trkpt>
      <trkpt lat="47.86691" lon="-4.19149">
        <ele>42</ele>
        <time>2022-05-28T10:20:44Z</time>
      </trkpt>
      <trkpt lat="47.86666" lon="-4.19091">
        <ele>41.7</ele>
        <time>2022-05-28T10:20:50Z</time>
      </trkpt>
      <trkpt lat="47.86642" lon="-4.19038">
        <ele>41.8</ele>
        <time>2022-05-28T10:20:56Z</time>
      </trkpt>
      <trkpt lat="47.86639" lon="-4.1903">
        <ele>41.9</ele>
        <time>2022-05-28T10:20:57Z</time>
      </trkpt>
      <trkpt lat="47.86612" lon="-4.18971">
        <ele>42.5</ele>
        <time>2022-05-28T10:21:04Z</time>
      </trkpt>
      <trkpt lat="47.86595" lon="-4.18943">
        <ele>42.8</ele>
        <time>2022-05-28T10:21:08Z</time>
      </trkpt>
      <trkpt lat="47.86557" lon="-4.18928">
        <ele>43.5</ele>
        <time>2022-05-28T10:21:16Z</time>
      </trkpt>
      <trkpt lat="47.86537" lon="-4.18923">
        <ele>43.9</ele>
        <time>2022-05-28T10:21:20Z</time>
      </trkpt>
      <trkpt lat="47.86512" lon="-4.18917">
        <ele>44.6</ele>
        <time>2022-05-28T10:21:25Z</time>
      </trkpt>
      <trkpt lat="47.86469" lon="-4.18898">
        <ele>45.7</ele>
        <time>2022-05-28T10:21:33Z</time>
      </trkpt>
      <trkpt lat="47.86449" lon="-4.18868">
        <ele>46.3</ele>
        <time>2022-05-28T10:21:38Z</time>
      </trkpt>
      <trkpt lat="47.86434" lon="-4.18844">
        <ele>46.4</ele>
        <time>2022-05-28T10:21:42Z</time>
      </trkpt>
      <trkpt lat="47.8641" lon="-4.1878">
        <ele>46.4</ele>
        <time>2022-05-28T10:21:50Z</time>
      </trkpt>
      <trkpt lat="47.86387" lon="-4.18714">
        <ele>46.5</ele>
        <time>2022-05-28T10:21:58Z</time>
      </trkpt>
      <trkpt lat="47.8636" lon="-4.18652">
        <ele>46.6</ele>
        <time>2022-05-28T10:22:06Z</time>
      </trkpt>
      <trkpt lat="47.86335" lon="-4.18595">
        <ele>46.7</ele>
        <time>2022-05-28T10:22:13Z</time>
      </trkpt>
      <trkpt lat="47.86304" lon="-4.18539">
        <ele>46.7</ele>
        <time>2022-05-28T10:22:21Z</time>
      </trkpt>
      <trkpt lat="47.86275" lon="-4.18485">
        <ele>46.8</ele>
        <time>2022-05-28T10:22:29Z</time>
      </trkpt>
      <trkpt lat="47.86248" lon="-4.18426">
        <ele>46.9</ele>
        <time>2022-05-28T10:22:37Z</time>
      </trkpt>
      <trkpt lat="47.86209" lon="-4.1839">
        <ele>47</ele>
        <time>2022-05-28T10:22:46Z</time>
      </trkpt>
      <trkpt lat="47.86174" lon="-4.18369">
        <ele>47.1</ele>
        <time>2022-05-28T10:22:54Z</time>
      </trkpt>
      <trkpt lat="47.86166" lon="-4.18363">
        <ele>47.1</ele>
        <time>2022-05-28T10:22:56Z</time>
      </trkpt>
      <trkpt lat="47.86148" lon="-4.18349">
        <ele>47.1</ele>
        <time>2022-05-28T10:23:00Z</time>
      </trkpt>
      <trkpt lat="47.86125" lon="-4.1833">
        <ele>46.7</ele>
        <time>2022-05-28T10:23:05Z</time>
      </trkpt>
      <trkpt lat="47.86083" lon="-4.18296">
        <ele>45.9</ele>
        <time>2022-05-28T10:23:14Z</time>
      </trkpt>
      <trkpt lat="47.86037" lon="-4.18268">
        <ele>45.2</ele>
        <time>2022-05-28T10:23:23Z</time>
      </trkpt>
      <trkpt lat="47.86031" lon="-4.18265">
        <ele>45.1</ele>
        <time>2022-05-28T10:23:24Z</time>
      </trkpt>
      <trkpt lat="47.85989" lon="-4.18249">
        <ele>44.1</ele>
        <time>2022-05-28T10:23:31Z</time>
      </trkpt>
      <trkpt lat="47.8594" lon="-4.18232">
        <ele>43.1</ele>
        <time>2022-05-28T10:23:38Z</time>
      </trkpt>
      <trkpt lat="47.85909" lon="-4.18219">
        <ele>42.6</ele>
        <time>2022-05-28T10:23:42Z</time>
      </trkpt>
      <trkpt lat="47.85868" lon="-4.18191">
        <ele>43</ele>
        <time>2022-05-28T10:23:48Z</time>
      </trkpt>
      <trkpt lat="47.85823" lon="-4.18167">
        <ele>43.4</ele>
        <time>2022-05-28T10:23:54Z</time>
      </trkpt>
      <trkpt lat="47.85792" lon="-4.18153">
        <ele>43.6</ele>
        <time>2022-05-28T10:23:58Z</time>
      </trkpt>
      <trkpt lat="47.85746" lon="-4.18157">
        <ele>44</ele>
        <time>2022-05-28T10:24:04Z</time>
      </trkpt>
      <trkpt lat="47.85701" lon="-4.18154">
        <ele>44.5</ele>
        <time>2022-05-28T10:24:13Z</time>
      </trkpt>
      <trkpt lat="47.85697" lon="-4.18152">
        <ele>44.6</ele>
        <time>2022-05-28T10:24:14Z</time>
      </trkpt>
      <trkpt lat="47.85694" lon="-4.18148">
        <ele>44.7</ele>
        <time>2022-05-28T10:24:15Z</time>
      </trkpt>
      <trkpt lat="47.85651" lon="-4.18113">
        <ele>45.2</ele>
        <time>2022-05-28T10:24:24Z</time>
      </trkpt>
      <trkpt lat="47.85642" lon="-4.18106">
        <ele>45.3</ele>
        <time>2022-05-28T10:24:26Z</time>
      </trkpt>
      <trkpt lat="47.85611" lon="-4.18081">
        <ele>45.9</ele>
        <time>2022-05-28T10:24:33Z</time>
      </trkpt>
      <trkpt lat="47.8559" lon="-4.1806">
        <ele>46.2</ele>
        <time>2022-05-28T10:24:38Z</time>
      </trkpt>
      <trkpt lat="47.85572" lon="-4.18044">
        <ele>46.2</ele>
        <time>2022-05-28T10:24:42Z</time>
      </trkpt>
      <trkpt lat="47.85529" lon="-4.18009">
        <ele>46.2</ele>
        <time>2022-05-28T10:24:51Z</time>
      </trkpt>
      <trkpt lat="47.85486" lon="-4.17972">
        <ele>46.2</ele>
        <time>2022-05-28T10:25:00Z</time>
      </trkpt>
      <trkpt lat="47.85443" lon="-4.17936">
        <ele>46.2</ele>
        <time>2022-05-28T10:25:09Z</time>
      </trkpt>
      <trkpt lat="47.85392" lon="-4.17897">
        <ele>46.3</ele>
        <time>2022-05-28T10:25:22Z</time>
      </trkpt>
      <trkpt lat="47.85392" lon="-4.17897">
        <ele>46.3</ele>
        <time>2022-05-28T10:26:12Z</time>
      </trkpt>
      <trkpt lat="47.8538" lon="-4.1789">
        <ele>46.3</ele>
        <time>2022-05-28T10:26:12Z</time>
      </trkpt>
      <trkpt lat="47.85416" lon="-4.17916">
        <ele>49.4</ele>
        <time>2022-05-28T10:26:15Z</time>
      </trkpt>
      <trkpt lat="47.85416" lon="-4.17916">
        <ele>49.4</ele>
        <time>2022-05-28T11:53:29Z</time>
      </trkpt>
      <trkpt lat="47.85467" lon="-4.17951">
        <ele>52.5</ele>
        <time>2022-05-28T11:53:39Z</time>
      </trkpt>
      <trkpt lat="47.85507" lon="-4.17983">
        <ele>52.6</ele>
        <time>2022-05-28T11:53:50Z</time>
      </trkpt>
      <trkpt lat="47.8555" lon="-4.18019">
        <ele>52.6</ele>
        <time>2022-05-28T11:54:02Z</time>
      </trkpt>
      <trkpt lat="47.85589" lon="-4.18052">
        <ele>52.6</ele>
        <time>2022-05-28T11:54:12Z</time>
      </trkpt>
      <trkpt lat="47.85629" lon="-4.18085">
        <ele>52.6</ele>
        <time>2022-05-28T11:54:21Z</time>
      </trkpt>
      <trkpt lat="47.85674" lon="-4.18122">
        <ele>52.6</ele>
        <time>2022-05-28T11:54:30Z</time>
      </trkpt>
      <trkpt lat="47.85693" lon="-4.18135">
        <ele>52.6</ele>
        <time>2022-05-28T11:54:33Z</time>
      </trkpt>
      <trkpt lat="47.85718" lon="-4.18151">
        <ele>52.1</ele>
        <time>2022-05-28T11:54:37Z</time>
      </trkpt>
      <trkpt lat="47.85767" lon="-4.18154">
        <ele>51.1</ele>
        <time>2022-05-28T11:54:45Z</time>
      </trkpt>
      <trkpt lat="47.85786" lon="-4.18153">
        <ele>50.8</ele>
        <time>2022-05-28T11:54:48Z</time>
      </trkpt>
      <trkpt lat="47.8581" lon="-4.18153">
        <ele>51</ele>
        <time>2022-05-28T11:54:52Z</time>
      </trkpt>
      <trkpt lat="47.85854" lon="-4.18181">
        <ele>51.3</ele>
        <time>2022-05-28T11:54:59Z</time>
      </trkpt>
      <trkpt lat="47.85899" lon="-4.18204">
        <ele>51.6</ele>
        <time>2022-05-28T11:55:06Z</time>
      </trkpt>
      <trkpt lat="47.85941" lon="-4.18228">
        <ele>51.9</ele>
        <time>2022-05-28T11:55:13Z</time>
      </trkpt>
      <trkpt lat="47.85986" lon="-4.18246">
        <ele>52.3</ele>
        <time>2022-05-28T11:55:21Z</time>
      </trkpt>
      <trkpt lat="47.86034" lon="-4.18261">
        <ele>52.8</ele>
        <time>2022-05-28T11:55:31Z</time>
      </trkpt>
      <trkpt lat="47.86055" lon="-4.18272">
        <ele>53</ele>
        <time>2022-05-28T11:55:36Z</time>
      </trkpt>
      <trkpt lat="47.8608" lon="-4.18286">
        <ele>53.5</ele>
        <time>2022-05-28T11:55:42Z</time>
      </trkpt>
      <trkpt lat="47.86122" lon="-4.18318">
        <ele>53.4</ele>
        <time>2022-05-28T11:55:52Z</time>
      </trkpt>
      <trkpt lat="47.86162" lon="-4.18354">
        <ele>53.3</ele>
        <time>2022-05-28T11:56:01Z</time>
      </trkpt>
      <trkpt lat="47.86208" lon="-4.18382">
        <ele>53.2</ele>
        <time>2022-05-28T11:56:11Z</time>
      </trkpt>
      <trkpt lat="47.86246" lon="-4.18408">
        <ele>53.1</ele>
        <time>2022-05-28T11:56:18Z</time>
      </trkpt>
      <trkpt lat="47.86278" lon="-4.18464">
        <ele>53</ele>
        <time>2022-05-28T11:56:26Z</time>
      </trkpt>
      <trkpt lat="47.86304" lon="-4.18523">
        <ele>53</ele>
        <time>2022-05-28T11:56:34Z</time>
      </trkpt>
      <trkpt lat="47.86336" lon="-4.1858">
        <ele>52.9</ele>
        <time>2022-05-28T11:56:42Z</time>
      </trkpt>
      <trkpt lat="47.86362" lon="-4.18636">
        <ele>52.8</ele>
        <time>2022-05-28T11:56:50Z</time>
      </trkpt>
      <trkpt lat="47.86389" lon="-4.18698">
        <ele>52.7</ele>
        <time>2022-05-28T11:56:59Z</time>
      </trkpt>
      <trkpt lat="47.86411" lon="-4.18757">
        <ele>52.6</ele>
        <time>2022-05-28T11:57:08Z</time>
      </trkpt>
      <trkpt lat="47.86432" lon="-4.18817">
        <ele>52.5</ele>
        <time>2022-05-28T11:57:17Z</time>
      </trkpt>
      <trkpt lat="47.8646" lon="-4.18873">
        <ele>52.4</ele>
        <time>2022-05-28T11:57:26Z</time>
      </trkpt>
      <trkpt lat="47.86493" lon="-4.18905">
        <ele>52.3</ele>
        <time>2022-05-28T11:57:33Z</time>
      </trkpt>
      <trkpt lat="47.86542" lon="-4.18919">
        <ele>52.2</ele>
        <time>2022-05-28T11:57:41Z</time>
      </trkpt>
      <trkpt lat="47.86591" lon="-4.18936">
        <ele>52.1</ele>
        <time>2022-05-28T11:57:48Z</time>
      </trkpt>
      <trkpt lat="47.86606" lon="-4.18948">
        <ele>51.5</ele>
        <time>2022-05-28T11:57:50Z</time>
      </trkpt>
      <trkpt lat="47.86625" lon="-4.18986">
        <ele>50.5</ele>
        <time>2022-05-28T11:57:54Z</time>
      </trkpt>
      <trkpt lat="47.86634" lon="-4.19005">
        <ele>50.5</ele>
        <time>2022-05-28T11:57:56Z</time>
      </trkpt>
      <trkpt lat="47.86642" lon="-4.19022">
        <ele>50.5</ele>
        <time>2022-05-28T11:57:58Z</time>
      </trkpt>
      <trkpt lat="47.86649" lon="-4.1904">
        <ele>50.5</ele>
        <time>2022-05-28T11:58:00Z</time>
      </trkpt>
      <trkpt lat="47.86667" lon="-4.19085">
        <ele>50.8</ele>
        <time>2022-05-28T11:58:05Z</time>
      </trkpt>
      <trkpt lat="47.86692" lon="-4.19143">
        <ele>51.3</ele>
        <time>2022-05-28T11:58:12Z</time>
      </trkpt>
      <trkpt lat="47.86715" lon="-4.19201">
        <ele>51.7</ele>
        <time>2022-05-28T11:58:19Z</time>
      </trkpt>
      <trkpt lat="47.86734" lon="-4.19262">
        <ele>52.1</ele>
        <time>2022-05-28T11:58:27Z</time>
      </trkpt>
      <trkpt lat="47.86737" lon="-4.19275">
        <ele>52.3</ele>
        <time>2022-05-28T11:58:29Z</time>
      </trkpt>
      <trkpt lat="47.86743" lon="-4.19303">
        <ele>52.8</ele>
        <time>2022-05-28T11:58:33Z</time>
      </trkpt>
      <trkpt lat="47.86749" lon="-4.19343">
        <ele>53.5</ele>
        <time>2022-05-28T11:58:39Z</time>
      </trkpt>
      <trkpt lat="47.86753" lon="-4.1937">
        <ele>53.6</ele>
        <time>2022-05-28T11:58:43Z</time>
      </trkpt>
      <trkpt lat="47.86767" lon="-4.19435">
        <ele>54.1</ele>
        <time>2022-05-28T11:58:52Z</time>
      </trkpt>
      <trkpt lat="47.86779" lon="-4.19501">
        <ele>54.5</ele>
        <time>2022-05-28T11:59:01Z</time>
      </trkpt>
      <trkpt lat="47.86792" lon="-4.19569">
        <ele>55</ele>
        <time>2022-05-28T11:59:11Z</time>
      </trkpt>
      <trkpt lat="47.86806" lon="-4.19635">
        <ele>55.5</ele>
        <time>2022-05-28T11:59:21Z</time>
      </trkpt>
      <trkpt lat="47.86817" lon="-4.19683">
        <ele>55.8</ele>
        <time>2022-05-28T11:59:27Z</time>
      </trkpt>
      <trkpt lat="47.86836" lon="-4.19746">
        <ele>56.1</ele>
        <time>2022-05-28T11:59:35Z</time>
      </trkpt>
      <trkpt lat="47.86861" lon="-4.19811">
        <ele>56.6</ele>
        <time>2022-05-28T11:59:44Z</time>
      </trkpt>
      <trkpt lat="47.86876" lon="-4.19848">
        <ele>56.9</ele>
        <time>2022-05-28T11:59:50Z</time>
      </trkpt>
      <trkpt lat="47.86887" lon="-4.19872">
        <ele>56.8</ele>
        <time>2022-05-28T11:59:54Z</time>
      </trkpt>
      <trkpt lat="47.86916" lon="-4.19932">
        <ele>56.6</ele>
        <time>2022-05-28T12:00:03Z</time>
      </trkpt>
      <trkpt lat="47.86924" lon="-4.19942">
        <ele>56.6</ele>
        <time>2022-05-28T12:00:05Z</time>
      </trkpt>
      <trkpt lat="47.86927" lon="-4.19947">
        <ele>56.6</ele>
        <time>2022-05-28T12:00:06Z</time>
      </trkpt>
      <trkpt lat="47.86933" lon="-4.1995">
        <ele>56.6</ele>
        <time>2022-05-28T12:00:07Z</time>
      </trkpt>
      <trkpt lat="47.86977" lon="-4.19984">
        <ele>56.4</ele>
        <time>2022-05-28T12:00:16Z</time>
      </trkpt>
      <trkpt lat="47.87022" lon="-4.20017">
        <ele>56.3</ele>
        <time>2022-05-28T12:00:25Z</time>
      </trkpt>
      <trkpt lat="47.87062" lon="-4.20061">
        <ele>56.1</ele>
        <time>2022-05-28T12:00:32Z</time>
      </trkpt>
      <trkpt lat="47.87075" lon="-4.20087">
        <ele>56.1</ele>
        <time>2022-05-28T12:00:35Z</time>
      </trkpt>
      <trkpt lat="47.8708" lon="-4.20107">
        <ele>56</ele>
        <time>2022-05-28T12:00:37Z</time>
      </trkpt>
      <trkpt lat="47.87091" lon="-4.20157">
        <ele>55.8</ele>
        <time>2022-05-28T12:00:42Z</time>
      </trkpt>
      <trkpt lat="47.87102" lon="-4.20223">
        <ele>55.9</ele>
        <time>2022-05-28T12:00:49Z</time>
      </trkpt>
      <trkpt lat="47.87108" lon="-4.20259">
        <ele>55.9</ele>
        <time>2022-05-28T12:00:53Z</time>
      </trkpt>
      <trkpt lat="47.87115" lon="-4.20283">
        <ele>56</ele>
        <time>2022-05-28T12:00:56Z</time>
      </trkpt>
      <trkpt lat="47.87132" lon="-4.20349">
        <ele>56.1</ele>
        <time>2022-05-28T12:01:05Z</time>
      </trkpt>
      <trkpt lat="47.87148" lon="-4.20412">
        <ele>56.2</ele>
        <time>2022-05-28T12:01:12Z</time>
      </trkpt>
      <trkpt lat="47.87157" lon="-4.20459">
        <ele>56.3</ele>
        <time>2022-05-28T12:01:17Z</time>
      </trkpt>
      <trkpt lat="47.8716" lon="-4.20507">
        <ele>56.3</ele>
        <time>2022-05-28T12:01:22Z</time>
      </trkpt>
      <trkpt lat="47.87159" lon="-4.20527">
        <ele>56.4</ele>
        <time>2022-05-28T12:01:24Z</time>
      </trkpt>
      <trkpt lat="47.87158" lon="-4.20575">
        <ele>56.4</ele>
        <time>2022-05-28T12:01:29Z</time>
      </trkpt>
      <trkpt lat="47.87156" lon="-4.20586">
        <ele>56.5</ele>
        <time>2022-05-28T12:01:30Z</time>
      </trkpt>
      <trkpt lat="47.87155" lon="-4.20655">
        <ele>56.6</ele>
        <time>2022-05-28T12:01:37Z</time>
      </trkpt>
      <trkpt lat="47.87154" lon="-4.20727">
        <ele>56.7</ele>
        <time>2022-05-28T12:01:44Z</time>
      </trkpt>
      <trkpt lat="47.87153" lon="-4.20796">
        <ele>56.8</ele>
        <time>2022-05-28T12:01:51Z</time>
      </trkpt>
      <trkpt lat="47.87151" lon="-4.20869">
        <ele>56.9</ele>
        <time>2022-05-28T12:01:59Z</time>
      </trkpt>
      <trkpt lat="47.87153" lon="-4.20941">
        <ele>57</ele>
        <time>2022-05-28T12:02:07Z</time>
      </trkpt>
      <trkpt lat="47.87159" lon="-4.2099">
        <ele>57.1</ele>
        <time>2022-05-28T12:02:12Z</time>
      </trkpt>
      <trkpt lat="47.87162" lon="-4.21066">
        <ele>57.2</ele>
        <time>2022-05-28T12:02:20Z</time>
      </trkpt>
      <trkpt lat="47.87164" lon="-4.2114">
        <ele>57.3</ele>
        <time>2022-05-28T12:02:27Z</time>
      </trkpt>
      <trkpt lat="47.87157" lon="-4.21223">
        <ele>57.4</ele>
        <time>2022-05-28T12:02:32Z</time>
      </trkpt>
      <trkpt lat="47.87173" lon="-4.212">
        <ele>57.4</ele>
        <time>2022-05-28T12:02:33Z</time>
      </trkpt>
      <trkpt lat="47.87209" lon="-4.21127">
        <ele>57.4</ele>
        <time>2022-05-28T12:02:34Z</time>
      </trkpt>
      <trkpt lat="47.87222" lon="-4.21107">
        <ele>57.4</ele>
        <time>2022-05-28T12:02:37Z</time>
      </trkpt>
      <trkpt lat="47.87266" lon="-4.21081">
        <ele>57.6</ele>
        <time>2022-05-28T12:02:45Z</time>
      </trkpt>
      <trkpt lat="47.8731" lon="-4.2106">
        <ele>57.7</ele>
        <time>2022-05-28T12:02:53Z</time>
      </trkpt>
      <trkpt lat="47.87322" lon="-4.21057">
        <ele>57.7</ele>
        <time>2022-05-28T12:02:55Z</time>
      </trkpt>
      <trkpt lat="47.87338" lon="-4.21048">
        <ele>57.8</ele>
        <time>2022-05-28T12:02:58Z</time>
      </trkpt>
      <trkpt lat="47.87355" lon="-4.21043">
        <ele>57.8</ele>
        <time>2022-05-28T12:03:01Z</time>
      </trkpt>
      <trkpt lat="47.87399" lon="-4.21022">
        <ele>57.9</ele>
        <time>2022-05-28T12:03:09Z</time>
      </trkpt>
      <trkpt lat="47.87445" lon="-4.21002">
        <ele>58</ele>
        <time>2022-05-28T12:03:17Z</time>
      </trkpt>
      <trkpt lat="47.87489" lon="-4.20982">
        <ele>58.1</ele>
        <time>2022-05-28T12:03:25Z</time>
      </trkpt>
      <trkpt lat="47.87535" lon="-4.20952">
        <ele>58.3</ele>
        <time>2022-05-28T12:03:33Z</time>
      </trkpt>
      <trkpt lat="47.87573" lon="-4.20906">
        <ele>58.4</ele>
        <time>2022-05-28T12:03:41Z</time>
      </trkpt>
      <trkpt lat="47.87601" lon="-4.20851">
        <ele>58.5</ele>
        <time>2022-05-28T12:03:49Z</time>
      </trkpt>
      <trkpt lat="47.8762" lon="-4.20798">
        <ele>58.6</ele>
        <time>2022-05-28T12:03:56Z</time>
      </trkpt>
      <trkpt lat="47.87626" lon="-4.20783">
        <ele>58.6</ele>
        <time>2022-05-28T12:03:58Z</time>
      </trkpt>
      <trkpt lat="47.87628" lon="-4.20775">
        <ele>58.6</ele>
        <time>2022-05-28T12:03:59Z</time>
      </trkpt>
      <trkpt lat="47.87642" lon="-4.20747">
        <ele>58.7</ele>
        <time>2022-05-28T12:04:03Z</time>
      </trkpt>
      <trkpt lat="47.87672" lon="-4.2069">
        <ele>58.8</ele>
        <time>2022-05-28T12:04:11Z</time>
      </trkpt>
      <trkpt lat="47.87711" lon="-4.20643">
        <ele>58.9</ele>
        <time>2022-05-28T12:04:19Z</time>
      </trkpt>
      <trkpt lat="47.87747" lon="-4.206">
        <ele>59.1</ele>
        <time>2022-05-28T12:04:27Z</time>
      </trkpt>
      <trkpt lat="47.87768" lon="-4.20576">
        <ele>59.1</ele>
        <time>2022-05-28T12:04:32Z</time>
      </trkpt>
      <trkpt lat="47.8777" lon="-4.20572">
        <ele>59.2</ele>
        <time>2022-05-28T12:04:33Z</time>
      </trkpt>
      <trkpt lat="47.87784" lon="-4.20546">
        <ele>60.3</ele>
        <time>2022-05-28T12:04:39Z</time>
      </trkpt>
      <trkpt lat="47.87797" lon="-4.20521">
        <ele>62.5</ele>
        <time>2022-05-28T12:04:45Z</time>
      </trkpt>
      <trkpt lat="47.8781" lon="-4.20486">
        <ele>65.5</ele>
        <time>2022-05-28T12:04:56Z</time>
      </trkpt>
      <trkpt lat="47.87811" lon="-4.20483">
        <ele>65.8</ele>
        <time>2022-05-28T12:04:57Z</time>
      </trkpt>
      <trkpt lat="47.87812" lon="-4.20479">
        <ele>66.1</ele>
        <time>2022-05-28T12:04:58Z</time>
      </trkpt>
      <trkpt lat="47.87813" lon="-4.20472">
        <ele>66.6</ele>
        <time>2022-05-28T12:05:00Z</time>
      </trkpt>
      <trkpt lat="47.87818" lon="-4.2045">
        <ele>68.3</ele>
        <time>2022-05-28T12:05:06Z</time>
      </trkpt>
      <trkpt lat="47.87818" lon="-4.20446">
        <ele>68.5</ele>
        <time>2022-05-28T12:05:07Z</time>
      </trkpt>
      <trkpt lat="47.87819" lon="-4.20433">
        <ele>69</ele>
        <time>2022-05-28T12:05:10Z</time>
      </trkpt>
      <trkpt lat="47.8782" lon="-4.20419">
        <ele>69.5</ele>
        <time>2022-05-28T12:05:13Z</time>
      </trkpt>
      <trkpt lat="47.87827" lon="-4.20367">
        <ele>71</ele>
        <time>2022-05-28T12:05:24Z</time>
      </trkpt>
      <trkpt lat="47.87832" lon="-4.2033">
        <ele>71.9</ele>
        <time>2022-05-28T12:05:31Z</time>
      </trkpt>
      <trkpt lat="47.87836" lon="-4.20298">
        <ele>72.3</ele>
        <time>2022-05-28T12:05:37Z</time>
      </trkpt>
      <trkpt lat="47.87842" lon="-4.20226">
        <ele>73.2</ele>
        <time>2022-05-28T12:05:49Z</time>
      </trkpt>
      <trkpt lat="47.87849" lon="-4.2019">
        <ele>73.7</ele>
        <time>2022-05-28T12:05:56Z</time>
      </trkpt>
      <trkpt lat="47.87859" lon="-4.20184">
        <ele>73.9</ele>
        <time>2022-05-28T12:05:59Z</time>
      </trkpt>
      <trkpt lat="47.87907" lon="-4.202">
        <ele>74.7</ele>
        <time>2022-05-28T12:06:11Z</time>
      </trkpt>
      <trkpt lat="47.87915" lon="-4.20202">
        <ele>74.9</ele>
        <time>2022-05-28T12:06:13Z</time>
      </trkpt>
      <trkpt lat="47.87951" lon="-4.20212">
        <ele>76.2</ele>
        <time>2022-05-28T12:06:22Z</time>
      </trkpt>
      <trkpt lat="47.87985" lon="-4.20221">
        <ele>77.5</ele>
        <time>2022-05-28T12:06:31Z</time>
      </trkpt>
      <trkpt lat="47.87997" lon="-4.20225">
        <ele>77.9</ele>
        <time>2022-05-28T12:06:34Z</time>
      </trkpt>
      <trkpt lat="47.88042" lon="-4.20238">
        <ele>79</ele>
        <time>2022-05-28T12:06:45Z</time>
      </trkpt>
      <trkpt lat="47.88088" lon="-4.20255">
        <ele>80.2</ele>
        <time>2022-05-28T12:06:56Z</time>
      </trkpt>
      <trkpt lat="47.88104" lon="-4.2026">
        <ele>80.6</ele>
        <time>2022-05-28T12:07:00Z</time>
      </trkpt>
      <trkpt lat="47.88128" lon="-4.20268">
        <ele>80.9</ele>
        <time>2022-05-28T12:07:06Z</time>
      </trkpt>
      <trkpt lat="47.88135" lon="-4.20271">
        <ele>80.8</ele>
        <time>2022-05-28T12:07:08Z</time>
      </trkpt>
      <trkpt lat="47.88172" lon="-4.20315">
        <ele>80.1</ele>
        <time>2022-05-28T12:07:18Z</time>
      </trkpt>
      <trkpt lat="47.88213" lon="-4.2036">
        <ele>79.6</ele>
        <time>2022-05-28T12:07:27Z</time>
      </trkpt>
      <trkpt lat="47.88254" lon="-4.20403">
        <ele>79</ele>
        <time>2022-05-28T12:07:35Z</time>
      </trkpt>
      <trkpt lat="47.88286" lon="-4.20438">
        <ele>78.7</ele>
        <time>2022-05-28T12:07:41Z</time>
      </trkpt>
      <trkpt lat="47.88325" lon="-4.20468">
        <ele>78.2</ele>
        <time>2022-05-28T12:07:48Z</time>
      </trkpt>
      <trkpt lat="47.88364" lon="-4.20494">
        <ele>77.7</ele>
        <time>2022-05-28T12:07:56Z</time>
      </trkpt>
      <trkpt lat="47.88369" lon="-4.20485">
        <ele>77.5</ele>
        <time>2022-05-28T12:07:59Z</time>
      </trkpt>
      <trkpt lat="47.88369" lon="-4.20479">
        <ele>77.4</ele>
        <time>2022-05-28T12:08:00Z</time>
      </trkpt>
      <trkpt lat="47.88374" lon="-4.20417">
        <ele>75.1</ele>
        <time>2022-05-28T12:08:09Z</time>
      </trkpt>
      <trkpt lat="47.88375" lon="-4.20348">
        <ele>73.7</ele>
        <time>2022-05-28T12:08:15Z</time>
      </trkpt>
      <trkpt lat="47.88378" lon="-4.20307">
        <ele>72.9</ele>
        <time>2022-05-28T12:08:18Z</time>
      </trkpt>
      <trkpt lat="47.88379" lon="-4.20279">
        <ele>72</ele>
        <time>2022-05-28T12:08:20Z</time>
      </trkpt>
      <trkpt lat="47.88377" lon="-4.2025">
        <ele>71.2</ele>
        <time>2022-05-28T12:08:22Z</time>
      </trkpt>
      <trkpt lat="47.88374" lon="-4.20235">
        <ele>70.7</ele>
        <time>2022-05-28T12:08:23Z</time>
      </trkpt>
      <trkpt lat="47.88372" lon="-4.20161">
        <ele>68.6</ele>
        <time>2022-05-28T12:08:28Z</time>
      </trkpt>
      <trkpt lat="47.88369" lon="-4.20131">
        <ele>67.8</ele>
        <time>2022-05-28T12:08:30Z</time>
      </trkpt>
      <trkpt lat="47.88368" lon="-4.20116">
        <ele>67.3</ele>
        <time>2022-05-28T12:08:31Z</time>
      </trkpt>
      <trkpt lat="47.88365" lon="-4.20049">
        <ele>65.2</ele>
        <time>2022-05-28T12:08:35Z</time>
      </trkpt>
      <trkpt lat="47.88365" lon="-4.20033">
        <ele>64.7</ele>
        <time>2022-05-28T12:08:36Z</time>
      </trkpt>
      <trkpt lat="47.88363" lon="-4.19968">
        <ele>63.1</ele>
        <time>2022-05-28T12:08:40Z</time>
      </trkpt>
      <trkpt lat="47.88361" lon="-4.19952">
        <ele>62.7</ele>
        <time>2022-05-28T12:08:41Z</time>
      </trkpt>
      <trkpt lat="47.88358" lon="-4.19936">
        <ele>62.3</ele>
        <time>2022-05-28T12:08:42Z</time>
      </trkpt>
      <trkpt lat="47.88355" lon="-4.19854">
        <ele>60.3</ele>
        <time>2022-05-28T12:08:47Z</time>
      </trkpt>
      <trkpt lat="47.88354" lon="-4.19838">
        <ele>60</ele>
        <time>2022-05-28T12:08:48Z</time>
      </trkpt>
      <trkpt lat="47.88353" lon="-4.19773">
        <ele>59.1</ele>
        <time>2022-05-28T12:08:52Z</time>
      </trkpt>
      <trkpt lat="47.88356" lon="-4.19694">
        <ele>58</ele>
        <time>2022-05-28T12:08:57Z</time>
      </trkpt>
      <trkpt lat="47.88358" lon="-4.19663">
        <ele>57.5</ele>
        <time>2022-05-28T12:08:59Z</time>
      </trkpt>
      <trkpt lat="47.88362" lon="-4.19617">
        <ele>57.1</ele>
        <time>2022-05-28T12:09:02Z</time>
      </trkpt>
      <trkpt lat="47.88366" lon="-4.19573">
        <ele>56.6</ele>
        <time>2022-05-28T12:09:05Z</time>
      </trkpt>
      <trkpt lat="47.88369" lon="-4.19544">
        <ele>56.4</ele>
        <time>2022-05-28T12:09:07Z</time>
      </trkpt>
      <trkpt lat="47.88379" lon="-4.19473">
        <ele>55.9</ele>
        <time>2022-05-28T12:09:12Z</time>
      </trkpt>
      <trkpt lat="47.88385" lon="-4.19395">
        <ele>55.3</ele>
        <time>2022-05-28T12:09:18Z</time>
      </trkpt>
      <trkpt lat="47.88394" lon="-4.19322">
        <ele>54.7</ele>
        <time>2022-05-28T12:09:24Z</time>
      </trkpt>
      <trkpt lat="47.88402" lon="-4.19263">
        <ele>54.2</ele>
        <time>2022-05-28T12:09:29Z</time>
      </trkpt>
      <trkpt lat="47.88404" lon="-4.19252">
        <ele>54.1</ele>
        <time>2022-05-28T12:09:30Z</time>
      </trkpt>
      <trkpt lat="47.88413" lon="-4.19196">
        <ele>53.7</ele>
        <time>2022-05-28T12:09:35Z</time>
      </trkpt>
      <trkpt lat="47.88422" lon="-4.19124">
        <ele>54.1</ele>
        <time>2022-05-28T12:09:42Z</time>
      </trkpt>
      <trkpt lat="47.88432" lon="-4.19057">
        <ele>54.4</ele>
        <time>2022-05-28T12:09:49Z</time>
      </trkpt>
      <trkpt lat="47.88439" lon="-4.18988">
        <ele>54.8</ele>
        <time>2022-05-28T12:09:57Z</time>
      </trkpt>
      <trkpt lat="47.88449" lon="-4.18917">
        <ele>55.3</ele>
        <time>2022-05-28T12:10:05Z</time>
      </trkpt>
      <trkpt lat="47.88457" lon="-4.18865">
        <ele>55.6</ele>
        <time>2022-05-28T12:10:11Z</time>
      </trkpt>
      <trkpt lat="47.88462" lon="-4.18839">
        <ele>55.7</ele>
        <time>2022-05-28T12:10:14Z</time>
      </trkpt>
      <trkpt lat="47.88472" lon="-4.18768">
        <ele>56.2</ele>
        <time>2022-05-28T12:10:22Z</time>
      </trkpt>
      <trkpt lat="47.88477" lon="-4.18732">
        <ele>56.4</ele>
        <time>2022-05-28T12:10:26Z</time>
      </trkpt>
      <trkpt lat="47.88476" lon="-4.18723">
        <ele>56.4</ele>
        <time>2022-05-28T12:10:27Z</time>
      </trkpt>
      <trkpt lat="47.88488" lon="-4.18656">
        <ele>56.9</ele>
        <time>2022-05-28T12:10:35Z</time>
      </trkpt>
      <trkpt lat="47.88494" lon="-4.18618">
        <ele>57.1</ele>
        <time>2022-05-28T12:10:40Z</time>
      </trkpt>
      <trkpt lat="47.88499" lon="-4.18588">
        <ele>57.7</ele>
        <time>2022-05-28T12:10:44Z</time>
      </trkpt>
      <trkpt lat="47.88507" lon="-4.18544">
        <ele>58.5</ele>
        <time>2022-05-28T12:10:50Z</time>
      </trkpt>
      <trkpt lat="47.88507" lon="-4.18537">
        <ele>58.7</ele>
        <time>2022-05-28T12:10:51Z</time>
      </trkpt>
      <trkpt lat="47.88508" lon="-4.18529">
        <ele>58.8</ele>
        <time>2022-05-28T12:10:52Z</time>
      </trkpt>
      <trkpt lat="47.88522" lon="-4.18473">
        <ele>60.5</ele>
        <time>2022-05-28T12:11:00Z</time>
      </trkpt>
      <trkpt lat="47.88533" lon="-4.18418">
        <ele>62.4</ele>
        <time>2022-05-28T12:11:09Z</time>
      </trkpt>
      <trkpt lat="47.88533" lon="-4.18411">
        <ele>62.5</ele>
        <time>2022-05-28T12:11:10Z</time>
      </trkpt>
      <trkpt lat="47.88546" lon="-4.18346">
        <ele>64.7</ele>
        <time>2022-05-28T12:11:21Z</time>
      </trkpt>
      <trkpt lat="47.8855" lon="-4.18313">
        <ele>65.8</ele>
        <time>2022-05-28T12:11:27Z</time>
      </trkpt>
      <trkpt lat="47.88555" lon="-4.18281">
        <ele>66.6</ele>
        <time>2022-05-28T12:11:33Z</time>
      </trkpt>
      <trkpt lat="47.88558" lon="-4.1823">
        <ele>68.3</ele>
        <time>2022-05-28T12:11:45Z</time>
      </trkpt>
      <trkpt lat="47.8856" lon="-4.18216">
        <ele>68</ele>
        <time>2022-05-28T12:11:49Z</time>
      </trkpt>
      <trkpt lat="47.88594" lon="-4.18262">
        <ele>67.2</ele>
        <time>2022-05-28T12:12:02Z</time>
      </trkpt>
      <trkpt lat="47.88614" lon="-4.18282">
        <ele>66.9</ele>
        <time>2022-05-28T12:12:07Z</time>
      </trkpt>
      <trkpt lat="47.88626" lon="-4.18287">
        <ele>66.7</ele>
        <time>2022-05-28T12:12:09Z</time>
      </trkpt>
      <trkpt lat="47.88661" lon="-4.18303">
        <ele>66.4</ele>
        <time>2022-05-28T12:12:15Z</time>
      </trkpt>
      <trkpt lat="47.88688" lon="-4.1831">
        <ele>66</ele>
        <time>2022-05-28T12:12:20Z</time>
      </trkpt>
      <trkpt lat="47.88703" lon="-4.18302">
        <ele>65.9</ele>
        <time>2022-05-28T12:12:23Z</time>
      </trkpt>
      <trkpt lat="47.8872" lon="-4.18299">
        <ele>65.7</ele>
        <time>2022-05-28T12:12:27Z</time>
      </trkpt>
      <trkpt lat="47.88749" lon="-4.18292">
        <ele>66.2</ele>
        <time>2022-05-28T12:12:34Z</time>
      </trkpt>
      <trkpt lat="47.88794" lon="-4.18278">
        <ele>66.9</ele>
        <time>2022-05-28T12:12:44Z</time>
      </trkpt>
      <trkpt lat="47.88837" lon="-4.18274">
        <ele>67.7</ele>
        <time>2022-05-28T12:12:54Z</time>
      </trkpt>
      <trkpt lat="47.88863" lon="-4.1829">
        <ele>67.9</ele>
        <time>2022-05-28T12:12:58Z</time>
      </trkpt>
      <trkpt lat="47.88863" lon="-4.18294">
        <ele>68</ele>
        <time>2022-05-28T12:12:59Z</time>
      </trkpt>
      <trkpt lat="47.8886" lon="-4.18284">
        <ele>68.2</ele>
        <time>2022-05-28T12:13:01Z</time>
      </trkpt>
      <trkpt lat="47.88863" lon="-4.18287">
        <ele>68.4</ele>
        <time>2022-05-28T12:13:04Z</time>
      </trkpt>
      <trkpt lat="47.88888" lon="-4.18261">
        <ele>69.1</ele>
        <time>2022-05-28T12:13:13Z</time>
      </trkpt>
      <trkpt lat="47.88903" lon="-4.18248">
        <ele>70.4</ele>
        <time>2022-05-28T12:13:18Z</time>
      </trkpt>
      <trkpt lat="47.88943" lon="-4.18236">
        <ele>73.6</ele>
        <time>2022-05-28T12:13:31Z</time>
      </trkpt>
      <trkpt lat="47.88946" lon="-4.18237">
        <ele>73.7</ele>
        <time>2022-05-28T12:13:32Z</time>
      </trkpt>
      <trkpt lat="47.88977" lon="-4.18229">
        <ele>74.6</ele>
        <time>2022-05-28T12:13:40Z</time>
      </trkpt>
      <trkpt lat="47.89025" lon="-4.18221">
        <ele>76.2</ele>
        <time>2022-05-28T12:13:53Z</time>
      </trkpt>
      <trkpt lat="47.89035" lon="-4.18221">
        <ele>76.4</ele>
        <time>2022-05-28T12:13:55Z</time>
      </trkpt>
      <trkpt lat="47.89069" lon="-4.18218">
        <ele>76.8</ele>
        <time>2022-05-28T12:14:02Z</time>
      </trkpt>
      <trkpt lat="47.89085" lon="-4.18215">
        <ele>77</ele>
        <time>2022-05-28T12:14:05Z</time>
      </trkpt>
      <trkpt lat="47.89088" lon="-4.18213">
        <ele>77</ele>
        <time>2022-05-28T12:14:06Z</time>
      </trkpt>
      <trkpt lat="47.8909" lon="-4.18213">
        <ele>77.1</ele>
        <time>2022-05-28T12:14:07Z</time>
      </trkpt>
      <trkpt lat="47.89088" lon="-4.18213">
        <ele>77.1</ele>
        <time>2022-05-28T12:14:08Z</time>
      </trkpt>
      <trkpt lat="47.89135" lon="-4.18207">
        <ele>77.7</ele>
        <time>2022-05-28T12:14:18Z</time>
      </trkpt>
      <trkpt lat="47.89139" lon="-4.18211">
        <ele>77.8</ele>
        <time>2022-05-28T12:14:19Z</time>
      </trkpt>
      <trkpt lat="47.89141" lon="-4.18219">
        <ele>77.8</ele>
        <time>2022-05-28T12:14:20Z</time>
      </trkpt>
      <trkpt lat="47.89144" lon="-4.18223">
        <ele>77.9</ele>
        <time>2022-05-28T12:14:21Z</time>
      </trkpt>
      <trkpt lat="47.89158" lon="-4.18247">
        <ele>78.2</ele>
        <time>2022-05-28T12:14:27Z</time>
      </trkpt>
      <trkpt lat="47.89177" lon="-4.18243">
        <ele>78.6</ele>
        <time>2022-05-28T12:14:33Z</time>
      </trkpt>
      <trkpt lat="47.89226" lon="-4.18243">
        <ele>79.4</ele>
        <time>2022-05-28T12:14:48Z</time>
      </trkpt>
      <trkpt lat="47.89229" lon="-4.18243">
        <ele>79.5</ele>
        <time>2022-05-28T12:14:49Z</time>
      </trkpt>
      <trkpt lat="47.89268" lon="-4.1824">
        <ele>80</ele>
        <time>2022-05-28T12:15:00Z</time>
      </trkpt>
      <trkpt lat="47.89302" lon="-4.18194">
        <ele>80.6</ele>
        <time>2022-05-28T12:15:12Z</time>
      </trkpt>
      <trkpt lat="47.89315" lon="-4.18189">
        <ele>80.7</ele>
        <time>2022-05-28T12:15:15Z</time>
      </trkpt>
      <trkpt lat="47.89322" lon="-4.18178">
        <ele>81.3</ele>
        <time>2022-05-28T12:15:27Z</time>
      </trkpt>
      <trkpt lat="47.89334" lon="-4.18178">
        <ele>81.5</ele>
        <time>2022-05-28T12:15:31Z</time>
      </trkpt>
      <trkpt lat="47.89372" lon="-4.18225">
        <ele>82</ele>
        <time>2022-05-28T12:15:43Z</time>
      </trkpt>
      <trkpt lat="47.89411" lon="-4.18263">
        <ele>82.5</ele>
        <time>2022-05-28T12:15:53Z</time>
      </trkpt>
      <trkpt lat="47.89437" lon="-4.18287">
        <ele>82.8</ele>
        <time>2022-05-28T12:15:59Z</time>
      </trkpt>
      <trkpt lat="47.8945" lon="-4.18299">
        <ele>82.8</ele>
        <time>2022-05-28T12:16:02Z</time>
      </trkpt>
      <trkpt lat="47.89486" lon="-4.18339">
        <ele>82.8</ele>
        <time>2022-05-28T12:16:10Z</time>
      </trkpt>
      <trkpt lat="47.89523" lon="-4.18377">
        <ele>82.8</ele>
        <time>2022-05-28T12:16:18Z</time>
      </trkpt>
      <trkpt lat="47.89565" lon="-4.18413">
        <ele>82.9</ele>
        <time>2022-05-28T12:16:26Z</time>
      </trkpt>
      <trkpt lat="47.89611" lon="-4.18448">
        <ele>82.9</ele>
        <time>2022-05-28T12:16:34Z</time>
      </trkpt>
      <trkpt lat="47.89654" lon="-4.18474">
        <ele>82.9</ele>
        <time>2022-05-28T12:16:41Z</time>
      </trkpt>
      <trkpt lat="47.89699" lon="-4.185">
        <ele>82.9</ele>
        <time>2022-05-28T12:16:48Z</time>
      </trkpt>
      <trkpt lat="47.89743" lon="-4.18518">
        <ele>83</ele>
        <time>2022-05-28T12:16:55Z</time>
      </trkpt>
      <trkpt lat="47.89788" lon="-4.18544">
        <ele>83</ele>
        <time>2022-05-28T12:17:02Z</time>
      </trkpt>
      <trkpt lat="47.89821" lon="-4.18559">
        <ele>83</ele>
        <time>2022-05-28T12:17:08Z</time>
      </trkpt>
      <trkpt lat="47.89844" lon="-4.18497">
        <ele>83</ele>
        <time>2022-05-28T12:17:15Z</time>
      </trkpt>
      <trkpt lat="47.89872" lon="-4.18439">
        <ele>83</ele>
        <time>2022-05-28T12:17:24Z</time>
      </trkpt>
      <trkpt lat="47.89896" lon="-4.18396">
        <ele>83.1</ele>
        <time>2022-05-28T12:17:31Z</time>
      </trkpt>
      <trkpt lat="47.89924" lon="-4.18343">
        <ele>83.1</ele>
        <time>2022-05-28T12:17:39Z</time>
      </trkpt>
      <trkpt lat="47.89952" lon="-4.18289">
        <ele>83.1</ele>
        <time>2022-05-28T12:17:47Z</time>
      </trkpt>
      <trkpt lat="47.89983" lon="-4.18238">
        <ele>83.1</ele>
        <time>2022-05-28T12:17:55Z</time>
      </trkpt>
      <trkpt lat="47.90021" lon="-4.1819">
        <ele>83.2</ele>
        <time>2022-05-28T12:18:03Z</time>
      </trkpt>
      <trkpt lat="47.90049" lon="-4.18165">
        <ele>83.2</ele>
        <time>2022-05-28T12:18:08Z</time>
      </trkpt>
      <trkpt lat="47.90085" lon="-4.18123">
        <ele>83.2</ele>
        <time>2022-05-28T12:18:15Z</time>
      </trkpt>
      <trkpt lat="47.90129" lon="-4.18085">
        <ele>83.2</ele>
        <time>2022-05-28T12:18:23Z</time>
      </trkpt>
      <trkpt lat="47.9017" lon="-4.18054">
        <ele>83.2</ele>
        <time>2022-05-28T12:18:30Z</time>
      </trkpt>
      <trkpt lat="47.90215" lon="-4.18029">
        <ele>83.3</ele>
        <time>2022-05-28T12:18:37Z</time>
      </trkpt>
      <trkpt lat="47.9026" lon="-4.18006">
        <ele>83.3</ele>
        <time>2022-05-28T12:18:43Z</time>
      </trkpt>
      <trkpt lat="47.90278" lon="-4.17997">
        <ele>83.1</ele>
        <time>2022-05-28T12:18:45Z</time>
      </trkpt>
      <trkpt lat="47.90304" lon="-4.17984">
        <ele>81.7</ele>
        <time>2022-05-28T12:18:48Z</time>
      </trkpt>
      <trkpt lat="47.90333" lon="-4.17967">
        <ele>80.1</ele>
        <time>2022-05-28T12:18:51Z</time>
      </trkpt>
      <trkpt lat="47.90353" lon="-4.17955">
        <ele>78.7</ele>
        <time>2022-05-28T12:18:53Z</time>
      </trkpt>
      <trkpt lat="47.90395" lon="-4.17931">
        <ele>76.1</ele>
        <time>2022-05-28T12:18:57Z</time>
      </trkpt>
      <trkpt lat="47.90449" lon="-4.17915">
        <ele>74.7</ele>
        <time>2022-05-28T12:19:02Z</time>
      </trkpt>
      <trkpt lat="47.90503" lon="-4.17908">
        <ele>73.3</ele>
        <time>2022-05-28T12:19:07Z</time>
      </trkpt>
      <trkpt lat="47.90523" lon="-4.17907">
        <ele>72.7</ele>
        <time>2022-05-28T12:19:09Z</time>
      </trkpt>
      <trkpt lat="47.90553" lon="-4.17904">
        <ele>71.4</ele>
        <time>2022-05-28T12:19:12Z</time>
      </trkpt>
      <trkpt lat="47.90601" lon="-4.17897">
        <ele>69.4</ele>
        <time>2022-05-28T12:19:17Z</time>
      </trkpt>
      <trkpt lat="47.90645" lon="-4.17885">
        <ele>67.5</ele>
        <time>2022-05-28T12:19:21Z</time>
      </trkpt>
      <trkpt lat="47.90655" lon="-4.1788">
        <ele>66.6</ele>
        <time>2022-05-28T12:19:22Z</time>
      </trkpt>
      <trkpt lat="47.90675" lon="-4.17862">
        <ele>64.7</ele>
        <time>2022-05-28T12:19:24Z</time>
      </trkpt>
      <trkpt lat="47.90693" lon="-4.17832">
        <ele>62.9</ele>
        <time>2022-05-28T12:19:26Z</time>
      </trkpt>
      <trkpt lat="47.90699" lon="-4.17814">
        <ele>62</ele>
        <time>2022-05-28T12:19:27Z</time>
      </trkpt>
      <trkpt lat="47.90708" lon="-4.17776">
        <ele>60.2</ele>
        <time>2022-05-28T12:19:29Z</time>
      </trkpt>
      <trkpt lat="47.90714" lon="-4.1772">
        <ele>57.5</ele>
        <time>2022-05-28T12:19:32Z</time>
      </trkpt>
      <trkpt lat="47.90716" lon="-4.17702">
        <ele>56.9</ele>
        <time>2022-05-28T12:19:33Z</time>
      </trkpt>
      <trkpt lat="47.90723" lon="-4.1765">
        <ele>54.9</ele>
        <time>2022-05-28T12:19:36Z</time>
      </trkpt>
      <trkpt lat="47.90736" lon="-4.17623">
        <ele>53.8</ele>
        <time>2022-05-28T12:19:38Z</time>
      </trkpt>
      <trkpt lat="47.90754" lon="-4.17583">
        <ele>53.7</ele>
        <time>2022-05-28T12:19:41Z</time>
      </trkpt>
      <trkpt lat="47.90783" lon="-4.17526">
        <ele>53.6</ele>
        <time>2022-05-28T12:19:46Z</time>
      </trkpt>
      <trkpt lat="47.90798" lon="-4.17494">
        <ele>53.5</ele>
        <time>2022-05-28T12:19:49Z</time>
      </trkpt>
      <trkpt lat="47.90812" lon="-4.17463">
        <ele>54</ele>
        <time>2022-05-28T12:19:52Z</time>
      </trkpt>
      <trkpt lat="47.90824" lon="-4.17439">
        <ele>54.5</ele>
        <time>2022-05-28T12:19:55Z</time>
      </trkpt>
      <trkpt lat="47.9084" lon="-4.17408">
        <ele>56</ele>
        <time>2022-05-28T12:19:59Z</time>
      </trkpt>
      <trkpt lat="47.90862" lon="-4.17356">
        <ele>58.8</ele>
        <time>2022-05-28T12:20:07Z</time>
      </trkpt>
      <trkpt lat="47.90864" lon="-4.1735">
        <ele>59.1</ele>
        <time>2022-05-28T12:20:08Z</time>
      </trkpt>
      <trkpt lat="47.9089" lon="-4.17293">
        <ele>61.8</ele>
        <time>2022-05-28T12:20:18Z</time>
      </trkpt>
      <trkpt lat="47.90893" lon="-4.17287">
        <ele>62</ele>
        <time>2022-05-28T12:20:19Z</time>
      </trkpt>
      <trkpt lat="47.90908" lon="-4.17253">
        <ele>62.9</ele>
        <time>2022-05-28T12:20:25Z</time>
      </trkpt>
      <trkpt lat="47.90915" lon="-4.17236">
        <ele>63.2</ele>
        <time>2022-05-28T12:20:28Z</time>
      </trkpt>
      <trkpt lat="47.90922" lon="-4.1722">
        <ele>63.5</ele>
        <time>2022-05-28T12:20:31Z</time>
      </trkpt>
      <trkpt lat="47.90935" lon="-4.17188">
        <ele>64.6</ele>
        <time>2022-05-28T12:20:37Z</time>
      </trkpt>
      <trkpt lat="47.9094" lon="-4.17178">
        <ele>65.1</ele>
        <time>2022-05-28T12:20:39Z</time>
      </trkpt>
      <trkpt lat="47.90963" lon="-4.17121">
        <ele>67.6</ele>
        <time>2022-05-28T12:20:50Z</time>
      </trkpt>
      <trkpt lat="47.90973" lon="-4.17098">
        <ele>68.8</ele>
        <time>2022-05-28T12:20:55Z</time>
      </trkpt>
      <trkpt lat="47.90979" lon="-4.17085">
        <ele>69.5</ele>
        <time>2022-05-28T12:20:58Z</time>
      </trkpt>
      <trkpt lat="47.90988" lon="-4.17063">
        <ele>70.7</ele>
        <time>2022-05-28T12:21:03Z</time>
      </trkpt>
      <trkpt lat="47.91005" lon="-4.17024">
        <ele>73</ele>
        <time>2022-05-28T12:21:13Z</time>
      </trkpt>
      <trkpt lat="47.91014" lon="-4.17004">
        <ele>74.2</ele>
        <time>2022-05-28T12:21:18Z</time>
      </trkpt>
      <trkpt lat="47.91039" lon="-4.16948">
        <ele>77.1</ele>
        <time>2022-05-28T12:21:31Z</time>
      </trkpt>
      <trkpt lat="47.91063" lon="-4.16891">
        <ele>80</ele>
        <time>2022-05-28T12:21:45Z</time>
      </trkpt>
      <trkpt lat="47.91068" lon="-4.1688">
        <ele>80.6</ele>
        <time>2022-05-28T12:21:48Z</time>
      </trkpt>
      <trkpt lat="47.91082" lon="-4.16846">
        <ele>82.5</ele>
        <time>2022-05-28T12:21:57Z</time>
      </trkpt>
      <trkpt lat="47.91092" lon="-4.16833">
        <ele>83.4</ele>
        <time>2022-05-28T12:22:01Z</time>
      </trkpt>
      <trkpt lat="47.911" lon="-4.16811">
        <ele>84.4</ele>
        <time>2022-05-28T12:22:06Z</time>
      </trkpt>
      <trkpt lat="47.91114" lon="-4.16776">
        <ele>85.5</ele>
        <time>2022-05-28T12:22:14Z</time>
      </trkpt>
      <trkpt lat="47.91138" lon="-4.16719">
        <ele>87.3</ele>
        <time>2022-05-28T12:22:26Z</time>
      </trkpt>
      <trkpt lat="47.91145" lon="-4.16705">
        <ele>87.7</ele>
        <time>2022-05-28T12:22:29Z</time>
      </trkpt>
      <trkpt lat="47.91157" lon="-4.16676">
        <ele>88.8</ele>
        <time>2022-05-28T12:22:35Z</time>
      </trkpt>
      <trkpt lat="47.91164" lon="-4.16661">
        <ele>89.1</ele>
        <time>2022-05-28T12:22:38Z</time>
      </trkpt>
      <trkpt lat="47.91184" lon="-4.16615">
        <ele>90.2</ele>
        <time>2022-05-28T12:22:47Z</time>
      </trkpt>
      <trkpt lat="47.9119" lon="-4.166">
        <ele>90.3</ele>
        <time>2022-05-28T12:22:50Z</time>
      </trkpt>
      <trkpt lat="47.9122" lon="-4.1654">
        <ele>91</ele>
        <time>2022-05-28T12:23:03Z</time>
      </trkpt>
      <trkpt lat="47.91249" lon="-4.16483">
        <ele>91.6</ele>
        <time>2022-05-28T12:23:15Z</time>
      </trkpt>
      <trkpt lat="47.91275" lon="-4.16426">
        <ele>92.3</ele>
        <time>2022-05-28T12:23:29Z</time>
      </trkpt>
      <trkpt lat="47.91304" lon="-4.1637">
        <ele>93.1</ele>
        <time>2022-05-28T12:23:45Z</time>
      </trkpt>
      <trkpt lat="47.91306" lon="-4.16366">
        <ele>93.2</ele>
        <time>2022-05-28T12:23:46Z</time>
      </trkpt>
      <trkpt lat="47.91332" lon="-4.16312">
        <ele>93.5</ele>
        <time>2022-05-28T12:23:58Z</time>
      </trkpt>
      <trkpt lat="47.91359" lon="-4.16258">
        <ele>93.8</ele>
        <time>2022-05-28T12:24:10Z</time>
      </trkpt>
      <trkpt lat="47.91387" lon="-4.162">
        <ele>94.2</ele>
        <time>2022-05-28T12:24:25Z</time>
      </trkpt>
      <trkpt lat="47.9142" lon="-4.16147">
        <ele>94.7</ele>
        <time>2022-05-28T12:24:42Z</time>
      </trkpt>
      <trkpt lat="47.91444" lon="-4.16089">
        <ele>95</ele>
        <time>2022-05-28T12:24:53Z</time>
      </trkpt>
      <trkpt lat="47.91471" lon="-4.16032">
        <ele>95.3</ele>
        <time>2022-05-28T12:25:04Z</time>
      </trkpt>
      <trkpt lat="47.915" lon="-4.15977">
        <ele>95.5</ele>
        <time>2022-05-28T12:25:14Z</time>
      </trkpt>
      <trkpt lat="47.91533" lon="-4.15929">
        <ele>95.7</ele>
        <time>2022-05-28T12:25:22Z</time>
      </trkpt>
      <trkpt lat="47.91569" lon="-4.15888">
        <ele>95.9</ele>
        <time>2022-05-28T12:25:29Z</time>
      </trkpt>
      <trkpt lat="47.91606" lon="-4.15844">
        <ele>96.1</ele>
        <time>2022-05-28T12:25:37Z</time>
      </trkpt>
      <trkpt lat="47.91628" lon="-4.15818">
        <ele>96.4</ele>
        <time>2022-05-28T12:25:43Z</time>
      </trkpt>
      <trkpt lat="47.91642" lon="-4.15801">
        <ele>97.8</ele>
        <time>2022-05-28T12:25:47Z</time>
      </trkpt>
      <trkpt lat="47.91645" lon="-4.15798">
        <ele>98</ele>
        <time>2022-05-28T12:25:48Z</time>
      </trkpt>
      <trkpt lat="47.91678" lon="-4.1576">
        <ele>100</ele>
        <time>2022-05-28T12:26:00Z</time>
      </trkpt>
      <trkpt lat="47.91694" lon="-4.15741">
        <ele>100.5</ele>
        <time>2022-05-28T12:26:05Z</time>
      </trkpt>
      <trkpt lat="47.91716" lon="-4.15715">
        <ele>100.3</ele>
        <time>2022-05-28T12:26:12Z</time>
      </trkpt>
      <trkpt lat="47.91753" lon="-4.1567">
        <ele>100</ele>
        <time>2022-05-28T12:26:23Z</time>
      </trkpt>
      <trkpt lat="47.91789" lon="-4.15624">
        <ele>99.7</ele>
        <time>2022-05-28T12:26:34Z</time>
      </trkpt>
      <trkpt lat="47.91829" lon="-4.1558">
        <ele>99.4</ele>
        <time>2022-05-28T12:26:43Z</time>
      </trkpt>
      <trkpt lat="47.91867" lon="-4.15536">
        <ele>99.2</ele>
        <time>2022-05-28T12:26:52Z</time>
      </trkpt>
      <trkpt lat="47.91907" lon="-4.15491">
        <ele>98.9</ele>
        <time>2022-05-28T12:27:01Z</time>
      </trkpt>
      <trkpt lat="47.91932" lon="-4.15459">
        <ele>98.8</ele>
        <time>2022-05-28T12:27:05Z</time>
      </trkpt>
      <trkpt lat="47.91945" lon="-4.15443">
        <ele>98.7</ele>
        <time>2022-05-28T12:27:07Z</time>
      </trkpt>
      <trkpt lat="47.91981" lon="-4.15399">
        <ele>98.3</ele>
        <time>2022-05-28T12:27:13Z</time>
      </trkpt>
      <trkpt lat="47.92003" lon="-4.15373">
        <ele>98</ele>
        <time>2022-05-28T12:27:17Z</time>
      </trkpt>
      <trkpt lat="47.9202" lon="-4.15354">
        <ele>98.2</ele>
        <time>2022-05-28T12:27:20Z</time>
      </trkpt>
      <trkpt lat="47.92055" lon="-4.1531">
        <ele>98.5</ele>
        <time>2022-05-28T12:27:26Z</time>
      </trkpt>
      <trkpt lat="47.92089" lon="-4.15257">
        <ele>98.9</ele>
        <time>2022-05-28T12:27:34Z</time>
      </trkpt>
      <trkpt lat="47.92114" lon="-4.15195">
        <ele>99.2</ele>
        <time>2022-05-28T12:27:42Z</time>
      </trkpt>
      <trkpt lat="47.92137" lon="-4.15133">
        <ele>99.6</ele>
        <time>2022-05-28T12:27:50Z</time>
      </trkpt>
      <trkpt lat="47.9216" lon="-4.15073">
        <ele>100</ele>
        <time>2022-05-28T12:27:58Z</time>
      </trkpt>
      <trkpt lat="47.92188" lon="-4.15009">
        <ele>100.4</ele>
        <time>2022-05-28T12:28:06Z</time>
      </trkpt>
      <trkpt lat="47.92219" lon="-4.14956">
        <ele>100.8</ele>
        <time>2022-05-28T12:28:14Z</time>
      </trkpt>
      <trkpt lat="47.92257" lon="-4.14912">
        <ele>101.2</ele>
        <time>2022-05-28T12:28:23Z</time>
      </trkpt>
      <trkpt lat="47.92296" lon="-4.14872">
        <ele>101.3</ele>
        <time>2022-05-28T12:28:31Z</time>
      </trkpt>
      <trkpt lat="47.92341" lon="-4.14838">
        <ele>101.4</ele>
        <time>2022-05-28T12:28:39Z</time>
      </trkpt>
      <trkpt lat="47.92385" lon="-4.14804">
        <ele>101.5</ele>
        <time>2022-05-28T12:28:47Z</time>
      </trkpt>
      <trkpt lat="47.92431" lon="-4.14767">
        <ele>101.6</ele>
        <time>2022-05-28T12:28:54Z</time>
      </trkpt>
      <trkpt lat="47.92474" lon="-4.14727">
        <ele>101.7</ele>
        <time>2022-05-28T12:29:01Z</time>
      </trkpt>
      <trkpt lat="47.92511" lon="-4.14687">
        <ele>101.8</ele>
        <time>2022-05-28T12:29:09Z</time>
      </trkpt>
      <trkpt lat="47.92519" lon="-4.14677">
        <ele>101.9</ele>
        <time>2022-05-28T12:29:11Z</time>
      </trkpt>
      <trkpt lat="47.92544" lon="-4.14648">
        <ele>102.5</ele>
        <time>2022-05-28T12:29:17Z</time>
      </trkpt>
      <trkpt lat="47.92548" lon="-4.14643">
        <ele>102.5</ele>
        <time>2022-05-28T12:29:18Z</time>
      </trkpt>
      <trkpt lat="47.92585" lon="-4.14603">
        <ele>102.3</ele>
        <time>2022-05-28T12:29:27Z</time>
      </trkpt>
      <trkpt lat="47.92626" lon="-4.14572">
        <ele>102.2</ele>
        <time>2022-05-28T12:29:36Z</time>
      </trkpt>
      <trkpt lat="47.9267" lon="-4.1455">
        <ele>102.1</ele>
        <time>2022-05-28T12:29:44Z</time>
      </trkpt>
      <trkpt lat="47.92715" lon="-4.14529">
        <ele>102</ele>
        <time>2022-05-28T12:29:51Z</time>
      </trkpt>
      <trkpt lat="47.92765" lon="-4.14507">
        <ele>101.8</ele>
        <time>2022-05-28T12:29:58Z</time>
      </trkpt>
      <trkpt lat="47.92771" lon="-4.14505">
        <ele>101.8</ele>
        <time>2022-05-28T12:29:59Z</time>
      </trkpt>
      <trkpt lat="47.928" lon="-4.14492">
        <ele>102.2</ele>
        <time>2022-05-28T12:30:04Z</time>
      </trkpt>
      <trkpt lat="47.92811" lon="-4.14487">
        <ele>102.5</ele>
        <time>2022-05-28T12:30:06Z</time>
      </trkpt>
      <trkpt lat="47.92849" lon="-4.14469">
        <ele>103.8</ele>
        <time>2022-05-28T12:30:14Z</time>
      </trkpt>
      <trkpt lat="47.92854" lon="-4.14466">
        <ele>103.9</ele>
        <time>2022-05-28T12:30:15Z</time>
      </trkpt>
      <trkpt lat="47.92899" lon="-4.14442">
        <ele>104.6</ele>
        <time>2022-05-28T12:30:24Z</time>
      </trkpt>
      <trkpt lat="47.92943" lon="-4.14425">
        <ele>105.2</ele>
        <time>2022-05-28T12:30:32Z</time>
      </trkpt>
      <trkpt lat="47.92948" lon="-4.14422">
        <ele>105</ele>
        <time>2022-05-28T12:30:33Z</time>
      </trkpt>
      <trkpt lat="47.92981" lon="-4.14406">
        <ele>104.1</ele>
        <time>2022-05-28T12:30:38Z</time>
      </trkpt>
      <trkpt lat="47.92994" lon="-4.14399">
        <ele>103.7</ele>
        <time>2022-05-28T12:30:40Z</time>
      </trkpt>
      <trkpt lat="47.93035" lon="-4.14368">
        <ele>102.4</ele>
        <time>2022-05-28T12:30:46Z</time>
      </trkpt>
      <trkpt lat="47.93073" lon="-4.14328">
        <ele>101.2</ele>
        <time>2022-05-28T12:30:52Z</time>
      </trkpt>
      <trkpt lat="47.93092" lon="-4.14305">
        <ele>100.5</ele>
        <time>2022-05-28T12:30:55Z</time>
      </trkpt>
      <trkpt lat="47.93099" lon="-4.14297">
        <ele>100.3</ele>
        <time>2022-05-28T12:30:56Z</time>
      </trkpt>
      <trkpt lat="47.93133" lon="-4.14259">
        <ele>98.8</ele>
        <time>2022-05-28T12:31:01Z</time>
      </trkpt>
      <trkpt lat="47.93141" lon="-4.14254">
        <ele>98.6</ele>
        <time>2022-05-28T12:31:02Z</time>
      </trkpt>
      <trkpt lat="47.93156" lon="-4.14241">
        <ele>98</ele>
        <time>2022-05-28T12:31:04Z</time>
      </trkpt>
      <trkpt lat="47.93166" lon="-4.14238">
        <ele>97.7</ele>
        <time>2022-05-28T12:31:05Z</time>
      </trkpt>
      <trkpt lat="47.93191" lon="-4.14221">
        <ele>96.7</ele>
        <time>2022-05-28T12:31:08Z</time>
      </trkpt>
      <trkpt lat="47.93209" lon="-4.14211">
        <ele>95.7</ele>
        <time>2022-05-28T12:31:10Z</time>
      </trkpt>
      <trkpt lat="47.93247" lon="-4.14189">
        <ele>93.4</ele>
        <time>2022-05-28T12:31:14Z</time>
      </trkpt>
      <trkpt lat="47.93257" lon="-4.14184">
        <ele>92.5</ele>
        <time>2022-05-28T12:31:15Z</time>
      </trkpt>
      <trkpt lat="47.93289" lon="-4.14166">
        <ele>89.7</ele>
        <time>2022-05-28T12:31:18Z</time>
      </trkpt>
      <trkpt lat="47.93309" lon="-4.14152">
        <ele>87.9</ele>
        <time>2022-05-28T12:31:20Z</time>
      </trkpt>
      <trkpt lat="47.9334" lon="-4.14133">
        <ele>85.3</ele>
        <time>2022-05-28T12:31:23Z</time>
      </trkpt>
      <trkpt lat="47.93373" lon="-4.14112">
        <ele>82.9</ele>
        <time>2022-05-28T12:31:26Z</time>
      </trkpt>
      <trkpt lat="47.93384" lon="-4.14105">
        <ele>82.7</ele>
        <time>2022-05-28T12:31:27Z</time>
      </trkpt>
      <trkpt lat="47.93413" lon="-4.1408">
        <ele>82.2</ele>
        <time>2022-05-28T12:31:30Z</time>
      </trkpt>
      <trkpt lat="47.93452" lon="-4.14032">
        <ele>81.2</ele>
        <time>2022-05-28T12:31:35Z</time>
      </trkpt>
      <trkpt lat="47.93474" lon="-4.14004">
        <ele>80.7</ele>
        <time>2022-05-28T12:31:38Z</time>
      </trkpt>
      <trkpt lat="47.93488" lon="-4.13986">
        <ele>80.8</ele>
        <time>2022-05-28T12:31:40Z</time>
      </trkpt>
      <trkpt lat="47.93524" lon="-4.13938">
        <ele>80.8</ele>
        <time>2022-05-28T12:31:45Z</time>
      </trkpt>
      <trkpt lat="47.93562" lon="-4.13893">
        <ele>80.9</ele>
        <time>2022-05-28T12:31:51Z</time>
      </trkpt>
      <trkpt lat="47.93583" lon="-4.13868">
        <ele>81.1</ele>
        <time>2022-05-28T12:31:56Z</time>
      </trkpt>
      <trkpt lat="47.936" lon="-4.13847">
        <ele>82.3</ele>
        <time>2022-05-28T12:32:00Z</time>
      </trkpt>
      <trkpt lat="47.93606" lon="-4.13839">
        <ele>82.9</ele>
        <time>2022-05-28T12:32:02Z</time>
      </trkpt>
      <trkpt lat="47.93634" lon="-4.13804">
        <ele>85.2</ele>
        <time>2022-05-28T12:32:10Z</time>
      </trkpt>
      <trkpt lat="47.93645" lon="-4.13792">
        <ele>86.1</ele>
        <time>2022-05-28T12:32:13Z</time>
      </trkpt>
      <trkpt lat="47.93667" lon="-4.13768">
        <ele>86.8</ele>
        <time>2022-05-28T12:32:19Z</time>
      </trkpt>
      <trkpt lat="47.93671" lon="-4.13764">
        <ele>86.9</ele>
        <time>2022-05-28T12:32:20Z</time>
      </trkpt>
      <trkpt lat="47.93695" lon="-4.1375">
        <ele>87.3</ele>
        <time>2022-05-28T12:32:25Z</time>
      </trkpt>
      <trkpt lat="47.93701" lon="-4.13747">
        <ele>87.3</ele>
        <time>2022-05-28T12:32:26Z</time>
      </trkpt>
      <trkpt lat="47.93749" lon="-4.13724">
        <ele>87.2</ele>
        <time>2022-05-28T12:32:34Z</time>
      </trkpt>
      <trkpt lat="47.93768" lon="-4.13718">
        <ele>87.2</ele>
        <time>2022-05-28T12:32:37Z</time>
      </trkpt>
      <trkpt lat="47.93811" lon="-4.13695">
        <ele>87.2</ele>
        <time>2022-05-28T12:32:44Z</time>
      </trkpt>
      <trkpt lat="47.93852" lon="-4.13675">
        <ele>87.2</ele>
        <time>2022-05-28T12:32:52Z</time>
      </trkpt>
      <trkpt lat="47.93867" lon="-4.13669">
        <ele>87.2</ele>
        <time>2022-05-28T12:32:55Z</time>
      </trkpt>
      <trkpt lat="47.93899" lon="-4.13656">
        <ele>88</ele>
        <time>2022-05-28T12:33:01Z</time>
      </trkpt>
      <trkpt lat="47.93919" lon="-4.13648">
        <ele>88.5</ele>
        <time>2022-05-28T12:33:05Z</time>
      </trkpt>
      <trkpt lat="47.93959" lon="-4.13636">
        <ele>89.5</ele>
        <time>2022-05-28T12:33:13Z</time>
      </trkpt>
      <trkpt lat="47.93964" lon="-4.13635">
        <ele>89.6</ele>
        <time>2022-05-28T12:33:14Z</time>
      </trkpt>
      <trkpt lat="47.93987" lon="-4.13629">
        <ele>90.1</ele>
        <time>2022-05-28T12:33:19Z</time>
      </trkpt>
      <trkpt lat="47.94033" lon="-4.13615">
        <ele>91.1</ele>
        <time>2022-05-28T12:33:29Z</time>
      </trkpt>
      <trkpt lat="47.94059" lon="-4.13608">
        <ele>91.8</ele>
        <time>2022-05-28T12:33:35Z</time>
      </trkpt>
      <trkpt lat="47.94098" lon="-4.136">
        <ele>92.6</ele>
        <time>2022-05-28T12:33:43Z</time>
      </trkpt>
      <trkpt lat="47.94108" lon="-4.13598">
        <ele>92.9</ele>
        <time>2022-05-28T12:33:45Z</time>
      </trkpt>
      <trkpt lat="47.94127" lon="-4.13601">
        <ele>93.4</ele>
        <time>2022-05-28T12:33:49Z</time>
      </trkpt>
      <trkpt lat="47.94157" lon="-4.13605">
        <ele>94.1</ele>
        <time>2022-05-28T12:33:55Z</time>
      </trkpt>
      <trkpt lat="47.94203" lon="-4.13614">
        <ele>95.2</ele>
        <time>2022-05-28T12:34:04Z</time>
      </trkpt>
      <trkpt lat="47.94249" lon="-4.13616">
        <ele>96.1</ele>
        <time>2022-05-28T12:34:12Z</time>
      </trkpt>
      <trkpt lat="47.94275" lon="-4.13615">
        <ele>96.7</ele>
        <time>2022-05-28T12:34:17Z</time>
      </trkpt>
      <trkpt lat="47.94296" lon="-4.13613">
        <ele>97.2</ele>
        <time>2022-05-28T12:34:21Z</time>
      </trkpt>
      <trkpt lat="47.94343" lon="-4.13608">
        <ele>98.3</ele>
        <time>2022-05-28T12:34:30Z</time>
      </trkpt>
      <trkpt lat="47.94355" lon="-4.13606">
        <ele>98.5</ele>
        <time>2022-05-28T12:34:32Z</time>
      </trkpt>
      <trkpt lat="47.94389" lon="-4.13602">
        <ele>98.4</ele>
        <time>2022-05-28T12:34:38Z</time>
      </trkpt>
      <trkpt lat="47.94434" lon="-4.13586">
        <ele>98.3</ele>
        <time>2022-05-28T12:34:46Z</time>
      </trkpt>
      <trkpt lat="47.94476" lon="-4.13567">
        <ele>98.2</ele>
        <time>2022-05-28T12:34:53Z</time>
      </trkpt>
      <trkpt lat="47.94509" lon="-4.13531">
        <ele>98.1</ele>
        <time>2022-05-28T12:34:59Z</time>
      </trkpt>
      <trkpt lat="47.94544" lon="-4.13482">
        <ele>98</ele>
        <time>2022-05-28T12:35:07Z</time>
      </trkpt>
      <trkpt lat="47.9458" lon="-4.13432">
        <ele>97.9</ele>
        <time>2022-05-28T12:35:15Z</time>
      </trkpt>
      <trkpt lat="47.94611" lon="-4.13388">
        <ele>97.8</ele>
        <time>2022-05-28T12:35:21Z</time>
      </trkpt>
      <trkpt lat="47.94617" lon="-4.13381">
        <ele>97.7</ele>
        <time>2022-05-28T12:35:22Z</time>
      </trkpt>
      <trkpt lat="47.9465" lon="-4.13331">
        <ele>97</ele>
        <time>2022-05-28T12:35:28Z</time>
      </trkpt>
      <trkpt lat="47.94661" lon="-4.13314">
        <ele>96.8</ele>
        <time>2022-05-28T12:35:30Z</time>
      </trkpt>
      <trkpt lat="47.94669" lon="-4.13294">
        <ele>96.6</ele>
        <time>2022-05-28T12:35:32Z</time>
      </trkpt>
      <trkpt lat="47.94696" lon="-4.13233">
        <ele>95.9</ele>
        <time>2022-05-28T12:35:39Z</time>
      </trkpt>
      <trkpt lat="47.94718" lon="-4.13167">
        <ele>94.9</ele>
        <time>2022-05-28T12:35:46Z</time>
      </trkpt>
      <trkpt lat="47.94725" lon="-4.13145">
        <ele>94.6</ele>
        <time>2022-05-28T12:35:48Z</time>
      </trkpt>
      <trkpt lat="47.94737" lon="-4.13108">
        <ele>94</ele>
        <time>2022-05-28T12:35:51Z</time>
      </trkpt>
      <trkpt lat="47.94746" lon="-4.13083">
        <ele>92.8</ele>
        <time>2022-05-28T12:35:53Z</time>
      </trkpt>
      <trkpt lat="47.94765" lon="-4.13026">
        <ele>90.4</ele>
        <time>2022-05-28T12:35:57Z</time>
      </trkpt>
      <trkpt lat="47.9477" lon="-4.13012">
        <ele>89.9</ele>
        <time>2022-05-28T12:35:58Z</time>
      </trkpt>
      <trkpt lat="47.94795" lon="-4.12939">
        <ele>87.5</ele>
        <time>2022-05-28T12:36:03Z</time>
      </trkpt>
      <trkpt lat="47.94816" lon="-4.12885">
        <ele>87</ele>
        <time>2022-05-28T12:36:07Z</time>
      </trkpt>
      <trkpt lat="47.94839" lon="-4.1282">
        <ele>86.3</ele>
        <time>2022-05-28T12:36:13Z</time>
      </trkpt>
      <trkpt lat="47.94844" lon="-4.12813">
        <ele>86.3</ele>
        <time>2022-05-28T12:36:14Z</time>
      </trkpt>
      <trkpt lat="47.94864" lon="-4.12787">
        <ele>87</ele>
        <time>2022-05-28T12:36:18Z</time>
      </trkpt>
      <trkpt lat="47.94871" lon="-4.12782">
        <ele>87.2</ele>
        <time>2022-05-28T12:36:19Z</time>
      </trkpt>
      <trkpt lat="47.94896" lon="-4.12767">
        <ele>87.2</ele>
        <time>2022-05-28T12:36:23Z</time>
      </trkpt>
      <trkpt lat="47.9491" lon="-4.12766">
        <ele>87.2</ele>
        <time>2022-05-28T12:36:25Z</time>
      </trkpt>
      <trkpt lat="47.94945" lon="-4.12766">
        <ele>86.3</ele>
        <time>2022-05-28T12:36:30Z</time>
      </trkpt>
      <trkpt lat="47.94978" lon="-4.12789">
        <ele>85.4</ele>
        <time>2022-05-28T12:36:35Z</time>
      </trkpt>
      <trkpt lat="47.94984" lon="-4.12797">
        <ele>85.3</ele>
        <time>2022-05-28T12:36:36Z</time>
      </trkpt>
      <trkpt lat="47.94997" lon="-4.12809">
        <ele>84.9</ele>
        <time>2022-05-28T12:36:38Z</time>
      </trkpt>
      <trkpt lat="47.95033" lon="-4.12858">
        <ele>83.9</ele>
        <time>2022-05-28T12:36:43Z</time>
      </trkpt>
      <trkpt lat="47.95073" lon="-4.12906">
        <ele>80.9</ele>
        <time>2022-05-28T12:36:48Z</time>
      </trkpt>
      <trkpt lat="47.95082" lon="-4.12913">
        <ele>80.4</ele>
        <time>2022-05-28T12:36:49Z</time>
      </trkpt>
      <trkpt lat="47.95091" lon="-4.1292">
        <ele>79.8</ele>
        <time>2022-05-28T12:36:50Z</time>
      </trkpt>
      <trkpt lat="47.95123" lon="-4.12932">
        <ele>78.1</ele>
        <time>2022-05-28T12:36:53Z</time>
      </trkpt>
      <trkpt lat="47.95171" lon="-4.12932">
        <ele>75.9</ele>
        <time>2022-05-28T12:36:57Z</time>
      </trkpt>
      <trkpt lat="47.95218" lon="-4.12924">
        <ele>73.7</ele>
        <time>2022-05-28T12:37:01Z</time>
      </trkpt>
      <trkpt lat="47.95271" lon="-4.12915">
        <ele>71.1</ele>
        <time>2022-05-28T12:37:06Z</time>
      </trkpt>
      <trkpt lat="47.95282" lon="-4.12912">
        <ele>70.6</ele>
        <time>2022-05-28T12:37:07Z</time>
      </trkpt>
      <trkpt lat="47.95316" lon="-4.12903">
        <ele>68.9</ele>
        <time>2022-05-28T12:37:10Z</time>
      </trkpt>
      <trkpt lat="47.95351" lon="-4.1289">
        <ele>67.4</ele>
        <time>2022-05-28T12:37:13Z</time>
      </trkpt>
      <trkpt lat="47.95363" lon="-4.12886">
        <ele>67.4</ele>
        <time>2022-05-28T12:37:14Z</time>
      </trkpt>
      <trkpt lat="47.95407" lon="-4.12872">
        <ele>67.4</ele>
        <time>2022-05-28T12:37:18Z</time>
      </trkpt>
      <trkpt lat="47.95415" lon="-4.12867">
        <ele>67.4</ele>
        <time>2022-05-28T12:37:19Z</time>
      </trkpt>
      <trkpt lat="47.95432" lon="-4.12847">
        <ele>67.4</ele>
        <time>2022-05-28T12:37:22Z</time>
      </trkpt>
      <trkpt lat="47.95483" lon="-4.12795">
        <ele>76.5</ele>
        <time>2022-05-28T12:37:25Z</time>
      </trkpt>
      <trkpt lat="47.95483" lon="-4.12795">
        <ele>76.5</ele>
        <time>2022-05-28T12:39:59Z</time>
      </trkpt>
      <trkpt lat="47.95527" lon="-4.12754">
        <ele>85.7</ele>
        <time>2022-05-28T12:40:01Z</time>
      </trkpt>
      <trkpt lat="47.95536" lon="-4.12751">
        <ele>85.8</ele>
        <time>2022-05-28T12:40:03Z</time>
      </trkpt>
      <trkpt lat="47.9554" lon="-4.12778">
        <ele>85.8</ele>
        <time>2022-05-28T12:40:04Z</time>
      </trkpt>
      <trkpt lat="47.9555" lon="-4.12792">
        <ele>86</ele>
        <time>2022-05-28T12:40:07Z</time>
      </trkpt>
      <trkpt lat="47.95594" lon="-4.12806">
        <ele>86.6</ele>
        <time>2022-05-28T12:40:17Z</time>
      </trkpt>
      <trkpt lat="47.95611" lon="-4.12807">
        <ele>86.9</ele>
        <time>2022-05-28T12:40:22Z</time>
      </trkpt>
      <trkpt lat="47.95631" lon="-4.12809">
        <ele>88.5</ele>
        <time>2022-05-28T12:40:28Z</time>
      </trkpt>
      <trkpt lat="47.95642" lon="-4.1281">
        <ele>88.8</ele>
        <time>2022-05-28T12:40:31Z</time>
      </trkpt>
      <trkpt lat="47.9565" lon="-4.1281">
        <ele>89</ele>
        <time>2022-05-28T12:40:33Z</time>
      </trkpt>
      <trkpt lat="47.95658" lon="-4.12809">
        <ele>89.1</ele>
        <time>2022-05-28T12:40:35Z</time>
      </trkpt>
      <trkpt lat="47.95662" lon="-4.12806">
        <ele>89.2</ele>
        <time>2022-05-28T12:40:36Z</time>
      </trkpt>
      <trkpt lat="47.95676" lon="-4.12807">
        <ele>89.3</ele>
        <time>2022-05-28T12:40:39Z</time>
      </trkpt>
      <trkpt lat="47.95713" lon="-4.12808">
        <ele>88.5</ele>
        <time>2022-05-28T12:40:47Z</time>
      </trkpt>
      <trkpt lat="47.95762" lon="-4.12808">
        <ele>87.5</ele>
        <time>2022-05-28T12:40:56Z</time>
      </trkpt>
      <trkpt lat="47.95768" lon="-4.12809">
        <ele>87.4</ele>
        <time>2022-05-28T12:40:57Z</time>
      </trkpt>
      <trkpt lat="47.95813" lon="-4.12815">
        <ele>87.2</ele>
        <time>2022-05-28T12:41:04Z</time>
      </trkpt>
      <trkpt lat="47.9584" lon="-4.12818">
        <ele>87.2</ele>
        <time>2022-05-28T12:41:09Z</time>
      </trkpt>
      <trkpt lat="47.95861" lon="-4.12821">
        <ele>88.3</ele>
        <time>2022-05-28T12:41:13Z</time>
      </trkpt>
      <trkpt lat="47.95869" lon="-4.12822">
        <ele>88.9</ele>
        <time>2022-05-28T12:41:15Z</time>
      </trkpt>
      <trkpt lat="47.95893" lon="-4.12828">
        <ele>90.3</ele>
        <time>2022-05-28T12:41:21Z</time>
      </trkpt>
      <trkpt lat="47.9591" lon="-4.12831">
        <ele>90.9</ele>
        <time>2022-05-28T12:41:25Z</time>
      </trkpt>
      <trkpt lat="47.95921" lon="-4.12833">
        <ele>91.1</ele>
        <time>2022-05-28T12:41:27Z</time>
      </trkpt>
      <trkpt lat="47.95954" lon="-4.1284">
        <ele>90.7</ele>
        <time>2022-05-28T12:41:33Z</time>
      </trkpt>
      <trkpt lat="47.9596" lon="-4.12841">
        <ele>90.5</ele>
        <time>2022-05-28T12:41:34Z</time>
      </trkpt>
      <trkpt lat="47.95986" lon="-4.12841">
        <ele>89.8</ele>
        <time>2022-05-28T12:41:38Z</time>
      </trkpt>
      <trkpt lat="47.95993" lon="-4.12842">
        <ele>89.5</ele>
        <time>2022-05-28T12:41:39Z</time>
      </trkpt>
      <trkpt lat="47.96016" lon="-4.12835">
        <ele>88.5</ele>
        <time>2022-05-28T12:41:42Z</time>
      </trkpt>
      <trkpt lat="47.9604" lon="-4.12817">
        <ele>87.4</ele>
        <time>2022-05-28T12:41:45Z</time>
      </trkpt>
      <trkpt lat="47.96063" lon="-4.12799">
        <ele>85.9</ele>
        <time>2022-05-28T12:41:48Z</time>
      </trkpt>
      <trkpt lat="47.96079" lon="-4.12772">
        <ele>84.3</ele>
        <time>2022-05-28T12:41:51Z</time>
      </trkpt>
      <trkpt lat="47.96095" lon="-4.12746">
        <ele>82.9</ele>
        <time>2022-05-28T12:41:54Z</time>
      </trkpt>
      <trkpt lat="47.9613" lon="-4.127">
        <ele>80.6</ele>
        <time>2022-05-28T12:41:59Z</time>
      </trkpt>
      <trkpt lat="47.96139" lon="-4.12691">
        <ele>80.1</ele>
        <time>2022-05-28T12:42:00Z</time>
      </trkpt>
      <trkpt lat="47.96173" lon="-4.12675">
        <ele>78.6</ele>
        <time>2022-05-28T12:42:03Z</time>
      </trkpt>
      <trkpt lat="47.96185" lon="-4.12671">
        <ele>78.1</ele>
        <time>2022-05-28T12:42:04Z</time>
      </trkpt>
      <trkpt lat="47.96231" lon="-4.12669">
        <ele>75.8</ele>
        <time>2022-05-28T12:42:08Z</time>
      </trkpt>
      <trkpt lat="47.96243" lon="-4.12673">
        <ele>75.3</ele>
        <time>2022-05-28T12:42:09Z</time>
      </trkpt>
      <trkpt lat="47.96264" lon="-4.12683">
        <ele>74.2</ele>
        <time>2022-05-28T12:42:11Z</time>
      </trkpt>
      <trkpt lat="47.96293" lon="-4.12706">
        <ele>72.6</ele>
        <time>2022-05-28T12:42:14Z</time>
      </trkpt>
      <trkpt lat="47.96304" lon="-4.1271">
        <ele>72.1</ele>
        <time>2022-05-28T12:42:15Z</time>
      </trkpt>
      <trkpt lat="47.96327" lon="-4.12716">
        <ele>70.8</ele>
        <time>2022-05-28T12:42:17Z</time>
      </trkpt>
      <trkpt lat="47.96349" lon="-4.12705">
        <ele>69.6</ele>
        <time>2022-05-28T12:42:19Z</time>
      </trkpt>
      <trkpt lat="47.96359" lon="-4.12695">
        <ele>69</ele>
        <time>2022-05-28T12:42:20Z</time>
      </trkpt>
      <trkpt lat="47.96367" lon="-4.12684">
        <ele>68.4</ele>
        <time>2022-05-28T12:42:21Z</time>
      </trkpt>
      <trkpt lat="47.96414" lon="-4.12642">
        <ele>65.6</ele>
        <time>2022-05-28T12:42:26Z</time>
      </trkpt>
      <trkpt lat="47.96423" lon="-4.12632">
        <ele>65.1</ele>
        <time>2022-05-28T12:42:27Z</time>
      </trkpt>
      <trkpt lat="47.96431" lon="-4.12621">
        <ele>64.8</ele>
        <time>2022-05-28T12:42:28Z</time>
      </trkpt>
      <trkpt lat="47.96446" lon="-4.12581">
        <ele>63.9</ele>
        <time>2022-05-28T12:42:31Z</time>
      </trkpt>
      <trkpt lat="47.9645" lon="-4.12553">
        <ele>63.4</ele>
        <time>2022-05-28T12:42:33Z</time>
      </trkpt>
      <trkpt lat="47.96455" lon="-4.1248">
        <ele>61.9</ele>
        <time>2022-05-28T12:42:38Z</time>
      </trkpt>
      <trkpt lat="47.96465" lon="-4.12436">
        <ele>60.6</ele>
        <time>2022-05-28T12:42:41Z</time>
      </trkpt>
      <trkpt lat="47.96479" lon="-4.12412">
        <ele>59.7</ele>
        <time>2022-05-28T12:42:43Z</time>
      </trkpt>
      <trkpt lat="47.96498" lon="-4.12398">
        <ele>58.9</ele>
        <time>2022-05-28T12:42:45Z</time>
      </trkpt>
      <trkpt lat="47.9652" lon="-4.12396">
        <ele>58</ele>
        <time>2022-05-28T12:42:47Z</time>
      </trkpt>
      <trkpt lat="47.96538" lon="-4.12402">
        <ele>57.3</ele>
        <time>2022-05-28T12:42:49Z</time>
      </trkpt>
      <trkpt lat="47.96564" lon="-4.1241">
        <ele>57.7</ele>
        <time>2022-05-28T12:42:52Z</time>
      </trkpt>
      <trkpt lat="47.96578" lon="-4.12416">
        <ele>58</ele>
        <time>2022-05-28T12:42:54Z</time>
      </trkpt>
      <trkpt lat="47.96611" lon="-4.12429">
        <ele>59.7</ele>
        <time>2022-05-28T12:42:59Z</time>
      </trkpt>
      <trkpt lat="47.96616" lon="-4.1243">
        <ele>60</ele>
        <time>2022-05-28T12:43:00Z</time>
      </trkpt>
      <trkpt lat="47.96651" lon="-4.12439">
        <ele>61.8</ele>
        <time>2022-05-28T12:43:06Z</time>
      </trkpt>
      <trkpt lat="47.96656" lon="-4.12441">
        <ele>61.9</ele>
        <time>2022-05-28T12:43:07Z</time>
      </trkpt>
      <trkpt lat="47.96685" lon="-4.12449">
        <ele>62.4</ele>
        <time>2022-05-28T12:43:12Z</time>
      </trkpt>
      <trkpt lat="47.96701" lon="-4.12454">
        <ele>62.8</ele>
        <time>2022-05-28T12:43:15Z</time>
      </trkpt>
      <trkpt lat="47.96716" lon="-4.12467">
        <ele>63.3</ele>
        <time>2022-05-28T12:43:18Z</time>
      </trkpt>
      <trkpt lat="47.9674" lon="-4.12488">
        <ele>63.9</ele>
        <time>2022-05-28T12:43:23Z</time>
      </trkpt>
      <trkpt lat="47.96745" lon="-4.12492">
        <ele>64.1</ele>
        <time>2022-05-28T12:43:24Z</time>
      </trkpt>
      <trkpt lat="47.96779" lon="-4.12527">
        <ele>66</ele>
        <time>2022-05-28T12:43:32Z</time>
      </trkpt>
      <trkpt lat="47.96813" lon="-4.1256">
        <ele>68.5</ele>
        <time>2022-05-28T12:43:42Z</time>
      </trkpt>
      <trkpt lat="47.9682" lon="-4.12567">
        <ele>69</ele>
        <time>2022-05-28T12:43:44Z</time>
      </trkpt>
      <trkpt lat="47.96847" lon="-4.12603">
        <ele>71.5</ele>
        <time>2022-05-28T12:43:54Z</time>
      </trkpt>
      <trkpt lat="47.96855" lon="-4.12614">
        <ele>71.9</ele>
        <time>2022-05-28T12:43:57Z</time>
      </trkpt>
      <trkpt lat="47.96859" lon="-4.12621">
        <ele>72.2</ele>
        <time>2022-05-28T12:44:00Z</time>
      </trkpt>
      <trkpt lat="47.96868" lon="-4.12634">
        <ele>72.7</ele>
        <time>2022-05-28T12:44:06Z</time>
      </trkpt>
      <trkpt lat="47.96882" lon="-4.12654">
        <ele>73.2</ele>
        <time>2022-05-28T12:44:14Z</time>
      </trkpt>
      <trkpt lat="47.96916" lon="-4.12685">
        <ele>73.5</ele>
        <time>2022-05-28T12:44:18Z</time>
      </trkpt>
      <trkpt lat="47.96922" lon="-4.12696">
        <ele>73.6</ele>
        <time>2022-05-28T12:44:19Z</time>
      </trkpt>
      <trkpt lat="47.96972" lon="-4.12715">
        <ele>74.1</ele>
        <time>2022-05-28T12:44:26Z</time>
      </trkpt>
      <trkpt lat="47.97021" lon="-4.12725">
        <ele>74.6</ele>
        <time>2022-05-28T12:44:34Z</time>
      </trkpt>
      <trkpt lat="47.9703" lon="-4.12725">
        <ele>74.8</ele>
        <time>2022-05-28T12:44:36Z</time>
      </trkpt>
      <trkpt lat="47.97066" lon="-4.12724">
        <ele>77</ele>
        <time>2022-05-28T12:44:44Z</time>
      </trkpt>
      <trkpt lat="47.97076" lon="-4.12722">
        <ele>77.8</ele>
        <time>2022-05-28T12:44:47Z</time>
      </trkpt>
      <trkpt lat="47.97113" lon="-4.12715">
        <ele>80.9</ele>
        <time>2022-05-28T12:44:58Z</time>
      </trkpt>
      <trkpt lat="47.97144" lon="-4.12711">
        <ele>83.5</ele>
        <time>2022-05-28T12:45:09Z</time>
      </trkpt>
      <trkpt lat="47.97159" lon="-4.12709">
        <ele>84.5</ele>
        <time>2022-05-28T12:45:14Z</time>
      </trkpt>
      <trkpt lat="47.9719" lon="-4.12709">
        <ele>87.1</ele>
        <time>2022-05-28T12:45:27Z</time>
      </trkpt>
      <trkpt lat="47.97195" lon="-4.12709">
        <ele>87.3</ele>
        <time>2022-05-28T12:45:29Z</time>
      </trkpt>
      <trkpt lat="47.97218" lon="-4.12705">
        <ele>87.7</ele>
        <time>2022-05-28T12:45:33Z</time>
      </trkpt>
      <trkpt lat="47.97241" lon="-4.127">
        <ele>87.6</ele>
        <time>2022-05-28T12:45:37Z</time>
      </trkpt>
      <trkpt lat="47.97287" lon="-4.1269">
        <ele>87.3</ele>
        <time>2022-05-28T12:45:46Z</time>
      </trkpt>
      <trkpt lat="47.97307" lon="-4.12691">
        <ele>87.1</ele>
        <time>2022-05-28T12:45:50Z</time>
      </trkpt>
      <trkpt lat="47.97354" lon="-4.12705">
        <ele>86.8</ele>
        <time>2022-05-28T12:46:00Z</time>
      </trkpt>
      <trkpt lat="47.97404" lon="-4.12715">
        <ele>86.5</ele>
        <time>2022-05-28T12:46:08Z</time>
      </trkpt>
      <trkpt lat="47.97409" lon="-4.12717">
        <ele>86.5</ele>
        <time>2022-05-28T12:46:09Z</time>
      </trkpt>
      <trkpt lat="47.97442" lon="-4.12729">
        <ele>85.9</ele>
        <time>2022-05-28T12:46:15Z</time>
      </trkpt>
      <trkpt lat="47.97453" lon="-4.12734">
        <ele>85.7</ele>
        <time>2022-05-28T12:46:17Z</time>
      </trkpt>
      <trkpt lat="47.97499" lon="-4.12762">
        <ele>84.9</ele>
        <time>2022-05-28T12:46:25Z</time>
      </trkpt>
      <trkpt lat="47.97537" lon="-4.12782">
        <ele>84.2</ele>
        <time>2022-05-28T12:46:32Z</time>
      </trkpt>
      <trkpt lat="47.97547" lon="-4.12777">
        <ele>84</ele>
        <time>2022-05-28T12:46:34Z</time>
      </trkpt>
      <trkpt lat="47.97578" lon="-4.12717">
        <ele>83</ele>
        <time>2022-05-28T12:46:43Z</time>
      </trkpt>
      <trkpt lat="47.97607" lon="-4.12662">
        <ele>82.2</ele>
        <time>2022-05-28T12:46:50Z</time>
      </trkpt>
      <trkpt lat="47.97635" lon="-4.12608">
        <ele>80.7</ele>
        <time>2022-05-28T12:46:56Z</time>
      </trkpt>
      <trkpt lat="47.97665" lon="-4.1255">
        <ele>78.9</ele>
        <time>2022-05-28T12:47:02Z</time>
      </trkpt>
      <trkpt lat="47.97685" lon="-4.12505">
        <ele>77.6</ele>
        <time>2022-05-28T12:47:06Z</time>
      </trkpt>
      <trkpt lat="47.97695" lon="-4.12482">
        <ele>76.8</ele>
        <time>2022-05-28T12:47:08Z</time>
      </trkpt>
      <trkpt lat="47.97724" lon="-4.12428">
        <ele>74.6</ele>
        <time>2022-05-28T12:47:13Z</time>
      </trkpt>
      <trkpt lat="47.97737" lon="-4.12409">
        <ele>73.7</ele>
        <time>2022-05-28T12:47:15Z</time>
      </trkpt>
      <trkpt lat="47.97754" lon="-4.12373">
        <ele>72.4</ele>
        <time>2022-05-28T12:47:18Z</time>
      </trkpt>
      <trkpt lat="47.97765" lon="-4.12349">
        <ele>71.5</ele>
        <time>2022-05-28T12:47:20Z</time>
      </trkpt>
      <trkpt lat="47.97789" lon="-4.12288">
        <ele>69.3</ele>
        <time>2022-05-28T12:47:25Z</time>
      </trkpt>
      <trkpt lat="47.97813" lon="-4.12229">
        <ele>67</ele>
        <time>2022-05-28T12:47:30Z</time>
      </trkpt>
      <trkpt lat="47.97843" lon="-4.12167">
        <ele>64.7</ele>
        <time>2022-05-28T12:47:36Z</time>
      </trkpt>
      <trkpt lat="47.97875" lon="-4.12146">
        <ele>63.1</ele>
        <time>2022-05-28T12:47:40Z</time>
      </trkpt>
      <trkpt lat="47.97887" lon="-4.12143">
        <ele>62.3</ele>
        <time>2022-05-28T12:47:42Z</time>
      </trkpt>
      <trkpt lat="47.97915" lon="-4.12133">
        <ele>59.8</ele>
        <time>2022-05-28T12:47:47Z</time>
      </trkpt>
      <trkpt lat="47.97918" lon="-4.12127">
        <ele>59.4</ele>
        <time>2022-05-28T12:47:48Z</time>
      </trkpt>
      <trkpt lat="47.97935" lon="-4.12099">
        <ele>58.4</ele>
        <time>2022-05-28T12:47:53Z</time>
      </trkpt>
      <trkpt lat="47.97985" lon="-4.12085">
        <ele>56.9</ele>
        <time>2022-05-28T12:48:00Z</time>
      </trkpt>
      <trkpt lat="47.98038" lon="-4.12072">
        <ele>53.9</ele>
        <time>2022-05-28T12:48:06Z</time>
      </trkpt>
      <trkpt lat="47.98047" lon="-4.12068">
        <ele>53.8</ele>
        <time>2022-05-28T12:48:07Z</time>
      </trkpt>
      <trkpt lat="47.98132" lon="-4.12021">
        <ele>54.6</ele>
        <time>2022-05-28T12:48:17Z</time>
      </trkpt>
      <trkpt lat="47.98132" lon="-4.12021">
        <ele>54.6</ele>
        <time>2022-05-28T12:52:37Z</time>
      </trkpt>
      <trkpt lat="47.98175" lon="-4.12001">
        <ele>55.8</ele>
        <time>2022-05-28T12:52:41Z</time>
      </trkpt>
      <trkpt lat="47.98218" lon="-4.11976">
        <ele>55.9</ele>
        <time>2022-05-28T12:52:52Z</time>
      </trkpt>
      <trkpt lat="47.98238" lon="-4.11963">
        <ele>56</ele>
        <time>2022-05-28T12:52:57Z</time>
      </trkpt>
      <trkpt lat="47.98257" lon="-4.11949">
        <ele>56.1</ele>
        <time>2022-05-28T12:53:02Z</time>
      </trkpt>
      <trkpt lat="47.98261" lon="-4.11947">
        <ele>56.3</ele>
        <time>2022-05-28T12:53:03Z</time>
      </trkpt>
      <trkpt lat="47.98277" lon="-4.11933">
        <ele>56.9</ele>
        <time>2022-05-28T12:53:07Z</time>
      </trkpt>
      <trkpt lat="47.98304" lon="-4.11909">
        <ele>57.8</ele>
        <time>2022-05-28T12:53:14Z</time>
      </trkpt>
      <trkpt lat="47.98321" lon="-4.11885">
        <ele>58.5</ele>
        <time>2022-05-28T12:53:19Z</time>
      </trkpt>
      <trkpt lat="47.98338" lon="-4.1186">
        <ele>59.2</ele>
        <time>2022-05-28T12:53:24Z</time>
      </trkpt>
      <trkpt lat="47.98351" lon="-4.11826">
        <ele>59.5</ele>
        <time>2022-05-28T12:53:30Z</time>
      </trkpt>
      <trkpt lat="47.98361" lon="-4.11799">
        <ele>59</ele>
        <time>2022-05-28T12:53:35Z</time>
      </trkpt>
      <trkpt lat="47.98366" lon="-4.11766">
        <ele>58.3</ele>
        <time>2022-05-28T12:53:42Z</time>
      </trkpt>
      <trkpt lat="47.98363" lon="-4.11765">
        <ele>58.1</ele>
        <time>2022-05-28T12:53:44Z</time>
      </trkpt>
      <trkpt lat="47.98362" lon="-4.11767">
        <ele>57.7</ele>
        <time>2022-05-28T12:53:48Z</time>
      </trkpt>
      <trkpt lat="47.98365" lon="-4.11747">
        <ele>57.1</ele>
        <time>2022-05-28T12:53:54Z</time>
      </trkpt>
      <trkpt lat="47.98368" lon="-4.11741">
        <ele>56.8</ele>
        <time>2022-05-28T12:53:56Z</time>
      </trkpt>
      <trkpt lat="47.98397" lon="-4.11723">
        <ele>55.9</ele>
        <time>2022-05-28T12:54:02Z</time>
      </trkpt>
      <trkpt lat="47.98418" lon="-4.11716">
        <ele>55.3</ele>
        <time>2022-05-28T12:54:06Z</time>
      </trkpt>
      <trkpt lat="47.98445" lon="-4.11707">
        <ele>55.5</ele>
        <time>2022-05-28T12:54:11Z</time>
      </trkpt>
      <trkpt lat="47.98451" lon="-4.11706">
        <ele>55.5</ele>
        <time>2022-05-28T12:54:12Z</time>
      </trkpt>
      <trkpt lat="47.98495" lon="-4.11691">
        <ele>55.6</ele>
        <time>2022-05-28T12:54:20Z</time>
      </trkpt>
      <trkpt lat="47.9854" lon="-4.11677">
        <ele>55.6</ele>
        <time>2022-05-28T12:54:28Z</time>
      </trkpt>
      <trkpt lat="47.98583" lon="-4.11663">
        <ele>55.7</ele>
        <time>2022-05-28T12:54:36Z</time>
      </trkpt>
      <trkpt lat="47.98615" lon="-4.11648">
        <ele>55.7</ele>
        <time>2022-05-28T12:54:43Z</time>
      </trkpt>
      <trkpt lat="47.98655" lon="-4.11613">
        <ele>55.7</ele>
        <time>2022-05-28T12:54:52Z</time>
      </trkpt>
      <trkpt lat="47.98697" lon="-4.1157">
        <ele>55.8</ele>
        <time>2022-05-28T12:55:01Z</time>
      </trkpt>
      <trkpt lat="47.98734" lon="-4.11532">
        <ele>55.8</ele>
        <time>2022-05-28T12:55:09Z</time>
      </trkpt>
      <trkpt lat="47.98773" lon="-4.11486">
        <ele>55.8</ele>
        <time>2022-05-28T12:55:18Z</time>
      </trkpt>
      <trkpt lat="47.98813" lon="-4.1144">
        <ele>55.9</ele>
        <time>2022-05-28T12:55:27Z</time>
      </trkpt>
      <trkpt lat="47.98853" lon="-4.11396">
        <ele>55.9</ele>
        <time>2022-05-28T12:55:36Z</time>
      </trkpt>
      <trkpt lat="47.98892" lon="-4.1135">
        <ele>56</ele>
        <time>2022-05-28T12:55:45Z</time>
      </trkpt>
      <trkpt lat="47.9893" lon="-4.11311">
        <ele>56</ele>
        <time>2022-05-28T12:55:56Z</time>
      </trkpt>
      <trkpt lat="47.98971" lon="-4.11277">
        <ele>56</ele>
        <time>2022-05-28T12:56:05Z</time>
      </trkpt>
      <trkpt lat="47.99014" lon="-4.11241">
        <ele>56.1</ele>
        <time>2022-05-28T12:56:14Z</time>
      </trkpt>
      <trkpt lat="47.99032" lon="-4.1122">
        <ele>56.1</ele>
        <time>2022-05-28T12:56:20Z</time>
      </trkpt>
      <trkpt lat="47.99034" lon="-4.11214">
        <ele>56.1</ele>
        <time>2022-05-28T12:56:21Z</time>
      </trkpt>
      <trkpt lat="47.99071" lon="-4.11166">
        <ele>56.2</ele>
        <time>2022-05-28T12:56:31Z</time>
      </trkpt>
      <trkpt lat="47.99105" lon="-4.11115">
        <ele>56.2</ele>
        <time>2022-05-28T12:56:40Z</time>
      </trkpt>
      <trkpt lat="47.99136" lon="-4.11063">
        <ele>56.2</ele>
        <time>2022-05-28T12:56:48Z</time>
      </trkpt>
      <trkpt lat="47.99169" lon="-4.11013">
        <ele>56.3</ele>
        <time>2022-05-28T12:56:56Z</time>
      </trkpt>
      <trkpt lat="47.99202" lon="-4.10963">
        <ele>56.3</ele>
        <time>2022-05-28T12:57:04Z</time>
      </trkpt>
      <trkpt lat="47.99257" lon="-4.10866">
        <ele>56.4</ele>
        <time>2022-05-28T12:57:14Z</time>
      </trkpt>
      <trkpt lat="47.99257" lon="-4.10866">
        <ele>56.4</ele>
        <time>2022-05-28T12:58:01Z</time>
      </trkpt>
      <trkpt lat="47.99283" lon="-4.1082">
        <ele>56.6</ele>
        <time>2022-05-28T12:58:03Z</time>
      </trkpt>
      <trkpt lat="47.99303" lon="-4.10786">
        <ele>56.6</ele>
        <time>2022-05-28T12:58:09Z</time>
      </trkpt>
      <trkpt lat="47.99307" lon="-4.10782">
        <ele>56.6</ele>
        <time>2022-05-28T12:58:10Z</time>
      </trkpt>
      <trkpt lat="47.99328" lon="-4.10721">
        <ele>56.6</ele>
        <time>2022-05-28T12:58:18Z</time>
      </trkpt>
      <trkpt lat="47.99355" lon="-4.10664">
        <ele>56.7</ele>
        <time>2022-05-28T12:58:27Z</time>
      </trkpt>
      <trkpt lat="47.99374" lon="-4.1059">
        <ele>56.8</ele>
        <time>2022-05-28T12:58:37Z</time>
      </trkpt>
      <trkpt lat="47.99374" lon="-4.1059">
        <ele>56.8</ele>
        <time>2022-05-28T12:59:08Z</time>
      </trkpt>
      <trkpt lat="47.99382" lon="-4.10537">
        <ele>56.8</ele>
        <time>2022-05-28T12:59:11Z</time>
      </trkpt>
      <trkpt lat="47.99407" lon="-4.10477">
        <ele>56.9</ele>
        <time>2022-05-28T12:59:19Z</time>
      </trkpt>
      <trkpt lat="47.99427" lon="-4.10412">
        <ele>56.9</ele>
        <time>2022-05-28T12:59:27Z</time>
      </trkpt>
      <trkpt lat="47.99448" lon="-4.10343">
        <ele>56.9</ele>
        <time>2022-05-28T12:59:35Z</time>
      </trkpt>
      <trkpt lat="47.99458" lon="-4.10304">
        <ele>57</ele>
        <time>2022-05-28T12:59:40Z</time>
      </trkpt>
      <trkpt lat="47.99463" lon="-4.10264">
        <ele>57</ele>
        <time>2022-05-28T12:59:53Z</time>
      </trkpt>
      <trkpt lat="47.99499" lon="-4.10261">
        <ele>57.2</ele>
        <time>2022-05-28T12:59:59Z</time>
      </trkpt>
      <trkpt lat="47.99499" lon="-4.10261">
        <ele>57.2</ele>
        <time>2022-05-28T13:00:50Z</time>
      </trkpt>
      <trkpt lat="47.99532" lon="-4.1027">
        <ele>57.3</ele>
        <time>2022-05-28T13:00:55Z</time>
      </trkpt>
      <trkpt lat="47.99548" lon="-4.10297">
        <ele>57.3</ele>
        <time>2022-05-28T13:01:02Z</time>
      </trkpt>
      <trkpt lat="47.9955" lon="-4.103">
        <ele>57.3</ele>
        <time>2022-05-28T13:01:03Z</time>
      </trkpt>
      <trkpt lat="47.99577" lon="-4.10291">
        <ele>57.4</ele>
        <time>2022-05-28T13:01:10Z</time>
      </trkpt>
      <trkpt lat="47.9959" lon="-4.10291">
        <ele>57.4</ele>
        <time>2022-05-28T13:01:17Z</time>
      </trkpt>
      <trkpt lat="47.99589" lon="-4.10266">
        <ele>57.4</ele>
        <time>2022-05-28T13:01:19Z</time>
      </trkpt>
      <trkpt lat="47.99582" lon="-4.10195">
        <ele>57.5</ele>
        <time>2022-05-28T13:01:31Z</time>
      </trkpt>
      <trkpt lat="47.99581" lon="-4.10164">
        <ele>57.5</ele>
        <time>2022-05-28T13:01:36Z</time>
      </trkpt>
      <trkpt lat="47.99586" lon="-4.10133">
        <ele>57.5</ele>
        <time>2022-05-28T13:01:41Z</time>
      </trkpt>
      <trkpt lat="47.99594" lon="-4.10066">
        <ele>57.5</ele>
        <time>2022-05-28T13:01:52Z</time>
      </trkpt>
      <trkpt lat="47.99595" lon="-4.10057">
        <ele>57.6</ele>
        <time>2022-05-28T13:01:59Z</time>
      </trkpt>
      <trkpt lat="47.99598" lon="-4.10035">
        <ele>57.7</ele>
        <time>2022-05-28T13:02:15Z</time>
      </trkpt>
      <trkpt lat="47.99603" lon="-4.10018">
        <ele>57.8</ele>
        <time>2022-05-28T13:02:16Z</time>
      </trkpt>
      <trkpt lat="47.99614" lon="-4.09985">
        <ele>57.9</ele>
        <time>2022-05-28T13:02:17Z</time>
      </trkpt>
      <trkpt lat="47.99613" lon="-4.09987">
        <ele>58</ele>
        <time>2022-05-28T13:02:18Z</time>
      </trkpt>
      <trkpt lat="47.99612" lon="-4.09989">
        <ele>58.1</ele>
        <time>2022-05-28T13:02:19Z</time>
      </trkpt>
      <trkpt lat="47.99629" lon="-4.09982">
        <ele>58.2</ele>
        <time>2022-05-28T13:02:20Z</time>
      </trkpt>
      <trkpt lat="47.99661" lon="-4.09987">
        <ele>58.6</ele>
        <time>2022-05-28T13:02:24Z</time>
      </trkpt>
      <trkpt lat="47.99678" lon="-4.09996">
        <ele>58.8</ele>
        <time>2022-05-28T13:02:26Z</time>
      </trkpt>
      <trkpt lat="47.99684" lon="-4.09996">
        <ele>58.8</ele>
        <time>2022-05-28T13:02:27Z</time>
      </trkpt>
      <trkpt lat="47.9969" lon="-4.0999">
        <ele>58.9</ele>
        <time>2022-05-28T13:02:29Z</time>
      </trkpt>
      <trkpt lat="47.99681" lon="-4.09977">
        <ele>58.9</ele>
        <time>2022-05-28T13:02:30Z</time>
      </trkpt>
      <trkpt lat="47.99677" lon="-4.0991">
        <ele>59.3</ele>
        <time>2022-05-28T13:02:42Z</time>
      </trkpt>
      <trkpt lat="47.99676" lon="-4.0988">
        <ele>59.4</ele>
        <time>2022-05-28T13:02:46Z</time>
      </trkpt>
      <trkpt lat="47.99705" lon="-4.09848">
        <ele>59.5</ele>
        <time>2022-05-28T13:02:49Z</time>
      </trkpt>
      <trkpt lat="47.99747" lon="-4.09837">
        <ele>59.6</ele>
        <time>2022-05-28T13:02:50Z</time>
      </trkpt>
      <trkpt lat="47.9976" lon="-4.09766">
        <ele>59.9</ele>
        <time>2022-05-28T13:02:59Z</time>
      </trkpt>
      <trkpt lat="47.99763" lon="-4.09727">
        <ele>60</ele>
        <time>2022-05-28T13:03:04Z</time>
      </trkpt>
      <trkpt lat="47.99762" lon="-4.09703">
        <ele>60.1</ele>
        <time>2022-05-28T13:03:07Z</time>
      </trkpt>
      <trkpt lat="47.99771" lon="-4.09664">
        <ele>60.3</ele>
        <time>2022-05-28T13:03:12Z</time>
      </trkpt>
      <trkpt lat="47.99781" lon="-4.09641">
        <ele>60.4</ele>
        <time>2022-05-28T13:03:15Z</time>
      </trkpt>
      <trkpt lat="47.99801" lon="-4.09573">
        <ele>60.7</ele>
        <time>2022-05-28T13:03:24Z</time>
      </trkpt>
      <trkpt lat="47.9982" lon="-4.09507">
        <ele>61</ele>
        <time>2022-05-28T13:03:33Z</time>
      </trkpt>
      <trkpt lat="47.99839" lon="-4.0944">
        <ele>61.3</ele>
        <time>2022-05-28T13:03:42Z</time>
      </trkpt>
      <trkpt lat="47.9986" lon="-4.09372">
        <ele>61.6</ele>
        <time>2022-05-28T13:03:51Z</time>
      </trkpt>
      <trkpt lat="47.99878" lon="-4.09309">
        <ele>61.9</ele>
        <time>2022-05-28T13:04:00Z</time>
      </trkpt>
      <trkpt lat="47.99894" lon="-4.09257">
        <ele>62.1</ele>
        <time>2022-05-28T13:04:08Z</time>
      </trkpt>
      <trkpt lat="47.99899" lon="-4.09244">
        <ele>62.2</ele>
        <time>2022-05-28T13:04:10Z</time>
      </trkpt>
      <trkpt lat="47.99921" lon="-4.0918">
        <ele>62.8</ele>
        <time>2022-05-28T13:04:20Z</time>
      </trkpt>
      <trkpt lat="47.99932" lon="-4.09143">
        <ele>63.1</ele>
        <time>2022-05-28T13:04:25Z</time>
      </trkpt>
      <trkpt lat="47.99954" lon="-4.09082">
        <ele>63.7</ele>
        <time>2022-05-28T13:04:36Z</time>
      </trkpt>
      <trkpt lat="47.99972" lon="-4.09016">
        <ele>64.3</ele>
        <time>2022-05-28T13:04:46Z</time>
      </trkpt>
      <trkpt lat="47.99993" lon="-4.08953">
        <ele>64.8</ele>
        <time>2022-05-28T13:04:56Z</time>
      </trkpt>
      <trkpt lat="48.00003" lon="-4.08917">
        <ele>65.2</ele>
        <time>2022-05-28T13:05:02Z</time>
      </trkpt>
      <trkpt lat="48.00011" lon="-4.08886">
        <ele>65.5</ele>
        <time>2022-05-28T13:05:07Z</time>
      </trkpt>
      <trkpt lat="48.00019" lon="-4.08818">
        <ele>66.2</ele>
        <time>2022-05-28T13:05:16Z</time>
      </trkpt>
      <trkpt lat="48.00024" lon="-4.0878">
        <ele>66.5</ele>
        <time>2022-05-28T13:05:21Z</time>
      </trkpt>
      <trkpt lat="48.00029" lon="-4.08711">
        <ele>67.3</ele>
        <time>2022-05-28T13:05:31Z</time>
      </trkpt>
      <trkpt lat="48.00042" lon="-4.08644">
        <ele>68</ele>
        <time>2022-05-28T13:05:41Z</time>
      </trkpt>
      <trkpt lat="48.00049" lon="-4.08626">
        <ele>68.2</ele>
        <time>2022-05-28T13:05:44Z</time>
      </trkpt>
      <trkpt lat="48.00059" lon="-4.08603">
        <ele>68.5</ele>
        <time>2022-05-28T13:05:48Z</time>
      </trkpt>
      <trkpt lat="48.00097" lon="-4.0856">
        <ele>69</ele>
        <time>2022-05-28T13:05:58Z</time>
      </trkpt>
      <trkpt lat="48.00142" lon="-4.08529">
        <ele>69.6</ele>
        <time>2022-05-28T13:06:08Z</time>
      </trkpt>
      <trkpt lat="48.00186" lon="-4.08504">
        <ele>70.1</ele>
        <time>2022-05-28T13:06:17Z</time>
      </trkpt>
      <trkpt lat="48.0023" lon="-4.08478">
        <ele>70.7</ele>
        <time>2022-05-28T13:06:27Z</time>
      </trkpt>
      <trkpt lat="48.00273" lon="-4.0845">
        <ele>71.3</ele>
        <time>2022-05-28T13:06:37Z</time>
      </trkpt>
      <trkpt lat="48.00281" lon="-4.08444">
        <ele>71.4</ele>
        <time>2022-05-28T13:06:39Z</time>
      </trkpt>
      <trkpt lat="48.00316" lon="-4.08419">
        <ele>72.1</ele>
        <time>2022-05-28T13:06:48Z</time>
      </trkpt>
      <trkpt lat="48.00329" lon="-4.08405">
        <ele>72.5</ele>
        <time>2022-05-28T13:06:53Z</time>
      </trkpt>
      <trkpt lat="48.00333" lon="-4.08393">
        <ele>72.6</ele>
        <time>2022-05-28T13:06:55Z</time>
      </trkpt>
      <trkpt lat="48.00349" lon="-4.08381">
        <ele>72.9</ele>
        <time>2022-05-28T13:06:59Z</time>
      </trkpt>
      <trkpt lat="48.00358" lon="-4.08382">
        <ele>73.1</ele>
        <time>2022-05-28T13:07:01Z</time>
      </trkpt>
      <trkpt lat="48.00366" lon="-4.08387">
        <ele>73.2</ele>
        <time>2022-05-28T13:07:03Z</time>
      </trkpt>
      <trkpt lat="48.0041" lon="-4.08367">
        <ele>73.9</ele>
        <time>2022-05-28T13:07:12Z</time>
      </trkpt>
      <trkpt lat="48.00452" lon="-4.08355">
        <ele>74.6</ele>
        <time>2022-05-28T13:07:21Z</time>
      </trkpt>
      <trkpt lat="48.00457" lon="-4.08353">
        <ele>74.6</ele>
        <time>2022-05-28T13:07:22Z</time>
      </trkpt>
      <trkpt lat="48.00507" lon="-4.08342">
        <ele>74.6</ele>
        <time>2022-05-28T13:07:31Z</time>
      </trkpt>
      <trkpt lat="48.00552" lon="-4.08328">
        <ele>74.5</ele>
        <time>2022-05-28T13:07:39Z</time>
      </trkpt>
      <trkpt lat="48.00597" lon="-4.08315">
        <ele>74.5</ele>
        <time>2022-05-28T13:07:48Z</time>
      </trkpt>
      <trkpt lat="48.00645" lon="-4.08306">
        <ele>74.4</ele>
        <time>2022-05-28T13:07:56Z</time>
      </trkpt>
      <trkpt lat="48.00695" lon="-4.08303">
        <ele>74.4</ele>
        <time>2022-05-28T13:08:04Z</time>
      </trkpt>
      <trkpt lat="48.00746" lon="-4.08303">
        <ele>74.4</ele>
        <time>2022-05-28T13:08:11Z</time>
      </trkpt>
      <trkpt lat="48.00798" lon="-4.08294">
        <ele>74.3</ele>
        <time>2022-05-28T13:08:19Z</time>
      </trkpt>
      <trkpt lat="48.00845" lon="-4.08279">
        <ele>74.3</ele>
        <time>2022-05-28T13:08:27Z</time>
      </trkpt>
      <trkpt lat="48.00863" lon="-4.08269">
        <ele>74.3</ele>
        <time>2022-05-28T13:08:31Z</time>
      </trkpt>
      <trkpt lat="48.00887" lon="-4.08256">
        <ele>75</ele>
        <time>2022-05-28T13:08:36Z</time>
      </trkpt>
      <trkpt lat="48.00931" lon="-4.08223">
        <ele>76.2</ele>
        <time>2022-05-28T13:08:46Z</time>
      </trkpt>
      <trkpt lat="48.00944" lon="-4.08211">
        <ele>76.5</ele>
        <time>2022-05-28T13:08:49Z</time>
      </trkpt>
      <trkpt lat="48.00972" lon="-4.08182">
        <ele>76.9</ele>
        <time>2022-05-28T13:08:56Z</time>
      </trkpt>
      <trkpt lat="48.00976" lon="-4.08177">
        <ele>76.9</ele>
        <time>2022-05-28T13:08:57Z</time>
      </trkpt>
      <trkpt lat="48.0101" lon="-4.08134">
        <ele>77.4</ele>
        <time>2022-05-28T13:09:06Z</time>
      </trkpt>
      <trkpt lat="48.01046" lon="-4.08084">
        <ele>77.9</ele>
        <time>2022-05-28T13:09:15Z</time>
      </trkpt>
      <trkpt lat="48.01077" lon="-4.08028">
        <ele>78.3</ele>
        <time>2022-05-28T13:09:24Z</time>
      </trkpt>
      <trkpt lat="48.011" lon="-4.07988">
        <ele>78.7</ele>
        <time>2022-05-28T13:09:31Z</time>
      </trkpt>
      <trkpt lat="48.01131" lon="-4.07935">
        <ele>79.2</ele>
        <time>2022-05-28T13:09:41Z</time>
      </trkpt>
      <trkpt lat="48.01139" lon="-4.07918">
        <ele>79.4</ele>
        <time>2022-05-28T13:09:44Z</time>
      </trkpt>
      <trkpt lat="48.01157" lon="-4.07883">
        <ele>79.8</ele>
        <time>2022-05-28T13:09:51Z</time>
      </trkpt>
      <trkpt lat="48.01156" lon="-4.07876">
        <ele>79.8</ele>
        <time>2022-05-28T13:09:52Z</time>
      </trkpt>
      <trkpt lat="48.0116" lon="-4.07864">
        <ele>79.9</ele>
        <time>2022-05-28T13:09:54Z</time>
      </trkpt>
      <trkpt lat="48.01171" lon="-4.07829">
        <ele>80.5</ele>
        <time>2022-05-28T13:10:00Z</time>
      </trkpt>
      <trkpt lat="48.01176" lon="-4.07812">
        <ele>80.4</ele>
        <time>2022-05-28T13:10:03Z</time>
      </trkpt>
      <trkpt lat="48.0119" lon="-4.07744">
        <ele>79.9</ele>
        <time>2022-05-28T13:10:13Z</time>
      </trkpt>
      <trkpt lat="48.01202" lon="-4.07699">
        <ele>79.7</ele>
        <time>2022-05-28T13:10:19Z</time>
      </trkpt>
      <trkpt lat="48.01231" lon="-4.0766">
        <ele>79.4</ele>
        <time>2022-05-28T13:10:26Z</time>
      </trkpt>
      <trkpt lat="48.01259" lon="-4.07659">
        <ele>79.2</ele>
        <time>2022-05-28T13:10:31Z</time>
      </trkpt>
      <trkpt lat="48.0127" lon="-4.07664">
        <ele>79.1</ele>
        <time>2022-05-28T13:10:33Z</time>
      </trkpt>
      <trkpt lat="48.01273" lon="-4.0767">
        <ele>79</ele>
        <time>2022-05-28T13:10:34Z</time>
      </trkpt>
      <trkpt lat="48.01293" lon="-4.077">
        <ele>78.8</ele>
        <time>2022-05-28T13:10:39Z</time>
      </trkpt>
      <trkpt lat="48.013" lon="-4.07726">
        <ele>78.7</ele>
        <time>2022-05-28T13:10:42Z</time>
      </trkpt>
      <trkpt lat="48.01311" lon="-4.07768">
        <ele>78.9</ele>
        <time>2022-05-28T13:10:47Z</time>
      </trkpt>
      <trkpt lat="48.01312" lon="-4.07775">
        <ele>79</ele>
        <time>2022-05-28T13:10:48Z</time>
      </trkpt>
      <trkpt lat="48.01327" lon="-4.07835">
        <ele>79.9</ele>
        <time>2022-05-28T13:10:57Z</time>
      </trkpt>
      <trkpt lat="48.01343" lon="-4.07863">
        <ele>80.8</ele>
        <time>2022-05-28T13:11:06Z</time>
      </trkpt>
      <trkpt lat="48.01355" lon="-4.07849">
        <ele>80.9</ele>
        <time>2022-05-28T13:11:07Z</time>
      </trkpt>
      <trkpt lat="48.01362" lon="-4.07827">
        <ele>81.3</ele>
        <time>2022-05-28T13:11:11Z</time>
      </trkpt>
      <trkpt lat="48.01384" lon="-4.07802">
        <ele>81.9</ele>
        <time>2022-05-28T13:11:17Z</time>
      </trkpt>
      <trkpt lat="48.01386" lon="-4.07795">
        <ele>82</ele>
        <time>2022-05-28T13:11:18Z</time>
      </trkpt>
      <trkpt lat="48.01399" lon="-4.07743">
        <ele>82.8</ele>
        <time>2022-05-28T13:11:25Z</time>
      </trkpt>
      <trkpt lat="48.01403" lon="-4.07742">
        <ele>83</ele>
        <time>2022-05-28T13:11:26Z</time>
      </trkpt>
      <trkpt lat="48.01407" lon="-4.07746">
        <ele>83.1</ele>
        <time>2022-05-28T13:11:27Z</time>
      </trkpt>
      <trkpt lat="48.01433" lon="-4.07736">
        <ele>84.2</ele>
        <time>2022-05-28T13:11:36Z</time>
      </trkpt>
      <trkpt lat="48.0145" lon="-4.07728">
        <ele>85.5</ele>
        <time>2022-05-28T13:11:42Z</time>
      </trkpt>
      <trkpt lat="48.01453" lon="-4.07727">
        <ele>85.7</ele>
        <time>2022-05-28T13:11:43Z</time>
      </trkpt>
      <trkpt lat="48.01468" lon="-4.07717">
        <ele>86.3</ele>
        <time>2022-05-28T13:11:48Z</time>
      </trkpt>
      <trkpt lat="48.01471" lon="-4.07714">
        <ele>86.4</ele>
        <time>2022-05-28T13:11:49Z</time>
      </trkpt>
      <trkpt lat="48.01475" lon="-4.07704">
        <ele>86.6</ele>
        <time>2022-05-28T13:11:51Z</time>
      </trkpt>
      <trkpt lat="48.0148" lon="-4.07697">
        <ele>86.9</ele>
        <time>2022-05-28T13:11:53Z</time>
      </trkpt>
      <trkpt lat="48.01481" lon="-4.07691">
        <ele>86.9</ele>
        <time>2022-05-28T13:11:54Z</time>
      </trkpt>
      <trkpt lat="48.01489" lon="-4.07653">
        <ele>87.4</ele>
        <time>2022-05-28T13:12:01Z</time>
      </trkpt>
      <trkpt lat="48.01492" lon="-4.07631">
        <ele>87.7</ele>
        <time>2022-05-28T13:12:07Z</time>
      </trkpt>
      <trkpt lat="48.01458" lon="-4.07624">
        <ele>88.2</ele>
        <time>2022-05-28T13:12:14Z</time>
      </trkpt>
      <trkpt lat="48.01451" lon="-4.07617">
        <ele>88.4</ele>
        <time>2022-05-28T13:12:18Z</time>
      </trkpt>
      <trkpt lat="48.01454" lon="-4.07614">
        <ele>88.5</ele>
        <time>2022-05-28T13:12:20Z</time>
      </trkpt>
      <trkpt lat="48.01464" lon="-4.07618">
        <ele>88.8</ele>
        <time>2022-05-28T13:12:25Z</time>
      </trkpt>
      <trkpt lat="48.01489" lon="-4.07598">
        <ele>89.3</ele>
        <time>2022-05-28T13:12:33Z</time>
      </trkpt>
      <trkpt lat="48.01521" lon="-4.07545">
        <ele>90.9</ele>
        <time>2022-05-28T13:12:45Z</time>
      </trkpt>
      <trkpt lat="48.01541" lon="-4.07538">
        <ele>92.2</ele>
        <time>2022-05-28T13:12:51Z</time>
      </trkpt>
      <trkpt lat="48.0155" lon="-4.07535">
        <ele>92.6</ele>
        <time>2022-05-28T13:12:54Z</time>
      </trkpt>
      <trkpt lat="48.0157" lon="-4.07568">
        <ele>93.5</ele>
        <time>2022-05-28T13:13:03Z</time>
      </trkpt>
      <trkpt lat="48.01575" lon="-4.07571">
        <ele>93.5</ele>
        <time>2022-05-28T13:13:04Z</time>
      </trkpt>
      <trkpt lat="48.01594" lon="-4.07621">
        <ele>92.8</ele>
        <time>2022-05-28T13:13:14Z</time>
      </trkpt>
      <trkpt lat="48.01594" lon="-4.07662">
        <ele>92.4</ele>
        <time>2022-05-28T13:13:20Z</time>
      </trkpt>
      <trkpt lat="48.01596" lon="-4.07671">
        <ele>92.3</ele>
        <time>2022-05-28T13:13:21Z</time>
      </trkpt>
      <trkpt lat="48.01599" lon="-4.07678">
        <ele>92.1</ele>
        <time>2022-05-28T13:13:22Z</time>
      </trkpt>
      <trkpt lat="48.01616" lon="-4.07692">
        <ele>91.7</ele>
        <time>2022-05-28T13:13:25Z</time>
      </trkpt>
      <trkpt lat="48.01661" lon="-4.07713">
        <ele>90.8</ele>
        <time>2022-05-28T13:13:32Z</time>
      </trkpt>
      <trkpt lat="48.01665" lon="-4.07716">
        <ele>90.8</ele>
        <time>2022-05-28T13:13:33Z</time>
      </trkpt>
      <trkpt lat="48.01707" lon="-4.07737">
        <ele>91.9</ele>
        <time>2022-05-28T13:13:42Z</time>
      </trkpt>
      <trkpt lat="48.01721" lon="-4.07745">
        <ele>92.3</ele>
        <time>2022-05-28T13:13:45Z</time>
      </trkpt>
      <trkpt lat="48.01749" lon="-4.0776">
        <ele>94.2</ele>
        <time>2022-05-28T13:13:51Z</time>
      </trkpt>
      <trkpt lat="48.01753" lon="-4.07763">
        <ele>94.4</ele>
        <time>2022-05-28T13:13:52Z</time>
      </trkpt>
      <trkpt lat="48.01798" lon="-4.07787">
        <ele>96.5</ele>
        <time>2022-05-28T13:14:03Z</time>
      </trkpt>
      <trkpt lat="48.01842" lon="-4.07817">
        <ele>98.4</ele>
        <time>2022-05-28T13:14:16Z</time>
      </trkpt>
      <trkpt lat="48.01857" lon="-4.07828">
        <ele>99</ele>
        <time>2022-05-28T13:14:20Z</time>
      </trkpt>
      <trkpt lat="48.01883" lon="-4.07847">
        <ele>99.8</ele>
        <time>2022-05-28T13:14:27Z</time>
      </trkpt>
      <trkpt lat="48.01924" lon="-4.07879">
        <ele>101.2</ele>
        <time>2022-05-28T13:14:39Z</time>
      </trkpt>
      <trkpt lat="48.01941" lon="-4.0789">
        <ele>102</ele>
        <time>2022-05-28T13:14:45Z</time>
      </trkpt>
      <trkpt lat="48.01966" lon="-4.07907">
        <ele>104.3</ele>
        <time>2022-05-28T13:14:54Z</time>
      </trkpt>
      <trkpt lat="48.01969" lon="-4.07907">
        <ele>104.6</ele>
        <time>2022-05-28T13:14:55Z</time>
      </trkpt>
      <trkpt lat="48.0198" lon="-4.07908">
        <ele>105.9</ele>
        <time>2022-05-28T13:15:00Z</time>
      </trkpt>
      <trkpt lat="48.02005" lon="-4.0791">
        <ele>108.9</ele>
        <time>2022-05-28T13:15:11Z</time>
      </trkpt>
      <trkpt lat="48.02012" lon="-4.07911">
        <ele>109.5</ele>
        <time>2022-05-28T13:15:14Z</time>
      </trkpt>
      <trkpt lat="48.02033" lon="-4.07912">
        <ele>111.5</ele>
        <time>2022-05-28T13:15:23Z</time>
      </trkpt>
      <trkpt lat="48.02057" lon="-4.07913">
        <ele>113.3</ele>
        <time>2022-05-28T13:15:33Z</time>
      </trkpt>
      <trkpt lat="48.02078" lon="-4.07911">
        <ele>114.5</ele>
        <time>2022-05-28T13:15:40Z</time>
      </trkpt>
      <trkpt lat="48.02096" lon="-4.07909">
        <ele>115.2</ele>
        <time>2022-05-28T13:15:46Z</time>
      </trkpt>
      <trkpt lat="48.02103" lon="-4.07908">
        <ele>115.4</ele>
        <time>2022-05-28T13:15:48Z</time>
      </trkpt>
      <trkpt lat="48.0215" lon="-4.07904">
        <ele>116.2</ele>
        <time>2022-05-28T13:16:00Z</time>
      </trkpt>
      <trkpt lat="48.02197" lon="-4.07907">
        <ele>117</ele>
        <time>2022-05-28T13:16:10Z</time>
      </trkpt>
      <trkpt lat="48.02245" lon="-4.07914">
        <ele>117.8</ele>
        <time>2022-05-28T13:16:21Z</time>
      </trkpt>
      <trkpt lat="48.02267" lon="-4.07918">
        <ele>118.3</ele>
        <time>2022-05-28T13:16:27Z</time>
      </trkpt>
      <trkpt lat="48.02285" lon="-4.07921">
        <ele>119.1</ele>
        <time>2022-05-28T13:16:32Z</time>
      </trkpt>
      <trkpt lat="48.02292" lon="-4.07923">
        <ele>119.8</ele>
        <time>2022-05-28T13:16:34Z</time>
      </trkpt>
      <trkpt lat="48.02303" lon="-4.07925">
        <ele>121.1</ele>
        <time>2022-05-28T13:16:38Z</time>
      </trkpt>
      <trkpt lat="48.02339" lon="-4.07934">
        <ele>124.6</ele>
        <time>2022-05-28T13:16:51Z</time>
      </trkpt>
      <trkpt lat="48.02351" lon="-4.07936">
        <ele>125.6</ele>
        <time>2022-05-28T13:16:55Z</time>
      </trkpt>
      <trkpt lat="48.02385" lon="-4.07944">
        <ele>127.9</ele>
        <time>2022-05-28T13:17:07Z</time>
      </trkpt>
      <trkpt lat="48.02398" lon="-4.07949">
        <ele>128.8</ele>
        <time>2022-05-28T13:17:12Z</time>
      </trkpt>
      <trkpt lat="48.02424" lon="-4.0796">
        <ele>130.7</ele>
        <time>2022-05-28T13:17:22Z</time>
      </trkpt>
      <trkpt lat="48.02453" lon="-4.07964">
        <ele>132.1</ele>
        <time>2022-05-28T13:17:30Z</time>
      </trkpt>
      <trkpt lat="48.02472" lon="-4.07966">
        <ele>132.5</ele>
        <time>2022-05-28T13:17:35Z</time>
      </trkpt>
      <trkpt lat="48.02497" lon="-4.07972">
        <ele>133</ele>
        <time>2022-05-28T13:17:42Z</time>
      </trkpt>
      <trkpt lat="48.02519" lon="-4.07977">
        <ele>133.7</ele>
        <time>2022-05-28T13:17:48Z</time>
      </trkpt>
      <trkpt lat="48.02544" lon="-4.07987">
        <ele>134.4</ele>
        <time>2022-05-28T13:17:54Z</time>
      </trkpt>
      <trkpt lat="48.02574" lon="-4.07964">
        <ele>135.7</ele>
        <time>2022-05-28T13:18:06Z</time>
      </trkpt>
      <trkpt lat="48.02584" lon="-4.07956">
        <ele>136.6</ele>
        <time>2022-05-28T13:18:10Z</time>
      </trkpt>
      <trkpt lat="48.02617" lon="-4.07921">
        <ele>139.3</ele>
        <time>2022-05-28T13:18:23Z</time>
      </trkpt>
      <trkpt lat="48.02622" lon="-4.07916">
        <ele>139.8</ele>
        <time>2022-05-28T13:18:25Z</time>
      </trkpt>
      <trkpt lat="48.0266" lon="-4.07874">
        <ele>143.2</ele>
        <time>2022-05-28T13:18:41Z</time>
      </trkpt>
      <trkpt lat="48.02697" lon="-4.07833">
        <ele>145.4</ele>
        <time>2022-05-28T13:18:56Z</time>
      </trkpt>
      <trkpt lat="48.02715" lon="-4.07809">
        <ele>146.6</ele>
        <time>2022-05-28T13:19:05Z</time>
      </trkpt>
      <trkpt lat="48.02732" lon="-4.07785">
        <ele>145.8</ele>
        <time>2022-05-28T13:19:14Z</time>
      </trkpt>
      <trkpt lat="48.02762" lon="-4.07729">
        <ele>144.6</ele>
        <time>2022-05-28T13:19:27Z</time>
      </trkpt>
      <trkpt lat="48.02789" lon="-4.07685">
        <ele>143.8</ele>
        <time>2022-05-28T13:19:35Z</time>
      </trkpt>
      <trkpt lat="48.02793" lon="-4.07679">
        <ele>143.5</ele>
        <time>2022-05-28T13:19:36Z</time>
      </trkpt>
      <trkpt lat="48.02814" lon="-4.07634">
        <ele>141.6</ele>
        <time>2022-05-28T13:19:43Z</time>
      </trkpt>
      <trkpt lat="48.02827" lon="-4.07597">
        <ele>140.4</ele>
        <time>2022-05-28T13:19:47Z</time>
      </trkpt>
      <trkpt lat="48.0286" lon="-4.07542">
        <ele>138.7</ele>
        <time>2022-05-28T13:19:53Z</time>
      </trkpt>
      <trkpt lat="48.0289" lon="-4.07499">
        <ele>137.3</ele>
        <time>2022-05-28T13:19:58Z</time>
      </trkpt>
      <trkpt lat="48.02896" lon="-4.07491">
        <ele>137.2</ele>
        <time>2022-05-28T13:19:59Z</time>
      </trkpt>
      <trkpt lat="48.02925" lon="-4.0745">
        <ele>136.5</ele>
        <time>2022-05-28T13:20:04Z</time>
      </trkpt>
      <trkpt lat="48.0293" lon="-4.07439">
        <ele>136.4</ele>
        <time>2022-05-28T13:20:05Z</time>
      </trkpt>
      <trkpt lat="48.02962" lon="-4.07409">
        <ele>135.9</ele>
        <time>2022-05-28T13:20:10Z</time>
      </trkpt>
      <trkpt lat="48.03002" lon="-4.07379">
        <ele>135.3</ele>
        <time>2022-05-28T13:20:16Z</time>
      </trkpt>
      <trkpt lat="48.03039" lon="-4.07354">
        <ele>134.7</ele>
        <time>2022-05-28T13:20:22Z</time>
      </trkpt>
      <trkpt lat="48.03045" lon="-4.0735">
        <ele>134.8</ele>
        <time>2022-05-28T13:20:23Z</time>
      </trkpt>
      <trkpt lat="48.03089" lon="-4.07321">
        <ele>135.5</ele>
        <time>2022-05-28T13:20:31Z</time>
      </trkpt>
      <trkpt lat="48.03132" lon="-4.07297">
        <ele>136.4</ele>
        <time>2022-05-28T13:20:40Z</time>
      </trkpt>
      <trkpt lat="48.03173" lon="-4.07277">
        <ele>137.4</ele>
        <time>2022-05-28T13:20:51Z</time>
      </trkpt>
      <trkpt lat="48.03177" lon="-4.07275">
        <ele>137.6</ele>
        <time>2022-05-28T13:20:52Z</time>
      </trkpt>
      <trkpt lat="48.03222" lon="-4.07254">
        <ele>140</ele>
        <time>2022-05-28T13:21:05Z</time>
      </trkpt>
      <trkpt lat="48.03237" lon="-4.07245">
        <ele>140.7</ele>
        <time>2022-05-28T13:21:09Z</time>
      </trkpt>
      <trkpt lat="48.03261" lon="-4.07231">
        <ele>141.1</ele>
        <time>2022-05-28T13:21:15Z</time>
      </trkpt>
      <trkpt lat="48.03265" lon="-4.07228">
        <ele>141.2</ele>
        <time>2022-05-28T13:21:16Z</time>
      </trkpt>
      <trkpt lat="48.03308" lon="-4.072">
        <ele>142</ele>
        <time>2022-05-28T13:21:27Z</time>
      </trkpt>
      <trkpt lat="48.03352" lon="-4.07167">
        <ele>142.9</ele>
        <time>2022-05-28T13:21:38Z</time>
      </trkpt>
      <trkpt lat="48.03394" lon="-4.07142">
        <ele>143.7</ele>
        <time>2022-05-28T13:21:49Z</time>
      </trkpt>
      <trkpt lat="48.03426" lon="-4.07132">
        <ele>144.3</ele>
        <time>2022-05-28T13:21:57Z</time>
      </trkpt>
      <trkpt lat="48.03438" lon="-4.07129">
        <ele>144.8</ele>
        <time>2022-05-28T13:22:00Z</time>
      </trkpt>
      <trkpt lat="48.03471" lon="-4.07123">
        <ele>146.2</ele>
        <time>2022-05-28T13:22:09Z</time>
      </trkpt>
      <trkpt lat="48.03485" lon="-4.0712">
        <ele>147.3</ele>
        <time>2022-05-28T13:22:13Z</time>
      </trkpt>
      <trkpt lat="48.0351" lon="-4.07117">
        <ele>149.3</ele>
        <time>2022-05-28T13:22:21Z</time>
      </trkpt>
      <trkpt lat="48.03529" lon="-4.07114">
        <ele>150.8</ele>
        <time>2022-05-28T13:22:27Z</time>
      </trkpt>
      <trkpt lat="48.03532" lon="-4.07114">
        <ele>151.2</ele>
        <time>2022-05-28T13:22:28Z</time>
      </trkpt>
      <trkpt lat="48.03543" lon="-4.07112">
        <ele>152.5</ele>
        <time>2022-05-28T13:22:32Z</time>
      </trkpt>
      <trkpt lat="48.03578" lon="-4.07108">
        <ele>155</ele>
        <time>2022-05-28T13:22:44Z</time>
      </trkpt>
      <trkpt lat="48.03618" lon="-4.07103">
        <ele>157.3</ele>
        <time>2022-05-28T13:22:57Z</time>
      </trkpt>
      <trkpt lat="48.03634" lon="-4.07099">
        <ele>158.2</ele>
        <time>2022-05-28T13:23:02Z</time>
      </trkpt>
      <trkpt lat="48.03664" lon="-4.07092">
        <ele>159.2</ele>
        <time>2022-05-28T13:23:11Z</time>
      </trkpt>
      <trkpt lat="48.03689" lon="-4.07085">
        <ele>160</ele>
        <time>2022-05-28T13:23:18Z</time>
      </trkpt>
      <trkpt lat="48.03692" lon="-4.07082">
        <ele>160.1</ele>
        <time>2022-05-28T13:23:19Z</time>
      </trkpt>
      <trkpt lat="48.03695" lon="-4.07081">
        <ele>160.2</ele>
        <time>2022-05-28T13:23:20Z</time>
      </trkpt>
      <trkpt lat="48.03711" lon="-4.07072">
        <ele>160.7</ele>
        <time>2022-05-28T13:23:25Z</time>
      </trkpt>
      <trkpt lat="48.0373" lon="-4.07052">
        <ele>161.4</ele>
        <time>2022-05-28T13:23:32Z</time>
      </trkpt>
      <trkpt lat="48.0377" lon="-4.07017">
        <ele>162.7</ele>
        <time>2022-05-28T13:23:44Z</time>
      </trkpt>
      <trkpt lat="48.03787" lon="-4.06999">
        <ele>163.3</ele>
        <time>2022-05-28T13:23:50Z</time>
      </trkpt>
      <trkpt lat="48.03796" lon="-4.0699">
        <ele>163.4</ele>
        <time>2022-05-28T13:23:53Z</time>
      </trkpt>
      <trkpt lat="48.03833" lon="-4.06949">
        <ele>164.1</ele>
        <time>2022-05-28T13:24:04Z</time>
      </trkpt>
      <trkpt lat="48.0387" lon="-4.06909">
        <ele>164.9</ele>
        <time>2022-05-28T13:24:17Z</time>
      </trkpt>
      <trkpt lat="48.039" lon="-4.06876">
        <ele>165.5</ele>
        <time>2022-05-28T13:24:27Z</time>
      </trkpt>
      <trkpt lat="48.03936" lon="-4.06831">
        <ele>166.3</ele>
        <time>2022-05-28T13:24:40Z</time>
      </trkpt>
      <trkpt lat="48.03943" lon="-4.06822">
        <ele>166.6</ele>
        <time>2022-05-28T13:24:43Z</time>
      </trkpt>
      <trkpt lat="48.03957" lon="-4.06805">
        <ele>167.5</ele>
        <time>2022-05-28T13:24:49Z</time>
      </trkpt>
      <trkpt lat="48.03971" lon="-4.06788">
        <ele>168.3</ele>
        <time>2022-05-28T13:24:55Z</time>
      </trkpt>
      <trkpt lat="48.03976" lon="-4.06786">
        <ele>168.6</ele>
        <time>2022-05-28T13:24:57Z</time>
      </trkpt>
      <trkpt lat="48.03991" lon="-4.06776">
        <ele>169.5</ele>
        <time>2022-05-28T13:25:03Z</time>
      </trkpt>
      <trkpt lat="48.03992" lon="-4.06767">
        <ele>169.6</ele>
        <time>2022-05-28T13:25:04Z</time>
      </trkpt>
      <trkpt lat="48.04016" lon="-4.06732">
        <ele>170.8</ele>
        <time>2022-05-28T13:25:13Z</time>
      </trkpt>
      <trkpt lat="48.04027" lon="-4.06716">
        <ele>171.1</ele>
        <time>2022-05-28T13:25:17Z</time>
      </trkpt>
      <trkpt lat="48.04061" lon="-4.06668">
        <ele>171.7</ele>
        <time>2022-05-28T13:25:28Z</time>
      </trkpt>
      <trkpt lat="48.04096" lon="-4.06622">
        <ele>172.3</ele>
        <time>2022-05-28T13:25:38Z</time>
      </trkpt>
      <trkpt lat="48.04137" lon="-4.06577">
        <ele>172.9</ele>
        <time>2022-05-28T13:25:48Z</time>
      </trkpt>
      <trkpt lat="48.04176" lon="-4.06538">
        <ele>173.3</ele>
        <time>2022-05-28T13:25:56Z</time>
      </trkpt>
      <trkpt lat="48.04215" lon="-4.06501">
        <ele>173.8</ele>
        <time>2022-05-28T13:26:04Z</time>
      </trkpt>
      <trkpt lat="48.04229" lon="-4.06487">
        <ele>174</ele>
        <time>2022-05-28T13:26:07Z</time>
      </trkpt>
      <trkpt lat="48.04267" lon="-4.06447">
        <ele>174.5</ele>
        <time>2022-05-28T13:26:16Z</time>
      </trkpt>
      <trkpt lat="48.04278" lon="-4.06436">
        <ele>174.7</ele>
        <time>2022-05-28T13:26:19Z</time>
      </trkpt>
      <trkpt lat="48.04307" lon="-4.06408">
        <ele>176.5</ele>
        <time>2022-05-28T13:26:27Z</time>
      </trkpt>
      <trkpt lat="48.04331" lon="-4.06386">
        <ele>178.1</ele>
        <time>2022-05-28T13:26:34Z</time>
      </trkpt>
      <trkpt lat="48.04341" lon="-4.06378">
        <ele>178.8</ele>
        <time>2022-05-28T13:26:37Z</time>
      </trkpt>
      <trkpt lat="48.04357" lon="-4.0636">
        <ele>179.8</ele>
        <time>2022-05-28T13:26:42Z</time>
      </trkpt>
      <trkpt lat="48.04395" lon="-4.0633">
        <ele>182.3</ele>
        <time>2022-05-28T13:26:54Z</time>
      </trkpt>
      <trkpt lat="48.04398" lon="-4.06327">
        <ele>182.4</ele>
        <time>2022-05-28T13:26:55Z</time>
      </trkpt>
      <trkpt lat="48.04436" lon="-4.06313">
        <ele>183.6</ele>
        <time>2022-05-28T13:27:06Z</time>
      </trkpt>
      <trkpt lat="48.04443" lon="-4.06309">
        <ele>183.5</ele>
        <time>2022-05-28T13:27:08Z</time>
      </trkpt>
      <trkpt lat="48.04451" lon="-4.06304">
        <ele>183.4</ele>
        <time>2022-05-28T13:27:10Z</time>
      </trkpt>
      <trkpt lat="48.04498" lon="-4.06287">
        <ele>183.1</ele>
        <time>2022-05-28T13:27:19Z</time>
      </trkpt>
      <trkpt lat="48.04543" lon="-4.06266">
        <ele>182.9</ele>
        <time>2022-05-28T13:27:26Z</time>
      </trkpt>
      <trkpt lat="48.04556" lon="-4.06261">
        <ele>182.8</ele>
        <time>2022-05-28T13:27:28Z</time>
      </trkpt>
      <trkpt lat="48.04596" lon="-4.06229">
        <ele>182.6</ele>
        <time>2022-05-28T13:27:35Z</time>
      </trkpt>
      <trkpt lat="48.04606" lon="-4.06222">
        <ele>182.5</ele>
        <time>2022-05-28T13:27:37Z</time>
      </trkpt>
      <trkpt lat="48.04611" lon="-4.06217">
        <ele>182.5</ele>
        <time>2022-05-28T13:27:38Z</time>
      </trkpt>
      <trkpt lat="48.04655" lon="-4.0618">
        <ele>182.1</ele>
        <time>2022-05-28T13:27:47Z</time>
      </trkpt>
      <trkpt lat="48.04694" lon="-4.06141">
        <ele>181.8</ele>
        <time>2022-05-28T13:27:56Z</time>
      </trkpt>
      <trkpt lat="48.04707" lon="-4.06128">
        <ele>181.7</ele>
        <time>2022-05-28T13:27:59Z</time>
      </trkpt>
      <trkpt lat="48.04728" lon="-4.06093">
        <ele>181.5</ele>
        <time>2022-05-28T13:28:05Z</time>
      </trkpt>
      <trkpt lat="48.04731" lon="-4.06084">
        <ele>181.5</ele>
        <time>2022-05-28T13:28:06Z</time>
      </trkpt>
      <trkpt lat="48.0476" lon="-4.06028">
        <ele>181.2</ele>
        <time>2022-05-28T13:28:13Z</time>
      </trkpt>
      <trkpt lat="48.04784" lon="-4.05982">
        <ele>181</ele>
        <time>2022-05-28T13:28:18Z</time>
      </trkpt>
      <trkpt lat="48.04789" lon="-4.05973">
        <ele>180.8</ele>
        <time>2022-05-28T13:28:19Z</time>
      </trkpt>
      <trkpt lat="48.04816" lon="-4.05926">
        <ele>179.6</ele>
        <time>2022-05-28T13:28:24Z</time>
      </trkpt>
      <trkpt lat="48.04821" lon="-4.05916">
        <ele>179.5</ele>
        <time>2022-05-28T13:28:25Z</time>
      </trkpt>
      <trkpt lat="48.04835" lon="-4.05889">
        <ele>179.1</ele>
        <time>2022-05-28T13:28:28Z</time>
      </trkpt>
      <trkpt lat="48.04841" lon="-4.0588">
        <ele>179</ele>
        <time>2022-05-28T13:28:29Z</time>
      </trkpt>
      <trkpt lat="48.04845" lon="-4.05871">
        <ele>178.9</ele>
        <time>2022-05-28T13:28:30Z</time>
      </trkpt>
      <trkpt lat="48.04868" lon="-4.05822">
        <ele>178.3</ele>
        <time>2022-05-28T13:28:35Z</time>
      </trkpt>
      <trkpt lat="48.04896" lon="-4.05768">
        <ele>177.6</ele>
        <time>2022-05-28T13:28:41Z</time>
      </trkpt>
      <trkpt lat="48.049" lon="-4.05759">
        <ele>177.5</ele>
        <time>2022-05-28T13:28:42Z</time>
      </trkpt>
      <trkpt lat="48.04942" lon="-4.05712">
        <ele>176.5</ele>
        <time>2022-05-28T13:28:49Z</time>
      </trkpt>
      <trkpt lat="48.04968" lon="-4.05688">
        <ele>175.9</ele>
        <time>2022-05-28T13:28:53Z</time>
      </trkpt>
      <trkpt lat="48.04992" lon="-4.05648">
        <ele>175.2</ele>
        <time>2022-05-28T13:28:58Z</time>
      </trkpt>
      <trkpt lat="48.05002" lon="-4.05632">
        <ele>175.4</ele>
        <time>2022-05-28T13:29:00Z</time>
      </trkpt>
      <trkpt lat="48.05017" lon="-4.05598">
        <ele>175.8</ele>
        <time>2022-05-28T13:29:04Z</time>
      </trkpt>
      <trkpt lat="48.05043" lon="-4.05537">
        <ele>176.8</ele>
        <time>2022-05-28T13:29:12Z</time>
      </trkpt>
      <trkpt lat="48.0507" lon="-4.05478">
        <ele>177.8</ele>
        <time>2022-05-28T13:29:21Z</time>
      </trkpt>
      <trkpt lat="48.05073" lon="-4.05472">
        <ele>178</ele>
        <time>2022-05-28T13:29:22Z</time>
      </trkpt>
      <trkpt lat="48.05086" lon="-4.05445">
        <ele>178.4</ele>
        <time>2022-05-28T13:29:26Z</time>
      </trkpt>
      <trkpt lat="48.0509" lon="-4.05431">
        <ele>178.7</ele>
        <time>2022-05-28T13:29:28Z</time>
      </trkpt>
      <trkpt lat="48.05109" lon="-4.05392">
        <ele>179.4</ele>
        <time>2022-05-28T13:29:34Z</time>
      </trkpt>
      <trkpt lat="48.05118" lon="-4.05373">
        <ele>179.8</ele>
        <time>2022-05-28T13:29:37Z</time>
      </trkpt>
      <trkpt lat="48.0513" lon="-4.05345">
        <ele>180.4</ele>
        <time>2022-05-28T13:29:41Z</time>
      </trkpt>
      <trkpt lat="48.05156" lon="-4.05286">
        <ele>181.6</ele>
        <time>2022-05-28T13:29:50Z</time>
      </trkpt>
      <trkpt lat="48.05162" lon="-4.05273">
        <ele>181.9</ele>
        <time>2022-05-28T13:29:52Z</time>
      </trkpt>
      <trkpt lat="48.05181" lon="-4.05229">
        <ele>182.8</ele>
        <time>2022-05-28T13:29:59Z</time>
      </trkpt>
      <trkpt lat="48.05199" lon="-4.05177">
        <ele>183.9</ele>
        <time>2022-05-28T13:30:07Z</time>
      </trkpt>
      <trkpt lat="48.05202" lon="-4.05156">
        <ele>184.2</ele>
        <time>2022-05-28T13:30:10Z</time>
      </trkpt>
      <trkpt lat="48.05208" lon="-4.05107">
        <ele>184.6</ele>
        <time>2022-05-28T13:30:17Z</time>
      </trkpt>
      <trkpt lat="48.05211" lon="-4.05075">
        <ele>184.9</ele>
        <time>2022-05-28T13:30:21Z</time>
      </trkpt>
      <trkpt lat="48.05213" lon="-4.05001">
        <ele>185.3</ele>
        <time>2022-05-28T13:30:30Z</time>
      </trkpt>
      <trkpt lat="48.05215" lon="-4.04934">
        <ele>185.8</ele>
        <time>2022-05-28T13:30:38Z</time>
      </trkpt>
      <trkpt lat="48.05218" lon="-4.0486">
        <ele>186.3</ele>
        <time>2022-05-28T13:30:47Z</time>
      </trkpt>
      <trkpt lat="48.05221" lon="-4.04802">
        <ele>186.7</ele>
        <time>2022-05-28T13:30:54Z</time>
      </trkpt>
      <trkpt lat="48.05219" lon="-4.04775">
        <ele>186.8</ele>
        <time>2022-05-28T13:30:57Z</time>
      </trkpt>
      <trkpt lat="48.05225" lon="-4.04704">
        <ele>187.3</ele>
        <time>2022-05-28T13:31:05Z</time>
      </trkpt>
      <trkpt lat="48.05226" lon="-4.04677">
        <ele>187.4</ele>
        <time>2022-05-28T13:31:08Z</time>
      </trkpt>
      <trkpt lat="48.05227" lon="-4.04631">
        <ele>186.6</ele>
        <time>2022-05-28T13:31:13Z</time>
      </trkpt>
      <trkpt lat="48.05232" lon="-4.04558">
        <ele>185.5</ele>
        <time>2022-05-28T13:31:20Z</time>
      </trkpt>
      <trkpt lat="48.05235" lon="-4.04481">
        <ele>185</ele>
        <time>2022-05-28T13:31:27Z</time>
      </trkpt>
      <trkpt lat="48.05237" lon="-4.04427">
        <ele>184.7</ele>
        <time>2022-05-28T13:31:32Z</time>
      </trkpt>
      <trkpt lat="48.05237" lon="-4.04405">
        <ele>184.7</ele>
        <time>2022-05-28T13:31:34Z</time>
      </trkpt>
      <trkpt lat="48.05231" lon="-4.04353">
        <ele>184.8</ele>
        <time>2022-05-28T13:31:39Z</time>
      </trkpt>
      <trkpt lat="48.05215" lon="-4.04287">
        <ele>184.8</ele>
        <time>2022-05-28T13:31:46Z</time>
      </trkpt>
      <trkpt lat="48.05204" lon="-4.0422">
        <ele>184.8</ele>
        <time>2022-05-28T13:31:53Z</time>
      </trkpt>
      <trkpt lat="48.05199" lon="-4.04146">
        <ele>184.9</ele>
        <time>2022-05-28T13:32:00Z</time>
      </trkpt>
      <trkpt lat="48.05195" lon="-4.0408">
        <ele>184.9</ele>
        <time>2022-05-28T13:32:07Z</time>
      </trkpt>
      <trkpt lat="48.05197" lon="-4.04051">
        <ele>185</ele>
        <time>2022-05-28T13:32:15Z</time>
      </trkpt>
      <trkpt lat="48.05196" lon="-4.0405">
        <ele>185</ele>
        <time>2022-05-28T13:32:16Z</time>
      </trkpt>
      <trkpt lat="48.05199" lon="-4.04061">
        <ele>185</ele>
        <time>2022-05-28T13:32:19Z</time>
      </trkpt>
      <trkpt lat="48.05204" lon="-4.04066">
        <ele>185</ele>
        <time>2022-05-28T13:32:20Z</time>
      </trkpt>
      <trkpt lat="48.05209" lon="-4.04104">
        <ele>185.1</ele>
        <time>2022-05-28T13:32:28Z</time>
      </trkpt>
      <trkpt lat="48.05241" lon="-4.04105">
        <ele>185.2</ele>
        <time>2022-05-28T13:32:40Z</time>
      </trkpt>
      <trkpt lat="48.05246" lon="-4.04103">
        <ele>185.2</ele>
        <time>2022-05-28T13:32:42Z</time>
      </trkpt>
      <trkpt lat="48.05252" lon="-4.04103">
        <ele>185.2</ele>
        <time>2022-05-28T13:32:44Z</time>
      </trkpt>
      <trkpt lat="48.05269" lon="-4.04105">
        <ele>185.7</ele>
        <time>2022-05-28T13:32:50Z</time>
      </trkpt>
      <trkpt lat="48.05272" lon="-4.04105">
        <ele>185.7</ele>
        <time>2022-05-28T13:32:51Z</time>
      </trkpt>
      <trkpt lat="48.05282" lon="-4.04103">
        <ele>185.6</ele>
        <time>2022-05-28T13:32:54Z</time>
      </trkpt>
      <trkpt lat="48.05326" lon="-4.04107">
        <ele>185.4</ele>
        <time>2022-05-28T13:33:06Z</time>
      </trkpt>
      <trkpt lat="48.05339" lon="-4.04107">
        <ele>185.4</ele>
        <time>2022-05-28T13:33:09Z</time>
      </trkpt>
      <trkpt lat="48.05344" lon="-4.04109">
        <ele>185.3</ele>
        <time>2022-05-28T13:33:10Z</time>
      </trkpt>
      <trkpt lat="48.05359" lon="-4.04109">
        <ele>185.3</ele>
        <time>2022-05-28T13:33:13Z</time>
      </trkpt>
      <trkpt lat="48.05403" lon="-4.04113">
        <ele>185.2</ele>
        <time>2022-05-28T13:33:20Z</time>
      </trkpt>
      <trkpt lat="48.05451" lon="-4.04116">
        <ele>185</ele>
        <time>2022-05-28T13:33:28Z</time>
      </trkpt>
      <trkpt lat="48.05497" lon="-4.0411">
        <ele>184.9</ele>
        <time>2022-05-28T13:33:36Z</time>
      </trkpt>
      <trkpt lat="48.05536" lon="-4.04119">
        <ele>184.7</ele>
        <time>2022-05-28T13:33:44Z</time>
      </trkpt>
      <trkpt lat="48.05583" lon="-4.04124">
        <ele>184.5</ele>
        <time>2022-05-28T13:33:54Z</time>
      </trkpt>
      <trkpt lat="48.05597" lon="-4.0413">
        <ele>184.5</ele>
        <time>2022-05-28T13:33:57Z</time>
      </trkpt>
      <trkpt lat="48.05641" lon="-4.04152">
        <ele>184.3</ele>
        <time>2022-05-28T13:34:05Z</time>
      </trkpt>
      <trkpt lat="48.05689" lon="-4.04184">
        <ele>184.1</ele>
        <time>2022-05-28T13:34:12Z</time>
      </trkpt>
      <trkpt lat="48.0574" lon="-4.04212">
        <ele>182</ele>
        <time>2022-05-28T13:34:18Z</time>
      </trkpt>
      <trkpt lat="48.05767" lon="-4.04229">
        <ele>180.4</ele>
        <time>2022-05-28T13:34:21Z</time>
      </trkpt>
      <trkpt lat="48.05796" lon="-4.04237">
        <ele>178.7</ele>
        <time>2022-05-28T13:34:24Z</time>
      </trkpt>
      <trkpt lat="48.05806" lon="-4.04238">
        <ele>178.2</ele>
        <time>2022-05-28T13:34:25Z</time>
      </trkpt>
      <trkpt lat="48.05853" lon="-4.04221">
        <ele>175.6</ele>
        <time>2022-05-28T13:34:30Z</time>
      </trkpt>
      <trkpt lat="48.05902" lon="-4.04198">
        <ele>173.5</ele>
        <time>2022-05-28T13:34:36Z</time>
      </trkpt>
      <trkpt lat="48.05952" lon="-4.04176">
        <ele>171.5</ele>
        <time>2022-05-28T13:34:42Z</time>
      </trkpt>
      <trkpt lat="48.05967" lon="-4.04167">
        <ele>171.2</ele>
        <time>2022-05-28T13:34:44Z</time>
      </trkpt>
      <trkpt lat="48.0599" lon="-4.04156">
        <ele>170.7</ele>
        <time>2022-05-28T13:34:47Z</time>
      </trkpt>
      <trkpt lat="48.05997" lon="-4.04151">
        <ele>170.5</ele>
        <time>2022-05-28T13:34:48Z</time>
      </trkpt>
      <trkpt lat="48.06031" lon="-4.04122">
        <ele>169.5</ele>
        <time>2022-05-28T13:34:53Z</time>
      </trkpt>
      <trkpt lat="48.06075" lon="-4.04082">
        <ele>168.1</ele>
        <time>2022-05-28T13:35:00Z</time>
      </trkpt>
      <trkpt lat="48.06086" lon="-4.0407">
        <ele>167.7</ele>
        <time>2022-05-28T13:35:02Z</time>
      </trkpt>
      <trkpt lat="48.06099" lon="-4.04045">
        <ele>167.1</ele>
        <time>2022-05-28T13:35:05Z</time>
      </trkpt>
      <trkpt lat="48.06116" lon="-4.04013">
        <ele>166.5</ele>
        <time>2022-05-28T13:35:09Z</time>
      </trkpt>
      <trkpt lat="48.0614" lon="-4.03952">
        <ele>165.3</ele>
        <time>2022-05-28T13:35:17Z</time>
      </trkpt>
      <trkpt lat="48.06152" lon="-4.03924">
        <ele>164.8</ele>
        <time>2022-05-28T13:35:20Z</time>
      </trkpt>
      <trkpt lat="48.06164" lon="-4.03895">
        <ele>164.4</ele>
        <time>2022-05-28T13:35:23Z</time>
      </trkpt>
      <trkpt lat="48.06177" lon="-4.03864">
        <ele>164</ele>
        <time>2022-05-28T13:35:26Z</time>
      </trkpt>
      <trkpt lat="48.0619" lon="-4.03833">
        <ele>163.7</ele>
        <time>2022-05-28T13:35:29Z</time>
      </trkpt>
      <trkpt lat="48.06209" lon="-4.03781">
        <ele>163.3</ele>
        <time>2022-05-28T13:35:34Z</time>
      </trkpt>
      <trkpt lat="48.06218" lon="-4.03742">
        <ele>162.9</ele>
        <time>2022-05-28T13:35:38Z</time>
      </trkpt>
      <trkpt lat="48.06237" lon="-4.03698">
        <ele>162.5</ele>
        <time>2022-05-28T13:35:44Z</time>
      </trkpt>
      <trkpt lat="48.06244" lon="-4.03684">
        <ele>162.8</ele>
        <time>2022-05-28T13:35:46Z</time>
      </trkpt>
      <trkpt lat="48.0626" lon="-4.03664">
        <ele>163.4</ele>
        <time>2022-05-28T13:35:50Z</time>
      </trkpt>
      <trkpt lat="48.06281" lon="-4.03638">
        <ele>163.6</ele>
        <time>2022-05-28T13:35:55Z</time>
      </trkpt>
      <trkpt lat="48.06285" lon="-4.03633">
        <ele>163.7</ele>
        <time>2022-05-28T13:35:56Z</time>
      </trkpt>
      <trkpt lat="48.06309" lon="-4.03604">
        <ele>164.3</ele>
        <time>2022-05-28T13:36:02Z</time>
      </trkpt>
      <trkpt lat="48.06339" lon="-4.03552">
        <ele>165.2</ele>
        <time>2022-05-28T13:36:11Z</time>
      </trkpt>
      <trkpt lat="48.06368" lon="-4.03497">
        <ele>166</ele>
        <time>2022-05-28T13:36:20Z</time>
      </trkpt>
      <trkpt lat="48.06378" lon="-4.0348">
        <ele>166.4</ele>
        <time>2022-05-28T13:36:23Z</time>
      </trkpt>
      <trkpt lat="48.06385" lon="-4.03461">
        <ele>166.7</ele>
        <time>2022-05-28T13:36:26Z</time>
      </trkpt>
      <trkpt lat="48.064" lon="-4.03422">
        <ele>167.2</ele>
        <time>2022-05-28T13:36:32Z</time>
      </trkpt>
      <trkpt lat="48.06427" lon="-4.03358">
        <ele>168</ele>
        <time>2022-05-28T13:36:41Z</time>
      </trkpt>
      <trkpt lat="48.06455" lon="-4.03302">
        <ele>168.8</ele>
        <time>2022-05-28T13:36:50Z</time>
      </trkpt>
      <trkpt lat="48.06473" lon="-4.03267">
        <ele>169.3</ele>
        <time>2022-05-28T13:36:56Z</time>
      </trkpt>
      <trkpt lat="48.06485" lon="-4.03243">
        <ele>169.9</ele>
        <time>2022-05-28T13:37:00Z</time>
      </trkpt>
      <trkpt lat="48.06511" lon="-4.03187">
        <ele>171.3</ele>
        <time>2022-05-28T13:37:10Z</time>
      </trkpt>
      <trkpt lat="48.06532" lon="-4.03144">
        <ele>172.4</ele>
        <time>2022-05-28T13:37:18Z</time>
      </trkpt>
      <trkpt lat="48.06539" lon="-4.03128">
        <ele>172.6</ele>
        <time>2022-05-28T13:37:21Z</time>
      </trkpt>
      <trkpt lat="48.06565" lon="-4.03073">
        <ele>173.2</ele>
        <time>2022-05-28T13:37:31Z</time>
      </trkpt>
      <trkpt lat="48.06577" lon="-4.03042">
        <ele>173.5</ele>
        <time>2022-05-28T13:37:36Z</time>
      </trkpt>
      <trkpt lat="48.06595" lon="-4.02975">
        <ele>174</ele>
        <time>2022-05-28T13:37:46Z</time>
      </trkpt>
      <trkpt lat="48.06609" lon="-4.0293">
        <ele>174.4</ele>
        <time>2022-05-28T13:37:52Z</time>
      </trkpt>
      <trkpt lat="48.06631" lon="-4.02901">
        <ele>174.6</ele>
        <time>2022-05-28T13:37:57Z</time>
      </trkpt>
      <trkpt lat="48.06675" lon="-4.02867">
        <ele>175.1</ele>
        <time>2022-05-28T13:38:05Z</time>
      </trkpt>
      <trkpt lat="48.06715" lon="-4.02837">
        <ele>175.6</ele>
        <time>2022-05-28T13:38:13Z</time>
      </trkpt>
      <trkpt lat="48.06729" lon="-4.02825">
        <ele>175.7</ele>
        <time>2022-05-28T13:38:16Z</time>
      </trkpt>
      <trkpt lat="48.06758" lon="-4.02792">
        <ele>176.1</ele>
        <time>2022-05-28T13:38:23Z</time>
      </trkpt>
      <trkpt lat="48.06766" lon="-4.02783">
        <ele>176.4</ele>
        <time>2022-05-28T13:38:25Z</time>
      </trkpt>
      <trkpt lat="48.06779" lon="-4.02769">
        <ele>176.8</ele>
        <time>2022-05-28T13:38:28Z</time>
      </trkpt>
      <trkpt lat="48.06787" lon="-4.02759">
        <ele>177</ele>
        <time>2022-05-28T13:38:30Z</time>
      </trkpt>
      <trkpt lat="48.06815" lon="-4.02707">
        <ele>178.3</ele>
        <time>2022-05-28T13:38:39Z</time>
      </trkpt>
      <trkpt lat="48.06849" lon="-4.02657">
        <ele>179.5</ele>
        <time>2022-05-28T13:38:48Z</time>
      </trkpt>
      <trkpt lat="48.06864" lon="-4.02641">
        <ele>180.1</ele>
        <time>2022-05-28T13:38:52Z</time>
      </trkpt>
      <trkpt lat="48.06906" lon="-4.02601">
        <ele>181.6</ele>
        <time>2022-05-28T13:39:03Z</time>
      </trkpt>
      <trkpt lat="48.06948" lon="-4.02572">
        <ele>182.9</ele>
        <time>2022-05-28T13:39:12Z</time>
      </trkpt>
      <trkpt lat="48.06965" lon="-4.02556">
        <ele>183.4</ele>
        <time>2022-05-28T13:39:16Z</time>
      </trkpt>
      <trkpt lat="48.0699" lon="-4.02533">
        <ele>184.3</ele>
        <time>2022-05-28T13:39:22Z</time>
      </trkpt>
      <trkpt lat="48.06996" lon="-4.02523">
        <ele>184.6</ele>
        <time>2022-05-28T13:39:24Z</time>
      </trkpt>
      <trkpt lat="48.07017" lon="-4.02472">
        <ele>185.9</ele>
        <time>2022-05-28T13:39:33Z</time>
      </trkpt>
      <trkpt lat="48.07021" lon="-4.02461">
        <ele>186</ele>
        <time>2022-05-28T13:39:35Z</time>
      </trkpt>
      <trkpt lat="48.07032" lon="-4.02394">
        <ele>186.7</ele>
        <time>2022-05-28T13:39:45Z</time>
      </trkpt>
      <trkpt lat="48.07031" lon="-4.02323">
        <ele>185.9</ele>
        <time>2022-05-28T13:39:55Z</time>
      </trkpt>
      <trkpt lat="48.0703" lon="-4.02254">
        <ele>184.7</ele>
        <time>2022-05-28T13:40:12Z</time>
      </trkpt>
      <trkpt lat="48.07041" lon="-4.02193">
        <ele>183.6</ele>
        <time>2022-05-28T13:40:27Z</time>
      </trkpt>
      <trkpt lat="48.07042" lon="-4.02184">
        <ele>183.7</ele>
        <time>2022-05-28T13:40:29Z</time>
      </trkpt>
      <trkpt lat="48.07058" lon="-4.02119">
        <ele>183.8</ele>
        <time>2022-05-28T13:40:40Z</time>
      </trkpt>
      <trkpt lat="48.07069" lon="-4.02078">
        <ele>183.9</ele>
        <time>2022-05-28T13:40:46Z</time>
      </trkpt>
      <trkpt lat="48.07077" lon="-4.02045">
        <ele>184</ele>
        <time>2022-05-28T13:40:50Z</time>
      </trkpt>
      <trkpt lat="48.07098" lon="-4.02005">
        <ele>184.1</ele>
        <time>2022-05-28T13:40:56Z</time>
      </trkpt>
      <trkpt lat="48.07103" lon="-4.02">
        <ele>184.1</ele>
        <time>2022-05-28T13:40:57Z</time>
      </trkpt>
      <trkpt lat="48.07118" lon="-4.01977">
        <ele>184.2</ele>
        <time>2022-05-28T13:41:01Z</time>
      </trkpt>
      <trkpt lat="48.07124" lon="-4.01959">
        <ele>184.2</ele>
        <time>2022-05-28T13:41:04Z</time>
      </trkpt>
      <trkpt lat="48.07131" lon="-4.0194">
        <ele>184.3</ele>
        <time>2022-05-28T13:41:08Z</time>
      </trkpt>
      <trkpt lat="48.07141" lon="-4.01938">
        <ele>184.3</ele>
        <time>2022-05-28T13:41:09Z</time>
      </trkpt>
      <trkpt lat="48.07166" lon="-4.01922">
        <ele>184.5</ele>
        <time>2022-05-28T13:41:15Z</time>
      </trkpt>
      <trkpt lat="48.07182" lon="-4.01911">
        <ele>184.8</ele>
        <time>2022-05-28T13:41:19Z</time>
      </trkpt>
      <trkpt lat="48.07221" lon="-4.01872">
        <ele>185.6</ele>
        <time>2022-05-28T13:41:29Z</time>
      </trkpt>
      <trkpt lat="48.07241" lon="-4.01845">
        <ele>186.1</ele>
        <time>2022-05-28T13:41:35Z</time>
      </trkpt>
      <trkpt lat="48.0726" lon="-4.01807">
        <ele>186.6</ele>
        <time>2022-05-28T13:41:42Z</time>
      </trkpt>
      <trkpt lat="48.07269" lon="-4.01792">
        <ele>186.9</ele>
        <time>2022-05-28T13:41:45Z</time>
      </trkpt>
      <trkpt lat="48.07296" lon="-4.01738">
        <ele>187.6</ele>
        <time>2022-05-28T13:41:55Z</time>
      </trkpt>
      <trkpt lat="48.07326" lon="-4.01681">
        <ele>187.4</ele>
        <time>2022-05-28T13:42:04Z</time>
      </trkpt>
      <trkpt lat="48.07357" lon="-4.01632">
        <ele>187.1</ele>
        <time>2022-05-28T13:42:12Z</time>
      </trkpt>
      <trkpt lat="48.07385" lon="-4.01592">
        <ele>186.9</ele>
        <time>2022-05-28T13:42:19Z</time>
      </trkpt>
      <trkpt lat="48.07423" lon="-4.01547">
        <ele>186.7</ele>
        <time>2022-05-28T13:42:28Z</time>
      </trkpt>
      <trkpt lat="48.07465" lon="-4.01506">
        <ele>186.5</ele>
        <time>2022-05-28T13:42:36Z</time>
      </trkpt>
      <trkpt lat="48.07509" lon="-4.01468">
        <ele>186.3</ele>
        <time>2022-05-28T13:42:43Z</time>
      </trkpt>
      <trkpt lat="48.07515" lon="-4.01461">
        <ele>186.2</ele>
        <time>2022-05-28T13:42:44Z</time>
      </trkpt>
      <trkpt lat="48.0752" lon="-4.01453">
        <ele>186.2</ele>
        <time>2022-05-28T13:42:45Z</time>
      </trkpt>
      <trkpt lat="48.07547" lon="-4.01426">
        <ele>186</ele>
        <time>2022-05-28T13:42:49Z</time>
      </trkpt>
      <trkpt lat="48.07561" lon="-4.01413">
        <ele>185.6</ele>
        <time>2022-05-28T13:42:51Z</time>
      </trkpt>
      <trkpt lat="48.07605" lon="-4.01371">
        <ele>184.4</ele>
        <time>2022-05-28T13:42:57Z</time>
      </trkpt>
      <trkpt lat="48.07649" lon="-4.01325">
        <ele>183.2</ele>
        <time>2022-05-28T13:43:03Z</time>
      </trkpt>
      <trkpt lat="48.07678" lon="-4.01296">
        <ele>182.4</ele>
        <time>2022-05-28T13:43:07Z</time>
      </trkpt>
      <trkpt lat="48.07692" lon="-4.01281">
        <ele>182.3</ele>
        <time>2022-05-28T13:43:09Z</time>
      </trkpt>
      <trkpt lat="48.07736" lon="-4.01237">
        <ele>181.8</ele>
        <time>2022-05-28T13:43:15Z</time>
      </trkpt>
      <trkpt lat="48.07776" lon="-4.01198">
        <ele>181.3</ele>
        <time>2022-05-28T13:43:21Z</time>
      </trkpt>
      <trkpt lat="48.07798" lon="-4.01175">
        <ele>181.1</ele>
        <time>2022-05-28T13:43:25Z</time>
      </trkpt>
      <trkpt lat="48.07814" lon="-4.01158">
        <ele>181.6</ele>
        <time>2022-05-28T13:43:28Z</time>
      </trkpt>
      <trkpt lat="48.07844" lon="-4.01128">
        <ele>182.8</ele>
        <time>2022-05-28T13:43:35Z</time>
      </trkpt>
      <trkpt lat="48.07853" lon="-4.0112">
        <ele>183.2</ele>
        <time>2022-05-28T13:43:37Z</time>
      </trkpt>
      <trkpt lat="48.07893" lon="-4.0108">
        <ele>185.5</ele>
        <time>2022-05-28T13:43:48Z</time>
      </trkpt>
      <trkpt lat="48.07912" lon="-4.01063">
        <ele>186.5</ele>
        <time>2022-05-28T13:43:53Z</time>
      </trkpt>
      <trkpt lat="48.07927" lon="-4.0105">
        <ele>187.2</ele>
        <time>2022-05-28T13:43:57Z</time>
      </trkpt>
      <trkpt lat="48.0797" lon="-4.01027">
        <ele>189.1</ele>
        <time>2022-05-28T13:44:08Z</time>
      </trkpt>
      <trkpt lat="48.08" lon="-4.01015">
        <ele>190.6</ele>
        <time>2022-05-28T13:44:17Z</time>
      </trkpt>
      <trkpt lat="48.08014" lon="-4.0101">
        <ele>191.2</ele>
        <time>2022-05-28T13:44:21Z</time>
      </trkpt>
      <trkpt lat="48.08062" lon="-4.01">
        <ele>193.3</ele>
        <time>2022-05-28T13:44:35Z</time>
      </trkpt>
      <trkpt lat="48.08084" lon="-4.00997">
        <ele>194.2</ele>
        <time>2022-05-28T13:44:41Z</time>
      </trkpt>
      <trkpt lat="48.08105" lon="-4.00993">
        <ele>194.9</ele>
        <time>2022-05-28T13:44:47Z</time>
      </trkpt>
      <trkpt lat="48.08109" lon="-4.00993">
        <ele>194.8</ele>
        <time>2022-05-28T13:44:48Z</time>
      </trkpt>
      <trkpt lat="48.08157" lon="-4.00985">
        <ele>194.4</ele>
        <time>2022-05-28T13:45:00Z</time>
      </trkpt>
      <trkpt lat="48.08206" lon="-4.00972">
        <ele>194</ele>
        <time>2022-05-28T13:45:10Z</time>
      </trkpt>
      <trkpt lat="48.08249" lon="-4.00949">
        <ele>193.7</ele>
        <time>2022-05-28T13:45:18Z</time>
      </trkpt>
      <trkpt lat="48.08285" lon="-4.00923">
        <ele>193.4</ele>
        <time>2022-05-28T13:45:25Z</time>
      </trkpt>
      <trkpt lat="48.08302" lon="-4.00899">
        <ele>193.3</ele>
        <time>2022-05-28T13:45:29Z</time>
      </trkpt>
      <trkpt lat="48.08307" lon="-4.00894">
        <ele>193.2</ele>
        <time>2022-05-28T13:45:30Z</time>
      </trkpt>
      <trkpt lat="48.08343" lon="-4.00841">
        <ele>192.9</ele>
        <time>2022-05-28T13:45:38Z</time>
      </trkpt>
      <trkpt lat="48.08377" lon="-4.00794">
        <ele>192.6</ele>
        <time>2022-05-28T13:45:45Z</time>
      </trkpt>
      <trkpt lat="48.08412" lon="-4.00751">
        <ele>192.4</ele>
        <time>2022-05-28T13:45:51Z</time>
      </trkpt>
      <trkpt lat="48.08452" lon="-4.00712">
        <ele>192.2</ele>
        <time>2022-05-28T13:45:57Z</time>
      </trkpt>
      <trkpt lat="48.08466" lon="-4.00698">
        <ele>192</ele>
        <time>2022-05-28T13:45:59Z</time>
      </trkpt>
      <trkpt lat="48.08495" lon="-4.0067">
        <ele>190.8</ele>
        <time>2022-05-28T13:46:03Z</time>
      </trkpt>
      <trkpt lat="48.0852" lon="-4.00649">
        <ele>189.9</ele>
        <time>2022-05-28T13:46:06Z</time>
      </trkpt>
      <trkpt lat="48.08564" lon="-4.00607">
        <ele>188.4</ele>
        <time>2022-05-28T13:46:11Z</time>
      </trkpt>
      <trkpt lat="48.0861" lon="-4.00561">
        <ele>185.7</ele>
        <time>2022-05-28T13:46:16Z</time>
      </trkpt>
      <trkpt lat="48.08619" lon="-4.00553">
        <ele>185.2</ele>
        <time>2022-05-28T13:46:17Z</time>
      </trkpt>
      <trkpt lat="48.08628" lon="-4.00544">
        <ele>184.8</ele>
        <time>2022-05-28T13:46:18Z</time>
      </trkpt>
      <trkpt lat="48.08671" lon="-4.005">
        <ele>182.4</ele>
        <time>2022-05-28T13:46:23Z</time>
      </trkpt>
      <trkpt lat="48.08715" lon="-4.00458">
        <ele>180.1</ele>
        <time>2022-05-28T13:46:28Z</time>
      </trkpt>
      <trkpt lat="48.08724" lon="-4.00449">
        <ele>179.7</ele>
        <time>2022-05-28T13:46:29Z</time>
      </trkpt>
      <trkpt lat="48.08761" lon="-4.00415">
        <ele>179</ele>
        <time>2022-05-28T13:46:33Z</time>
      </trkpt>
      <trkpt lat="48.08779" lon="-4.00398">
        <ele>178.6</ele>
        <time>2022-05-28T13:46:35Z</time>
      </trkpt>
      <trkpt lat="48.08794" lon="-4.00382">
        <ele>178.3</ele>
        <time>2022-05-28T13:46:37Z</time>
      </trkpt>
      <trkpt lat="48.08827" lon="-4.00359">
        <ele>177.6</ele>
        <time>2022-05-28T13:46:41Z</time>
      </trkpt>
      <trkpt lat="48.08836" lon="-4.00355">
        <ele>177.6</ele>
        <time>2022-05-28T13:46:42Z</time>
      </trkpt>
      <trkpt lat="48.08875" lon="-4.00349">
        <ele>177.8</ele>
        <time>2022-05-28T13:46:47Z</time>
      </trkpt>
      <trkpt lat="48.08883" lon="-4.00348">
        <ele>178</ele>
        <time>2022-05-28T13:46:48Z</time>
      </trkpt>
      <trkpt lat="48.08916" lon="-4.0035">
        <ele>179</ele>
        <time>2022-05-28T13:46:53Z</time>
      </trkpt>
      <trkpt lat="48.0893" lon="-4.0035">
        <ele>179.3</ele>
        <time>2022-05-28T13:46:55Z</time>
      </trkpt>
      <trkpt lat="48.0898" lon="-4.00351">
        <ele>180.3</ele>
        <time>2022-05-28T13:47:03Z</time>
      </trkpt>
      <trkpt lat="48.09025" lon="-4.00353">
        <ele>181.3</ele>
        <time>2022-05-28T13:47:11Z</time>
      </trkpt>
      <trkpt lat="48.09062" lon="-4.00355">
        <ele>182</ele>
        <time>2022-05-28T13:47:17Z</time>
      </trkpt>
      <trkpt lat="48.09074" lon="-4.00355">
        <ele>181.6</ele>
        <time>2022-05-28T13:47:19Z</time>
      </trkpt>
      <trkpt lat="48.09126" lon="-4.00358">
        <ele>180</ele>
        <time>2022-05-28T13:47:26Z</time>
      </trkpt>
      <trkpt lat="48.09154" lon="-4.00358">
        <ele>179.3</ele>
        <time>2022-05-28T13:47:29Z</time>
      </trkpt>
      <trkpt lat="48.09172" lon="-4.00358">
        <ele>178.3</ele>
        <time>2022-05-28T13:47:31Z</time>
      </trkpt>
      <trkpt lat="48.09209" lon="-4.00356">
        <ele>176.5</ele>
        <time>2022-05-28T13:47:35Z</time>
      </trkpt>
      <trkpt lat="48.09218" lon="-4.00355">
        <ele>176.5</ele>
        <time>2022-05-28T13:47:36Z</time>
      </trkpt>
      <trkpt lat="48.09257" lon="-4.00345">
        <ele>176.5</ele>
        <time>2022-05-28T13:47:41Z</time>
      </trkpt>
      <trkpt lat="48.09295" lon="-4.00325">
        <ele>178</ele>
        <time>2022-05-28T13:47:47Z</time>
      </trkpt>
      <trkpt lat="48.09301" lon="-4.00322">
        <ele>178.3</ele>
        <time>2022-05-28T13:47:48Z</time>
      </trkpt>
      <trkpt lat="48.09324" lon="-4.00308">
        <ele>179.6</ele>
        <time>2022-05-28T13:47:53Z</time>
      </trkpt>
      <trkpt lat="48.09342" lon="-4.00297">
        <ele>180.2</ele>
        <time>2022-05-28T13:47:57Z</time>
      </trkpt>
      <trkpt lat="48.09369" lon="-4.00281">
        <ele>181.4</ele>
        <time>2022-05-28T13:48:04Z</time>
      </trkpt>
      <trkpt lat="48.09384" lon="-4.00272">
        <ele>182.2</ele>
        <time>2022-05-28T13:48:08Z</time>
      </trkpt>
      <trkpt lat="48.09428" lon="-4.00245">
        <ele>184.4</ele>
        <time>2022-05-28T13:48:20Z</time>
      </trkpt>
      <trkpt lat="48.09435" lon="-4.00241">
        <ele>184.8</ele>
        <time>2022-05-28T13:48:22Z</time>
      </trkpt>
      <trkpt lat="48.0947" lon="-4.0022">
        <ele>186.3</ele>
        <time>2022-05-28T13:48:32Z</time>
      </trkpt>
      <trkpt lat="48.09503" lon="-4.00201">
        <ele>187.8</ele>
        <time>2022-05-28T13:48:42Z</time>
      </trkpt>
      <trkpt lat="48.09517" lon="-4.00192">
        <ele>188.4</ele>
        <time>2022-05-28T13:48:46Z</time>
      </trkpt>
      <trkpt lat="48.09548" lon="-4.00172">
        <ele>189.5</ele>
        <time>2022-05-28T13:48:55Z</time>
      </trkpt>
      <trkpt lat="48.0958" lon="-4.00164">
        <ele>190.6</ele>
        <time>2022-05-28T13:49:04Z</time>
      </trkpt>
      <trkpt lat="48.09594" lon="-4.00161">
        <ele>190.8</ele>
        <time>2022-05-28T13:49:08Z</time>
      </trkpt>
      <trkpt lat="48.09641" lon="-4.00152">
        <ele>191.4</ele>
        <time>2022-05-28T13:49:19Z</time>
      </trkpt>
      <trkpt lat="48.09669" lon="-4.00134">
        <ele>191.7</ele>
        <time>2022-05-28T13:49:25Z</time>
      </trkpt>
      <trkpt lat="48.09682" lon="-4.00139">
        <ele>191.9</ele>
        <time>2022-05-28T13:49:28Z</time>
      </trkpt>
      <trkpt lat="48.0969" lon="-4.00145">
        <ele>192</ele>
        <time>2022-05-28T13:49:30Z</time>
      </trkpt>
      <trkpt lat="48.09717" lon="-4.00131">
        <ele>192.3</ele>
        <time>2022-05-28T13:49:35Z</time>
      </trkpt>
      <trkpt lat="48.09764" lon="-4.00123">
        <ele>192.8</ele>
        <time>2022-05-28T13:49:45Z</time>
      </trkpt>
      <trkpt lat="48.09809" lon="-4.00116">
        <ele>193.4</ele>
        <time>2022-05-28T13:49:55Z</time>
      </trkpt>
      <trkpt lat="48.09855" lon="-4.00105">
        <ele>193.9</ele>
        <time>2022-05-28T13:50:05Z</time>
      </trkpt>
      <trkpt lat="48.09864" lon="-4.00103">
        <ele>194</ele>
        <time>2022-05-28T13:50:07Z</time>
      </trkpt>
      <trkpt lat="48.09902" lon="-4.00094">
        <ele>195.4</ele>
        <time>2022-05-28T13:50:15Z</time>
      </trkpt>
      <trkpt lat="48.09915" lon="-4.00092">
        <ele>195.9</ele>
        <time>2022-05-28T13:50:18Z</time>
      </trkpt>
      <trkpt lat="48.09929" lon="-4.0009">
        <ele>196.3</ele>
        <time>2022-05-28T13:50:21Z</time>
      </trkpt>
      <trkpt lat="48.09941" lon="-4.00094">
        <ele>196.7</ele>
        <time>2022-05-28T13:50:24Z</time>
      </trkpt>
      <trkpt lat="48.09989" lon="-4.00095">
        <ele>198.3</ele>
        <time>2022-05-28T13:50:35Z</time>
      </trkpt>
      <trkpt lat="48.10021" lon="-4.001">
        <ele>199.3</ele>
        <time>2022-05-28T13:50:42Z</time>
      </trkpt>
      <trkpt lat="48.10034" lon="-4.00102">
        <ele>199.8</ele>
        <time>2022-05-28T13:50:45Z</time>
      </trkpt>
      <trkpt lat="48.10047" lon="-4.00104">
        <ele>200.3</ele>
        <time>2022-05-28T13:50:48Z</time>
      </trkpt>
      <trkpt lat="48.10068" lon="-4.00107">
        <ele>200.5</ele>
        <time>2022-05-28T13:50:53Z</time>
      </trkpt>
      <trkpt lat="48.10072" lon="-4.00107">
        <ele>200.6</ele>
        <time>2022-05-28T13:50:54Z</time>
      </trkpt>
      <trkpt lat="48.10102" lon="-4.00114">
        <ele>201.8</ele>
        <time>2022-05-28T13:51:02Z</time>
      </trkpt>
      <trkpt lat="48.10134" lon="-4.00117">
        <ele>203</ele>
        <time>2022-05-28T13:51:11Z</time>
      </trkpt>
      <trkpt lat="48.10138" lon="-4.00119">
        <ele>203.2</ele>
        <time>2022-05-28T13:51:12Z</time>
      </trkpt>
      <trkpt lat="48.10142" lon="-4.0012">
        <ele>203.3</ele>
        <time>2022-05-28T13:51:13Z</time>
      </trkpt>
      <trkpt lat="48.10183" lon="-4.00126">
        <ele>204.7</ele>
        <time>2022-05-28T13:51:24Z</time>
      </trkpt>
      <trkpt lat="48.10191" lon="-4.00127">
        <ele>205</ele>
        <time>2022-05-28T13:51:26Z</time>
      </trkpt>
      <trkpt lat="48.10206" lon="-4.0013">
        <ele>205.7</ele>
        <time>2022-05-28T13:51:30Z</time>
      </trkpt>
      <trkpt lat="48.10217" lon="-4.00129">
        <ele>206.3</ele>
        <time>2022-05-28T13:51:33Z</time>
      </trkpt>
      <trkpt lat="48.10221" lon="-4.00125">
        <ele>206.4</ele>
        <time>2022-05-28T13:51:34Z</time>
      </trkpt>
      <trkpt lat="48.10266" lon="-4.00136">
        <ele>208.3</ele>
        <time>2022-05-28T13:51:45Z</time>
      </trkpt>
      <trkpt lat="48.10298" lon="-4.0014">
        <ele>209.7</ele>
        <time>2022-05-28T13:51:53Z</time>
      </trkpt>
      <trkpt lat="48.10314" lon="-4.00141">
        <ele>210.4</ele>
        <time>2022-05-28T13:51:57Z</time>
      </trkpt>
      <trkpt lat="48.10362" lon="-4.0015">
        <ele>212.5</ele>
        <time>2022-05-28T13:52:09Z</time>
      </trkpt>
      <trkpt lat="48.10383" lon="-4.00152">
        <ele>213.3</ele>
        <time>2022-05-28T13:52:14Z</time>
      </trkpt>
      <trkpt lat="48.10403" lon="-4.00155">
        <ele>213.7</ele>
        <time>2022-05-28T13:52:19Z</time>
      </trkpt>
      <trkpt lat="48.10411" lon="-4.00156">
        <ele>213.7</ele>
        <time>2022-05-28T13:52:21Z</time>
      </trkpt>
      <trkpt lat="48.10455" lon="-4.00165">
        <ele>213.4</ele>
        <time>2022-05-28T13:52:32Z</time>
      </trkpt>
      <trkpt lat="48.105" lon="-4.00173">
        <ele>212.9</ele>
        <time>2022-05-28T13:52:50Z</time>
      </trkpt>
      <trkpt lat="48.10547" lon="-4.00185">
        <ele>212.6</ele>
        <time>2022-05-28T13:53:02Z</time>
      </trkpt>
      <trkpt lat="48.10565" lon="-4.00196">
        <ele>212.4</ele>
        <time>2022-05-28T13:53:06Z</time>
      </trkpt>
      <trkpt lat="48.10592" lon="-4.00211">
        <ele>211</ele>
        <time>2022-05-28T13:53:12Z</time>
      </trkpt>
      <trkpt lat="48.10637" lon="-4.00238">
        <ele>209.3</ele>
        <time>2022-05-28T13:53:19Z</time>
      </trkpt>
      <trkpt lat="48.1067" lon="-4.00254">
        <ele>208.1</ele>
        <time>2022-05-28T13:53:24Z</time>
      </trkpt>
      <trkpt lat="48.10684" lon="-4.00261">
        <ele>207.5</ele>
        <time>2022-05-28T13:53:26Z</time>
      </trkpt>
      <trkpt lat="48.10712" lon="-4.00277">
        <ele>206.3</ele>
        <time>2022-05-28T13:53:30Z</time>
      </trkpt>
      <trkpt lat="48.10717" lon="-4.0028">
        <ele>206</ele>
        <time>2022-05-28T13:53:31Z</time>
      </trkpt>
      <trkpt lat="48.10722" lon="-4.00281">
        <ele>205.7</ele>
        <time>2022-05-28T13:53:32Z</time>
      </trkpt>
      <trkpt lat="48.10744" lon="-4.00301">
        <ele>204.6</ele>
        <time>2022-05-28T13:53:36Z</time>
      </trkpt>
      <trkpt lat="48.1075" lon="-4.00306">
        <ele>204.4</ele>
        <time>2022-05-28T13:53:37Z</time>
      </trkpt>
      <trkpt lat="48.10781" lon="-4.0033">
        <ele>203.7</ele>
        <time>2022-05-28T13:53:42Z</time>
      </trkpt>
      <trkpt lat="48.10793" lon="-4.0034">
        <ele>203.4</ele>
        <time>2022-05-28T13:53:44Z</time>
      </trkpt>
      <trkpt lat="48.10832" lon="-4.0038">
        <ele>202.4</ele>
        <time>2022-05-28T13:53:51Z</time>
      </trkpt>
      <trkpt lat="48.10872" lon="-4.00419">
        <ele>201.3</ele>
        <time>2022-05-28T13:53:58Z</time>
      </trkpt>
      <trkpt lat="48.10904" lon="-4.00452">
        <ele>200.4</ele>
        <time>2022-05-28T13:54:04Z</time>
      </trkpt>
      <trkpt lat="48.1091" lon="-4.00457">
        <ele>200.2</ele>
        <time>2022-05-28T13:54:05Z</time>
      </trkpt>
      <trkpt lat="48.10947" lon="-4.00495">
        <ele>199.1</ele>
        <time>2022-05-28T13:54:12Z</time>
      </trkpt>
      <trkpt lat="48.10989" lon="-4.00538">
        <ele>198.1</ele>
        <time>2022-05-28T13:54:19Z</time>
      </trkpt>
      <trkpt lat="48.11021" lon="-4.00572">
        <ele>197.3</ele>
        <time>2022-05-28T13:54:24Z</time>
      </trkpt>
      <trkpt lat="48.11026" lon="-4.00579">
        <ele>197.3</ele>
        <time>2022-05-28T13:54:25Z</time>
      </trkpt>
      <trkpt lat="48.11044" lon="-4.00611">
        <ele>197.2</ele>
        <time>2022-05-28T13:54:29Z</time>
      </trkpt>
      <trkpt lat="48.11056" lon="-4.00635">
        <ele>197.7</ele>
        <time>2022-05-28T13:54:32Z</time>
      </trkpt>
      <trkpt lat="48.11071" lon="-4.00683">
        <ele>198.8</ele>
        <time>2022-05-28T13:54:38Z</time>
      </trkpt>
      <trkpt lat="48.11074" lon="-4.00699">
        <ele>199.2</ele>
        <time>2022-05-28T13:54:40Z</time>
      </trkpt>
      <trkpt lat="48.11075" lon="-4.00707">
        <ele>199.4</ele>
        <time>2022-05-28T13:54:41Z</time>
      </trkpt>
      <trkpt lat="48.11093" lon="-4.00775">
        <ele>201</ele>
        <time>2022-05-28T13:54:50Z</time>
      </trkpt>
      <trkpt lat="48.11106" lon="-4.00833">
        <ele>202.5</ele>
        <time>2022-05-28T13:54:58Z</time>
      </trkpt>
      <trkpt lat="48.11107" lon="-4.0084">
        <ele>202.5</ele>
        <time>2022-05-28T13:54:59Z</time>
      </trkpt>
      <trkpt lat="48.11116" lon="-4.00877">
        <ele>202.9</ele>
        <time>2022-05-28T13:55:04Z</time>
      </trkpt>
      <trkpt lat="48.11123" lon="-4.00908">
        <ele>203</ele>
        <time>2022-05-28T13:55:08Z</time>
      </trkpt>
      <trkpt lat="48.1114" lon="-4.00972">
        <ele>203.3</ele>
        <time>2022-05-28T13:55:15Z</time>
      </trkpt>
      <trkpt lat="48.11161" lon="-4.01033">
        <ele>203.6</ele>
        <time>2022-05-28T13:55:22Z</time>
      </trkpt>
      <trkpt lat="48.11201" lon="-4.0108">
        <ele>203.9</ele>
        <time>2022-05-28T13:55:30Z</time>
      </trkpt>
      <trkpt lat="48.11229" lon="-4.01104">
        <ele>204.1</ele>
        <time>2022-05-28T13:55:36Z</time>
      </trkpt>
      <trkpt lat="48.11271" lon="-4.01134">
        <ele>204.5</ele>
        <time>2022-05-28T13:55:46Z</time>
      </trkpt>
      <trkpt lat="48.11299" lon="-4.01158">
        <ele>204.8</ele>
        <time>2022-05-28T13:55:52Z</time>
      </trkpt>
      <trkpt lat="48.11343" lon="-4.0119">
        <ele>205</ele>
        <time>2022-05-28T13:55:59Z</time>
      </trkpt>
      <trkpt lat="48.11357" lon="-4.01203">
        <ele>205.1</ele>
        <time>2022-05-28T13:56:01Z</time>
      </trkpt>
      <trkpt lat="48.114" lon="-4.01234">
        <ele>205.4</ele>
        <time>2022-05-28T13:56:08Z</time>
      </trkpt>
      <trkpt lat="48.11442" lon="-4.01271">
        <ele>205.7</ele>
        <time>2022-05-28T13:56:16Z</time>
      </trkpt>
      <trkpt lat="48.11484" lon="-4.01309">
        <ele>206.1</ele>
        <time>2022-05-28T13:56:25Z</time>
      </trkpt>
      <trkpt lat="48.11499" lon="-4.01322">
        <ele>206.4</ele>
        <time>2022-05-28T13:56:28Z</time>
      </trkpt>
      <trkpt lat="48.11543" lon="-4.01353">
        <ele>207.3</ele>
        <time>2022-05-28T13:56:37Z</time>
      </trkpt>
      <trkpt lat="48.11582" lon="-4.01388">
        <ele>208.2</ele>
        <time>2022-05-28T13:56:46Z</time>
      </trkpt>
      <trkpt lat="48.11626" lon="-4.01423">
        <ele>209.2</ele>
        <time>2022-05-28T13:56:56Z</time>
      </trkpt>
      <trkpt lat="48.11631" lon="-4.01427">
        <ele>209.3</ele>
        <time>2022-05-28T13:56:57Z</time>
      </trkpt>
      <trkpt lat="48.1167" lon="-4.01457">
        <ele>209.8</ele>
        <time>2022-05-28T13:57:05Z</time>
      </trkpt>
      <trkpt lat="48.11715" lon="-4.01493">
        <ele>210.4</ele>
        <time>2022-05-28T13:57:14Z</time>
      </trkpt>
      <trkpt lat="48.11755" lon="-4.01525">
        <ele>210.9</ele>
        <time>2022-05-28T13:57:22Z</time>
      </trkpt>
      <trkpt lat="48.11798" lon="-4.01563">
        <ele>211.4</ele>
        <time>2022-05-28T13:57:31Z</time>
      </trkpt>
      <trkpt lat="48.11837" lon="-4.01599">
        <ele>212</ele>
        <time>2022-05-28T13:57:40Z</time>
      </trkpt>
      <trkpt lat="48.11855" lon="-4.01614">
        <ele>212.3</ele>
        <time>2022-05-28T13:57:44Z</time>
      </trkpt>
      <trkpt lat="48.11876" lon="-4.01633">
        <ele>213.3</ele>
        <time>2022-05-28T13:57:49Z</time>
      </trkpt>
      <trkpt lat="48.11917" lon="-4.01667">
        <ele>215.3</ele>
        <time>2022-05-28T13:57:59Z</time>
      </trkpt>
      <trkpt lat="48.11928" lon="-4.01678">
        <ele>215.8</ele>
        <time>2022-05-28T13:58:02Z</time>
      </trkpt>
      <trkpt lat="48.11956" lon="-4.01703">
        <ele>215.5</ele>
        <time>2022-05-28T13:58:09Z</time>
      </trkpt>
      <trkpt lat="48.11976" lon="-4.01722">
        <ele>215.3</ele>
        <time>2022-05-28T13:58:13Z</time>
      </trkpt>
      <trkpt lat="48.11997" lon="-4.01742">
        <ele>214.3</ele>
        <time>2022-05-28T13:58:17Z</time>
      </trkpt>
      <trkpt lat="48.12004" lon="-4.01748">
        <ele>214</ele>
        <time>2022-05-28T13:58:18Z</time>
      </trkpt>
      <trkpt lat="48.12042" lon="-4.01783">
        <ele>212.4</ele>
        <time>2022-05-28T13:58:24Z</time>
      </trkpt>
      <trkpt lat="48.1207" lon="-4.0181">
        <ele>211.3</ele>
        <time>2022-05-28T13:58:28Z</time>
      </trkpt>
      <trkpt lat="48.12085" lon="-4.01823">
        <ele>210.5</ele>
        <time>2022-05-28T13:58:30Z</time>
      </trkpt>
      <trkpt lat="48.12131" lon="-4.01863">
        <ele>208.1</ele>
        <time>2022-05-28T13:58:36Z</time>
      </trkpt>
      <trkpt lat="48.12163" lon="-4.01891">
        <ele>206.6</ele>
        <time>2022-05-28T13:58:40Z</time>
      </trkpt>
      <trkpt lat="48.12171" lon="-4.01898">
        <ele>206.3</ele>
        <time>2022-05-28T13:58:41Z</time>
      </trkpt>
      <trkpt lat="48.12212" lon="-4.01935">
        <ele>204.8</ele>
        <time>2022-05-28T13:58:46Z</time>
      </trkpt>
      <trkpt lat="48.12256" lon="-4.01978">
        <ele>203.4</ele>
        <time>2022-05-28T13:58:51Z</time>
      </trkpt>
      <trkpt lat="48.12265" lon="-4.01985">
        <ele>203</ele>
        <time>2022-05-28T13:58:52Z</time>
      </trkpt>
      <trkpt lat="48.12298" lon="-4.02012">
        <ele>201.5</ele>
        <time>2022-05-28T13:58:56Z</time>
      </trkpt>
      <trkpt lat="48.1233" lon="-4.02045">
        <ele>198.4</ele>
        <time>2022-05-28T13:59:04Z</time>
      </trkpt>
      <trkpt lat="48.12346" lon="-4.02032">
        <ele>198.1</ele>
        <time>2022-05-28T13:59:10Z</time>
      </trkpt>
      <trkpt lat="48.12361" lon="-4.02019">
        <ele>197.9</ele>
        <time>2022-05-28T13:59:16Z</time>
      </trkpt>
      <trkpt lat="48.12373" lon="-4.0201">
        <ele>197.4</ele>
        <time>2022-05-28T13:59:20Z</time>
      </trkpt>
      <trkpt lat="48.12421" lon="-4.01981">
        <ele>196.1</ele>
        <time>2022-05-28T13:59:29Z</time>
      </trkpt>
      <trkpt lat="48.12456" lon="-4.01959">
        <ele>195.3</ele>
        <time>2022-05-28T13:59:34Z</time>
      </trkpt>
      <trkpt lat="48.12463" lon="-4.01955">
        <ele>195</ele>
        <time>2022-05-28T13:59:35Z</time>
      </trkpt>
      <trkpt lat="48.12478" lon="-4.01948">
        <ele>194.5</ele>
        <time>2022-05-28T13:59:37Z</time>
      </trkpt>
      <trkpt lat="48.1252" lon="-4.01917">
        <ele>193</ele>
        <time>2022-05-28T13:59:43Z</time>
      </trkpt>
      <trkpt lat="48.12542" lon="-4.01903">
        <ele>192.2</ele>
        <time>2022-05-28T13:59:46Z</time>
      </trkpt>
      <trkpt lat="48.12565" lon="-4.01889">
        <ele>191.5</ele>
        <time>2022-05-28T13:59:49Z</time>
      </trkpt>
      <trkpt lat="48.1259" lon="-4.01875">
        <ele>190.7</ele>
        <time>2022-05-28T13:59:52Z</time>
      </trkpt>
      <trkpt lat="48.12614" lon="-4.01861">
        <ele>190.4</ele>
        <time>2022-05-28T13:59:55Z</time>
      </trkpt>
      <trkpt lat="48.12663" lon="-4.01837">
        <ele>189.8</ele>
        <time>2022-05-28T14:00:01Z</time>
      </trkpt>
      <trkpt lat="48.12687" lon="-4.01832">
        <ele>189.5</ele>
        <time>2022-05-28T14:00:04Z</time>
      </trkpt>
      <trkpt lat="48.12711" lon="-4.01828">
        <ele>189.4</ele>
        <time>2022-05-28T14:00:07Z</time>
      </trkpt>
      <trkpt lat="48.12758" lon="-4.01826">
        <ele>189.3</ele>
        <time>2022-05-28T14:00:13Z</time>
      </trkpt>
      <trkpt lat="48.12807" lon="-4.01831">
        <ele>189.1</ele>
        <time>2022-05-28T14:00:20Z</time>
      </trkpt>
      <trkpt lat="48.12852" lon="-4.01836">
        <ele>188.9</ele>
        <time>2022-05-28T14:00:27Z</time>
      </trkpt>
      <trkpt lat="48.12899" lon="-4.0184">
        <ele>188.7</ele>
        <time>2022-05-28T14:00:35Z</time>
      </trkpt>
      <trkpt lat="48.12947" lon="-4.01844">
        <ele>188.5</ele>
        <time>2022-05-28T14:00:43Z</time>
      </trkpt>
      <trkpt lat="48.12994" lon="-4.01844">
        <ele>188.3</ele>
        <time>2022-05-28T14:00:51Z</time>
      </trkpt>
      <trkpt lat="48.13033" lon="-4.01839">
        <ele>188.1</ele>
        <time>2022-05-28T14:00:56Z</time>
      </trkpt>
      <trkpt lat="48.13049" lon="-4.01836">
        <ele>187.5</ele>
        <time>2022-05-28T14:00:58Z</time>
      </trkpt>
      <trkpt lat="48.13093" lon="-4.01813">
        <ele>186.1</ele>
        <time>2022-05-28T14:01:03Z</time>
      </trkpt>
      <trkpt lat="48.13111" lon="-4.01808">
        <ele>185.5</ele>
        <time>2022-05-28T14:01:05Z</time>
      </trkpt>
      <trkpt lat="48.13136" lon="-4.01793">
        <ele>184.6</ele>
        <time>2022-05-28T14:01:08Z</time>
      </trkpt>
      <trkpt lat="48.13154" lon="-4.01783">
        <ele>183.8</ele>
        <time>2022-05-28T14:01:10Z</time>
      </trkpt>
      <trkpt lat="48.13202" lon="-4.01762">
        <ele>181.8</ele>
        <time>2022-05-28T14:01:15Z</time>
      </trkpt>
      <trkpt lat="48.13228" lon="-4.01752">
        <ele>181</ele>
        <time>2022-05-28T14:01:17Z</time>
      </trkpt>
      <trkpt lat="48.13258" lon="-4.01736">
        <ele>179.8</ele>
        <time>2022-05-28T14:01:20Z</time>
      </trkpt>
      <trkpt lat="48.13278" lon="-4.01727">
        <ele>178.7</ele>
        <time>2022-05-28T14:01:22Z</time>
      </trkpt>
      <trkpt lat="48.13322" lon="-4.01716">
        <ele>176.6</ele>
        <time>2022-05-28T14:01:26Z</time>
      </trkpt>
      <trkpt lat="48.13333" lon="-4.01713">
        <ele>176.1</ele>
        <time>2022-05-28T14:01:27Z</time>
      </trkpt>
      <trkpt lat="48.13381" lon="-4.01702">
        <ele>174.1</ele>
        <time>2022-05-28T14:01:31Z</time>
      </trkpt>
      <trkpt lat="48.13428" lon="-4.01691">
        <ele>172.2</ele>
        <time>2022-05-28T14:01:35Z</time>
      </trkpt>
      <trkpt lat="48.13461" lon="-4.01684">
        <ele>170.8</ele>
        <time>2022-05-28T14:01:38Z</time>
      </trkpt>
      <trkpt lat="48.13472" lon="-4.01682">
        <ele>170.6</ele>
        <time>2022-05-28T14:01:39Z</time>
      </trkpt>
      <trkpt lat="48.13523" lon="-4.01667">
        <ele>169.5</ele>
        <time>2022-05-28T14:01:44Z</time>
      </trkpt>
      <trkpt lat="48.13575" lon="-4.01652">
        <ele>168.3</ele>
        <time>2022-05-28T14:01:50Z</time>
      </trkpt>
      <trkpt lat="48.13623" lon="-4.01646">
        <ele>168.1</ele>
        <time>2022-05-28T14:01:55Z</time>
      </trkpt>
      <trkpt lat="48.13632" lon="-4.01644">
        <ele>168</ele>
        <time>2022-05-28T14:01:56Z</time>
      </trkpt>
      <trkpt lat="48.13676" lon="-4.01636">
        <ele>167</ele>
        <time>2022-05-28T14:02:01Z</time>
      </trkpt>
      <trkpt lat="48.13726" lon="-4.01625">
        <ele>166</ele>
        <time>2022-05-28T14:02:06Z</time>
      </trkpt>
      <trkpt lat="48.13736" lon="-4.01623">
        <ele>165.8</ele>
        <time>2022-05-28T14:02:07Z</time>
      </trkpt>
      <trkpt lat="48.13777" lon="-4.01614">
        <ele>165</ele>
        <time>2022-05-28T14:02:11Z</time>
      </trkpt>
      <trkpt lat="48.13797" lon="-4.01609">
        <ele>164.6</ele>
        <time>2022-05-28T14:02:13Z</time>
      </trkpt>
      <trkpt lat="48.13826" lon="-4.01602">
        <ele>163.9</ele>
        <time>2022-05-28T14:02:16Z</time>
      </trkpt>
      <trkpt lat="48.13855" lon="-4.01596">
        <ele>163.3</ele>
        <time>2022-05-28T14:02:19Z</time>
      </trkpt>
      <trkpt lat="48.13874" lon="-4.01592">
        <ele>163.1</ele>
        <time>2022-05-28T14:02:21Z</time>
      </trkpt>
      <trkpt lat="48.1392" lon="-4.0158">
        <ele>162.6</ele>
        <time>2022-05-28T14:02:26Z</time>
      </trkpt>
      <trkpt lat="48.13953" lon="-4.01568">
        <ele>162.2</ele>
        <time>2022-05-28T14:02:30Z</time>
      </trkpt>
      <trkpt lat="48.1397" lon="-4.01563">
        <ele>162.1</ele>
        <time>2022-05-28T14:02:32Z</time>
      </trkpt>
      <trkpt lat="48.14016" lon="-4.01543">
        <ele>162</ele>
        <time>2022-05-28T14:02:38Z</time>
      </trkpt>
      <trkpt lat="48.1406" lon="-4.01524">
        <ele>161.9</ele>
        <time>2022-05-28T14:02:44Z</time>
      </trkpt>
      <trkpt lat="48.1411" lon="-4.01503">
        <ele>161.7</ele>
        <time>2022-05-28T14:02:51Z</time>
      </trkpt>
      <trkpt lat="48.14153" lon="-4.01484">
        <ele>161.6</ele>
        <time>2022-05-28T14:02:57Z</time>
      </trkpt>
      <trkpt lat="48.14202" lon="-4.01463">
        <ele>161.5</ele>
        <time>2022-05-28T14:03:04Z</time>
      </trkpt>
      <trkpt lat="48.14247" lon="-4.01443">
        <ele>161.3</ele>
        <time>2022-05-28T14:03:11Z</time>
      </trkpt>
      <trkpt lat="48.14293" lon="-4.01424">
        <ele>161.2</ele>
        <time>2022-05-28T14:03:18Z</time>
      </trkpt>
      <trkpt lat="48.14341" lon="-4.01404">
        <ele>161.1</ele>
        <time>2022-05-28T14:03:25Z</time>
      </trkpt>
      <trkpt lat="48.14387" lon="-4.01385">
        <ele>160.9</ele>
        <time>2022-05-28T14:03:32Z</time>
      </trkpt>
      <trkpt lat="48.14436" lon="-4.01364">
        <ele>160.8</ele>
        <time>2022-05-28T14:03:40Z</time>
      </trkpt>
      <trkpt lat="48.14479" lon="-4.01345">
        <ele>160.6</ele>
        <time>2022-05-28T14:03:47Z</time>
      </trkpt>
      <trkpt lat="48.14525" lon="-4.01326">
        <ele>160.5</ele>
        <time>2022-05-28T14:03:54Z</time>
      </trkpt>
      <trkpt lat="48.14545" lon="-4.01316">
        <ele>160.4</ele>
        <time>2022-05-28T14:03:57Z</time>
      </trkpt>
      <trkpt lat="48.14586" lon="-4.01283">
        <ele>160.3</ele>
        <time>2022-05-28T14:04:03Z</time>
      </trkpt>
      <trkpt lat="48.14623" lon="-4.01243">
        <ele>160.2</ele>
        <time>2022-05-28T14:04:10Z</time>
      </trkpt>
      <trkpt lat="48.1466" lon="-4.01195">
        <ele>160</ele>
        <time>2022-05-28T14:04:17Z</time>
      </trkpt>
      <trkpt lat="48.14692" lon="-4.01136">
        <ele>159.9</ele>
        <time>2022-05-28T14:04:24Z</time>
      </trkpt>
      <trkpt lat="48.14695" lon="-4.01128">
        <ele>159.9</ele>
        <time>2022-05-28T14:04:25Z</time>
      </trkpt>
      <trkpt lat="48.14705" lon="-4.0107">
        <ele>159.7</ele>
        <time>2022-05-28T14:04:32Z</time>
      </trkpt>
      <trkpt lat="48.14705" lon="-4.01047">
        <ele>159.6</ele>
        <time>2022-05-28T14:04:37Z</time>
      </trkpt>
      <trkpt lat="48.14714" lon="-4.01041">
        <ele>159.6</ele>
        <time>2022-05-28T14:04:38Z</time>
      </trkpt>
      <trkpt lat="48.14753" lon="-4.01056">
        <ele>159.6</ele>
        <time>2022-05-28T14:04:40Z</time>
      </trkpt>
      <trkpt lat="48.14774" lon="-4.01059">
        <ele>159.5</ele>
        <time>2022-05-28T14:04:42Z</time>
      </trkpt>
      <trkpt lat="48.14816" lon="-4.01084">
        <ele>159.5</ele>
        <time>2022-05-28T14:04:46Z</time>
      </trkpt>
      <trkpt lat="48.14863" lon="-4.01113">
        <ele>159.4</ele>
        <time>2022-05-28T14:04:52Z</time>
      </trkpt>
      <trkpt lat="48.14908" lon="-4.01139">
        <ele>159.2</ele>
        <time>2022-05-28T14:04:58Z</time>
      </trkpt>
      <trkpt lat="48.14953" lon="-4.01164">
        <ele>159.1</ele>
        <time>2022-05-28T14:05:04Z</time>
      </trkpt>
      <trkpt lat="48.14997" lon="-4.01196">
        <ele>159</ele>
        <time>2022-05-28T14:05:11Z</time>
      </trkpt>
      <trkpt lat="48.15036" lon="-4.01232">
        <ele>158.7</ele>
        <time>2022-05-28T14:05:17Z</time>
      </trkpt>
      <trkpt lat="48.15075" lon="-4.01269">
        <ele>158.4</ele>
        <time>2022-05-28T14:05:23Z</time>
      </trkpt>
      <trkpt lat="48.15118" lon="-4.0131">
        <ele>158.1</ele>
        <time>2022-05-28T14:05:30Z</time>
      </trkpt>
      <trkpt lat="48.15161" lon="-4.01353">
        <ele>157.7</ele>
        <time>2022-05-28T14:05:37Z</time>
      </trkpt>
      <trkpt lat="48.15206" lon="-4.01391">
        <ele>157.4</ele>
        <time>2022-05-28T14:05:44Z</time>
      </trkpt>
      <trkpt lat="48.1525" lon="-4.01413">
        <ele>157.1</ele>
        <time>2022-05-28T14:05:50Z</time>
      </trkpt>
      <trkpt lat="48.15295" lon="-4.01426">
        <ele>156.8</ele>
        <time>2022-05-28T14:05:56Z</time>
      </trkpt>
      <trkpt lat="48.15344" lon="-4.01434">
        <ele>156.5</ele>
        <time>2022-05-28T14:06:03Z</time>
      </trkpt>
      <trkpt lat="48.15395" lon="-4.01428">
        <ele>156.2</ele>
        <time>2022-05-28T14:06:10Z</time>
      </trkpt>
      <trkpt lat="48.15439" lon="-4.01414">
        <ele>155.9</ele>
        <time>2022-05-28T14:06:16Z</time>
      </trkpt>
      <trkpt lat="48.15488" lon="-4.01389">
        <ele>155.8</ele>
        <time>2022-05-28T14:06:23Z</time>
      </trkpt>
      <trkpt lat="48.15513" lon="-4.01377">
        <ele>155.7</ele>
        <time>2022-05-28T14:06:27Z</time>
      </trkpt>
      <trkpt lat="48.15544" lon="-4.01375">
        <ele>155.6</ele>
        <time>2022-05-28T14:06:31Z</time>
      </trkpt>
      <trkpt lat="48.15589" lon="-4.01389">
        <ele>155.5</ele>
        <time>2022-05-28T14:06:38Z</time>
      </trkpt>
      <trkpt lat="48.15635" lon="-4.01418">
        <ele>155.3</ele>
        <time>2022-05-28T14:06:46Z</time>
      </trkpt>
      <trkpt lat="48.15675" lon="-4.01452">
        <ele>155.2</ele>
        <time>2022-05-28T14:06:53Z</time>
      </trkpt>
      <trkpt lat="48.15713" lon="-4.01472">
        <ele>155</ele>
        <time>2022-05-28T14:06:59Z</time>
      </trkpt>
      <trkpt lat="48.1576" lon="-4.01473">
        <ele>154.9</ele>
        <time>2022-05-28T14:07:07Z</time>
      </trkpt>
      <trkpt lat="48.15808" lon="-4.01456">
        <ele>154.7</ele>
        <time>2022-05-28T14:07:15Z</time>
      </trkpt>
      <trkpt lat="48.15849" lon="-4.01431">
        <ele>154.6</ele>
        <time>2022-05-28T14:07:22Z</time>
      </trkpt>
      <trkpt lat="48.15854" lon="-4.01427">
        <ele>154.6</ele>
        <time>2022-05-28T14:07:23Z</time>
      </trkpt>
      <trkpt lat="48.15859" lon="-4.01426">
        <ele>154.5</ele>
        <time>2022-05-28T14:07:24Z</time>
      </trkpt>
      <trkpt lat="48.15873" lon="-4.01419">
        <ele>154.5</ele>
        <time>2022-05-28T14:07:27Z</time>
      </trkpt>
      <trkpt lat="48.15878" lon="-4.01418">
        <ele>154.5</ele>
        <time>2022-05-28T14:07:28Z</time>
      </trkpt>
      <trkpt lat="48.15884" lon="-4.01416">
        <ele>154.4</ele>
        <time>2022-05-28T14:07:29Z</time>
      </trkpt>
      <trkpt lat="48.15932" lon="-4.01419">
        <ele>154.3</ele>
        <time>2022-05-28T14:07:37Z</time>
      </trkpt>
      <trkpt lat="48.1598" lon="-4.01447">
        <ele>154.1</ele>
        <time>2022-05-28T14:07:45Z</time>
      </trkpt>
      <trkpt lat="48.16023" lon="-4.01478">
        <ele>154</ele>
        <time>2022-05-28T14:07:51Z</time>
      </trkpt>
      <trkpt lat="48.16072" lon="-4.01499">
        <ele>153.9</ele>
        <time>2022-05-28T14:07:57Z</time>
      </trkpt>
      <trkpt lat="48.1611" lon="-4.01494">
        <ele>153.8</ele>
        <time>2022-05-28T14:08:03Z</time>
      </trkpt>
      <trkpt lat="48.16154" lon="-4.01457">
        <ele>153.6</ele>
        <time>2022-05-28T14:08:10Z</time>
      </trkpt>
      <trkpt lat="48.16186" lon="-4.01407">
        <ele>153.5</ele>
        <time>2022-05-28T14:08:16Z</time>
      </trkpt>
      <trkpt lat="48.16197" lon="-4.01378">
        <ele>153.4</ele>
        <time>2022-05-28T14:08:19Z</time>
      </trkpt>
      <trkpt lat="48.162" lon="-4.01368">
        <ele>153.4</ele>
        <time>2022-05-28T14:08:20Z</time>
      </trkpt>
      <trkpt lat="48.16203" lon="-4.01358">
        <ele>153.4</ele>
        <time>2022-05-28T14:08:21Z</time>
      </trkpt>
      <trkpt lat="48.16204" lon="-4.01347">
        <ele>153.4</ele>
        <time>2022-05-28T14:08:22Z</time>
      </trkpt>
      <trkpt lat="48.16228" lon="-4.0128">
        <ele>153.2</ele>
        <time>2022-05-28T14:08:29Z</time>
      </trkpt>
      <trkpt lat="48.16253" lon="-4.01212">
        <ele>153.1</ele>
        <time>2022-05-28T14:08:36Z</time>
      </trkpt>
      <trkpt lat="48.16277" lon="-4.01153">
        <ele>153</ele>
        <time>2022-05-28T14:08:42Z</time>
      </trkpt>
      <trkpt lat="48.16307" lon="-4.01101">
        <ele>152.9</ele>
        <time>2022-05-28T14:08:48Z</time>
      </trkpt>
      <trkpt lat="48.16314" lon="-4.01096">
        <ele>152.8</ele>
        <time>2022-05-28T14:08:49Z</time>
      </trkpt>
      <trkpt lat="48.16335" lon="-4.01083">
        <ele>152.5</ele>
        <time>2022-05-28T14:08:52Z</time>
      </trkpt>
      <trkpt lat="48.16358" lon="-4.01083">
        <ele>152.1</ele>
        <time>2022-05-28T14:08:55Z</time>
      </trkpt>
      <trkpt lat="48.16392" lon="-4.01108">
        <ele>151.6</ele>
        <time>2022-05-28T14:09:00Z</time>
      </trkpt>
      <trkpt lat="48.16428" lon="-4.01155">
        <ele>150.9</ele>
        <time>2022-05-28T14:09:06Z</time>
      </trkpt>
      <trkpt lat="48.1647" lon="-4.01204">
        <ele>150.2</ele>
        <time>2022-05-28T14:09:12Z</time>
      </trkpt>
      <trkpt lat="48.16507" lon="-4.01241">
        <ele>149.6</ele>
        <time>2022-05-28T14:09:17Z</time>
      </trkpt>
      <trkpt lat="48.16555" lon="-4.01266">
        <ele>148.8</ele>
        <time>2022-05-28T14:09:23Z</time>
      </trkpt>
      <trkpt lat="48.16603" lon="-4.01276">
        <ele>148.1</ele>
        <time>2022-05-28T14:09:29Z</time>
      </trkpt>
      <trkpt lat="48.16611" lon="-4.01275">
        <ele>147.9</ele>
        <time>2022-05-28T14:09:30Z</time>
      </trkpt>
      <trkpt lat="48.16652" lon="-4.01268">
        <ele>146.7</ele>
        <time>2022-05-28T14:09:35Z</time>
      </trkpt>
      <trkpt lat="48.1666" lon="-4.01263">
        <ele>146.5</ele>
        <time>2022-05-28T14:09:36Z</time>
      </trkpt>
      <trkpt lat="48.16701" lon="-4.01242">
        <ele>145.8</ele>
        <time>2022-05-28T14:09:41Z</time>
      </trkpt>
      <trkpt lat="48.16744" lon="-4.012">
        <ele>145</ele>
        <time>2022-05-28T14:09:47Z</time>
      </trkpt>
      <trkpt lat="48.16773" lon="-4.01142">
        <ele>144.2</ele>
        <time>2022-05-28T14:09:53Z</time>
      </trkpt>
      <trkpt lat="48.16796" lon="-4.01079">
        <ele>143.4</ele>
        <time>2022-05-28T14:09:59Z</time>
      </trkpt>
      <trkpt lat="48.16798" lon="-4.01068">
        <ele>143.2</ele>
        <time>2022-05-28T14:10:00Z</time>
      </trkpt>
      <trkpt lat="48.1681" lon="-4.01013">
        <ele>142.3</ele>
        <time>2022-05-28T14:10:05Z</time>
      </trkpt>
      <trkpt lat="48.16812" lon="-4.01002">
        <ele>142.1</ele>
        <time>2022-05-28T14:10:06Z</time>
      </trkpt>
      <trkpt lat="48.1682" lon="-4.00946">
        <ele>141.5</ele>
        <time>2022-05-28T14:10:11Z</time>
      </trkpt>
      <trkpt lat="48.16829" lon="-4.00876">
        <ele>140.7</ele>
        <time>2022-05-28T14:10:17Z</time>
      </trkpt>
      <trkpt lat="48.16829" lon="-4.00865">
        <ele>140.6</ele>
        <time>2022-05-28T14:10:18Z</time>
      </trkpt>
      <trkpt lat="48.16833" lon="-4.00805">
        <ele>139.7</ele>
        <time>2022-05-28T14:10:23Z</time>
      </trkpt>
      <trkpt lat="48.16833" lon="-4.00793">
        <ele>139.5</ele>
        <time>2022-05-28T14:10:24Z</time>
      </trkpt>
      <trkpt lat="48.16829" lon="-4.00731">
        <ele>139</ele>
        <time>2022-05-28T14:10:29Z</time>
      </trkpt>
      <trkpt lat="48.16815" lon="-4.00659">
        <ele>138.3</ele>
        <time>2022-05-28T14:10:35Z</time>
      </trkpt>
      <trkpt lat="48.16811" lon="-4.00648">
        <ele>138.2</ele>
        <time>2022-05-28T14:10:36Z</time>
      </trkpt>
      <trkpt lat="48.16792" lon="-4.00591">
        <ele>137</ele>
        <time>2022-05-28T14:10:41Z</time>
      </trkpt>
      <trkpt lat="48.16787" lon="-4.0058">
        <ele>136.8</ele>
        <time>2022-05-28T14:10:42Z</time>
      </trkpt>
      <trkpt lat="48.16764" lon="-4.00524">
        <ele>136.4</ele>
        <time>2022-05-28T14:10:47Z</time>
      </trkpt>
      <trkpt lat="48.16749" lon="-4.00479">
        <ele>136</ele>
        <time>2022-05-28T14:10:51Z</time>
      </trkpt>
      <trkpt lat="48.16746" lon="-4.00451">
        <ele>135.8</ele>
        <time>2022-05-28T14:10:53Z</time>
      </trkpt>
      <trkpt lat="48.16745" lon="-4.00438">
        <ele>135.8</ele>
        <time>2022-05-28T14:10:54Z</time>
      </trkpt>
      <trkpt lat="48.16747" lon="-4.00412">
        <ele>135.7</ele>
        <time>2022-05-28T14:10:56Z</time>
      </trkpt>
      <trkpt lat="48.16758" lon="-4.00378">
        <ele>135.7</ele>
        <time>2022-05-28T14:10:59Z</time>
      </trkpt>
      <trkpt lat="48.16786" lon="-4.00342">
        <ele>135.5</ele>
        <time>2022-05-28T14:11:04Z</time>
      </trkpt>
      <trkpt lat="48.16826" lon="-4.00326">
        <ele>135.4</ele>
        <time>2022-05-28T14:11:10Z</time>
      </trkpt>
      <trkpt lat="48.16874" lon="-4.00329">
        <ele>135.2</ele>
        <time>2022-05-28T14:11:17Z</time>
      </trkpt>
      <trkpt lat="48.169" lon="-4.00324">
        <ele>135.1</ele>
        <time>2022-05-28T14:11:21Z</time>
      </trkpt>
      <trkpt lat="48.1693" lon="-4.00303">
        <ele>135</ele>
        <time>2022-05-28T14:11:26Z</time>
      </trkpt>
      <trkpt lat="48.16966" lon="-4.00257">
        <ele>134.8</ele>
        <time>2022-05-28T14:11:33Z</time>
      </trkpt>
      <trkpt lat="48.17" lon="-4.00213">
        <ele>134.7</ele>
        <time>2022-05-28T14:11:40Z</time>
      </trkpt>
      <trkpt lat="48.17039" lon="-4.00163">
        <ele>134.5</ele>
        <time>2022-05-28T14:11:48Z</time>
      </trkpt>
      <trkpt lat="48.17078" lon="-4.00117">
        <ele>134.3</ele>
        <time>2022-05-28T14:11:55Z</time>
      </trkpt>
      <trkpt lat="48.17119" lon="-4.00071">
        <ele>134.1</ele>
        <time>2022-05-28T14:12:02Z</time>
      </trkpt>
      <trkpt lat="48.1716" lon="-4.00029">
        <ele>134</ele>
        <time>2022-05-28T14:12:09Z</time>
      </trkpt>
      <trkpt lat="48.17206" lon="-4.00004">
        <ele>133.8</ele>
        <time>2022-05-28T14:12:16Z</time>
      </trkpt>
      <trkpt lat="48.17256" lon="-4.00001">
        <ele>133.6</ele>
        <time>2022-05-28T14:12:23Z</time>
      </trkpt>
      <trkpt lat="48.17301" lon="-3.99998">
        <ele>133.5</ele>
        <time>2022-05-28T14:12:29Z</time>
      </trkpt>
      <trkpt lat="48.17352" lon="-3.99991">
        <ele>133.3</ele>
        <time>2022-05-28T14:12:36Z</time>
      </trkpt>
      <trkpt lat="48.17374" lon="-3.99982">
        <ele>133.2</ele>
        <time>2022-05-28T14:12:39Z</time>
      </trkpt>
      <trkpt lat="48.17419" lon="-3.99948">
        <ele>133.1</ele>
        <time>2022-05-28T14:12:46Z</time>
      </trkpt>
      <trkpt lat="48.17439" lon="-3.99928">
        <ele>133</ele>
        <time>2022-05-28T14:12:49Z</time>
      </trkpt>
      <trkpt lat="48.17468" lon="-3.99874">
        <ele>132.8</ele>
        <time>2022-05-28T14:12:55Z</time>
      </trkpt>
      <trkpt lat="48.17476" lon="-3.99858">
        <ele>132.8</ele>
        <time>2022-05-28T14:12:57Z</time>
      </trkpt>
      <trkpt lat="48.17483" lon="-3.99841">
        <ele>132.7</ele>
        <time>2022-05-28T14:12:59Z</time>
      </trkpt>
      <trkpt lat="48.17502" lon="-3.99775">
        <ele>132.6</ele>
        <time>2022-05-28T14:13:06Z</time>
      </trkpt>
      <trkpt lat="48.17519" lon="-3.99705">
        <ele>132.4</ele>
        <time>2022-05-28T14:13:13Z</time>
      </trkpt>
      <trkpt lat="48.1753" lon="-3.99664">
        <ele>132.3</ele>
        <time>2022-05-28T14:13:17Z</time>
      </trkpt>
      <trkpt lat="48.17538" lon="-3.99632">
        <ele>131.9</ele>
        <time>2022-05-28T14:13:20Z</time>
      </trkpt>
      <trkpt lat="48.17549" lon="-3.99601">
        <ele>131.4</ele>
        <time>2022-05-28T14:13:23Z</time>
      </trkpt>
      <trkpt lat="48.17561" lon="-3.99569">
        <ele>130.6</ele>
        <time>2022-05-28T14:13:26Z</time>
      </trkpt>
      <trkpt lat="48.17585" lon="-3.99503">
        <ele>129</ele>
        <time>2022-05-28T14:13:32Z</time>
      </trkpt>
      <trkpt lat="48.1761" lon="-3.99437">
        <ele>127.4</ele>
        <time>2022-05-28T14:13:38Z</time>
      </trkpt>
      <trkpt lat="48.17619" lon="-3.994">
        <ele>126.6</ele>
        <time>2022-05-28T14:13:41Z</time>
      </trkpt>
      <trkpt lat="48.17628" lon="-3.99364">
        <ele>126</ele>
        <time>2022-05-28T14:13:44Z</time>
      </trkpt>
      <trkpt lat="48.17634" lon="-3.99328">
        <ele>125.4</ele>
        <time>2022-05-28T14:13:47Z</time>
      </trkpt>
      <trkpt lat="48.17639" lon="-3.99291">
        <ele>125.1</ele>
        <time>2022-05-28T14:13:50Z</time>
      </trkpt>
      <trkpt lat="48.17648" lon="-3.99223">
        <ele>124.4</ele>
        <time>2022-05-28T14:13:56Z</time>
      </trkpt>
      <trkpt lat="48.17656" lon="-3.99156">
        <ele>123.7</ele>
        <time>2022-05-28T14:14:02Z</time>
      </trkpt>
      <trkpt lat="48.1766" lon="-3.99123">
        <ele>123.3</ele>
        <time>2022-05-28T14:14:05Z</time>
      </trkpt>
      <trkpt lat="48.17665" lon="-3.99079">
        <ele>122.9</ele>
        <time>2022-05-28T14:14:09Z</time>
      </trkpt>
      <trkpt lat="48.17674" lon="-3.99003">
        <ele>122.1</ele>
        <time>2022-05-28T14:14:16Z</time>
      </trkpt>
      <trkpt lat="48.17681" lon="-3.98928">
        <ele>121.3</ele>
        <time>2022-05-28T14:14:23Z</time>
      </trkpt>
      <trkpt lat="48.17689" lon="-3.98862">
        <ele>120.6</ele>
        <time>2022-05-28T14:14:29Z</time>
      </trkpt>
      <trkpt lat="48.17694" lon="-3.98791">
        <ele>119.9</ele>
        <time>2022-05-28T14:14:35Z</time>
      </trkpt>
      <trkpt lat="48.177" lon="-3.98766">
        <ele>119.4</ele>
        <time>2022-05-28T14:14:37Z</time>
      </trkpt>
      <trkpt lat="48.17715" lon="-3.98733">
        <ele>118.5</ele>
        <time>2022-05-28T14:14:40Z</time>
      </trkpt>
      <trkpt lat="48.17719" lon="-3.98723">
        <ele>118.3</ele>
        <time>2022-05-28T14:14:41Z</time>
      </trkpt>
      <trkpt lat="48.17754" lon="-3.98681">
        <ele>116.9</ele>
        <time>2022-05-28T14:14:46Z</time>
      </trkpt>
      <trkpt lat="48.17781" lon="-3.98665">
        <ele>116.1</ele>
        <time>2022-05-28T14:14:49Z</time>
      </trkpt>
      <trkpt lat="48.17821" lon="-3.98656">
        <ele>114.9</ele>
        <time>2022-05-28T14:14:53Z</time>
      </trkpt>
      <trkpt lat="48.17851" lon="-3.9866">
        <ele>113.9</ele>
        <time>2022-05-28T14:14:56Z</time>
      </trkpt>
      <trkpt lat="48.17896" lon="-3.98663">
        <ele>112.1</ele>
        <time>2022-05-28T14:15:01Z</time>
      </trkpt>
      <trkpt lat="48.17934" lon="-3.98673">
        <ele>110.7</ele>
        <time>2022-05-28T14:15:05Z</time>
      </trkpt>
      <trkpt lat="48.17943" lon="-3.98675">
        <ele>110.4</ele>
        <time>2022-05-28T14:15:06Z</time>
      </trkpt>
      <trkpt lat="48.17991" lon="-3.98686">
        <ele>108.7</ele>
        <time>2022-05-28T14:15:11Z</time>
      </trkpt>
      <trkpt lat="48.18041" lon="-3.98695">
        <ele>107</ele>
        <time>2022-05-28T14:15:16Z</time>
      </trkpt>
      <trkpt lat="48.18052" lon="-3.98697">
        <ele>106.7</ele>
        <time>2022-05-28T14:15:17Z</time>
      </trkpt>
      <trkpt lat="48.18093" lon="-3.987">
        <ele>105.5</ele>
        <time>2022-05-28T14:15:21Z</time>
      </trkpt>
      <trkpt lat="48.18144" lon="-3.98686">
        <ele>103.9</ele>
        <time>2022-05-28T14:15:26Z</time>
      </trkpt>
      <trkpt lat="48.18175" lon="-3.98674">
        <ele>103</ele>
        <time>2022-05-28T14:15:29Z</time>
      </trkpt>
      <trkpt lat="48.18195" lon="-3.98666">
        <ele>102.4</ele>
        <time>2022-05-28T14:15:31Z</time>
      </trkpt>
      <trkpt lat="48.18244" lon="-3.98651">
        <ele>101.1</ele>
        <time>2022-05-28T14:15:36Z</time>
      </trkpt>
      <trkpt lat="48.18292" lon="-3.98645">
        <ele>99.7</ele>
        <time>2022-05-28T14:15:41Z</time>
      </trkpt>
      <trkpt lat="48.18344" lon="-3.98649">
        <ele>98.2</ele>
        <time>2022-05-28T14:15:46Z</time>
      </trkpt>
      <trkpt lat="48.18395" lon="-3.98665">
        <ele>96.7</ele>
        <time>2022-05-28T14:15:51Z</time>
      </trkpt>
      <trkpt lat="48.18415" lon="-3.98672">
        <ele>96.1</ele>
        <time>2022-05-28T14:15:53Z</time>
      </trkpt>
      <trkpt lat="48.18445" lon="-3.98681">
        <ele>95</ele>
        <time>2022-05-28T14:15:56Z</time>
      </trkpt>
      <trkpt lat="48.18465" lon="-3.98684">
        <ele>94.3</ele>
        <time>2022-05-28T14:15:58Z</time>
      </trkpt>
      <trkpt lat="48.18517" lon="-3.98679">
        <ele>92.5</ele>
        <time>2022-05-28T14:16:03Z</time>
      </trkpt>
      <trkpt lat="48.18538" lon="-3.98676">
        <ele>91.8</ele>
        <time>2022-05-28T14:16:05Z</time>
      </trkpt>
      <trkpt lat="48.18569" lon="-3.98671">
        <ele>90.9</ele>
        <time>2022-05-28T14:16:08Z</time>
      </trkpt>
      <trkpt lat="48.18623" lon="-3.98664">
        <ele>89.5</ele>
        <time>2022-05-28T14:16:13Z</time>
      </trkpt>
      <trkpt lat="48.18667" lon="-3.98665">
        <ele>88.4</ele>
        <time>2022-05-28T14:16:17Z</time>
      </trkpt>
      <trkpt lat="48.18678" lon="-3.98665">
        <ele>88.1</ele>
        <time>2022-05-28T14:16:18Z</time>
      </trkpt>
      <trkpt lat="48.18732" lon="-3.98665">
        <ele>86.7</ele>
        <time>2022-05-28T14:16:23Z</time>
      </trkpt>
      <trkpt lat="48.18782" lon="-3.98664">
        <ele>85.2</ele>
        <time>2022-05-28T14:16:28Z</time>
      </trkpt>
      <trkpt lat="48.18791" lon="-3.98664">
        <ele>84.9</ele>
        <time>2022-05-28T14:16:29Z</time>
      </trkpt>
      <trkpt lat="48.18828" lon="-3.98664">
        <ele>83.6</ele>
        <time>2022-05-28T14:16:33Z</time>
      </trkpt>
      <trkpt lat="48.18883" lon="-3.98662">
        <ele>81.9</ele>
        <time>2022-05-28T14:16:38Z</time>
      </trkpt>
      <trkpt lat="48.18912" lon="-3.98657">
        <ele>81</ele>
        <time>2022-05-28T14:16:41Z</time>
      </trkpt>
      <trkpt lat="48.18931" lon="-3.98654">
        <ele>80.7</ele>
        <time>2022-05-28T14:16:43Z</time>
      </trkpt>
      <trkpt lat="48.18965" lon="-3.98645">
        <ele>80.2</ele>
        <time>2022-05-28T14:16:47Z</time>
      </trkpt>
      <trkpt lat="48.18981" lon="-3.9864">
        <ele>80.2</ele>
        <time>2022-05-28T14:16:49Z</time>
      </trkpt>
      <trkpt lat="48.19011" lon="-3.98632">
        <ele>80.3</ele>
        <time>2022-05-28T14:16:53Z</time>
      </trkpt>
      <trkpt lat="48.19026" lon="-3.98628">
        <ele>80.1</ele>
        <time>2022-05-28T14:16:55Z</time>
      </trkpt>
      <trkpt lat="48.1907" lon="-3.98619">
        <ele>79.7</ele>
        <time>2022-05-28T14:17:02Z</time>
      </trkpt>
      <trkpt lat="48.19109" lon="-3.98604">
        <ele>78.9</ele>
        <time>2022-05-28T14:17:14Z</time>
      </trkpt>
      <trkpt lat="48.19105" lon="-3.98597">
        <ele>78.7</ele>
        <time>2022-05-28T14:17:17Z</time>
      </trkpt>
      <trkpt lat="48.19097" lon="-3.98588">
        <ele>78.6</ele>
        <time>2022-05-28T14:17:19Z</time>
      </trkpt>
      <trkpt lat="48.19095" lon="-3.98558">
        <ele>78.3</ele>
        <time>2022-05-28T14:17:24Z</time>
      </trkpt>
      <trkpt lat="48.19101" lon="-3.98507">
        <ele>77.9</ele>
        <time>2022-05-28T14:17:31Z</time>
      </trkpt>
      <trkpt lat="48.19136" lon="-3.98445">
        <ele>77.2</ele>
        <time>2022-05-28T14:17:36Z</time>
      </trkpt>
      <trkpt lat="48.19136" lon="-3.98445">
        <ele>77.2</ele>
        <time>2022-05-28T14:19:09Z</time>
      </trkpt>
      <trkpt lat="48.19164" lon="-3.98402">
        <ele>76.7</ele>
        <time>2022-05-28T14:19:15Z</time>
      </trkpt>
      <trkpt lat="48.192" lon="-3.98363">
        <ele>76.7</ele>
        <time>2022-05-28T14:19:27Z</time>
      </trkpt>
      <trkpt lat="48.19253" lon="-3.9833">
        <ele>78</ele>
        <time>2022-05-28T14:19:40Z</time>
      </trkpt>
      <trkpt lat="48.19253" lon="-3.9833">
        <ele>78</ele>
        <time>2022-05-28T14:34:36Z</time>
      </trkpt>
      <trkpt lat="48.19277" lon="-3.98334">
        <ele>79.3</ele>
        <time>2022-05-28T14:34:37Z</time>
      </trkpt>
      <trkpt lat="48.19279" lon="-3.98327">
        <ele>79.3</ele>
        <time>2022-05-28T14:34:38Z</time>
      </trkpt>
      <trkpt lat="48.19319" lon="-3.98289">
        <ele>79.6</ele>
        <time>2022-05-28T14:34:50Z</time>
      </trkpt>
      <trkpt lat="48.19359" lon="-3.98254">
        <ele>79.8</ele>
        <time>2022-05-28T14:35:02Z</time>
      </trkpt>
      <trkpt lat="48.19371" lon="-3.98244">
        <ele>79.9</ele>
        <time>2022-05-28T14:35:06Z</time>
      </trkpt>
      <trkpt lat="48.19399" lon="-3.98221">
        <ele>80.4</ele>
        <time>2022-05-28T14:35:15Z</time>
      </trkpt>
      <trkpt lat="48.19439" lon="-3.98183">
        <ele>81.3</ele>
        <time>2022-05-28T14:35:28Z</time>
      </trkpt>
      <trkpt lat="48.19479" lon="-3.98147">
        <ele>82</ele>
        <time>2022-05-28T14:35:39Z</time>
      </trkpt>
      <trkpt lat="48.19505" lon="-3.98122">
        <ele>82.5</ele>
        <time>2022-05-28T14:35:47Z</time>
      </trkpt>
      <trkpt lat="48.19509" lon="-3.9812">
        <ele>82.5</ele>
        <time>2022-05-28T14:35:48Z</time>
      </trkpt>
      <trkpt lat="48.19531" lon="-3.98098">
        <ele>82.9</ele>
        <time>2022-05-28T14:35:54Z</time>
      </trkpt>
      <trkpt lat="48.1955" lon="-3.9808">
        <ele>83.3</ele>
        <time>2022-05-28T14:35:59Z</time>
      </trkpt>
      <trkpt lat="48.19591" lon="-3.98044">
        <ele>84.1</ele>
        <time>2022-05-28T14:36:10Z</time>
      </trkpt>
      <trkpt lat="48.19631" lon="-3.98006">
        <ele>84.9</ele>
        <time>2022-05-28T14:36:21Z</time>
      </trkpt>
      <trkpt lat="48.19671" lon="-3.97969">
        <ele>85.8</ele>
        <time>2022-05-28T14:36:32Z</time>
      </trkpt>
      <trkpt lat="48.19697" lon="-3.97946">
        <ele>86.4</ele>
        <time>2022-05-28T14:36:40Z</time>
      </trkpt>
      <trkpt lat="48.1971" lon="-3.97934">
        <ele>87.2</ele>
        <time>2022-05-28T14:36:44Z</time>
      </trkpt>
      <trkpt lat="48.19717" lon="-3.97929">
        <ele>87.5</ele>
        <time>2022-05-28T14:36:46Z</time>
      </trkpt>
      <trkpt lat="48.19752" lon="-3.97901">
        <ele>89.1</ele>
        <time>2022-05-28T14:36:57Z</time>
      </trkpt>
      <trkpt lat="48.19775" lon="-3.97889">
        <ele>90.1</ele>
        <time>2022-05-28T14:37:04Z</time>
      </trkpt>
      <trkpt lat="48.19794" lon="-3.97878">
        <ele>91</ele>
        <time>2022-05-28T14:37:10Z</time>
      </trkpt>
      <trkpt lat="48.19797" lon="-3.97877">
        <ele>91.1</ele>
        <time>2022-05-28T14:37:11Z</time>
      </trkpt>
      <trkpt lat="48.19814" lon="-3.97875">
        <ele>91.6</ele>
        <time>2022-05-28T14:37:16Z</time>
      </trkpt>
      <trkpt lat="48.19833" lon="-3.97873">
        <ele>92.7</ele>
        <time>2022-05-28T14:37:22Z</time>
      </trkpt>
      <trkpt lat="48.19843" lon="-3.97873">
        <ele>93</ele>
        <time>2022-05-28T14:37:25Z</time>
      </trkpt>
      <trkpt lat="48.19874" lon="-3.97876">
        <ele>94</ele>
        <time>2022-05-28T14:37:34Z</time>
      </trkpt>
      <trkpt lat="48.19888" lon="-3.97878">
        <ele>94.5</ele>
        <time>2022-05-28T14:37:38Z</time>
      </trkpt>
      <trkpt lat="48.19933" lon="-3.97889">
        <ele>96</ele>
        <time>2022-05-28T14:37:51Z</time>
      </trkpt>
      <trkpt lat="48.1998" lon="-3.979">
        <ele>97.5</ele>
        <time>2022-05-28T14:38:04Z</time>
      </trkpt>
      <trkpt lat="48.19997" lon="-3.97905">
        <ele>98.2</ele>
        <time>2022-05-28T14:38:09Z</time>
      </trkpt>
      <trkpt lat="48.20025" lon="-3.97912">
        <ele>99.2</ele>
        <time>2022-05-28T14:38:17Z</time>
      </trkpt>
      <trkpt lat="48.2007" lon="-3.97924">
        <ele>100.8</ele>
        <time>2022-05-28T14:38:30Z</time>
      </trkpt>
      <trkpt lat="48.2009" lon="-3.9793">
        <ele>101.6</ele>
        <time>2022-05-28T14:38:36Z</time>
      </trkpt>
      <trkpt lat="48.20116" lon="-3.97937">
        <ele>102.6</ele>
        <time>2022-05-28T14:38:44Z</time>
      </trkpt>
      <trkpt lat="48.20152" lon="-3.9795">
        <ele>103.9</ele>
        <time>2022-05-28T14:38:54Z</time>
      </trkpt>
      <trkpt lat="48.20163" lon="-3.97955">
        <ele>104.3</ele>
        <time>2022-05-28T14:38:57Z</time>
      </trkpt>
      <trkpt lat="48.20207" lon="-3.97979">
        <ele>105.8</ele>
        <time>2022-05-28T14:39:09Z</time>
      </trkpt>
      <trkpt lat="48.20217" lon="-3.97987">
        <ele>106.2</ele>
        <time>2022-05-28T14:39:12Z</time>
      </trkpt>
      <trkpt lat="48.20236" lon="-3.98005">
        <ele>106.8</ele>
        <time>2022-05-28T14:39:18Z</time>
      </trkpt>
      <trkpt lat="48.20246" lon="-3.98014">
        <ele>107.1</ele>
        <time>2022-05-28T14:39:21Z</time>
      </trkpt>
      <trkpt lat="48.2028" lon="-3.98065">
        <ele>108.6</ele>
        <time>2022-05-28T14:39:34Z</time>
      </trkpt>
      <trkpt lat="48.20286" lon="-3.98075">
        <ele>108.8</ele>
        <time>2022-05-28T14:39:36Z</time>
      </trkpt>
      <trkpt lat="48.20303" lon="-3.98103">
        <ele>109.4</ele>
        <time>2022-05-28T14:39:42Z</time>
      </trkpt>
      <trkpt lat="48.20311" lon="-3.98118">
        <ele>109.7</ele>
        <time>2022-05-28T14:39:45Z</time>
      </trkpt>
      <trkpt lat="48.20346" lon="-3.98161">
        <ele>110.8</ele>
        <time>2022-05-28T14:39:56Z</time>
      </trkpt>
      <trkpt lat="48.20388" lon="-3.98191">
        <ele>112</ele>
        <time>2022-05-28T14:40:08Z</time>
      </trkpt>
      <trkpt lat="48.20421" lon="-3.98204">
        <ele>113</ele>
        <time>2022-05-28T14:40:17Z</time>
      </trkpt>
      <trkpt lat="48.20432" lon="-3.98209">
        <ele>113.4</ele>
        <time>2022-05-28T14:40:20Z</time>
      </trkpt>
      <trkpt lat="48.2044" lon="-3.98211">
        <ele>113.7</ele>
        <time>2022-05-28T14:40:22Z</time>
      </trkpt>
      <trkpt lat="48.20476" lon="-3.98223">
        <ele>114.8</ele>
        <time>2022-05-28T14:40:31Z</time>
      </trkpt>
      <trkpt lat="48.20499" lon="-3.98233">
        <ele>115.6</ele>
        <time>2022-05-28T14:40:37Z</time>
      </trkpt>
      <trkpt lat="48.20521" lon="-3.98243">
        <ele>116</ele>
        <time>2022-05-28T14:40:43Z</time>
      </trkpt>
      <trkpt lat="48.20566" lon="-3.9826">
        <ele>116.8</ele>
        <time>2022-05-28T14:40:54Z</time>
      </trkpt>
      <trkpt lat="48.20615" lon="-3.98268">
        <ele>117.4</ele>
        <time>2022-05-28T14:41:03Z</time>
      </trkpt>
      <trkpt lat="48.2066" lon="-3.98264">
        <ele>118.1</ele>
        <time>2022-05-28T14:41:13Z</time>
      </trkpt>
      <trkpt lat="48.20707" lon="-3.98248">
        <ele>118.9</ele>
        <time>2022-05-28T14:41:25Z</time>
      </trkpt>
      <trkpt lat="48.20719" lon="-3.9824">
        <ele>119.5</ele>
        <time>2022-05-28T14:41:28Z</time>
      </trkpt>
      <trkpt lat="48.20729" lon="-3.98231">
        <ele>120</ele>
        <time>2022-05-28T14:41:31Z</time>
      </trkpt>
      <trkpt lat="48.2076" lon="-3.98203">
        <ele>121</ele>
        <time>2022-05-28T14:41:40Z</time>
      </trkpt>
      <trkpt lat="48.2077" lon="-3.98196">
        <ele>121.4</ele>
        <time>2022-05-28T14:41:43Z</time>
      </trkpt>
      <trkpt lat="48.20786" lon="-3.98171">
        <ele>122.6</ele>
        <time>2022-05-28T14:41:49Z</time>
      </trkpt>
      <trkpt lat="48.20802" lon="-3.98147">
        <ele>123.3</ele>
        <time>2022-05-28T14:41:55Z</time>
      </trkpt>
      <trkpt lat="48.20837" lon="-3.98097">
        <ele>124.8</ele>
        <time>2022-05-28T14:42:08Z</time>
      </trkpt>
      <trkpt lat="48.20849" lon="-3.98078">
        <ele>125.4</ele>
        <time>2022-05-28T14:42:13Z</time>
      </trkpt>
      <trkpt lat="48.20868" lon="-3.98049">
        <ele>126.3</ele>
        <time>2022-05-28T14:42:21Z</time>
      </trkpt>
      <trkpt lat="48.20877" lon="-3.98039">
        <ele>126.7</ele>
        <time>2022-05-28T14:42:24Z</time>
      </trkpt>
      <trkpt lat="48.2088" lon="-3.98037">
        <ele>126.8</ele>
        <time>2022-05-28T14:42:25Z</time>
      </trkpt>
      <trkpt lat="48.20882" lon="-3.98033">
        <ele>126.9</ele>
        <time>2022-05-28T14:42:26Z</time>
      </trkpt>
      <trkpt lat="48.20886" lon="-3.98031">
        <ele>127.1</ele>
        <time>2022-05-28T14:42:27Z</time>
      </trkpt>
      <trkpt lat="48.20889" lon="-3.98027">
        <ele>127.2</ele>
        <time>2022-05-28T14:42:28Z</time>
      </trkpt>
      <trkpt lat="48.20923" lon="-3.97987">
        <ele>128.6</ele>
        <time>2022-05-28T14:42:40Z</time>
      </trkpt>
      <trkpt lat="48.20942" lon="-3.97971">
        <ele>129.3</ele>
        <time>2022-05-28T14:42:46Z</time>
      </trkpt>
      <trkpt lat="48.20944" lon="-3.97968">
        <ele>129.4</ele>
        <time>2022-05-28T14:42:47Z</time>
      </trkpt>
      <trkpt lat="48.20948" lon="-3.97965">
        <ele>129.5</ele>
        <time>2022-05-28T14:42:48Z</time>
      </trkpt>
      <trkpt lat="48.20988" lon="-3.97941">
        <ele>130.8</ele>
        <time>2022-05-28T14:43:00Z</time>
      </trkpt>
      <trkpt lat="48.21033" lon="-3.97919">
        <ele>132.3</ele>
        <time>2022-05-28T14:43:13Z</time>
      </trkpt>
      <trkpt lat="48.21048" lon="-3.97914">
        <ele>132.7</ele>
        <time>2022-05-28T14:43:17Z</time>
      </trkpt>
      <trkpt lat="48.21071" lon="-3.97907">
        <ele>133.7</ele>
        <time>2022-05-28T14:43:23Z</time>
      </trkpt>
      <trkpt lat="48.21078" lon="-3.97905">
        <ele>133.9</ele>
        <time>2022-05-28T14:43:25Z</time>
      </trkpt>
      <trkpt lat="48.21113" lon="-3.97902">
        <ele>134.9</ele>
        <time>2022-05-28T14:43:35Z</time>
      </trkpt>
      <trkpt lat="48.21123" lon="-3.97902">
        <ele>135.2</ele>
        <time>2022-05-28T14:43:38Z</time>
      </trkpt>
      <trkpt lat="48.2117" lon="-3.97906">
        <ele>136.5</ele>
        <time>2022-05-28T14:43:52Z</time>
      </trkpt>
      <trkpt lat="48.21216" lon="-3.97918">
        <ele>137.7</ele>
        <time>2022-05-28T14:44:05Z</time>
      </trkpt>
      <trkpt lat="48.21237" lon="-3.97927">
        <ele>138.3</ele>
        <time>2022-05-28T14:44:11Z</time>
      </trkpt>
      <trkpt lat="48.21261" lon="-3.97938">
        <ele>138.8</ele>
        <time>2022-05-28T14:44:18Z</time>
      </trkpt>
      <trkpt lat="48.21306" lon="-3.97963">
        <ele>139.7</ele>
        <time>2022-05-28T14:44:30Z</time>
      </trkpt>
      <trkpt lat="48.2135" lon="-3.9798">
        <ele>140.5</ele>
        <time>2022-05-28T14:44:41Z</time>
      </trkpt>
      <trkpt lat="48.21397" lon="-3.97993">
        <ele>141.5</ele>
        <time>2022-05-28T14:44:54Z</time>
      </trkpt>
      <trkpt lat="48.21408" lon="-3.97994">
        <ele>141.7</ele>
        <time>2022-05-28T14:44:57Z</time>
      </trkpt>
      <trkpt lat="48.21411" lon="-3.97995">
        <ele>141.8</ele>
        <time>2022-05-28T14:44:58Z</time>
      </trkpt>
      <trkpt lat="48.21433" lon="-3.97997">
        <ele>142</ele>
        <time>2022-05-28T14:45:04Z</time>
      </trkpt>
      <trkpt lat="48.21454" lon="-3.97993">
        <ele>142.3</ele>
        <time>2022-05-28T14:45:09Z</time>
      </trkpt>
      <trkpt lat="48.21463" lon="-3.97994">
        <ele>142.3</ele>
        <time>2022-05-28T14:45:11Z</time>
      </trkpt>
      <trkpt lat="48.21484" lon="-3.9799">
        <ele>142.6</ele>
        <time>2022-05-28T14:45:17Z</time>
      </trkpt>
      <trkpt lat="48.21501" lon="-3.97989">
        <ele>142.8</ele>
        <time>2022-05-28T14:45:21Z</time>
      </trkpt>
      <trkpt lat="48.21548" lon="-3.9798">
        <ele>143.2</ele>
        <time>2022-05-28T14:45:31Z</time>
      </trkpt>
      <trkpt lat="48.21595" lon="-3.97973">
        <ele>143.6</ele>
        <time>2022-05-28T14:45:41Z</time>
      </trkpt>
      <trkpt lat="48.21642" lon="-3.97967">
        <ele>144.1</ele>
        <time>2022-05-28T14:45:51Z</time>
      </trkpt>
      <trkpt lat="48.21687" lon="-3.97958">
        <ele>144.5</ele>
        <time>2022-05-28T14:46:01Z</time>
      </trkpt>
      <trkpt lat="48.21729" lon="-3.97931">
        <ele>145</ele>
        <time>2022-05-28T14:46:12Z</time>
      </trkpt>
      <trkpt lat="48.21743" lon="-3.97915">
        <ele>145.2</ele>
        <time>2022-05-28T14:46:16Z</time>
      </trkpt>
      <trkpt lat="48.21746" lon="-3.9791">
        <ele>145.3</ele>
        <time>2022-05-28T14:46:17Z</time>
      </trkpt>
      <trkpt lat="48.21748" lon="-3.97883">
        <ele>145.7</ele>
        <time>2022-05-28T14:46:21Z</time>
      </trkpt>
      <trkpt lat="48.21751" lon="-3.97862">
        <ele>146.1</ele>
        <time>2022-05-28T14:46:25Z</time>
      </trkpt>
      <trkpt lat="48.21766" lon="-3.97838">
        <ele>146.6</ele>
        <time>2022-05-28T14:46:30Z</time>
      </trkpt>
      <trkpt lat="48.21785" lon="-3.97835">
        <ele>147.1</ele>
        <time>2022-05-28T14:46:35Z</time>
      </trkpt>
      <trkpt lat="48.21799" lon="-3.97844">
        <ele>147.5</ele>
        <time>2022-05-28T14:46:39Z</time>
      </trkpt>
      <trkpt lat="48.21805" lon="-3.97851">
        <ele>147.8</ele>
        <time>2022-05-28T14:46:42Z</time>
      </trkpt>
      <trkpt lat="48.21831" lon="-3.9783">
        <ele>148.4</ele>
        <time>2022-05-28T14:46:48Z</time>
      </trkpt>
      <trkpt lat="48.21863" lon="-3.978">
        <ele>148.8</ele>
        <time>2022-05-28T14:46:58Z</time>
      </trkpt>
      <trkpt lat="48.21872" lon="-3.97791">
        <ele>149.1</ele>
        <time>2022-05-28T14:47:01Z</time>
      </trkpt>
      <trkpt lat="48.21894" lon="-3.97761">
        <ele>149.7</ele>
        <time>2022-05-28T14:47:09Z</time>
      </trkpt>
      <trkpt lat="48.21903" lon="-3.97708">
        <ele>150.3</ele>
        <time>2022-05-28T14:47:17Z</time>
      </trkpt>
      <trkpt lat="48.21925" lon="-3.97683">
        <ele>150.8</ele>
        <time>2022-05-28T14:47:23Z</time>
      </trkpt>
      <trkpt lat="48.21955" lon="-3.97688">
        <ele>151.5</ele>
        <time>2022-05-28T14:47:31Z</time>
      </trkpt>
      <trkpt lat="48.21961" lon="-3.97693">
        <ele>151.6</ele>
        <time>2022-05-28T14:47:33Z</time>
      </trkpt>
      <trkpt lat="48.21987" lon="-3.97645">
        <ele>152.5</ele>
        <time>2022-05-28T14:47:44Z</time>
      </trkpt>
      <trkpt lat="48.21989" lon="-3.9764">
        <ele>152.7</ele>
        <time>2022-05-28T14:47:45Z</time>
      </trkpt>
      <trkpt lat="48.22008" lon="-3.97592">
        <ele>154</ele>
        <time>2022-05-28T14:47:56Z</time>
      </trkpt>
      <trkpt lat="48.22014" lon="-3.97579">
        <ele>154.3</ele>
        <time>2022-05-28T14:47:59Z</time>
      </trkpt>
      <trkpt lat="48.22029" lon="-3.9754">
        <ele>155.5</ele>
        <time>2022-05-28T14:48:08Z</time>
      </trkpt>
      <trkpt lat="48.22038" lon="-3.97518">
        <ele>156.3</ele>
        <time>2022-05-28T14:48:13Z</time>
      </trkpt>
      <trkpt lat="48.22047" lon="-3.97484">
        <ele>157.5</ele>
        <time>2022-05-28T14:48:21Z</time>
      </trkpt>
      <trkpt lat="48.22056" lon="-3.97477">
        <ele>158</ele>
        <time>2022-05-28T14:48:24Z</time>
      </trkpt>
      <trkpt lat="48.22059" lon="-3.97477">
        <ele>158.1</ele>
        <time>2022-05-28T14:48:25Z</time>
      </trkpt>
      <trkpt lat="48.22074" lon="-3.9745">
        <ele>159.2</ele>
        <time>2022-05-28T14:48:32Z</time>
      </trkpt>
      <trkpt lat="48.22089" lon="-3.97423">
        <ele>160.2</ele>
        <time>2022-05-28T14:48:39Z</time>
      </trkpt>
      <trkpt lat="48.22124" lon="-3.97375">
        <ele>162.2</ele>
        <time>2022-05-28T14:48:53Z</time>
      </trkpt>
      <trkpt lat="48.22136" lon="-3.97358">
        <ele>162.6</ele>
        <time>2022-05-28T14:48:57Z</time>
      </trkpt>
      <trkpt lat="48.22159" lon="-3.97328">
        <ele>162</ele>
        <time>2022-05-28T14:49:04Z</time>
      </trkpt>
      <trkpt lat="48.2219" lon="-3.97286">
        <ele>161.2</ele>
        <time>2022-05-28T14:49:12Z</time>
      </trkpt>
      <trkpt lat="48.22223" lon="-3.97236">
        <ele>160.5</ele>
        <time>2022-05-28T14:49:19Z</time>
      </trkpt>
      <trkpt lat="48.22254" lon="-3.97203">
        <ele>159.8</ele>
        <time>2022-05-28T14:49:24Z</time>
      </trkpt>
      <trkpt lat="48.22296" lon="-3.97166">
        <ele>158.8</ele>
        <time>2022-05-28T14:49:31Z</time>
      </trkpt>
      <trkpt lat="48.22329" lon="-3.97145">
        <ele>158.1</ele>
        <time>2022-05-28T14:49:37Z</time>
      </trkpt>
      <trkpt lat="48.2234" lon="-3.97138">
        <ele>158.4</ele>
        <time>2022-05-28T14:49:39Z</time>
      </trkpt>
      <trkpt lat="48.22388" lon="-3.97125">
        <ele>159.9</ele>
        <time>2022-05-28T14:49:50Z</time>
      </trkpt>
      <trkpt lat="48.22406" lon="-3.97117">
        <ele>160.6</ele>
        <time>2022-05-28T14:49:55Z</time>
      </trkpt>
      <trkpt lat="48.22431" lon="-3.97105">
        <ele>161.7</ele>
        <time>2022-05-28T14:50:02Z</time>
      </trkpt>
      <trkpt lat="48.22473" lon="-3.97082">
        <ele>163.4</ele>
        <time>2022-05-28T14:50:13Z</time>
      </trkpt>
      <trkpt lat="48.2249" lon="-3.97072">
        <ele>164.2</ele>
        <time>2022-05-28T14:50:18Z</time>
      </trkpt>
      <trkpt lat="48.22517" lon="-3.97056">
        <ele>165</ele>
        <time>2022-05-28T14:50:26Z</time>
      </trkpt>
      <trkpt lat="48.22529" lon="-3.97047">
        <ele>165.5</ele>
        <time>2022-05-28T14:50:30Z</time>
      </trkpt>
      <trkpt lat="48.22558" lon="-3.97023">
        <ele>167.1</ele>
        <time>2022-05-28T14:50:40Z</time>
      </trkpt>
      <trkpt lat="48.22562" lon="-3.97021">
        <ele>167.3</ele>
        <time>2022-05-28T14:50:41Z</time>
      </trkpt>
      <trkpt lat="48.22596" lon="-3.96994">
        <ele>168.4</ele>
        <time>2022-05-28T14:50:52Z</time>
      </trkpt>
      <trkpt lat="48.226" lon="-3.96992">
        <ele>168.5</ele>
        <time>2022-05-28T14:50:53Z</time>
      </trkpt>
      <trkpt lat="48.22637" lon="-3.96919">
        <ele>168.7</ele>
        <time>2022-05-28T14:51:02Z</time>
      </trkpt>
      <trkpt lat="48.22637" lon="-3.96919">
        <ele>168.7</ele>
        <time>2022-05-28T14:52:07Z</time>
      </trkpt>
      <trkpt lat="48.22662" lon="-3.96856">
        <ele>168.2</ele>
        <time>2022-05-28T14:52:14Z</time>
      </trkpt>
      <trkpt lat="48.22662" lon="-3.96846">
        <ele>168.1</ele>
        <time>2022-05-28T14:52:15Z</time>
      </trkpt>
      <trkpt lat="48.22661" lon="-3.96798">
        <ele>166.5</ele>
        <time>2022-05-28T14:52:20Z</time>
      </trkpt>
      <trkpt lat="48.2266" lon="-3.96786">
        <ele>166.1</ele>
        <time>2022-05-28T14:52:21Z</time>
      </trkpt>
      <trkpt lat="48.2266" lon="-3.96729">
        <ele>164.5</ele>
        <time>2022-05-28T14:52:26Z</time>
      </trkpt>
      <trkpt lat="48.22656" lon="-3.96658">
        <ele>162.5</ele>
        <time>2022-05-28T14:52:32Z</time>
      </trkpt>
      <trkpt lat="48.22655" lon="-3.96648">
        <ele>162.2</ele>
        <time>2022-05-28T14:52:33Z</time>
      </trkpt>
      <trkpt lat="48.22651" lon="-3.96586">
        <ele>160.9</ele>
        <time>2022-05-28T14:52:39Z</time>
      </trkpt>
      <trkpt lat="48.22643" lon="-3.96521">
        <ele>161</ele>
        <time>2022-05-28T14:52:47Z</time>
      </trkpt>
      <trkpt lat="48.22653" lon="-3.96525">
        <ele>161</ele>
        <time>2022-05-28T14:52:49Z</time>
      </trkpt>
      <trkpt lat="48.22664" lon="-3.96524">
        <ele>161</ele>
        <time>2022-05-28T14:52:51Z</time>
      </trkpt>
      <trkpt lat="48.22679" lon="-3.9652">
        <ele>161</ele>
        <time>2022-05-28T14:52:54Z</time>
      </trkpt>
      <trkpt lat="48.22683" lon="-3.96513">
        <ele>161.1</ele>
        <time>2022-05-28T14:52:55Z</time>
      </trkpt>
      <trkpt lat="48.22685" lon="-3.96493">
        <ele>161.1</ele>
        <time>2022-05-28T14:52:57Z</time>
      </trkpt>
      <trkpt lat="48.22706" lon="-3.96431">
        <ele>161.3</ele>
        <time>2022-05-28T14:53:05Z</time>
      </trkpt>
      <trkpt lat="48.22727" lon="-3.96371">
        <ele>161.6</ele>
        <time>2022-05-28T14:53:14Z</time>
      </trkpt>
      <trkpt lat="48.22735" lon="-3.96329">
        <ele>161.8</ele>
        <time>2022-05-28T14:53:21Z</time>
      </trkpt>
      <trkpt lat="48.2274" lon="-3.96304">
        <ele>162.6</ele>
        <time>2022-05-28T14:53:25Z</time>
      </trkpt>
      <trkpt lat="48.22742" lon="-3.96234">
        <ele>165.2</ele>
        <time>2022-05-28T14:53:38Z</time>
      </trkpt>
      <trkpt lat="48.22743" lon="-3.96219">
        <ele>165.8</ele>
        <time>2022-05-28T14:53:41Z</time>
      </trkpt>
      <trkpt lat="48.22744" lon="-3.96166">
        <ele>168.2</ele>
        <time>2022-05-28T14:53:52Z</time>
      </trkpt>
      <trkpt lat="48.22745" lon="-3.96145">
        <ele>169.3</ele>
        <time>2022-05-28T14:53:57Z</time>
      </trkpt>
      <trkpt lat="48.22746" lon="-3.96119">
        <ele>170.8</ele>
        <time>2022-05-28T14:54:03Z</time>
      </trkpt>
      <trkpt lat="48.22747" lon="-3.96098">
        <ele>172</ele>
        <time>2022-05-28T14:54:08Z</time>
      </trkpt>
      <trkpt lat="48.22747" lon="-3.96094">
        <ele>172.2</ele>
        <time>2022-05-28T14:54:09Z</time>
      </trkpt>
      <trkpt lat="48.22752" lon="-3.96028">
        <ele>175.7</ele>
        <time>2022-05-28T14:54:25Z</time>
      </trkpt>
      <trkpt lat="48.22754" lon="-3.9602">
        <ele>176.2</ele>
        <time>2022-05-28T14:54:27Z</time>
      </trkpt>
      <trkpt lat="48.22771" lon="-3.95963">
        <ele>178.6</ele>
        <time>2022-05-28T14:54:41Z</time>
      </trkpt>
      <trkpt lat="48.22777" lon="-3.95947">
        <ele>179.3</ele>
        <time>2022-05-28T14:54:45Z</time>
      </trkpt>
      <trkpt lat="48.22786" lon="-3.95923">
        <ele>179.4</ele>
        <time>2022-05-28T14:54:51Z</time>
      </trkpt>
      <trkpt lat="48.22794" lon="-3.95903">
        <ele>179</ele>
        <time>2022-05-28T14:54:56Z</time>
      </trkpt>
      <trkpt lat="48.22807" lon="-3.95874">
        <ele>178.6</ele>
        <time>2022-05-28T14:55:02Z</time>
      </trkpt>
      <trkpt lat="48.2283" lon="-3.9581">
        <ele>177.8</ele>
        <time>2022-05-28T14:55:13Z</time>
      </trkpt>
      <trkpt lat="48.22854" lon="-3.95751">
        <ele>177.1</ele>
        <time>2022-05-28T14:55:23Z</time>
      </trkpt>
      <trkpt lat="48.22858" lon="-3.95747">
        <ele>177</ele>
        <time>2022-05-28T14:55:24Z</time>
      </trkpt>
      <trkpt lat="48.2286" lon="-3.95742">
        <ele>176.9</ele>
        <time>2022-05-28T14:55:25Z</time>
      </trkpt>
      <trkpt lat="48.22882" lon="-3.95719">
        <ele>176.4</ele>
        <time>2022-05-28T14:55:32Z</time>
      </trkpt>
      <trkpt lat="48.22894" lon="-3.95698">
        <ele>176.1</ele>
        <time>2022-05-28T14:55:36Z</time>
      </trkpt>
      <trkpt lat="48.22912" lon="-3.95666">
        <ele>175</ele>
        <time>2022-05-28T14:55:42Z</time>
      </trkpt>
      <trkpt lat="48.22933" lon="-3.9563">
        <ele>174.1</ele>
        <time>2022-05-28T14:55:47Z</time>
      </trkpt>
      <trkpt lat="48.22946" lon="-3.95607">
        <ele>173</ele>
        <time>2022-05-28T14:55:50Z</time>
      </trkpt>
      <trkpt lat="48.22961" lon="-3.95583">
        <ele>171.9</ele>
        <time>2022-05-28T14:55:53Z</time>
      </trkpt>
      <trkpt lat="48.22976" lon="-3.95558">
        <ele>171.3</ele>
        <time>2022-05-28T14:55:56Z</time>
      </trkpt>
      <trkpt lat="48.23" lon="-3.95516">
        <ele>170.4</ele>
        <time>2022-05-28T14:56:01Z</time>
      </trkpt>
      <trkpt lat="48.23004" lon="-3.9551">
        <ele>170.2</ele>
        <time>2022-05-28T14:56:02Z</time>
      </trkpt>
      <trkpt lat="48.23008" lon="-3.95501">
        <ele>170</ele>
        <time>2022-05-28T14:56:03Z</time>
      </trkpt>
      <trkpt lat="48.23012" lon="-3.95494">
        <ele>169.9</ele>
        <time>2022-05-28T14:56:04Z</time>
      </trkpt>
      <trkpt lat="48.23031" lon="-3.95459">
        <ele>169.7</ele>
        <time>2022-05-28T14:56:09Z</time>
      </trkpt>
      <trkpt lat="48.23039" lon="-3.95445">
        <ele>170</ele>
        <time>2022-05-28T14:56:11Z</time>
      </trkpt>
      <trkpt lat="48.23067" lon="-3.95391">
        <ele>171.4</ele>
        <time>2022-05-28T14:56:20Z</time>
      </trkpt>
      <trkpt lat="48.23085" lon="-3.95355">
        <ele>172.5</ele>
        <time>2022-05-28T14:56:27Z</time>
      </trkpt>
      <trkpt lat="48.23095" lon="-3.95334">
        <ele>173.3</ele>
        <time>2022-05-28T14:56:31Z</time>
      </trkpt>
      <trkpt lat="48.23125" lon="-3.95276">
        <ele>175.3</ele>
        <time>2022-05-28T14:56:42Z</time>
      </trkpt>
      <trkpt lat="48.23131" lon="-3.95267">
        <ele>175.6</ele>
        <time>2022-05-28T14:56:44Z</time>
      </trkpt>
      <trkpt lat="48.23134" lon="-3.95262">
        <ele>175.7</ele>
        <time>2022-05-28T14:56:45Z</time>
      </trkpt>
      <trkpt lat="48.23153" lon="-3.95227">
        <ele>176.2</ele>
        <time>2022-05-28T14:56:52Z</time>
      </trkpt>
      <trkpt lat="48.23155" lon="-3.95221">
        <ele>176.3</ele>
        <time>2022-05-28T14:56:53Z</time>
      </trkpt>
      <trkpt lat="48.23161" lon="-3.9521">
        <ele>176.4</ele>
        <time>2022-05-28T14:56:55Z</time>
      </trkpt>
      <trkpt lat="48.23169" lon="-3.95193">
        <ele>176</ele>
        <time>2022-05-28T14:56:58Z</time>
      </trkpt>
      <trkpt lat="48.23189" lon="-3.95123">
        <ele>175</ele>
        <time>2022-05-28T14:57:07Z</time>
      </trkpt>
      <trkpt lat="48.23196" lon="-3.95097">
        <ele>174.7</ele>
        <time>2022-05-28T14:57:10Z</time>
      </trkpt>
      <trkpt lat="48.232" lon="-3.9509">
        <ele>174.6</ele>
        <time>2022-05-28T14:57:11Z</time>
      </trkpt>
      <trkpt lat="48.23215" lon="-3.9506">
        <ele>174.6</ele>
        <time>2022-05-28T14:57:15Z</time>
      </trkpt>
      <trkpt lat="48.23217" lon="-3.95052">
        <ele>174.6</ele>
        <time>2022-05-28T14:57:16Z</time>
      </trkpt>
      <trkpt lat="48.23222" lon="-3.95046">
        <ele>174.6</ele>
        <time>2022-05-28T14:57:17Z</time>
      </trkpt>
      <trkpt lat="48.23247" lon="-3.95012">
        <ele>174.9</ele>
        <time>2022-05-28T14:57:23Z</time>
      </trkpt>
      <trkpt lat="48.23292" lon="-3.94983">
        <ele>175.4</ele>
        <time>2022-05-28T14:57:32Z</time>
      </trkpt>
      <trkpt lat="48.2334" lon="-3.94972">
        <ele>175.9</ele>
        <time>2022-05-28T14:57:42Z</time>
      </trkpt>
      <trkpt lat="48.23387" lon="-3.94966">
        <ele>176.4</ele>
        <time>2022-05-28T14:57:50Z</time>
      </trkpt>
      <trkpt lat="48.23437" lon="-3.94961">
        <ele>176.8</ele>
        <time>2022-05-28T14:57:58Z</time>
      </trkpt>
      <trkpt lat="48.23485" lon="-3.94954">
        <ele>177.3</ele>
        <time>2022-05-28T14:58:07Z</time>
      </trkpt>
      <trkpt lat="48.23524" lon="-3.94934">
        <ele>177.8</ele>
        <time>2022-05-28T14:58:16Z</time>
      </trkpt>
      <trkpt lat="48.23535" lon="-3.94922">
        <ele>177.9</ele>
        <time>2022-05-28T14:58:19Z</time>
      </trkpt>
      <trkpt lat="48.2354" lon="-3.94919">
        <ele>178</ele>
        <time>2022-05-28T14:58:20Z</time>
      </trkpt>
      <trkpt lat="48.23545" lon="-3.9491">
        <ele>178.1</ele>
        <time>2022-05-28T14:58:22Z</time>
      </trkpt>
      <trkpt lat="48.23572" lon="-3.9487">
        <ele>179.2</ele>
        <time>2022-05-28T14:58:31Z</time>
      </trkpt>
      <trkpt lat="48.23581" lon="-3.94856">
        <ele>179.6</ele>
        <time>2022-05-28T14:58:34Z</time>
      </trkpt>
      <trkpt lat="48.23604" lon="-3.9482">
        <ele>180.9</ele>
        <time>2022-05-28T14:58:42Z</time>
      </trkpt>
      <trkpt lat="48.23613" lon="-3.94805">
        <ele>181.6</ele>
        <time>2022-05-28T14:58:46Z</time>
      </trkpt>
      <trkpt lat="48.23633" lon="-3.94766">
        <ele>183.9</ele>
        <time>2022-05-28T14:58:56Z</time>
      </trkpt>
      <trkpt lat="48.23642" lon="-3.94735">
        <ele>185.8</ele>
        <time>2022-05-28T14:59:04Z</time>
      </trkpt>
      <trkpt lat="48.23651" lon="-3.94703">
        <ele>187.4</ele>
        <time>2022-05-28T14:59:12Z</time>
      </trkpt>
      <trkpt lat="48.23658" lon="-3.94664">
        <ele>189.3</ele>
        <time>2022-05-28T14:59:21Z</time>
      </trkpt>
      <trkpt lat="48.23662" lon="-3.94638">
        <ele>190.3</ele>
        <time>2022-05-28T14:59:27Z</time>
      </trkpt>
      <trkpt lat="48.23666" lon="-3.9457">
        <ele>192.6</ele>
        <time>2022-05-28T14:59:41Z</time>
      </trkpt>
      <trkpt lat="48.23666" lon="-3.94552">
        <ele>193.3</ele>
        <time>2022-05-28T14:59:45Z</time>
      </trkpt>
      <trkpt lat="48.23667" lon="-3.945">
        <ele>195.3</ele>
        <time>2022-05-28T14:59:56Z</time>
      </trkpt>
      <trkpt lat="48.23669" lon="-3.94469">
        <ele>196.6</ele>
        <time>2022-05-28T15:00:03Z</time>
      </trkpt>
      <trkpt lat="48.23672" lon="-3.94432">
        <ele>198.1</ele>
        <time>2022-05-28T15:00:11Z</time>
      </trkpt>
      <trkpt lat="48.23676" lon="-3.94401">
        <ele>199.4</ele>
        <time>2022-05-28T15:00:18Z</time>
      </trkpt>
      <trkpt lat="48.23677" lon="-3.94386">
        <ele>200</ele>
        <time>2022-05-28T15:00:21Z</time>
      </trkpt>
      <trkpt lat="48.23684" lon="-3.94333">
        <ele>201.3</ele>
        <time>2022-05-28T15:00:32Z</time>
      </trkpt>
      <trkpt lat="48.23701" lon="-3.9428">
        <ele>202.8</ele>
        <time>2022-05-28T15:00:44Z</time>
      </trkpt>
      <trkpt lat="48.23702" lon="-3.94275">
        <ele>202.8</ele>
        <time>2022-05-28T15:00:45Z</time>
      </trkpt>
      <trkpt lat="48.23722" lon="-3.94216">
        <ele>202.1</ele>
        <time>2022-05-28T15:00:57Z</time>
      </trkpt>
      <trkpt lat="48.23745" lon="-3.94151">
        <ele>201.5</ele>
        <time>2022-05-28T15:01:07Z</time>
      </trkpt>
      <trkpt lat="48.23769" lon="-3.94089">
        <ele>200.9</ele>
        <time>2022-05-28T15:01:17Z</time>
      </trkpt>
      <trkpt lat="48.23788" lon="-3.94045">
        <ele>200.5</ele>
        <time>2022-05-28T15:01:24Z</time>
      </trkpt>
      <trkpt lat="48.2381" lon="-3.93983">
        <ele>200</ele>
        <time>2022-05-28T15:01:34Z</time>
      </trkpt>
      <trkpt lat="48.23819" lon="-3.93958">
        <ele>199.7</ele>
        <time>2022-05-28T15:01:38Z</time>
      </trkpt>
      <trkpt lat="48.23833" lon="-3.93919">
        <ele>198.6</ele>
        <time>2022-05-28T15:01:44Z</time>
      </trkpt>
      <trkpt lat="48.23848" lon="-3.93868">
        <ele>197.6</ele>
        <time>2022-05-28T15:01:50Z</time>
      </trkpt>
      <trkpt lat="48.23852" lon="-3.9385">
        <ele>197</ele>
        <time>2022-05-28T15:01:52Z</time>
      </trkpt>
      <trkpt lat="48.23854" lon="-3.93781">
        <ele>195.3</ele>
        <time>2022-05-28T15:01:58Z</time>
      </trkpt>
      <trkpt lat="48.23854" lon="-3.93736">
        <ele>194.3</ele>
        <time>2022-05-28T15:02:02Z</time>
      </trkpt>
      <trkpt lat="48.23855" lon="-3.93725">
        <ele>194.2</ele>
        <time>2022-05-28T15:02:03Z</time>
      </trkpt>
      <trkpt lat="48.23858" lon="-3.93692">
        <ele>193.8</ele>
        <time>2022-05-28T15:02:06Z</time>
      </trkpt>
      <trkpt lat="48.23858" lon="-3.93682">
        <ele>193.7</ele>
        <time>2022-05-28T15:02:07Z</time>
      </trkpt>
      <trkpt lat="48.23875" lon="-3.93618">
        <ele>192.9</ele>
        <time>2022-05-28T15:02:14Z</time>
      </trkpt>
      <trkpt lat="48.23901" lon="-3.93561">
        <ele>192.9</ele>
        <time>2022-05-28T15:02:22Z</time>
      </trkpt>
      <trkpt lat="48.2394" lon="-3.93514">
        <ele>192.9</ele>
        <time>2022-05-28T15:02:32Z</time>
      </trkpt>
      <trkpt lat="48.23981" lon="-3.93474">
        <ele>192.9</ele>
        <time>2022-05-28T15:02:42Z</time>
      </trkpt>
      <trkpt lat="48.24017" lon="-3.9344">
        <ele>192.9</ele>
        <time>2022-05-28T15:02:51Z</time>
      </trkpt>
      <trkpt lat="48.24042" lon="-3.93413">
        <ele>192.8</ele>
        <time>2022-05-28T15:02:56Z</time>
      </trkpt>
      <trkpt lat="48.24057" lon="-3.93397">
        <ele>192</ele>
        <time>2022-05-28T15:02:59Z</time>
      </trkpt>
      <trkpt lat="48.24079" lon="-3.93372">
        <ele>190.8</ele>
        <time>2022-05-28T15:03:03Z</time>
      </trkpt>
      <trkpt lat="48.24104" lon="-3.93337">
        <ele>189.4</ele>
        <time>2022-05-28T15:03:08Z</time>
      </trkpt>
      <trkpt lat="48.24114" lon="-3.93323">
        <ele>189.1</ele>
        <time>2022-05-28T15:03:10Z</time>
      </trkpt>
      <trkpt lat="48.24133" lon="-3.93295">
        <ele>188.6</ele>
        <time>2022-05-28T15:03:14Z</time>
      </trkpt>
      <trkpt lat="48.24138" lon="-3.93288">
        <ele>188.6</ele>
        <time>2022-05-28T15:03:15Z</time>
      </trkpt>
      <trkpt lat="48.24152" lon="-3.93261">
        <ele>188.7</ele>
        <time>2022-05-28T15:03:19Z</time>
      </trkpt>
      <trkpt lat="48.24167" lon="-3.93234">
        <ele>189</ele>
        <time>2022-05-28T15:03:23Z</time>
      </trkpt>
      <trkpt lat="48.24198" lon="-3.93177">
        <ele>189.7</ele>
        <time>2022-05-28T15:03:32Z</time>
      </trkpt>
      <trkpt lat="48.24225" lon="-3.93123">
        <ele>190.4</ele>
        <time>2022-05-28T15:03:41Z</time>
      </trkpt>
      <trkpt lat="48.24254" lon="-3.93066">
        <ele>191.2</ele>
        <time>2022-05-28T15:03:51Z</time>
      </trkpt>
      <trkpt lat="48.24282" lon="-3.93013">
        <ele>192</ele>
        <time>2022-05-28T15:04:01Z</time>
      </trkpt>
      <trkpt lat="48.24312" lon="-3.9296">
        <ele>194</ele>
        <time>2022-05-28T15:04:12Z</time>
      </trkpt>
      <trkpt lat="48.2433" lon="-3.92931">
        <ele>195.3</ele>
        <time>2022-05-28T15:04:19Z</time>
      </trkpt>
      <trkpt lat="48.24343" lon="-3.9291">
        <ele>195.5</ele>
        <time>2022-05-28T15:04:24Z</time>
      </trkpt>
      <trkpt lat="48.24346" lon="-3.92906">
        <ele>195.5</ele>
        <time>2022-05-28T15:04:25Z</time>
      </trkpt>
      <trkpt lat="48.24378" lon="-3.92865">
        <ele>196.8</ele>
        <time>2022-05-28T15:04:35Z</time>
      </trkpt>
      <trkpt lat="48.24408" lon="-3.9283">
        <ele>197.8</ele>
        <time>2022-05-28T15:04:43Z</time>
      </trkpt>
      <trkpt lat="48.24415" lon="-3.92822">
        <ele>197.8</ele>
        <time>2022-05-28T15:04:45Z</time>
      </trkpt>
      <trkpt lat="48.24431" lon="-3.92803">
        <ele>197.8</ele>
        <time>2022-05-28T15:04:49Z</time>
      </trkpt>
      <trkpt lat="48.24451" lon="-3.92779">
        <ele>198.1</ele>
        <time>2022-05-28T15:04:54Z</time>
      </trkpt>
      <trkpt lat="48.2449" lon="-3.92735">
        <ele>198.6</ele>
        <time>2022-05-28T15:05:03Z</time>
      </trkpt>
      <trkpt lat="48.24527" lon="-3.9269">
        <ele>199.1</ele>
        <time>2022-05-28T15:05:12Z</time>
      </trkpt>
      <trkpt lat="48.24539" lon="-3.92675">
        <ele>199.3</ele>
        <time>2022-05-28T15:05:15Z</time>
      </trkpt>
      <trkpt lat="48.24577" lon="-3.92627">
        <ele>199.9</ele>
        <time>2022-05-28T15:05:25Z</time>
      </trkpt>
      <trkpt lat="48.246" lon="-3.926">
        <ele>200.3</ele>
        <time>2022-05-28T15:05:31Z</time>
      </trkpt>
      <trkpt lat="48.24636" lon="-3.92558">
        <ele>200.9</ele>
        <time>2022-05-28T15:05:41Z</time>
      </trkpt>
      <trkpt lat="48.24657" lon="-3.92533">
        <ele>201.2</ele>
        <time>2022-05-28T15:05:47Z</time>
      </trkpt>
      <trkpt lat="48.24671" lon="-3.92515">
        <ele>201.6</ele>
        <time>2022-05-28T15:05:51Z</time>
      </trkpt>
      <trkpt lat="48.247" lon="-3.92457">
        <ele>202.6</ele>
        <time>2022-05-28T15:06:02Z</time>
      </trkpt>
      <trkpt lat="48.24726" lon="-3.92399">
        <ele>203.6</ele>
        <time>2022-05-28T15:06:13Z</time>
      </trkpt>
      <trkpt lat="48.24744" lon="-3.92359">
        <ele>204.3</ele>
        <time>2022-05-28T15:06:21Z</time>
      </trkpt>
      <trkpt lat="48.24749" lon="-3.92349">
        <ele>204.5</ele>
        <time>2022-05-28T15:06:23Z</time>
      </trkpt>
      <trkpt lat="48.24763" lon="-3.92318">
        <ele>205.6</ele>
        <time>2022-05-28T15:06:29Z</time>
      </trkpt>
      <trkpt lat="48.2477" lon="-3.92302">
        <ele>205.9</ele>
        <time>2022-05-28T15:06:32Z</time>
      </trkpt>
      <trkpt lat="48.2479" lon="-3.92255">
        <ele>206.9</ele>
        <time>2022-05-28T15:06:41Z</time>
      </trkpt>
      <trkpt lat="48.24795" lon="-3.92244">
        <ele>207.1</ele>
        <time>2022-05-28T15:06:43Z</time>
      </trkpt>
      <trkpt lat="48.24822" lon="-3.92183">
        <ele>208.3</ele>
        <time>2022-05-28T15:06:55Z</time>
      </trkpt>
      <trkpt lat="48.24847" lon="-3.92124">
        <ele>209.5</ele>
        <time>2022-05-28T15:07:06Z</time>
      </trkpt>
      <trkpt lat="48.24859" lon="-3.92098">
        <ele>210</ele>
        <time>2022-05-28T15:07:11Z</time>
      </trkpt>
      <trkpt lat="48.24874" lon="-3.92066">
        <ele>209.9</ele>
        <time>2022-05-28T15:07:17Z</time>
      </trkpt>
      <trkpt lat="48.24883" lon="-3.92045">
        <ele>209.9</ele>
        <time>2022-05-28T15:07:21Z</time>
      </trkpt>
      <trkpt lat="48.24931" lon="-3.92034">
        <ele>209.7</ele>
        <time>2022-05-28T15:07:32Z</time>
      </trkpt>
      <trkpt lat="48.24978" lon="-3.92011">
        <ele>209.6</ele>
        <time>2022-05-28T15:07:43Z</time>
      </trkpt>
      <trkpt lat="48.25015" lon="-3.91966">
        <ele>209.5</ele>
        <time>2022-05-28T15:07:51Z</time>
      </trkpt>
      <trkpt lat="48.25041" lon="-3.9193">
        <ele>209.4</ele>
        <time>2022-05-28T15:07:57Z</time>
      </trkpt>
      <trkpt lat="48.25045" lon="-3.91926">
        <ele>209.2</ele>
        <time>2022-05-28T15:07:58Z</time>
      </trkpt>
      <trkpt lat="48.25048" lon="-3.91919">
        <ele>208.5</ele>
        <time>2022-05-28T15:08:01Z</time>
      </trkpt>
      <trkpt lat="48.25037" lon="-3.9192">
        <ele>208.3</ele>
        <time>2022-05-28T15:08:02Z</time>
      </trkpt>
      <trkpt lat="48.25037" lon="-3.91923">
        <ele>208.1</ele>
        <time>2022-05-28T15:08:03Z</time>
      </trkpt>
      <trkpt lat="48.25045" lon="-3.91932">
        <ele>207.3</ele>
        <time>2022-05-28T15:08:07Z</time>
      </trkpt>
      <trkpt lat="48.25067" lon="-3.9194">
        <ele>207.1</ele>
        <time>2022-05-28T15:08:08Z</time>
      </trkpt>
      <trkpt lat="48.25073" lon="-3.9194">
        <ele>206.8</ele>
        <time>2022-05-28T15:08:09Z</time>
      </trkpt>
      <trkpt lat="48.25097" lon="-3.91948">
        <ele>206</ele>
        <time>2022-05-28T15:08:13Z</time>
      </trkpt>
      <trkpt lat="48.25114" lon="-3.9195">
        <ele>205.6</ele>
        <time>2022-05-28T15:08:15Z</time>
      </trkpt>
      <trkpt lat="48.25147" lon="-3.91953">
        <ele>205.1</ele>
        <time>2022-05-28T15:08:19Z</time>
      </trkpt>
      <trkpt lat="48.25199" lon="-3.91965">
        <ele>204.3</ele>
        <time>2022-05-28T15:08:25Z</time>
      </trkpt>
      <trkpt lat="48.25214" lon="-3.91968">
        <ele>204.1</ele>
        <time>2022-05-28T15:08:27Z</time>
      </trkpt>
      <trkpt lat="48.25245" lon="-3.91975">
        <ele>203.5</ele>
        <time>2022-05-28T15:08:31Z</time>
      </trkpt>
      <trkpt lat="48.25297" lon="-3.91986">
        <ele>202.5</ele>
        <time>2022-05-28T15:08:38Z</time>
      </trkpt>
      <trkpt lat="48.25348" lon="-3.91996">
        <ele>201.5</ele>
        <time>2022-05-28T15:08:45Z</time>
      </trkpt>
      <trkpt lat="48.254" lon="-3.92003">
        <ele>200.6</ele>
        <time>2022-05-28T15:08:51Z</time>
      </trkpt>
      <trkpt lat="48.25446" lon="-3.92005">
        <ele>199</ele>
        <time>2022-05-28T15:08:56Z</time>
      </trkpt>
      <trkpt lat="48.25455" lon="-3.92005">
        <ele>198.8</ele>
        <time>2022-05-28T15:08:57Z</time>
      </trkpt>
      <trkpt lat="48.25498" lon="-3.92007">
        <ele>199</ele>
        <time>2022-05-28T15:09:02Z</time>
      </trkpt>
      <trkpt lat="48.25505" lon="-3.92006">
        <ele>199.1</ele>
        <time>2022-05-28T15:09:03Z</time>
      </trkpt>
      <trkpt lat="48.25549" lon="-3.92">
        <ele>200.2</ele>
        <time>2022-05-28T15:09:09Z</time>
      </trkpt>
      <trkpt lat="48.25577" lon="-3.91987">
        <ele>200.4</ele>
        <time>2022-05-28T15:09:13Z</time>
      </trkpt>
      <trkpt lat="48.25593" lon="-3.91974">
        <ele>200.3</ele>
        <time>2022-05-28T15:09:15Z</time>
      </trkpt>
      <trkpt lat="48.25635" lon="-3.91932">
        <ele>198.3</ele>
        <time>2022-05-28T15:09:21Z</time>
      </trkpt>
      <trkpt lat="48.25681" lon="-3.91893">
        <ele>195.2</ele>
        <time>2022-05-28T15:09:26Z</time>
      </trkpt>
      <trkpt lat="48.25688" lon="-3.9189">
        <ele>194.8</ele>
        <time>2022-05-28T15:09:27Z</time>
      </trkpt>
      <trkpt lat="48.25719" lon="-3.91877">
        <ele>194.9</ele>
        <time>2022-05-28T15:09:31Z</time>
      </trkpt>
      <trkpt lat="48.25773" lon="-3.91879">
        <ele>195.2</ele>
        <time>2022-05-28T15:09:38Z</time>
      </trkpt>
      <trkpt lat="48.25808" lon="-3.91868">
        <ele>197</ele>
        <time>2022-05-28T15:09:43Z</time>
      </trkpt>
      <trkpt lat="48.25812" lon="-3.91866">
        <ele>197.3</ele>
        <time>2022-05-28T15:09:44Z</time>
      </trkpt>
      <trkpt lat="48.25851" lon="-3.91843">
        <ele>198.5</ele>
        <time>2022-05-28T15:09:52Z</time>
      </trkpt>
      <trkpt lat="48.25861" lon="-3.91836">
        <ele>199</ele>
        <time>2022-05-28T15:09:55Z</time>
      </trkpt>
      <trkpt lat="48.25892" lon="-3.91816">
        <ele>201.1</ele>
        <time>2022-05-28T15:10:04Z</time>
      </trkpt>
      <trkpt lat="48.25903" lon="-3.91807">
        <ele>202</ele>
        <time>2022-05-28T15:10:08Z</time>
      </trkpt>
      <trkpt lat="48.25915" lon="-3.91799">
        <ele>203.1</ele>
        <time>2022-05-28T15:10:13Z</time>
      </trkpt>
      <trkpt lat="48.25947" lon="-3.91779">
        <ele>205.5</ele>
        <time>2022-05-28T15:10:26Z</time>
      </trkpt>
      <trkpt lat="48.25963" lon="-3.91769">
        <ele>206.4</ele>
        <time>2022-05-28T15:10:31Z</time>
      </trkpt>
      <trkpt lat="48.2599" lon="-3.91753">
        <ele>207.8</ele>
        <time>2022-05-28T15:10:39Z</time>
      </trkpt>
      <trkpt lat="48.26023" lon="-3.9173">
        <ele>209.5</ele>
        <time>2022-05-28T15:10:49Z</time>
      </trkpt>
      <trkpt lat="48.26032" lon="-3.91724">
        <ele>210</ele>
        <time>2022-05-28T15:10:52Z</time>
      </trkpt>
      <trkpt lat="48.26042" lon="-3.91717">
        <ele>210.6</ele>
        <time>2022-05-28T15:10:55Z</time>
      </trkpt>
      <trkpt lat="48.26076" lon="-3.91693">
        <ele>212.2</ele>
        <time>2022-05-28T15:11:06Z</time>
      </trkpt>
      <trkpt lat="48.26097" lon="-3.91676">
        <ele>213.2</ele>
        <time>2022-05-28T15:11:13Z</time>
      </trkpt>
      <trkpt lat="48.26116" lon="-3.91662">
        <ele>214</ele>
        <time>2022-05-28T15:11:19Z</time>
      </trkpt>
      <trkpt lat="48.26162" lon="-3.91634">
        <ele>215.8</ele>
        <time>2022-05-28T15:11:32Z</time>
      </trkpt>
      <trkpt lat="48.26183" lon="-3.91621">
        <ele>216.4</ele>
        <time>2022-05-28T15:11:37Z</time>
      </trkpt>
      <trkpt lat="48.26233" lon="-3.9159">
        <ele>216.7</ele>
        <time>2022-05-28T15:11:47Z</time>
      </trkpt>
      <trkpt lat="48.26233" lon="-3.9159">
        <ele>216.7</ele>
        <time>2022-05-28T15:13:18Z</time>
      </trkpt>
      <trkpt lat="48.26264" lon="-3.9157">
        <ele>216.9</ele>
        <time>2022-05-28T15:13:18Z</time>
      </trkpt>
      <trkpt lat="48.26309" lon="-3.91545">
        <ele>216.9</ele>
        <time>2022-05-28T15:13:28Z</time>
      </trkpt>
      <trkpt lat="48.26353" lon="-3.91525">
        <ele>217</ele>
        <time>2022-05-28T15:13:37Z</time>
      </trkpt>
      <trkpt lat="48.26401" lon="-3.91506">
        <ele>217</ele>
        <time>2022-05-28T15:13:46Z</time>
      </trkpt>
      <trkpt lat="48.2645" lon="-3.91487">
        <ele>217</ele>
        <time>2022-05-28T15:13:54Z</time>
      </trkpt>
      <trkpt lat="48.26493" lon="-3.91464">
        <ele>217.1</ele>
        <time>2022-05-28T15:14:00Z</time>
      </trkpt>
      <trkpt lat="48.26499" lon="-3.91458">
        <ele>217</ele>
        <time>2022-05-28T15:14:01Z</time>
      </trkpt>
      <trkpt lat="48.2653" lon="-3.91428">
        <ele>216.8</ele>
        <time>2022-05-28T15:14:06Z</time>
      </trkpt>
      <trkpt lat="48.26535" lon="-3.91421">
        <ele>216.7</ele>
        <time>2022-05-28T15:14:07Z</time>
      </trkpt>
      <trkpt lat="48.26565" lon="-3.91379">
        <ele>216.2</ele>
        <time>2022-05-28T15:14:13Z</time>
      </trkpt>
      <trkpt lat="48.26601" lon="-3.91332">
        <ele>215.6</ele>
        <time>2022-05-28T15:14:20Z</time>
      </trkpt>
      <trkpt lat="48.26617" lon="-3.9131">
        <ele>215.4</ele>
        <time>2022-05-28T15:14:23Z</time>
      </trkpt>
      <trkpt lat="48.26621" lon="-3.913">
        <ele>215.3</ele>
        <time>2022-05-28T15:14:24Z</time>
      </trkpt>
      <trkpt lat="48.26628" lon="-3.91292">
        <ele>215.2</ele>
        <time>2022-05-28T15:14:25Z</time>
      </trkpt>
      <trkpt lat="48.26637" lon="-3.91259">
        <ele>215</ele>
        <time>2022-05-28T15:14:28Z</time>
      </trkpt>
      <trkpt lat="48.26639" lon="-3.91247">
        <ele>214.9</ele>
        <time>2022-05-28T15:14:29Z</time>
      </trkpt>
      <trkpt lat="48.26647" lon="-3.91227">
        <ele>214.7</ele>
        <time>2022-05-28T15:14:31Z</time>
      </trkpt>
      <trkpt lat="48.26652" lon="-3.91218">
        <ele>214.6</ele>
        <time>2022-05-28T15:14:32Z</time>
      </trkpt>
      <trkpt lat="48.26667" lon="-3.91205">
        <ele>214.4</ele>
        <time>2022-05-28T15:14:34Z</time>
      </trkpt>
      <trkpt lat="48.26708" lon="-3.91174">
        <ele>213.7</ele>
        <time>2022-05-28T15:14:40Z</time>
      </trkpt>
      <trkpt lat="48.26719" lon="-3.91157">
        <ele>213.5</ele>
        <time>2022-05-28T15:14:42Z</time>
      </trkpt>
      <trkpt lat="48.26721" lon="-3.91146">
        <ele>213.3</ele>
        <time>2022-05-28T15:14:43Z</time>
      </trkpt>
      <trkpt lat="48.26722" lon="-3.91082">
        <ele>212.7</ele>
        <time>2022-05-28T15:14:49Z</time>
      </trkpt>
      <trkpt lat="48.26722" lon="-3.91072">
        <ele>212.7</ele>
        <time>2022-05-28T15:14:50Z</time>
      </trkpt>
      <trkpt lat="48.26722" lon="-3.91003">
        <ele>213</ele>
        <time>2022-05-28T15:14:57Z</time>
      </trkpt>
      <trkpt lat="48.26724" lon="-3.9099">
        <ele>213.1</ele>
        <time>2022-05-28T15:14:59Z</time>
      </trkpt>
      <trkpt lat="48.26769" lon="-3.90971">
        <ele>213.3</ele>
        <time>2022-05-28T15:15:06Z</time>
      </trkpt>
      <trkpt lat="48.26813" lon="-3.90957">
        <ele>213.6</ele>
        <time>2022-05-28T15:15:13Z</time>
      </trkpt>
      <trkpt lat="48.26859" lon="-3.90946">
        <ele>213.8</ele>
        <time>2022-05-28T15:15:20Z</time>
      </trkpt>
      <trkpt lat="48.26905" lon="-3.90943">
        <ele>214.1</ele>
        <time>2022-05-28T15:15:27Z</time>
      </trkpt>
      <trkpt lat="48.26954" lon="-3.90941">
        <ele>214.4</ele>
        <time>2022-05-28T15:15:35Z</time>
      </trkpt>
      <trkpt lat="48.27" lon="-3.90911">
        <ele>214.7</ele>
        <time>2022-05-28T15:15:43Z</time>
      </trkpt>
      <trkpt lat="48.27029" lon="-3.90885">
        <ele>214.9</ele>
        <time>2022-05-28T15:15:49Z</time>
      </trkpt>
      <trkpt lat="48.27039" lon="-3.90876">
        <ele>215.1</ele>
        <time>2022-05-28T15:15:51Z</time>
      </trkpt>
      <trkpt lat="48.27053" lon="-3.90864">
        <ele>215.4</ele>
        <time>2022-05-28T15:15:54Z</time>
      </trkpt>
      <trkpt lat="48.27081" lon="-3.9084">
        <ele>216.1</ele>
        <time>2022-05-28T15:16:00Z</time>
      </trkpt>
      <trkpt lat="48.27099" lon="-3.90823">
        <ele>216.6</ele>
        <time>2022-05-28T15:16:04Z</time>
      </trkpt>
      <trkpt lat="48.27108" lon="-3.90814">
        <ele>216.7</ele>
        <time>2022-05-28T15:16:06Z</time>
      </trkpt>
      <trkpt lat="48.27131" lon="-3.9078">
        <ele>216.9</ele>
        <time>2022-05-28T15:16:12Z</time>
      </trkpt>
      <trkpt lat="48.27147" lon="-3.90749">
        <ele>216.9</ele>
        <time>2022-05-28T15:16:16Z</time>
      </trkpt>
      <trkpt lat="48.2716" lon="-3.90726">
        <ele>216</ele>
        <time>2022-05-28T15:16:19Z</time>
      </trkpt>
      <trkpt lat="48.27174" lon="-3.90698">
        <ele>215</ele>
        <time>2022-05-28T15:16:22Z</time>
      </trkpt>
      <trkpt lat="48.27189" lon="-3.9067">
        <ele>214</ele>
        <time>2022-05-28T15:16:25Z</time>
      </trkpt>
      <trkpt lat="48.27204" lon="-3.9064">
        <ele>213</ele>
        <time>2022-05-28T15:16:28Z</time>
      </trkpt>
      <trkpt lat="48.27223" lon="-3.90619">
        <ele>212.7</ele>
        <time>2022-05-28T15:16:31Z</time>
      </trkpt>
      <trkpt lat="48.27272" lon="-3.90597">
        <ele>212</ele>
        <time>2022-05-28T15:16:38Z</time>
      </trkpt>
      <trkpt lat="48.27285" lon="-3.90595">
        <ele>211.8</ele>
        <time>2022-05-28T15:16:40Z</time>
      </trkpt>
      <trkpt lat="48.27318" lon="-3.90589">
        <ele>211.5</ele>
        <time>2022-05-28T15:16:45Z</time>
      </trkpt>
      <trkpt lat="48.27368" lon="-3.90574">
        <ele>210.9</ele>
        <time>2022-05-28T15:16:53Z</time>
      </trkpt>
      <trkpt lat="48.27398" lon="-3.90567">
        <ele>210.7</ele>
        <time>2022-05-28T15:16:57Z</time>
      </trkpt>
      <trkpt lat="48.2742" lon="-3.90562">
        <ele>210.5</ele>
        <time>2022-05-28T15:17:00Z</time>
      </trkpt>
      <trkpt lat="48.27457" lon="-3.90558">
        <ele>210</ele>
        <time>2022-05-28T15:17:04Z</time>
      </trkpt>
      <trkpt lat="48.27466" lon="-3.90556">
        <ele>209.3</ele>
        <time>2022-05-28T15:17:05Z</time>
      </trkpt>
      <trkpt lat="48.27521" lon="-3.90551">
        <ele>206</ele>
        <time>2022-05-28T15:17:10Z</time>
      </trkpt>
      <trkpt lat="48.27575" lon="-3.90545">
        <ele>202.3</ele>
        <time>2022-05-28T15:17:15Z</time>
      </trkpt>
      <trkpt lat="48.27586" lon="-3.90544">
        <ele>201.8</ele>
        <time>2022-05-28T15:17:16Z</time>
      </trkpt>
      <trkpt lat="48.27628" lon="-3.9054">
        <ele>201.2</ele>
        <time>2022-05-28T15:17:20Z</time>
      </trkpt>
      <trkpt lat="48.27677" lon="-3.90535">
        <ele>200.5</ele>
        <time>2022-05-28T15:17:25Z</time>
      </trkpt>
      <trkpt lat="48.27704" lon="-3.90532">
        <ele>200.1</ele>
        <time>2022-05-28T15:17:28Z</time>
      </trkpt>
      <trkpt lat="48.27722" lon="-3.9053">
        <ele>200.4</ele>
        <time>2022-05-28T15:17:30Z</time>
      </trkpt>
      <trkpt lat="48.2777" lon="-3.90526">
        <ele>201.1</ele>
        <time>2022-05-28T15:17:36Z</time>
      </trkpt>
      <trkpt lat="48.27799" lon="-3.90525">
        <ele>201.6</ele>
        <time>2022-05-28T15:17:40Z</time>
      </trkpt>
      <trkpt lat="48.2782" lon="-3.90524">
        <ele>202</ele>
        <time>2022-05-28T15:17:43Z</time>
      </trkpt>
      <trkpt lat="48.27867" lon="-3.90533">
        <ele>202.9</ele>
        <time>2022-05-28T15:17:51Z</time>
      </trkpt>
      <trkpt lat="48.27912" lon="-3.90541">
        <ele>203.8</ele>
        <time>2022-05-28T15:17:59Z</time>
      </trkpt>
      <trkpt lat="48.27935" lon="-3.90545">
        <ele>204.2</ele>
        <time>2022-05-28T15:18:03Z</time>
      </trkpt>
      <trkpt lat="48.27959" lon="-3.9055">
        <ele>203.5</ele>
        <time>2022-05-28T15:18:07Z</time>
      </trkpt>
      <trkpt lat="48.28005" lon="-3.90558">
        <ele>202.2</ele>
        <time>2022-05-28T15:18:14Z</time>
      </trkpt>
      <trkpt lat="48.28051" lon="-3.90565">
        <ele>201.1</ele>
        <time>2022-05-28T15:18:20Z</time>
      </trkpt>
      <trkpt lat="48.28097" lon="-3.90566">
        <ele>200</ele>
        <time>2022-05-28T15:18:25Z</time>
      </trkpt>
      <trkpt lat="48.28116" lon="-3.90556">
        <ele>198.5</ele>
        <time>2022-05-28T15:18:27Z</time>
      </trkpt>
      <trkpt lat="48.28153" lon="-3.90522">
        <ele>195.5</ele>
        <time>2022-05-28T15:18:31Z</time>
      </trkpt>
      <trkpt lat="48.28162" lon="-3.90513">
        <ele>194.9</ele>
        <time>2022-05-28T15:18:32Z</time>
      </trkpt>
      <trkpt lat="48.2821" lon="-3.9047">
        <ele>191.8</ele>
        <time>2022-05-28T15:18:37Z</time>
      </trkpt>
      <trkpt lat="48.28259" lon="-3.9043">
        <ele>188.7</ele>
        <time>2022-05-28T15:18:42Z</time>
      </trkpt>
      <trkpt lat="48.2827" lon="-3.90424">
        <ele>188</ele>
        <time>2022-05-28T15:18:43Z</time>
      </trkpt>
      <trkpt lat="48.28303" lon="-3.90407">
        <ele>185.8</ele>
        <time>2022-05-28T15:18:46Z</time>
      </trkpt>
      <trkpt lat="48.28337" lon="-3.90391">
        <ele>183.4</ele>
        <time>2022-05-28T15:18:49Z</time>
      </trkpt>
      <trkpt lat="48.28348" lon="-3.90386">
        <ele>182.5</ele>
        <time>2022-05-28T15:18:50Z</time>
      </trkpt>
      <trkpt lat="48.28381" lon="-3.90372">
        <ele>179.7</ele>
        <time>2022-05-28T15:18:53Z</time>
      </trkpt>
      <trkpt lat="48.28403" lon="-3.90374">
        <ele>178.1</ele>
        <time>2022-05-28T15:18:55Z</time>
      </trkpt>
      <trkpt lat="48.28432" lon="-3.90397">
        <ele>177.2</ele>
        <time>2022-05-28T15:18:58Z</time>
      </trkpt>
      <trkpt lat="48.28466" lon="-3.90447">
        <ele>175.7</ele>
        <time>2022-05-28T15:19:03Z</time>
      </trkpt>
      <trkpt lat="48.28495" lon="-3.90477">
        <ele>174.6</ele>
        <time>2022-05-28T15:19:07Z</time>
      </trkpt>
      <trkpt lat="48.2851" lon="-3.9049">
        <ele>174.7</ele>
        <time>2022-05-28T15:19:09Z</time>
      </trkpt>
      <trkpt lat="48.28539" lon="-3.90506">
        <ele>174.9</ele>
        <time>2022-05-28T15:19:13Z</time>
      </trkpt>
      <trkpt lat="48.28554" lon="-3.90513">
        <ele>175.2</ele>
        <time>2022-05-28T15:19:15Z</time>
      </trkpt>
      <trkpt lat="48.28604" lon="-3.90515">
        <ele>176.3</ele>
        <time>2022-05-28T15:19:22Z</time>
      </trkpt>
      <trkpt lat="48.28633" lon="-3.90499">
        <ele>177</ele>
        <time>2022-05-28T15:19:27Z</time>
      </trkpt>
      <trkpt lat="48.28651" lon="-3.90482">
        <ele>177.6</ele>
        <time>2022-05-28T15:19:31Z</time>
      </trkpt>
      <trkpt lat="48.28659" lon="-3.90474">
        <ele>178</ele>
        <time>2022-05-28T15:19:33Z</time>
      </trkpt>
      <trkpt lat="48.28673" lon="-3.9046">
        <ele>178.7</ele>
        <time>2022-05-28T15:19:37Z</time>
      </trkpt>
      <trkpt lat="48.28695" lon="-3.90441">
        <ele>180.3</ele>
        <time>2022-05-28T15:19:43Z</time>
      </trkpt>
      <trkpt lat="48.28698" lon="-3.90438">
        <ele>180.5</ele>
        <time>2022-05-28T15:19:44Z</time>
      </trkpt>
      <trkpt lat="48.28741" lon="-3.90412">
        <ele>183.9</ele>
        <time>2022-05-28T15:19:59Z</time>
      </trkpt>
      <trkpt lat="48.28748" lon="-3.90412">
        <ele>184.4</ele>
        <time>2022-05-28T15:20:01Z</time>
      </trkpt>
      <trkpt lat="48.28788" lon="-3.90414">
        <ele>186.9</ele>
        <time>2022-05-28T15:20:13Z</time>
      </trkpt>
      <trkpt lat="48.28798" lon="-3.90418">
        <ele>187.5</ele>
        <time>2022-05-28T15:20:16Z</time>
      </trkpt>
      <trkpt lat="48.28834" lon="-3.90433">
        <ele>189.3</ele>
        <time>2022-05-28T15:20:27Z</time>
      </trkpt>
      <trkpt lat="48.28868" lon="-3.90466">
        <ele>191.2</ele>
        <time>2022-05-28T15:20:39Z</time>
      </trkpt>
      <trkpt lat="48.28873" lon="-3.90471">
        <ele>191.4</ele>
        <time>2022-05-28T15:20:41Z</time>
      </trkpt>
      <trkpt lat="48.2888" lon="-3.90482">
        <ele>191.7</ele>
        <time>2022-05-28T15:20:45Z</time>
      </trkpt>
      <trkpt lat="48.28908" lon="-3.9052">
        <ele>190.1</ele>
        <time>2022-05-28T15:20:59Z</time>
      </trkpt>
      <trkpt lat="48.28926" lon="-3.90547">
        <ele>189.5</ele>
        <time>2022-05-28T15:21:03Z</time>
      </trkpt>
      <trkpt lat="48.28945" lon="-3.90575">
        <ele>187.5</ele>
        <time>2022-05-28T15:21:07Z</time>
      </trkpt>
      <trkpt lat="48.28955" lon="-3.90598">
        <ele>186.4</ele>
        <time>2022-05-28T15:21:09Z</time>
      </trkpt>
      <trkpt lat="48.28972" lon="-3.90633">
        <ele>184.1</ele>
        <time>2022-05-28T15:21:12Z</time>
      </trkpt>
      <trkpt lat="48.28986" lon="-3.9066">
        <ele>182.6</ele>
        <time>2022-05-28T15:21:14Z</time>
      </trkpt>
      <trkpt lat="48.28995" lon="-3.90671">
        <ele>181.8</ele>
        <time>2022-05-28T15:21:15Z</time>
      </trkpt>
      <trkpt lat="48.29023" lon="-3.90704">
        <ele>179.5</ele>
        <time>2022-05-28T15:21:18Z</time>
      </trkpt>
      <trkpt lat="48.29049" lon="-3.90733">
        <ele>177.4</ele>
        <time>2022-05-28T15:21:21Z</time>
      </trkpt>
      <trkpt lat="48.29066" lon="-3.90752">
        <ele>177.8</ele>
        <time>2022-05-28T15:21:23Z</time>
      </trkpt>
      <trkpt lat="48.29102" lon="-3.90798">
        <ele>178.9</ele>
        <time>2022-05-28T15:21:29Z</time>
      </trkpt>
      <trkpt lat="48.29118" lon="-3.90816">
        <ele>179.7</ele>
        <time>2022-05-28T15:21:33Z</time>
      </trkpt>
      <trkpt lat="48.29137" lon="-3.90839">
        <ele>181.4</ele>
        <time>2022-05-28T15:21:38Z</time>
      </trkpt>
      <trkpt lat="48.29158" lon="-3.90855">
        <ele>183.7</ele>
        <time>2022-05-28T15:21:45Z</time>
      </trkpt>
      <trkpt lat="48.2918" lon="-3.90871">
        <ele>185.5</ele>
        <time>2022-05-28T15:21:52Z</time>
      </trkpt>
      <trkpt lat="48.29194" lon="-3.90882">
        <ele>186.8</ele>
        <time>2022-05-28T15:21:57Z</time>
      </trkpt>
      <trkpt lat="48.29221" lon="-3.90904">
        <ele>189.5</ele>
        <time>2022-05-28T15:22:07Z</time>
      </trkpt>
      <trkpt lat="48.29226" lon="-3.9091">
        <ele>190.1</ele>
        <time>2022-05-28T15:22:09Z</time>
      </trkpt>
      <trkpt lat="48.29237" lon="-3.90927">
        <ele>191.2</ele>
        <time>2022-05-28T15:22:14Z</time>
      </trkpt>
      <trkpt lat="48.29255" lon="-3.90955">
        <ele>192.8</ele>
        <time>2022-05-28T15:22:22Z</time>
      </trkpt>
      <trkpt lat="48.29267" lon="-3.90988">
        <ele>194.2</ele>
        <time>2022-05-28T15:22:29Z</time>
      </trkpt>
      <trkpt lat="48.29275" lon="-3.91012">
        <ele>194.4</ele>
        <time>2022-05-28T15:22:34Z</time>
      </trkpt>
      <trkpt lat="48.29277" lon="-3.91017">
        <ele>194.6</ele>
        <time>2022-05-28T15:22:35Z</time>
      </trkpt>
      <trkpt lat="48.29297" lon="-3.91062">
        <ele>195.8</ele>
        <time>2022-05-28T15:22:44Z</time>
      </trkpt>
      <trkpt lat="48.29304" lon="-3.91076">
        <ele>196</ele>
        <time>2022-05-28T15:22:47Z</time>
      </trkpt>
      <trkpt lat="48.29313" lon="-3.91087">
        <ele>196.3</ele>
        <time>2022-05-28T15:22:50Z</time>
      </trkpt>
      <trkpt lat="48.2933" lon="-3.91108">
        <ele>197.2</ele>
        <time>2022-05-28T15:22:56Z</time>
      </trkpt>
      <trkpt lat="48.29339" lon="-3.91119">
        <ele>197.6</ele>
        <time>2022-05-28T15:22:59Z</time>
      </trkpt>
      <trkpt lat="48.29379" lon="-3.91159">
        <ele>199</ele>
        <time>2022-05-28T15:23:11Z</time>
      </trkpt>
      <trkpt lat="48.29387" lon="-3.91166">
        <ele>199.3</ele>
        <time>2022-05-28T15:23:14Z</time>
      </trkpt>
      <trkpt lat="48.29402" lon="-3.91179">
        <ele>199.5</ele>
        <time>2022-05-28T15:23:20Z</time>
      </trkpt>
      <trkpt lat="48.29449" lon="-3.91086">
        <ele>200.8</ele>
        <time>2022-05-28T15:23:30Z</time>
      </trkpt>
      <trkpt lat="48.29449" lon="-3.91086">
        <ele>200.8</ele>
        <time>2022-05-28T15:24:00Z</time>
      </trkpt>
      <trkpt lat="48.2947" lon="-3.91051">
        <ele>201.6</ele>
        <time>2022-05-28T15:24:06Z</time>
      </trkpt>
      <trkpt lat="48.29482" lon="-3.91029">
        <ele>201.8</ele>
        <time>2022-05-28T15:24:11Z</time>
      </trkpt>
      <trkpt lat="48.29487" lon="-3.91017">
        <ele>201.9</ele>
        <time>2022-05-28T15:24:14Z</time>
      </trkpt>
      <trkpt lat="48.29496" lon="-3.90997">
        <ele>202.1</ele>
        <time>2022-05-28T15:24:19Z</time>
      </trkpt>
      <trkpt lat="48.29507" lon="-3.90973">
        <ele>203</ele>
        <time>2022-05-28T15:24:25Z</time>
      </trkpt>
      <trkpt lat="48.29518" lon="-3.90954">
        <ele>203.6</ele>
        <time>2022-05-28T15:24:30Z</time>
      </trkpt>
      <trkpt lat="48.29537" lon="-3.9092">
        <ele>204.9</ele>
        <time>2022-05-28T15:24:39Z</time>
      </trkpt>
      <trkpt lat="48.29554" lon="-3.90887">
        <ele>206</ele>
        <time>2022-05-28T15:24:47Z</time>
      </trkpt>
      <trkpt lat="48.29566" lon="-3.90862">
        <ele>206.8</ele>
        <time>2022-05-28T15:24:53Z</time>
      </trkpt>
      <trkpt lat="48.29593" lon="-3.90811">
        <ele>208.2</ele>
        <time>2022-05-28T15:25:05Z</time>
      </trkpt>
      <trkpt lat="48.29596" lon="-3.90807">
        <ele>208.4</ele>
        <time>2022-05-28T15:25:06Z</time>
      </trkpt>
      <trkpt lat="48.29616" lon="-3.90768">
        <ele>209.6</ele>
        <time>2022-05-28T15:25:15Z</time>
      </trkpt>
      <trkpt lat="48.29633" lon="-3.90731">
        <ele>210.7</ele>
        <time>2022-05-28T15:25:23Z</time>
      </trkpt>
      <trkpt lat="48.29647" lon="-3.90712">
        <ele>211.4</ele>
        <time>2022-05-28T15:25:28Z</time>
      </trkpt>
      <trkpt lat="48.2965" lon="-3.90708">
        <ele>211.5</ele>
        <time>2022-05-28T15:25:29Z</time>
      </trkpt>
      <trkpt lat="48.2966" lon="-3.90687">
        <ele>212.1</ele>
        <time>2022-05-28T15:25:34Z</time>
      </trkpt>
      <trkpt lat="48.29689" lon="-3.9063">
        <ele>213.8</ele>
        <time>2022-05-28T15:25:48Z</time>
      </trkpt>
      <trkpt lat="48.297" lon="-3.90609">
        <ele>214.4</ele>
        <time>2022-05-28T15:25:53Z</time>
      </trkpt>
      <trkpt lat="48.29717" lon="-3.90575">
        <ele>215.4</ele>
        <time>2022-05-28T15:26:01Z</time>
      </trkpt>
      <trkpt lat="48.29736" lon="-3.90528">
        <ele>216.7</ele>
        <time>2022-05-28T15:26:11Z</time>
      </trkpt>
      <trkpt lat="48.29742" lon="-3.90514">
        <ele>217</ele>
        <time>2022-05-28T15:26:14Z</time>
      </trkpt>
      <trkpt lat="48.29748" lon="-3.905">
        <ele>217.4</ele>
        <time>2022-05-28T15:26:17Z</time>
      </trkpt>
      <trkpt lat="48.29759" lon="-3.90471">
        <ele>218.3</ele>
        <time>2022-05-28T15:26:23Z</time>
      </trkpt>
      <trkpt lat="48.29763" lon="-3.90461">
        <ele>218.5</ele>
        <time>2022-05-28T15:26:25Z</time>
      </trkpt>
      <trkpt lat="48.2977" lon="-3.90442">
        <ele>219</ele>
        <time>2022-05-28T15:26:29Z</time>
      </trkpt>
      <trkpt lat="48.29785" lon="-3.90402">
        <ele>220.3</ele>
        <time>2022-05-28T15:26:37Z</time>
      </trkpt>
      <trkpt lat="48.29789" lon="-3.90392">
        <ele>220.6</ele>
        <time>2022-05-28T15:26:39Z</time>
      </trkpt>
      <trkpt lat="48.29808" lon="-3.90339">
        <ele>221.4</ele>
        <time>2022-05-28T15:26:49Z</time>
      </trkpt>
      <trkpt lat="48.29813" lon="-3.90328">
        <ele>221.6</ele>
        <time>2022-05-28T15:26:51Z</time>
      </trkpt>
      <trkpt lat="48.29832" lon="-3.90277">
        <ele>222.9</ele>
        <time>2022-05-28T15:27:00Z</time>
      </trkpt>
      <trkpt lat="48.29839" lon="-3.90259">
        <ele>223.4</ele>
        <time>2022-05-28T15:27:03Z</time>
      </trkpt>
      <trkpt lat="48.29853" lon="-3.90225">
        <ele>223.6</ele>
        <time>2022-05-28T15:27:09Z</time>
      </trkpt>
      <trkpt lat="48.29876" lon="-3.90162">
        <ele>223.2</ele>
        <time>2022-05-28T15:27:20Z</time>
      </trkpt>
      <trkpt lat="48.299" lon="-3.901">
        <ele>222.7</ele>
        <time>2022-05-28T15:27:31Z</time>
      </trkpt>
      <trkpt lat="48.29924" lon="-3.90037">
        <ele>222.4</ele>
        <time>2022-05-28T15:27:41Z</time>
      </trkpt>
      <trkpt lat="48.29949" lon="-3.89979">
        <ele>222</ele>
        <time>2022-05-28T15:27:51Z</time>
      </trkpt>
      <trkpt lat="48.29962" lon="-3.89956">
        <ele>221.8</ele>
        <time>2022-05-28T15:27:56Z</time>
      </trkpt>
      <trkpt lat="48.29991" lon="-3.89903">
        <ele>221.4</ele>
        <time>2022-05-28T15:28:07Z</time>
      </trkpt>
      <trkpt lat="48.30021" lon="-3.89847">
        <ele>221.1</ele>
        <time>2022-05-28T15:28:16Z</time>
      </trkpt>
      <trkpt lat="48.30052" lon="-3.89796">
        <ele>220.7</ele>
        <time>2022-05-28T15:28:25Z</time>
      </trkpt>
      <trkpt lat="48.30083" lon="-3.89745">
        <ele>220.4</ele>
        <time>2022-05-28T15:28:34Z</time>
      </trkpt>
      <trkpt lat="48.30106" lon="-3.89709">
        <ele>220.1</ele>
        <time>2022-05-28T15:28:41Z</time>
      </trkpt>
      <trkpt lat="48.30121" lon="-3.89684">
        <ele>219.9</ele>
        <time>2022-05-28T15:28:47Z</time>
      </trkpt>
      <trkpt lat="48.30129" lon="-3.89684">
        <ele>219.9</ele>
        <time>2022-05-28T15:28:48Z</time>
      </trkpt>
      <trkpt lat="48.30157" lon="-3.89639">
        <ele>219.5</ele>
        <time>2022-05-28T15:28:56Z</time>
      </trkpt>
      <trkpt lat="48.3016" lon="-3.89633">
        <ele>219.3</ele>
        <time>2022-05-28T15:28:57Z</time>
      </trkpt>
      <trkpt lat="48.30176" lon="-3.89603">
        <ele>217.9</ele>
        <time>2022-05-28T15:29:02Z</time>
      </trkpt>
      <trkpt lat="48.30181" lon="-3.89593">
        <ele>217</ele>
        <time>2022-05-28T15:29:04Z</time>
      </trkpt>
      <trkpt lat="48.30184" lon="-3.89589">
        <ele>215.6</ele>
        <time>2022-05-28T15:29:07Z</time>
      </trkpt>
      <trkpt lat="48.302" lon="-3.8961">
        <ele>213.8</ele>
        <time>2022-05-28T15:29:11Z</time>
      </trkpt>
      <trkpt lat="48.30214" lon="-3.8958">
        <ele>212.4</ele>
        <time>2022-05-28T15:29:14Z</time>
      </trkpt>
      <trkpt lat="48.30224" lon="-3.8956">
        <ele>211.3</ele>
        <time>2022-05-28T15:29:16Z</time>
      </trkpt>
      <trkpt lat="48.30231" lon="-3.89554">
        <ele>210.8</ele>
        <time>2022-05-28T15:29:17Z</time>
      </trkpt>
      <trkpt lat="48.3026" lon="-3.89545">
        <ele>209</ele>
        <time>2022-05-28T15:29:20Z</time>
      </trkpt>
      <trkpt lat="48.30279" lon="-3.89538">
        <ele>207.4</ele>
        <time>2022-05-28T15:29:22Z</time>
      </trkpt>
      <trkpt lat="48.30309" lon="-3.89521">
        <ele>204.9</ele>
        <time>2022-05-28T15:29:25Z</time>
      </trkpt>
      <trkpt lat="48.30317" lon="-3.89512">
        <ele>204.2</ele>
        <time>2022-05-28T15:29:26Z</time>
      </trkpt>
      <trkpt lat="48.30347" lon="-3.89476">
        <ele>202</ele>
        <time>2022-05-28T15:29:30Z</time>
      </trkpt>
      <trkpt lat="48.30362" lon="-3.89454">
        <ele>200.8</ele>
        <time>2022-05-28T15:29:32Z</time>
      </trkpt>
      <trkpt lat="48.30377" lon="-3.8943">
        <ele>199.2</ele>
        <time>2022-05-28T15:29:34Z</time>
      </trkpt>
      <trkpt lat="48.30404" lon="-3.8937">
        <ele>195.7</ele>
        <time>2022-05-28T15:29:38Z</time>
      </trkpt>
      <trkpt lat="48.30436" lon="-3.89305">
        <ele>189.9</ele>
        <time>2022-05-28T15:29:42Z</time>
      </trkpt>
      <trkpt lat="48.30461" lon="-3.89286">
        <ele>187.3</ele>
        <time>2022-05-28T15:29:44Z</time>
      </trkpt>
      <trkpt lat="48.30498" lon="-3.89272">
        <ele>185.7</ele>
        <time>2022-05-28T15:29:47Z</time>
      </trkpt>
      <trkpt lat="48.30532" lon="-3.89266">
        <ele>183.9</ele>
        <time>2022-05-28T15:29:50Z</time>
      </trkpt>
      <trkpt lat="48.30544" lon="-3.89264">
        <ele>183.1</ele>
        <time>2022-05-28T15:29:51Z</time>
      </trkpt>
      <trkpt lat="48.30579" lon="-3.89261">
        <ele>180.8</ele>
        <time>2022-05-28T15:29:54Z</time>
      </trkpt>
      <trkpt lat="48.30603" lon="-3.89271">
        <ele>179.3</ele>
        <time>2022-05-28T15:29:56Z</time>
      </trkpt>
      <trkpt lat="48.30615" lon="-3.8928">
        <ele>178.5</ele>
        <time>2022-05-28T15:29:57Z</time>
      </trkpt>
      <trkpt lat="48.30655" lon="-3.89329">
        <ele>175.4</ele>
        <time>2022-05-28T15:30:01Z</time>
      </trkpt>
      <trkpt lat="48.30664" lon="-3.89343">
        <ele>174.6</ele>
        <time>2022-05-28T15:30:02Z</time>
      </trkpt>
      <trkpt lat="48.30691" lon="-3.89384">
        <ele>172</ele>
        <time>2022-05-28T15:30:05Z</time>
      </trkpt>
      <trkpt lat="48.30715" lon="-3.89431">
        <ele>169.6</ele>
        <time>2022-05-28T15:30:08Z</time>
      </trkpt>
      <trkpt lat="48.30722" lon="-3.89447">
        <ele>169.2</ele>
        <time>2022-05-28T15:30:09Z</time>
      </trkpt>
      <trkpt lat="48.30746" lon="-3.89511">
        <ele>167.3</ele>
        <time>2022-05-28T15:30:13Z</time>
      </trkpt>
      <trkpt lat="48.30767" lon="-3.89569">
        <ele>165.5</ele>
        <time>2022-05-28T15:30:17Z</time>
      </trkpt>
      <trkpt lat="48.30785" lon="-3.89606">
        <ele>164.3</ele>
        <time>2022-05-28T15:30:20Z</time>
      </trkpt>
      <trkpt lat="48.30824" lon="-3.89652">
        <ele>164.3</ele>
        <time>2022-05-28T15:30:25Z</time>
      </trkpt>
      <trkpt lat="48.30864" lon="-3.89686">
        <ele>164.4</ele>
        <time>2022-05-28T15:30:32Z</time>
      </trkpt>
      <trkpt lat="48.30883" lon="-3.89688">
        <ele>166.2</ele>
        <time>2022-05-28T15:30:37Z</time>
      </trkpt>
      <trkpt lat="48.3091" lon="-3.89692">
        <ele>167.8</ele>
        <time>2022-05-28T15:30:44Z</time>
      </trkpt>
      <trkpt lat="48.30924" lon="-3.8969">
        <ele>169</ele>
        <time>2022-05-28T15:30:49Z</time>
      </trkpt>
      <trkpt lat="48.3094" lon="-3.89689">
        <ele>171.1</ele>
        <time>2022-05-28T15:30:55Z</time>
      </trkpt>
      <trkpt lat="48.30951" lon="-3.89688">
        <ele>171.8</ele>
        <time>2022-05-28T15:30:59Z</time>
      </trkpt>
      <trkpt lat="48.30959" lon="-3.89684">
        <ele>172.4</ele>
        <time>2022-05-28T15:31:03Z</time>
      </trkpt>
      <trkpt lat="48.3096" lon="-3.89671">
        <ele>172.6</ele>
        <time>2022-05-28T15:31:04Z</time>
      </trkpt>
      <trkpt lat="48.30966" lon="-3.89658">
        <ele>173</ele>
        <time>2022-05-28T15:31:07Z</time>
      </trkpt>
      <trkpt lat="48.30979" lon="-3.89631">
        <ele>172.8</ele>
        <time>2022-05-28T15:31:13Z</time>
      </trkpt>
      <trkpt lat="48.30988" lon="-3.89612">
        <ele>173</ele>
        <time>2022-05-28T15:31:17Z</time>
      </trkpt>
      <trkpt lat="48.30997" lon="-3.89597">
        <ele>173.1</ele>
        <time>2022-05-28T15:31:20Z</time>
      </trkpt>
      <trkpt lat="48.31005" lon="-3.89578">
        <ele>173.3</ele>
        <time>2022-05-28T15:31:23Z</time>
      </trkpt>
      <trkpt lat="48.31009" lon="-3.89573">
        <ele>173.3</ele>
        <time>2022-05-28T15:31:24Z</time>
      </trkpt>
      <trkpt lat="48.3102" lon="-3.89548">
        <ele>173.5</ele>
        <time>2022-05-28T15:31:28Z</time>
      </trkpt>
      <trkpt lat="48.31048" lon="-3.89493">
        <ele>173.8</ele>
        <time>2022-05-28T15:31:37Z</time>
      </trkpt>
      <trkpt lat="48.31074" lon="-3.89433">
        <ele>174.2</ele>
        <time>2022-05-28T15:31:46Z</time>
      </trkpt>
      <trkpt lat="48.31102" lon="-3.8937">
        <ele>174.6</ele>
        <time>2022-05-28T15:31:55Z</time>
      </trkpt>
      <trkpt lat="48.31129" lon="-3.89308">
        <ele>174.9</ele>
        <time>2022-05-28T15:32:04Z</time>
      </trkpt>
      <trkpt lat="48.31155" lon="-3.89248">
        <ele>175.3</ele>
        <time>2022-05-28T15:32:13Z</time>
      </trkpt>
      <trkpt lat="48.31181" lon="-3.89186">
        <ele>175.7</ele>
        <time>2022-05-28T15:32:22Z</time>
      </trkpt>
      <trkpt lat="48.3121" lon="-3.89128">
        <ele>176</ele>
        <time>2022-05-28T15:32:31Z</time>
      </trkpt>
      <trkpt lat="48.31225" lon="-3.89095">
        <ele>176.3</ele>
        <time>2022-05-28T15:32:37Z</time>
      </trkpt>
      <trkpt lat="48.31236" lon="-3.89073">
        <ele>176.8</ele>
        <time>2022-05-28T15:32:41Z</time>
      </trkpt>
      <trkpt lat="48.31252" lon="-3.89042">
        <ele>177.5</ele>
        <time>2022-05-28T15:32:47Z</time>
      </trkpt>
      <trkpt lat="48.31255" lon="-3.89036">
        <ele>177.6</ele>
        <time>2022-05-28T15:32:48Z</time>
      </trkpt>
      <trkpt lat="48.31259" lon="-3.89031">
        <ele>177.8</ele>
        <time>2022-05-28T15:32:49Z</time>
      </trkpt>
      <trkpt lat="48.31271" lon="-3.89005">
        <ele>178.4</ele>
        <time>2022-05-28T15:32:54Z</time>
      </trkpt>
      <trkpt lat="48.31274" lon="-3.89001">
        <ele>178.5</ele>
        <time>2022-05-28T15:32:55Z</time>
      </trkpt>
      <trkpt lat="48.31278" lon="-3.88991">
        <ele>178.7</ele>
        <time>2022-05-28T15:32:57Z</time>
      </trkpt>
      <trkpt lat="48.31282" lon="-3.88982">
        <ele>179</ele>
        <time>2022-05-28T15:32:59Z</time>
      </trkpt>
      <trkpt lat="48.31285" lon="-3.88978">
        <ele>179.1</ele>
        <time>2022-05-28T15:33:00Z</time>
      </trkpt>
      <trkpt lat="48.31287" lon="-3.88975">
        <ele>179.4</ele>
        <time>2022-05-28T15:33:01Z</time>
      </trkpt>
      <trkpt lat="48.31314" lon="-3.88917">
        <ele>183.3</ele>
        <time>2022-05-28T15:33:17Z</time>
      </trkpt>
      <trkpt lat="48.31315" lon="-3.88913">
        <ele>183.6</ele>
        <time>2022-05-28T15:33:18Z</time>
      </trkpt>
      <trkpt lat="48.31339" lon="-3.88858">
        <ele>188.1</ele>
        <time>2022-05-28T15:33:36Z</time>
      </trkpt>
      <trkpt lat="48.31346" lon="-3.88816">
        <ele>190.9</ele>
        <time>2022-05-28T15:33:48Z</time>
      </trkpt>
      <trkpt lat="48.3135" lon="-3.88791">
        <ele>192.4</ele>
        <time>2022-05-28T15:33:55Z</time>
      </trkpt>
      <trkpt lat="48.31353" lon="-3.88749">
        <ele>194.6</ele>
        <time>2022-05-28T15:34:06Z</time>
      </trkpt>
      <trkpt lat="48.31355" lon="-3.88722">
        <ele>195.8</ele>
        <time>2022-05-28T15:34:13Z</time>
      </trkpt>
      <trkpt lat="48.31357" lon="-3.88674">
        <ele>197.7</ele>
        <time>2022-05-28T15:34:24Z</time>
      </trkpt>
      <trkpt lat="48.31358" lon="-3.88652">
        <ele>198.9</ele>
        <time>2022-05-28T15:34:29Z</time>
      </trkpt>
      <trkpt lat="48.31364" lon="-3.88622">
        <ele>200.5</ele>
        <time>2022-05-28T15:34:36Z</time>
      </trkpt>
      <trkpt lat="48.31371" lon="-3.88598">
        <ele>201.9</ele>
        <time>2022-05-28T15:34:42Z</time>
      </trkpt>
      <trkpt lat="48.31382" lon="-3.88558">
        <ele>204.1</ele>
        <time>2022-05-28T15:34:52Z</time>
      </trkpt>
      <trkpt lat="48.31385" lon="-3.88546">
        <ele>204.7</ele>
        <time>2022-05-28T15:34:55Z</time>
      </trkpt>
      <trkpt lat="48.31386" lon="-3.88542">
        <ele>205</ele>
        <time>2022-05-28T15:34:56Z</time>
      </trkpt>
      <trkpt lat="48.31389" lon="-3.88534">
        <ele>205.4</ele>
        <time>2022-05-28T15:34:58Z</time>
      </trkpt>
      <trkpt lat="48.3139" lon="-3.88531">
        <ele>205.6</ele>
        <time>2022-05-28T15:34:59Z</time>
      </trkpt>
      <trkpt lat="48.31405" lon="-3.88468">
        <ele>208.4</ele>
        <time>2022-05-28T15:35:15Z</time>
      </trkpt>
      <trkpt lat="48.31407" lon="-3.88461">
        <ele>208.8</ele>
        <time>2022-05-28T15:35:17Z</time>
      </trkpt>
      <trkpt lat="48.31417" lon="-3.88427">
        <ele>210.8</ele>
        <time>2022-05-28T15:35:27Z</time>
      </trkpt>
      <trkpt lat="48.31437" lon="-3.88432">
        <ele>211.9</ele>
        <time>2022-05-28T15:35:32Z</time>
      </trkpt>
      <trkpt lat="48.31442" lon="-3.8843">
        <ele>212.3</ele>
        <time>2022-05-28T15:35:34Z</time>
      </trkpt>
      <trkpt lat="48.31444" lon="-3.8843">
        <ele>212.5</ele>
        <time>2022-05-28T15:35:35Z</time>
      </trkpt>
      <trkpt lat="48.31464" lon="-3.88432">
        <ele>215</ele>
        <time>2022-05-28T15:35:45Z</time>
      </trkpt>
      <trkpt lat="48.31469" lon="-3.8843">
        <ele>215.6</ele>
        <time>2022-05-28T15:35:47Z</time>
      </trkpt>
      <trkpt lat="48.31496" lon="-3.88431">
        <ele>218.5</ele>
        <time>2022-05-28T15:35:59Z</time>
      </trkpt>
      <trkpt lat="48.3151" lon="-3.88431">
        <ele>219.6</ele>
        <time>2022-05-28T15:36:05Z</time>
      </trkpt>
      <trkpt lat="48.31515" lon="-3.88432">
        <ele>220.2</ele>
        <time>2022-05-28T15:36:07Z</time>
      </trkpt>
      <trkpt lat="48.31535" lon="-3.88431">
        <ele>222.9</ele>
        <time>2022-05-28T15:36:17Z</time>
      </trkpt>
      <trkpt lat="48.31559" lon="-3.8843">
        <ele>225.9</ele>
        <time>2022-05-28T15:36:29Z</time>
      </trkpt>
      <trkpt lat="48.31561" lon="-3.8843">
        <ele>226.2</ele>
        <time>2022-05-28T15:36:30Z</time>
      </trkpt>
      <trkpt lat="48.31569" lon="-3.8843">
        <ele>227.8</ele>
        <time>2022-05-28T15:36:35Z</time>
      </trkpt>
      <trkpt lat="48.31587" lon="-3.88429">
        <ele>231</ele>
        <time>2022-05-28T15:36:47Z</time>
      </trkpt>
      <trkpt lat="48.31606" lon="-3.88429">
        <ele>234.3</ele>
        <time>2022-05-28T15:36:59Z</time>
      </trkpt>
      <trkpt lat="48.31617" lon="-3.88432">
        <ele>235.3</ele>
        <time>2022-05-28T15:37:05Z</time>
      </trkpt>
      <trkpt lat="48.31647" lon="-3.8844">
        <ele>239.2</ele>
        <time>2022-05-28T15:37:22Z</time>
      </trkpt>
      <trkpt lat="48.31653" lon="-3.88441">
        <ele>240.2</ele>
        <time>2022-05-28T15:37:25Z</time>
      </trkpt>
      <trkpt lat="48.31659" lon="-3.88443">
        <ele>241.2</ele>
        <time>2022-05-28T15:37:28Z</time>
      </trkpt>
      <trkpt lat="48.31682" lon="-3.88452">
        <ele>244.1</ele>
        <time>2022-05-28T15:37:40Z</time>
      </trkpt>
      <trkpt lat="48.31694" lon="-3.88456">
        <ele>245.7</ele>
        <time>2022-05-28T15:37:46Z</time>
      </trkpt>
      <trkpt lat="48.31699" lon="-3.88457">
        <ele>246.1</ele>
        <time>2022-05-28T15:37:48Z</time>
      </trkpt>
      <trkpt lat="48.3171" lon="-3.88457">
        <ele>246.9</ele>
        <time>2022-05-28T15:37:52Z</time>
      </trkpt>
      <trkpt lat="48.31745" lon="-3.88457">
        <ele>248.4</ele>
        <time>2022-05-28T15:38:04Z</time>
      </trkpt>
      <trkpt lat="48.31763" lon="-3.8846">
        <ele>249.1</ele>
        <time>2022-05-28T15:38:10Z</time>
      </trkpt>
      <trkpt lat="48.31765" lon="-3.88459">
        <ele>249.1</ele>
        <time>2022-05-28T15:38:11Z</time>
      </trkpt>
      <trkpt lat="48.3178" lon="-3.88394">
        <ele>249.6</ele>
        <time>2022-05-28T15:38:36Z</time>
      </trkpt>
      <trkpt lat="48.3178" lon="-3.88394">
        <ele>249.6</ele>
        <time>2022-05-28T15:38:58Z</time>
      </trkpt>
      <trkpt lat="48.31779" lon="-3.88407">
        <ele>250.3</ele>
        <time>2022-05-28T15:39:22Z</time>
      </trkpt>
      <trkpt lat="48.31779" lon="-3.88407">
        <ele>250.3</ele>
        <time>2022-05-28T15:39:50Z</time>
      </trkpt>
      <trkpt lat="48.31778" lon="-3.88422">
        <ele>250.6</ele>
        <time>2022-05-28T15:39:55Z</time>
      </trkpt>
      <trkpt lat="48.31774" lon="-3.88416">
        <ele>250.6</ele>
        <time>2022-05-28T15:39:56Z</time>
      </trkpt>
      <trkpt lat="48.31779" lon="-3.88347">
        <ele>251</ele>
        <time>2022-05-28T15:40:23Z</time>
      </trkpt>
      <trkpt lat="48.31786" lon="-3.88275">
        <ele>251.2</ele>
        <time>2022-05-28T15:40:39Z</time>
      </trkpt>
      <trkpt lat="48.31793" lon="-3.88203">
        <ele>251.4</ele>
        <time>2022-05-28T15:40:51Z</time>
      </trkpt>
      <trkpt lat="48.31804" lon="-3.88132">
        <ele>251.6</ele>
        <time>2022-05-28T15:41:01Z</time>
      </trkpt>
      <trkpt lat="48.31811" lon="-3.88065">
        <ele>251.7</ele>
        <time>2022-05-28T15:41:10Z</time>
      </trkpt>
      <trkpt lat="48.31813" lon="-3.87995">
        <ele>251.8</ele>
        <time>2022-05-28T15:41:20Z</time>
      </trkpt>
      <trkpt lat="48.31815" lon="-3.87957">
        <ele>251.9</ele>
        <time>2022-05-28T15:41:26Z</time>
      </trkpt>
      <trkpt lat="48.31814" lon="-3.87889">
        <ele>252.1</ele>
        <time>2022-05-28T15:41:37Z</time>
      </trkpt>
      <trkpt lat="48.31816" lon="-3.87872">
        <ele>252.1</ele>
        <time>2022-05-28T15:41:40Z</time>
      </trkpt>
      <trkpt lat="48.3182" lon="-3.87805">
        <ele>252.3</ele>
        <time>2022-05-28T15:41:53Z</time>
      </trkpt>
      <trkpt lat="48.31821" lon="-3.878">
        <ele>252.3</ele>
        <time>2022-05-28T15:41:54Z</time>
      </trkpt>
      <trkpt lat="48.31818" lon="-3.8778">
        <ele>252.4</ele>
        <time>2022-05-28T15:41:58Z</time>
      </trkpt>
      <trkpt lat="48.31822" lon="-3.87744">
        <ele>252.5</ele>
        <time>2022-05-28T15:42:05Z</time>
      </trkpt>
      <trkpt lat="48.31823" lon="-3.87734">
        <ele>252.5</ele>
        <time>2022-05-28T15:42:07Z</time>
      </trkpt>
      <trkpt lat="48.31828" lon="-3.87694">
        <ele>252.7</ele>
        <time>2022-05-28T15:42:15Z</time>
      </trkpt>
      <trkpt lat="48.31825" lon="-3.87622">
        <ele>253</ele>
        <time>2022-05-28T15:42:29Z</time>
      </trkpt>
      <trkpt lat="48.3182" lon="-3.87549">
        <ele>253.3</ele>
        <time>2022-05-28T15:42:41Z</time>
      </trkpt>
      <trkpt lat="48.31823" lon="-3.87487">
        <ele>253.5</ele>
        <time>2022-05-28T15:42:49Z</time>
      </trkpt>
      <trkpt lat="48.31829" lon="-3.87414">
        <ele>253.7</ele>
        <time>2022-05-28T15:42:58Z</time>
      </trkpt>
      <trkpt lat="48.31838" lon="-3.87347">
        <ele>254</ele>
        <time>2022-05-28T15:43:08Z</time>
      </trkpt>
      <trkpt lat="48.31849" lon="-3.87308">
        <ele>254.3</ele>
        <time>2022-05-28T15:43:17Z</time>
      </trkpt>
      <trkpt lat="48.31857" lon="-3.87288">
        <ele>255.5</ele>
        <time>2022-05-28T15:43:22Z</time>
      </trkpt>
      <trkpt lat="48.31862" lon="-3.87289">
        <ele>255.8</ele>
        <time>2022-05-28T15:43:23Z</time>
      </trkpt>
      <trkpt lat="48.31888" lon="-3.87295">
        <ele>256.7</ele>
        <time>2022-05-28T15:43:28Z</time>
      </trkpt>
      <trkpt lat="48.31902" lon="-3.87299">
        <ele>257.2</ele>
        <time>2022-05-28T15:43:31Z</time>
      </trkpt>
      <trkpt lat="48.31948" lon="-3.87309">
        <ele>260.1</ele>
        <time>2022-05-28T15:43:46Z</time>
      </trkpt>
      <trkpt lat="48.31966" lon="-3.87308">
        <ele>261.2</ele>
        <time>2022-05-28T15:43:52Z</time>
      </trkpt>
      <trkpt lat="48.31987" lon="-3.87306">
        <ele>262.7</ele>
        <time>2022-05-28T15:43:59Z</time>
      </trkpt>
      <trkpt lat="48.31994" lon="-3.87297">
        <ele>263.3</ele>
        <time>2022-05-28T15:44:02Z</time>
      </trkpt>
      <trkpt lat="48.32001" lon="-3.87266">
        <ele>264.9</ele>
        <time>2022-05-28T15:44:10Z</time>
      </trkpt>
      <trkpt lat="48.31999" lon="-3.87214">
        <ele>266.2</ele>
        <time>2022-05-28T15:44:22Z</time>
      </trkpt>
      <trkpt lat="48.31999" lon="-3.87196">
        <ele>266.5</ele>
        <time>2022-05-28T15:44:26Z</time>
      </trkpt>
      <trkpt lat="48.32006" lon="-3.87128">
        <ele>267.4</ele>
        <time>2022-05-28T15:44:41Z</time>
      </trkpt>
      <trkpt lat="48.32018" lon="-3.87079">
        <ele>268.2</ele>
        <time>2022-05-28T15:44:52Z</time>
      </trkpt>
      <trkpt lat="48.32022" lon="-3.87062">
        <ele>269</ele>
        <time>2022-05-28T15:44:56Z</time>
      </trkpt>
      <trkpt lat="48.32026" lon="-3.87003">
        <ele>272.2</ele>
        <time>2022-05-28T15:45:10Z</time>
      </trkpt>
      <trkpt lat="48.32027" lon="-3.86994">
        <ele>272.7</ele>
        <time>2022-05-28T15:45:12Z</time>
      </trkpt>
      <trkpt lat="48.32034" lon="-3.86955">
        <ele>275</ele>
        <time>2022-05-28T15:45:21Z</time>
      </trkpt>
      <trkpt lat="48.32039" lon="-3.86929">
        <ele>275.5</ele>
        <time>2022-05-28T15:45:27Z</time>
      </trkpt>
      <trkpt lat="48.3204" lon="-3.86926">
        <ele>275.6</ele>
        <time>2022-05-28T15:45:28Z</time>
      </trkpt>
      <trkpt lat="48.32048" lon="-3.86913">
        <ele>275.9</ele>
        <time>2022-05-28T15:45:33Z</time>
      </trkpt>
      <trkpt lat="48.32072" lon="-3.86873">
        <ele>274.8</ele>
        <time>2022-05-28T15:45:49Z</time>
      </trkpt>
      <trkpt lat="48.3211" lon="-3.86829">
        <ele>273.8</ele>
        <time>2022-05-28T15:46:03Z</time>
      </trkpt>
      <trkpt lat="48.32131" lon="-3.86803">
        <ele>273.5</ele>
        <time>2022-05-28T15:46:09Z</time>
      </trkpt>
      <trkpt lat="48.32145" lon="-3.86785">
        <ele>273.7</ele>
        <time>2022-05-28T15:46:13Z</time>
      </trkpt>
      <trkpt lat="48.3218" lon="-3.86741">
        <ele>274.3</ele>
        <time>2022-05-28T15:46:24Z</time>
      </trkpt>
      <trkpt lat="48.32217" lon="-3.86695">
        <ele>274.8</ele>
        <time>2022-05-28T15:46:35Z</time>
      </trkpt>
      <trkpt lat="48.32241" lon="-3.86638">
        <ele>275.4</ele>
        <time>2022-05-28T15:46:45Z</time>
      </trkpt>
      <trkpt lat="48.32262" lon="-3.86591">
        <ele>275.8</ele>
        <time>2022-05-28T15:46:54Z</time>
      </trkpt>
      <trkpt lat="48.32279" lon="-3.86565">
        <ele>276.3</ele>
        <time>2022-05-28T15:47:03Z</time>
      </trkpt>
      <trkpt lat="48.32295" lon="-3.86542">
        <ele>278</ele>
        <time>2022-05-28T15:47:11Z</time>
      </trkpt>
      <trkpt lat="48.32314" lon="-3.86517">
        <ele>280.2</ele>
        <time>2022-05-28T15:47:21Z</time>
      </trkpt>
      <trkpt lat="48.32329" lon="-3.86497">
        <ele>282.2</ele>
        <time>2022-05-28T15:47:29Z</time>
      </trkpt>
      <trkpt lat="48.32334" lon="-3.8649">
        <ele>282.9</ele>
        <time>2022-05-28T15:47:32Z</time>
      </trkpt>
      <trkpt lat="48.32343" lon="-3.86476">
        <ele>284.3</ele>
        <time>2022-05-28T15:47:38Z</time>
      </trkpt>
      <trkpt lat="48.32362" lon="-3.86448">
        <ele>287.1</ele>
        <time>2022-05-28T15:47:50Z</time>
      </trkpt>
      <trkpt lat="48.32373" lon="-3.86443">
        <ele>288.4</ele>
        <time>2022-05-28T15:47:56Z</time>
      </trkpt>
      <trkpt lat="48.32406" lon="-3.86426">
        <ele>291.9</ele>
        <time>2022-05-28T15:48:14Z</time>
      </trkpt>
      <trkpt lat="48.32437" lon="-3.86395">
        <ele>296</ele>
        <time>2022-05-28T15:48:32Z</time>
      </trkpt>
      <trkpt lat="48.32445" lon="-3.86389">
        <ele>297</ele>
        <time>2022-05-28T15:48:36Z</time>
      </trkpt>
      <trkpt lat="48.32462" lon="-3.86385">
        <ele>299</ele>
        <time>2022-05-28T15:48:44Z</time>
      </trkpt>
      <trkpt lat="48.32476" lon="-3.86383">
        <ele>300.2</ele>
        <time>2022-05-28T15:48:50Z</time>
      </trkpt>
      <trkpt lat="48.32489" lon="-3.8638">
        <ele>302.2</ele>
        <time>2022-05-28T15:48:56Z</time>
      </trkpt>
      <trkpt lat="48.32491" lon="-3.8638">
        <ele>302.4</ele>
        <time>2022-05-28T15:48:57Z</time>
      </trkpt>
      <trkpt lat="48.32492" lon="-3.86382">
        <ele>302.6</ele>
        <time>2022-05-28T15:48:58Z</time>
      </trkpt>
      <trkpt lat="48.32506" lon="-3.864">
        <ele>304.9</ele>
        <time>2022-05-28T15:49:08Z</time>
      </trkpt>
      <trkpt lat="48.32526" lon="-3.86426">
        <ele>307.8</ele>
        <time>2022-05-28T15:49:22Z</time>
      </trkpt>
      <trkpt lat="48.32531" lon="-3.86436">
        <ele>308.7</ele>
        <time>2022-05-28T15:49:26Z</time>
      </trkpt>
      <trkpt lat="48.32553" lon="-3.86481">
        <ele>312.5</ele>
        <time>2022-05-28T15:49:43Z</time>
      </trkpt>
      <trkpt lat="48.32554" lon="-3.86484">
        <ele>312.7</ele>
        <time>2022-05-28T15:49:44Z</time>
      </trkpt>
      <trkpt lat="48.32576" lon="-3.86513">
        <ele>317</ele>
        <time>2022-05-28T15:50:01Z</time>
      </trkpt>
      <trkpt lat="48.32579" lon="-3.86516">
        <ele>317.4</ele>
        <time>2022-05-28T15:50:03Z</time>
      </trkpt>
      <trkpt lat="48.32611" lon="-3.86531">
        <ele>319.5</ele>
        <time>2022-05-28T15:50:13Z</time>
      </trkpt>
      <trkpt lat="48.32624" lon="-3.86537">
        <ele>320.2</ele>
        <time>2022-05-28T15:50:17Z</time>
      </trkpt>
      <trkpt lat="48.32664" lon="-3.86575">
        <ele>323.3</ele>
        <time>2022-05-28T15:50:35Z</time>
      </trkpt>
      <trkpt lat="48.32667" lon="-3.86581">
        <ele>323.6</ele>
        <time>2022-05-28T15:50:37Z</time>
      </trkpt>
      <trkpt lat="48.32691" lon="-3.86633">
        <ele>326.7</ele>
        <time>2022-05-28T15:50:53Z</time>
      </trkpt>
      <trkpt lat="48.32693" lon="-3.8664">
        <ele>327.1</ele>
        <time>2022-05-28T15:50:55Z</time>
      </trkpt>
      <trkpt lat="48.32712" lon="-3.86695">
        <ele>330.1</ele>
        <time>2022-05-28T15:51:10Z</time>
      </trkpt>
      <trkpt lat="48.32717" lon="-3.86701">
        <ele>330.7</ele>
        <time>2022-05-28T15:51:13Z</time>
      </trkpt>
      <trkpt lat="48.32734" lon="-3.86722">
        <ele>332.6</ele>
        <time>2022-05-28T15:51:23Z</time>
      </trkpt>
      <trkpt lat="48.32755" lon="-3.86728">
        <ele>334.2</ele>
        <time>2022-05-28T15:51:31Z</time>
      </trkpt>
      <trkpt lat="48.32779" lon="-3.86735">
        <ele>336.3</ele>
        <time>2022-05-28T15:51:40Z</time>
      </trkpt>
      <trkpt lat="48.32798" lon="-3.86741">
        <ele>337.9</ele>
        <time>2022-05-28T15:51:47Z</time>
      </trkpt>
      <trkpt lat="48.32824" lon="-3.86748">
        <ele>338.9</ele>
        <time>2022-05-28T15:51:56Z</time>
      </trkpt>
      <trkpt lat="48.32829" lon="-3.8675">
        <ele>339</ele>
        <time>2022-05-28T15:51:58Z</time>
      </trkpt>
      <trkpt lat="48.3287" lon="-3.86767">
        <ele>338.9</ele>
        <time>2022-05-28T15:52:13Z</time>
      </trkpt>
      <trkpt lat="48.32914" lon="-3.86792">
        <ele>338.6</ele>
        <time>2022-05-28T15:52:40Z</time>
      </trkpt>
      <trkpt lat="48.32914" lon="-3.86792">
        <ele>338.6</ele>
        <time>2022-05-28T15:53:01Z</time>
      </trkpt>
      <trkpt lat="48.329" lon="-3.86784">
        <ele>338.1</ele>
        <time>2022-05-28T15:53:33Z</time>
      </trkpt>
      <trkpt lat="48.329" lon="-3.86784">
        <ele>338.1</ele>
        <time>2022-05-28T15:54:02Z</time>
      </trkpt>
      <trkpt lat="48.32884" lon="-3.86775">
        <ele>337.9</ele>
        <time>2022-05-28T15:54:05Z</time>
      </trkpt>
      <trkpt lat="48.32887" lon="-3.86778">
        <ele>337.9</ele>
        <time>2022-05-28T15:54:06Z</time>
      </trkpt>
      <trkpt lat="48.329" lon="-3.86783">
        <ele>337.8</ele>
        <time>2022-05-28T15:54:10Z</time>
      </trkpt>
      <trkpt lat="48.32947" lon="-3.8681">
        <ele>337.7</ele>
        <time>2022-05-28T15:54:22Z</time>
      </trkpt>
      <trkpt lat="48.32993" lon="-3.86834">
        <ele>337.6</ele>
        <time>2022-05-28T15:54:31Z</time>
      </trkpt>
      <trkpt lat="48.3304" lon="-3.86852">
        <ele>337.6</ele>
        <time>2022-05-28T15:54:39Z</time>
      </trkpt>
      <trkpt lat="48.33087" lon="-3.86866">
        <ele>337.5</ele>
        <time>2022-05-28T15:54:48Z</time>
      </trkpt>
      <trkpt lat="48.33134" lon="-3.86882">
        <ele>337.4</ele>
        <time>2022-05-28T15:54:58Z</time>
      </trkpt>
      <trkpt lat="48.33182" lon="-3.86906">
        <ele>337.3</ele>
        <time>2022-05-28T15:55:08Z</time>
      </trkpt>
      <trkpt lat="48.33225" lon="-3.86931">
        <ele>337.2</ele>
        <time>2022-05-28T15:55:17Z</time>
      </trkpt>
      <trkpt lat="48.33271" lon="-3.86954">
        <ele>337.1</ele>
        <time>2022-05-28T15:55:26Z</time>
      </trkpt>
      <trkpt lat="48.33317" lon="-3.86979">
        <ele>337</ele>
        <time>2022-05-28T15:55:35Z</time>
      </trkpt>
      <trkpt lat="48.33362" lon="-3.87004">
        <ele>337</ele>
        <time>2022-05-28T15:55:43Z</time>
      </trkpt>
      <trkpt lat="48.33406" lon="-3.87027">
        <ele>336.9</ele>
        <time>2022-05-28T15:55:51Z</time>
      </trkpt>
      <trkpt lat="48.33449" lon="-3.8705">
        <ele>336.8</ele>
        <time>2022-05-28T15:55:59Z</time>
      </trkpt>
      <trkpt lat="48.33496" lon="-3.87075">
        <ele>336.7</ele>
        <time>2022-05-28T15:56:07Z</time>
      </trkpt>
      <trkpt lat="48.33534" lon="-3.87095">
        <ele>336.7</ele>
        <time>2022-05-28T15:56:13Z</time>
      </trkpt>
      <trkpt lat="48.33555" lon="-3.87107">
        <ele>336.5</ele>
        <time>2022-05-28T15:56:16Z</time>
      </trkpt>
      <trkpt lat="48.33583" lon="-3.87122">
        <ele>335.1</ele>
        <time>2022-05-28T15:56:20Z</time>
      </trkpt>
      <trkpt lat="48.33599" lon="-3.87128">
        <ele>334.3</ele>
        <time>2022-05-28T15:56:22Z</time>
      </trkpt>
      <trkpt lat="48.33632" lon="-3.8714">
        <ele>332.3</ele>
        <time>2022-05-28T15:56:26Z</time>
      </trkpt>
      <trkpt lat="48.33651" lon="-3.87145">
        <ele>331.2</ele>
        <time>2022-05-28T15:56:28Z</time>
      </trkpt>
      <trkpt lat="48.33679" lon="-3.87153">
        <ele>329.1</ele>
        <time>2022-05-28T15:56:31Z</time>
      </trkpt>
      <trkpt lat="48.3371" lon="-3.87162">
        <ele>326.9</ele>
        <time>2022-05-28T15:56:34Z</time>
      </trkpt>
      <trkpt lat="48.33731" lon="-3.87169">
        <ele>325</ele>
        <time>2022-05-28T15:56:36Z</time>
      </trkpt>
      <trkpt lat="48.33777" lon="-3.87183">
        <ele>321</ele>
        <time>2022-05-28T15:56:40Z</time>
      </trkpt>
      <trkpt lat="48.33829" lon="-3.87198">
        <ele>315.9</ele>
        <time>2022-05-28T15:56:44Z</time>
      </trkpt>
      <trkpt lat="48.33855" lon="-3.87206">
        <ele>313.4</ele>
        <time>2022-05-28T15:56:46Z</time>
      </trkpt>
      <trkpt lat="48.33881" lon="-3.87214">
        <ele>311.2</ele>
        <time>2022-05-28T15:56:48Z</time>
      </trkpt>
      <trkpt lat="48.3393" lon="-3.8723">
        <ele>307</ele>
        <time>2022-05-28T15:56:52Z</time>
      </trkpt>
      <trkpt lat="48.33977" lon="-3.87244">
        <ele>304.7</ele>
        <time>2022-05-28T15:56:56Z</time>
      </trkpt>
      <trkpt lat="48.33999" lon="-3.8725">
        <ele>303.5</ele>
        <time>2022-05-28T15:56:58Z</time>
      </trkpt>
      <trkpt lat="48.34021" lon="-3.87257">
        <ele>302.4</ele>
        <time>2022-05-28T15:57:00Z</time>
      </trkpt>
      <trkpt lat="48.34073" lon="-3.87273">
        <ele>299.7</ele>
        <time>2022-05-28T15:57:05Z</time>
      </trkpt>
      <trkpt lat="48.34126" lon="-3.87288">
        <ele>297</ele>
        <time>2022-05-28T15:57:10Z</time>
      </trkpt>
      <trkpt lat="48.34177" lon="-3.87304">
        <ele>295</ele>
        <time>2022-05-28T15:57:15Z</time>
      </trkpt>
      <trkpt lat="48.34232" lon="-3.87316">
        <ele>293</ele>
        <time>2022-05-28T15:57:20Z</time>
      </trkpt>
      <trkpt lat="48.34253" lon="-3.87317">
        <ele>292.1</ele>
        <time>2022-05-28T15:57:22Z</time>
      </trkpt>
      <trkpt lat="48.34285" lon="-3.87318">
        <ele>290.5</ele>
        <time>2022-05-28T15:57:25Z</time>
      </trkpt>
      <trkpt lat="48.34318" lon="-3.87315">
        <ele>288.8</ele>
        <time>2022-05-28T15:57:28Z</time>
      </trkpt>
      <trkpt lat="48.34339" lon="-3.87313">
        <ele>287.7</ele>
        <time>2022-05-28T15:57:30Z</time>
      </trkpt>
      <trkpt lat="48.34382" lon="-3.87306">
        <ele>285.5</ele>
        <time>2022-05-28T15:57:34Z</time>
      </trkpt>
      <trkpt lat="48.34393" lon="-3.87305">
        <ele>285.2</ele>
        <time>2022-05-28T15:57:35Z</time>
      </trkpt>
      <trkpt lat="48.34447" lon="-3.87299">
        <ele>283.9</ele>
        <time>2022-05-28T15:57:40Z</time>
      </trkpt>
      <trkpt lat="48.34498" lon="-3.87293">
        <ele>282.6</ele>
        <time>2022-05-28T15:57:45Z</time>
      </trkpt>
      <trkpt lat="48.34507" lon="-3.87291">
        <ele>282.4</ele>
        <time>2022-05-28T15:57:46Z</time>
      </trkpt>
      <trkpt lat="48.34543" lon="-3.87285">
        <ele>282</ele>
        <time>2022-05-28T15:57:50Z</time>
      </trkpt>
      <trkpt lat="48.34592" lon="-3.87265">
        <ele>281.5</ele>
        <time>2022-05-28T15:57:56Z</time>
      </trkpt>
      <trkpt lat="48.346" lon="-3.87262">
        <ele>281.5</ele>
        <time>2022-05-28T15:57:57Z</time>
      </trkpt>
      <trkpt lat="48.34624" lon="-3.87254">
        <ele>281.7</ele>
        <time>2022-05-28T15:58:00Z</time>
      </trkpt>
      <trkpt lat="48.34631" lon="-3.87253">
        <ele>281.8</ele>
        <time>2022-05-28T15:58:01Z</time>
      </trkpt>
      <trkpt lat="48.34681" lon="-3.87233">
        <ele>282.4</ele>
        <time>2022-05-28T15:58:08Z</time>
      </trkpt>
      <trkpt lat="48.34728" lon="-3.87218">
        <ele>282.9</ele>
        <time>2022-05-28T15:58:15Z</time>
      </trkpt>
      <trkpt lat="48.34737" lon="-3.87208">
        <ele>283.1</ele>
        <time>2022-05-28T15:58:17Z</time>
      </trkpt>
      <trkpt lat="48.34738" lon="-3.87201">
        <ele>283.2</ele>
        <time>2022-05-28T15:58:18Z</time>
      </trkpt>
      <trkpt lat="48.34736" lon="-3.87193">
        <ele>283.3</ele>
        <time>2022-05-28T15:58:19Z</time>
      </trkpt>
      <trkpt lat="48.34736" lon="-3.87178">
        <ele>283.4</ele>
        <time>2022-05-28T15:58:21Z</time>
      </trkpt>
      <trkpt lat="48.34737" lon="-3.87139">
        <ele>283.4</ele>
        <time>2022-05-28T15:58:26Z</time>
      </trkpt>
      <trkpt lat="48.34739" lon="-3.87131">
        <ele>283.3</ele>
        <time>2022-05-28T15:58:27Z</time>
      </trkpt>
      <trkpt lat="48.34742" lon="-3.87124">
        <ele>283.2</ele>
        <time>2022-05-28T15:58:28Z</time>
      </trkpt>
      <trkpt lat="48.34764" lon="-3.87056">
        <ele>281.9</ele>
        <time>2022-05-28T15:58:37Z</time>
      </trkpt>
      <trkpt lat="48.34772" lon="-3.87041">
        <ele>281.6</ele>
        <time>2022-05-28T15:58:39Z</time>
      </trkpt>
      <trkpt lat="48.34795" lon="-3.86997">
        <ele>280</ele>
        <time>2022-05-28T15:58:45Z</time>
      </trkpt>
      <trkpt lat="48.34821" lon="-3.86961">
        <ele>278.8</ele>
        <time>2022-05-28T15:58:50Z</time>
      </trkpt>
      <trkpt lat="48.34827" lon="-3.86956">
        <ele>278.5</ele>
        <time>2022-05-28T15:58:51Z</time>
      </trkpt>
      <trkpt lat="48.34833" lon="-3.86952">
        <ele>278.3</ele>
        <time>2022-05-28T15:58:52Z</time>
      </trkpt>
      <trkpt lat="48.34853" lon="-3.86943">
        <ele>277.5</ele>
        <time>2022-05-28T15:58:55Z</time>
      </trkpt>
      <trkpt lat="48.34859" lon="-3.86938">
        <ele>277.3</ele>
        <time>2022-05-28T15:58:56Z</time>
      </trkpt>
      <trkpt lat="48.34872" lon="-3.86934">
        <ele>276.8</ele>
        <time>2022-05-28T15:58:58Z</time>
      </trkpt>
      <trkpt lat="48.34907" lon="-3.86919">
        <ele>275.6</ele>
        <time>2022-05-28T15:59:03Z</time>
      </trkpt>
      <trkpt lat="48.34921" lon="-3.86912">
        <ele>275.2</ele>
        <time>2022-05-28T15:59:05Z</time>
      </trkpt>
      <trkpt lat="48.34948" lon="-3.869">
        <ele>274.3</ele>
        <time>2022-05-28T15:59:09Z</time>
      </trkpt>
      <trkpt lat="48.34969" lon="-3.8689">
        <ele>273.5</ele>
        <time>2022-05-28T15:59:12Z</time>
      </trkpt>
      <trkpt lat="48.34992" lon="-3.86879">
        <ele>272.8</ele>
        <time>2022-05-28T15:59:15Z</time>
      </trkpt>
      <trkpt lat="48.35016" lon="-3.86869">
        <ele>272.6</ele>
        <time>2022-05-28T15:59:18Z</time>
      </trkpt>
      <trkpt lat="48.35061" lon="-3.86847">
        <ele>272.1</ele>
        <time>2022-05-28T15:59:24Z</time>
      </trkpt>
      <trkpt lat="48.35084" lon="-3.86837">
        <ele>271.8</ele>
        <time>2022-05-28T15:59:27Z</time>
      </trkpt>
      <trkpt lat="48.35107" lon="-3.86827">
        <ele>271.9</ele>
        <time>2022-05-28T15:59:30Z</time>
      </trkpt>
      <trkpt lat="48.35151" lon="-3.86808">
        <ele>272</ele>
        <time>2022-05-28T15:59:36Z</time>
      </trkpt>
      <trkpt lat="48.35198" lon="-3.86785">
        <ele>272.1</ele>
        <time>2022-05-28T15:59:43Z</time>
      </trkpt>
      <trkpt lat="48.35236" lon="-3.86769">
        <ele>272.2</ele>
        <time>2022-05-28T15:59:49Z</time>
      </trkpt>
      <trkpt lat="48.35278" lon="-3.86739">
        <ele>272.4</ele>
        <time>2022-05-28T15:59:56Z</time>
      </trkpt>
      <trkpt lat="48.35302" lon="-3.86704">
        <ele>272.5</ele>
        <time>2022-05-28T16:00:01Z</time>
      </trkpt>
      <trkpt lat="48.35302" lon="-3.86693">
        <ele>272.5</ele>
        <time>2022-05-28T16:00:02Z</time>
      </trkpt>
      <trkpt lat="48.35311" lon="-3.8666">
        <ele>272.5</ele>
        <time>2022-05-28T16:00:06Z</time>
      </trkpt>
      <trkpt lat="48.35308" lon="-3.86652">
        <ele>272.6</ele>
        <time>2022-05-28T16:00:07Z</time>
      </trkpt>
      <trkpt lat="48.35306" lon="-3.86582">
        <ele>272.7</ele>
        <time>2022-05-28T16:00:14Z</time>
      </trkpt>
      <trkpt lat="48.35309" lon="-3.86512">
        <ele>272.8</ele>
        <time>2022-05-28T16:00:21Z</time>
      </trkpt>
      <trkpt lat="48.35326" lon="-3.86442">
        <ele>273</ele>
        <time>2022-05-28T16:00:29Z</time>
      </trkpt>
      <trkpt lat="48.3538" lon="-3.86378">
        <ele>273.5</ele>
        <time>2022-05-28T16:00:40Z</time>
      </trkpt>
      <trkpt lat="48.3538" lon="-3.86378">
        <ele>273.5</ele>
        <time>2022-05-28T16:01:11Z</time>
      </trkpt>
      <trkpt lat="48.35409" lon="-3.86373">
        <ele>273.8</ele>
        <time>2022-05-28T16:01:17Z</time>
      </trkpt>
      <trkpt lat="48.35455" lon="-3.86381">
        <ele>274</ele>
        <time>2022-05-28T16:01:27Z</time>
      </trkpt>
      <trkpt lat="48.35505" lon="-3.86389">
        <ele>274.2</ele>
        <time>2022-05-28T16:01:36Z</time>
      </trkpt>
      <trkpt lat="48.35555" lon="-3.86399">
        <ele>274.3</ele>
        <time>2022-05-28T16:01:44Z</time>
      </trkpt>
      <trkpt lat="48.35604" lon="-3.86409">
        <ele>274.4</ele>
        <time>2022-05-28T16:01:52Z</time>
      </trkpt>
      <trkpt lat="48.35649" lon="-3.86431">
        <ele>274.6</ele>
        <time>2022-05-28T16:02:01Z</time>
      </trkpt>
      <trkpt lat="48.3569" lon="-3.86463">
        <ele>274.8</ele>
        <time>2022-05-28T16:02:10Z</time>
      </trkpt>
      <trkpt lat="48.35694" lon="-3.86467">
        <ele>274.8</ele>
        <time>2022-05-28T16:02:11Z</time>
      </trkpt>
      <trkpt lat="48.35732" lon="-3.865">
        <ele>275.7</ele>
        <time>2022-05-28T16:02:20Z</time>
      </trkpt>
      <trkpt lat="48.35774" lon="-3.86534">
        <ele>276.4</ele>
        <time>2022-05-28T16:02:29Z</time>
      </trkpt>
      <trkpt lat="48.35814" lon="-3.86567">
        <ele>275.2</ele>
        <time>2022-05-28T16:02:36Z</time>
      </trkpt>
      <trkpt lat="48.35847" lon="-3.86591">
        <ele>274.3</ele>
        <time>2022-05-28T16:02:41Z</time>
      </trkpt>
      <trkpt lat="48.35859" lon="-3.866">
        <ele>274.4</ele>
        <time>2022-05-28T16:02:43Z</time>
      </trkpt>
      <trkpt lat="48.35904" lon="-3.86626">
        <ele>274.8</ele>
        <time>2022-05-28T16:02:51Z</time>
      </trkpt>
      <trkpt lat="48.35914" lon="-3.86632">
        <ele>274.9</ele>
        <time>2022-05-28T16:02:53Z</time>
      </trkpt>
      <trkpt lat="48.35949" lon="-3.86651">
        <ele>275.4</ele>
        <time>2022-05-28T16:03:00Z</time>
      </trkpt>
      <trkpt lat="48.35992" lon="-3.86674">
        <ele>276.1</ele>
        <time>2022-05-28T16:03:10Z</time>
      </trkpt>
      <trkpt lat="48.36003" lon="-3.86675">
        <ele>276.3</ele>
        <time>2022-05-28T16:03:13Z</time>
      </trkpt>
      <trkpt lat="48.36026" lon="-3.86617">
        <ele>276.9</ele>
        <time>2022-05-28T16:03:21Z</time>
      </trkpt>
      <trkpt lat="48.36034" lon="-3.86603">
        <ele>277.1</ele>
        <time>2022-05-28T16:03:24Z</time>
      </trkpt>
      <trkpt lat="48.36057" lon="-3.86544">
        <ele>277.9</ele>
        <time>2022-05-28T16:03:34Z</time>
      </trkpt>
      <trkpt lat="48.3606" lon="-3.8654">
        <ele>278</ele>
        <time>2022-05-28T16:03:35Z</time>
      </trkpt>
      <trkpt lat="48.3609" lon="-3.86502">
        <ele>278.9</ele>
        <time>2022-05-28T16:03:44Z</time>
      </trkpt>
      <trkpt lat="48.36101" lon="-3.86497">
        <ele>279.3</ele>
        <time>2022-05-28T16:03:47Z</time>
      </trkpt>
      <trkpt lat="48.36123" lon="-3.86487">
        <ele>280.8</ele>
        <time>2022-05-28T16:03:53Z</time>
      </trkpt>
      <trkpt lat="48.36134" lon="-3.86483">
        <ele>281.7</ele>
        <time>2022-05-28T16:03:56Z</time>
      </trkpt>
      <trkpt lat="48.36144" lon="-3.86479">
        <ele>282.5</ele>
        <time>2022-05-28T16:03:59Z</time>
      </trkpt>
      <trkpt lat="48.36164" lon="-3.86472">
        <ele>283.7</ele>
        <time>2022-05-28T16:04:05Z</time>
      </trkpt>
      <trkpt lat="48.36208" lon="-3.86439">
        <ele>286.4</ele>
        <time>2022-05-28T16:04:16Z</time>
      </trkpt>
      <trkpt lat="48.36208" lon="-3.86439">
        <ele>286.4</ele>
        <time>2022-05-28T16:04:55Z</time>
      </trkpt>
      <trkpt lat="48.36239" lon="-3.86412">
        <ele>288.6</ele>
        <time>2022-05-28T16:04:57Z</time>
      </trkpt>
      <trkpt lat="48.36242" lon="-3.86409">
        <ele>288.8</ele>
        <time>2022-05-28T16:04:59Z</time>
      </trkpt>
      <trkpt lat="48.36243" lon="-3.86407">
        <ele>288.9</ele>
        <time>2022-05-28T16:05:00Z</time>
      </trkpt>
      <trkpt lat="48.36249" lon="-3.86401">
        <ele>289.7</ele>
        <time>2022-05-28T16:05:04Z</time>
      </trkpt>
      <trkpt lat="48.36259" lon="-3.86406">
        <ele>290.1</ele>
        <time>2022-05-28T16:05:06Z</time>
      </trkpt>
      <trkpt lat="48.36273" lon="-3.86415">
        <ele>290.8</ele>
        <time>2022-05-28T16:05:10Z</time>
      </trkpt>
      <trkpt lat="48.36307" lon="-3.86412">
        <ele>293</ele>
        <time>2022-05-28T16:05:22Z</time>
      </trkpt>
      <trkpt lat="48.36319" lon="-3.86412">
        <ele>293.9</ele>
        <time>2022-05-28T16:05:26Z</time>
      </trkpt>
      <trkpt lat="48.36324" lon="-3.86415">
        <ele>294.4</ele>
        <time>2022-05-28T16:05:28Z</time>
      </trkpt>
      <trkpt lat="48.36341" lon="-3.86423">
        <ele>295.8</ele>
        <time>2022-05-28T16:05:34Z</time>
      </trkpt>
      <trkpt lat="48.36343" lon="-3.86424">
        <ele>295.9</ele>
        <time>2022-05-28T16:05:35Z</time>
      </trkpt>
      <trkpt lat="48.36373" lon="-3.86433">
        <ele>297.3</ele>
        <time>2022-05-28T16:05:46Z</time>
      </trkpt>
      <trkpt lat="48.36384" lon="-3.86435">
        <ele>298</ele>
        <time>2022-05-28T16:05:50Z</time>
      </trkpt>
      <trkpt lat="48.36401" lon="-3.86389">
        <ele>300.3</ele>
        <time>2022-05-28T16:06:04Z</time>
      </trkpt>
      <trkpt lat="48.36406" lon="-3.86376">
        <ele>301.3</ele>
        <time>2022-05-28T16:06:08Z</time>
      </trkpt>
      <trkpt lat="48.36409" lon="-3.86346">
        <ele>303.4</ele>
        <time>2022-05-28T16:06:16Z</time>
      </trkpt>
      <trkpt lat="48.36411" lon="-3.86327">
        <ele>304.2</ele>
        <time>2022-05-28T16:06:21Z</time>
      </trkpt>
      <trkpt lat="48.36414" lon="-3.86305">
        <ele>304.8</ele>
        <time>2022-05-28T16:06:27Z</time>
      </trkpt>
      <trkpt lat="48.36422" lon="-3.86284">
        <ele>305.4</ele>
        <time>2022-05-28T16:06:33Z</time>
      </trkpt>
      <trkpt lat="48.36438" lon="-3.86244">
        <ele>304.6</ele>
        <time>2022-05-28T16:06:44Z</time>
      </trkpt>
      <trkpt lat="48.36444" lon="-3.86232">
        <ele>304.3</ele>
        <time>2022-05-28T16:06:47Z</time>
      </trkpt>
      <trkpt lat="48.36469" lon="-3.86172">
        <ele>303.4</ele>
        <time>2022-05-28T16:06:57Z</time>
      </trkpt>
      <trkpt lat="48.36477" lon="-3.86135">
        <ele>301.6</ele>
        <time>2022-05-28T16:07:01Z</time>
      </trkpt>
      <trkpt lat="48.36478" lon="-3.86109">
        <ele>300.6</ele>
        <time>2022-05-28T16:07:03Z</time>
      </trkpt>
      <trkpt lat="48.3648" lon="-3.86055">
        <ele>297.8</ele>
        <time>2022-05-28T16:07:07Z</time>
      </trkpt>
      <trkpt lat="48.36482" lon="-3.86023">
        <ele>296.3</ele>
        <time>2022-05-28T16:07:09Z</time>
      </trkpt>
      <trkpt lat="48.36503" lon="-3.85954">
        <ele>291.8</ele>
        <time>2022-05-28T16:07:14Z</time>
      </trkpt>
      <trkpt lat="48.3651" lon="-3.85945">
        <ele>291.1</ele>
        <time>2022-05-28T16:07:15Z</time>
      </trkpt>
      <trkpt lat="48.36526" lon="-3.85927">
        <ele>290.7</ele>
        <time>2022-05-28T16:07:17Z</time>
      </trkpt>
      <trkpt lat="48.36567" lon="-3.85891">
        <ele>289.3</ele>
        <time>2022-05-28T16:07:23Z</time>
      </trkpt>
      <trkpt lat="48.36593" lon="-3.85891">
        <ele>288.5</ele>
        <time>2022-05-28T16:07:27Z</time>
      </trkpt>
      <trkpt lat="48.36611" lon="-3.85901">
        <ele>288.9</ele>
        <time>2022-05-28T16:07:31Z</time>
      </trkpt>
      <trkpt lat="48.36619" lon="-3.85903">
        <ele>289.1</ele>
        <time>2022-05-28T16:07:33Z</time>
      </trkpt>
      <trkpt lat="48.36622" lon="-3.85906">
        <ele>289.3</ele>
        <time>2022-05-28T16:07:34Z</time>
      </trkpt>
      <trkpt lat="48.36638" lon="-3.85912">
        <ele>290.2</ele>
        <time>2022-05-28T16:07:39Z</time>
      </trkpt>
      <trkpt lat="48.36653" lon="-3.85921">
        <ele>290.3</ele>
        <time>2022-05-28T16:07:44Z</time>
      </trkpt>
      <trkpt lat="48.36654" lon="-3.85931">
        <ele>290.3</ele>
        <time>2022-05-28T16:07:45Z</time>
      </trkpt>
      <trkpt lat="48.36669" lon="-3.85963">
        <ele>289.5</ele>
        <time>2022-05-28T16:07:55Z</time>
      </trkpt>
      <trkpt lat="48.3667" lon="-3.85969">
        <ele>289.4</ele>
        <time>2022-05-28T16:07:56Z</time>
      </trkpt>
      <trkpt lat="48.36687" lon="-3.86027">
        <ele>288.7</ele>
        <time>2022-05-28T16:08:05Z</time>
      </trkpt>
      <trkpt lat="48.36691" lon="-3.86056">
        <ele>288.4</ele>
        <time>2022-05-28T16:08:08Z</time>
      </trkpt>
      <trkpt lat="48.36695" lon="-3.86065">
        <ele>288.3</ele>
        <time>2022-05-28T16:08:09Z</time>
      </trkpt>
      <trkpt lat="48.36717" lon="-3.86117">
        <ele>287.7</ele>
        <time>2022-05-28T16:08:15Z</time>
      </trkpt>
      <trkpt lat="48.36737" lon="-3.86151">
        <ele>287.1</ele>
        <time>2022-05-28T16:08:20Z</time>
      </trkpt>
      <trkpt lat="48.36765" lon="-3.86183">
        <ele>286.5</ele>
        <time>2022-05-28T16:08:26Z</time>
      </trkpt>
      <trkpt lat="48.36774" lon="-3.86193">
        <ele>286.9</ele>
        <time>2022-05-28T16:08:28Z</time>
      </trkpt>
      <trkpt lat="48.36803" lon="-3.86219">
        <ele>288.4</ele>
        <time>2022-05-28T16:08:36Z</time>
      </trkpt>
      <trkpt lat="48.36814" lon="-3.86228">
        <ele>288.9</ele>
        <time>2022-05-28T16:08:39Z</time>
      </trkpt>
      <trkpt lat="48.36858" lon="-3.86254">
        <ele>291.1</ele>
        <time>2022-05-28T16:08:51Z</time>
      </trkpt>
      <trkpt lat="48.36866" lon="-3.86259">
        <ele>291.5</ele>
        <time>2022-05-28T16:08:53Z</time>
      </trkpt>
      <trkpt lat="48.36872" lon="-3.86261">
        <ele>291.6</ele>
        <time>2022-05-28T16:08:54Z</time>
      </trkpt>
      <trkpt lat="48.36905" lon="-3.86271">
        <ele>291.1</ele>
        <time>2022-05-28T16:09:00Z</time>
      </trkpt>
      <trkpt lat="48.36916" lon="-3.86275">
        <ele>290.2</ele>
        <time>2022-05-28T16:09:02Z</time>
      </trkpt>
      <trkpt lat="48.36948" lon="-3.86291">
        <ele>288.6</ele>
        <time>2022-05-28T16:09:06Z</time>
      </trkpt>
      <trkpt lat="48.36964" lon="-3.863">
        <ele>287.5</ele>
        <time>2022-05-28T16:09:08Z</time>
      </trkpt>
      <trkpt lat="48.37" lon="-3.86322">
        <ele>285.4</ele>
        <time>2022-05-28T16:09:12Z</time>
      </trkpt>
      <trkpt lat="48.37009" lon="-3.86328">
        <ele>284.8</ele>
        <time>2022-05-28T16:09:13Z</time>
      </trkpt>
      <trkpt lat="48.37058" lon="-3.86361">
        <ele>281.7</ele>
        <time>2022-05-28T16:09:18Z</time>
      </trkpt>
      <trkpt lat="48.37109" lon="-3.8639">
        <ele>278.9</ele>
        <time>2022-05-28T16:09:23Z</time>
      </trkpt>
      <trkpt lat="48.37118" lon="-3.86394">
        <ele>278.5</ele>
        <time>2022-05-28T16:09:24Z</time>
      </trkpt>
      <trkpt lat="48.37153" lon="-3.86407">
        <ele>278.8</ele>
        <time>2022-05-28T16:09:28Z</time>
      </trkpt>
      <trkpt lat="48.372" lon="-3.86407">
        <ele>279.2</ele>
        <time>2022-05-28T16:09:35Z</time>
      </trkpt>
      <trkpt lat="48.37205" lon="-3.86405">
        <ele>279.4</ele>
        <time>2022-05-28T16:09:36Z</time>
      </trkpt>
      <trkpt lat="48.37214" lon="-3.86403">
        <ele>280.2</ele>
        <time>2022-05-28T16:09:38Z</time>
      </trkpt>
      <trkpt lat="48.37221" lon="-3.86399">
        <ele>281</ele>
        <time>2022-05-28T16:09:40Z</time>
      </trkpt>
      <trkpt lat="48.37224" lon="-3.86399">
        <ele>281.4</ele>
        <time>2022-05-28T16:09:41Z</time>
      </trkpt>
      <trkpt lat="48.37227" lon="-3.86396">
        <ele>281.7</ele>
        <time>2022-05-28T16:09:42Z</time>
      </trkpt>
      <trkpt lat="48.37264" lon="-3.86381">
        <ele>285.3</ele>
        <time>2022-05-28T16:09:54Z</time>
      </trkpt>
      <trkpt lat="48.37297" lon="-3.86368">
        <ele>288.9</ele>
        <time>2022-05-28T16:10:06Z</time>
      </trkpt>
      <trkpt lat="48.3731" lon="-3.86363">
        <ele>289.8</ele>
        <time>2022-05-28T16:10:11Z</time>
      </trkpt>
      <trkpt lat="48.37313" lon="-3.86363">
        <ele>290</ele>
        <time>2022-05-28T16:10:12Z</time>
      </trkpt>
      <trkpt lat="48.3732" lon="-3.86362">
        <ele>290.6</ele>
        <time>2022-05-28T16:10:15Z</time>
      </trkpt>
      <trkpt lat="48.37327" lon="-3.86358">
        <ele>291.3</ele>
        <time>2022-05-28T16:10:18Z</time>
      </trkpt>
      <trkpt lat="48.37355" lon="-3.86353">
        <ele>293.8</ele>
        <time>2022-05-28T16:10:29Z</time>
      </trkpt>
      <trkpt lat="48.37363" lon="-3.86352">
        <ele>294.4</ele>
        <time>2022-05-28T16:10:32Z</time>
      </trkpt>
      <trkpt lat="48.37396" lon="-3.86349">
        <ele>297.1</ele>
        <time>2022-05-28T16:10:45Z</time>
      </trkpt>
      <trkpt lat="48.37408" lon="-3.86347">
        <ele>298.2</ele>
        <time>2022-05-28T16:10:50Z</time>
      </trkpt>
      <trkpt lat="48.37443" lon="-3.86342">
        <ele>300.9</ele>
        <time>2022-05-28T16:11:03Z</time>
      </trkpt>
      <trkpt lat="48.37453" lon="-3.86341">
        <ele>301.5</ele>
        <time>2022-05-28T16:11:07Z</time>
      </trkpt>
      <trkpt lat="48.37484" lon="-3.86337">
        <ele>303.2</ele>
        <time>2022-05-28T16:11:18Z</time>
      </trkpt>
      <trkpt lat="48.37492" lon="-3.86334">
        <ele>303.6</ele>
        <time>2022-05-28T16:11:21Z</time>
      </trkpt>
      <trkpt lat="48.37509" lon="-3.8633">
        <ele>304.5</ele>
        <time>2022-05-28T16:11:27Z</time>
      </trkpt>
      <trkpt lat="48.37524" lon="-3.86327">
        <ele>305.6</ele>
        <time>2022-05-28T16:11:32Z</time>
      </trkpt>
      <trkpt lat="48.37558" lon="-3.86312">
        <ele>308.2</ele>
        <time>2022-05-28T16:11:45Z</time>
      </trkpt>
      <trkpt lat="48.37566" lon="-3.86307">
        <ele>308.6</ele>
        <time>2022-05-28T16:11:48Z</time>
      </trkpt>
      <trkpt lat="48.37589" lon="-3.86296">
        <ele>309.6</ele>
        <time>2022-05-28T16:11:56Z</time>
      </trkpt>
      <trkpt lat="48.37652" lon="-3.86262">
        <ele>310.1</ele>
        <time>2022-05-28T16:12:09Z</time>
      </trkpt>
      <trkpt lat="48.37652" lon="-3.86262">
        <ele>310.1</ele>
        <time>2022-05-28T16:18:56Z</time>
      </trkpt>
      <trkpt lat="48.37697" lon="-3.86241">
        <ele>309.9</ele>
        <time>2022-05-28T16:19:02Z</time>
      </trkpt>
      <trkpt lat="48.37745" lon="-3.86229">
        <ele>309.9</ele>
        <time>2022-05-28T16:19:14Z</time>
      </trkpt>
      <trkpt lat="48.37792" lon="-3.8622">
        <ele>309.8</ele>
        <time>2022-05-28T16:19:24Z</time>
      </trkpt>
      <trkpt lat="48.37833" lon="-3.86214">
        <ele>309.7</ele>
        <time>2022-05-28T16:19:32Z</time>
      </trkpt>
      <trkpt lat="48.37838" lon="-3.86213">
        <ele>309.5</ele>
        <time>2022-05-28T16:19:33Z</time>
      </trkpt>
      <trkpt lat="48.37887" lon="-3.86216">
        <ele>307.5</ele>
        <time>2022-05-28T16:19:40Z</time>
      </trkpt>
      <trkpt lat="48.3792" lon="-3.86217">
        <ele>306.4</ele>
        <time>2022-05-28T16:19:44Z</time>
      </trkpt>
      <trkpt lat="48.37936" lon="-3.86218">
        <ele>306.1</ele>
        <time>2022-05-28T16:19:46Z</time>
      </trkpt>
      <trkpt lat="48.37983" lon="-3.8622">
        <ele>305.3</ele>
        <time>2022-05-28T16:19:52Z</time>
      </trkpt>
      <trkpt lat="48.3801" lon="-3.86216">
        <ele>304.9</ele>
        <time>2022-05-28T16:19:56Z</time>
      </trkpt>
      <trkpt lat="48.3803" lon="-3.86212">
        <ele>305.2</ele>
        <time>2022-05-28T16:19:59Z</time>
      </trkpt>
      <trkpt lat="48.38073" lon="-3.86197">
        <ele>306.3</ele>
        <time>2022-05-28T16:20:08Z</time>
      </trkpt>
      <trkpt lat="48.38118" lon="-3.8617">
        <ele>307.7</ele>
        <time>2022-05-28T16:20:20Z</time>
      </trkpt>
      <trkpt lat="48.38136" lon="-3.86158">
        <ele>308.3</ele>
        <time>2022-05-28T16:20:26Z</time>
      </trkpt>
      <trkpt lat="48.38155" lon="-3.86146">
        <ele>309.2</ele>
        <time>2022-05-28T16:20:32Z</time>
      </trkpt>
      <trkpt lat="48.38161" lon="-3.86142">
        <ele>309.4</ele>
        <time>2022-05-28T16:20:34Z</time>
      </trkpt>
      <trkpt lat="48.38194" lon="-3.86124">
        <ele>310.4</ele>
        <time>2022-05-28T16:20:44Z</time>
      </trkpt>
      <trkpt lat="48.38208" lon="-3.86116">
        <ele>310</ele>
        <time>2022-05-28T16:20:48Z</time>
      </trkpt>
      <trkpt lat="48.3825" lon="-3.8609">
        <ele>309.2</ele>
        <time>2022-05-28T16:20:57Z</time>
      </trkpt>
      <trkpt lat="48.38294" lon="-3.86087">
        <ele>308.5</ele>
        <time>2022-05-28T16:21:05Z</time>
      </trkpt>
      <trkpt lat="48.38337" lon="-3.86095">
        <ele>307.9</ele>
        <time>2022-05-28T16:21:12Z</time>
      </trkpt>
      <trkpt lat="48.38343" lon="-3.86097">
        <ele>307.7</ele>
        <time>2022-05-28T16:21:13Z</time>
      </trkpt>
      <trkpt lat="48.38368" lon="-3.86103">
        <ele>306.8</ele>
        <time>2022-05-28T16:21:17Z</time>
      </trkpt>
      <trkpt lat="48.38392" lon="-3.86128">
        <ele>306</ele>
        <time>2022-05-28T16:21:21Z</time>
      </trkpt>
      <trkpt lat="48.38415" lon="-3.86153">
        <ele>305.2</ele>
        <time>2022-05-28T16:21:25Z</time>
      </trkpt>
      <trkpt lat="48.38442" lon="-3.86159">
        <ele>304.4</ele>
        <time>2022-05-28T16:21:29Z</time>
      </trkpt>
      <trkpt lat="48.38462" lon="-3.86163">
        <ele>304</ele>
        <time>2022-05-28T16:21:32Z</time>
      </trkpt>
      <trkpt lat="48.38508" lon="-3.86166">
        <ele>303</ele>
        <time>2022-05-28T16:21:39Z</time>
      </trkpt>
      <trkpt lat="48.38523" lon="-3.86162">
        <ele>302.8</ele>
        <time>2022-05-28T16:21:41Z</time>
      </trkpt>
      <trkpt lat="48.38542" lon="-3.86141">
        <ele>302.4</ele>
        <time>2022-05-28T16:21:44Z</time>
      </trkpt>
      <trkpt lat="48.38551" lon="-3.86111">
        <ele>302</ele>
        <time>2022-05-28T16:21:47Z</time>
      </trkpt>
      <trkpt lat="48.38563" lon="-3.86071">
        <ele>302.4</ele>
        <time>2022-05-28T16:21:51Z</time>
      </trkpt>
      <trkpt lat="48.38586" lon="-3.86005">
        <ele>303</ele>
        <time>2022-05-28T16:21:59Z</time>
      </trkpt>
      <trkpt lat="48.38616" lon="-3.85947">
        <ele>303.7</ele>
        <time>2022-05-28T16:22:07Z</time>
      </trkpt>
      <trkpt lat="48.38638" lon="-3.85888">
        <ele>304.3</ele>
        <time>2022-05-28T16:22:14Z</time>
      </trkpt>
      <trkpt lat="48.38661" lon="-3.85829">
        <ele>304.8</ele>
        <time>2022-05-28T16:22:21Z</time>
      </trkpt>
      <trkpt lat="48.38698" lon="-3.85791">
        <ele>305.5</ele>
        <time>2022-05-28T16:22:29Z</time>
      </trkpt>
      <trkpt lat="48.38725" lon="-3.85781">
        <ele>306</ele>
        <time>2022-05-28T16:22:35Z</time>
      </trkpt>
      <trkpt lat="48.38744" lon="-3.85773">
        <ele>306.5</ele>
        <time>2022-05-28T16:22:39Z</time>
      </trkpt>
      <trkpt lat="48.3879" lon="-3.85758">
        <ele>307.9</ele>
        <time>2022-05-28T16:22:49Z</time>
      </trkpt>
      <trkpt lat="48.3881" lon="-3.85755">
        <ele>308.3</ele>
        <time>2022-05-28T16:22:53Z</time>
      </trkpt>
      <trkpt lat="48.38835" lon="-3.85752">
        <ele>307.9</ele>
        <time>2022-05-28T16:22:58Z</time>
      </trkpt>
      <trkpt lat="48.38862" lon="-3.8576">
        <ele>307.5</ele>
        <time>2022-05-28T16:23:03Z</time>
      </trkpt>
      <trkpt lat="48.38897" lon="-3.85811">
        <ele>306.8</ele>
        <time>2022-05-28T16:23:12Z</time>
      </trkpt>
      <trkpt lat="48.38907" lon="-3.85824">
        <ele>306.6</ele>
        <time>2022-05-28T16:23:15Z</time>
      </trkpt>
      <trkpt lat="48.38915" lon="-3.85822">
        <ele>306.4</ele>
        <time>2022-05-28T16:23:17Z</time>
      </trkpt>
      <trkpt lat="48.38951" lon="-3.85775">
        <ele>305.1</ele>
        <time>2022-05-28T16:23:30Z</time>
      </trkpt>
      <trkpt lat="48.38959" lon="-3.85764">
        <ele>304.9</ele>
        <time>2022-05-28T16:23:33Z</time>
      </trkpt>
      <trkpt lat="48.38986" lon="-3.8573">
        <ele>306.6</ele>
        <time>2022-05-28T16:23:43Z</time>
      </trkpt>
      <trkpt lat="48.38992" lon="-3.85724">
        <ele>307</ele>
        <time>2022-05-28T16:23:45Z</time>
      </trkpt>
      <trkpt lat="48.39026" lon="-3.85691">
        <ele>308.8</ele>
        <time>2022-05-28T16:23:56Z</time>
      </trkpt>
      <trkpt lat="48.3907" lon="-3.85662">
        <ele>311</ele>
        <time>2022-05-28T16:24:09Z</time>
      </trkpt>
      <trkpt lat="48.3908" lon="-3.85656">
        <ele>311.5</ele>
        <time>2022-05-28T16:24:13Z</time>
      </trkpt>
      <trkpt lat="48.39077" lon="-3.85636">
        <ele>312.4</ele>
        <time>2022-05-28T16:24:19Z</time>
      </trkpt>
      <trkpt lat="48.39081" lon="-3.85631">
        <ele>312.7</ele>
        <time>2022-05-28T16:24:21Z</time>
      </trkpt>
      <trkpt lat="48.39102" lon="-3.85597">
        <ele>314.2</ele>
        <time>2022-05-28T16:24:33Z</time>
      </trkpt>
      <trkpt lat="48.39109" lon="-3.85586">
        <ele>314.3</ele>
        <time>2022-05-28T16:24:37Z</time>
      </trkpt>
      <trkpt lat="48.39111" lon="-3.85578">
        <ele>314.4</ele>
        <time>2022-05-28T16:24:39Z</time>
      </trkpt>
      <trkpt lat="48.39135" lon="-3.85471">
        <ele>318.6</ele>
        <time>2022-05-28T16:24:59Z</time>
      </trkpt>
      <trkpt lat="48.39135" lon="-3.85471">
        <ele>318.6</ele>
        <time>2022-05-28T16:27:12Z</time>
      </trkpt>
      <trkpt lat="48.39145" lon="-3.85413">
        <ele>320.2</ele>
        <time>2022-05-28T16:27:14Z</time>
      </trkpt>
      <trkpt lat="48.3915" lon="-3.85404">
        <ele>320.3</ele>
        <time>2022-05-28T16:27:16Z</time>
      </trkpt>
      <trkpt lat="48.39146" lon="-3.85376">
        <ele>320.6</ele>
        <time>2022-05-28T16:27:21Z</time>
      </trkpt>
      <trkpt lat="48.39146" lon="-3.85365">
        <ele>320.7</ele>
        <time>2022-05-28T16:27:23Z</time>
      </trkpt>
      <trkpt lat="48.39174" lon="-3.8533">
        <ele>321.3</ele>
        <time>2022-05-28T16:27:31Z</time>
      </trkpt>
      <trkpt lat="48.39188" lon="-3.8528">
        <ele>321.8</ele>
        <time>2022-05-28T16:27:39Z</time>
      </trkpt>
      <trkpt lat="48.39191" lon="-3.85268">
        <ele>322.3</ele>
        <time>2022-05-28T16:27:41Z</time>
      </trkpt>
      <trkpt lat="48.39215" lon="-3.85209">
        <ele>324.5</ele>
        <time>2022-05-28T16:27:52Z</time>
      </trkpt>
      <trkpt lat="48.39225" lon="-3.85185">
        <ele>325.5</ele>
        <time>2022-05-28T16:27:57Z</time>
      </trkpt>
      <trkpt lat="48.3924" lon="-3.85147">
        <ele>327.3</ele>
        <time>2022-05-28T16:28:05Z</time>
      </trkpt>
      <trkpt lat="48.39255" lon="-3.85095">
        <ele>329.4</ele>
        <time>2022-05-28T16:28:15Z</time>
      </trkpt>
      <trkpt lat="48.39258" lon="-3.85083">
        <ele>329.5</ele>
        <time>2022-05-28T16:28:17Z</time>
      </trkpt>
      <trkpt lat="48.39269" lon="-3.85015">
        <ele>329.9</ele>
        <time>2022-05-28T16:28:26Z</time>
      </trkpt>
      <trkpt lat="48.39272" lon="-3.85006">
        <ele>329.9</ele>
        <time>2022-05-28T16:28:27Z</time>
      </trkpt>
      <trkpt lat="48.39285" lon="-3.8495">
        <ele>328.2</ele>
        <time>2022-05-28T16:28:33Z</time>
      </trkpt>
      <trkpt lat="48.39308" lon="-3.84889">
        <ele>326.5</ele>
        <time>2022-05-28T16:28:39Z</time>
      </trkpt>
      <trkpt lat="48.39332" lon="-3.8482">
        <ele>324.5</ele>
        <time>2022-05-28T16:28:45Z</time>
      </trkpt>
      <trkpt lat="48.39335" lon="-3.84807">
        <ele>324.2</ele>
        <time>2022-05-28T16:28:46Z</time>
      </trkpt>
      <trkpt lat="48.39336" lon="-3.84792">
        <ele>323.9</ele>
        <time>2022-05-28T16:28:47Z</time>
      </trkpt>
      <trkpt lat="48.39352" lon="-3.84764">
        <ele>322.9</ele>
        <time>2022-05-28T16:28:50Z</time>
      </trkpt>
      <trkpt lat="48.39358" lon="-3.84756">
        <ele>322.6</ele>
        <time>2022-05-28T16:28:51Z</time>
      </trkpt>
      <trkpt lat="48.39386" lon="-3.8472">
        <ele>321.8</ele>
        <time>2022-05-28T16:28:56Z</time>
      </trkpt>
      <trkpt lat="48.3939" lon="-3.84718">
        <ele>321.6</ele>
        <time>2022-05-28T16:28:57Z</time>
      </trkpt>
      <trkpt lat="48.39393" lon="-3.84719">
        <ele>321.3</ele>
        <time>2022-05-28T16:28:58Z</time>
      </trkpt>
      <trkpt lat="48.39415" lon="-3.84776">
        <ele>319.7</ele>
        <time>2022-05-28T16:29:04Z</time>
      </trkpt>
      <trkpt lat="48.39438" lon="-3.84806">
        <ele>318.3</ele>
        <time>2022-05-28T16:29:09Z</time>
      </trkpt>
      <trkpt lat="48.39472" lon="-3.84839">
        <ele>316.7</ele>
        <time>2022-05-28T16:29:15Z</time>
      </trkpt>
      <trkpt lat="48.39479" lon="-3.84844">
        <ele>316.3</ele>
        <time>2022-05-28T16:29:16Z</time>
      </trkpt>
      <trkpt lat="48.39526" lon="-3.84877">
        <ele>314.4</ele>
        <time>2022-05-28T16:29:22Z</time>
      </trkpt>
      <trkpt lat="48.39555" lon="-3.84887">
        <ele>313.2</ele>
        <time>2022-05-28T16:29:26Z</time>
      </trkpt>
      <trkpt lat="48.39577" lon="-3.84894">
        <ele>313.4</ele>
        <time>2022-05-28T16:29:29Z</time>
      </trkpt>
      <trkpt lat="48.39591" lon="-3.84899">
        <ele>313.5</ele>
        <time>2022-05-28T16:29:31Z</time>
      </trkpt>
      <trkpt lat="48.39624" lon="-3.84909">
        <ele>314</ele>
        <time>2022-05-28T16:29:36Z</time>
      </trkpt>
      <trkpt lat="48.39671" lon="-3.84923">
        <ele>314.6</ele>
        <time>2022-05-28T16:29:43Z</time>
      </trkpt>
      <trkpt lat="48.39713" lon="-3.84934">
        <ele>315.3</ele>
        <time>2022-05-28T16:29:50Z</time>
      </trkpt>
      <trkpt lat="48.39719" lon="-3.84934">
        <ele>315.4</ele>
        <time>2022-05-28T16:29:51Z</time>
      </trkpt>
      <trkpt lat="48.39725" lon="-3.84935">
        <ele>315.5</ele>
        <time>2022-05-28T16:29:52Z</time>
      </trkpt>
      <trkpt lat="48.39744" lon="-3.84931">
        <ele>315.8</ele>
        <time>2022-05-28T16:29:55Z</time>
      </trkpt>
      <trkpt lat="48.39773" lon="-3.84912">
        <ele>316.3</ele>
        <time>2022-05-28T16:30:01Z</time>
      </trkpt>
      <trkpt lat="48.39788" lon="-3.84903">
        <ele>316.5</ele>
        <time>2022-05-28T16:30:04Z</time>
      </trkpt>
      <trkpt lat="48.39808" lon="-3.84893">
        <ele>316.6</ele>
        <time>2022-05-28T16:30:07Z</time>
      </trkpt>
      <trkpt lat="48.39836" lon="-3.84881">
        <ele>316.3</ele>
        <time>2022-05-28T16:30:11Z</time>
      </trkpt>
      <trkpt lat="48.39883" lon="-3.84861">
        <ele>315.7</ele>
        <time>2022-05-28T16:30:18Z</time>
      </trkpt>
      <trkpt lat="48.3993" lon="-3.84841">
        <ele>315.1</ele>
        <time>2022-05-28T16:30:25Z</time>
      </trkpt>
      <trkpt lat="48.39969" lon="-3.84827">
        <ele>314.6</ele>
        <time>2022-05-28T16:30:31Z</time>
      </trkpt>
      <trkpt lat="48.39976" lon="-3.84825">
        <ele>314.5</ele>
        <time>2022-05-28T16:30:32Z</time>
      </trkpt>
      <trkpt lat="48.40012" lon="-3.84815">
        <ele>314.3</ele>
        <time>2022-05-28T16:30:37Z</time>
      </trkpt>
      <trkpt lat="48.40026" lon="-3.84811">
        <ele>314</ele>
        <time>2022-05-28T16:30:39Z</time>
      </trkpt>
      <trkpt lat="48.40076" lon="-3.84797">
        <ele>313.1</ele>
        <time>2022-05-28T16:30:46Z</time>
      </trkpt>
      <trkpt lat="48.40097" lon="-3.8479">
        <ele>312.7</ele>
        <time>2022-05-28T16:30:49Z</time>
      </trkpt>
      <trkpt lat="48.40125" lon="-3.8478">
        <ele>312.1</ele>
        <time>2022-05-28T16:30:53Z</time>
      </trkpt>
      <trkpt lat="48.40144" lon="-3.84765">
        <ele>311.7</ele>
        <time>2022-05-28T16:30:56Z</time>
      </trkpt>
      <trkpt lat="48.40155" lon="-3.84708">
        <ele>310.9</ele>
        <time>2022-05-28T16:31:01Z</time>
      </trkpt>
      <trkpt lat="48.40157" lon="-3.84697">
        <ele>310.8</ele>
        <time>2022-05-28T16:31:02Z</time>
      </trkpt>
      <trkpt lat="48.40169" lon="-3.84641">
        <ele>310</ele>
        <time>2022-05-28T16:31:07Z</time>
      </trkpt>
      <trkpt lat="48.40171" lon="-3.84631">
        <ele>309.9</ele>
        <time>2022-05-28T16:31:08Z</time>
      </trkpt>
      <trkpt lat="48.40179" lon="-3.84589">
        <ele>309.6</ele>
        <time>2022-05-28T16:31:12Z</time>
      </trkpt>
      <trkpt lat="48.40184" lon="-3.84579">
        <ele>309.4</ele>
        <time>2022-05-28T16:31:13Z</time>
      </trkpt>
      <trkpt lat="48.40206" lon="-3.84529">
        <ele>307</ele>
        <time>2022-05-28T16:31:18Z</time>
      </trkpt>
      <trkpt lat="48.40236" lon="-3.84472">
        <ele>304.6</ele>
        <time>2022-05-28T16:31:23Z</time>
      </trkpt>
      <trkpt lat="48.40248" lon="-3.8445">
        <ele>303.5</ele>
        <time>2022-05-28T16:31:25Z</time>
      </trkpt>
      <trkpt lat="48.40255" lon="-3.84439">
        <ele>302.6</ele>
        <time>2022-05-28T16:31:26Z</time>
      </trkpt>
      <trkpt lat="48.40271" lon="-3.84423">
        <ele>300.8</ele>
        <time>2022-05-28T16:31:28Z</time>
      </trkpt>
      <trkpt lat="48.40292" lon="-3.84415">
        <ele>299.1</ele>
        <time>2022-05-28T16:31:30Z</time>
      </trkpt>
      <trkpt lat="48.40322" lon="-3.84403">
        <ele>297.1</ele>
        <time>2022-05-28T16:31:33Z</time>
      </trkpt>
      <trkpt lat="48.40342" lon="-3.84395">
        <ele>295.9</ele>
        <time>2022-05-28T16:31:35Z</time>
      </trkpt>
      <trkpt lat="48.40352" lon="-3.8439">
        <ele>295.6</ele>
        <time>2022-05-28T16:31:36Z</time>
      </trkpt>
      <trkpt lat="48.4037" lon="-3.84375">
        <ele>295</ele>
        <time>2022-05-28T16:31:38Z</time>
      </trkpt>
      <trkpt lat="48.40394" lon="-3.84349">
        <ele>294.1</ele>
        <time>2022-05-28T16:31:41Z</time>
      </trkpt>
      <trkpt lat="48.40432" lon="-3.84312">
        <ele>292.7</ele>
        <time>2022-05-28T16:31:46Z</time>
      </trkpt>
      <trkpt lat="48.40439" lon="-3.84305">
        <ele>292.4</ele>
        <time>2022-05-28T16:31:47Z</time>
      </trkpt>
      <trkpt lat="48.40471" lon="-3.84268">
        <ele>292.1</ele>
        <time>2022-05-28T16:31:52Z</time>
      </trkpt>
      <trkpt lat="48.40475" lon="-3.8426">
        <ele>292.1</ele>
        <time>2022-05-28T16:31:53Z</time>
      </trkpt>
      <trkpt lat="48.40489" lon="-3.84237">
        <ele>293.1</ele>
        <time>2022-05-28T16:31:56Z</time>
      </trkpt>
      <trkpt lat="48.40498" lon="-3.8422">
        <ele>294</ele>
        <time>2022-05-28T16:31:59Z</time>
      </trkpt>
      <trkpt lat="48.40514" lon="-3.84188">
        <ele>296.6</ele>
        <time>2022-05-28T16:32:05Z</time>
      </trkpt>
      <trkpt lat="48.40517" lon="-3.84183">
        <ele>297.1</ele>
        <time>2022-05-28T16:32:06Z</time>
      </trkpt>
      <trkpt lat="48.40526" lon="-3.84167">
        <ele>299.6</ele>
        <time>2022-05-28T16:32:11Z</time>
      </trkpt>
      <trkpt lat="48.40535" lon="-3.8415">
        <ele>301.1</ele>
        <time>2022-05-28T16:32:16Z</time>
      </trkpt>
      <trkpt lat="48.40549" lon="-3.8413">
        <ele>303.2</ele>
        <time>2022-05-28T16:32:23Z</time>
      </trkpt>
      <trkpt lat="48.40558" lon="-3.84116">
        <ele>304.6</ele>
        <time>2022-05-28T16:32:28Z</time>
      </trkpt>
      <trkpt lat="48.40566" lon="-3.84104">
        <ele>305.7</ele>
        <time>2022-05-28T16:32:32Z</time>
      </trkpt>
      <trkpt lat="48.40574" lon="-3.84097">
        <ele>306.5</ele>
        <time>2022-05-28T16:32:35Z</time>
      </trkpt>
      <trkpt lat="48.40589" lon="-3.84083">
        <ele>307.6</ele>
        <time>2022-05-28T16:32:41Z</time>
      </trkpt>
      <trkpt lat="48.40633" lon="-3.84063">
        <ele>309.9</ele>
        <time>2022-05-28T16:32:55Z</time>
      </trkpt>
      <trkpt lat="48.40644" lon="-3.84058">
        <ele>310.6</ele>
        <time>2022-05-28T16:32:59Z</time>
      </trkpt>
      <trkpt lat="48.40674" lon="-3.84042">
        <ele>312.3</ele>
        <time>2022-05-28T16:33:11Z</time>
      </trkpt>
      <trkpt lat="48.40677" lon="-3.84041">
        <ele>312.5</ele>
        <time>2022-05-28T16:33:12Z</time>
      </trkpt>
      <trkpt lat="48.40686" lon="-3.84038">
        <ele>313.3</ele>
        <time>2022-05-28T16:33:16Z</time>
      </trkpt>
      <trkpt lat="48.40721" lon="-3.84022">
        <ele>315.8</ele>
        <time>2022-05-28T16:33:29Z</time>
      </trkpt>
      <trkpt lat="48.40731" lon="-3.84017">
        <ele>316.7</ele>
        <time>2022-05-28T16:33:33Z</time>
      </trkpt>
      <trkpt lat="48.40737" lon="-3.84015">
        <ele>317.2</ele>
        <time>2022-05-28T16:33:35Z</time>
      </trkpt>
      <trkpt lat="48.40752" lon="-3.8401">
        <ele>318.1</ele>
        <time>2022-05-28T16:33:40Z</time>
      </trkpt>
      <trkpt lat="48.40778" lon="-3.84001">
        <ele>319.4</ele>
        <time>2022-05-28T16:33:49Z</time>
      </trkpt>
      <trkpt lat="48.40802" lon="-3.83994">
        <ele>320.6</ele>
        <time>2022-05-28T16:33:57Z</time>
      </trkpt>
      <trkpt lat="48.4082" lon="-3.83988">
        <ele>321.2</ele>
        <time>2022-05-28T16:34:03Z</time>
      </trkpt>
      <trkpt lat="48.40823" lon="-3.83986">
        <ele>321.3</ele>
        <time>2022-05-28T16:34:04Z</time>
      </trkpt>
      <trkpt lat="48.4083" lon="-3.83981">
        <ele>321.5</ele>
        <time>2022-05-28T16:34:06Z</time>
      </trkpt>
      <trkpt lat="48.40833" lon="-3.8398">
        <ele>321.6</ele>
        <time>2022-05-28T16:34:07Z</time>
      </trkpt>
      <trkpt lat="48.40837" lon="-3.83974">
        <ele>321.7</ele>
        <time>2022-05-28T16:34:09Z</time>
      </trkpt>
      <trkpt lat="48.40867" lon="-3.83932">
        <ele>320.3</ele>
        <time>2022-05-28T16:34:23Z</time>
      </trkpt>
      <trkpt lat="48.40901" lon="-3.8388">
        <ele>319.1</ele>
        <time>2022-05-28T16:34:35Z</time>
      </trkpt>
      <trkpt lat="48.40919" lon="-3.83846">
        <ele>318.6</ele>
        <time>2022-05-28T16:34:39Z</time>
      </trkpt>
      <trkpt lat="48.40932" lon="-3.83819">
        <ele>317.3</ele>
        <time>2022-05-28T16:34:42Z</time>
      </trkpt>
      <trkpt lat="48.40937" lon="-3.8381">
        <ele>316.9</ele>
        <time>2022-05-28T16:34:43Z</time>
      </trkpt>
      <trkpt lat="48.40952" lon="-3.83798">
        <ele>316</ele>
        <time>2022-05-28T16:34:45Z</time>
      </trkpt>
      <trkpt lat="48.40959" lon="-3.83791">
        <ele>315.4</ele>
        <time>2022-05-28T16:34:46Z</time>
      </trkpt>
      <trkpt lat="48.40967" lon="-3.83785">
        <ele>314.8</ele>
        <time>2022-05-28T16:34:47Z</time>
      </trkpt>
      <trkpt lat="48.40988" lon="-3.83788">
        <ele>313.6</ele>
        <time>2022-05-28T16:34:49Z</time>
      </trkpt>
      <trkpt lat="48.41005" lon="-3.83802">
        <ele>312.4</ele>
        <time>2022-05-28T16:34:51Z</time>
      </trkpt>
      <trkpt lat="48.41021" lon="-3.83853">
        <ele>310</ele>
        <time>2022-05-28T16:34:55Z</time>
      </trkpt>
      <trkpt lat="48.41026" lon="-3.83883">
        <ele>308.8</ele>
        <time>2022-05-28T16:34:57Z</time>
      </trkpt>
      <trkpt lat="48.41029" lon="-3.83897">
        <ele>308.2</ele>
        <time>2022-05-28T16:34:58Z</time>
      </trkpt>
      <trkpt lat="48.41046" lon="-3.83937">
        <ele>306.6</ele>
        <time>2022-05-28T16:35:01Z</time>
      </trkpt>
      <trkpt lat="48.41067" lon="-3.83948">
        <ele>305.6</ele>
        <time>2022-05-28T16:35:03Z</time>
      </trkpt>
      <trkpt lat="48.41077" lon="-3.83947">
        <ele>305.4</ele>
        <time>2022-05-28T16:35:04Z</time>
      </trkpt>
      <trkpt lat="48.41121" lon="-3.8393">
        <ele>304.4</ele>
        <time>2022-05-28T16:35:09Z</time>
      </trkpt>
      <trkpt lat="48.41161" lon="-3.83901">
        <ele>303.2</ele>
        <time>2022-05-28T16:35:15Z</time>
      </trkpt>
      <trkpt lat="48.41185" lon="-3.83875">
        <ele>303.1</ele>
        <time>2022-05-28T16:35:21Z</time>
      </trkpt>
      <trkpt lat="48.412" lon="-3.83859">
        <ele>304</ele>
        <time>2022-05-28T16:35:25Z</time>
      </trkpt>
      <trkpt lat="48.41225" lon="-3.83831">
        <ele>305.8</ele>
        <time>2022-05-28T16:35:33Z</time>
      </trkpt>
      <trkpt lat="48.41237" lon="-3.83816">
        <ele>307.1</ele>
        <time>2022-05-28T16:35:37Z</time>
      </trkpt>
      <trkpt lat="48.41242" lon="-3.83808">
        <ele>307.7</ele>
        <time>2022-05-28T16:35:39Z</time>
      </trkpt>
      <trkpt lat="48.41266" lon="-3.83764">
        <ele>310.1</ele>
        <time>2022-05-28T16:35:49Z</time>
      </trkpt>
      <trkpt lat="48.41296" lon="-3.83708">
        <ele>312.2</ele>
        <time>2022-05-28T16:36:01Z</time>
      </trkpt>
      <trkpt lat="48.413" lon="-3.83705">
        <ele>312.3</ele>
        <time>2022-05-28T16:36:02Z</time>
      </trkpt>
      <trkpt lat="48.41312" lon="-3.8369">
        <ele>313</ele>
        <time>2022-05-28T16:36:06Z</time>
      </trkpt>
      <trkpt lat="48.4133" lon="-3.83667">
        <ele>314</ele>
        <time>2022-05-28T16:36:12Z</time>
      </trkpt>
      <trkpt lat="48.41336" lon="-3.8366">
        <ele>314.4</ele>
        <time>2022-05-28T16:36:14Z</time>
      </trkpt>
      <trkpt lat="48.41377" lon="-3.83622">
        <ele>317.1</ele>
        <time>2022-05-28T16:36:27Z</time>
      </trkpt>
      <trkpt lat="48.41385" lon="-3.83616">
        <ele>317.8</ele>
        <time>2022-05-28T16:36:30Z</time>
      </trkpt>
      <trkpt lat="48.41419" lon="-3.83591">
        <ele>321.1</ele>
        <time>2022-05-28T16:36:43Z</time>
      </trkpt>
      <trkpt lat="48.41428" lon="-3.83583">
        <ele>322.3</ele>
        <time>2022-05-28T16:36:48Z</time>
      </trkpt>
      <trkpt lat="48.41439" lon="-3.83574">
        <ele>323.8</ele>
        <time>2022-05-28T16:36:54Z</time>
      </trkpt>
      <trkpt lat="48.41444" lon="-3.83569">
        <ele>324.6</ele>
        <time>2022-05-28T16:36:57Z</time>
      </trkpt>
      <trkpt lat="48.41459" lon="-3.83557">
        <ele>326.7</ele>
        <time>2022-05-28T16:37:05Z</time>
      </trkpt>
      <trkpt lat="48.41461" lon="-3.83554">
        <ele>327</ele>
        <time>2022-05-28T16:37:06Z</time>
      </trkpt>
      <trkpt lat="48.41483" lon="-3.83521">
        <ele>329.9</ele>
        <time>2022-05-28T16:37:18Z</time>
      </trkpt>
      <trkpt lat="48.41493" lon="-3.83507">
        <ele>330.9</ele>
        <time>2022-05-28T16:37:23Z</time>
      </trkpt>
      <trkpt lat="48.41518" lon="-3.83467">
        <ele>333.6</ele>
        <time>2022-05-28T16:37:36Z</time>
      </trkpt>
      <trkpt lat="48.41524" lon="-3.83457">
        <ele>333.8</ele>
        <time>2022-05-28T16:37:39Z</time>
      </trkpt>
      <trkpt lat="48.41533" lon="-3.83435">
        <ele>334.1</ele>
        <time>2022-05-28T16:37:44Z</time>
      </trkpt>
      <trkpt lat="48.41546" lon="-3.83418">
        <ele>334.5</ele>
        <time>2022-05-28T16:37:50Z</time>
      </trkpt>
      <trkpt lat="48.41555" lon="-3.83401">
        <ele>334.7</ele>
        <time>2022-05-28T16:37:53Z</time>
      </trkpt>
      <trkpt lat="48.41577" lon="-3.83363">
        <ele>334.7</ele>
        <time>2022-05-28T16:38:00Z</time>
      </trkpt>
      <trkpt lat="48.41616" lon="-3.83328">
        <ele>334.8</ele>
        <time>2022-05-28T16:38:12Z</time>
      </trkpt>
      <trkpt lat="48.41651" lon="-3.83306">
        <ele>335</ele>
        <time>2022-05-28T16:38:22Z</time>
      </trkpt>
      <trkpt lat="48.41705" lon="-3.83296">
        <ele>337.5</ele>
        <time>2022-05-28T16:38:34Z</time>
      </trkpt>
      <trkpt lat="48.41705" lon="-3.83296">
        <ele>337.5</ele>
        <time>2022-05-28T16:39:43Z</time>
      </trkpt>
      <trkpt lat="48.41752" lon="-3.83289">
        <ele>339.5</ele>
        <time>2022-05-28T16:39:48Z</time>
      </trkpt>
      <trkpt lat="48.41801" lon="-3.83276">
        <ele>339.6</ele>
        <time>2022-05-28T16:40:00Z</time>
      </trkpt>
      <trkpt lat="48.41842" lon="-3.83244">
        <ele>339.6</ele>
        <time>2022-05-28T16:40:07Z</time>
      </trkpt>
      <trkpt lat="48.41849" lon="-3.83238">
        <ele>339.6</ele>
        <time>2022-05-28T16:40:08Z</time>
      </trkpt>
      <trkpt lat="48.41883" lon="-3.83209">
        <ele>338.5</ele>
        <time>2022-05-28T16:40:13Z</time>
      </trkpt>
      <trkpt lat="48.41923" lon="-3.83184">
        <ele>337.3</ele>
        <time>2022-05-28T16:40:19Z</time>
      </trkpt>
      <trkpt lat="48.4194" lon="-3.83171">
        <ele>337.4</ele>
        <time>2022-05-28T16:40:22Z</time>
      </trkpt>
      <trkpt lat="48.4196" lon="-3.83161">
        <ele>337.6</ele>
        <time>2022-05-28T16:40:25Z</time>
      </trkpt>
      <trkpt lat="48.41985" lon="-3.83147">
        <ele>337.9</ele>
        <time>2022-05-28T16:40:29Z</time>
      </trkpt>
      <trkpt lat="48.42031" lon="-3.8312">
        <ele>338.6</ele>
        <time>2022-05-28T16:40:37Z</time>
      </trkpt>
      <trkpt lat="48.42072" lon="-3.83093">
        <ele>339.3</ele>
        <time>2022-05-28T16:40:46Z</time>
      </trkpt>
      <trkpt lat="48.42105" lon="-3.83076">
        <ele>340</ele>
        <time>2022-05-28T16:40:55Z</time>
      </trkpt>
      <trkpt lat="48.42119" lon="-3.83068">
        <ele>340.6</ele>
        <time>2022-05-28T16:40:59Z</time>
      </trkpt>
      <trkpt lat="48.42163" lon="-3.83039">
        <ele>342.4</ele>
        <time>2022-05-28T16:41:13Z</time>
      </trkpt>
      <trkpt lat="48.42185" lon="-3.83025">
        <ele>343.2</ele>
        <time>2022-05-28T16:41:19Z</time>
      </trkpt>
      <trkpt lat="48.42204" lon="-3.83014">
        <ele>344</ele>
        <time>2022-05-28T16:41:24Z</time>
      </trkpt>
      <trkpt lat="48.4223" lon="-3.82995">
        <ele>345.2</ele>
        <time>2022-05-28T16:41:31Z</time>
      </trkpt>
      <trkpt lat="48.42245" lon="-3.82985">
        <ele>345.4</ele>
        <time>2022-05-28T16:41:35Z</time>
      </trkpt>
      <trkpt lat="48.42252" lon="-3.82981">
        <ele>345.5</ele>
        <time>2022-05-28T16:41:37Z</time>
      </trkpt>
      <trkpt lat="48.42281" lon="-3.82966">
        <ele>347</ele>
        <time>2022-05-28T16:41:45Z</time>
      </trkpt>
      <trkpt lat="48.42294" lon="-3.82957">
        <ele>347.8</ele>
        <time>2022-05-28T16:41:49Z</time>
      </trkpt>
      <trkpt lat="48.42314" lon="-3.82941">
        <ele>348.5</ele>
        <time>2022-05-28T16:41:55Z</time>
      </trkpt>
      <trkpt lat="48.42355" lon="-3.82902">
        <ele>349.8</ele>
        <time>2022-05-28T16:42:05Z</time>
      </trkpt>
      <trkpt lat="48.42358" lon="-3.82899">
        <ele>350</ele>
        <time>2022-05-28T16:42:06Z</time>
      </trkpt>
      <trkpt lat="48.42394" lon="-3.82862">
        <ele>351</ele>
        <time>2022-05-28T16:42:17Z</time>
      </trkpt>
      <trkpt lat="48.42417" lon="-3.82845">
        <ele>351.6</ele>
        <time>2022-05-28T16:42:23Z</time>
      </trkpt>
      <trkpt lat="48.42437" lon="-3.82826">
        <ele>352.2</ele>
        <time>2022-05-28T16:42:29Z</time>
      </trkpt>
      <trkpt lat="48.42457" lon="-3.82807">
        <ele>352.7</ele>
        <time>2022-05-28T16:42:35Z</time>
      </trkpt>
      <trkpt lat="48.425" lon="-3.82776">
        <ele>353.7</ele>
        <time>2022-05-28T16:42:47Z</time>
      </trkpt>
      <trkpt lat="48.42521" lon="-3.8277">
        <ele>354</ele>
        <time>2022-05-28T16:42:51Z</time>
      </trkpt>
      <trkpt lat="48.42541" lon="-3.8276">
        <ele>354.4</ele>
        <time>2022-05-28T16:42:55Z</time>
      </trkpt>
      <trkpt lat="48.42585" lon="-3.82744">
        <ele>355.3</ele>
        <time>2022-05-28T16:43:05Z</time>
      </trkpt>
      <trkpt lat="48.42597" lon="-3.82741">
        <ele>355.6</ele>
        <time>2022-05-28T16:43:08Z</time>
      </trkpt>
      <trkpt lat="48.42638" lon="-3.82721">
        <ele>357</ele>
        <time>2022-05-28T16:43:19Z</time>
      </trkpt>
      <trkpt lat="48.42654" lon="-3.82713">
        <ele>357.4</ele>
        <time>2022-05-28T16:43:23Z</time>
      </trkpt>
      <trkpt lat="48.42682" lon="-3.82697">
        <ele>357.3</ele>
        <time>2022-05-28T16:43:30Z</time>
      </trkpt>
      <trkpt lat="48.4271" lon="-3.82643">
        <ele>357.1</ele>
        <time>2022-05-28T16:43:40Z</time>
      </trkpt>
      <trkpt lat="48.42737" lon="-3.82587">
        <ele>357</ele>
        <time>2022-05-28T16:43:50Z</time>
      </trkpt>
      <trkpt lat="48.42765" lon="-3.82527">
        <ele>356.8</ele>
        <time>2022-05-28T16:44:00Z</time>
      </trkpt>
      <trkpt lat="48.42788" lon="-3.82465">
        <ele>356.7</ele>
        <time>2022-05-28T16:44:09Z</time>
      </trkpt>
      <trkpt lat="48.42808" lon="-3.82403">
        <ele>356.6</ele>
        <time>2022-05-28T16:44:19Z</time>
      </trkpt>
      <trkpt lat="48.42831" lon="-3.82341">
        <ele>356.4</ele>
        <time>2022-05-28T16:44:30Z</time>
      </trkpt>
      <trkpt lat="48.42851" lon="-3.82279">
        <ele>356.2</ele>
        <time>2022-05-28T16:44:43Z</time>
      </trkpt>
      <trkpt lat="48.42871" lon="-3.82218">
        <ele>356</ele>
        <time>2022-05-28T16:44:57Z</time>
      </trkpt>
      <trkpt lat="48.4289" lon="-3.82171">
        <ele>355.8</ele>
        <time>2022-05-28T16:45:08Z</time>
      </trkpt>
      <trkpt lat="48.42897" lon="-3.82167">
        <ele>355.7</ele>
        <time>2022-05-28T16:45:10Z</time>
      </trkpt>
      <trkpt lat="48.42923" lon="-3.82155">
        <ele>354</ele>
        <time>2022-05-28T16:45:17Z</time>
      </trkpt>
      <trkpt lat="48.42943" lon="-3.82165">
        <ele>353</ele>
        <time>2022-05-28T16:45:21Z</time>
      </trkpt>
      <trkpt lat="48.42948" lon="-3.82171">
        <ele>352.7</ele>
        <time>2022-05-28T16:45:22Z</time>
      </trkpt>
      <trkpt lat="48.42971" lon="-3.82208">
        <ele>350.6</ele>
        <time>2022-05-28T16:45:27Z</time>
      </trkpt>
      <trkpt lat="48.42995" lon="-3.82267">
        <ele>348.1</ele>
        <time>2022-05-28T16:45:33Z</time>
      </trkpt>
      <trkpt lat="48.42997" lon="-3.8228">
        <ele>347.7</ele>
        <time>2022-05-28T16:45:34Z</time>
      </trkpt>
      <trkpt lat="48.43005" lon="-3.82333">
        <ele>345.3</ele>
        <time>2022-05-28T16:45:38Z</time>
      </trkpt>
      <trkpt lat="48.43009" lon="-3.82363">
        <ele>344.1</ele>
        <time>2022-05-28T16:45:40Z</time>
      </trkpt>
      <trkpt lat="48.43011" lon="-3.82378">
        <ele>343.6</ele>
        <time>2022-05-28T16:45:41Z</time>
      </trkpt>
      <trkpt lat="48.43042" lon="-3.82444">
        <ele>340.8</ele>
        <time>2022-05-28T16:45:46Z</time>
      </trkpt>
      <trkpt lat="48.43072" lon="-3.82495">
        <ele>338.6</ele>
        <time>2022-05-28T16:45:50Z</time>
      </trkpt>
      <trkpt lat="48.4309" lon="-3.82518">
        <ele>337.4</ele>
        <time>2022-05-28T16:45:52Z</time>
      </trkpt>
      <trkpt lat="48.43108" lon="-3.82539">
        <ele>335.7</ele>
        <time>2022-05-28T16:45:54Z</time>
      </trkpt>
      <trkpt lat="48.43148" lon="-3.82572">
        <ele>332.3</ele>
        <time>2022-05-28T16:45:58Z</time>
      </trkpt>
      <trkpt lat="48.43193" lon="-3.82586">
        <ele>329.1</ele>
        <time>2022-05-28T16:46:02Z</time>
      </trkpt>
      <trkpt lat="48.43214" lon="-3.82591">
        <ele>327.4</ele>
        <time>2022-05-28T16:46:04Z</time>
      </trkpt>
      <trkpt lat="48.43234" lon="-3.82594">
        <ele>325.9</ele>
        <time>2022-05-28T16:46:06Z</time>
      </trkpt>
      <trkpt lat="48.4325" lon="-3.82606">
        <ele>324.4</ele>
        <time>2022-05-28T16:46:08Z</time>
      </trkpt>
      <trkpt lat="48.43256" lon="-3.82616">
        <ele>323.7</ele>
        <time>2022-05-28T16:46:09Z</time>
      </trkpt>
      <trkpt lat="48.4326" lon="-3.82628">
        <ele>323</ele>
        <time>2022-05-28T16:46:10Z</time>
      </trkpt>
      <trkpt lat="48.43279" lon="-3.82677">
        <ele>320.8</ele>
        <time>2022-05-28T16:46:14Z</time>
      </trkpt>
      <trkpt lat="48.43295" lon="-3.82695">
        <ele>319.8</ele>
        <time>2022-05-28T16:46:16Z</time>
      </trkpt>
      <trkpt lat="48.43335" lon="-3.82716">
        <ele>317.6</ele>
        <time>2022-05-28T16:46:20Z</time>
      </trkpt>
      <trkpt lat="48.43345" lon="-3.8272">
        <ele>317</ele>
        <time>2022-05-28T16:46:21Z</time>
      </trkpt>
      <trkpt lat="48.43395" lon="-3.8274">
        <ele>314.2</ele>
        <time>2022-05-28T16:46:26Z</time>
      </trkpt>
      <trkpt lat="48.43446" lon="-3.82761">
        <ele>311.5</ele>
        <time>2022-05-28T16:46:31Z</time>
      </trkpt>
      <trkpt lat="48.43474" lon="-3.82776">
        <ele>310.9</ele>
        <time>2022-05-28T16:46:34Z</time>
      </trkpt>
      <trkpt lat="48.43509" lon="-3.82819">
        <ele>309.9</ele>
        <time>2022-05-28T16:46:39Z</time>
      </trkpt>
      <trkpt lat="48.43534" lon="-3.8285">
        <ele>309.1</ele>
        <time>2022-05-28T16:46:43Z</time>
      </trkpt>
      <trkpt lat="48.43547" lon="-3.82866">
        <ele>308.9</ele>
        <time>2022-05-28T16:46:45Z</time>
      </trkpt>
      <trkpt lat="48.43571" lon="-3.82897">
        <ele>308.4</ele>
        <time>2022-05-28T16:46:49Z</time>
      </trkpt>
      <trkpt lat="48.43583" lon="-3.82913">
        <ele>308.1</ele>
        <time>2022-05-28T16:46:51Z</time>
      </trkpt>
      <trkpt lat="48.43617" lon="-3.82957">
        <ele>307.3</ele>
        <time>2022-05-28T16:46:57Z</time>
      </trkpt>
      <trkpt lat="48.43639" lon="-3.8299">
        <ele>306.7</ele>
        <time>2022-05-28T16:47:01Z</time>
      </trkpt>
      <trkpt lat="48.43644" lon="-3.82999">
        <ele>306.3</ele>
        <time>2022-05-28T16:47:02Z</time>
      </trkpt>
      <trkpt lat="48.43661" lon="-3.83073">
        <ele>303.6</ele>
        <time>2022-05-28T16:47:08Z</time>
      </trkpt>
      <trkpt lat="48.43676" lon="-3.83142">
        <ele>301.4</ele>
        <time>2022-05-28T16:47:13Z</time>
      </trkpt>
      <trkpt lat="48.43685" lon="-3.83185">
        <ele>300.3</ele>
        <time>2022-05-28T16:47:16Z</time>
      </trkpt>
      <trkpt lat="48.43692" lon="-3.83258">
        <ele>298.3</ele>
        <time>2022-05-28T16:47:21Z</time>
      </trkpt>
      <trkpt lat="48.43695" lon="-3.83314">
        <ele>296.6</ele>
        <time>2022-05-28T16:47:25Z</time>
      </trkpt>
      <trkpt lat="48.43696" lon="-3.83327">
        <ele>296</ele>
        <time>2022-05-28T16:47:26Z</time>
      </trkpt>
      <trkpt lat="48.43702" lon="-3.8335">
        <ele>294.6</ele>
        <time>2022-05-28T16:47:28Z</time>
      </trkpt>
      <trkpt lat="48.43721" lon="-3.83363">
        <ele>293.3</ele>
        <time>2022-05-28T16:47:30Z</time>
      </trkpt>
      <trkpt lat="48.43732" lon="-3.83367">
        <ele>292.6</ele>
        <time>2022-05-28T16:47:31Z</time>
      </trkpt>
      <trkpt lat="48.43743" lon="-3.83371">
        <ele>291.8</ele>
        <time>2022-05-28T16:47:32Z</time>
      </trkpt>
      <trkpt lat="48.43793" lon="-3.83404">
        <ele>287.8</ele>
        <time>2022-05-28T16:47:37Z</time>
      </trkpt>
      <trkpt lat="48.43838" lon="-3.83434">
        <ele>283.7</ele>
        <time>2022-05-28T16:47:41Z</time>
      </trkpt>
      <trkpt lat="48.43863" lon="-3.83452">
        <ele>281.8</ele>
        <time>2022-05-28T16:47:43Z</time>
      </trkpt>
      <trkpt lat="48.43887" lon="-3.83468">
        <ele>280.4</ele>
        <time>2022-05-28T16:47:45Z</time>
      </trkpt>
      <trkpt lat="48.43931" lon="-3.83498">
        <ele>277.6</ele>
        <time>2022-05-28T16:47:49Z</time>
      </trkpt>
      <trkpt lat="48.43973" lon="-3.8353">
        <ele>274.7</ele>
        <time>2022-05-28T16:47:53Z</time>
      </trkpt>
      <trkpt lat="48.43994" lon="-3.83542">
        <ele>273.3</ele>
        <time>2022-05-28T16:47:55Z</time>
      </trkpt>
      <trkpt lat="48.44025" lon="-3.83562">
        <ele>270.9</ele>
        <time>2022-05-28T16:47:58Z</time>
      </trkpt>
      <trkpt lat="48.44056" lon="-3.83584">
        <ele>268.7</ele>
        <time>2022-05-28T16:48:01Z</time>
      </trkpt>
      <trkpt lat="48.44067" lon="-3.83591">
        <ele>268</ele>
        <time>2022-05-28T16:48:02Z</time>
      </trkpt>
      <trkpt lat="48.44116" lon="-3.83628">
        <ele>264.9</ele>
        <time>2022-05-28T16:48:07Z</time>
      </trkpt>
      <trkpt lat="48.44158" lon="-3.8366">
        <ele>262.1</ele>
        <time>2022-05-28T16:48:11Z</time>
      </trkpt>
      <trkpt lat="48.4418" lon="-3.83675">
        <ele>260.7</ele>
        <time>2022-05-28T16:48:13Z</time>
      </trkpt>
      <trkpt lat="48.44202" lon="-3.83691">
        <ele>259.1</ele>
        <time>2022-05-28T16:48:15Z</time>
      </trkpt>
      <trkpt lat="48.44232" lon="-3.83712">
        <ele>256.6</ele>
        <time>2022-05-28T16:48:18Z</time>
      </trkpt>
      <trkpt lat="48.44252" lon="-3.83726">
        <ele>255.6</ele>
        <time>2022-05-28T16:48:20Z</time>
      </trkpt>
      <trkpt lat="48.44282" lon="-3.83746">
        <ele>253.6</ele>
        <time>2022-05-28T16:48:24Z</time>
      </trkpt>
      <trkpt lat="48.44296" lon="-3.83756">
        <ele>253</ele>
        <time>2022-05-28T16:48:26Z</time>
      </trkpt>
      <trkpt lat="48.44343" lon="-3.83791">
        <ele>250.8</ele>
        <time>2022-05-28T16:48:33Z</time>
      </trkpt>
      <trkpt lat="48.44365" lon="-3.83809">
        <ele>249.9</ele>
        <time>2022-05-28T16:48:36Z</time>
      </trkpt>
      <trkpt lat="48.44386" lon="-3.83826">
        <ele>249.3</ele>
        <time>2022-05-28T16:48:39Z</time>
      </trkpt>
      <trkpt lat="48.44428" lon="-3.83812">
        <ele>246.7</ele>
        <time>2022-05-28T16:48:43Z</time>
      </trkpt>
      <trkpt lat="48.44428" lon="-3.83812">
        <ele>246.7</ele>
        <time>2022-05-28T16:51:12Z</time>
      </trkpt>
      <trkpt lat="48.44454" lon="-3.8378">
        <ele>244.8</ele>
        <time>2022-05-28T16:51:19Z</time>
      </trkpt>
      <trkpt lat="48.44468" lon="-3.83738">
        <ele>244.6</ele>
        <time>2022-05-28T16:51:25Z</time>
      </trkpt>
      <trkpt lat="48.44468" lon="-3.83728">
        <ele>244.6</ele>
        <time>2022-05-28T16:51:26Z</time>
      </trkpt>
      <trkpt lat="48.44485" lon="-3.83688">
        <ele>244.5</ele>
        <time>2022-05-28T16:51:31Z</time>
      </trkpt>
      <trkpt lat="48.4449" lon="-3.83682">
        <ele>244.5</ele>
        <time>2022-05-28T16:51:32Z</time>
      </trkpt>
      <trkpt lat="48.44514" lon="-3.83624">
        <ele>244.3</ele>
        <time>2022-05-28T16:51:39Z</time>
      </trkpt>
      <trkpt lat="48.44538" lon="-3.83567">
        <ele>244.1</ele>
        <time>2022-05-28T16:51:46Z</time>
      </trkpt>
      <trkpt lat="48.44565" lon="-3.83503">
        <ele>244</ele>
        <time>2022-05-28T16:51:54Z</time>
      </trkpt>
      <trkpt lat="48.44592" lon="-3.83438">
        <ele>243.8</ele>
        <time>2022-05-28T16:52:02Z</time>
      </trkpt>
      <trkpt lat="48.44603" lon="-3.83413">
        <ele>243.6</ele>
        <time>2022-05-28T16:52:05Z</time>
      </trkpt>
      <trkpt lat="48.44608" lon="-3.83405">
        <ele>243.3</ele>
        <time>2022-05-28T16:52:06Z</time>
      </trkpt>
      <trkpt lat="48.44621" lon="-3.83393">
        <ele>242.8</ele>
        <time>2022-05-28T16:52:08Z</time>
      </trkpt>
      <trkpt lat="48.44643" lon="-3.83383">
        <ele>241.9</ele>
        <time>2022-05-28T16:52:11Z</time>
      </trkpt>
      <trkpt lat="48.44658" lon="-3.83375">
        <ele>241.6</ele>
        <time>2022-05-28T16:52:13Z</time>
      </trkpt>
      <trkpt lat="48.44684" lon="-3.83347">
        <ele>240.9</ele>
        <time>2022-05-28T16:52:17Z</time>
      </trkpt>
      <trkpt lat="48.44695" lon="-3.8332">
        <ele>240.5</ele>
        <time>2022-05-28T16:52:20Z</time>
      </trkpt>
      <trkpt lat="48.44696" lon="-3.83311">
        <ele>240.3</ele>
        <time>2022-05-28T16:52:21Z</time>
      </trkpt>
      <trkpt lat="48.44703" lon="-3.83297">
        <ele>240</ele>
        <time>2022-05-28T16:52:23Z</time>
      </trkpt>
      <trkpt lat="48.44723" lon="-3.83255">
        <ele>240.7</ele>
        <time>2022-05-28T16:52:29Z</time>
      </trkpt>
      <trkpt lat="48.4474" lon="-3.8322">
        <ele>242.1</ele>
        <time>2022-05-28T16:52:35Z</time>
      </trkpt>
      <trkpt lat="48.44751" lon="-3.83197">
        <ele>242.6</ele>
        <time>2022-05-28T16:52:39Z</time>
      </trkpt>
      <trkpt lat="48.44777" lon="-3.83138">
        <ele>243.7</ele>
        <time>2022-05-28T16:52:49Z</time>
      </trkpt>
      <trkpt lat="48.44789" lon="-3.83114">
        <ele>244</ele>
        <time>2022-05-28T16:52:52Z</time>
      </trkpt>
      <trkpt lat="48.44801" lon="-3.83089">
        <ele>243.5</ele>
        <time>2022-05-28T16:52:55Z</time>
      </trkpt>
      <trkpt lat="48.44807" lon="-3.83081">
        <ele>243.3</ele>
        <time>2022-05-28T16:52:56Z</time>
      </trkpt>
      <trkpt lat="48.44838" lon="-3.83021">
        <ele>242.2</ele>
        <time>2022-05-28T16:53:03Z</time>
      </trkpt>
      <trkpt lat="48.44842" lon="-3.83011">
        <ele>242</ele>
        <time>2022-05-28T16:53:04Z</time>
      </trkpt>
      <trkpt lat="48.44865" lon="-3.82965">
        <ele>240.2</ele>
        <time>2022-05-28T16:53:09Z</time>
      </trkpt>
      <trkpt lat="48.4487" lon="-3.82955">
        <ele>239.8</ele>
        <time>2022-05-28T16:53:10Z</time>
      </trkpt>
      <trkpt lat="48.44894" lon="-3.82903">
        <ele>238.1</ele>
        <time>2022-05-28T16:53:15Z</time>
      </trkpt>
      <trkpt lat="48.44925" lon="-3.82843">
        <ele>236</ele>
        <time>2022-05-28T16:53:21Z</time>
      </trkpt>
      <trkpt lat="48.44929" lon="-3.82833">
        <ele>235.7</ele>
        <time>2022-05-28T16:53:22Z</time>
      </trkpt>
      <trkpt lat="48.44954" lon="-3.82784">
        <ele>234.8</ele>
        <time>2022-05-28T16:53:27Z</time>
      </trkpt>
      <trkpt lat="48.44959" lon="-3.82776">
        <ele>234.6</ele>
        <time>2022-05-28T16:53:28Z</time>
      </trkpt>
      <trkpt lat="48.44988" lon="-3.8272">
        <ele>233</ele>
        <time>2022-05-28T16:53:34Z</time>
      </trkpt>
      <trkpt lat="48.4502" lon="-3.8267">
        <ele>231.5</ele>
        <time>2022-05-28T16:53:40Z</time>
      </trkpt>
      <trkpt lat="48.45051" lon="-3.82624">
        <ele>230.7</ele>
        <time>2022-05-28T16:53:46Z</time>
      </trkpt>
      <trkpt lat="48.45056" lon="-3.82617">
        <ele>230.6</ele>
        <time>2022-05-28T16:53:47Z</time>
      </trkpt>
      <trkpt lat="48.45072" lon="-3.82594">
        <ele>230.5</ele>
        <time>2022-05-28T16:53:50Z</time>
      </trkpt>
      <trkpt lat="48.45084" lon="-3.82581">
        <ele>230.4</ele>
        <time>2022-05-28T16:53:52Z</time>
      </trkpt>
      <trkpt lat="48.45108" lon="-3.82554">
        <ele>230</ele>
        <time>2022-05-28T16:53:56Z</time>
      </trkpt>
      <trkpt lat="48.45116" lon="-3.82533">
        <ele>229.8</ele>
        <time>2022-05-28T16:53:58Z</time>
      </trkpt>
      <trkpt lat="48.45123" lon="-3.82476">
        <ele>229.3</ele>
        <time>2022-05-28T16:54:03Z</time>
      </trkpt>
      <trkpt lat="48.45127" lon="-3.82472">
        <ele>229.2</ele>
        <time>2022-05-28T16:54:04Z</time>
      </trkpt>
      <trkpt lat="48.45144" lon="-3.82514">
        <ele>229.1</ele>
        <time>2022-05-28T16:54:05Z</time>
      </trkpt>
      <trkpt lat="48.45163" lon="-3.82455">
        <ele>228.6</ele>
        <time>2022-05-28T16:54:10Z</time>
      </trkpt>
      <trkpt lat="48.45179" lon="-3.82401">
        <ele>228.3</ele>
        <time>2022-05-28T16:54:15Z</time>
      </trkpt>
      <trkpt lat="48.45219" lon="-3.82359">
        <ele>228.1</ele>
        <time>2022-05-28T16:54:22Z</time>
      </trkpt>
      <trkpt lat="48.45243" lon="-3.8236">
        <ele>228.8</ele>
        <time>2022-05-28T16:54:26Z</time>
      </trkpt>
      <trkpt lat="48.45283" lon="-3.82382">
        <ele>230.1</ele>
        <time>2022-05-28T16:54:34Z</time>
      </trkpt>
      <trkpt lat="48.45287" lon="-3.82384">
        <ele>230.3</ele>
        <time>2022-05-28T16:54:35Z</time>
      </trkpt>
      <trkpt lat="48.45315" lon="-3.82401">
        <ele>231.4</ele>
        <time>2022-05-28T16:54:43Z</time>
      </trkpt>
      <trkpt lat="48.45342" lon="-3.82408">
        <ele>232.3</ele>
        <time>2022-05-28T16:54:50Z</time>
      </trkpt>
      <trkpt lat="48.45347" lon="-3.82408">
        <ele>232.1</ele>
        <time>2022-05-28T16:54:51Z</time>
      </trkpt>
      <trkpt lat="48.45365" lon="-3.82406">
        <ele>231.3</ele>
        <time>2022-05-28T16:54:54Z</time>
      </trkpt>
      <trkpt lat="48.45417" lon="-3.82411">
        <ele>229.6</ele>
        <time>2022-05-28T16:55:01Z</time>
      </trkpt>
      <trkpt lat="48.45467" lon="-3.82417">
        <ele>228.8</ele>
        <time>2022-05-28T16:55:08Z</time>
      </trkpt>
      <trkpt lat="48.45502" lon="-3.82421">
        <ele>228.2</ele>
        <time>2022-05-28T16:55:13Z</time>
      </trkpt>
      <trkpt lat="48.45516" lon="-3.82422">
        <ele>228.1</ele>
        <time>2022-05-28T16:55:15Z</time>
      </trkpt>
      <trkpt lat="48.45564" lon="-3.82425">
        <ele>227.6</ele>
        <time>2022-05-28T16:55:24Z</time>
      </trkpt>
      <trkpt lat="48.45613" lon="-3.82417">
        <ele>227.2</ele>
        <time>2022-05-28T16:55:31Z</time>
      </trkpt>
      <trkpt lat="48.45663" lon="-3.82407">
        <ele>226.7</ele>
        <time>2022-05-28T16:55:39Z</time>
      </trkpt>
      <trkpt lat="48.45708" lon="-3.82396">
        <ele>226.3</ele>
        <time>2022-05-28T16:55:46Z</time>
      </trkpt>
      <trkpt lat="48.45731" lon="-3.82392">
        <ele>226.1</ele>
        <time>2022-05-28T16:55:49Z</time>
      </trkpt>
      <trkpt lat="48.4576" lon="-3.82386">
        <ele>225.4</ele>
        <time>2022-05-28T16:55:53Z</time>
      </trkpt>
      <trkpt lat="48.45811" lon="-3.82366">
        <ele>224.3</ele>
        <time>2022-05-28T16:55:59Z</time>
      </trkpt>
      <trkpt lat="48.45847" lon="-3.82358">
        <ele>223.5</ele>
        <time>2022-05-28T16:56:04Z</time>
      </trkpt>
      <trkpt lat="48.45874" lon="-3.82345">
        <ele>222.9</ele>
        <time>2022-05-28T16:56:07Z</time>
      </trkpt>
      <trkpt lat="48.45892" lon="-3.82335">
        <ele>221.9</ele>
        <time>2022-05-28T16:56:09Z</time>
      </trkpt>
      <trkpt lat="48.45918" lon="-3.82311">
        <ele>220.4</ele>
        <time>2022-05-28T16:56:12Z</time>
      </trkpt>
      <trkpt lat="48.45925" lon="-3.82299">
        <ele>219.9</ele>
        <time>2022-05-28T16:56:13Z</time>
      </trkpt>
      <trkpt lat="48.45952" lon="-3.82227">
        <ele>217.4</ele>
        <time>2022-05-28T16:56:18Z</time>
      </trkpt>
      <trkpt lat="48.45958" lon="-3.82215">
        <ele>216.9</ele>
        <time>2022-05-28T16:56:19Z</time>
      </trkpt>
      <trkpt lat="48.45981" lon="-3.82166">
        <ele>215.7</ele>
        <time>2022-05-28T16:56:23Z</time>
      </trkpt>
      <trkpt lat="48.45988" lon="-3.82158">
        <ele>215.4</ele>
        <time>2022-05-28T16:56:24Z</time>
      </trkpt>
      <trkpt lat="48.46032" lon="-3.8214">
        <ele>213.9</ele>
        <time>2022-05-28T16:56:29Z</time>
      </trkpt>
      <trkpt lat="48.4605" lon="-3.82118">
        <ele>213.3</ele>
        <time>2022-05-28T16:56:31Z</time>
      </trkpt>
      <trkpt lat="48.46057" lon="-3.82108">
        <ele>213.1</ele>
        <time>2022-05-28T16:56:32Z</time>
      </trkpt>
      <trkpt lat="48.46066" lon="-3.82088">
        <ele>212.6</ele>
        <time>2022-05-28T16:56:34Z</time>
      </trkpt>
      <trkpt lat="48.46073" lon="-3.82052">
        <ele>212</ele>
        <time>2022-05-28T16:56:37Z</time>
      </trkpt>
      <trkpt lat="48.46081" lon="-3.82018">
        <ele>211.7</ele>
        <time>2022-05-28T16:56:40Z</time>
      </trkpt>
      <trkpt lat="48.46099" lon="-3.81981">
        <ele>211.3</ele>
        <time>2022-05-28T16:56:44Z</time>
      </trkpt>
      <trkpt lat="48.4613" lon="-3.8195">
        <ele>210.8</ele>
        <time>2022-05-28T16:56:49Z</time>
      </trkpt>
      <trkpt lat="48.46162" lon="-3.81924">
        <ele>210.3</ele>
        <time>2022-05-28T16:56:54Z</time>
      </trkpt>
      <trkpt lat="48.46192" lon="-3.81878">
        <ele>209.8</ele>
        <time>2022-05-28T16:57:00Z</time>
      </trkpt>
      <trkpt lat="48.46197" lon="-3.8187">
        <ele>209.9</ele>
        <time>2022-05-28T16:57:01Z</time>
      </trkpt>
      <trkpt lat="48.46233" lon="-3.81815">
        <ele>210.9</ele>
        <time>2022-05-28T16:57:09Z</time>
      </trkpt>
      <trkpt lat="48.46262" lon="-3.81786">
        <ele>211.5</ele>
        <time>2022-05-28T16:57:14Z</time>
      </trkpt>
      <trkpt lat="48.46279" lon="-3.8175">
        <ele>212</ele>
        <time>2022-05-28T16:57:18Z</time>
      </trkpt>
      <trkpt lat="48.46292" lon="-3.81684">
        <ele>213.4</ele>
        <time>2022-05-28T16:57:29Z</time>
      </trkpt>
      <trkpt lat="48.46293" lon="-3.81678">
        <ele>213.5</ele>
        <time>2022-05-28T16:57:30Z</time>
      </trkpt>
      <trkpt lat="48.46305" lon="-3.81621">
        <ele>215.6</ele>
        <time>2022-05-28T16:57:40Z</time>
      </trkpt>
      <trkpt lat="48.46307" lon="-3.81617">
        <ele>215.8</ele>
        <time>2022-05-28T16:57:41Z</time>
      </trkpt>
      <trkpt lat="48.46323" lon="-3.81582">
        <ele>217.3</ele>
        <time>2022-05-28T16:57:49Z</time>
      </trkpt>
      <trkpt lat="48.46323" lon="-3.81576">
        <ele>217.5</ele>
        <time>2022-05-28T16:57:50Z</time>
      </trkpt>
      <trkpt lat="48.46334" lon="-3.81557">
        <ele>218.5</ele>
        <time>2022-05-28T16:57:55Z</time>
      </trkpt>
      <trkpt lat="48.46333" lon="-3.81552">
        <ele>218.6</ele>
        <time>2022-05-28T16:57:56Z</time>
      </trkpt>
      <trkpt lat="48.46334" lon="-3.81549">
        <ele>218.8</ele>
        <time>2022-05-28T16:57:57Z</time>
      </trkpt>
      <trkpt lat="48.4633" lon="-3.81549">
        <ele>219.2</ele>
        <time>2022-05-28T16:57:59Z</time>
      </trkpt>
      <trkpt lat="48.46297" lon="-3.81545">
        <ele>221</ele>
        <time>2022-05-28T16:58:17Z</time>
      </trkpt>
      <trkpt lat="48.46288" lon="-3.81544">
        <ele>221.4</ele>
        <time>2022-05-28T16:58:22Z</time>
      </trkpt>
      <trkpt lat="48.46241" lon="-3.81531">
        <ele>223</ele>
        <time>2022-05-28T16:58:41Z</time>
      </trkpt>
      <trkpt lat="48.46204" lon="-3.81502">
        <ele>224.1</ele>
        <time>2022-05-28T16:58:53Z</time>
      </trkpt>
      <trkpt lat="48.46201" lon="-3.81499">
        <ele>224.2</ele>
        <time>2022-05-28T16:58:54Z</time>
      </trkpt>
      <trkpt lat="48.46172" lon="-3.81472">
        <ele>225.1</ele>
        <time>2022-05-28T16:59:03Z</time>
      </trkpt>
      <trkpt lat="48.46173" lon="-3.81458">
        <ele>225.3</ele>
        <time>2022-05-28T16:59:05Z</time>
      </trkpt>
      <trkpt lat="48.4618" lon="-3.81439">
        <ele>225.4</ele>
        <time>2022-05-28T16:59:06Z</time>
      </trkpt>
      <trkpt lat="48.46182" lon="-3.81437">
        <ele>225.5</ele>
        <time>2022-05-28T16:59:07Z</time>
      </trkpt>
      <trkpt lat="48.46185" lon="-3.81424">
        <ele>226</ele>
        <time>2022-05-28T16:59:11Z</time>
      </trkpt>
      <trkpt lat="48.46189" lon="-3.81412">
        <ele>226.8</ele>
        <time>2022-05-28T16:59:15Z</time>
      </trkpt>
      <trkpt lat="48.46192" lon="-3.81408">
        <ele>227.2</ele>
        <time>2022-05-28T16:59:17Z</time>
      </trkpt>
      <trkpt lat="48.46204" lon="-3.81371">
        <ele>229.7</ele>
        <time>2022-05-28T16:59:29Z</time>
      </trkpt>
      <trkpt lat="48.46213" lon="-3.81347">
        <ele>231</ele>
        <time>2022-05-28T16:59:37Z</time>
      </trkpt>
      <trkpt lat="48.46219" lon="-3.81318">
        <ele>232.7</ele>
        <time>2022-05-28T16:59:47Z</time>
      </trkpt>
      <trkpt lat="48.46227" lon="-3.8128">
        <ele>234.6</ele>
        <time>2022-05-28T17:00:00Z</time>
      </trkpt>
      <trkpt lat="48.4623" lon="-3.81248">
        <ele>236.3</ele>
        <time>2022-05-28T17:00:11Z</time>
      </trkpt>
      <trkpt lat="48.46233" lon="-3.81209">
        <ele>237.8</ele>
        <time>2022-05-28T17:00:24Z</time>
      </trkpt>
      <trkpt lat="48.46233" lon="-3.81193">
        <ele>238.4</ele>
        <time>2022-05-28T17:00:29Z</time>
      </trkpt>
      <trkpt lat="48.46234" lon="-3.81155">
        <ele>240.1</ele>
        <time>2022-05-28T17:00:41Z</time>
      </trkpt>
      <trkpt lat="48.46234" lon="-3.81139">
        <ele>240.8</ele>
        <time>2022-05-28T17:00:46Z</time>
      </trkpt>
      <trkpt lat="48.46239" lon="-3.81114">
        <ele>241.7</ele>
        <time>2022-05-28T17:00:53Z</time>
      </trkpt>
      <trkpt lat="48.46246" lon="-3.81072">
        <ele>243.2</ele>
        <time>2022-05-28T17:01:05Z</time>
      </trkpt>
      <trkpt lat="48.46252" lon="-3.81056">
        <ele>244</ele>
        <time>2022-05-28T17:01:11Z</time>
      </trkpt>
      <trkpt lat="48.46258" lon="-3.81039">
        <ele>244.8</ele>
        <time>2022-05-28T17:01:17Z</time>
      </trkpt>
      <trkpt lat="48.46268" lon="-3.81011">
        <ele>246.1</ele>
        <time>2022-05-28T17:01:27Z</time>
      </trkpt>
      <trkpt lat="48.4627" lon="-3.81006">
        <ele>246.4</ele>
        <time>2022-05-28T17:01:29Z</time>
      </trkpt>
      <trkpt lat="48.46294" lon="-3.80953">
        <ele>249.3</ele>
        <time>2022-05-28T17:01:49Z</time>
      </trkpt>
      <trkpt lat="48.46301" lon="-3.80946">
        <ele>249.8</ele>
        <time>2022-05-28T17:01:53Z</time>
      </trkpt>
      <trkpt lat="48.46313" lon="-3.80933">
        <ele>251</ele>
        <time>2022-05-28T17:02:00Z</time>
      </trkpt>
      <trkpt lat="48.46319" lon="-3.80923">
        <ele>251.6</ele>
        <time>2022-05-28T17:02:04Z</time>
      </trkpt>
      <trkpt lat="48.46343" lon="-3.80901">
        <ele>253.7</ele>
        <time>2022-05-28T17:02:17Z</time>
      </trkpt>
      <trkpt lat="48.46358" lon="-3.80886">
        <ele>254.8</ele>
        <time>2022-05-28T17:02:25Z</time>
      </trkpt>
      <trkpt lat="48.46363" lon="-3.80876">
        <ele>255.4</ele>
        <time>2022-05-28T17:02:29Z</time>
      </trkpt>
      <trkpt lat="48.46371" lon="-3.80859">
        <ele>256.6</ele>
        <time>2022-05-28T17:02:35Z</time>
      </trkpt>
      <trkpt lat="48.46385" lon="-3.8083">
        <ele>258.1</ele>
        <time>2022-05-28T17:02:46Z</time>
      </trkpt>
      <trkpt lat="48.46402" lon="-3.80792">
        <ele>259.9</ele>
        <time>2022-05-28T17:02:59Z</time>
      </trkpt>
      <trkpt lat="48.46412" lon="-3.80772">
        <ele>261.1</ele>
        <time>2022-05-28T17:03:06Z</time>
      </trkpt>
      <trkpt lat="48.46419" lon="-3.80756">
        <ele>261.9</ele>
        <time>2022-05-28T17:03:11Z</time>
      </trkpt>
      <trkpt lat="48.46437" lon="-3.80718">
        <ele>263.1</ele>
        <time>2022-05-28T17:03:23Z</time>
      </trkpt>
      <trkpt lat="48.46438" lon="-3.80714">
        <ele>263.1</ele>
        <time>2022-05-28T17:03:24Z</time>
      </trkpt>
      <trkpt lat="48.46449" lon="-3.80697">
        <ele>263.5</ele>
        <time>2022-05-28T17:03:29Z</time>
      </trkpt>
      <trkpt lat="48.46452" lon="-3.80694">
        <ele>263.5</ele>
        <time>2022-05-28T17:03:30Z</time>
      </trkpt>
      <trkpt lat="48.46466" lon="-3.80669">
        <ele>263.9</ele>
        <time>2022-05-28T17:03:36Z</time>
      </trkpt>
      <trkpt lat="48.46477" lon="-3.80657">
        <ele>264.2</ele>
        <time>2022-05-28T17:03:40Z</time>
      </trkpt>
      <trkpt lat="48.46479" lon="-3.80652">
        <ele>264.3</ele>
        <time>2022-05-28T17:03:41Z</time>
      </trkpt>
      <trkpt lat="48.46519" lon="-3.8062">
        <ele>265</ele>
        <time>2022-05-28T17:03:52Z</time>
      </trkpt>
      <trkpt lat="48.46563" lon="-3.80604">
        <ele>265.7</ele>
        <time>2022-05-28T17:04:02Z</time>
      </trkpt>
      <trkpt lat="48.46599" lon="-3.80598">
        <ele>266.1</ele>
        <time>2022-05-28T17:04:10Z</time>
      </trkpt>
      <trkpt lat="48.46608" lon="-3.80597">
        <ele>265.9</ele>
        <time>2022-05-28T17:04:12Z</time>
      </trkpt>
      <trkpt lat="48.46656" lon="-3.80601">
        <ele>264.3</ele>
        <time>2022-05-28T17:04:23Z</time>
      </trkpt>
      <trkpt lat="48.46676" lon="-3.80596">
        <ele>263.1</ele>
        <time>2022-05-28T17:04:32Z</time>
      </trkpt>
      <trkpt lat="48.46673" lon="-3.8059">
        <ele>262.8</ele>
        <time>2022-05-28T17:04:34Z</time>
      </trkpt>
      <trkpt lat="48.46666" lon="-3.80585">
        <ele>262.7</ele>
        <time>2022-05-28T17:04:35Z</time>
      </trkpt>
      <trkpt lat="48.46669" lon="-3.80544">
        <ele>262</ele>
        <time>2022-05-28T17:04:40Z</time>
      </trkpt>
      <trkpt lat="48.46697" lon="-3.80487">
        <ele>261.3</ele>
        <time>2022-05-28T17:04:45Z</time>
      </trkpt>
      <trkpt lat="48.46705" lon="-3.80474">
        <ele>260.8</ele>
        <time>2022-05-28T17:04:46Z</time>
      </trkpt>
      <trkpt lat="48.46735" lon="-3.80426">
        <ele>256.8</ele>
        <time>2022-05-28T17:04:50Z</time>
      </trkpt>
      <trkpt lat="48.46748" lon="-3.80401">
        <ele>254.9</ele>
        <time>2022-05-28T17:04:52Z</time>
      </trkpt>
      <trkpt lat="48.46768" lon="-3.80364">
        <ele>253.3</ele>
        <time>2022-05-28T17:04:55Z</time>
      </trkpt>
      <trkpt lat="48.46777" lon="-3.8034">
        <ele>252.2</ele>
        <time>2022-05-28T17:04:57Z</time>
      </trkpt>
      <trkpt lat="48.4678" lon="-3.80327">
        <ele>251.8</ele>
        <time>2022-05-28T17:04:58Z</time>
      </trkpt>
      <trkpt lat="48.46791" lon="-3.80275">
        <ele>251.3</ele>
        <time>2022-05-28T17:05:02Z</time>
      </trkpt>
      <trkpt lat="48.46803" lon="-3.80206">
        <ele>250.4</ele>
        <time>2022-05-28T17:05:08Z</time>
      </trkpt>
      <trkpt lat="48.46805" lon="-3.80194">
        <ele>250.3</ele>
        <time>2022-05-28T17:05:09Z</time>
      </trkpt>
      <trkpt lat="48.46815" lon="-3.80137">
        <ele>250.5</ele>
        <time>2022-05-28T17:05:14Z</time>
      </trkpt>
      <trkpt lat="48.46826" lon="-3.80062">
        <ele>250.7</ele>
        <time>2022-05-28T17:05:21Z</time>
      </trkpt>
      <trkpt lat="48.46842" lon="-3.80023">
        <ele>250.8</ele>
        <time>2022-05-28T17:05:25Z</time>
      </trkpt>
      <trkpt lat="48.46847" lon="-3.80001">
        <ele>250.8</ele>
        <time>2022-05-28T17:05:27Z</time>
      </trkpt>
      <trkpt lat="48.46862" lon="-3.79954">
        <ele>250.9</ele>
        <time>2022-05-28T17:05:32Z</time>
      </trkpt>
      <trkpt lat="48.46867" lon="-3.79885">
        <ele>251.2</ele>
        <time>2022-05-28T17:05:40Z</time>
      </trkpt>
      <trkpt lat="48.46868" lon="-3.7981">
        <ele>251.4</ele>
        <time>2022-05-28T17:05:49Z</time>
      </trkpt>
      <trkpt lat="48.46871" lon="-3.79796">
        <ele>251.4</ele>
        <time>2022-05-28T17:05:51Z</time>
      </trkpt>
      <trkpt lat="48.46866" lon="-3.79722">
        <ele>251.7</ele>
        <time>2022-05-28T17:06:00Z</time>
      </trkpt>
      <trkpt lat="48.4686" lon="-3.79653">
        <ele>251.8</ele>
        <time>2022-05-28T17:06:06Z</time>
      </trkpt>
      <trkpt lat="48.46854" lon="-3.79579">
        <ele>252.1</ele>
        <time>2022-05-28T17:06:14Z</time>
      </trkpt>
      <trkpt lat="48.46847" lon="-3.79511">
        <ele>252.3</ele>
        <time>2022-05-28T17:06:22Z</time>
      </trkpt>
      <trkpt lat="48.46839" lon="-3.79438">
        <ele>252.5</ele>
        <time>2022-05-28T17:06:31Z</time>
      </trkpt>
      <trkpt lat="48.46837" lon="-3.79416">
        <ele>252.6</ele>
        <time>2022-05-28T17:06:34Z</time>
      </trkpt>
      <trkpt lat="48.4683" lon="-3.79385">
        <ele>252.8</ele>
        <time>2022-05-28T17:06:39Z</time>
      </trkpt>
      <trkpt lat="48.46823" lon="-3.79347">
        <ele>254.3</ele>
        <time>2022-05-28T17:06:45Z</time>
      </trkpt>
      <trkpt lat="48.46815" lon="-3.7931">
        <ele>255.8</ele>
        <time>2022-05-28T17:06:51Z</time>
      </trkpt>
      <trkpt lat="48.46809" lon="-3.79278">
        <ele>256.5</ele>
        <time>2022-05-28T17:06:56Z</time>
      </trkpt>
      <trkpt lat="48.46803" lon="-3.79232">
        <ele>257.5</ele>
        <time>2022-05-28T17:07:03Z</time>
      </trkpt>
      <trkpt lat="48.46813" lon="-3.79176">
        <ele>259</ele>
        <time>2022-05-28T17:07:14Z</time>
      </trkpt>
      <trkpt lat="48.46814" lon="-3.79167">
        <ele>259.1</ele>
        <time>2022-05-28T17:07:16Z</time>
      </trkpt>
      <trkpt lat="48.46816" lon="-3.79158">
        <ele>259.2</ele>
        <time>2022-05-28T17:07:19Z</time>
      </trkpt>
      <trkpt lat="48.46825" lon="-3.79098">
        <ele>260.3</ele>
        <time>2022-05-28T17:07:39Z</time>
      </trkpt>
      <trkpt lat="48.46838" lon="-3.79028">
        <ele>261</ele>
        <time>2022-05-28T17:07:54Z</time>
      </trkpt>
      <trkpt lat="48.46847" lon="-3.78994">
        <ele>261.3</ele>
        <time>2022-05-28T17:08:00Z</time>
      </trkpt>
      <trkpt lat="48.46872" lon="-3.78932">
        <ele>262</ele>
        <time>2022-05-28T17:08:14Z</time>
      </trkpt>
      <trkpt lat="48.46881" lon="-3.78907">
        <ele>262.3</ele>
        <time>2022-05-28T17:08:19Z</time>
      </trkpt>
      <trkpt lat="48.46892" lon="-3.78877">
        <ele>262.8</ele>
        <time>2022-05-28T17:08:25Z</time>
      </trkpt>
      <trkpt lat="48.46894" lon="-3.78872">
        <ele>263</ele>
        <time>2022-05-28T17:08:26Z</time>
      </trkpt>
      <trkpt lat="48.46903" lon="-3.78847">
        <ele>263.8</ele>
        <time>2022-05-28T17:08:31Z</time>
      </trkpt>
      <trkpt lat="48.46914" lon="-3.78817">
        <ele>264</ele>
        <time>2022-05-28T17:08:37Z</time>
      </trkpt>
      <trkpt lat="48.46916" lon="-3.78812">
        <ele>264</ele>
        <time>2022-05-28T17:08:38Z</time>
      </trkpt>
      <trkpt lat="48.46937" lon="-3.78752">
        <ele>264.4</ele>
        <time>2022-05-28T17:08:49Z</time>
      </trkpt>
      <trkpt lat="48.46961" lon="-3.78689">
        <ele>264.8</ele>
        <time>2022-05-28T17:09:03Z</time>
      </trkpt>
      <trkpt lat="48.46984" lon="-3.78629">
        <ele>265.2</ele>
        <time>2022-05-28T17:09:13Z</time>
      </trkpt>
      <trkpt lat="48.47017" lon="-3.78577">
        <ele>265.5</ele>
        <time>2022-05-28T17:09:23Z</time>
      </trkpt>
      <trkpt lat="48.47052" lon="-3.78528">
        <ele>265.8</ele>
        <time>2022-05-28T17:09:33Z</time>
      </trkpt>
      <trkpt lat="48.47074" lon="-3.78498">
        <ele>266</ele>
        <time>2022-05-28T17:09:40Z</time>
      </trkpt>
      <trkpt lat="48.47106" lon="-3.78449">
        <ele>266.4</ele>
        <time>2022-05-28T17:09:51Z</time>
      </trkpt>
      <trkpt lat="48.47127" lon="-3.78413">
        <ele>266.7</ele>
        <time>2022-05-28T17:09:59Z</time>
      </trkpt>
      <trkpt lat="48.47138" lon="-3.78395">
        <ele>267.2</ele>
        <time>2022-05-28T17:10:03Z</time>
      </trkpt>
      <trkpt lat="48.47142" lon="-3.78385">
        <ele>267.4</ele>
        <time>2022-05-28T17:10:05Z</time>
      </trkpt>
      <trkpt lat="48.47156" lon="-3.78357">
        <ele>268.2</ele>
        <time>2022-05-28T17:10:11Z</time>
      </trkpt>
      <trkpt lat="48.47165" lon="-3.78339">
        <ele>268.6</ele>
        <time>2022-05-28T17:10:15Z</time>
      </trkpt>
      <trkpt lat="48.47186" lon="-3.78275">
        <ele>270.1</ele>
        <time>2022-05-28T17:10:29Z</time>
      </trkpt>
      <trkpt lat="48.472" lon="-3.78237">
        <ele>270.7</ele>
        <time>2022-05-28T17:10:35Z</time>
      </trkpt>
      <trkpt lat="48.47209" lon="-3.78213">
        <ele>271</ele>
        <time>2022-05-28T17:10:39Z</time>
      </trkpt>
      <trkpt lat="48.4723" lon="-3.78152">
        <ele>271.7</ele>
        <time>2022-05-28T17:10:49Z</time>
      </trkpt>
      <trkpt lat="48.4725" lon="-3.78091">
        <ele>272.5</ele>
        <time>2022-05-28T17:11:00Z</time>
      </trkpt>
      <trkpt lat="48.47272" lon="-3.78025">
        <ele>273.4</ele>
        <time>2022-05-28T17:11:12Z</time>
      </trkpt>
      <trkpt lat="48.47284" lon="-3.77997">
        <ele>273.8</ele>
        <time>2022-05-28T17:11:17Z</time>
      </trkpt>
      <trkpt lat="48.47298" lon="-3.77963">
        <ele>274.6</ele>
        <time>2022-05-28T17:11:23Z</time>
      </trkpt>
      <trkpt lat="48.47309" lon="-3.77938">
        <ele>275.3</ele>
        <time>2022-05-28T17:11:28Z</time>
      </trkpt>
      <trkpt lat="48.47325" lon="-3.77902">
        <ele>276.1</ele>
        <time>2022-05-28T17:11:35Z</time>
      </trkpt>
      <trkpt lat="48.47336" lon="-3.77877">
        <ele>276.6</ele>
        <time>2022-05-28T17:11:40Z</time>
      </trkpt>
      <trkpt lat="48.47352" lon="-3.77843">
        <ele>277.9</ele>
        <time>2022-05-28T17:11:47Z</time>
      </trkpt>
      <trkpt lat="48.4736" lon="-3.77825">
        <ele>278.6</ele>
        <time>2022-05-28T17:11:51Z</time>
      </trkpt>
      <trkpt lat="48.47372" lon="-3.77797">
        <ele>278.3</ele>
        <time>2022-05-28T17:11:57Z</time>
      </trkpt>
      <trkpt lat="48.47376" lon="-3.77788">
        <ele>278.5</ele>
        <time>2022-05-28T17:11:59Z</time>
      </trkpt>
      <trkpt lat="48.47377" lon="-3.77782">
        <ele>278.7</ele>
        <time>2022-05-28T17:12:02Z</time>
      </trkpt>
      <trkpt lat="48.47331" lon="-3.77762">
        <ele>280</ele>
        <time>2022-05-28T17:12:20Z</time>
      </trkpt>
      <trkpt lat="48.47285" lon="-3.77736">
        <ele>280.9</ele>
        <time>2022-05-28T17:12:33Z</time>
      </trkpt>
      <trkpt lat="48.47244" lon="-3.77713">
        <ele>281.7</ele>
        <time>2022-05-28T17:12:44Z</time>
      </trkpt>
      <trkpt lat="48.4724" lon="-3.77709">
        <ele>281.8</ele>
        <time>2022-05-28T17:12:45Z</time>
      </trkpt>
      <trkpt lat="48.47237" lon="-3.77707">
        <ele>281.9</ele>
        <time>2022-05-28T17:12:46Z</time>
      </trkpt>
      <trkpt lat="48.47218" lon="-3.77697">
        <ele>282.6</ele>
        <time>2022-05-28T17:12:51Z</time>
      </trkpt>
      <trkpt lat="48.47195" lon="-3.77685">
        <ele>283.3</ele>
        <time>2022-05-28T17:12:57Z</time>
      </trkpt>
      <trkpt lat="48.47192" lon="-3.77684">
        <ele>283.4</ele>
        <time>2022-05-28T17:12:58Z</time>
      </trkpt>
      <trkpt lat="48.47177" lon="-3.77675">
        <ele>284</ele>
        <time>2022-05-28T17:13:03Z</time>
      </trkpt>
      <trkpt lat="48.47148" lon="-3.77659">
        <ele>284.8</ele>
        <time>2022-05-28T17:13:13Z</time>
      </trkpt>
      <trkpt lat="48.47104" lon="-3.7763">
        <ele>285.9</ele>
        <time>2022-05-28T17:13:26Z</time>
      </trkpt>
      <trkpt lat="48.4707" lon="-3.77601">
        <ele>286.7</ele>
        <time>2022-05-28T17:13:36Z</time>
      </trkpt>
      <trkpt lat="48.47065" lon="-3.77577">
        <ele>286.9</ele>
        <time>2022-05-28T17:13:38Z</time>
      </trkpt>
      <trkpt lat="48.47066" lon="-3.77567">
        <ele>286.9</ele>
        <time>2022-05-28T17:13:39Z</time>
      </trkpt>
      <trkpt lat="48.47057" lon="-3.77549">
        <ele>287.2</ele>
        <time>2022-05-28T17:13:42Z</time>
      </trkpt>
      <trkpt lat="48.47052" lon="-3.77543">
        <ele>287.2</ele>
        <time>2022-05-28T17:13:43Z</time>
      </trkpt>
      <trkpt lat="48.47036" lon="-3.77473">
        <ele>286.6</ele>
        <time>2022-05-28T17:13:52Z</time>
      </trkpt>
      <trkpt lat="48.47023" lon="-3.77405">
        <ele>286.1</ele>
        <time>2022-05-28T17:14:00Z</time>
      </trkpt>
      <trkpt lat="48.47008" lon="-3.77335">
        <ele>285.6</ele>
        <time>2022-05-28T17:14:08Z</time>
      </trkpt>
      <trkpt lat="48.46992" lon="-3.77262">
        <ele>285.1</ele>
        <time>2022-05-28T17:14:16Z</time>
      </trkpt>
      <trkpt lat="48.46988" lon="-3.77241">
        <ele>284.9</ele>
        <time>2022-05-28T17:14:18Z</time>
      </trkpt>
      <trkpt lat="48.46977" lon="-3.77188">
        <ele>283.6</ele>
        <time>2022-05-28T17:14:23Z</time>
      </trkpt>
      <trkpt lat="48.4696" lon="-3.77117">
        <ele>282</ele>
        <time>2022-05-28T17:14:29Z</time>
      </trkpt>
      <trkpt lat="48.46957" lon="-3.77104">
        <ele>281.7</ele>
        <time>2022-05-28T17:14:30Z</time>
      </trkpt>
      <trkpt lat="48.46943" lon="-3.77039">
        <ele>280.1</ele>
        <time>2022-05-28T17:14:35Z</time>
      </trkpt>
      <trkpt lat="48.46929" lon="-3.76971">
        <ele>278.4</ele>
        <time>2022-05-28T17:14:40Z</time>
      </trkpt>
      <trkpt lat="48.46924" lon="-3.76945">
        <ele>277.8</ele>
        <time>2022-05-28T17:14:42Z</time>
      </trkpt>
      <trkpt lat="48.46917" lon="-3.76906">
        <ele>276.9</ele>
        <time>2022-05-28T17:14:45Z</time>
      </trkpt>
      <trkpt lat="48.46901" lon="-3.76829">
        <ele>275</ele>
        <time>2022-05-28T17:14:51Z</time>
      </trkpt>
      <trkpt lat="48.46892" lon="-3.7679">
        <ele>274.1</ele>
        <time>2022-05-28T17:14:54Z</time>
      </trkpt>
      <trkpt lat="48.46889" lon="-3.76777">
        <ele>274</ele>
        <time>2022-05-28T17:14:55Z</time>
      </trkpt>
      <trkpt lat="48.46871" lon="-3.76714">
        <ele>273.2</ele>
        <time>2022-05-28T17:15:00Z</time>
      </trkpt>
      <trkpt lat="48.46858" lon="-3.76647">
        <ele>272.3</ele>
        <time>2022-05-28T17:15:05Z</time>
      </trkpt>
      <trkpt lat="48.46856" lon="-3.76634">
        <ele>272.2</ele>
        <time>2022-05-28T17:15:06Z</time>
      </trkpt>
      <trkpt lat="48.46846" lon="-3.76581">
        <ele>271.9</ele>
        <time>2022-05-28T17:15:10Z</time>
      </trkpt>
      <trkpt lat="48.46841" lon="-3.76556">
        <ele>271.8</ele>
        <time>2022-05-28T17:15:12Z</time>
      </trkpt>
      <trkpt lat="48.46832" lon="-3.76507">
        <ele>272.3</ele>
        <time>2022-05-28T17:15:16Z</time>
      </trkpt>
      <trkpt lat="48.46817" lon="-3.76436">
        <ele>273.2</ele>
        <time>2022-05-28T17:15:23Z</time>
      </trkpt>
      <trkpt lat="48.46805" lon="-3.76381">
        <ele>274.1</ele>
        <time>2022-05-28T17:15:30Z</time>
      </trkpt>
      <trkpt lat="48.46802" lon="-3.76366">
        <ele>274.4</ele>
        <time>2022-05-28T17:15:32Z</time>
      </trkpt>
      <trkpt lat="48.46788" lon="-3.76296">
        <ele>275.9</ele>
        <time>2022-05-28T17:15:42Z</time>
      </trkpt>
      <trkpt lat="48.46782" lon="-3.76241">
        <ele>277.2</ele>
        <time>2022-05-28T17:15:51Z</time>
      </trkpt>
      <trkpt lat="48.4678" lon="-3.76223">
        <ele>277.7</ele>
        <time>2022-05-28T17:15:54Z</time>
      </trkpt>
      <trkpt lat="48.46778" lon="-3.76217">
        <ele>277.9</ele>
        <time>2022-05-28T17:15:55Z</time>
      </trkpt>
      <trkpt lat="48.46771" lon="-3.76148">
        <ele>279.8</ele>
        <time>2022-05-28T17:16:06Z</time>
      </trkpt>
      <trkpt lat="48.46769" lon="-3.7613">
        <ele>280.3</ele>
        <time>2022-05-28T17:16:09Z</time>
      </trkpt>
      <trkpt lat="48.46762" lon="-3.76076">
        <ele>281.6</ele>
        <time>2022-05-28T17:16:18Z</time>
      </trkpt>
      <trkpt lat="48.46752" lon="-3.7601">
        <ele>283.1</ele>
        <time>2022-05-28T17:16:29Z</time>
      </trkpt>
      <trkpt lat="48.46749" lon="-3.75992">
        <ele>283.5</ele>
        <time>2022-05-28T17:16:32Z</time>
      </trkpt>
      <trkpt lat="48.46742" lon="-3.75957">
        <ele>284.2</ele>
        <time>2022-05-28T17:16:38Z</time>
      </trkpt>
      <trkpt lat="48.46739" lon="-3.7594">
        <ele>284.6</ele>
        <time>2022-05-28T17:16:41Z</time>
      </trkpt>
      <trkpt lat="48.46735" lon="-3.75923">
        <ele>285.1</ele>
        <time>2022-05-28T17:16:44Z</time>
      </trkpt>
      <trkpt lat="48.46723" lon="-3.75873">
        <ele>286.1</ele>
        <time>2022-05-28T17:16:53Z</time>
      </trkpt>
      <trkpt lat="48.46702" lon="-3.75806">
        <ele>287.3</ele>
        <time>2022-05-28T17:17:04Z</time>
      </trkpt>
      <trkpt lat="48.46696" lon="-3.75785">
        <ele>287.7</ele>
        <time>2022-05-28T17:17:08Z</time>
      </trkpt>
      <trkpt lat="48.46681" lon="-3.75738">
        <ele>286.6</ele>
        <time>2022-05-28T17:17:17Z</time>
      </trkpt>
      <trkpt lat="48.46665" lon="-3.75666">
        <ele>285.5</ele>
        <time>2022-05-28T17:17:27Z</time>
      </trkpt>
      <trkpt lat="48.46655" lon="-3.7562">
        <ele>284.9</ele>
        <time>2022-05-28T17:17:32Z</time>
      </trkpt>
      <trkpt lat="48.46651" lon="-3.75601">
        <ele>284.1</ele>
        <time>2022-05-28T17:17:34Z</time>
      </trkpt>
      <trkpt lat="48.46643" lon="-3.75557">
        <ele>282.6</ele>
        <time>2022-05-28T17:17:38Z</time>
      </trkpt>
      <trkpt lat="48.46641" lon="-3.75545">
        <ele>282.1</ele>
        <time>2022-05-28T17:17:39Z</time>
      </trkpt>
      <trkpt lat="48.46623" lon="-3.75471">
        <ele>279.6</ele>
        <time>2022-05-28T17:17:45Z</time>
      </trkpt>
      <trkpt lat="48.46611" lon="-3.75434">
        <ele>278.4</ele>
        <time>2022-05-28T17:17:48Z</time>
      </trkpt>
      <trkpt lat="48.46602" lon="-3.75411">
        <ele>278.1</ele>
        <time>2022-05-28T17:17:50Z</time>
      </trkpt>
      <trkpt lat="48.46562" lon="-3.75359">
        <ele>277.1</ele>
        <time>2022-05-28T17:17:56Z</time>
      </trkpt>
      <trkpt lat="48.4652" lon="-3.75313">
        <ele>275.9</ele>
        <time>2022-05-28T17:18:03Z</time>
      </trkpt>
      <trkpt lat="48.46515" lon="-3.75307">
        <ele>275.8</ele>
        <time>2022-05-28T17:18:04Z</time>
      </trkpt>
      <trkpt lat="48.46481" lon="-3.75269">
        <ele>275.6</ele>
        <time>2022-05-28T17:18:10Z</time>
      </trkpt>
      <trkpt lat="48.46457" lon="-3.75232">
        <ele>275.5</ele>
        <time>2022-05-28T17:18:15Z</time>
      </trkpt>
      <trkpt lat="48.46434" lon="-3.75166">
        <ele>275.4</ele>
        <time>2022-05-28T17:18:22Z</time>
      </trkpt>
      <trkpt lat="48.46423" lon="-3.75126">
        <ele>275.3</ele>
        <time>2022-05-28T17:18:26Z</time>
      </trkpt>
      <trkpt lat="48.46406" lon="-3.75063">
        <ele>275.2</ele>
        <time>2022-05-28T17:18:33Z</time>
      </trkpt>
      <trkpt lat="48.46405" lon="-3.75045">
        <ele>275.1</ele>
        <time>2022-05-28T17:18:35Z</time>
      </trkpt>
      <trkpt lat="48.46421" lon="-3.74977">
        <ele>275</ele>
        <time>2022-05-28T17:18:42Z</time>
      </trkpt>
      <trkpt lat="48.46436" lon="-3.74907">
        <ele>274.8</ele>
        <time>2022-05-28T17:18:50Z</time>
      </trkpt>
      <trkpt lat="48.46441" lon="-3.7489">
        <ele>274.8</ele>
        <time>2022-05-28T17:18:52Z</time>
      </trkpt>
      <trkpt lat="48.46454" lon="-3.74841">
        <ele>274.2</ele>
        <time>2022-05-28T17:18:58Z</time>
      </trkpt>
      <trkpt lat="48.46476" lon="-3.74797">
        <ele>273.6</ele>
        <time>2022-05-28T17:19:04Z</time>
      </trkpt>
      <trkpt lat="48.4648" lon="-3.7479">
        <ele>273.6</ele>
        <time>2022-05-28T17:19:05Z</time>
      </trkpt>
      <trkpt lat="48.46507" lon="-3.74735">
        <ele>274</ele>
        <time>2022-05-28T17:19:13Z</time>
      </trkpt>
      <trkpt lat="48.46539" lon="-3.74677">
        <ele>274.4</ele>
        <time>2022-05-28T17:19:22Z</time>
      </trkpt>
      <trkpt lat="48.46559" lon="-3.74635">
        <ele>274.7</ele>
        <time>2022-05-28T17:19:28Z</time>
      </trkpt>
      <trkpt lat="48.46576" lon="-3.74614">
        <ele>274.9</ele>
        <time>2022-05-28T17:19:32Z</time>
      </trkpt>
      <trkpt lat="48.46585" lon="-3.74607">
        <ele>275</ele>
        <time>2022-05-28T17:19:34Z</time>
      </trkpt>
      <trkpt lat="48.46593" lon="-3.74596">
        <ele>275.1</ele>
        <time>2022-05-28T17:19:36Z</time>
      </trkpt>
      <trkpt lat="48.46629" lon="-3.74554">
        <ele>275.5</ele>
        <time>2022-05-28T17:19:44Z</time>
      </trkpt>
      <trkpt lat="48.46647" lon="-3.74524">
        <ele>275.7</ele>
        <time>2022-05-28T17:19:49Z</time>
      </trkpt>
      <trkpt lat="48.46666" lon="-3.7448">
        <ele>276.1</ele>
        <time>2022-05-28T17:19:56Z</time>
      </trkpt>
      <trkpt lat="48.46673" lon="-3.74462">
        <ele>276.5</ele>
        <time>2022-05-28T17:19:59Z</time>
      </trkpt>
      <trkpt lat="48.46693" lon="-3.74397">
        <ele>278.1</ele>
        <time>2022-05-28T17:20:10Z</time>
      </trkpt>
      <trkpt lat="48.46697" lon="-3.74385">
        <ele>278.3</ele>
        <time>2022-05-28T17:20:12Z</time>
      </trkpt>
      <trkpt lat="48.46707" lon="-3.74352">
        <ele>278.6</ele>
        <time>2022-05-28T17:20:17Z</time>
      </trkpt>
      <trkpt lat="48.46724" lon="-3.74288">
        <ele>279.1</ele>
        <time>2022-05-28T17:20:26Z</time>
      </trkpt>
      <trkpt lat="48.46744" lon="-3.74218">
        <ele>279.6</ele>
        <time>2022-05-28T17:20:35Z</time>
      </trkpt>
      <trkpt lat="48.4676" lon="-3.74152">
        <ele>280.1</ele>
        <time>2022-05-28T17:20:43Z</time>
      </trkpt>
      <trkpt lat="48.4678" lon="-3.7409">
        <ele>280.5</ele>
        <time>2022-05-28T17:20:51Z</time>
      </trkpt>
      <trkpt lat="48.46799" lon="-3.74034">
        <ele>281</ele>
        <time>2022-05-28T17:20:59Z</time>
      </trkpt>
      <trkpt lat="48.46801" lon="-3.74027">
        <ele>281.1</ele>
        <time>2022-05-28T17:21:00Z</time>
      </trkpt>
      <trkpt lat="48.46822" lon="-3.73966">
        <ele>282.3</ele>
        <time>2022-05-28T17:21:10Z</time>
      </trkpt>
      <trkpt lat="48.46831" lon="-3.73933">
        <ele>283.1</ele>
        <time>2022-05-28T17:21:16Z</time>
      </trkpt>
      <trkpt lat="48.46831" lon="-3.73926">
        <ele>283.1</ele>
        <time>2022-05-28T17:21:17Z</time>
      </trkpt>
      <trkpt lat="48.46838" lon="-3.73872">
        <ele>282.2</ele>
        <time>2022-05-28T17:21:25Z</time>
      </trkpt>
      <trkpt lat="48.4685" lon="-3.73867">
        <ele>282.1</ele>
        <time>2022-05-28T17:21:26Z</time>
      </trkpt>
      <trkpt lat="48.46857" lon="-3.73855">
        <ele>281.8</ele>
        <time>2022-05-28T17:21:29Z</time>
      </trkpt>
      <trkpt lat="48.46864" lon="-3.73844">
        <ele>282.3</ele>
        <time>2022-05-28T17:21:32Z</time>
      </trkpt>
      <trkpt lat="48.46869" lon="-3.73831">
        <ele>282.9</ele>
        <time>2022-05-28T17:21:35Z</time>
      </trkpt>
      <trkpt lat="48.46901" lon="-3.73782">
        <ele>285</ele>
        <time>2022-05-28T17:21:40Z</time>
      </trkpt>
      <trkpt lat="48.46901" lon="-3.73782">
        <ele>285</ele>
        <time>2022-05-28T17:22:16Z</time>
      </trkpt>
      <trkpt lat="48.46924" lon="-3.73745">
        <ele>286.6</ele>
        <time>2022-05-28T17:22:24Z</time>
      </trkpt>
      <trkpt lat="48.46958" lon="-3.73694">
        <ele>287.2</ele>
        <time>2022-05-28T17:22:36Z</time>
      </trkpt>
      <trkpt lat="48.46973" lon="-3.73678">
        <ele>287.5</ele>
        <time>2022-05-28T17:22:41Z</time>
      </trkpt>
      <trkpt lat="48.4701" lon="-3.73636">
        <ele>288.1</ele>
        <time>2022-05-28T17:22:53Z</time>
      </trkpt>
      <trkpt lat="48.47027" lon="-3.7362">
        <ele>288.3</ele>
        <time>2022-05-28T17:22:58Z</time>
      </trkpt>
      <trkpt lat="48.47041" lon="-3.73607">
        <ele>288.6</ele>
        <time>2022-05-28T17:23:02Z</time>
      </trkpt>
      <trkpt lat="48.47073" lon="-3.73573">
        <ele>289.3</ele>
        <time>2022-05-28T17:23:12Z</time>
      </trkpt>
      <trkpt lat="48.47077" lon="-3.7357">
        <ele>289.3</ele>
        <time>2022-05-28T17:23:13Z</time>
      </trkpt>
      <trkpt lat="48.47116" lon="-3.73528">
        <ele>290.1</ele>
        <time>2022-05-28T17:23:25Z</time>
      </trkpt>
      <trkpt lat="48.47132" lon="-3.73511">
        <ele>290.5</ele>
        <time>2022-05-28T17:23:30Z</time>
      </trkpt>
      <trkpt lat="48.47173" lon="-3.73472">
        <ele>291.3</ele>
        <time>2022-05-28T17:23:42Z</time>
      </trkpt>
      <trkpt lat="48.47202" lon="-3.73436">
        <ele>291.8</ele>
        <time>2022-05-28T17:23:51Z</time>
      </trkpt>
      <trkpt lat="48.47208" lon="-3.73428">
        <ele>291.7</ele>
        <time>2022-05-28T17:23:53Z</time>
      </trkpt>
      <trkpt lat="48.47244" lon="-3.73382">
        <ele>291.2</ele>
        <time>2022-05-28T17:24:04Z</time>
      </trkpt>
      <trkpt lat="48.47278" lon="-3.73332">
        <ele>290.7</ele>
        <time>2022-05-28T17:24:14Z</time>
      </trkpt>
      <trkpt lat="48.4731" lon="-3.73275">
        <ele>290.3</ele>
        <time>2022-05-28T17:24:24Z</time>
      </trkpt>
      <trkpt lat="48.47339" lon="-3.73214">
        <ele>289.9</ele>
        <time>2022-05-28T17:24:33Z</time>
      </trkpt>
      <trkpt lat="48.47369" lon="-3.73153">
        <ele>289.4</ele>
        <time>2022-05-28T17:24:42Z</time>
      </trkpt>
      <trkpt lat="48.47402" lon="-3.73094">
        <ele>289.1</ele>
        <time>2022-05-28T17:24:50Z</time>
      </trkpt>
      <trkpt lat="48.47422" lon="-3.73057">
        <ele>288.8</ele>
        <time>2022-05-28T17:24:55Z</time>
      </trkpt>
      <trkpt lat="48.47429" lon="-3.73043">
        <ele>288.8</ele>
        <time>2022-05-28T17:24:57Z</time>
      </trkpt>
      <trkpt lat="48.47435" lon="-3.73024">
        <ele>288.8</ele>
        <time>2022-05-28T17:25:00Z</time>
      </trkpt>
      <trkpt lat="48.4748" lon="-3.72993">
        <ele>288.6</ele>
        <time>2022-05-28T17:25:09Z</time>
      </trkpt>
      <trkpt lat="48.4752" lon="-3.72957">
        <ele>288.5</ele>
        <time>2022-05-28T17:25:18Z</time>
      </trkpt>
      <trkpt lat="48.4756" lon="-3.72916">
        <ele>288.4</ele>
        <time>2022-05-28T17:25:27Z</time>
      </trkpt>
      <trkpt lat="48.47599" lon="-3.72879">
        <ele>288.2</ele>
        <time>2022-05-28T17:25:36Z</time>
      </trkpt>
      <trkpt lat="48.47639" lon="-3.72847">
        <ele>288.1</ele>
        <time>2022-05-28T17:25:45Z</time>
      </trkpt>
      <trkpt lat="48.47686" lon="-3.72835">
        <ele>287.9</ele>
        <time>2022-05-28T17:25:55Z</time>
      </trkpt>
      <trkpt lat="48.47735" lon="-3.72828">
        <ele>287.8</ele>
        <time>2022-05-28T17:26:03Z</time>
      </trkpt>
      <trkpt lat="48.47774" lon="-3.72816">
        <ele>287.7</ele>
        <time>2022-05-28T17:26:09Z</time>
      </trkpt>
      <trkpt lat="48.47787" lon="-3.72801">
        <ele>287.7</ele>
        <time>2022-05-28T17:26:11Z</time>
      </trkpt>
      <trkpt lat="48.47792" lon="-3.72793">
        <ele>287.7</ele>
        <time>2022-05-28T17:26:12Z</time>
      </trkpt>
      <trkpt lat="48.4782" lon="-3.72742">
        <ele>287.1</ele>
        <time>2022-05-28T17:26:18Z</time>
      </trkpt>
      <trkpt lat="48.47835" lon="-3.72712">
        <ele>286.8</ele>
        <time>2022-05-28T17:26:22Z</time>
      </trkpt>
      <trkpt lat="48.4785" lon="-3.72681">
        <ele>287.1</ele>
        <time>2022-05-28T17:26:26Z</time>
      </trkpt>
      <trkpt lat="48.47871" lon="-3.72615">
        <ele>287.7</ele>
        <time>2022-05-28T17:26:34Z</time>
      </trkpt>
      <trkpt lat="48.47879" lon="-3.72582">
        <ele>288</ele>
        <time>2022-05-28T17:26:38Z</time>
      </trkpt>
      <trkpt lat="48.47887" lon="-3.72507">
        <ele>288.6</ele>
        <time>2022-05-28T17:26:46Z</time>
      </trkpt>
      <trkpt lat="48.47893" lon="-3.72433">
        <ele>289.2</ele>
        <time>2022-05-28T17:26:55Z</time>
      </trkpt>
      <trkpt lat="48.47898" lon="-3.72371">
        <ele>289.9</ele>
        <time>2022-05-28T17:27:04Z</time>
      </trkpt>
      <trkpt lat="48.47913" lon="-3.72306">
        <ele>291.3</ele>
        <time>2022-05-28T17:27:13Z</time>
      </trkpt>
      <trkpt lat="48.47934" lon="-3.72246">
        <ele>292.6</ele>
        <time>2022-05-28T17:27:22Z</time>
      </trkpt>
      <trkpt lat="48.47937" lon="-3.72239">
        <ele>292.7</ele>
        <time>2022-05-28T17:27:23Z</time>
      </trkpt>
      <trkpt lat="48.47964" lon="-3.72182">
        <ele>293.3</ele>
        <time>2022-05-28T17:27:32Z</time>
      </trkpt>
      <trkpt lat="48.47993" lon="-3.72127">
        <ele>293.9</ele>
        <time>2022-05-28T17:27:41Z</time>
      </trkpt>
      <trkpt lat="48.48006" lon="-3.72099">
        <ele>294.3</ele>
        <time>2022-05-28T17:27:46Z</time>
      </trkpt>
      <trkpt lat="48.4802" lon="-3.72071">
        <ele>294.7</ele>
        <time>2022-05-28T17:27:51Z</time>
      </trkpt>
      <trkpt lat="48.48023" lon="-3.72066">
        <ele>294.8</ele>
        <time>2022-05-28T17:27:52Z</time>
      </trkpt>
      <trkpt lat="48.48034" lon="-3.72045">
        <ele>295.5</ele>
        <time>2022-05-28T17:27:56Z</time>
      </trkpt>
      <trkpt lat="48.48037" lon="-3.72034">
        <ele>295.8</ele>
        <time>2022-05-28T17:27:58Z</time>
      </trkpt>
      <trkpt lat="48.48052" lon="-3.71982">
        <ele>296.9</ele>
        <time>2022-05-28T17:28:07Z</time>
      </trkpt>
      <trkpt lat="48.48067" lon="-3.71931">
        <ele>297.8</ele>
        <time>2022-05-28T17:28:15Z</time>
      </trkpt>
      <trkpt lat="48.48071" lon="-3.71918">
        <ele>297.6</ele>
        <time>2022-05-28T17:28:17Z</time>
      </trkpt>
      <trkpt lat="48.48087" lon="-3.71853">
        <ele>296.7</ele>
        <time>2022-05-28T17:28:25Z</time>
      </trkpt>
      <trkpt lat="48.48096" lon="-3.71785">
        <ele>296</ele>
        <time>2022-05-28T17:28:32Z</time>
      </trkpt>
      <trkpt lat="48.48098" lon="-3.71775">
        <ele>295.8</ele>
        <time>2022-05-28T17:28:33Z</time>
      </trkpt>
      <trkpt lat="48.4811" lon="-3.71704">
        <ele>295</ele>
        <time>2022-05-28T17:28:40Z</time>
      </trkpt>
      <trkpt lat="48.48118" lon="-3.71657">
        <ele>294.4</ele>
        <time>2022-05-28T17:28:45Z</time>
      </trkpt>
      <trkpt lat="48.48121" lon="-3.71638">
        <ele>294.4</ele>
        <time>2022-05-28T17:28:47Z</time>
      </trkpt>
      <trkpt lat="48.48133" lon="-3.71566">
        <ele>294.7</ele>
        <time>2022-05-28T17:28:55Z</time>
      </trkpt>
      <trkpt lat="48.48135" lon="-3.71549">
        <ele>294.8</ele>
        <time>2022-05-28T17:28:57Z</time>
      </trkpt>
      <trkpt lat="48.48137" lon="-3.71524">
        <ele>294.9</ele>
        <time>2022-05-28T17:29:00Z</time>
      </trkpt>
      <trkpt lat="48.48135" lon="-3.71462">
        <ele>295.3</ele>
        <time>2022-05-28T17:29:09Z</time>
      </trkpt>
      <trkpt lat="48.48135" lon="-3.71456">
        <ele>295.4</ele>
        <time>2022-05-28T17:29:10Z</time>
      </trkpt>
      <trkpt lat="48.48134" lon="-3.71428">
        <ele>295.9</ele>
        <time>2022-05-28T17:29:15Z</time>
      </trkpt>
      <trkpt lat="48.48133" lon="-3.71388">
        <ele>297.1</ele>
        <time>2022-05-28T17:29:22Z</time>
      </trkpt>
      <trkpt lat="48.48132" lon="-3.71362">
        <ele>297.9</ele>
        <time>2022-05-28T17:29:27Z</time>
      </trkpt>
      <trkpt lat="48.48131" lon="-3.71331">
        <ele>298.2</ele>
        <time>2022-05-28T17:29:33Z</time>
      </trkpt>
      <trkpt lat="48.4813" lon="-3.7132">
        <ele>298.4</ele>
        <time>2022-05-28T17:29:35Z</time>
      </trkpt>
      <trkpt lat="48.48126" lon="-3.71265">
        <ele>299.5</ele>
        <time>2022-05-28T17:29:45Z</time>
      </trkpt>
      <trkpt lat="48.48114" lon="-3.71194">
        <ele>300.9</ele>
        <time>2022-05-28T17:29:58Z</time>
      </trkpt>
      <trkpt lat="48.48112" lon="-3.71183">
        <ele>301.1</ele>
        <time>2022-05-28T17:30:00Z</time>
      </trkpt>
      <trkpt lat="48.48108" lon="-3.71168">
        <ele>301.4</ele>
        <time>2022-05-28T17:30:03Z</time>
      </trkpt>
      <trkpt lat="48.48096" lon="-3.71115">
        <ele>302.5</ele>
        <time>2022-05-28T17:30:13Z</time>
      </trkpt>
      <trkpt lat="48.48088" lon="-3.71081">
        <ele>303.2</ele>
        <time>2022-05-28T17:30:19Z</time>
      </trkpt>
      <trkpt lat="48.48086" lon="-3.71076">
        <ele>303.2</ele>
        <time>2022-05-28T17:30:20Z</time>
      </trkpt>
      <trkpt lat="48.48075" lon="-3.71029">
        <ele>303.1</ele>
        <time>2022-05-28T17:30:28Z</time>
      </trkpt>
      <trkpt lat="48.48072" lon="-3.71023">
        <ele>303.1</ele>
        <time>2022-05-28T17:30:29Z</time>
      </trkpt>
      <trkpt lat="48.48056" lon="-3.70956">
        <ele>302.9</ele>
        <time>2022-05-28T17:30:40Z</time>
      </trkpt>
      <trkpt lat="48.4804" lon="-3.70888">
        <ele>302.7</ele>
        <time>2022-05-28T17:30:52Z</time>
      </trkpt>
      <trkpt lat="48.48038" lon="-3.70815">
        <ele>302.6</ele>
        <time>2022-05-28T17:31:02Z</time>
      </trkpt>
      <trkpt lat="48.48035" lon="-3.70746">
        <ele>302.4</ele>
        <time>2022-05-28T17:31:13Z</time>
      </trkpt>
      <trkpt lat="48.48032" lon="-3.70678">
        <ele>302.2</ele>
        <time>2022-05-28T17:31:24Z</time>
      </trkpt>
      <trkpt lat="48.4803" lon="-3.70606">
        <ele>302</ele>
        <time>2022-05-28T17:31:34Z</time>
      </trkpt>
      <trkpt lat="48.48029" lon="-3.70572">
        <ele>301.9</ele>
        <time>2022-05-28T17:31:38Z</time>
      </trkpt>
      <trkpt lat="48.48029" lon="-3.70537">
        <ele>301</ele>
        <time>2022-05-28T17:31:42Z</time>
      </trkpt>
      <trkpt lat="48.48034" lon="-3.70498">
        <ele>300.1</ele>
        <time>2022-05-28T17:31:46Z</time>
      </trkpt>
      <trkpt lat="48.48037" lon="-3.70489">
        <ele>299.9</ele>
        <time>2022-05-28T17:31:47Z</time>
      </trkpt>
      <trkpt lat="48.48039" lon="-3.70478">
        <ele>299.7</ele>
        <time>2022-05-28T17:31:48Z</time>
      </trkpt>
      <trkpt lat="48.48054" lon="-3.70418">
        <ele>298.4</ele>
        <time>2022-05-28T17:31:54Z</time>
      </trkpt>
      <trkpt lat="48.48057" lon="-3.70398">
        <ele>298</ele>
        <time>2022-05-28T17:31:56Z</time>
      </trkpt>
      <trkpt lat="48.48059" lon="-3.70388">
        <ele>298.1</ele>
        <time>2022-05-28T17:31:57Z</time>
      </trkpt>
      <trkpt lat="48.48068" lon="-3.70356">
        <ele>298.4</ele>
        <time>2022-05-28T17:32:01Z</time>
      </trkpt>
      <trkpt lat="48.48075" lon="-3.70302">
        <ele>298.9</ele>
        <time>2022-05-28T17:32:08Z</time>
      </trkpt>
      <trkpt lat="48.48077" lon="-3.70287">
        <ele>298.7</ele>
        <time>2022-05-28T17:32:10Z</time>
      </trkpt>
      <trkpt lat="48.48082" lon="-3.70214">
        <ele>297.6</ele>
        <time>2022-05-28T17:32:18Z</time>
      </trkpt>
      <trkpt lat="48.48083" lon="-3.70194">
        <ele>297.4</ele>
        <time>2022-05-28T17:32:20Z</time>
      </trkpt>
      <trkpt lat="48.48085" lon="-3.70146">
        <ele>297.4</ele>
        <time>2022-05-28T17:32:25Z</time>
      </trkpt>
      <trkpt lat="48.4809" lon="-3.70069">
        <ele>298</ele>
        <time>2022-05-28T17:32:33Z</time>
      </trkpt>
      <trkpt lat="48.48094" lon="-3.69996">
        <ele>298.6</ele>
        <time>2022-05-28T17:32:41Z</time>
      </trkpt>
      <trkpt lat="48.48098" lon="-3.69928">
        <ele>299.3</ele>
        <time>2022-05-28T17:32:51Z</time>
      </trkpt>
      <trkpt lat="48.48099" lon="-3.69918">
        <ele>299.5</ele>
        <time>2022-05-28T17:32:53Z</time>
      </trkpt>
      <trkpt lat="48.48102" lon="-3.69896">
        <ele>300.2</ele>
        <time>2022-05-28T17:32:57Z</time>
      </trkpt>
      <trkpt lat="48.48111" lon="-3.69825">
        <ele>302.5</ele>
        <time>2022-05-28T17:33:09Z</time>
      </trkpt>
      <trkpt lat="48.48113" lon="-3.69813">
        <ele>302.8</ele>
        <time>2022-05-28T17:33:11Z</time>
      </trkpt>
      <trkpt lat="48.48116" lon="-3.69795">
        <ele>303.1</ele>
        <time>2022-05-28T17:33:14Z</time>
      </trkpt>
      <trkpt lat="48.48118" lon="-3.69775">
        <ele>303.4</ele>
        <time>2022-05-28T17:33:17Z</time>
      </trkpt>
      <trkpt lat="48.48123" lon="-3.69723">
        <ele>302.8</ele>
        <time>2022-05-28T17:33:25Z</time>
      </trkpt>
      <trkpt lat="48.48132" lon="-3.6965">
        <ele>302.2</ele>
        <time>2022-05-28T17:33:33Z</time>
      </trkpt>
      <trkpt lat="48.48147" lon="-3.69577">
        <ele>301.7</ele>
        <time>2022-05-28T17:33:40Z</time>
      </trkpt>
      <trkpt lat="48.48149" lon="-3.69567">
        <ele>301.6</ele>
        <time>2022-05-28T17:33:41Z</time>
      </trkpt>
      <trkpt lat="48.48159" lon="-3.69515">
        <ele>301.2</ele>
        <time>2022-05-28T17:33:46Z</time>
      </trkpt>
      <trkpt lat="48.48162" lon="-3.69506">
        <ele>301.2</ele>
        <time>2022-05-28T17:33:47Z</time>
      </trkpt>
      <trkpt lat="48.48165" lon="-3.69497">
        <ele>301.2</ele>
        <time>2022-05-28T17:33:48Z</time>
      </trkpt>
      <trkpt lat="48.48175" lon="-3.69437">
        <ele>301.7</ele>
        <time>2022-05-28T17:33:55Z</time>
      </trkpt>
      <trkpt lat="48.48179" lon="-3.6941">
        <ele>301.9</ele>
        <time>2022-05-28T17:33:58Z</time>
      </trkpt>
      <trkpt lat="48.48181" lon="-3.69402">
        <ele>301.9</ele>
        <time>2022-05-28T17:33:59Z</time>
      </trkpt>
      <trkpt lat="48.48186" lon="-3.69355">
        <ele>302.3</ele>
        <time>2022-05-28T17:34:05Z</time>
      </trkpt>
      <trkpt lat="48.48196" lon="-3.6932">
        <ele>302.7</ele>
        <time>2022-05-28T17:34:11Z</time>
      </trkpt>
      <trkpt lat="48.48205" lon="-3.6929">
        <ele>303.6</ele>
        <time>2022-05-28T17:34:16Z</time>
      </trkpt>
      <trkpt lat="48.48224" lon="-3.69228">
        <ele>305.5</ele>
        <time>2022-05-28T17:34:27Z</time>
      </trkpt>
      <trkpt lat="48.48229" lon="-3.69215">
        <ele>305.8</ele>
        <time>2022-05-28T17:34:29Z</time>
      </trkpt>
      <trkpt lat="48.48247" lon="-3.69163">
        <ele>306.2</ele>
        <time>2022-05-28T17:34:37Z</time>
      </trkpt>
      <trkpt lat="48.48266" lon="-3.69098">
        <ele>306.6</ele>
        <time>2022-05-28T17:34:46Z</time>
      </trkpt>
      <trkpt lat="48.48288" lon="-3.69033">
        <ele>307</ele>
        <time>2022-05-28T17:34:55Z</time>
      </trkpt>
      <trkpt lat="48.48304" lon="-3.68966">
        <ele>307.6</ele>
        <time>2022-05-28T17:35:06Z</time>
      </trkpt>
      <trkpt lat="48.4832" lon="-3.68902">
        <ele>308.2</ele>
        <time>2022-05-28T17:35:18Z</time>
      </trkpt>
      <trkpt lat="48.48326" lon="-3.68885">
        <ele>308.4</ele>
        <time>2022-05-28T17:35:22Z</time>
      </trkpt>
      <trkpt lat="48.48341" lon="-3.68842">
        <ele>310.5</ele>
        <time>2022-05-28T17:35:32Z</time>
      </trkpt>
      <trkpt lat="48.48353" lon="-3.68809">
        <ele>312.2</ele>
        <time>2022-05-28T17:35:40Z</time>
      </trkpt>
      <trkpt lat="48.48364" lon="-3.68781">
        <ele>313.4</ele>
        <time>2022-05-28T17:35:47Z</time>
      </trkpt>
      <trkpt lat="48.48382" lon="-3.68736">
        <ele>315.4</ele>
        <time>2022-05-28T17:35:58Z</time>
      </trkpt>
      <trkpt lat="48.48389" lon="-3.6872">
        <ele>316.2</ele>
        <time>2022-05-28T17:36:02Z</time>
      </trkpt>
      <trkpt lat="48.4841" lon="-3.68666">
        <ele>318.8</ele>
        <time>2022-05-28T17:36:16Z</time>
      </trkpt>
      <trkpt lat="48.48412" lon="-3.68662">
        <ele>319</ele>
        <time>2022-05-28T17:36:17Z</time>
      </trkpt>
      <trkpt lat="48.48416" lon="-3.68654">
        <ele>319.5</ele>
        <time>2022-05-28T17:36:19Z</time>
      </trkpt>
      <trkpt lat="48.48417" lon="-3.68649">
        <ele>319.7</ele>
        <time>2022-05-28T17:36:20Z</time>
      </trkpt>
      <trkpt lat="48.48427" lon="-3.68629">
        <ele>320.7</ele>
        <time>2022-05-28T17:36:25Z</time>
      </trkpt>
      <trkpt lat="48.48441" lon="-3.68591">
        <ele>322.6</ele>
        <time>2022-05-28T17:36:34Z</time>
      </trkpt>
      <trkpt lat="48.48449" lon="-3.6857">
        <ele>323.6</ele>
        <time>2022-05-28T17:36:39Z</time>
      </trkpt>
      <trkpt lat="48.48465" lon="-3.68524">
        <ele>325.7</ele>
        <time>2022-05-28T17:36:49Z</time>
      </trkpt>
      <trkpt lat="48.48472" lon="-3.68505">
        <ele>326.3</ele>
        <time>2022-05-28T17:36:53Z</time>
      </trkpt>
      <trkpt lat="48.48487" lon="-3.68439">
        <ele>328.5</ele>
        <time>2022-05-28T17:37:06Z</time>
      </trkpt>
      <trkpt lat="48.48488" lon="-3.68433">
        <ele>328.7</ele>
        <time>2022-05-28T17:37:07Z</time>
      </trkpt>
      <trkpt lat="48.48496" lon="-3.68398">
        <ele>329.2</ele>
        <time>2022-05-28T17:37:13Z</time>
      </trkpt>
      <trkpt lat="48.48502" lon="-3.68375">
        <ele>329.9</ele>
        <time>2022-05-28T17:37:17Z</time>
      </trkpt>
      <trkpt lat="48.48509" lon="-3.68348">
        <ele>330.8</ele>
        <time>2022-05-28T17:37:22Z</time>
      </trkpt>
      <trkpt lat="48.48512" lon="-3.68332">
        <ele>331.3</ele>
        <time>2022-05-28T17:37:25Z</time>
      </trkpt>
      <trkpt lat="48.48523" lon="-3.68278">
        <ele>333.6</ele>
        <time>2022-05-28T17:37:35Z</time>
      </trkpt>
      <trkpt lat="48.48534" lon="-3.6823">
        <ele>335.5</ele>
        <time>2022-05-28T17:37:43Z</time>
      </trkpt>
      <trkpt lat="48.48539" lon="-3.68211">
        <ele>336.3</ele>
        <time>2022-05-28T17:37:46Z</time>
      </trkpt>
      <trkpt lat="48.48553" lon="-3.68149">
        <ele>338.7</ele>
        <time>2022-05-28T17:37:55Z</time>
      </trkpt>
      <trkpt lat="48.48554" lon="-3.68142">
        <ele>338.9</ele>
        <time>2022-05-28T17:37:56Z</time>
      </trkpt>
      <trkpt lat="48.48557" lon="-3.68136">
        <ele>339.1</ele>
        <time>2022-05-28T17:37:57Z</time>
      </trkpt>
      <trkpt lat="48.4856" lon="-3.6813">
        <ele>339.3</ele>
        <time>2022-05-28T17:37:58Z</time>
      </trkpt>
      <trkpt lat="48.48565" lon="-3.68107">
        <ele>339.9</ele>
        <time>2022-05-28T17:38:01Z</time>
      </trkpt>
      <trkpt lat="48.48575" lon="-3.68062">
        <ele>339.9</ele>
        <time>2022-05-28T17:38:07Z</time>
      </trkpt>
      <trkpt lat="48.48588" lon="-3.67996">
        <ele>338.7</ele>
        <time>2022-05-28T17:38:15Z</time>
      </trkpt>
      <trkpt lat="48.48594" lon="-3.67963">
        <ele>338.1</ele>
        <time>2022-05-28T17:38:19Z</time>
      </trkpt>
      <trkpt lat="48.48593" lon="-3.67954">
        <ele>338</ele>
        <time>2022-05-28T17:38:20Z</time>
      </trkpt>
      <trkpt lat="48.48605" lon="-3.67882">
        <ele>336.8</ele>
        <time>2022-05-28T17:38:28Z</time>
      </trkpt>
      <trkpt lat="48.48609" lon="-3.67873">
        <ele>336.7</ele>
        <time>2022-05-28T17:38:29Z</time>
      </trkpt>
      <trkpt lat="48.48611" lon="-3.67854">
        <ele>336.4</ele>
        <time>2022-05-28T17:38:31Z</time>
      </trkpt>
      <trkpt lat="48.48616" lon="-3.67806">
        <ele>335.2</ele>
        <time>2022-05-28T17:38:36Z</time>
      </trkpt>
      <trkpt lat="48.48622" lon="-3.67734">
        <ele>333.3</ele>
        <time>2022-05-28T17:38:44Z</time>
      </trkpt>
      <trkpt lat="48.48625" lon="-3.67697">
        <ele>332.4</ele>
        <time>2022-05-28T17:38:48Z</time>
      </trkpt>
      <trkpt lat="48.48628" lon="-3.6766">
        <ele>331.6</ele>
        <time>2022-05-28T17:38:52Z</time>
      </trkpt>
      <trkpt lat="48.48633" lon="-3.6759">
        <ele>330.1</ele>
        <time>2022-05-28T17:38:59Z</time>
      </trkpt>
      <trkpt lat="48.48645" lon="-3.67528">
        <ele>328.8</ele>
        <time>2022-05-28T17:39:05Z</time>
      </trkpt>
      <trkpt lat="48.48648" lon="-3.67518">
        <ele>328.6</ele>
        <time>2022-05-28T17:39:06Z</time>
      </trkpt>
      <trkpt lat="48.48665" lon="-3.67471">
        <ele>327.3</ele>
        <time>2022-05-28T17:39:11Z</time>
      </trkpt>
      <trkpt lat="48.48672" lon="-3.67453">
        <ele>326.9</ele>
        <time>2022-05-28T17:39:13Z</time>
      </trkpt>
      <trkpt lat="48.48691" lon="-3.67424">
        <ele>326.1</ele>
        <time>2022-05-28T17:39:17Z</time>
      </trkpt>
      <trkpt lat="48.48707" lon="-3.67402">
        <ele>324.9</ele>
        <time>2022-05-28T17:39:20Z</time>
      </trkpt>
      <trkpt lat="48.48748" lon="-3.67373">
        <ele>322.5</ele>
        <time>2022-05-28T17:39:26Z</time>
      </trkpt>
      <trkpt lat="48.48772" lon="-3.6736">
        <ele>321.2</ele>
        <time>2022-05-28T17:39:29Z</time>
      </trkpt>
      <trkpt lat="48.48797" lon="-3.67347">
        <ele>318.8</ele>
        <time>2022-05-28T17:39:32Z</time>
      </trkpt>
      <trkpt lat="48.48824" lon="-3.67333">
        <ele>316.5</ele>
        <time>2022-05-28T17:39:35Z</time>
      </trkpt>
      <trkpt lat="48.48842" lon="-3.67323">
        <ele>315.2</ele>
        <time>2022-05-28T17:39:37Z</time>
      </trkpt>
      <trkpt lat="48.48878" lon="-3.67306">
        <ele>312.5</ele>
        <time>2022-05-28T17:39:41Z</time>
      </trkpt>
      <trkpt lat="48.48901" lon="-3.6726">
        <ele>309.8</ele>
        <time>2022-05-28T17:39:44Z</time>
      </trkpt>
      <trkpt lat="48.48901" lon="-3.6726">
        <ele>309.8</ele>
        <time>2022-05-28T17:42:46Z</time>
      </trkpt>
      <trkpt lat="48.48916" lon="-3.6722">
        <ele>307.8</ele>
        <time>2022-05-28T17:42:50Z</time>
      </trkpt>
      <trkpt lat="48.4892" lon="-3.67213">
        <ele>307.8</ele>
        <time>2022-05-28T17:42:51Z</time>
      </trkpt>
      <trkpt lat="48.48923" lon="-3.67184">
        <ele>307.8</ele>
        <time>2022-05-28T17:42:57Z</time>
      </trkpt>
      <trkpt lat="48.48918" lon="-3.67178">
        <ele>307.8</ele>
        <time>2022-05-28T17:42:58Z</time>
      </trkpt>
      <trkpt lat="48.48921" lon="-3.67163">
        <ele>307.9</ele>
        <time>2022-05-28T17:43:01Z</time>
      </trkpt>
      <trkpt lat="48.48929" lon="-3.6711">
        <ele>309.4</ele>
        <time>2022-05-28T17:43:12Z</time>
      </trkpt>
      <trkpt lat="48.48942" lon="-3.67079">
        <ele>310</ele>
        <time>2022-05-28T17:43:18Z</time>
      </trkpt>
      <trkpt lat="48.48956" lon="-3.67047">
        <ele>307.7</ele>
        <time>2022-05-28T17:43:24Z</time>
      </trkpt>
      <trkpt lat="48.48976" lon="-3.66994">
        <ele>305.9</ele>
        <time>2022-05-28T17:43:29Z</time>
      </trkpt>
      <trkpt lat="48.48977" lon="-3.6698">
        <ele>305.5</ele>
        <time>2022-05-28T17:43:30Z</time>
      </trkpt>
      <trkpt lat="48.48994" lon="-3.66918">
        <ele>303.5</ele>
        <time>2022-05-28T17:43:35Z</time>
      </trkpt>
      <trkpt lat="48.4901" lon="-3.66885">
        <ele>302.3</ele>
        <time>2022-05-28T17:43:38Z</time>
      </trkpt>
      <trkpt lat="48.49031" lon="-3.66857">
        <ele>301.1</ele>
        <time>2022-05-28T17:43:41Z</time>
      </trkpt>
      <trkpt lat="48.49039" lon="-3.66849">
        <ele>300.6</ele>
        <time>2022-05-28T17:43:42Z</time>
      </trkpt>
      <trkpt lat="48.49071" lon="-3.66819">
        <ele>298.8</ele>
        <time>2022-05-28T17:43:46Z</time>
      </trkpt>
      <trkpt lat="48.49112" lon="-3.66781">
        <ele>296.4</ele>
        <time>2022-05-28T17:43:51Z</time>
      </trkpt>
      <trkpt lat="48.49136" lon="-3.66758">
        <ele>295</ele>
        <time>2022-05-28T17:43:54Z</time>
      </trkpt>
      <trkpt lat="48.49152" lon="-3.66741">
        <ele>293.9</ele>
        <time>2022-05-28T17:43:56Z</time>
      </trkpt>
      <trkpt lat="48.49186" lon="-3.66706">
        <ele>291.5</ele>
        <time>2022-05-28T17:44:00Z</time>
      </trkpt>
      <trkpt lat="48.49194" lon="-3.66697">
        <ele>290.7</ele>
        <time>2022-05-28T17:44:01Z</time>
      </trkpt>
      <trkpt lat="48.49238" lon="-3.66646">
        <ele>286.7</ele>
        <time>2022-05-28T17:44:06Z</time>
      </trkpt>
      <trkpt lat="48.49277" lon="-3.66607">
        <ele>283</ele>
        <time>2022-05-28T17:44:10Z</time>
      </trkpt>
      <trkpt lat="48.49296" lon="-3.66591">
        <ele>281.2</ele>
        <time>2022-05-28T17:44:12Z</time>
      </trkpt>
      <trkpt lat="48.49325" lon="-3.66566">
        <ele>278.9</ele>
        <time>2022-05-28T17:44:15Z</time>
      </trkpt>
      <trkpt lat="48.49354" lon="-3.66543">
        <ele>276.6</ele>
        <time>2022-05-28T17:44:18Z</time>
      </trkpt>
      <trkpt lat="48.49374" lon="-3.66528">
        <ele>274.9</ele>
        <time>2022-05-28T17:44:20Z</time>
      </trkpt>
      <trkpt lat="48.49413" lon="-3.66496">
        <ele>271.6</ele>
        <time>2022-05-28T17:44:24Z</time>
      </trkpt>
      <trkpt lat="48.4946" lon="-3.66455">
        <ele>268.9</ele>
        <time>2022-05-28T17:44:29Z</time>
      </trkpt>
      <trkpt lat="48.49469" lon="-3.66448">
        <ele>268.4</ele>
        <time>2022-05-28T17:44:30Z</time>
      </trkpt>
      <trkpt lat="48.49504" lon="-3.66417">
        <ele>266.5</ele>
        <time>2022-05-28T17:44:34Z</time>
      </trkpt>
      <trkpt lat="48.49546" lon="-3.66371">
        <ele>264.1</ele>
        <time>2022-05-28T17:44:39Z</time>
      </trkpt>
      <trkpt lat="48.49573" lon="-3.66344">
        <ele>262.7</ele>
        <time>2022-05-28T17:44:42Z</time>
      </trkpt>
      <trkpt lat="48.49582" lon="-3.66336">
        <ele>262.1</ele>
        <time>2022-05-28T17:44:43Z</time>
      </trkpt>
      <trkpt lat="48.49627" lon="-3.66294">
        <ele>259.5</ele>
        <time>2022-05-28T17:44:48Z</time>
      </trkpt>
      <trkpt lat="48.49668" lon="-3.66246">
        <ele>256.9</ele>
        <time>2022-05-28T17:44:53Z</time>
      </trkpt>
      <trkpt lat="48.49676" lon="-3.66237">
        <ele>256.4</ele>
        <time>2022-05-28T17:44:54Z</time>
      </trkpt>
      <trkpt lat="48.49699" lon="-3.66209">
        <ele>255.3</ele>
        <time>2022-05-28T17:44:57Z</time>
      </trkpt>
      <trkpt lat="48.49706" lon="-3.662">
        <ele>255</ele>
        <time>2022-05-28T17:44:58Z</time>
      </trkpt>
      <trkpt lat="48.49744" lon="-3.66157">
        <ele>253.2</ele>
        <time>2022-05-28T17:45:03Z</time>
      </trkpt>
      <trkpt lat="48.49759" lon="-3.66139">
        <ele>252.4</ele>
        <time>2022-05-28T17:45:05Z</time>
      </trkpt>
      <trkpt lat="48.49781" lon="-3.66112">
        <ele>251.2</ele>
        <time>2022-05-28T17:45:08Z</time>
      </trkpt>
      <trkpt lat="48.49819" lon="-3.6607">
        <ele>249.2</ele>
        <time>2022-05-28T17:45:13Z</time>
      </trkpt>
      <trkpt lat="48.49847" lon="-3.66035">
        <ele>247.7</ele>
        <time>2022-05-28T17:45:17Z</time>
      </trkpt>
      <trkpt lat="48.49854" lon="-3.66027">
        <ele>247.6</ele>
        <time>2022-05-28T17:45:18Z</time>
      </trkpt>
      <trkpt lat="48.49884" lon="-3.6599">
        <ele>247.4</ele>
        <time>2022-05-28T17:45:23Z</time>
      </trkpt>
      <trkpt lat="48.49888" lon="-3.65982">
        <ele>247.5</ele>
        <time>2022-05-28T17:45:24Z</time>
      </trkpt>
      <trkpt lat="48.4989" lon="-3.65974">
        <ele>247.5</ele>
        <time>2022-05-28T17:45:25Z</time>
      </trkpt>
      <trkpt lat="48.49896" lon="-3.65969">
        <ele>247.5</ele>
        <time>2022-05-28T17:45:26Z</time>
      </trkpt>
      <trkpt lat="48.49924" lon="-3.65972">
        <ele>247.6</ele>
        <time>2022-05-28T17:45:29Z</time>
      </trkpt>
      <trkpt lat="48.49943" lon="-3.65973">
        <ele>247.8</ele>
        <time>2022-05-28T17:45:31Z</time>
      </trkpt>
      <trkpt lat="48.49978" lon="-3.65979">
        <ele>248.1</ele>
        <time>2022-05-28T17:45:36Z</time>
      </trkpt>
      <trkpt lat="48.50016" lon="-3.66005">
        <ele>248.4</ele>
        <time>2022-05-28T17:45:42Z</time>
      </trkpt>
      <trkpt lat="48.50059" lon="-3.66046">
        <ele>248.9</ele>
        <time>2022-05-28T17:45:49Z</time>
      </trkpt>
      <trkpt lat="48.50094" lon="-3.66082">
        <ele>249.2</ele>
        <time>2022-05-28T17:45:55Z</time>
      </trkpt>
      <trkpt lat="48.50117" lon="-3.66121">
        <ele>249.5</ele>
        <time>2022-05-28T17:46:00Z</time>
      </trkpt>
      <trkpt lat="48.5015" lon="-3.66172">
        <ele>250</ele>
        <time>2022-05-28T17:46:07Z</time>
      </trkpt>
      <trkpt lat="48.50171" lon="-3.66206">
        <ele>250.3</ele>
        <time>2022-05-28T17:46:12Z</time>
      </trkpt>
      <trkpt lat="48.50191" lon="-3.66235">
        <ele>250.6</ele>
        <time>2022-05-28T17:46:17Z</time>
      </trkpt>
      <trkpt lat="48.50202" lon="-3.66252">
        <ele>251.4</ele>
        <time>2022-05-28T17:46:20Z</time>
      </trkpt>
      <trkpt lat="48.50224" lon="-3.66289">
        <ele>253.1</ele>
        <time>2022-05-28T17:46:27Z</time>
      </trkpt>
      <trkpt lat="48.50249" lon="-3.66322">
        <ele>255.1</ele>
        <time>2022-05-28T17:46:35Z</time>
      </trkpt>
      <trkpt lat="48.50258" lon="-3.66334">
        <ele>255.8</ele>
        <time>2022-05-28T17:46:38Z</time>
      </trkpt>
      <trkpt lat="48.50291" lon="-3.66382">
        <ele>259</ele>
        <time>2022-05-28T17:46:51Z</time>
      </trkpt>
      <trkpt lat="48.50296" lon="-3.66389">
        <ele>259.5</ele>
        <time>2022-05-28T17:46:53Z</time>
      </trkpt>
      <trkpt lat="48.50311" lon="-3.66409">
        <ele>260.7</ele>
        <time>2022-05-28T17:46:59Z</time>
      </trkpt>
      <trkpt lat="48.50326" lon="-3.66428">
        <ele>260.9</ele>
        <time>2022-05-28T17:47:05Z</time>
      </trkpt>
      <trkpt lat="48.50334" lon="-3.66441">
        <ele>261.2</ele>
        <time>2022-05-28T17:47:11Z</time>
      </trkpt>
      <trkpt lat="48.50359" lon="-3.66475">
        <ele>259.5</ele>
        <time>2022-05-28T17:47:28Z</time>
      </trkpt>
      <trkpt lat="48.50396" lon="-3.66522">
        <ele>257.5</ele>
        <time>2022-05-28T17:47:49Z</time>
      </trkpt>
      <trkpt lat="48.50432" lon="-3.66566">
        <ele>256.8</ele>
        <time>2022-05-28T17:47:56Z</time>
      </trkpt>
      <trkpt lat="48.50438" lon="-3.66576">
        <ele>256.5</ele>
        <time>2022-05-28T17:47:57Z</time>
      </trkpt>
      <trkpt lat="48.50445" lon="-3.66586">
        <ele>255.8</ele>
        <time>2022-05-28T17:47:58Z</time>
      </trkpt>
      <trkpt lat="48.50486" lon="-3.66624">
        <ele>252.3</ele>
        <time>2022-05-28T17:48:03Z</time>
      </trkpt>
      <trkpt lat="48.50514" lon="-3.66641">
        <ele>250.1</ele>
        <time>2022-05-28T17:48:06Z</time>
      </trkpt>
      <trkpt lat="48.50544" lon="-3.66652">
        <ele>248</ele>
        <time>2022-05-28T17:48:09Z</time>
      </trkpt>
      <trkpt lat="48.50595" lon="-3.66657">
        <ele>245.3</ele>
        <time>2022-05-28T17:48:14Z</time>
      </trkpt>
      <trkpt lat="48.50643" lon="-3.66662">
        <ele>243.1</ele>
        <time>2022-05-28T17:48:18Z</time>
      </trkpt>
      <trkpt lat="48.50678" lon="-3.66662">
        <ele>241.4</ele>
        <time>2022-05-28T17:48:21Z</time>
      </trkpt>
      <trkpt lat="48.50725" lon="-3.66675">
        <ele>239.1</ele>
        <time>2022-05-28T17:48:25Z</time>
      </trkpt>
      <trkpt lat="48.50747" lon="-3.66687">
        <ele>238</ele>
        <time>2022-05-28T17:48:27Z</time>
      </trkpt>
      <trkpt lat="48.50769" lon="-3.667">
        <ele>236.8</ele>
        <time>2022-05-28T17:48:29Z</time>
      </trkpt>
      <trkpt lat="48.50813" lon="-3.66726">
        <ele>234.3</ele>
        <time>2022-05-28T17:48:33Z</time>
      </trkpt>
      <trkpt lat="48.50858" lon="-3.66755">
        <ele>231.3</ele>
        <time>2022-05-28T17:48:37Z</time>
      </trkpt>
      <trkpt lat="48.5088" lon="-3.66769">
        <ele>229.8</ele>
        <time>2022-05-28T17:48:39Z</time>
      </trkpt>
      <trkpt lat="48.50903" lon="-3.66783">
        <ele>228.6</ele>
        <time>2022-05-28T17:48:41Z</time>
      </trkpt>
      <trkpt lat="48.50926" lon="-3.66797">
        <ele>227.4</ele>
        <time>2022-05-28T17:48:43Z</time>
      </trkpt>
      <trkpt lat="48.50946" lon="-3.66813">
        <ele>226.2</ele>
        <time>2022-05-28T17:48:45Z</time>
      </trkpt>
      <trkpt lat="48.50967" lon="-3.66828">
        <ele>225.5</ele>
        <time>2022-05-28T17:48:47Z</time>
      </trkpt>
      <trkpt lat="48.51009" lon="-3.66852">
        <ele>224</ele>
        <time>2022-05-28T17:48:51Z</time>
      </trkpt>
      <trkpt lat="48.5106" lon="-3.6687">
        <ele>222.1</ele>
        <time>2022-05-28T17:48:56Z</time>
      </trkpt>
      <trkpt lat="48.51069" lon="-3.66872">
        <ele>221.8</ele>
        <time>2022-05-28T17:48:57Z</time>
      </trkpt>
      <trkpt lat="48.51107" lon="-3.66881">
        <ele>221.2</ele>
        <time>2022-05-28T17:49:01Z</time>
      </trkpt>
      <trkpt lat="48.51123" lon="-3.66885">
        <ele>220.9</ele>
        <time>2022-05-28T17:49:03Z</time>
      </trkpt>
      <trkpt lat="48.51139" lon="-3.66886">
        <ele>221</ele>
        <time>2022-05-28T17:49:05Z</time>
      </trkpt>
      <trkpt lat="48.51145" lon="-3.6688">
        <ele>221</ele>
        <time>2022-05-28T17:49:06Z</time>
      </trkpt>
      <trkpt lat="48.51161" lon="-3.66874">
        <ele>221</ele>
        <time>2022-05-28T17:49:09Z</time>
      </trkpt>
      <trkpt lat="48.51181" lon="-3.66868">
        <ele>221.5</ele>
        <time>2022-05-28T17:49:13Z</time>
      </trkpt>
      <trkpt lat="48.51226" lon="-3.66867">
        <ele>222.5</ele>
        <time>2022-05-28T17:49:22Z</time>
      </trkpt>
      <trkpt lat="48.51273" lon="-3.66859">
        <ele>223.6</ele>
        <time>2022-05-28T17:49:32Z</time>
      </trkpt>
      <trkpt lat="48.51318" lon="-3.6684">
        <ele>224.8</ele>
        <time>2022-05-28T17:49:43Z</time>
      </trkpt>
      <trkpt lat="48.51346" lon="-3.66822">
        <ele>225.6</ele>
        <time>2022-05-28T17:49:50Z</time>
      </trkpt>
      <trkpt lat="48.51349" lon="-3.66816">
        <ele>225.8</ele>
        <time>2022-05-28T17:49:51Z</time>
      </trkpt>
      <trkpt lat="48.51369" lon="-3.66755">
        <ele>226.9</ele>
        <time>2022-05-28T17:50:00Z</time>
      </trkpt>
      <trkpt lat="48.51371" lon="-3.66749">
        <ele>226.9</ele>
        <time>2022-05-28T17:50:01Z</time>
      </trkpt>
      <trkpt lat="48.51392" lon="-3.66689">
        <ele>227.2</ele>
        <time>2022-05-28T17:50:11Z</time>
      </trkpt>
      <trkpt lat="48.51402" lon="-3.66662">
        <ele>227.4</ele>
        <time>2022-05-28T17:50:16Z</time>
      </trkpt>
      <trkpt lat="48.5142" lon="-3.66627">
        <ele>227.6</ele>
        <time>2022-05-28T17:50:22Z</time>
      </trkpt>
      <trkpt lat="48.5143" lon="-3.66621">
        <ele>227.7</ele>
        <time>2022-05-28T17:50:24Z</time>
      </trkpt>
      <trkpt lat="48.51475" lon="-3.6663">
        <ele>228</ele>
        <time>2022-05-28T17:50:33Z</time>
      </trkpt>
      <trkpt lat="48.51524" lon="-3.66645">
        <ele>228.3</ele>
        <time>2022-05-28T17:50:43Z</time>
      </trkpt>
      <trkpt lat="48.51572" lon="-3.6666">
        <ele>228.7</ele>
        <time>2022-05-28T17:50:53Z</time>
      </trkpt>
      <trkpt lat="48.51619" lon="-3.66676">
        <ele>229</ele>
        <time>2022-05-28T17:51:03Z</time>
      </trkpt>
      <trkpt lat="48.51667" lon="-3.66686">
        <ele>229.4</ele>
        <time>2022-05-28T17:51:13Z</time>
      </trkpt>
      <trkpt lat="48.51715" lon="-3.66682">
        <ele>229.8</ele>
        <time>2022-05-28T17:51:24Z</time>
      </trkpt>
      <trkpt lat="48.51728" lon="-3.6668">
        <ele>229.8</ele>
        <time>2022-05-28T17:51:27Z</time>
      </trkpt>
      <trkpt lat="48.5176" lon="-3.66675">
        <ele>229.4</ele>
        <time>2022-05-28T17:51:34Z</time>
      </trkpt>
      <trkpt lat="48.51811" lon="-3.6667">
        <ele>228.8</ele>
        <time>2022-05-28T17:51:43Z</time>
      </trkpt>
      <trkpt lat="48.51826" lon="-3.6667">
        <ele>228.6</ele>
        <time>2022-05-28T17:51:45Z</time>
      </trkpt>
      <trkpt lat="48.51865" lon="-3.6667">
        <ele>226.9</ele>
        <time>2022-05-28T17:51:50Z</time>
      </trkpt>
      <trkpt lat="48.51873" lon="-3.66671">
        <ele>226.6</ele>
        <time>2022-05-28T17:51:51Z</time>
      </trkpt>
      <trkpt lat="48.51916" lon="-3.66673">
        <ele>224.8</ele>
        <time>2022-05-28T17:51:56Z</time>
      </trkpt>
      <trkpt lat="48.5197" lon="-3.6667">
        <ele>222.6</ele>
        <time>2022-05-28T17:52:02Z</time>
      </trkpt>
      <trkpt lat="48.51977" lon="-3.66669">
        <ele>222.4</ele>
        <time>2022-05-28T17:52:03Z</time>
      </trkpt>
      <trkpt lat="48.52015" lon="-3.66665">
        <ele>222.2</ele>
        <time>2022-05-28T17:52:08Z</time>
      </trkpt>
      <trkpt lat="48.52024" lon="-3.66661">
        <ele>222.1</ele>
        <time>2022-05-28T17:52:09Z</time>
      </trkpt>
      <trkpt lat="48.52033" lon="-3.66653">
        <ele>222</ele>
        <time>2022-05-28T17:52:10Z</time>
      </trkpt>
      <trkpt lat="48.52056" lon="-3.66647">
        <ele>221.7</ele>
        <time>2022-05-28T17:52:13Z</time>
      </trkpt>
      <trkpt lat="48.5207" lon="-3.6665">
        <ele>221.5</ele>
        <time>2022-05-28T17:52:15Z</time>
      </trkpt>
      <trkpt lat="48.52076" lon="-3.66651">
        <ele>221.5</ele>
        <time>2022-05-28T17:52:16Z</time>
      </trkpt>
      <trkpt lat="48.52119" lon="-3.66678">
        <ele>221.3</ele>
        <time>2022-05-28T17:52:24Z</time>
      </trkpt>
      <trkpt lat="48.52165" lon="-3.66705">
        <ele>221.2</ele>
        <time>2022-05-28T17:52:32Z</time>
      </trkpt>
      <trkpt lat="48.52208" lon="-3.66727">
        <ele>221.1</ele>
        <time>2022-05-28T17:52:40Z</time>
      </trkpt>
      <trkpt lat="48.52251" lon="-3.6675">
        <ele>221</ele>
        <time>2022-05-28T17:52:48Z</time>
      </trkpt>
      <trkpt lat="48.52295" lon="-3.6678">
        <ele>220.9</ele>
        <time>2022-05-28T17:52:56Z</time>
      </trkpt>
      <trkpt lat="48.52335" lon="-3.66815">
        <ele>220.8</ele>
        <time>2022-05-28T17:53:02Z</time>
      </trkpt>
      <trkpt lat="48.52342" lon="-3.66821">
        <ele>220.7</ele>
        <time>2022-05-28T17:53:03Z</time>
      </trkpt>
      <trkpt lat="48.52349" lon="-3.66827">
        <ele>220.3</ele>
        <time>2022-05-28T17:53:04Z</time>
      </trkpt>
      <trkpt lat="48.52372" lon="-3.66843">
        <ele>219.3</ele>
        <time>2022-05-28T17:53:07Z</time>
      </trkpt>
      <trkpt lat="48.52387" lon="-3.66857">
        <ele>218.7</ele>
        <time>2022-05-28T17:53:09Z</time>
      </trkpt>
      <trkpt lat="48.52417" lon="-3.66884">
        <ele>218.2</ele>
        <time>2022-05-28T17:53:13Z</time>
      </trkpt>
      <trkpt lat="48.52431" lon="-3.66893">
        <ele>217.9</ele>
        <time>2022-05-28T17:53:15Z</time>
      </trkpt>
      <trkpt lat="48.52464" lon="-3.66914">
        <ele>217.9</ele>
        <time>2022-05-28T17:53:20Z</time>
      </trkpt>
      <trkpt lat="48.52469" lon="-3.66916">
        <ele>218</ele>
        <time>2022-05-28T17:53:21Z</time>
      </trkpt>
      <trkpt lat="48.52494" lon="-3.66924">
        <ele>219.4</ele>
        <time>2022-05-28T17:53:26Z</time>
      </trkpt>
      <trkpt lat="48.52509" lon="-3.66929">
        <ele>220.8</ele>
        <time>2022-05-28T17:53:29Z</time>
      </trkpt>
      <trkpt lat="48.52516" lon="-3.66931">
        <ele>221.6</ele>
        <time>2022-05-28T17:53:31Z</time>
      </trkpt>
      <trkpt lat="48.52555" lon="-3.66941">
        <ele>224</ele>
        <time>2022-05-28T17:53:42Z</time>
      </trkpt>
      <trkpt lat="48.52559" lon="-3.66942">
        <ele>224.2</ele>
        <time>2022-05-28T17:53:43Z</time>
      </trkpt>
      <trkpt lat="48.52601" lon="-3.66953">
        <ele>226.7</ele>
        <time>2022-05-28T17:53:56Z</time>
      </trkpt>
      <trkpt lat="48.52615" lon="-3.66958">
        <ele>227.7</ele>
        <time>2022-05-28T17:54:01Z</time>
      </trkpt>
      <trkpt lat="48.5263" lon="-3.66963">
        <ele>229</ele>
        <time>2022-05-28T17:54:06Z</time>
      </trkpt>
      <trkpt lat="48.52632" lon="-3.66964">
        <ele>229.2</ele>
        <time>2022-05-28T17:54:07Z</time>
      </trkpt>
      <trkpt lat="48.5265" lon="-3.66972">
        <ele>230.5</ele>
        <time>2022-05-28T17:54:13Z</time>
      </trkpt>
      <trkpt lat="48.52674" lon="-3.66982">
        <ele>232.6</ele>
        <time>2022-05-28T17:54:21Z</time>
      </trkpt>
      <trkpt lat="48.52683" lon="-3.66983">
        <ele>233.4</ele>
        <time>2022-05-28T17:54:24Z</time>
      </trkpt>
      <trkpt lat="48.52686" lon="-3.66984">
        <ele>233.7</ele>
        <time>2022-05-28T17:54:25Z</time>
      </trkpt>
      <trkpt lat="48.52704" lon="-3.6699">
        <ele>235</ele>
        <time>2022-05-28T17:54:31Z</time>
      </trkpt>
      <trkpt lat="48.52722" lon="-3.66996">
        <ele>236.6</ele>
        <time>2022-05-28T17:54:37Z</time>
      </trkpt>
      <trkpt lat="48.52729" lon="-3.66998">
        <ele>236.9</ele>
        <time>2022-05-28T17:54:39Z</time>
      </trkpt>
      <trkpt lat="48.52775" lon="-3.67004">
        <ele>239</ele>
        <time>2022-05-28T17:54:53Z</time>
      </trkpt>
      <trkpt lat="48.52781" lon="-3.67004">
        <ele>239.2</ele>
        <time>2022-05-28T17:54:55Z</time>
      </trkpt>
      <trkpt lat="48.52867" lon="-3.67004">
        <ele>238.1</ele>
        <time>2022-05-28T17:55:13Z</time>
      </trkpt>
      <trkpt lat="48.52867" lon="-3.67004">
        <ele>238.1</ele>
        <time>2022-05-28T17:55:55Z</time>
      </trkpt>
      <trkpt lat="48.52914" lon="-3.67003">
        <ele>237.3</ele>
        <time>2022-05-28T17:56:01Z</time>
      </trkpt>
      <trkpt lat="48.52941" lon="-3.67003">
        <ele>237.1</ele>
        <time>2022-05-28T17:56:05Z</time>
      </trkpt>
      <trkpt lat="48.52967" lon="-3.67003">
        <ele>235.9</ele>
        <time>2022-05-28T17:56:09Z</time>
      </trkpt>
      <trkpt lat="48.52983" lon="-3.67003">
        <ele>235.2</ele>
        <time>2022-05-28T17:56:11Z</time>
      </trkpt>
      <trkpt lat="48.53014" lon="-3.67002">
        <ele>233.3</ele>
        <time>2022-05-28T17:56:15Z</time>
      </trkpt>
      <trkpt lat="48.53066" lon="-3.67001">
        <ele>230.5</ele>
        <time>2022-05-28T17:56:21Z</time>
      </trkpt>
      <trkpt lat="48.53083" lon="-3.67001">
        <ele>229.6</ele>
        <time>2022-05-28T17:56:23Z</time>
      </trkpt>
      <trkpt lat="48.53117" lon="-3.67001">
        <ele>228.2</ele>
        <time>2022-05-28T17:56:27Z</time>
      </trkpt>
      <trkpt lat="48.53165" lon="-3.67018">
        <ele>226.1</ele>
        <time>2022-05-28T17:56:33Z</time>
      </trkpt>
      <trkpt lat="48.53178" lon="-3.67023">
        <ele>225.4</ele>
        <time>2022-05-28T17:56:35Z</time>
      </trkpt>
      <trkpt lat="48.5321" lon="-3.67026">
        <ele>224.2</ele>
        <time>2022-05-28T17:56:40Z</time>
      </trkpt>
      <trkpt lat="48.53211" lon="-3.67006">
        <ele>224</ele>
        <time>2022-05-28T17:56:41Z</time>
      </trkpt>
      <trkpt lat="48.53236" lon="-3.66957">
        <ele>222.6</ele>
        <time>2022-05-28T17:56:47Z</time>
      </trkpt>
      <trkpt lat="48.53241" lon="-3.6695">
        <ele>222.5</ele>
        <time>2022-05-28T17:56:48Z</time>
      </trkpt>
      <trkpt lat="48.53268" lon="-3.66916">
        <ele>222</ele>
        <time>2022-05-28T17:56:53Z</time>
      </trkpt>
      <trkpt lat="48.53279" lon="-3.66902">
        <ele>221.7</ele>
        <time>2022-05-28T17:56:55Z</time>
      </trkpt>
      <trkpt lat="48.53318" lon="-3.66857">
        <ele>220.5</ele>
        <time>2022-05-28T17:57:02Z</time>
      </trkpt>
      <trkpt lat="48.53335" lon="-3.66838">
        <ele>220.1</ele>
        <time>2022-05-28T17:57:05Z</time>
      </trkpt>
      <trkpt lat="48.53357" lon="-3.66814">
        <ele>219.7</ele>
        <time>2022-05-28T17:57:09Z</time>
      </trkpt>
      <trkpt lat="48.53384" lon="-3.66768">
        <ele>218.8</ele>
        <time>2022-05-28T17:57:20Z</time>
      </trkpt>
      <trkpt lat="48.53386" lon="-3.66761">
        <ele>218.8</ele>
        <time>2022-05-28T17:57:21Z</time>
      </trkpt>
      <trkpt lat="48.53422" lon="-3.66726">
        <ele>218.1</ele>
        <time>2022-05-28T17:57:29Z</time>
      </trkpt>
      <trkpt lat="48.53427" lon="-3.66721">
        <ele>218.1</ele>
        <time>2022-05-28T17:57:30Z</time>
      </trkpt>
      <trkpt lat="48.53467" lon="-3.6668">
        <ele>217.6</ele>
        <time>2022-05-28T17:57:38Z</time>
      </trkpt>
      <trkpt lat="48.53508" lon="-3.66637">
        <ele>217.1</ele>
        <time>2022-05-28T17:57:46Z</time>
      </trkpt>
      <trkpt lat="48.5355" lon="-3.66594">
        <ele>216.6</ele>
        <time>2022-05-28T17:57:54Z</time>
      </trkpt>
      <trkpt lat="48.53592" lon="-3.66551">
        <ele>216.1</ele>
        <time>2022-05-28T17:58:02Z</time>
      </trkpt>
      <trkpt lat="48.5363" lon="-3.6651">
        <ele>215.7</ele>
        <time>2022-05-28T17:58:09Z</time>
      </trkpt>
      <trkpt lat="48.53665" lon="-3.66473">
        <ele>215.3</ele>
        <time>2022-05-28T17:58:15Z</time>
      </trkpt>
      <trkpt lat="48.5367" lon="-3.66467">
        <ele>215.1</ele>
        <time>2022-05-28T17:58:16Z</time>
      </trkpt>
      <trkpt lat="48.53711" lon="-3.66425">
        <ele>213.9</ele>
        <time>2022-05-28T17:58:23Z</time>
      </trkpt>
      <trkpt lat="48.53745" lon="-3.66389">
        <ele>212.9</ele>
        <time>2022-05-28T17:58:29Z</time>
      </trkpt>
      <trkpt lat="48.53764" lon="-3.6636">
        <ele>212.2</ele>
        <time>2022-05-28T17:58:33Z</time>
      </trkpt>
      <trkpt lat="48.53778" lon="-3.66339">
        <ele>212.1</ele>
        <time>2022-05-28T17:58:36Z</time>
      </trkpt>
      <trkpt lat="48.5379" lon="-3.66317">
        <ele>212</ele>
        <time>2022-05-28T17:58:39Z</time>
      </trkpt>
      <trkpt lat="48.53809" lon="-3.66282">
        <ele>211.7</ele>
        <time>2022-05-28T17:58:44Z</time>
      </trkpt>
      <trkpt lat="48.53842" lon="-3.6623">
        <ele>211.2</ele>
        <time>2022-05-28T17:58:52Z</time>
      </trkpt>
      <trkpt lat="48.53888" lon="-3.66203">
        <ele>210.6</ele>
        <time>2022-05-28T17:59:00Z</time>
      </trkpt>
      <trkpt lat="48.53909" lon="-3.66199">
        <ele>210.4</ele>
        <time>2022-05-28T17:59:03Z</time>
      </trkpt>
      <trkpt lat="48.53936" lon="-3.66195">
        <ele>209.8</ele>
        <time>2022-05-28T17:59:07Z</time>
      </trkpt>
      <trkpt lat="48.53984" lon="-3.66191">
        <ele>208.9</ele>
        <time>2022-05-28T17:59:14Z</time>
      </trkpt>
      <trkpt lat="48.54009" lon="-3.6619">
        <ele>208.3</ele>
        <time>2022-05-28T17:59:18Z</time>
      </trkpt>
      <trkpt lat="48.54016" lon="-3.66192">
        <ele>208.2</ele>
        <time>2022-05-28T17:59:19Z</time>
      </trkpt>
      <trkpt lat="48.5403" lon="-3.66192">
        <ele>207.9</ele>
        <time>2022-05-28T17:59:21Z</time>
      </trkpt>
      <trkpt lat="48.54064" lon="-3.66191">
        <ele>207</ele>
        <time>2022-05-28T17:59:26Z</time>
      </trkpt>
      <trkpt lat="48.54073" lon="-3.66192">
        <ele>206.8</ele>
        <time>2022-05-28T17:59:27Z</time>
      </trkpt>
      <trkpt lat="48.54114" lon="-3.66195">
        <ele>205.5</ele>
        <time>2022-05-28T17:59:32Z</time>
      </trkpt>
      <trkpt lat="48.54164" lon="-3.66193">
        <ele>204</ele>
        <time>2022-05-28T17:59:38Z</time>
      </trkpt>
      <trkpt lat="48.54171" lon="-3.66194">
        <ele>203.7</ele>
        <time>2022-05-28T17:59:39Z</time>
      </trkpt>
      <trkpt lat="48.54188" lon="-3.66203">
        <ele>203.2</ele>
        <time>2022-05-28T17:59:42Z</time>
      </trkpt>
      <trkpt lat="48.54186" lon="-3.66215">
        <ele>203</ele>
        <time>2022-05-28T17:59:43Z</time>
      </trkpt>
      <trkpt lat="48.54191" lon="-3.66218">
        <ele>202.8</ele>
        <time>2022-05-28T17:59:44Z</time>
      </trkpt>
      <trkpt lat="48.54194" lon="-3.66203">
        <ele>202.6</ele>
        <time>2022-05-28T17:59:45Z</time>
      </trkpt>
      <trkpt lat="48.54194" lon="-3.66171">
        <ele>202.4</ele>
        <time>2022-05-28T17:59:46Z</time>
      </trkpt>
      <trkpt lat="48.54192" lon="-3.66162">
        <ele>202.2</ele>
        <time>2022-05-28T17:59:47Z</time>
      </trkpt>
      <trkpt lat="48.54194" lon="-3.66104">
        <ele>200.9</ele>
        <time>2022-05-28T17:59:54Z</time>
      </trkpt>
      <trkpt lat="48.54194" lon="-3.66086">
        <ele>200.6</ele>
        <time>2022-05-28T17:59:56Z</time>
      </trkpt>
      <trkpt lat="48.54196" lon="-3.66015">
        <ele>199.2</ele>
        <time>2022-05-28T18:00:03Z</time>
      </trkpt>
      <trkpt lat="48.54196" lon="-3.65992">
        <ele>198.8</ele>
        <time>2022-05-28T18:00:05Z</time>
      </trkpt>
      <trkpt lat="48.54196" lon="-3.65936">
        <ele>196.7</ele>
        <time>2022-05-28T18:00:10Z</time>
      </trkpt>
      <trkpt lat="48.54196" lon="-3.65924">
        <ele>196.2</ele>
        <time>2022-05-28T18:00:11Z</time>
      </trkpt>
      <trkpt lat="48.54198" lon="-3.65901">
        <ele>195</ele>
        <time>2022-05-28T18:00:13Z</time>
      </trkpt>
      <trkpt lat="48.54209" lon="-3.6589">
        <ele>193.7</ele>
        <time>2022-05-28T18:00:15Z</time>
      </trkpt>
      <trkpt lat="48.5422" lon="-3.65892">
        <ele>192.6</ele>
        <time>2022-05-28T18:00:17Z</time>
      </trkpt>
      <trkpt lat="48.54251" lon="-3.65897">
        <ele>192.5</ele>
        <time>2022-05-28T18:00:23Z</time>
      </trkpt>
      <trkpt lat="48.54259" lon="-3.65891">
        <ele>192.5</ele>
        <time>2022-05-28T18:00:25Z</time>
      </trkpt>
      <trkpt lat="48.54263" lon="-3.65873">
        <ele>192.5</ele>
        <time>2022-05-28T18:00:27Z</time>
      </trkpt>
      <trkpt lat="48.54263" lon="-3.65853">
        <ele>192.3</ele>
        <time>2022-05-28T18:00:29Z</time>
      </trkpt>
      <trkpt lat="48.54264" lon="-3.65812">
        <ele>190.5</ele>
        <time>2022-05-28T18:00:33Z</time>
      </trkpt>
      <trkpt lat="48.54267" lon="-3.65789">
        <ele>189.8</ele>
        <time>2022-05-28T18:00:35Z</time>
      </trkpt>
      <trkpt lat="48.5427" lon="-3.65779">
        <ele>189.8</ele>
        <time>2022-05-28T18:00:36Z</time>
      </trkpt>
      <trkpt lat="48.54296" lon="-3.65716">
        <ele>189.9</ele>
        <time>2022-05-28T18:00:44Z</time>
      </trkpt>
      <trkpt lat="48.54308" lon="-3.65698">
        <ele>190</ele>
        <time>2022-05-28T18:00:47Z</time>
      </trkpt>
      <trkpt lat="48.54315" lon="-3.65686">
        <ele>190.2</ele>
        <time>2022-05-28T18:00:49Z</time>
      </trkpt>
      <trkpt lat="48.54332" lon="-3.65665">
        <ele>190.6</ele>
        <time>2022-05-28T18:00:53Z</time>
      </trkpt>
      <trkpt lat="48.54353" lon="-3.65647">
        <ele>190.8</ele>
        <time>2022-05-28T18:00:57Z</time>
      </trkpt>
      <trkpt lat="48.54363" lon="-3.65637">
        <ele>190.9</ele>
        <time>2022-05-28T18:00:59Z</time>
      </trkpt>
      <trkpt lat="48.54374" lon="-3.65628">
        <ele>190.9</ele>
        <time>2022-05-28T18:01:01Z</time>
      </trkpt>
      <trkpt lat="48.54415" lon="-3.65596">
        <ele>190.9</ele>
        <time>2022-05-28T18:01:09Z</time>
      </trkpt>
      <trkpt lat="48.54454" lon="-3.65564">
        <ele>190.9</ele>
        <time>2022-05-28T18:01:17Z</time>
      </trkpt>
      <trkpt lat="48.5447" lon="-3.65554">
        <ele>190.9</ele>
        <time>2022-05-28T18:01:20Z</time>
      </trkpt>
      <trkpt lat="48.54499" lon="-3.65491">
        <ele>190.9</ele>
        <time>2022-05-28T18:01:29Z</time>
      </trkpt>
      <trkpt lat="48.54518" lon="-3.65463">
        <ele>190.9</ele>
        <time>2022-05-28T18:01:33Z</time>
      </trkpt>
      <trkpt lat="48.54551" lon="-3.65476">
        <ele>190.9</ele>
        <time>2022-05-28T18:01:37Z</time>
      </trkpt>
      <trkpt lat="48.54557" lon="-3.65485">
        <ele>190.9</ele>
        <time>2022-05-28T18:01:38Z</time>
      </trkpt>
      <trkpt lat="48.54592" lon="-3.65521">
        <ele>190.9</ele>
        <time>2022-05-28T18:01:52Z</time>
      </trkpt>
      <trkpt lat="48.54637" lon="-3.65504">
        <ele>190.9</ele>
        <time>2022-05-28T18:02:01Z</time>
      </trkpt>
      <trkpt lat="48.54679" lon="-3.65474">
        <ele>190.9</ele>
        <time>2022-05-28T18:02:12Z</time>
      </trkpt>
      <trkpt lat="48.547" lon="-3.65448">
        <ele>190.9</ele>
        <time>2022-05-28T18:02:18Z</time>
      </trkpt>
      <trkpt lat="48.54733" lon="-3.65393">
        <ele>190.9</ele>
        <time>2022-05-28T18:02:30Z</time>
      </trkpt>
      <trkpt lat="48.54744" lon="-3.65374">
        <ele>190.9</ele>
        <time>2022-05-28T18:02:34Z</time>
      </trkpt>
      <trkpt lat="48.54773" lon="-3.65317">
        <ele>190.9</ele>
        <time>2022-05-28T18:02:47Z</time>
      </trkpt>
      <trkpt lat="48.54802" lon="-3.65265">
        <ele>190.9</ele>
        <time>2022-05-28T18:02:58Z</time>
      </trkpt>
      <trkpt lat="48.54812" lon="-3.65248">
        <ele>190.9</ele>
        <time>2022-05-28T18:03:03Z</time>
      </trkpt>
      <trkpt lat="48.54807" lon="-3.65242">
        <ele>190.9</ele>
        <time>2022-05-28T18:03:04Z</time>
      </trkpt>
      <trkpt lat="48.54799" lon="-3.6524">
        <ele>190.9</ele>
        <time>2022-05-28T18:03:05Z</time>
      </trkpt>
      <trkpt lat="48.54804" lon="-3.65238">
        <ele>202</ele>
        <time>2022-05-28T18:03:12Z</time>
      </trkpt>
      <trkpt lat="48.54804" lon="-3.65238">
        <ele>202</ele>
        <time>2022-05-29T07:20:13Z</time>
      </trkpt>
      <trkpt lat="48.54807" lon="-3.65229">
        <ele>213.2</ele>
        <time>2022-05-29T07:20:24Z</time>
      </trkpt>
      <trkpt lat="48.54808" lon="-3.65243">
        <ele>213.2</ele>
        <time>2022-05-29T07:20:29Z</time>
      </trkpt>
      <trkpt lat="48.54812" lon="-3.65253">
        <ele>213.1</ele>
        <time>2022-05-29T07:20:32Z</time>
      </trkpt>
      <trkpt lat="48.54782" lon="-3.65308">
        <ele>213.1</ele>
        <time>2022-05-29T07:20:44Z</time>
      </trkpt>
      <trkpt lat="48.54752" lon="-3.6536">
        <ele>213.1</ele>
        <time>2022-05-29T07:20:53Z</time>
      </trkpt>
      <trkpt lat="48.54719" lon="-3.65415">
        <ele>213.1</ele>
        <time>2022-05-29T07:21:02Z</time>
      </trkpt>
      <trkpt lat="48.54684" lon="-3.65467">
        <ele>213.1</ele>
        <time>2022-05-29T07:21:11Z</time>
      </trkpt>
      <trkpt lat="48.54642" lon="-3.65494">
        <ele>213.1</ele>
        <time>2022-05-29T07:21:19Z</time>
      </trkpt>
      <trkpt lat="48.54597" lon="-3.65501">
        <ele>213</ele>
        <time>2022-05-29T07:21:27Z</time>
      </trkpt>
      <trkpt lat="48.54554" lon="-3.65477">
        <ele>213</ele>
        <time>2022-05-29T07:21:36Z</time>
      </trkpt>
      <trkpt lat="48.54527" lon="-3.65461">
        <ele>213</ele>
        <time>2022-05-29T07:21:41Z</time>
      </trkpt>
      <trkpt lat="48.54515" lon="-3.65466">
        <ele>213</ele>
        <time>2022-05-29T07:21:43Z</time>
      </trkpt>
      <trkpt lat="48.54491" lon="-3.65524">
        <ele>213</ele>
        <time>2022-05-29T07:21:51Z</time>
      </trkpt>
      <trkpt lat="48.54473" lon="-3.65548">
        <ele>213</ele>
        <time>2022-05-29T07:21:56Z</time>
      </trkpt>
      <trkpt lat="48.54429" lon="-3.65572">
        <ele>213</ele>
        <time>2022-05-29T07:22:05Z</time>
      </trkpt>
      <trkpt lat="48.54391" lon="-3.65607">
        <ele>212.9</ele>
        <time>2022-05-29T07:22:15Z</time>
      </trkpt>
      <trkpt lat="48.54352" lon="-3.65653">
        <ele>212.9</ele>
        <time>2022-05-29T07:22:25Z</time>
      </trkpt>
      <trkpt lat="48.54316" lon="-3.657">
        <ele>212.9</ele>
        <time>2022-05-29T07:22:34Z</time>
      </trkpt>
      <trkpt lat="48.54289" lon="-3.65759">
        <ele>212.9</ele>
        <time>2022-05-29T07:22:42Z</time>
      </trkpt>
      <trkpt lat="48.54285" lon="-3.65776">
        <ele>212.8</ele>
        <time>2022-05-29T07:22:44Z</time>
      </trkpt>
      <trkpt lat="48.54274" lon="-3.65824">
        <ele>212.5</ele>
        <time>2022-05-29T07:22:50Z</time>
      </trkpt>
      <trkpt lat="48.54266" lon="-3.65879">
        <ele>214.6</ele>
        <time>2022-05-29T07:23:00Z</time>
      </trkpt>
      <trkpt lat="48.54259" lon="-3.65883">
        <ele>214.9</ele>
        <time>2022-05-29T07:23:02Z</time>
      </trkpt>
      <trkpt lat="48.54246" lon="-3.6589">
        <ele>215.2</ele>
        <time>2022-05-29T07:23:06Z</time>
      </trkpt>
      <trkpt lat="48.54219" lon="-3.6589">
        <ele>215.7</ele>
        <time>2022-05-29T07:23:12Z</time>
      </trkpt>
      <trkpt lat="48.54211" lon="-3.65899">
        <ele>215.9</ele>
        <time>2022-05-29T07:23:14Z</time>
      </trkpt>
      <trkpt lat="48.54208" lon="-3.65912">
        <ele>216.3</ele>
        <time>2022-05-29T07:23:16Z</time>
      </trkpt>
      <trkpt lat="48.54211" lon="-3.65963">
        <ele>218.1</ele>
        <time>2022-05-29T07:23:26Z</time>
      </trkpt>
      <trkpt lat="48.54213" lon="-3.65983">
        <ele>219.2</ele>
        <time>2022-05-29T07:23:30Z</time>
      </trkpt>
      <trkpt lat="48.54212" lon="-3.65993">
        <ele>219.7</ele>
        <time>2022-05-29T07:23:32Z</time>
      </trkpt>
      <trkpt lat="48.54212" lon="-3.66024">
        <ele>220.7</ele>
        <time>2022-05-29T07:23:38Z</time>
      </trkpt>
      <trkpt lat="48.54212" lon="-3.66055">
        <ele>221.5</ele>
        <time>2022-05-29T07:23:44Z</time>
      </trkpt>
      <trkpt lat="48.54211" lon="-3.66126">
        <ele>223.3</ele>
        <time>2022-05-29T07:23:57Z</time>
      </trkpt>
      <trkpt lat="48.54209" lon="-3.6615">
        <ele>223.8</ele>
        <time>2022-05-29T07:24:01Z</time>
      </trkpt>
      <trkpt lat="48.54207" lon="-3.66179">
        <ele>224.2</ele>
        <time>2022-05-29T07:24:06Z</time>
      </trkpt>
      <trkpt lat="48.54201" lon="-3.66186">
        <ele>224.3</ele>
        <time>2022-05-29T07:24:08Z</time>
      </trkpt>
      <trkpt lat="48.54155" lon="-3.66184">
        <ele>225.2</ele>
        <time>2022-05-29T07:24:19Z</time>
      </trkpt>
      <trkpt lat="48.54144" lon="-3.66185">
        <ele>225.4</ele>
        <time>2022-05-29T07:24:22Z</time>
      </trkpt>
      <trkpt lat="48.54106" lon="-3.66188">
        <ele>227.1</ele>
        <time>2022-05-29T07:24:32Z</time>
      </trkpt>
      <trkpt lat="48.54074" lon="-3.6619">
        <ele>228.5</ele>
        <time>2022-05-29T07:24:40Z</time>
      </trkpt>
      <trkpt lat="48.54058" lon="-3.66191">
        <ele>229</ele>
        <time>2022-05-29T07:24:44Z</time>
      </trkpt>
      <trkpt lat="48.54011" lon="-3.66195">
        <ele>230.4</ele>
        <time>2022-05-29T07:24:55Z</time>
      </trkpt>
      <trkpt lat="48.5397" lon="-3.66198">
        <ele>231.5</ele>
        <time>2022-05-29T07:25:04Z</time>
      </trkpt>
      <trkpt lat="48.53966" lon="-3.66198">
        <ele>231.6</ele>
        <time>2022-05-29T07:25:05Z</time>
      </trkpt>
      <trkpt lat="48.53918" lon="-3.66201">
        <ele>232.6</ele>
        <time>2022-05-29T07:25:15Z</time>
      </trkpt>
      <trkpt lat="48.53887" lon="-3.66207">
        <ele>233.4</ele>
        <time>2022-05-29T07:25:22Z</time>
      </trkpt>
      <trkpt lat="48.5387" lon="-3.66211">
        <ele>233.7</ele>
        <time>2022-05-29T07:25:26Z</time>
      </trkpt>
      <trkpt lat="48.53862" lon="-3.66218">
        <ele>233.9</ele>
        <time>2022-05-29T07:25:28Z</time>
      </trkpt>
      <trkpt lat="48.53828" lon="-3.66249">
        <ele>234.6</ele>
        <time>2022-05-29T07:25:37Z</time>
      </trkpt>
      <trkpt lat="48.53799" lon="-3.66305">
        <ele>235.2</ele>
        <time>2022-05-29T07:25:46Z</time>
      </trkpt>
      <trkpt lat="48.5377" lon="-3.66357">
        <ele>235.8</ele>
        <time>2022-05-29T07:25:54Z</time>
      </trkpt>
      <trkpt lat="48.53735" lon="-3.66403">
        <ele>236.4</ele>
        <time>2022-05-29T07:26:02Z</time>
      </trkpt>
      <trkpt lat="48.53698" lon="-3.66442">
        <ele>237</ele>
        <time>2022-05-29T07:26:10Z</time>
      </trkpt>
      <trkpt lat="48.53676" lon="-3.66464">
        <ele>237.4</ele>
        <time>2022-05-29T07:26:15Z</time>
      </trkpt>
      <trkpt lat="48.53659" lon="-3.66482">
        <ele>237.9</ele>
        <time>2022-05-29T07:26:19Z</time>
      </trkpt>
      <trkpt lat="48.5362" lon="-3.66521">
        <ele>238.9</ele>
        <time>2022-05-29T07:26:28Z</time>
      </trkpt>
      <trkpt lat="48.53581" lon="-3.66564">
        <ele>239.9</ele>
        <time>2022-05-29T07:26:37Z</time>
      </trkpt>
      <trkpt lat="48.53576" lon="-3.66568">
        <ele>239.9</ele>
        <time>2022-05-29T07:26:38Z</time>
      </trkpt>
      <trkpt lat="48.53544" lon="-3.66601">
        <ele>240.3</ele>
        <time>2022-05-29T07:26:45Z</time>
      </trkpt>
      <trkpt lat="48.53506" lon="-3.66642">
        <ele>240.8</ele>
        <time>2022-05-29T07:26:53Z</time>
      </trkpt>
      <trkpt lat="48.53468" lon="-3.66682">
        <ele>241.2</ele>
        <time>2022-05-29T07:27:01Z</time>
      </trkpt>
      <trkpt lat="48.5343" lon="-3.66721">
        <ele>241.7</ele>
        <time>2022-05-29T07:27:09Z</time>
      </trkpt>
      <trkpt lat="48.53392" lon="-3.66761">
        <ele>242.1</ele>
        <time>2022-05-29T07:27:17Z</time>
      </trkpt>
      <trkpt lat="48.53377" lon="-3.66781">
        <ele>242.4</ele>
        <time>2022-05-29T07:27:21Z</time>
      </trkpt>
      <trkpt lat="48.53367" lon="-3.66807">
        <ele>242.6</ele>
        <time>2022-05-29T07:27:25Z</time>
      </trkpt>
      <trkpt lat="48.53338" lon="-3.66836">
        <ele>243</ele>
        <time>2022-05-29T07:27:32Z</time>
      </trkpt>
      <trkpt lat="48.53326" lon="-3.66849">
        <ele>243.5</ele>
        <time>2022-05-29T07:27:35Z</time>
      </trkpt>
      <trkpt lat="48.53291" lon="-3.66888">
        <ele>244.8</ele>
        <time>2022-05-29T07:27:44Z</time>
      </trkpt>
      <trkpt lat="48.53287" lon="-3.66892">
        <ele>244.8</ele>
        <time>2022-05-29T07:27:45Z</time>
      </trkpt>
      <trkpt lat="48.53266" lon="-3.6692">
        <ele>245.3</ele>
        <time>2022-05-29T07:27:50Z</time>
      </trkpt>
      <trkpt lat="48.5325" lon="-3.66942">
        <ele>245.7</ele>
        <time>2022-05-29T07:27:54Z</time>
      </trkpt>
      <trkpt lat="48.53219" lon="-3.66998">
        <ele>246.7</ele>
        <time>2022-05-29T07:28:03Z</time>
      </trkpt>
      <trkpt lat="48.53207" lon="-3.67025">
        <ele>247.2</ele>
        <time>2022-05-29T07:28:07Z</time>
      </trkpt>
      <trkpt lat="48.53198" lon="-3.6703">
        <ele>247.4</ele>
        <time>2022-05-29T07:28:09Z</time>
      </trkpt>
      <trkpt lat="48.53152" lon="-3.67013">
        <ele>248.5</ele>
        <time>2022-05-29T07:28:19Z</time>
      </trkpt>
      <trkpt lat="48.53104" lon="-3.67002">
        <ele>250.5</ele>
        <time>2022-05-29T07:28:30Z</time>
      </trkpt>
      <trkpt lat="48.53075" lon="-3.67001">
        <ele>251.8</ele>
        <time>2022-05-29T07:28:37Z</time>
      </trkpt>
      <trkpt lat="48.53059" lon="-3.67">
        <ele>252.6</ele>
        <time>2022-05-29T07:28:41Z</time>
      </trkpt>
      <trkpt lat="48.53011" lon="-3.67002">
        <ele>255.1</ele>
        <time>2022-05-29T07:28:53Z</time>
      </trkpt>
      <trkpt lat="48.53003" lon="-3.67002">
        <ele>255.5</ele>
        <time>2022-05-29T07:28:55Z</time>
      </trkpt>
      <trkpt lat="48.52966" lon="-3.67003">
        <ele>257.5</ele>
        <time>2022-05-29T07:29:05Z</time>
      </trkpt>
      <trkpt lat="48.52936" lon="-3.67004">
        <ele>259</ele>
        <time>2022-05-29T07:29:13Z</time>
      </trkpt>
      <trkpt lat="48.52921" lon="-3.67004">
        <ele>259.8</ele>
        <time>2022-05-29T07:29:17Z</time>
      </trkpt>
      <trkpt lat="48.52874" lon="-3.67005">
        <ele>262.2</ele>
        <time>2022-05-29T07:29:29Z</time>
      </trkpt>
      <trkpt lat="48.52865" lon="-3.67005">
        <ele>262.6</ele>
        <time>2022-05-29T07:29:31Z</time>
      </trkpt>
      <trkpt lat="48.52828" lon="-3.67005">
        <ele>263.6</ele>
        <time>2022-05-29T07:29:40Z</time>
      </trkpt>
      <trkpt lat="48.52815" lon="-3.67005">
        <ele>263.9</ele>
        <time>2022-05-29T07:29:43Z</time>
      </trkpt>
      <trkpt lat="48.52778" lon="-3.67006">
        <ele>262.9</ele>
        <time>2022-05-29T07:29:51Z</time>
      </trkpt>
      <trkpt lat="48.52727" lon="-3.67">
        <ele>261.7</ele>
        <time>2022-05-29T07:30:01Z</time>
      </trkpt>
      <trkpt lat="48.52685" lon="-3.66986">
        <ele>260.8</ele>
        <time>2022-05-29T07:30:07Z</time>
      </trkpt>
      <trkpt lat="48.52677" lon="-3.66983">
        <ele>260.3</ele>
        <time>2022-05-29T07:30:08Z</time>
      </trkpt>
      <trkpt lat="48.52631" lon="-3.66969">
        <ele>257.7</ele>
        <time>2022-05-29T07:30:13Z</time>
      </trkpt>
      <trkpt lat="48.52611" lon="-3.66962">
        <ele>256.1</ele>
        <time>2022-05-29T07:30:15Z</time>
      </trkpt>
      <trkpt lat="48.52577" lon="-3.66955">
        <ele>253.6</ele>
        <time>2022-05-29T07:30:18Z</time>
      </trkpt>
      <trkpt lat="48.52566" lon="-3.66952">
        <ele>252.9</ele>
        <time>2022-05-29T07:30:19Z</time>
      </trkpt>
      <trkpt lat="48.52555" lon="-3.66947">
        <ele>252.1</ele>
        <time>2022-05-29T07:30:20Z</time>
      </trkpt>
      <trkpt lat="48.52522" lon="-3.66938">
        <ele>249.9</ele>
        <time>2022-05-29T07:30:23Z</time>
      </trkpt>
      <trkpt lat="48.5251" lon="-3.66935">
        <ele>249.2</ele>
        <time>2022-05-29T07:30:24Z</time>
      </trkpt>
      <trkpt lat="48.52464" lon="-3.66917">
        <ele>246.5</ele>
        <time>2022-05-29T07:30:28Z</time>
      </trkpt>
      <trkpt lat="48.52419" lon="-3.6689">
        <ele>243.3</ele>
        <time>2022-05-29T07:30:32Z</time>
      </trkpt>
      <trkpt lat="48.5241" lon="-3.66882">
        <ele>242.9</ele>
        <time>2022-05-29T07:30:33Z</time>
      </trkpt>
      <trkpt lat="48.52373" lon="-3.6685">
        <ele>243.3</ele>
        <time>2022-05-29T07:30:37Z</time>
      </trkpt>
      <trkpt lat="48.52331" lon="-3.66815">
        <ele>243.9</ele>
        <time>2022-05-29T07:30:43Z</time>
      </trkpt>
      <trkpt lat="48.52321" lon="-3.66807">
        <ele>244.2</ele>
        <time>2022-05-29T07:30:45Z</time>
      </trkpt>
      <trkpt lat="48.52294" lon="-3.66786">
        <ele>245.9</ele>
        <time>2022-05-29T07:30:51Z</time>
      </trkpt>
      <trkpt lat="48.52289" lon="-3.66782">
        <ele>246.1</ele>
        <time>2022-05-29T07:30:52Z</time>
      </trkpt>
      <trkpt lat="48.52265" lon="-3.66767">
        <ele>246.8</ele>
        <time>2022-05-29T07:30:57Z</time>
      </trkpt>
      <trkpt lat="48.52245" lon="-3.66754">
        <ele>247.2</ele>
        <time>2022-05-29T07:31:01Z</time>
      </trkpt>
      <trkpt lat="48.52234" lon="-3.66748">
        <ele>247.4</ele>
        <time>2022-05-29T07:31:03Z</time>
      </trkpt>
      <trkpt lat="48.52201" lon="-3.66731">
        <ele>247.6</ele>
        <time>2022-05-29T07:31:09Z</time>
      </trkpt>
      <trkpt lat="48.52155" lon="-3.66707">
        <ele>247.9</ele>
        <time>2022-05-29T07:31:17Z</time>
      </trkpt>
      <trkpt lat="48.52112" lon="-3.66683">
        <ele>248.1</ele>
        <time>2022-05-29T07:31:24Z</time>
      </trkpt>
      <trkpt lat="48.5207" lon="-3.66658">
        <ele>248.3</ele>
        <time>2022-05-29T07:31:31Z</time>
      </trkpt>
      <trkpt lat="48.52055" lon="-3.66656">
        <ele>248.4</ele>
        <time>2022-05-29T07:31:33Z</time>
      </trkpt>
      <trkpt lat="48.52019" lon="-3.66667">
        <ele>248.6</ele>
        <time>2022-05-29T07:31:38Z</time>
      </trkpt>
      <trkpt lat="48.52013" lon="-3.66673">
        <ele>248.6</ele>
        <time>2022-05-29T07:31:39Z</time>
      </trkpt>
      <trkpt lat="48.51965" lon="-3.66674">
        <ele>248.9</ele>
        <time>2022-05-29T07:31:47Z</time>
      </trkpt>
      <trkpt lat="48.51916" lon="-3.66674">
        <ele>249.2</ele>
        <time>2022-05-29T07:31:55Z</time>
      </trkpt>
      <trkpt lat="48.51879" lon="-3.66674">
        <ele>249.5</ele>
        <time>2022-05-29T07:32:03Z</time>
      </trkpt>
      <trkpt lat="48.51869" lon="-3.66674">
        <ele>250.1</ele>
        <time>2022-05-29T07:32:05Z</time>
      </trkpt>
      <trkpt lat="48.51851" lon="-3.66674">
        <ele>251.1</ele>
        <time>2022-05-29T07:32:09Z</time>
      </trkpt>
      <trkpt lat="48.51823" lon="-3.66674">
        <ele>252.1</ele>
        <time>2022-05-29T07:32:15Z</time>
      </trkpt>
      <trkpt lat="48.51795" lon="-3.66677">
        <ele>252.7</ele>
        <time>2022-05-29T07:32:21Z</time>
      </trkpt>
      <trkpt lat="48.51745" lon="-3.66682">
        <ele>253.6</ele>
        <time>2022-05-29T07:32:31Z</time>
      </trkpt>
      <trkpt lat="48.51711" lon="-3.66686">
        <ele>254.1</ele>
        <time>2022-05-29T07:32:37Z</time>
      </trkpt>
      <trkpt lat="48.51699" lon="-3.66688">
        <ele>254</ele>
        <time>2022-05-29T07:32:39Z</time>
      </trkpt>
      <trkpt lat="48.51654" lon="-3.66691">
        <ele>253.6</ele>
        <time>2022-05-29T07:32:46Z</time>
      </trkpt>
      <trkpt lat="48.51606" lon="-3.66676">
        <ele>253.1</ele>
        <time>2022-05-29T07:32:54Z</time>
      </trkpt>
      <trkpt lat="48.51562" lon="-3.66661">
        <ele>252.8</ele>
        <time>2022-05-29T07:33:01Z</time>
      </trkpt>
      <trkpt lat="48.51556" lon="-3.66658">
        <ele>252.7</ele>
        <time>2022-05-29T07:33:02Z</time>
      </trkpt>
      <trkpt lat="48.51544" lon="-3.66656">
        <ele>252.6</ele>
        <time>2022-05-29T07:33:04Z</time>
      </trkpt>
      <trkpt lat="48.51525" lon="-3.66649">
        <ele>252.4</ele>
        <time>2022-05-29T07:33:07Z</time>
      </trkpt>
      <trkpt lat="48.51493" lon="-3.6664">
        <ele>252.2</ele>
        <time>2022-05-29T07:33:12Z</time>
      </trkpt>
      <trkpt lat="48.5147" lon="-3.66632">
        <ele>252</ele>
        <time>2022-05-29T07:33:16Z</time>
      </trkpt>
      <trkpt lat="48.51435" lon="-3.66627">
        <ele>251.6</ele>
        <time>2022-05-29T07:33:22Z</time>
      </trkpt>
      <trkpt lat="48.51417" lon="-3.6664">
        <ele>251.5</ele>
        <time>2022-05-29T07:33:25Z</time>
      </trkpt>
      <trkpt lat="48.51394" lon="-3.667">
        <ele>251.1</ele>
        <time>2022-05-29T07:33:32Z</time>
      </trkpt>
      <trkpt lat="48.51371" lon="-3.66764">
        <ele>250.7</ele>
        <time>2022-05-29T07:33:39Z</time>
      </trkpt>
      <trkpt lat="48.51353" lon="-3.66815">
        <ele>250.4</ele>
        <time>2022-05-29T07:33:45Z</time>
      </trkpt>
      <trkpt lat="48.51338" lon="-3.66832">
        <ele>250.2</ele>
        <time>2022-05-29T07:33:48Z</time>
      </trkpt>
      <trkpt lat="48.51288" lon="-3.66857">
        <ele>249.7</ele>
        <time>2022-05-29T07:33:55Z</time>
      </trkpt>
      <trkpt lat="48.51246" lon="-3.66869">
        <ele>248.4</ele>
        <time>2022-05-29T07:34:00Z</time>
      </trkpt>
      <trkpt lat="48.51238" lon="-3.66869">
        <ele>248.2</ele>
        <time>2022-05-29T07:34:01Z</time>
      </trkpt>
      <trkpt lat="48.51213" lon="-3.6687">
        <ele>247.5</ele>
        <time>2022-05-29T07:34:04Z</time>
      </trkpt>
      <trkpt lat="48.51191" lon="-3.66871">
        <ele>247</ele>
        <time>2022-05-29T07:34:07Z</time>
      </trkpt>
      <trkpt lat="48.51168" lon="-3.66873">
        <ele>247.1</ele>
        <time>2022-05-29T07:34:10Z</time>
      </trkpt>
      <trkpt lat="48.51155" lon="-3.66879">
        <ele>247.1</ele>
        <time>2022-05-29T07:34:12Z</time>
      </trkpt>
      <trkpt lat="48.51149" lon="-3.66884">
        <ele>247.1</ele>
        <time>2022-05-29T07:34:13Z</time>
      </trkpt>
      <trkpt lat="48.51144" lon="-3.6689">
        <ele>246.9</ele>
        <time>2022-05-29T07:34:14Z</time>
      </trkpt>
      <trkpt lat="48.51138" lon="-3.66893">
        <ele>246.7</ele>
        <time>2022-05-29T07:34:15Z</time>
      </trkpt>
      <trkpt lat="48.51088" lon="-3.66885">
        <ele>245.7</ele>
        <time>2022-05-29T07:34:21Z</time>
      </trkpt>
      <trkpt lat="48.5106" lon="-3.66877">
        <ele>245.1</ele>
        <time>2022-05-29T07:34:25Z</time>
      </trkpt>
      <trkpt lat="48.5104" lon="-3.66871">
        <ele>245.4</ele>
        <time>2022-05-29T07:34:28Z</time>
      </trkpt>
      <trkpt lat="48.51028" lon="-3.66865">
        <ele>245.5</ele>
        <time>2022-05-29T07:34:30Z</time>
      </trkpt>
      <trkpt lat="48.50993" lon="-3.66847">
        <ele>246.3</ele>
        <time>2022-05-29T07:34:36Z</time>
      </trkpt>
      <trkpt lat="48.50968" lon="-3.66832">
        <ele>247</ele>
        <time>2022-05-29T07:34:41Z</time>
      </trkpt>
      <trkpt lat="48.50947" lon="-3.66821">
        <ele>247.7</ele>
        <time>2022-05-29T07:34:45Z</time>
      </trkpt>
      <trkpt lat="48.50903" lon="-3.66792">
        <ele>249.6</ele>
        <time>2022-05-29T07:34:55Z</time>
      </trkpt>
      <trkpt lat="48.50895" lon="-3.66786">
        <ele>250</ele>
        <time>2022-05-29T07:34:57Z</time>
      </trkpt>
      <trkpt lat="48.50891" lon="-3.66784">
        <ele>250.2</ele>
        <time>2022-05-29T07:34:58Z</time>
      </trkpt>
      <trkpt lat="48.50867" lon="-3.66768">
        <ele>252.1</ele>
        <time>2022-05-29T07:35:04Z</time>
      </trkpt>
      <trkpt lat="48.50859" lon="-3.66763">
        <ele>252.5</ele>
        <time>2022-05-29T07:35:06Z</time>
      </trkpt>
      <trkpt lat="48.50821" lon="-3.6674">
        <ele>254.7</ele>
        <time>2022-05-29T07:35:16Z</time>
      </trkpt>
      <trkpt lat="48.50817" lon="-3.66737">
        <ele>255</ele>
        <time>2022-05-29T07:35:17Z</time>
      </trkpt>
      <trkpt lat="48.50774" lon="-3.66712">
        <ele>258.2</ele>
        <time>2022-05-29T07:35:30Z</time>
      </trkpt>
      <trkpt lat="48.5076" lon="-3.66703">
        <ele>259.1</ele>
        <time>2022-05-29T07:35:34Z</time>
      </trkpt>
      <trkpt lat="48.5073" lon="-3.66686">
        <ele>260.2</ele>
        <time>2022-05-29T07:35:43Z</time>
      </trkpt>
      <trkpt lat="48.5072" lon="-3.66682">
        <ele>260.6</ele>
        <time>2022-05-29T07:35:46Z</time>
      </trkpt>
      <trkpt lat="48.507" lon="-3.66675">
        <ele>262</ele>
        <time>2022-05-29T07:35:52Z</time>
      </trkpt>
      <trkpt lat="48.50683" lon="-3.66669">
        <ele>263</ele>
        <time>2022-05-29T07:35:57Z</time>
      </trkpt>
      <trkpt lat="48.50638" lon="-3.66664">
        <ele>265.6</ele>
        <time>2022-05-29T07:36:10Z</time>
      </trkpt>
      <trkpt lat="48.50592" lon="-3.66658">
        <ele>268.2</ele>
        <time>2022-05-29T07:36:23Z</time>
      </trkpt>
      <trkpt lat="48.50574" lon="-3.66656">
        <ele>269.2</ele>
        <time>2022-05-29T07:36:28Z</time>
      </trkpt>
      <trkpt lat="48.50542" lon="-3.66651">
        <ele>270.8</ele>
        <time>2022-05-29T07:36:37Z</time>
      </trkpt>
      <trkpt lat="48.50512" lon="-3.6664">
        <ele>272</ele>
        <time>2022-05-29T07:36:44Z</time>
      </trkpt>
      <trkpt lat="48.50486" lon="-3.66621">
        <ele>273.3</ele>
        <time>2022-05-29T07:36:51Z</time>
      </trkpt>
      <trkpt lat="48.50472" lon="-3.66611">
        <ele>274.3</ele>
        <time>2022-05-29T07:36:55Z</time>
      </trkpt>
      <trkpt lat="48.50451" lon="-3.66592">
        <ele>276.3</ele>
        <time>2022-05-29T07:37:03Z</time>
      </trkpt>
      <trkpt lat="48.50435" lon="-3.66578">
        <ele>277.9</ele>
        <time>2022-05-29T07:37:09Z</time>
      </trkpt>
      <trkpt lat="48.5043" lon="-3.66573">
        <ele>278.6</ele>
        <time>2022-05-29T07:37:11Z</time>
      </trkpt>
      <trkpt lat="48.50419" lon="-3.6656">
        <ele>279.9</ele>
        <time>2022-05-29T07:37:15Z</time>
      </trkpt>
      <trkpt lat="48.50393" lon="-3.66528">
        <ele>282.6</ele>
        <time>2022-05-29T07:37:25Z</time>
      </trkpt>
      <trkpt lat="48.50388" lon="-3.66521">
        <ele>283</ele>
        <time>2022-05-29T07:37:27Z</time>
      </trkpt>
      <trkpt lat="48.50357" lon="-3.66479">
        <ele>285.4</ele>
        <time>2022-05-29T07:37:39Z</time>
      </trkpt>
      <trkpt lat="48.50322" lon="-3.66432">
        <ele>286.6</ele>
        <time>2022-05-29T07:37:51Z</time>
      </trkpt>
      <trkpt lat="48.50284" lon="-3.66383">
        <ele>285.3</ele>
        <time>2022-05-29T07:38:01Z</time>
      </trkpt>
      <trkpt lat="48.50273" lon="-3.66366">
        <ele>284.9</ele>
        <time>2022-05-29T07:38:03Z</time>
      </trkpt>
      <trkpt lat="48.50252" lon="-3.66331">
        <ele>283.2</ele>
        <time>2022-05-29T07:38:07Z</time>
      </trkpt>
      <trkpt lat="48.50239" lon="-3.66311">
        <ele>282.3</ele>
        <time>2022-05-29T07:38:09Z</time>
      </trkpt>
      <trkpt lat="48.50219" lon="-3.66281">
        <ele>280.7</ele>
        <time>2022-05-29T07:38:12Z</time>
      </trkpt>
      <trkpt lat="48.50198" lon="-3.66247">
        <ele>279.1</ele>
        <time>2022-05-29T07:38:15Z</time>
      </trkpt>
      <trkpt lat="48.50183" lon="-3.66225">
        <ele>277.8</ele>
        <time>2022-05-29T07:38:17Z</time>
      </trkpt>
      <trkpt lat="48.50155" lon="-3.66181">
        <ele>275.6</ele>
        <time>2022-05-29T07:38:21Z</time>
      </trkpt>
      <trkpt lat="48.50147" lon="-3.66173">
        <ele>275.3</ele>
        <time>2022-05-29T07:38:22Z</time>
      </trkpt>
      <trkpt lat="48.50138" lon="-3.66166">
        <ele>275.1</ele>
        <time>2022-05-29T07:38:23Z</time>
      </trkpt>
      <trkpt lat="48.50106" lon="-3.66115">
        <ele>273.9</ele>
        <time>2022-05-29T07:38:28Z</time>
      </trkpt>
      <trkpt lat="48.50087" lon="-3.66073">
        <ele>273</ele>
        <time>2022-05-29T07:38:32Z</time>
      </trkpt>
      <trkpt lat="48.50089" lon="-3.66055">
        <ele>272.8</ele>
        <time>2022-05-29T07:38:33Z</time>
      </trkpt>
      <trkpt lat="48.50107" lon="-3.65991">
        <ele>271.4</ele>
        <time>2022-05-29T07:38:39Z</time>
      </trkpt>
      <trkpt lat="48.50125" lon="-3.65926">
        <ele>270</ele>
        <time>2022-05-29T07:38:45Z</time>
      </trkpt>
      <trkpt lat="48.50145" lon="-3.65858">
        <ele>268.7</ele>
        <time>2022-05-29T07:38:51Z</time>
      </trkpt>
      <trkpt lat="48.50159" lon="-3.65809">
        <ele>267.7</ele>
        <time>2022-05-29T07:38:55Z</time>
      </trkpt>
      <trkpt lat="48.50166" lon="-3.65785">
        <ele>267.1</ele>
        <time>2022-05-29T07:38:57Z</time>
      </trkpt>
      <trkpt lat="48.50182" lon="-3.65721">
        <ele>265.5</ele>
        <time>2022-05-29T07:39:02Z</time>
      </trkpt>
      <trkpt lat="48.50197" lon="-3.65672">
        <ele>264.4</ele>
        <time>2022-05-29T07:39:06Z</time>
      </trkpt>
      <trkpt lat="48.50215" lon="-3.65597">
        <ele>263.6</ele>
        <time>2022-05-29T07:39:12Z</time>
      </trkpt>
      <trkpt lat="48.50228" lon="-3.65552">
        <ele>263.4</ele>
        <time>2022-05-29T07:39:16Z</time>
      </trkpt>
      <trkpt lat="48.50241" lon="-3.65487">
        <ele>263.1</ele>
        <time>2022-05-29T07:39:22Z</time>
      </trkpt>
      <trkpt lat="48.50244" lon="-3.65477">
        <ele>263.1</ele>
        <time>2022-05-29T07:39:23Z</time>
      </trkpt>
      <trkpt lat="48.50246" lon="-3.65467">
        <ele>263</ele>
        <time>2022-05-29T07:39:24Z</time>
      </trkpt>
      <trkpt lat="48.50258" lon="-3.65408">
        <ele>262</ele>
        <time>2022-05-29T07:39:30Z</time>
      </trkpt>
      <trkpt lat="48.50273" lon="-3.6533">
        <ele>260.8</ele>
        <time>2022-05-29T07:39:37Z</time>
      </trkpt>
      <trkpt lat="48.50281" lon="-3.65261">
        <ele>259.7</ele>
        <time>2022-05-29T07:39:42Z</time>
      </trkpt>
      <trkpt lat="48.50289" lon="-3.65187">
        <ele>256.6</ele>
        <time>2022-05-29T07:39:47Z</time>
      </trkpt>
      <trkpt lat="48.50291" lon="-3.6517">
        <ele>255.9</ele>
        <time>2022-05-29T07:39:48Z</time>
      </trkpt>
      <trkpt lat="48.50294" lon="-3.6512">
        <ele>253.2</ele>
        <time>2022-05-29T07:39:51Z</time>
      </trkpt>
      <trkpt lat="48.50298" lon="-3.65064">
        <ele>250.5</ele>
        <time>2022-05-29T07:39:54Z</time>
      </trkpt>
      <trkpt lat="48.50301" lon="-3.65045">
        <ele>249.3</ele>
        <time>2022-05-29T07:39:55Z</time>
      </trkpt>
      <trkpt lat="48.50308" lon="-3.64988">
        <ele>245.8</ele>
        <time>2022-05-29T07:39:58Z</time>
      </trkpt>
      <trkpt lat="48.50318" lon="-3.64952">
        <ele>243.6</ele>
        <time>2022-05-29T07:40:00Z</time>
      </trkpt>
      <trkpt lat="48.50327" lon="-3.64917">
        <ele>241.5</ele>
        <time>2022-05-29T07:40:02Z</time>
      </trkpt>
      <trkpt lat="48.50334" lon="-3.64868">
        <ele>237.7</ele>
        <time>2022-05-29T07:40:06Z</time>
      </trkpt>
      <trkpt lat="48.503" lon="-3.64837">
        <ele>237.2</ele>
        <time>2022-05-29T07:40:10Z</time>
      </trkpt>
      <trkpt lat="48.50295" lon="-3.64829">
        <ele>237.1</ele>
        <time>2022-05-29T07:40:11Z</time>
      </trkpt>
      <trkpt lat="48.50258" lon="-3.64787">
        <ele>236.5</ele>
        <time>2022-05-29T07:40:18Z</time>
      </trkpt>
      <trkpt lat="48.50228" lon="-3.64753">
        <ele>237.7</ele>
        <time>2022-05-29T07:40:24Z</time>
      </trkpt>
      <trkpt lat="48.50219" lon="-3.64742">
        <ele>238.1</ele>
        <time>2022-05-29T07:40:26Z</time>
      </trkpt>
      <trkpt lat="48.50183" lon="-3.64701">
        <ele>240</ele>
        <time>2022-05-29T07:40:35Z</time>
      </trkpt>
      <trkpt lat="48.50154" lon="-3.64679">
        <ele>241.4</ele>
        <time>2022-05-29T07:40:42Z</time>
      </trkpt>
      <trkpt lat="48.50143" lon="-3.6467">
        <ele>242.3</ele>
        <time>2022-05-29T07:40:45Z</time>
      </trkpt>
      <trkpt lat="48.50117" lon="-3.64655">
        <ele>244.5</ele>
        <time>2022-05-29T07:40:53Z</time>
      </trkpt>
      <trkpt lat="48.50105" lon="-3.64648">
        <ele>245.6</ele>
        <time>2022-05-29T07:40:57Z</time>
      </trkpt>
      <trkpt lat="48.50086" lon="-3.6464">
        <ele>247.5</ele>
        <time>2022-05-29T07:41:04Z</time>
      </trkpt>
      <trkpt lat="48.5006" lon="-3.64628">
        <ele>250.2</ele>
        <time>2022-05-29T07:41:14Z</time>
      </trkpt>
      <trkpt lat="48.50054" lon="-3.64626">
        <ele>250.7</ele>
        <time>2022-05-29T07:41:16Z</time>
      </trkpt>
      <trkpt lat="48.50038" lon="-3.64617">
        <ele>251.8</ele>
        <time>2022-05-29T07:41:22Z</time>
      </trkpt>
      <trkpt lat="48.50016" lon="-3.64605">
        <ele>253.9</ele>
        <time>2022-05-29T07:41:30Z</time>
      </trkpt>
      <trkpt lat="48.50006" lon="-3.64599">
        <ele>255</ele>
        <time>2022-05-29T07:41:34Z</time>
      </trkpt>
      <trkpt lat="48.49994" lon="-3.64593">
        <ele>256.3</ele>
        <time>2022-05-29T07:41:39Z</time>
      </trkpt>
      <trkpt lat="48.49992" lon="-3.64593">
        <ele>256.5</ele>
        <time>2022-05-29T07:41:40Z</time>
      </trkpt>
      <trkpt lat="48.49986" lon="-3.64593">
        <ele>257</ele>
        <time>2022-05-29T07:41:42Z</time>
      </trkpt>
      <trkpt lat="48.49977" lon="-3.64589">
        <ele>257.9</ele>
        <time>2022-05-29T07:41:46Z</time>
      </trkpt>
      <trkpt lat="48.49964" lon="-3.64583">
        <ele>258.4</ele>
        <time>2022-05-29T07:41:52Z</time>
      </trkpt>
      <trkpt lat="48.49959" lon="-3.64585">
        <ele>259</ele>
        <time>2022-05-29T07:41:54Z</time>
      </trkpt>
      <trkpt lat="48.49949" lon="-3.64582">
        <ele>260.2</ele>
        <time>2022-05-29T07:41:58Z</time>
      </trkpt>
      <trkpt lat="48.49934" lon="-3.64583">
        <ele>262</ele>
        <time>2022-05-29T07:42:04Z</time>
      </trkpt>
      <trkpt lat="48.49918" lon="-3.64583">
        <ele>263.4</ele>
        <time>2022-05-29T07:42:10Z</time>
      </trkpt>
      <trkpt lat="48.49902" lon="-3.64583">
        <ele>264.6</ele>
        <time>2022-05-29T07:42:16Z</time>
      </trkpt>
      <trkpt lat="48.49883" lon="-3.64582">
        <ele>265.7</ele>
        <time>2022-05-29T07:42:22Z</time>
      </trkpt>
      <trkpt lat="48.49864" lon="-3.64586">
        <ele>266.9</ele>
        <time>2022-05-29T07:42:28Z</time>
      </trkpt>
      <trkpt lat="48.49836" lon="-3.64593">
        <ele>268.6</ele>
        <time>2022-05-29T07:42:37Z</time>
      </trkpt>
      <trkpt lat="48.49814" lon="-3.64616">
        <ele>270.3</ele>
        <time>2022-05-29T07:42:46Z</time>
      </trkpt>
      <trkpt lat="48.49805" lon="-3.64626">
        <ele>271.4</ele>
        <time>2022-05-29T07:42:50Z</time>
      </trkpt>
      <trkpt lat="48.49802" lon="-3.64632">
        <ele>272</ele>
        <time>2022-05-29T07:42:52Z</time>
      </trkpt>
      <trkpt lat="48.49785" lon="-3.64666">
        <ele>274.8</ele>
        <time>2022-05-29T07:43:03Z</time>
      </trkpt>
      <trkpt lat="48.49777" lon="-3.64681">
        <ele>276.5</ele>
        <time>2022-05-29T07:43:08Z</time>
      </trkpt>
      <trkpt lat="48.4976" lon="-3.64714">
        <ele>279.3</ele>
        <time>2022-05-29T07:43:20Z</time>
      </trkpt>
      <trkpt lat="48.49749" lon="-3.64736">
        <ele>281</ele>
        <time>2022-05-29T07:43:28Z</time>
      </trkpt>
      <trkpt lat="48.49735" lon="-3.64768">
        <ele>283.2</ele>
        <time>2022-05-29T07:43:38Z</time>
      </trkpt>
      <trkpt lat="48.49724" lon="-3.64794">
        <ele>284.7</ele>
        <time>2022-05-29T07:43:46Z</time>
      </trkpt>
      <trkpt lat="48.49718" lon="-3.64811">
        <ele>285.7</ele>
        <time>2022-05-29T07:43:51Z</time>
      </trkpt>
      <trkpt lat="48.49708" lon="-3.64828">
        <ele>286.6</ele>
        <time>2022-05-29T07:43:56Z</time>
      </trkpt>
      <trkpt lat="48.49697" lon="-3.64849">
        <ele>287.2</ele>
        <time>2022-05-29T07:44:02Z</time>
      </trkpt>
      <trkpt lat="48.4969" lon="-3.64863">
        <ele>287.4</ele>
        <time>2022-05-29T07:44:06Z</time>
      </trkpt>
      <trkpt lat="48.49678" lon="-3.6488">
        <ele>287.6</ele>
        <time>2022-05-29T07:44:11Z</time>
      </trkpt>
      <trkpt lat="48.49657" lon="-3.64894">
        <ele>288</ele>
        <time>2022-05-29T07:44:18Z</time>
      </trkpt>
      <trkpt lat="48.49608" lon="-3.64884">
        <ele>288.4</ele>
        <time>2022-05-29T07:44:28Z</time>
      </trkpt>
      <trkpt lat="48.49559" lon="-3.64882">
        <ele>288.9</ele>
        <time>2022-05-29T07:44:38Z</time>
      </trkpt>
      <trkpt lat="48.49514" lon="-3.64893">
        <ele>289.4</ele>
        <time>2022-05-29T07:44:47Z</time>
      </trkpt>
      <trkpt lat="48.49475" lon="-3.649">
        <ele>289.7</ele>
        <time>2022-05-29T07:44:54Z</time>
      </trkpt>
      <trkpt lat="48.49448" lon="-3.64903">
        <ele>289.9</ele>
        <time>2022-05-29T07:44:59Z</time>
      </trkpt>
      <trkpt lat="48.49414" lon="-3.64888">
        <ele>290.3</ele>
        <time>2022-05-29T07:45:06Z</time>
      </trkpt>
      <trkpt lat="48.49408" lon="-3.64885">
        <ele>290.3</ele>
        <time>2022-05-29T07:45:07Z</time>
      </trkpt>
      <trkpt lat="48.49382" lon="-3.64872">
        <ele>290.2</ele>
        <time>2022-05-29T07:45:12Z</time>
      </trkpt>
      <trkpt lat="48.4937" lon="-3.64867">
        <ele>290.2</ele>
        <time>2022-05-29T07:45:14Z</time>
      </trkpt>
      <trkpt lat="48.49333" lon="-3.64825">
        <ele>290.2</ele>
        <time>2022-05-29T07:45:22Z</time>
      </trkpt>
      <trkpt lat="48.49297" lon="-3.64781">
        <ele>290.1</ele>
        <time>2022-05-29T07:45:30Z</time>
      </trkpt>
      <trkpt lat="48.49272" lon="-3.6475">
        <ele>290</ele>
        <time>2022-05-29T07:45:36Z</time>
      </trkpt>
      <trkpt lat="48.49264" lon="-3.64742">
        <ele>290</ele>
        <time>2022-05-29T07:45:38Z</time>
      </trkpt>
      <trkpt lat="48.49225" lon="-3.64704">
        <ele>289.9</ele>
        <time>2022-05-29T07:45:47Z</time>
      </trkpt>
      <trkpt lat="48.49201" lon="-3.64686">
        <ele>289.9</ele>
        <time>2022-05-29T07:45:52Z</time>
      </trkpt>
      <trkpt lat="48.49195" lon="-3.64682">
        <ele>289.9</ele>
        <time>2022-05-29T07:45:53Z</time>
      </trkpt>
      <trkpt lat="48.49154" lon="-3.64636">
        <ele>289.8</ele>
        <time>2022-05-29T07:46:01Z</time>
      </trkpt>
      <trkpt lat="48.49132" lon="-3.64614">
        <ele>289.6</ele>
        <time>2022-05-29T07:46:05Z</time>
      </trkpt>
      <trkpt lat="48.49102" lon="-3.64629">
        <ele>289.4</ele>
        <time>2022-05-29T07:46:13Z</time>
      </trkpt>
      <trkpt lat="48.49087" lon="-3.64637">
        <ele>291</ele>
        <time>2022-05-29T07:46:17Z</time>
      </trkpt>
      <trkpt lat="48.49081" lon="-3.64641">
        <ele>291.7</ele>
        <time>2022-05-29T07:46:19Z</time>
      </trkpt>
      <trkpt lat="48.49045" lon="-3.64663">
        <ele>294.9</ele>
        <time>2022-05-29T07:46:31Z</time>
      </trkpt>
      <trkpt lat="48.49033" lon="-3.64679">
        <ele>296.1</ele>
        <time>2022-05-29T07:46:36Z</time>
      </trkpt>
      <trkpt lat="48.49009" lon="-3.64709">
        <ele>298.9</ele>
        <time>2022-05-29T07:46:46Z</time>
      </trkpt>
      <trkpt lat="48.49008" lon="-3.64717">
        <ele>299.5</ele>
        <time>2022-05-29T07:46:48Z</time>
      </trkpt>
      <trkpt lat="48.48998" lon="-3.64764">
        <ele>302.7</ele>
        <time>2022-05-29T07:47:00Z</time>
      </trkpt>
      <trkpt lat="48.48995" lon="-3.64776">
        <ele>303.5</ele>
        <time>2022-05-29T07:47:03Z</time>
      </trkpt>
      <trkpt lat="48.4899" lon="-3.64812">
        <ele>305.8</ele>
        <time>2022-05-29T07:47:12Z</time>
      </trkpt>
      <trkpt lat="48.48986" lon="-3.64844">
        <ele>307.5</ele>
        <time>2022-05-29T07:47:20Z</time>
      </trkpt>
      <trkpt lat="48.48985" lon="-3.64851">
        <ele>308</ele>
        <time>2022-05-29T07:47:22Z</time>
      </trkpt>
      <trkpt lat="48.48977" lon="-3.64912">
        <ele>311</ele>
        <time>2022-05-29T07:47:38Z</time>
      </trkpt>
      <trkpt lat="48.48977" lon="-3.64924">
        <ele>311.3</ele>
        <time>2022-05-29T07:47:40Z</time>
      </trkpt>
      <trkpt lat="48.48974" lon="-3.64961">
        <ele>311.3</ele>
        <time>2022-05-29T07:47:46Z</time>
      </trkpt>
      <trkpt lat="48.48973" lon="-3.64972">
        <ele>310.8</ele>
        <time>2022-05-29T07:47:48Z</time>
      </trkpt>
      <trkpt lat="48.48971" lon="-3.64985">
        <ele>310.3</ele>
        <time>2022-05-29T07:47:50Z</time>
      </trkpt>
      <trkpt lat="48.48972" lon="-3.6502">
        <ele>309.8</ele>
        <time>2022-05-29T07:47:52Z</time>
      </trkpt>
      <trkpt lat="48.48972" lon="-3.65054">
        <ele>308.9</ele>
        <time>2022-05-29T07:47:54Z</time>
      </trkpt>
      <trkpt lat="48.48971" lon="-3.65114">
        <ele>307.2</ele>
        <time>2022-05-29T07:47:58Z</time>
      </trkpt>
      <trkpt lat="48.48971" lon="-3.6513">
        <ele>306.4</ele>
        <time>2022-05-29T07:47:59Z</time>
      </trkpt>
      <trkpt lat="48.4897" lon="-3.65198">
        <ele>303.4</ele>
        <time>2022-05-29T07:48:03Z</time>
      </trkpt>
      <trkpt lat="48.48968" lon="-3.65216">
        <ele>302.9</ele>
        <time>2022-05-29T07:48:04Z</time>
      </trkpt>
      <trkpt lat="48.48961" lon="-3.65266">
        <ele>302.3</ele>
        <time>2022-05-29T07:48:07Z</time>
      </trkpt>
      <trkpt lat="48.48943" lon="-3.65336">
        <ele>301.3</ele>
        <time>2022-05-29T07:48:12Z</time>
      </trkpt>
      <trkpt lat="48.4893" lon="-3.65385">
        <ele>300.6</ele>
        <time>2022-05-29T07:48:16Z</time>
      </trkpt>
      <trkpt lat="48.48924" lon="-3.65408">
        <ele>301</ele>
        <time>2022-05-29T07:48:18Z</time>
      </trkpt>
      <trkpt lat="48.48913" lon="-3.65449">
        <ele>301.6</ele>
        <time>2022-05-29T07:48:22Z</time>
      </trkpt>
      <trkpt lat="48.48905" lon="-3.6548">
        <ele>302</ele>
        <time>2022-05-29T07:48:25Z</time>
      </trkpt>
      <trkpt lat="48.48897" lon="-3.65509">
        <ele>302.4</ele>
        <time>2022-05-29T07:48:28Z</time>
      </trkpt>
      <trkpt lat="48.48892" lon="-3.65528">
        <ele>302.9</ele>
        <time>2022-05-29T07:48:30Z</time>
      </trkpt>
      <trkpt lat="48.48873" lon="-3.65593">
        <ele>304.7</ele>
        <time>2022-05-29T07:48:38Z</time>
      </trkpt>
      <trkpt lat="48.48852" lon="-3.6564">
        <ele>306.5</ele>
        <time>2022-05-29T07:48:46Z</time>
      </trkpt>
      <trkpt lat="48.48847" lon="-3.65651">
        <ele>307.2</ele>
        <time>2022-05-29T07:48:48Z</time>
      </trkpt>
      <trkpt lat="48.48824" lon="-3.65694">
        <ele>310.4</ele>
        <time>2022-05-29T07:48:58Z</time>
      </trkpt>
      <trkpt lat="48.48818" lon="-3.65707">
        <ele>311.1</ele>
        <time>2022-05-29T07:49:01Z</time>
      </trkpt>
      <trkpt lat="48.48802" lon="-3.65743">
        <ele>313.3</ele>
        <time>2022-05-29T07:49:10Z</time>
      </trkpt>
      <trkpt lat="48.48794" lon="-3.65763">
        <ele>315.1</ele>
        <time>2022-05-29T07:49:15Z</time>
      </trkpt>
      <trkpt lat="48.48792" lon="-3.65766">
        <ele>315.1</ele>
        <time>2022-05-29T07:49:16Z</time>
      </trkpt>
      <trkpt lat="48.48792" lon="-3.65766">
        <ele>315.2</ele>
        <time>2022-05-29T07:49:18Z</time>
      </trkpt>
      <trkpt lat="48.48807" lon="-3.65729">
        <ele>315.5</ele>
        <time>2022-05-29T07:49:26Z</time>
      </trkpt>
      <trkpt lat="48.48812" lon="-3.65711">
        <ele>314.4</ele>
        <time>2022-05-29T07:49:29Z</time>
      </trkpt>
      <trkpt lat="48.48814" lon="-3.657">
        <ele>314.1</ele>
        <time>2022-05-29T07:49:30Z</time>
      </trkpt>
      <trkpt lat="48.48819" lon="-3.65692">
        <ele>313.6</ele>
        <time>2022-05-29T07:49:31Z</time>
      </trkpt>
      <trkpt lat="48.48825" lon="-3.65684">
        <ele>313.1</ele>
        <time>2022-05-29T07:49:32Z</time>
      </trkpt>
      <trkpt lat="48.48831" lon="-3.65675">
        <ele>312.5</ele>
        <time>2022-05-29T07:49:33Z</time>
      </trkpt>
      <trkpt lat="48.48853" lon="-3.65633">
        <ele>310.4</ele>
        <time>2022-05-29T07:49:37Z</time>
      </trkpt>
      <trkpt lat="48.48864" lon="-3.65611">
        <ele>309.2</ele>
        <time>2022-05-29T07:49:39Z</time>
      </trkpt>
      <trkpt lat="48.48877" lon="-3.65571">
        <ele>307.4</ele>
        <time>2022-05-29T07:49:42Z</time>
      </trkpt>
      <trkpt lat="48.48879" lon="-3.65556">
        <ele>306.9</ele>
        <time>2022-05-29T07:49:43Z</time>
      </trkpt>
      <trkpt lat="48.48896" lon="-3.65492">
        <ele>305</ele>
        <time>2022-05-29T07:49:48Z</time>
      </trkpt>
      <trkpt lat="48.48914" lon="-3.65421">
        <ele>302.7</ele>
        <time>2022-05-29T07:49:54Z</time>
      </trkpt>
      <trkpt lat="48.48917" lon="-3.65412">
        <ele>302.4</ele>
        <time>2022-05-29T07:49:55Z</time>
      </trkpt>
      <trkpt lat="48.48919" lon="-3.65404">
        <ele>302.3</ele>
        <time>2022-05-29T07:49:56Z</time>
      </trkpt>
      <trkpt lat="48.48916" lon="-3.65393">
        <ele>302</ele>
        <time>2022-05-29T07:49:58Z</time>
      </trkpt>
      <trkpt lat="48.4887" lon="-3.65383">
        <ele>300.9</ele>
        <time>2022-05-29T07:50:05Z</time>
      </trkpt>
      <trkpt lat="48.48858" lon="-3.6538">
        <ele>300.7</ele>
        <time>2022-05-29T07:50:07Z</time>
      </trkpt>
      <trkpt lat="48.48821" lon="-3.65374">
        <ele>300</ele>
        <time>2022-05-29T07:50:13Z</time>
      </trkpt>
      <trkpt lat="48.48769" lon="-3.6537">
        <ele>298.5</ele>
        <time>2022-05-29T07:50:21Z</time>
      </trkpt>
      <trkpt lat="48.48717" lon="-3.65363">
        <ele>297.1</ele>
        <time>2022-05-29T07:50:28Z</time>
      </trkpt>
      <trkpt lat="48.48694" lon="-3.65353">
        <ele>296.5</ele>
        <time>2022-05-29T07:50:31Z</time>
      </trkpt>
      <trkpt lat="48.4867" lon="-3.65342">
        <ele>295.4</ele>
        <time>2022-05-29T07:50:34Z</time>
      </trkpt>
      <trkpt lat="48.48622" lon="-3.65313">
        <ele>293.1</ele>
        <time>2022-05-29T07:50:40Z</time>
      </trkpt>
      <trkpt lat="48.48598" lon="-3.653">
        <ele>291.9</ele>
        <time>2022-05-29T07:50:43Z</time>
      </trkpt>
      <trkpt lat="48.48589" lon="-3.65298">
        <ele>291.4</ele>
        <time>2022-05-29T07:50:44Z</time>
      </trkpt>
      <trkpt lat="48.48536" lon="-3.65292">
        <ele>288.4</ele>
        <time>2022-05-29T07:50:50Z</time>
      </trkpt>
      <trkpt lat="48.4851" lon="-3.65287">
        <ele>286.9</ele>
        <time>2022-05-29T07:50:53Z</time>
      </trkpt>
      <trkpt lat="48.48491" lon="-3.65279">
        <ele>286</ele>
        <time>2022-05-29T07:50:55Z</time>
      </trkpt>
      <trkpt lat="48.48483" lon="-3.65273">
        <ele>285.6</ele>
        <time>2022-05-29T07:50:56Z</time>
      </trkpt>
      <trkpt lat="48.48474" lon="-3.65269">
        <ele>285.3</ele>
        <time>2022-05-29T07:50:57Z</time>
      </trkpt>
      <trkpt lat="48.48457" lon="-3.65258">
        <ele>284.6</ele>
        <time>2022-05-29T07:50:59Z</time>
      </trkpt>
      <trkpt lat="48.48442" lon="-3.65241">
        <ele>283.9</ele>
        <time>2022-05-29T07:51:01Z</time>
      </trkpt>
      <trkpt lat="48.48435" lon="-3.65233">
        <ele>283.5</ele>
        <time>2022-05-29T07:51:02Z</time>
      </trkpt>
      <trkpt lat="48.48405" lon="-3.65179">
        <ele>281.7</ele>
        <time>2022-05-29T07:51:07Z</time>
      </trkpt>
      <trkpt lat="48.48383" lon="-3.65132">
        <ele>280.3</ele>
        <time>2022-05-29T07:51:11Z</time>
      </trkpt>
      <trkpt lat="48.48372" lon="-3.65066">
        <ele>278.5</ele>
        <time>2022-05-29T07:51:16Z</time>
      </trkpt>
      <trkpt lat="48.48367" lon="-3.65037">
        <ele>277.7</ele>
        <time>2022-05-29T07:51:18Z</time>
      </trkpt>
      <trkpt lat="48.48361" lon="-3.64992">
        <ele>275.6</ele>
        <time>2022-05-29T07:51:21Z</time>
      </trkpt>
      <trkpt lat="48.48356" lon="-3.64945">
        <ele>273.6</ele>
        <time>2022-05-29T07:51:24Z</time>
      </trkpt>
      <trkpt lat="48.48353" lon="-3.64913">
        <ele>272.3</ele>
        <time>2022-05-29T07:51:26Z</time>
      </trkpt>
      <trkpt lat="48.48351" lon="-3.64867">
        <ele>270.7</ele>
        <time>2022-05-29T07:51:29Z</time>
      </trkpt>
      <trkpt lat="48.4835" lon="-3.64839">
        <ele>270.7</ele>
        <time>2022-05-29T07:51:31Z</time>
      </trkpt>
      <trkpt lat="48.48342" lon="-3.64772">
        <ele>270.9</ele>
        <time>2022-05-29T07:51:37Z</time>
      </trkpt>
      <trkpt lat="48.48337" lon="-3.64743">
        <ele>271.2</ele>
        <time>2022-05-29T07:51:41Z</time>
      </trkpt>
      <trkpt lat="48.48333" lon="-3.64716">
        <ele>273.1</ele>
        <time>2022-05-29T07:51:45Z</time>
      </trkpt>
      <trkpt lat="48.48331" lon="-3.64709">
        <ele>274</ele>
        <time>2022-05-29T07:51:47Z</time>
      </trkpt>
      <trkpt lat="48.4832" lon="-3.6467">
        <ele>278.7</ele>
        <time>2022-05-29T07:51:59Z</time>
      </trkpt>
      <trkpt lat="48.48315" lon="-3.64653">
        <ele>280.2</ele>
        <time>2022-05-29T07:52:04Z</time>
      </trkpt>
      <trkpt lat="48.48314" lon="-3.64622">
        <ele>282.3</ele>
        <time>2022-05-29T07:52:11Z</time>
      </trkpt>
      <trkpt lat="48.48314" lon="-3.64614">
        <ele>282.8</ele>
        <time>2022-05-29T07:52:13Z</time>
      </trkpt>
      <trkpt lat="48.48316" lon="-3.64602">
        <ele>284</ele>
        <time>2022-05-29T07:52:17Z</time>
      </trkpt>
      <trkpt lat="48.48318" lon="-3.64585">
        <ele>285.3</ele>
        <time>2022-05-29T07:52:23Z</time>
      </trkpt>
      <trkpt lat="48.48321" lon="-3.64567">
        <ele>286.6</ele>
        <time>2022-05-29T07:52:29Z</time>
      </trkpt>
      <trkpt lat="48.48323" lon="-3.64546">
        <ele>288</ele>
        <time>2022-05-29T07:52:36Z</time>
      </trkpt>
      <trkpt lat="48.48321" lon="-3.64506">
        <ele>290.3</ele>
        <time>2022-05-29T07:52:47Z</time>
      </trkpt>
      <trkpt lat="48.48319" lon="-3.64476">
        <ele>291.8</ele>
        <time>2022-05-29T07:52:55Z</time>
      </trkpt>
      <trkpt lat="48.48311" lon="-3.6443">
        <ele>293.5</ele>
        <time>2022-05-29T07:53:04Z</time>
      </trkpt>
      <trkpt lat="48.48308" lon="-3.64426">
        <ele>293.7</ele>
        <time>2022-05-29T07:53:05Z</time>
      </trkpt>
      <trkpt lat="48.48307" lon="-3.64422">
        <ele>293.8</ele>
        <time>2022-05-29T07:53:06Z</time>
      </trkpt>
      <trkpt lat="48.48298" lon="-3.64351">
        <ele>295.5</ele>
        <time>2022-05-29T07:53:19Z</time>
      </trkpt>
      <trkpt lat="48.48296" lon="-3.64317">
        <ele>295.9</ele>
        <time>2022-05-29T07:53:23Z</time>
      </trkpt>
      <trkpt lat="48.48292" lon="-3.64275">
        <ele>295.2</ele>
        <time>2022-05-29T07:53:28Z</time>
      </trkpt>
      <trkpt lat="48.48288" lon="-3.64267">
        <ele>295</ele>
        <time>2022-05-29T07:53:29Z</time>
      </trkpt>
      <trkpt lat="48.48283" lon="-3.64258">
        <ele>294.9</ele>
        <time>2022-05-29T07:53:30Z</time>
      </trkpt>
      <trkpt lat="48.48275" lon="-3.64191">
        <ele>293.8</ele>
        <time>2022-05-29T07:53:37Z</time>
      </trkpt>
      <trkpt lat="48.48272" lon="-3.64171">
        <ele>293.6</ele>
        <time>2022-05-29T07:53:39Z</time>
      </trkpt>
      <trkpt lat="48.48265" lon="-3.64121">
        <ele>293.3</ele>
        <time>2022-05-29T07:53:44Z</time>
      </trkpt>
      <trkpt lat="48.48255" lon="-3.64065">
        <ele>293</ele>
        <time>2022-05-29T07:53:50Z</time>
      </trkpt>
      <trkpt lat="48.48252" lon="-3.64047">
        <ele>293.1</ele>
        <time>2022-05-29T07:53:52Z</time>
      </trkpt>
      <trkpt lat="48.48241" lon="-3.6398">
        <ele>293.3</ele>
        <time>2022-05-29T07:54:00Z</time>
      </trkpt>
      <trkpt lat="48.48228" lon="-3.63908">
        <ele>293.6</ele>
        <time>2022-05-29T07:54:09Z</time>
      </trkpt>
      <trkpt lat="48.48217" lon="-3.6384">
        <ele>293.8</ele>
        <time>2022-05-29T07:54:17Z</time>
      </trkpt>
      <trkpt lat="48.48204" lon="-3.63768">
        <ele>294.1</ele>
        <time>2022-05-29T07:54:26Z</time>
      </trkpt>
      <trkpt lat="48.48189" lon="-3.63696">
        <ele>294.3</ele>
        <time>2022-05-29T07:54:35Z</time>
      </trkpt>
      <trkpt lat="48.48175" lon="-3.63627">
        <ele>294.6</ele>
        <time>2022-05-29T07:54:44Z</time>
      </trkpt>
      <trkpt lat="48.48167" lon="-3.63583">
        <ele>294.8</ele>
        <time>2022-05-29T07:54:50Z</time>
      </trkpt>
      <trkpt lat="48.48161" lon="-3.63554">
        <ele>295.4</ele>
        <time>2022-05-29T07:54:54Z</time>
      </trkpt>
      <trkpt lat="48.48146" lon="-3.63483">
        <ele>297</ele>
        <time>2022-05-29T07:55:04Z</time>
      </trkpt>
      <trkpt lat="48.48132" lon="-3.63414">
        <ele>298.5</ele>
        <time>2022-05-29T07:55:14Z</time>
      </trkpt>
      <trkpt lat="48.48117" lon="-3.63344">
        <ele>299.8</ele>
        <time>2022-05-29T07:55:24Z</time>
      </trkpt>
      <trkpt lat="48.48105" lon="-3.6329">
        <ele>300.8</ele>
        <time>2022-05-29T07:55:32Z</time>
      </trkpt>
      <trkpt lat="48.48102" lon="-3.63276">
        <ele>301.2</ele>
        <time>2022-05-29T07:55:34Z</time>
      </trkpt>
      <trkpt lat="48.48096" lon="-3.6325">
        <ele>301.8</ele>
        <time>2022-05-29T07:55:38Z</time>
      </trkpt>
      <trkpt lat="48.48087" lon="-3.6321">
        <ele>302.5</ele>
        <time>2022-05-29T07:55:44Z</time>
      </trkpt>
      <trkpt lat="48.48082" lon="-3.63184">
        <ele>303</ele>
        <time>2022-05-29T07:55:48Z</time>
      </trkpt>
      <trkpt lat="48.48073" lon="-3.63143">
        <ele>303.7</ele>
        <time>2022-05-29T07:55:54Z</time>
      </trkpt>
      <trkpt lat="48.48059" lon="-3.63076">
        <ele>304.8</ele>
        <time>2022-05-29T07:56:04Z</time>
      </trkpt>
      <trkpt lat="48.48045" lon="-3.63009">
        <ele>306</ele>
        <time>2022-05-29T07:56:14Z</time>
      </trkpt>
      <trkpt lat="48.48039" lon="-3.62984">
        <ele>306.5</ele>
        <time>2022-05-29T07:56:18Z</time>
      </trkpt>
      <trkpt lat="48.48029" lon="-3.62939">
        <ele>307.4</ele>
        <time>2022-05-29T07:56:25Z</time>
      </trkpt>
      <trkpt lat="48.48023" lon="-3.62908">
        <ele>308.1</ele>
        <time>2022-05-29T07:56:30Z</time>
      </trkpt>
      <trkpt lat="48.48016" lon="-3.62872">
        <ele>309.2</ele>
        <time>2022-05-29T07:56:36Z</time>
      </trkpt>
      <trkpt lat="48.48001" lon="-3.62807">
        <ele>311.4</ele>
        <time>2022-05-29T07:56:48Z</time>
      </trkpt>
      <trkpt lat="48.47987" lon="-3.62739">
        <ele>313</ele>
        <time>2022-05-29T07:57:00Z</time>
      </trkpt>
      <trkpt lat="48.47979" lon="-3.62705">
        <ele>313.8</ele>
        <time>2022-05-29T07:57:06Z</time>
      </trkpt>
      <trkpt lat="48.47971" lon="-3.62671">
        <ele>315</ele>
        <time>2022-05-29T07:57:12Z</time>
      </trkpt>
      <trkpt lat="48.47965" lon="-3.6264">
        <ele>316.2</ele>
        <time>2022-05-29T07:57:18Z</time>
      </trkpt>
      <trkpt lat="48.47958" lon="-3.62604">
        <ele>317.4</ele>
        <time>2022-05-29T07:57:25Z</time>
      </trkpt>
      <trkpt lat="48.47945" lon="-3.62549">
        <ele>319.2</ele>
        <time>2022-05-29T07:57:36Z</time>
      </trkpt>
      <trkpt lat="48.47942" lon="-3.62539">
        <ele>319.4</ele>
        <time>2022-05-29T07:57:38Z</time>
      </trkpt>
      <trkpt lat="48.47939" lon="-3.62524">
        <ele>319.8</ele>
        <time>2022-05-29T07:57:41Z</time>
      </trkpt>
      <trkpt lat="48.47929" lon="-3.62473">
        <ele>321.3</ele>
        <time>2022-05-29T07:57:51Z</time>
      </trkpt>
      <trkpt lat="48.47925" lon="-3.62461">
        <ele>321.6</ele>
        <time>2022-05-29T07:57:53Z</time>
      </trkpt>
      <trkpt lat="48.47912" lon="-3.6241">
        <ele>322.2</ele>
        <time>2022-05-29T07:58:01Z</time>
      </trkpt>
      <trkpt lat="48.47903" lon="-3.62383">
        <ele>322.5</ele>
        <time>2022-05-29T07:58:05Z</time>
      </trkpt>
      <trkpt lat="48.47893" lon="-3.62348">
        <ele>322.8</ele>
        <time>2022-05-29T07:58:10Z</time>
      </trkpt>
      <trkpt lat="48.47878" lon="-3.62283">
        <ele>323.5</ele>
        <time>2022-05-29T07:58:19Z</time>
      </trkpt>
      <trkpt lat="48.47859" lon="-3.62219">
        <ele>324.1</ele>
        <time>2022-05-29T07:58:28Z</time>
      </trkpt>
      <trkpt lat="48.47843" lon="-3.62153">
        <ele>324.8</ele>
        <time>2022-05-29T07:58:37Z</time>
      </trkpt>
      <trkpt lat="48.47826" lon="-3.62086">
        <ele>325.4</ele>
        <time>2022-05-29T07:58:46Z</time>
      </trkpt>
      <trkpt lat="48.47824" lon="-3.62079">
        <ele>325.4</ele>
        <time>2022-05-29T07:58:47Z</time>
      </trkpt>
      <trkpt lat="48.47804" lon="-3.62017">
        <ele>324.8</ele>
        <time>2022-05-29T07:58:55Z</time>
      </trkpt>
      <trkpt lat="48.4778" lon="-3.61949">
        <ele>324.1</ele>
        <time>2022-05-29T07:59:03Z</time>
      </trkpt>
      <trkpt lat="48.47751" lon="-3.6189">
        <ele>323.6</ele>
        <time>2022-05-29T07:59:10Z</time>
      </trkpt>
      <trkpt lat="48.47747" lon="-3.61882">
        <ele>323.4</ele>
        <time>2022-05-29T07:59:11Z</time>
      </trkpt>
      <trkpt lat="48.47722" lon="-3.61833">
        <ele>322.2</ele>
        <time>2022-05-29T07:59:17Z</time>
      </trkpt>
      <trkpt lat="48.47689" lon="-3.61773">
        <ele>320.8</ele>
        <time>2022-05-29T07:59:24Z</time>
      </trkpt>
      <trkpt lat="48.47665" lon="-3.61729">
        <ele>319.8</ele>
        <time>2022-05-29T07:59:29Z</time>
      </trkpt>
      <trkpt lat="48.4766" lon="-3.6172">
        <ele>319.7</ele>
        <time>2022-05-29T07:59:30Z</time>
      </trkpt>
      <trkpt lat="48.47637" lon="-3.61677">
        <ele>319</ele>
        <time>2022-05-29T07:59:35Z</time>
      </trkpt>
      <trkpt lat="48.47628" lon="-3.61661">
        <ele>319</ele>
        <time>2022-05-29T07:59:37Z</time>
      </trkpt>
      <trkpt lat="48.4761" lon="-3.61628">
        <ele>318.8</ele>
        <time>2022-05-29T07:59:41Z</time>
      </trkpt>
      <trkpt lat="48.47597" lon="-3.61604">
        <ele>318.7</ele>
        <time>2022-05-29T07:59:44Z</time>
      </trkpt>
      <trkpt lat="48.47568" lon="-3.61552">
        <ele>318.3</ele>
        <time>2022-05-29T07:59:51Z</time>
      </trkpt>
      <trkpt lat="48.47535" lon="-3.61497">
        <ele>318</ele>
        <time>2022-05-29T07:59:58Z</time>
      </trkpt>
      <trkpt lat="48.47502" lon="-3.6144">
        <ele>317.7</ele>
        <time>2022-05-29T08:00:05Z</time>
      </trkpt>
      <trkpt lat="48.47468" lon="-3.61387">
        <ele>317.3</ele>
        <time>2022-05-29T08:00:12Z</time>
      </trkpt>
      <trkpt lat="48.47432" lon="-3.61338">
        <ele>317</ele>
        <time>2022-05-29T08:00:19Z</time>
      </trkpt>
      <trkpt lat="48.47392" lon="-3.61298">
        <ele>316.6</ele>
        <time>2022-05-29T08:00:26Z</time>
      </trkpt>
      <trkpt lat="48.47351" lon="-3.61263">
        <ele>316.3</ele>
        <time>2022-05-29T08:00:32Z</time>
      </trkpt>
      <trkpt lat="48.47307" lon="-3.61229">
        <ele>316</ele>
        <time>2022-05-29T08:00:38Z</time>
      </trkpt>
      <trkpt lat="48.47285" lon="-3.61212">
        <ele>315.9</ele>
        <time>2022-05-29T08:00:41Z</time>
      </trkpt>
      <trkpt lat="48.47272" lon="-3.612">
        <ele>315.8</ele>
        <time>2022-05-29T08:00:43Z</time>
      </trkpt>
      <trkpt lat="48.47262" lon="-3.61185">
        <ele>315.7</ele>
        <time>2022-05-29T08:00:45Z</time>
      </trkpt>
      <trkpt lat="48.47257" lon="-3.61173">
        <ele>315.5</ele>
        <time>2022-05-29T08:00:47Z</time>
      </trkpt>
      <trkpt lat="48.47247" lon="-3.61172">
        <ele>315.2</ele>
        <time>2022-05-29T08:00:49Z</time>
      </trkpt>
      <trkpt lat="48.47238" lon="-3.6118">
        <ele>315.1</ele>
        <time>2022-05-29T08:00:50Z</time>
      </trkpt>
      <trkpt lat="48.47202" lon="-3.61153">
        <ele>313.6</ele>
        <time>2022-05-29T08:00:59Z</time>
      </trkpt>
      <trkpt lat="48.47194" lon="-3.61146">
        <ele>313.4</ele>
        <time>2022-05-29T08:01:01Z</time>
      </trkpt>
      <trkpt lat="48.47149" lon="-3.6111">
        <ele>312.3</ele>
        <time>2022-05-29T08:01:10Z</time>
      </trkpt>
      <trkpt lat="48.47143" lon="-3.61105">
        <ele>312.2</ele>
        <time>2022-05-29T08:01:11Z</time>
      </trkpt>
      <trkpt lat="48.47125" lon="-3.6109">
        <ele>311.8</ele>
        <time>2022-05-29T08:01:14Z</time>
      </trkpt>
      <trkpt lat="48.47107" lon="-3.61085">
        <ele>311.2</ele>
        <time>2022-05-29T08:01:17Z</time>
      </trkpt>
      <trkpt lat="48.47077" lon="-3.61076">
        <ele>309.2</ele>
        <time>2022-05-29T08:01:22Z</time>
      </trkpt>
      <trkpt lat="48.47071" lon="-3.61075">
        <ele>308.8</ele>
        <time>2022-05-29T08:01:23Z</time>
      </trkpt>
      <trkpt lat="48.4703" lon="-3.61065">
        <ele>305.2</ele>
        <time>2022-05-29T08:01:30Z</time>
      </trkpt>
      <trkpt lat="48.47017" lon="-3.61061">
        <ele>304.2</ele>
        <time>2022-05-29T08:01:32Z</time>
      </trkpt>
      <trkpt lat="48.47002" lon="-3.6106">
        <ele>302.6</ele>
        <time>2022-05-29T08:01:35Z</time>
      </trkpt>
      <trkpt lat="48.46972" lon="-3.6106">
        <ele>299.7</ele>
        <time>2022-05-29T08:01:41Z</time>
      </trkpt>
      <trkpt lat="48.46952" lon="-3.61095">
        <ele>299.5</ele>
        <time>2022-05-29T08:01:47Z</time>
      </trkpt>
      <trkpt lat="48.46942" lon="-3.61113">
        <ele>299.5</ele>
        <time>2022-05-29T08:01:50Z</time>
      </trkpt>
      <trkpt lat="48.46932" lon="-3.61132">
        <ele>299.4</ele>
        <time>2022-05-29T08:01:53Z</time>
      </trkpt>
      <trkpt lat="48.46915" lon="-3.61165">
        <ele>297.8</ele>
        <time>2022-05-29T08:01:58Z</time>
      </trkpt>
      <trkpt lat="48.46912" lon="-3.61172">
        <ele>297.3</ele>
        <time>2022-05-29T08:01:59Z</time>
      </trkpt>
      <trkpt lat="48.46904" lon="-3.61199">
        <ele>295.8</ele>
        <time>2022-05-29T08:02:02Z</time>
      </trkpt>
      <trkpt lat="48.46907" lon="-3.61214">
        <ele>295.3</ele>
        <time>2022-05-29T08:02:03Z</time>
      </trkpt>
      <trkpt lat="48.46904" lon="-3.61222">
        <ele>294.7</ele>
        <time>2022-05-29T08:02:04Z</time>
      </trkpt>
      <trkpt lat="48.46898" lon="-3.61239">
        <ele>293.3</ele>
        <time>2022-05-29T08:02:06Z</time>
      </trkpt>
      <trkpt lat="48.46884" lon="-3.61259">
        <ele>291.3</ele>
        <time>2022-05-29T08:02:09Z</time>
      </trkpt>
      <trkpt lat="48.4688" lon="-3.61266">
        <ele>291.1</ele>
        <time>2022-05-29T08:02:10Z</time>
      </trkpt>
      <trkpt lat="48.46861" lon="-3.61327">
        <ele>289.5</ele>
        <time>2022-05-29T08:02:18Z</time>
      </trkpt>
      <trkpt lat="48.46849" lon="-3.61332">
        <ele>289</ele>
        <time>2022-05-29T08:02:21Z</time>
      </trkpt>
      <trkpt lat="48.46837" lon="-3.61329">
        <ele>289</ele>
        <time>2022-05-29T08:02:22Z</time>
      </trkpt>
      <trkpt lat="48.46816" lon="-3.613">
        <ele>288.9</ele>
        <time>2022-05-29T08:02:27Z</time>
      </trkpt>
      <trkpt lat="48.468" lon="-3.61276">
        <ele>289</ele>
        <time>2022-05-29T08:02:31Z</time>
      </trkpt>
      <trkpt lat="48.46764" lon="-3.61221">
        <ele>289.3</ele>
        <time>2022-05-29T08:02:39Z</time>
      </trkpt>
      <trkpt lat="48.46757" lon="-3.61201">
        <ele>289.3</ele>
        <time>2022-05-29T08:02:41Z</time>
      </trkpt>
      <trkpt lat="48.46751" lon="-3.61149">
        <ele>289.5</ele>
        <time>2022-05-29T08:02:45Z</time>
      </trkpt>
      <trkpt lat="48.46764" lon="-3.61084">
        <ele>289.7</ele>
        <time>2022-05-29T08:02:51Z</time>
      </trkpt>
      <trkpt lat="48.46784" lon="-3.61017">
        <ele>289.9</ele>
        <time>2022-05-29T08:02:59Z</time>
      </trkpt>
      <trkpt lat="48.46791" lon="-3.60991">
        <ele>290.2</ele>
        <time>2022-05-29T08:03:03Z</time>
      </trkpt>
      <trkpt lat="48.46801" lon="-3.60953">
        <ele>291.9</ele>
        <time>2022-05-29T08:03:09Z</time>
      </trkpt>
      <trkpt lat="48.46816" lon="-3.60888">
        <ele>294.6</ele>
        <time>2022-05-29T08:03:20Z</time>
      </trkpt>
      <trkpt lat="48.46816" lon="-3.60882">
        <ele>294.9</ele>
        <time>2022-05-29T08:03:21Z</time>
      </trkpt>
      <trkpt lat="48.46816" lon="-3.60876">
        <ele>295.1</ele>
        <time>2022-05-29T08:03:22Z</time>
      </trkpt>
      <trkpt lat="48.46817" lon="-3.60845">
        <ele>296.4</ele>
        <time>2022-05-29T08:03:27Z</time>
      </trkpt>
      <trkpt lat="48.46818" lon="-3.60809">
        <ele>297.7</ele>
        <time>2022-05-29T08:03:33Z</time>
      </trkpt>
      <trkpt lat="48.46818" lon="-3.60803">
        <ele>297.9</ele>
        <time>2022-05-29T08:03:34Z</time>
      </trkpt>
      <trkpt lat="48.46816" lon="-3.60732">
        <ele>300.5</ele>
        <time>2022-05-29T08:03:46Z</time>
      </trkpt>
      <trkpt lat="48.46813" lon="-3.60704">
        <ele>301.7</ele>
        <time>2022-05-29T08:03:51Z</time>
      </trkpt>
      <trkpt lat="48.46808" lon="-3.60661">
        <ele>303.7</ele>
        <time>2022-05-29T08:03:59Z</time>
      </trkpt>
      <trkpt lat="48.46789" lon="-3.60623">
        <ele>305.9</ele>
        <time>2022-05-29T08:04:08Z</time>
      </trkpt>
      <trkpt lat="48.46781" lon="-3.60606">
        <ele>306.5</ele>
        <time>2022-05-29T08:04:12Z</time>
      </trkpt>
      <trkpt lat="48.46765" lon="-3.60576">
        <ele>307.7</ele>
        <time>2022-05-29T08:04:19Z</time>
      </trkpt>
      <trkpt lat="48.46751" lon="-3.60551">
        <ele>308.4</ele>
        <time>2022-05-29T08:04:25Z</time>
      </trkpt>
      <trkpt lat="48.46744" lon="-3.60549">
        <ele>308.7</ele>
        <time>2022-05-29T08:04:27Z</time>
      </trkpt>
      <trkpt lat="48.4673" lon="-3.60563">
        <ele>309.2</ele>
        <time>2022-05-29T08:04:31Z</time>
      </trkpt>
      <trkpt lat="48.46705" lon="-3.60586">
        <ele>309.9</ele>
        <time>2022-05-29T08:04:38Z</time>
      </trkpt>
      <trkpt lat="48.4666" lon="-3.60608">
        <ele>311</ele>
        <time>2022-05-29T08:04:48Z</time>
      </trkpt>
      <trkpt lat="48.4663" lon="-3.60614">
        <ele>311.8</ele>
        <time>2022-05-29T08:04:55Z</time>
      </trkpt>
      <trkpt lat="48.46613" lon="-3.60617">
        <ele>312.7</ele>
        <time>2022-05-29T08:04:59Z</time>
      </trkpt>
      <trkpt lat="48.46568" lon="-3.60623">
        <ele>315.5</ele>
        <time>2022-05-29T08:05:11Z</time>
      </trkpt>
      <trkpt lat="48.46564" lon="-3.60623">
        <ele>315.7</ele>
        <time>2022-05-29T08:05:12Z</time>
      </trkpt>
      <trkpt lat="48.46519" lon="-3.60623">
        <ele>317.2</ele>
        <time>2022-05-29T08:05:24Z</time>
      </trkpt>
      <trkpt lat="48.46476" lon="-3.60605">
        <ele>316.7</ele>
        <time>2022-05-29T08:05:34Z</time>
      </trkpt>
      <trkpt lat="48.4643" lon="-3.60576">
        <ele>316.1</ele>
        <time>2022-05-29T08:05:43Z</time>
      </trkpt>
      <trkpt lat="48.46385" lon="-3.60544">
        <ele>315.6</ele>
        <time>2022-05-29T08:05:50Z</time>
      </trkpt>
      <trkpt lat="48.46362" lon="-3.60514">
        <ele>315.4</ele>
        <time>2022-05-29T08:05:54Z</time>
      </trkpt>
      <trkpt lat="48.46351" lon="-3.60498">
        <ele>315.4</ele>
        <time>2022-05-29T08:05:56Z</time>
      </trkpt>
      <trkpt lat="48.46319" lon="-3.60447">
        <ele>315.5</ele>
        <time>2022-05-29T08:06:03Z</time>
      </trkpt>
      <trkpt lat="48.46311" lon="-3.60434">
        <ele>315.6</ele>
        <time>2022-05-29T08:06:05Z</time>
      </trkpt>
      <trkpt lat="48.46287" lon="-3.60396">
        <ele>316.2</ele>
        <time>2022-05-29T08:06:11Z</time>
      </trkpt>
      <trkpt lat="48.46248" lon="-3.60352">
        <ele>317.2</ele>
        <time>2022-05-29T08:06:20Z</time>
      </trkpt>
      <trkpt lat="48.46236" lon="-3.60341">
        <ele>317.5</ele>
        <time>2022-05-29T08:06:23Z</time>
      </trkpt>
      <trkpt lat="48.46206" lon="-3.60317">
        <ele>318.8</ele>
        <time>2022-05-29T08:06:30Z</time>
      </trkpt>
      <trkpt lat="48.46162" lon="-3.60283">
        <ele>320.9</ele>
        <time>2022-05-29T08:06:41Z</time>
      </trkpt>
      <trkpt lat="48.46121" lon="-3.60251">
        <ele>321.9</ele>
        <time>2022-05-29T08:06:51Z</time>
      </trkpt>
      <trkpt lat="48.46095" lon="-3.60231">
        <ele>322.4</ele>
        <time>2022-05-29T08:06:57Z</time>
      </trkpt>
      <trkpt lat="48.46081" lon="-3.60221">
        <ele>322.7</ele>
        <time>2022-05-29T08:07:00Z</time>
      </trkpt>
      <trkpt lat="48.46054" lon="-3.60202">
        <ele>323.2</ele>
        <time>2022-05-29T08:07:05Z</time>
      </trkpt>
      <trkpt lat="48.46037" lon="-3.6019">
        <ele>322.7</ele>
        <time>2022-05-29T08:07:08Z</time>
      </trkpt>
      <trkpt lat="48.45995" lon="-3.60164">
        <ele>321.5</ele>
        <time>2022-05-29T08:07:14Z</time>
      </trkpt>
      <trkpt lat="48.45972" lon="-3.60149">
        <ele>320.9</ele>
        <time>2022-05-29T08:07:17Z</time>
      </trkpt>
      <trkpt lat="48.45947" lon="-3.60134">
        <ele>320</ele>
        <time>2022-05-29T08:07:20Z</time>
      </trkpt>
      <trkpt lat="48.45939" lon="-3.60129">
        <ele>319.7</ele>
        <time>2022-05-29T08:07:21Z</time>
      </trkpt>
      <trkpt lat="48.4593" lon="-3.60126">
        <ele>319.3</ele>
        <time>2022-05-29T08:07:22Z</time>
      </trkpt>
      <trkpt lat="48.4592" lon="-3.60123">
        <ele>319</ele>
        <time>2022-05-29T08:07:23Z</time>
      </trkpt>
      <trkpt lat="48.45884" lon="-3.60105">
        <ele>317</ele>
        <time>2022-05-29T08:07:27Z</time>
      </trkpt>
      <trkpt lat="48.45864" lon="-3.60098">
        <ele>315.9</ele>
        <time>2022-05-29T08:07:29Z</time>
      </trkpt>
      <trkpt lat="48.45834" lon="-3.60087">
        <ele>314.1</ele>
        <time>2022-05-29T08:07:32Z</time>
      </trkpt>
      <trkpt lat="48.45772" lon="-3.60062">
        <ele>307.9</ele>
        <time>2022-05-29T08:07:36Z</time>
      </trkpt>
      <trkpt lat="48.45772" lon="-3.60062">
        <ele>307.9</ele>
        <time>2022-05-29T08:08:05Z</time>
      </trkpt>
      <trkpt lat="48.45734" lon="-3.60046">
        <ele>303.6</ele>
        <time>2022-05-29T08:08:08Z</time>
      </trkpt>
      <trkpt lat="48.45728" lon="-3.60035">
        <ele>303.5</ele>
        <time>2022-05-29T08:08:09Z</time>
      </trkpt>
      <trkpt lat="48.45724" lon="-3.60019">
        <ele>303.1</ele>
        <time>2022-05-29T08:08:10Z</time>
      </trkpt>
      <trkpt lat="48.45726" lon="-3.5995">
        <ele>300</ele>
        <time>2022-05-29T08:08:15Z</time>
      </trkpt>
      <trkpt lat="48.45733" lon="-3.59876">
        <ele>297.8</ele>
        <time>2022-05-29T08:08:21Z</time>
      </trkpt>
      <trkpt lat="48.4574" lon="-3.59805">
        <ele>295.7</ele>
        <time>2022-05-29T08:08:27Z</time>
      </trkpt>
      <trkpt lat="48.45746" lon="-3.59732">
        <ele>293.9</ele>
        <time>2022-05-29T08:08:33Z</time>
      </trkpt>
      <trkpt lat="48.45738" lon="-3.59655">
        <ele>292.1</ele>
        <time>2022-05-29T08:08:39Z</time>
      </trkpt>
      <trkpt lat="48.45733" lon="-3.59592">
        <ele>292.5</ele>
        <time>2022-05-29T08:08:45Z</time>
      </trkpt>
      <trkpt lat="48.45732" lon="-3.59582">
        <ele>292.7</ele>
        <time>2022-05-29T08:08:46Z</time>
      </trkpt>
      <trkpt lat="48.45735" lon="-3.59551">
        <ele>294.5</ele>
        <time>2022-05-29T08:08:51Z</time>
      </trkpt>
      <trkpt lat="48.45741" lon="-3.5951">
        <ele>296.8</ele>
        <time>2022-05-29T08:08:58Z</time>
      </trkpt>
      <trkpt lat="48.45744" lon="-3.59484">
        <ele>298.4</ele>
        <time>2022-05-29T08:09:03Z</time>
      </trkpt>
      <trkpt lat="48.45747" lon="-3.59453">
        <ele>299.9</ele>
        <time>2022-05-29T08:09:09Z</time>
      </trkpt>
      <trkpt lat="48.45749" lon="-3.59442">
        <ele>300.5</ele>
        <time>2022-05-29T08:09:11Z</time>
      </trkpt>
      <trkpt lat="48.4575" lon="-3.59423">
        <ele>301.6</ele>
        <time>2022-05-29T08:09:15Z</time>
      </trkpt>
      <trkpt lat="48.45755" lon="-3.59371">
        <ele>304.5</ele>
        <time>2022-05-29T08:09:26Z</time>
      </trkpt>
      <trkpt lat="48.45756" lon="-3.59366">
        <ele>304.8</ele>
        <time>2022-05-29T08:09:27Z</time>
      </trkpt>
      <trkpt lat="48.45756" lon="-3.59357">
        <ele>305.2</ele>
        <time>2022-05-29T08:09:29Z</time>
      </trkpt>
      <trkpt lat="48.45761" lon="-3.59353">
        <ele>305.4</ele>
        <time>2022-05-29T08:09:30Z</time>
      </trkpt>
      <trkpt lat="48.45765" lon="-3.59342">
        <ele>306.1</ele>
        <time>2022-05-29T08:09:33Z</time>
      </trkpt>
      <trkpt lat="48.45769" lon="-3.59293">
        <ele>309.3</ele>
        <time>2022-05-29T08:09:45Z</time>
      </trkpt>
      <trkpt lat="48.4577" lon="-3.59285">
        <ele>309.7</ele>
        <time>2022-05-29T08:09:47Z</time>
      </trkpt>
      <trkpt lat="48.4577" lon="-3.59269">
        <ele>310.6</ele>
        <time>2022-05-29T08:09:51Z</time>
      </trkpt>
      <trkpt lat="48.45772" lon="-3.59214">
        <ele>313.6</ele>
        <time>2022-05-29T08:10:05Z</time>
      </trkpt>
      <trkpt lat="48.4577" lon="-3.592">
        <ele>314.5</ele>
        <time>2022-05-29T08:10:09Z</time>
      </trkpt>
      <trkpt lat="48.45766" lon="-3.59167">
        <ele>317.2</ele>
        <time>2022-05-29T08:10:19Z</time>
      </trkpt>
      <trkpt lat="48.45764" lon="-3.59146">
        <ele>318.4</ele>
        <time>2022-05-29T08:10:25Z</time>
      </trkpt>
      <trkpt lat="48.4576" lon="-3.59125">
        <ele>319.5</ele>
        <time>2022-05-29T08:10:31Z</time>
      </trkpt>
      <trkpt lat="48.45755" lon="-3.59099">
        <ele>321.1</ele>
        <time>2022-05-29T08:10:38Z</time>
      </trkpt>
      <trkpt lat="48.45729" lon="-3.59066">
        <ele>323.5</ele>
        <time>2022-05-29T08:10:49Z</time>
      </trkpt>
      <trkpt lat="48.45719" lon="-3.59054">
        <ele>324.4</ele>
        <time>2022-05-29T08:10:53Z</time>
      </trkpt>
      <trkpt lat="48.45714" lon="-3.5905">
        <ele>324.9</ele>
        <time>2022-05-29T08:10:55Z</time>
      </trkpt>
      <trkpt lat="48.45699" lon="-3.59044">
        <ele>326.3</ele>
        <time>2022-05-29T08:11:01Z</time>
      </trkpt>
      <trkpt lat="48.45674" lon="-3.59032">
        <ele>327.6</ele>
        <time>2022-05-29T08:11:11Z</time>
      </trkpt>
      <trkpt lat="48.45644" lon="-3.59025">
        <ele>328.7</ele>
        <time>2022-05-29T08:11:19Z</time>
      </trkpt>
      <trkpt lat="48.45629" lon="-3.59022">
        <ele>329.1</ele>
        <time>2022-05-29T08:11:23Z</time>
      </trkpt>
      <trkpt lat="48.45584" lon="-3.59001">
        <ele>330.2</ele>
        <time>2022-05-29T08:11:32Z</time>
      </trkpt>
      <trkpt lat="48.45542" lon="-3.58972">
        <ele>331.3</ele>
        <time>2022-05-29T08:11:41Z</time>
      </trkpt>
      <trkpt lat="48.45534" lon="-3.58967">
        <ele>331.5</ele>
        <time>2022-05-29T08:11:43Z</time>
      </trkpt>
      <trkpt lat="48.45501" lon="-3.58945">
        <ele>332.9</ele>
        <time>2022-05-29T08:11:51Z</time>
      </trkpt>
      <trkpt lat="48.45462" lon="-3.58917">
        <ele>334.6</ele>
        <time>2022-05-29T08:12:01Z</time>
      </trkpt>
      <trkpt lat="48.45458" lon="-3.58914">
        <ele>334.7</ele>
        <time>2022-05-29T08:12:02Z</time>
      </trkpt>
      <trkpt lat="48.45414" lon="-3.58893">
        <ele>335.8</ele>
        <time>2022-05-29T08:12:12Z</time>
      </trkpt>
      <trkpt lat="48.45409" lon="-3.58891">
        <ele>335.9</ele>
        <time>2022-05-29T08:12:13Z</time>
      </trkpt>
      <trkpt lat="48.45366" lon="-3.58874">
        <ele>335.3</ele>
        <time>2022-05-29T08:12:21Z</time>
      </trkpt>
      <trkpt lat="48.45324" lon="-3.58852">
        <ele>334.7</ele>
        <time>2022-05-29T08:12:28Z</time>
      </trkpt>
      <trkpt lat="48.4531" lon="-3.58847">
        <ele>334.5</ele>
        <time>2022-05-29T08:12:30Z</time>
      </trkpt>
      <trkpt lat="48.45304" lon="-3.58845">
        <ele>334.3</ele>
        <time>2022-05-29T08:12:31Z</time>
      </trkpt>
      <trkpt lat="48.45255" lon="-3.58875">
        <ele>332.3</ele>
        <time>2022-05-29T08:12:38Z</time>
      </trkpt>
      <trkpt lat="48.45234" lon="-3.58891">
        <ele>331.5</ele>
        <time>2022-05-29T08:12:41Z</time>
      </trkpt>
      <trkpt lat="48.45226" lon="-3.58894">
        <ele>331.2</ele>
        <time>2022-05-29T08:12:42Z</time>
      </trkpt>
      <trkpt lat="48.45208" lon="-3.58891">
        <ele>330.6</ele>
        <time>2022-05-29T08:12:44Z</time>
      </trkpt>
      <trkpt lat="48.45199" lon="-3.58886">
        <ele>330.3</ele>
        <time>2022-05-29T08:12:45Z</time>
      </trkpt>
      <trkpt lat="48.4519" lon="-3.58882">
        <ele>330</ele>
        <time>2022-05-29T08:12:46Z</time>
      </trkpt>
      <trkpt lat="48.45182" lon="-3.58875">
        <ele>329.7</ele>
        <time>2022-05-29T08:12:47Z</time>
      </trkpt>
      <trkpt lat="48.45155" lon="-3.58837">
        <ele>328.1</ele>
        <time>2022-05-29T08:12:51Z</time>
      </trkpt>
      <trkpt lat="48.45122" lon="-3.58789">
        <ele>325.9</ele>
        <time>2022-05-29T08:12:56Z</time>
      </trkpt>
      <trkpt lat="48.451" lon="-3.58758">
        <ele>324.6</ele>
        <time>2022-05-29T08:12:59Z</time>
      </trkpt>
      <trkpt lat="48.45085" lon="-3.58737">
        <ele>324.4</ele>
        <time>2022-05-29T08:13:01Z</time>
      </trkpt>
      <trkpt lat="48.45062" lon="-3.58715">
        <ele>324.2</ele>
        <time>2022-05-29T08:13:04Z</time>
      </trkpt>
      <trkpt lat="48.45054" lon="-3.58709">
        <ele>324.2</ele>
        <time>2022-05-29T08:13:05Z</time>
      </trkpt>
      <trkpt lat="48.4501" lon="-3.58731">
        <ele>323.9</ele>
        <time>2022-05-29T08:13:11Z</time>
      </trkpt>
      <trkpt lat="48.44977" lon="-3.5875">
        <ele>325</ele>
        <time>2022-05-29T08:13:17Z</time>
      </trkpt>
      <trkpt lat="48.44966" lon="-3.58756">
        <ele>325.6</ele>
        <time>2022-05-29T08:13:19Z</time>
      </trkpt>
      <trkpt lat="48.44947" lon="-3.5876">
        <ele>326.9</ele>
        <time>2022-05-29T08:13:23Z</time>
      </trkpt>
      <trkpt lat="48.44919" lon="-3.58766">
        <ele>328.5</ele>
        <time>2022-05-29T08:13:29Z</time>
      </trkpt>
      <trkpt lat="48.44895" lon="-3.58766">
        <ele>330.1</ele>
        <time>2022-05-29T08:13:35Z</time>
      </trkpt>
      <trkpt lat="48.44879" lon="-3.58766">
        <ele>331.3</ele>
        <time>2022-05-29T08:13:39Z</time>
      </trkpt>
      <trkpt lat="48.44866" lon="-3.58765">
        <ele>332.1</ele>
        <time>2022-05-29T08:13:42Z</time>
      </trkpt>
      <trkpt lat="48.44858" lon="-3.58766">
        <ele>332.7</ele>
        <time>2022-05-29T08:13:44Z</time>
      </trkpt>
      <trkpt lat="48.44843" lon="-3.58767">
        <ele>333.6</ele>
        <time>2022-05-29T08:13:47Z</time>
      </trkpt>
      <trkpt lat="48.44815" lon="-3.58767">
        <ele>334.3</ele>
        <time>2022-05-29T08:13:53Z</time>
      </trkpt>
      <trkpt lat="48.4481" lon="-3.58767">
        <ele>334.4</ele>
        <time>2022-05-29T08:13:54Z</time>
      </trkpt>
      <trkpt lat="48.44782" lon="-3.58766">
        <ele>334.3</ele>
        <time>2022-05-29T08:13:59Z</time>
      </trkpt>
      <trkpt lat="48.44759" lon="-3.58766">
        <ele>333.9</ele>
        <time>2022-05-29T08:14:03Z</time>
      </trkpt>
      <trkpt lat="48.44713" lon="-3.58767">
        <ele>333.1</ele>
        <time>2022-05-29T08:14:10Z</time>
      </trkpt>
      <trkpt lat="48.44661" lon="-3.58767">
        <ele>332.3</ele>
        <time>2022-05-29T08:14:17Z</time>
      </trkpt>
      <trkpt lat="48.44628" lon="-3.58767">
        <ele>332.2</ele>
        <time>2022-05-29T08:14:22Z</time>
      </trkpt>
      <trkpt lat="48.44615" lon="-3.58767">
        <ele>331.9</ele>
        <time>2022-05-29T08:14:24Z</time>
      </trkpt>
      <trkpt lat="48.44594" lon="-3.58767">
        <ele>331.5</ele>
        <time>2022-05-29T08:14:27Z</time>
      </trkpt>
      <trkpt lat="48.44587" lon="-3.58768">
        <ele>331.3</ele>
        <time>2022-05-29T08:14:28Z</time>
      </trkpt>
      <trkpt lat="48.44554" lon="-3.58759">
        <ele>330.6</ele>
        <time>2022-05-29T08:14:33Z</time>
      </trkpt>
      <trkpt lat="48.44541" lon="-3.58754">
        <ele>330.3</ele>
        <time>2022-05-29T08:14:35Z</time>
      </trkpt>
      <trkpt lat="48.44529" lon="-3.5875">
        <ele>329.8</ele>
        <time>2022-05-29T08:14:38Z</time>
      </trkpt>
      <trkpt lat="48.44499" lon="-3.58802">
        <ele>328.5</ele>
        <time>2022-05-29T08:14:47Z</time>
      </trkpt>
      <trkpt lat="48.44492" lon="-3.5883">
        <ele>327.9</ele>
        <time>2022-05-29T08:14:51Z</time>
      </trkpt>
      <trkpt lat="48.44487" lon="-3.58851">
        <ele>327.4</ele>
        <time>2022-05-29T08:14:54Z</time>
      </trkpt>
      <trkpt lat="48.44456" lon="-3.58839">
        <ele>326.5</ele>
        <time>2022-05-29T08:14:59Z</time>
      </trkpt>
      <trkpt lat="48.44427" lon="-3.58846">
        <ele>325.8</ele>
        <time>2022-05-29T08:15:03Z</time>
      </trkpt>
      <trkpt lat="48.44412" lon="-3.58851">
        <ele>324.7</ele>
        <time>2022-05-29T08:15:05Z</time>
      </trkpt>
      <trkpt lat="48.44376" lon="-3.58847">
        <ele>322</ele>
        <time>2022-05-29T08:15:09Z</time>
      </trkpt>
      <trkpt lat="48.44366" lon="-3.58846">
        <ele>321.3</ele>
        <time>2022-05-29T08:15:10Z</time>
      </trkpt>
      <trkpt lat="48.44346" lon="-3.58842">
        <ele>319.8</ele>
        <time>2022-05-29T08:15:12Z</time>
      </trkpt>
      <trkpt lat="48.44313" lon="-3.5885">
        <ele>317.5</ele>
        <time>2022-05-29T08:15:15Z</time>
      </trkpt>
      <trkpt lat="48.44302" lon="-3.58853">
        <ele>316.6</ele>
        <time>2022-05-29T08:15:16Z</time>
      </trkpt>
      <trkpt lat="48.44278" lon="-3.58853">
        <ele>314.2</ele>
        <time>2022-05-29T08:15:18Z</time>
      </trkpt>
      <trkpt lat="48.44249" lon="-3.58843">
        <ele>310.7</ele>
        <time>2022-05-29T08:15:21Z</time>
      </trkpt>
      <trkpt lat="48.4423" lon="-3.58835">
        <ele>308.7</ele>
        <time>2022-05-29T08:15:23Z</time>
      </trkpt>
      <trkpt lat="48.44224" lon="-3.58831">
        <ele>307.8</ele>
        <time>2022-05-29T08:15:24Z</time>
      </trkpt>
      <trkpt lat="48.44217" lon="-3.58826">
        <ele>305.9</ele>
        <time>2022-05-29T08:15:26Z</time>
      </trkpt>
      <trkpt lat="48.44216" lon="-3.58822">
        <ele>305</ele>
        <time>2022-05-29T08:15:27Z</time>
      </trkpt>
      <trkpt lat="48.44216" lon="-3.58784">
        <ele>303.9</ele>
        <time>2022-05-29T08:15:32Z</time>
      </trkpt>
      <trkpt lat="48.44186" lon="-3.5873">
        <ele>302.8</ele>
        <time>2022-05-29T08:15:39Z</time>
      </trkpt>
      <trkpt lat="48.44158" lon="-3.58678">
        <ele>299.7</ele>
        <time>2022-05-29T08:15:44Z</time>
      </trkpt>
      <trkpt lat="48.44153" lon="-3.58668">
        <ele>299</ele>
        <time>2022-05-29T08:15:45Z</time>
      </trkpt>
      <trkpt lat="48.44125" lon="-3.58615">
        <ele>296.9</ele>
        <time>2022-05-29T08:15:50Z</time>
      </trkpt>
      <trkpt lat="48.44093" lon="-3.58553">
        <ele>294.5</ele>
        <time>2022-05-29T08:15:56Z</time>
      </trkpt>
      <trkpt lat="48.44087" lon="-3.58543">
        <ele>294.1</ele>
        <time>2022-05-29T08:15:57Z</time>
      </trkpt>
      <trkpt lat="48.44059" lon="-3.5849">
        <ele>291.1</ele>
        <time>2022-05-29T08:16:02Z</time>
      </trkpt>
      <trkpt lat="48.44027" lon="-3.58458">
        <ele>288.6</ele>
        <time>2022-05-29T08:16:06Z</time>
      </trkpt>
      <trkpt lat="48.4399" lon="-3.58451">
        <ele>286.7</ele>
        <time>2022-05-29T08:16:09Z</time>
      </trkpt>
      <trkpt lat="48.43978" lon="-3.5845">
        <ele>285.9</ele>
        <time>2022-05-29T08:16:10Z</time>
      </trkpt>
      <trkpt lat="48.43927" lon="-3.58447">
        <ele>281.9</ele>
        <time>2022-05-29T08:16:14Z</time>
      </trkpt>
      <trkpt lat="48.43915" lon="-3.58447">
        <ele>280.9</ele>
        <time>2022-05-29T08:16:15Z</time>
      </trkpt>
      <trkpt lat="48.43903" lon="-3.58445">
        <ele>279.9</ele>
        <time>2022-05-29T08:16:16Z</time>
      </trkpt>
      <trkpt lat="48.43891" lon="-3.58436">
        <ele>278.8</ele>
        <time>2022-05-29T08:16:17Z</time>
      </trkpt>
      <trkpt lat="48.43864" lon="-3.58373">
        <ele>274.5</ele>
        <time>2022-05-29T08:16:21Z</time>
      </trkpt>
      <trkpt lat="48.43841" lon="-3.58309">
        <ele>271.6</ele>
        <time>2022-05-29T08:16:25Z</time>
      </trkpt>
      <trkpt lat="48.43827" lon="-3.58282">
        <ele>270.2</ele>
        <time>2022-05-29T08:16:27Z</time>
      </trkpt>
      <trkpt lat="48.43812" lon="-3.58255">
        <ele>269.3</ele>
        <time>2022-05-29T08:16:29Z</time>
      </trkpt>
      <trkpt lat="48.43796" lon="-3.58234">
        <ele>268.6</ele>
        <time>2022-05-29T08:16:31Z</time>
      </trkpt>
      <trkpt lat="48.43777" lon="-3.58224">
        <ele>267.9</ele>
        <time>2022-05-29T08:16:33Z</time>
      </trkpt>
      <trkpt lat="48.43739" lon="-3.58243">
        <ele>266.5</ele>
        <time>2022-05-29T08:16:37Z</time>
      </trkpt>
      <trkpt lat="48.4373" lon="-3.58248">
        <ele>266.3</ele>
        <time>2022-05-29T08:16:38Z</time>
      </trkpt>
      <trkpt lat="48.43685" lon="-3.5827">
        <ele>266</ele>
        <time>2022-05-29T08:16:43Z</time>
      </trkpt>
      <trkpt lat="48.43639" lon="-3.5828">
        <ele>264.4</ele>
        <time>2022-05-29T08:16:48Z</time>
      </trkpt>
      <trkpt lat="48.4362" lon="-3.58285">
        <ele>263.8</ele>
        <time>2022-05-29T08:16:50Z</time>
      </trkpt>
      <trkpt lat="48.43581" lon="-3.5828">
        <ele>262.4</ele>
        <time>2022-05-29T08:16:54Z</time>
      </trkpt>
      <trkpt lat="48.43571" lon="-3.58278">
        <ele>261.9</ele>
        <time>2022-05-29T08:16:55Z</time>
      </trkpt>
      <trkpt lat="48.43519" lon="-3.58264">
        <ele>258.8</ele>
        <time>2022-05-29T08:17:00Z</time>
      </trkpt>
      <trkpt lat="48.43473" lon="-3.58253">
        <ele>255.1</ele>
        <time>2022-05-29T08:17:04Z</time>
      </trkpt>
      <trkpt lat="48.43449" lon="-3.58251">
        <ele>253.3</ele>
        <time>2022-05-29T08:17:06Z</time>
      </trkpt>
      <trkpt lat="48.43436" lon="-3.5825">
        <ele>252.3</ele>
        <time>2022-05-29T08:17:07Z</time>
      </trkpt>
      <trkpt lat="48.43397" lon="-3.58252">
        <ele>249.1</ele>
        <time>2022-05-29T08:17:10Z</time>
      </trkpt>
      <trkpt lat="48.43373" lon="-3.5824">
        <ele>247.1</ele>
        <time>2022-05-29T08:17:12Z</time>
      </trkpt>
      <trkpt lat="48.43349" lon="-3.58224">
        <ele>246.7</ele>
        <time>2022-05-29T08:17:14Z</time>
      </trkpt>
      <trkpt lat="48.43336" lon="-3.58149">
        <ele>247.2</ele>
        <time>2022-05-29T08:17:19Z</time>
      </trkpt>
      <trkpt lat="48.4333" lon="-3.58096">
        <ele>247.7</ele>
        <time>2022-05-29T08:17:24Z</time>
      </trkpt>
      <trkpt lat="48.43328" lon="-3.58076">
        <ele>248.3</ele>
        <time>2022-05-29T08:17:26Z</time>
      </trkpt>
      <trkpt lat="48.43323" lon="-3.58046">
        <ele>249.9</ele>
        <time>2022-05-29T08:17:30Z</time>
      </trkpt>
      <trkpt lat="48.43316" lon="-3.58002">
        <ele>251.3</ele>
        <time>2022-05-29T08:17:36Z</time>
      </trkpt>
      <trkpt lat="48.43311" lon="-3.5797">
        <ele>252.5</ele>
        <time>2022-05-29T08:17:41Z</time>
      </trkpt>
      <trkpt lat="48.43311" lon="-3.57964">
        <ele>252.7</ele>
        <time>2022-05-29T08:17:42Z</time>
      </trkpt>
      <trkpt lat="48.43313" lon="-3.57899">
        <ele>255.7</ele>
        <time>2022-05-29T08:17:55Z</time>
      </trkpt>
      <trkpt lat="48.43313" lon="-3.57878">
        <ele>256.9</ele>
        <time>2022-05-29T08:18:00Z</time>
      </trkpt>
      <trkpt lat="48.43315" lon="-3.57829">
        <ele>259.1</ele>
        <time>2022-05-29T08:18:12Z</time>
      </trkpt>
      <trkpt lat="48.43315" lon="-3.57796">
        <ele>260.1</ele>
        <time>2022-05-29T08:18:18Z</time>
      </trkpt>
      <trkpt lat="48.43315" lon="-3.57791">
        <ele>260.3</ele>
        <time>2022-05-29T08:18:19Z</time>
      </trkpt>
      <trkpt lat="48.43317" lon="-3.57779">
        <ele>260.7</ele>
        <time>2022-05-29T08:18:21Z</time>
      </trkpt>
      <trkpt lat="48.43308" lon="-3.57708">
        <ele>262.7</ele>
        <time>2022-05-29T08:18:32Z</time>
      </trkpt>
      <trkpt lat="48.43304" lon="-3.57693">
        <ele>263.3</ele>
        <time>2022-05-29T08:18:35Z</time>
      </trkpt>
      <trkpt lat="48.43289" lon="-3.57643">
        <ele>266</ele>
        <time>2022-05-29T08:18:46Z</time>
      </trkpt>
      <trkpt lat="48.4328" lon="-3.57622">
        <ele>267.4</ele>
        <time>2022-05-29T08:18:52Z</time>
      </trkpt>
      <trkpt lat="48.43263" lon="-3.57582">
        <ele>270.4</ele>
        <time>2022-05-29T08:19:04Z</time>
      </trkpt>
      <trkpt lat="48.43257" lon="-3.57568">
        <ele>271.9</ele>
        <time>2022-05-29T08:19:10Z</time>
      </trkpt>
      <trkpt lat="48.43245" lon="-3.5754">
        <ele>275</ele>
        <time>2022-05-29T08:19:22Z</time>
      </trkpt>
      <trkpt lat="48.43239" lon="-3.57526">
        <ele>276.4</ele>
        <time>2022-05-29T08:19:28Z</time>
      </trkpt>
      <trkpt lat="48.43238" lon="-3.57523">
        <ele>276.6</ele>
        <time>2022-05-29T08:19:29Z</time>
      </trkpt>
      <trkpt lat="48.43225" lon="-3.57499">
        <ele>279.6</ele>
        <time>2022-05-29T08:19:40Z</time>
      </trkpt>
      <trkpt lat="48.43217" lon="-3.57486">
        <ele>280.9</ele>
        <time>2022-05-29T08:19:46Z</time>
      </trkpt>
      <trkpt lat="48.43209" lon="-3.57471">
        <ele>282.7</ele>
        <time>2022-05-29T08:19:53Z</time>
      </trkpt>
      <trkpt lat="48.432" lon="-3.57461">
        <ele>284</ele>
        <time>2022-05-29T08:19:58Z</time>
      </trkpt>
      <trkpt lat="48.4319" lon="-3.57449">
        <ele>285.1</ele>
        <time>2022-05-29T08:20:04Z</time>
      </trkpt>
      <trkpt lat="48.43173" lon="-3.5743">
        <ele>287.2</ele>
        <time>2022-05-29T08:20:14Z</time>
      </trkpt>
      <trkpt lat="48.43156" lon="-3.57413">
        <ele>288.8</ele>
        <time>2022-05-29T08:20:22Z</time>
      </trkpt>
      <trkpt lat="48.43134" lon="-3.57389">
        <ele>291.6</ele>
        <time>2022-05-29T08:20:33Z</time>
      </trkpt>
      <trkpt lat="48.43131" lon="-3.57387">
        <ele>291.9</ele>
        <time>2022-05-29T08:20:34Z</time>
      </trkpt>
      <trkpt lat="48.43119" lon="-3.57377">
        <ele>293.3</ele>
        <time>2022-05-29T08:20:40Z</time>
      </trkpt>
      <trkpt lat="48.43108" lon="-3.57368">
        <ele>294</ele>
        <time>2022-05-29T08:20:45Z</time>
      </trkpt>
      <trkpt lat="48.43089" lon="-3.57353">
        <ele>294.6</ele>
        <time>2022-05-29T08:20:50Z</time>
      </trkpt>
      <trkpt lat="48.43069" lon="-3.57337">
        <ele>294.3</ele>
        <time>2022-05-29T08:20:55Z</time>
      </trkpt>
      <trkpt lat="48.43034" lon="-3.57311">
        <ele>293.9</ele>
        <time>2022-05-29T08:21:01Z</time>
      </trkpt>
      <trkpt lat="48.43023" lon="-3.57315">
        <ele>293.8</ele>
        <time>2022-05-29T08:21:03Z</time>
      </trkpt>
      <trkpt lat="48.43009" lon="-3.57332">
        <ele>293.6</ele>
        <time>2022-05-29T08:21:06Z</time>
      </trkpt>
      <trkpt lat="48.43001" lon="-3.57347">
        <ele>293.5</ele>
        <time>2022-05-29T08:21:08Z</time>
      </trkpt>
      <trkpt lat="48.42978" lon="-3.57393">
        <ele>293.2</ele>
        <time>2022-05-29T08:21:14Z</time>
      </trkpt>
      <trkpt lat="48.42955" lon="-3.57443">
        <ele>293</ele>
        <time>2022-05-29T08:21:20Z</time>
      </trkpt>
      <trkpt lat="48.42951" lon="-3.57451">
        <ele>293.1</ele>
        <time>2022-05-29T08:21:21Z</time>
      </trkpt>
      <trkpt lat="48.42925" lon="-3.57505">
        <ele>293.7</ele>
        <time>2022-05-29T08:21:28Z</time>
      </trkpt>
      <trkpt lat="48.42893" lon="-3.57561">
        <ele>294.4</ele>
        <time>2022-05-29T08:21:36Z</time>
      </trkpt>
      <trkpt lat="48.42857" lon="-3.57607">
        <ele>295.2</ele>
        <time>2022-05-29T08:21:44Z</time>
      </trkpt>
      <trkpt lat="48.42813" lon="-3.57647">
        <ele>295.9</ele>
        <time>2022-05-29T08:21:52Z</time>
      </trkpt>
      <trkpt lat="48.42765" lon="-3.5767">
        <ele>296.6</ele>
        <time>2022-05-29T08:22:00Z</time>
      </trkpt>
      <trkpt lat="48.42723" lon="-3.57691">
        <ele>297.3</ele>
        <time>2022-05-29T08:22:08Z</time>
      </trkpt>
      <trkpt lat="48.42717" lon="-3.57694">
        <ele>297.3</ele>
        <time>2022-05-29T08:22:09Z</time>
      </trkpt>
      <trkpt lat="48.42688" lon="-3.57711">
        <ele>297.4</ele>
        <time>2022-05-29T08:22:14Z</time>
      </trkpt>
      <trkpt lat="48.42669" lon="-3.5772">
        <ele>297.4</ele>
        <time>2022-05-29T08:22:17Z</time>
      </trkpt>
      <trkpt lat="48.42618" lon="-3.57721">
        <ele>297.4</ele>
        <time>2022-05-29T08:22:24Z</time>
      </trkpt>
      <trkpt lat="48.42573" lon="-3.57721">
        <ele>297.4</ele>
        <time>2022-05-29T08:22:30Z</time>
      </trkpt>
      <trkpt lat="48.42526" lon="-3.57732">
        <ele>297.5</ele>
        <time>2022-05-29T08:22:37Z</time>
      </trkpt>
      <trkpt lat="48.42494" lon="-3.57729">
        <ele>297.5</ele>
        <time>2022-05-29T08:22:42Z</time>
      </trkpt>
      <trkpt lat="48.42481" lon="-3.57725">
        <ele>297.5</ele>
        <time>2022-05-29T08:22:44Z</time>
      </trkpt>
      <trkpt lat="48.4245" lon="-3.57718">
        <ele>297.6</ele>
        <time>2022-05-29T08:22:49Z</time>
      </trkpt>
      <trkpt lat="48.42443" lon="-3.5772">
        <ele>297.4</ele>
        <time>2022-05-29T08:22:50Z</time>
      </trkpt>
      <trkpt lat="48.4243" lon="-3.57727">
        <ele>296.7</ele>
        <time>2022-05-29T08:22:52Z</time>
      </trkpt>
      <trkpt lat="48.4242" lon="-3.57744">
        <ele>295.9</ele>
        <time>2022-05-29T08:22:54Z</time>
      </trkpt>
      <trkpt lat="48.42401" lon="-3.57821">
        <ele>293.6</ele>
        <time>2022-05-29T08:23:00Z</time>
      </trkpt>
      <trkpt lat="48.42397" lon="-3.57835">
        <ele>293.1</ele>
        <time>2022-05-29T08:23:01Z</time>
      </trkpt>
      <trkpt lat="48.42393" lon="-3.57849">
        <ele>292.5</ele>
        <time>2022-05-29T08:23:02Z</time>
      </trkpt>
      <trkpt lat="48.42388" lon="-3.57862">
        <ele>291.9</ele>
        <time>2022-05-29T08:23:03Z</time>
      </trkpt>
      <trkpt lat="48.4238" lon="-3.57871">
        <ele>291.4</ele>
        <time>2022-05-29T08:23:04Z</time>
      </trkpt>
      <trkpt lat="48.4237" lon="-3.57875">
        <ele>290.8</ele>
        <time>2022-05-29T08:23:05Z</time>
      </trkpt>
      <trkpt lat="48.42349" lon="-3.57875">
        <ele>289.7</ele>
        <time>2022-05-29T08:23:07Z</time>
      </trkpt>
      <trkpt lat="48.42329" lon="-3.57868">
        <ele>289.2</ele>
        <time>2022-05-29T08:23:09Z</time>
      </trkpt>
      <trkpt lat="48.4232" lon="-3.57859">
        <ele>289</ele>
        <time>2022-05-29T08:23:10Z</time>
      </trkpt>
      <trkpt lat="48.42268" lon="-3.57859">
        <ele>287.5</ele>
        <time>2022-05-29T08:23:16Z</time>
      </trkpt>
      <trkpt lat="48.42244" lon="-3.57851">
        <ele>286.9</ele>
        <time>2022-05-29T08:23:19Z</time>
      </trkpt>
      <trkpt lat="48.42236" lon="-3.57847">
        <ele>287</ele>
        <time>2022-05-29T08:23:20Z</time>
      </trkpt>
      <trkpt lat="48.42207" lon="-3.57817">
        <ele>287.5</ele>
        <time>2022-05-29T08:23:25Z</time>
      </trkpt>
      <trkpt lat="48.42201" lon="-3.57811">
        <ele>287.8</ele>
        <time>2022-05-29T08:23:26Z</time>
      </trkpt>
      <trkpt lat="48.4218" lon="-3.57786">
        <ele>289.6</ele>
        <time>2022-05-29T08:23:31Z</time>
      </trkpt>
      <trkpt lat="48.42164" lon="-3.57766">
        <ele>290.7</ele>
        <time>2022-05-29T08:23:35Z</time>
      </trkpt>
      <trkpt lat="48.42156" lon="-3.57758">
        <ele>291.3</ele>
        <time>2022-05-29T08:23:37Z</time>
      </trkpt>
      <trkpt lat="48.42125" lon="-3.57726">
        <ele>293.2</ele>
        <time>2022-05-29T08:23:45Z</time>
      </trkpt>
      <trkpt lat="48.42106" lon="-3.57709">
        <ele>294.1</ele>
        <time>2022-05-29T08:23:49Z</time>
      </trkpt>
      <trkpt lat="48.42084" lon="-3.57689">
        <ele>294.6</ele>
        <time>2022-05-29T08:23:54Z</time>
      </trkpt>
      <trkpt lat="48.42052" lon="-3.57665">
        <ele>295.4</ele>
        <time>2022-05-29T08:24:01Z</time>
      </trkpt>
      <trkpt lat="48.42043" lon="-3.57658">
        <ele>295.5</ele>
        <time>2022-05-29T08:24:03Z</time>
      </trkpt>
      <trkpt lat="48.41997" lon="-3.57632">
        <ele>295.8</ele>
        <time>2022-05-29T08:24:12Z</time>
      </trkpt>
      <trkpt lat="48.41951" lon="-3.57612">
        <ele>296.1</ele>
        <time>2022-05-29T08:24:20Z</time>
      </trkpt>
      <trkpt lat="48.4191" lon="-3.57566">
        <ele>296.4</ele>
        <time>2022-05-29T08:24:27Z</time>
      </trkpt>
      <trkpt lat="48.41869" lon="-3.57526">
        <ele>296.7</ele>
        <time>2022-05-29T08:24:35Z</time>
      </trkpt>
      <trkpt lat="48.41859" lon="-3.57518">
        <ele>296.9</ele>
        <time>2022-05-29T08:24:37Z</time>
      </trkpt>
      <trkpt lat="48.41855" lon="-3.57514">
        <ele>297.1</ele>
        <time>2022-05-29T08:24:38Z</time>
      </trkpt>
      <trkpt lat="48.41811" lon="-3.5749">
        <ele>300.1</ele>
        <time>2022-05-29T08:24:49Z</time>
      </trkpt>
      <trkpt lat="48.41774" lon="-3.57472">
        <ele>302.5</ele>
        <time>2022-05-29T08:24:59Z</time>
      </trkpt>
      <trkpt lat="48.41767" lon="-3.57468">
        <ele>303.2</ele>
        <time>2022-05-29T08:25:01Z</time>
      </trkpt>
      <trkpt lat="48.41756" lon="-3.57462">
        <ele>304.1</ele>
        <time>2022-05-29T08:25:04Z</time>
      </trkpt>
      <trkpt lat="48.41723" lon="-3.5744">
        <ele>305.8</ele>
        <time>2022-05-29T08:25:13Z</time>
      </trkpt>
      <trkpt lat="48.41709" lon="-3.57425">
        <ele>306.2</ele>
        <time>2022-05-29T08:25:16Z</time>
      </trkpt>
      <trkpt lat="48.41681" lon="-3.57392">
        <ele>304.3</ele>
        <time>2022-05-29T08:25:22Z</time>
      </trkpt>
      <trkpt lat="48.41647" lon="-3.57345">
        <ele>300.8</ele>
        <time>2022-05-29T08:25:27Z</time>
      </trkpt>
      <trkpt lat="48.4164" lon="-3.57334">
        <ele>299.9</ele>
        <time>2022-05-29T08:25:28Z</time>
      </trkpt>
      <trkpt lat="48.41632" lon="-3.57324">
        <ele>298.6</ele>
        <time>2022-05-29T08:25:29Z</time>
      </trkpt>
      <trkpt lat="48.41591" lon="-3.57288">
        <ele>293.4</ele>
        <time>2022-05-29T08:25:33Z</time>
      </trkpt>
      <trkpt lat="48.41581" lon="-3.57279">
        <ele>292.5</ele>
        <time>2022-05-29T08:25:34Z</time>
      </trkpt>
      <trkpt lat="48.41563" lon="-3.57261">
        <ele>291.4</ele>
        <time>2022-05-29T08:25:36Z</time>
      </trkpt>
      <trkpt lat="48.41541" lon="-3.57252">
        <ele>290.3</ele>
        <time>2022-05-29T08:25:38Z</time>
      </trkpt>
      <trkpt lat="48.41531" lon="-3.57248">
        <ele>289.8</ele>
        <time>2022-05-29T08:25:39Z</time>
      </trkpt>
      <trkpt lat="48.4152" lon="-3.57246">
        <ele>289.3</ele>
        <time>2022-05-29T08:25:40Z</time>
      </trkpt>
      <trkpt lat="48.41487" lon="-3.57244">
        <ele>287.8</ele>
        <time>2022-05-29T08:25:43Z</time>
      </trkpt>
      <trkpt lat="48.41466" lon="-3.5725">
        <ele>286.9</ele>
        <time>2022-05-29T08:25:45Z</time>
      </trkpt>
      <trkpt lat="48.41432" lon="-3.57253">
        <ele>285.4</ele>
        <time>2022-05-29T08:25:48Z</time>
      </trkpt>
      <trkpt lat="48.41388" lon="-3.57273">
        <ele>283.5</ele>
        <time>2022-05-29T08:25:52Z</time>
      </trkpt>
      <trkpt lat="48.41342" lon="-3.57293">
        <ele>281.4</ele>
        <time>2022-05-29T08:25:56Z</time>
      </trkpt>
      <trkpt lat="48.4132" lon="-3.57304">
        <ele>280.3</ele>
        <time>2022-05-29T08:25:58Z</time>
      </trkpt>
      <trkpt lat="48.413" lon="-3.57314">
        <ele>279</ele>
        <time>2022-05-29T08:26:00Z</time>
      </trkpt>
      <trkpt lat="48.41264" lon="-3.57335">
        <ele>276.6</ele>
        <time>2022-05-29T08:26:04Z</time>
      </trkpt>
      <trkpt lat="48.41258" lon="-3.57338">
        <ele>276.3</ele>
        <time>2022-05-29T08:26:05Z</time>
      </trkpt>
      <trkpt lat="48.4124" lon="-3.57337">
        <ele>274.8</ele>
        <time>2022-05-29T08:26:10Z</time>
      </trkpt>
      <trkpt lat="48.41235" lon="-3.57326">
        <ele>274.5</ele>
        <time>2022-05-29T08:26:11Z</time>
      </trkpt>
      <trkpt lat="48.41221" lon="-3.57279">
        <ele>272.7</ele>
        <time>2022-05-29T08:26:16Z</time>
      </trkpt>
      <trkpt lat="48.41215" lon="-3.57257">
        <ele>271.2</ele>
        <time>2022-05-29T08:26:18Z</time>
      </trkpt>
      <trkpt lat="48.412" lon="-3.57202">
        <ele>268</ele>
        <time>2022-05-29T08:26:22Z</time>
      </trkpt>
      <trkpt lat="48.41196" lon="-3.57187">
        <ele>267</ele>
        <time>2022-05-29T08:26:23Z</time>
      </trkpt>
      <trkpt lat="48.41181" lon="-3.57117">
        <ele>263.1</ele>
        <time>2022-05-29T08:26:27Z</time>
      </trkpt>
      <trkpt lat="48.41178" lon="-3.57099">
        <ele>262</ele>
        <time>2022-05-29T08:26:28Z</time>
      </trkpt>
      <trkpt lat="48.41168" lon="-3.57043">
        <ele>258.7</ele>
        <time>2022-05-29T08:26:31Z</time>
      </trkpt>
      <trkpt lat="48.41156" lon="-3.56988">
        <ele>255.4</ele>
        <time>2022-05-29T08:26:34Z</time>
      </trkpt>
      <trkpt lat="48.41139" lon="-3.56915">
        <ele>251.3</ele>
        <time>2022-05-29T08:26:38Z</time>
      </trkpt>
      <trkpt lat="48.41132" lon="-3.56879">
        <ele>249.4</ele>
        <time>2022-05-29T08:26:40Z</time>
      </trkpt>
      <trkpt lat="48.41124" lon="-3.56844">
        <ele>248</ele>
        <time>2022-05-29T08:26:42Z</time>
      </trkpt>
      <trkpt lat="48.41109" lon="-3.56774">
        <ele>245.1</ele>
        <time>2022-05-29T08:26:46Z</time>
      </trkpt>
      <trkpt lat="48.41092" lon="-3.56706">
        <ele>242</ele>
        <time>2022-05-29T08:26:50Z</time>
      </trkpt>
      <trkpt lat="48.41083" lon="-3.56673">
        <ele>240.7</ele>
        <time>2022-05-29T08:26:52Z</time>
      </trkpt>
      <trkpt lat="48.41074" lon="-3.5664">
        <ele>240.4</ele>
        <time>2022-05-29T08:26:54Z</time>
      </trkpt>
      <trkpt lat="48.4106" lon="-3.56577">
        <ele>239.8</ele>
        <time>2022-05-29T08:26:58Z</time>
      </trkpt>
      <trkpt lat="48.41061" lon="-3.56513">
        <ele>239.3</ele>
        <time>2022-05-29T08:27:03Z</time>
      </trkpt>
      <trkpt lat="48.41064" lon="-3.56486">
        <ele>241.9</ele>
        <time>2022-05-29T08:27:08Z</time>
      </trkpt>
      <trkpt lat="48.4107" lon="-3.56445">
        <ele>245.5</ele>
        <time>2022-05-29T08:27:16Z</time>
      </trkpt>
      <trkpt lat="48.41072" lon="-3.56434">
        <ele>246.8</ele>
        <time>2022-05-29T08:27:19Z</time>
      </trkpt>
      <trkpt lat="48.41078" lon="-3.56388">
        <ele>249.6</ele>
        <time>2022-05-29T08:27:31Z</time>
      </trkpt>
      <trkpt lat="48.4108" lon="-3.56376">
        <ele>250.6</ele>
        <time>2022-05-29T08:27:34Z</time>
      </trkpt>
      <trkpt lat="48.41082" lon="-3.56363">
        <ele>251.5</ele>
        <time>2022-05-29T08:27:37Z</time>
      </trkpt>
      <trkpt lat="48.41087" lon="-3.56338">
        <ele>252.4</ele>
        <time>2022-05-29T08:27:43Z</time>
      </trkpt>
      <trkpt lat="48.41092" lon="-3.56308">
        <ele>253.3</ele>
        <time>2022-05-29T08:27:50Z</time>
      </trkpt>
      <trkpt lat="48.41093" lon="-3.56263">
        <ele>254.6</ele>
        <time>2022-05-29T08:28:01Z</time>
      </trkpt>
      <trkpt lat="48.41094" lon="-3.56239">
        <ele>255.7</ele>
        <time>2022-05-29T08:28:07Z</time>
      </trkpt>
      <trkpt lat="48.41094" lon="-3.56234">
        <ele>255.8</ele>
        <time>2022-05-29T08:28:08Z</time>
      </trkpt>
      <trkpt lat="48.41091" lon="-3.56178">
        <ele>257.2</ele>
        <time>2022-05-29T08:28:19Z</time>
      </trkpt>
      <trkpt lat="48.4109" lon="-3.56163">
        <ele>257.6</ele>
        <time>2022-05-29T08:28:22Z</time>
      </trkpt>
      <trkpt lat="48.41087" lon="-3.56108">
        <ele>258.7</ele>
        <time>2022-05-29T08:28:32Z</time>
      </trkpt>
      <trkpt lat="48.41075" lon="-3.56098">
        <ele>259.2</ele>
        <time>2022-05-29T08:28:36Z</time>
      </trkpt>
      <trkpt lat="48.4107" lon="-3.56097">
        <ele>259.3</ele>
        <time>2022-05-29T08:28:37Z</time>
      </trkpt>
      <trkpt lat="48.41049" lon="-3.56088">
        <ele>259.3</ele>
        <time>2022-05-29T08:28:41Z</time>
      </trkpt>
      <trkpt lat="48.41044" lon="-3.56084">
        <ele>259.4</ele>
        <time>2022-05-29T08:28:42Z</time>
      </trkpt>
      <trkpt lat="48.41038" lon="-3.56084">
        <ele>259.3</ele>
        <time>2022-05-29T08:28:43Z</time>
      </trkpt>
      <trkpt lat="48.41033" lon="-3.56087">
        <ele>259.2</ele>
        <time>2022-05-29T08:28:44Z</time>
      </trkpt>
      <trkpt lat="48.41028" lon="-3.5609">
        <ele>259.1</ele>
        <time>2022-05-29T08:28:45Z</time>
      </trkpt>
      <trkpt lat="48.40984" lon="-3.56104">
        <ele>258.3</ele>
        <time>2022-05-29T08:28:53Z</time>
      </trkpt>
      <trkpt lat="48.40938" lon="-3.56134">
        <ele>257.5</ele>
        <time>2022-05-29T08:29:01Z</time>
      </trkpt>
      <trkpt lat="48.40902" lon="-3.56178">
        <ele>256.8</ele>
        <time>2022-05-29T08:29:08Z</time>
      </trkpt>
      <trkpt lat="48.40881" lon="-3.56209">
        <ele>256.3</ele>
        <time>2022-05-29T08:29:12Z</time>
      </trkpt>
      <trkpt lat="48.40865" lon="-3.56233">
        <ele>255.5</ele>
        <time>2022-05-29T08:29:15Z</time>
      </trkpt>
      <trkpt lat="48.40852" lon="-3.56249">
        <ele>254.9</ele>
        <time>2022-05-29T08:29:17Z</time>
      </trkpt>
      <trkpt lat="48.40826" lon="-3.56281">
        <ele>253.2</ele>
        <time>2022-05-29T08:29:21Z</time>
      </trkpt>
      <trkpt lat="48.40788" lon="-3.56319">
        <ele>251.2</ele>
        <time>2022-05-29T08:29:26Z</time>
      </trkpt>
      <trkpt lat="48.40764" lon="-3.56345">
        <ele>249.9</ele>
        <time>2022-05-29T08:29:29Z</time>
      </trkpt>
      <trkpt lat="48.40749" lon="-3.56363">
        <ele>248.8</ele>
        <time>2022-05-29T08:29:31Z</time>
      </trkpt>
      <trkpt lat="48.40726" lon="-3.56395">
        <ele>247.2</ele>
        <time>2022-05-29T08:29:34Z</time>
      </trkpt>
      <trkpt lat="48.40718" lon="-3.56406">
        <ele>246.7</ele>
        <time>2022-05-29T08:29:35Z</time>
      </trkpt>
      <trkpt lat="48.4071" lon="-3.56417">
        <ele>246.2</ele>
        <time>2022-05-29T08:29:36Z</time>
      </trkpt>
      <trkpt lat="48.40682" lon="-3.56488">
        <ele>243.5</ele>
        <time>2022-05-29T08:29:41Z</time>
      </trkpt>
      <trkpt lat="48.40673" lon="-3.56543">
        <ele>242</ele>
        <time>2022-05-29T08:29:44Z</time>
      </trkpt>
      <trkpt lat="48.40653" lon="-3.56621">
        <ele>239.5</ele>
        <time>2022-05-29T08:29:49Z</time>
      </trkpt>
      <trkpt lat="48.40646" lon="-3.56681">
        <ele>237.6</ele>
        <time>2022-05-29T08:29:53Z</time>
      </trkpt>
      <trkpt lat="48.40644" lon="-3.56696">
        <ele>237.5</ele>
        <time>2022-05-29T08:29:54Z</time>
      </trkpt>
      <trkpt lat="48.4064" lon="-3.56768">
        <ele>236.8</ele>
        <time>2022-05-29T08:29:59Z</time>
      </trkpt>
      <trkpt lat="48.40633" lon="-3.56797">
        <ele>236.5</ele>
        <time>2022-05-29T08:30:01Z</time>
      </trkpt>
      <trkpt lat="48.40604" lon="-3.56829">
        <ele>235.8</ele>
        <time>2022-05-29T08:30:05Z</time>
      </trkpt>
      <trkpt lat="48.40596" lon="-3.56837">
        <ele>235.7</ele>
        <time>2022-05-29T08:30:06Z</time>
      </trkpt>
      <trkpt lat="48.40552" lon="-3.56881">
        <ele>234.5</ele>
        <time>2022-05-29T08:30:12Z</time>
      </trkpt>
      <trkpt lat="48.4051" lon="-3.56926">
        <ele>233.4</ele>
        <time>2022-05-29T08:30:18Z</time>
      </trkpt>
      <trkpt lat="48.4049" lon="-3.56948">
        <ele>232.8</ele>
        <time>2022-05-29T08:30:21Z</time>
      </trkpt>
      <trkpt lat="48.40474" lon="-3.56956">
        <ele>232.6</ele>
        <time>2022-05-29T08:30:23Z</time>
      </trkpt>
      <trkpt lat="48.40467" lon="-3.56958">
        <ele>232.8</ele>
        <time>2022-05-29T08:30:24Z</time>
      </trkpt>
      <trkpt lat="48.40465" lon="-3.56947">
        <ele>233</ele>
        <time>2022-05-29T08:30:25Z</time>
      </trkpt>
      <trkpt lat="48.40466" lon="-3.56907">
        <ele>233.3</ele>
        <time>2022-05-29T08:30:27Z</time>
      </trkpt>
      <trkpt lat="48.40467" lon="-3.56897">
        <ele>233.7</ele>
        <time>2022-05-29T08:30:29Z</time>
      </trkpt>
      <trkpt lat="48.40468" lon="-3.56886">
        <ele>234.1</ele>
        <time>2022-05-29T08:30:31Z</time>
      </trkpt>
      <trkpt lat="48.40471" lon="-3.56859">
        <ele>234.7</ele>
        <time>2022-05-29T08:30:35Z</time>
      </trkpt>
      <trkpt lat="48.40474" lon="-3.56832">
        <ele>234.9</ele>
        <time>2022-05-29T08:30:39Z</time>
      </trkpt>
      <trkpt lat="48.4047" lon="-3.56816">
        <ele>235</ele>
        <time>2022-05-29T08:30:41Z</time>
      </trkpt>
      <trkpt lat="48.40463" lon="-3.56794">
        <ele>235.3</ele>
        <time>2022-05-29T08:30:44Z</time>
      </trkpt>
      <trkpt lat="48.40423" lon="-3.56753">
        <ele>236</ele>
        <time>2022-05-29T08:30:52Z</time>
      </trkpt>
      <trkpt lat="48.4038" lon="-3.5673">
        <ele>236.7</ele>
        <time>2022-05-29T08:31:00Z</time>
      </trkpt>
      <trkpt lat="48.40333" lon="-3.56711">
        <ele>237.5</ele>
        <time>2022-05-29T08:31:09Z</time>
      </trkpt>
      <trkpt lat="48.40286" lon="-3.56696">
        <ele>238.3</ele>
        <time>2022-05-29T08:31:18Z</time>
      </trkpt>
      <trkpt lat="48.40262" lon="-3.56687">
        <ele>238.8</ele>
        <time>2022-05-29T08:31:23Z</time>
      </trkpt>
      <trkpt lat="48.40239" lon="-3.56678">
        <ele>239.4</ele>
        <time>2022-05-29T08:31:28Z</time>
      </trkpt>
      <trkpt lat="48.40191" lon="-3.56664">
        <ele>240.9</ele>
        <time>2022-05-29T08:31:39Z</time>
      </trkpt>
      <trkpt lat="48.40149" lon="-3.56665">
        <ele>241.9</ele>
        <time>2022-05-29T08:31:47Z</time>
      </trkpt>
      <trkpt lat="48.40144" lon="-3.56665">
        <ele>242</ele>
        <time>2022-05-29T08:31:48Z</time>
      </trkpt>
      <trkpt lat="48.40098" lon="-3.56664">
        <ele>242.6</ele>
        <time>2022-05-29T08:31:56Z</time>
      </trkpt>
      <trkpt lat="48.40059" lon="-3.56672">
        <ele>243.1</ele>
        <time>2022-05-29T08:32:03Z</time>
      </trkpt>
      <trkpt lat="48.40012" lon="-3.56688">
        <ele>243.8</ele>
        <time>2022-05-29T08:32:12Z</time>
      </trkpt>
      <trkpt lat="48.39985" lon="-3.56692">
        <ele>244.1</ele>
        <time>2022-05-29T08:32:17Z</time>
      </trkpt>
      <trkpt lat="48.39963" lon="-3.56693">
        <ele>244.4</ele>
        <time>2022-05-29T08:32:21Z</time>
      </trkpt>
      <trkpt lat="48.39952" lon="-3.56685">
        <ele>244.5</ele>
        <time>2022-05-29T08:32:23Z</time>
      </trkpt>
      <trkpt lat="48.39942" lon="-3.56677">
        <ele>244.7</ele>
        <time>2022-05-29T08:32:25Z</time>
      </trkpt>
      <trkpt lat="48.39911" lon="-3.56621">
        <ele>245.3</ele>
        <time>2022-05-29T08:32:33Z</time>
      </trkpt>
      <trkpt lat="48.3988" lon="-3.56566">
        <ele>246</ele>
        <time>2022-05-29T08:32:41Z</time>
      </trkpt>
      <trkpt lat="48.39854" lon="-3.56531">
        <ele>246.5</ele>
        <time>2022-05-29T08:32:47Z</time>
      </trkpt>
      <trkpt lat="48.39815" lon="-3.56498">
        <ele>247.1</ele>
        <time>2022-05-29T08:32:55Z</time>
      </trkpt>
      <trkpt lat="48.398" lon="-3.56486">
        <ele>247.6</ele>
        <time>2022-05-29T08:32:59Z</time>
      </trkpt>
      <trkpt lat="48.39778" lon="-3.56469">
        <ele>249.3</ele>
        <time>2022-05-29T08:33:05Z</time>
      </trkpt>
      <trkpt lat="48.39774" lon="-3.56467">
        <ele>249.6</ele>
        <time>2022-05-29T08:33:06Z</time>
      </trkpt>
      <trkpt lat="48.39741" lon="-3.56456">
        <ele>252.4</ele>
        <time>2022-05-29T08:33:17Z</time>
      </trkpt>
      <trkpt lat="48.39729" lon="-3.56467">
        <ele>253.5</ele>
        <time>2022-05-29T08:33:22Z</time>
      </trkpt>
      <trkpt lat="48.39714" lon="-3.56482">
        <ele>255.2</ele>
        <time>2022-05-29T08:33:28Z</time>
      </trkpt>
      <trkpt lat="48.39701" lon="-3.56493">
        <ele>256.3</ele>
        <time>2022-05-29T08:33:33Z</time>
      </trkpt>
      <trkpt lat="48.3969" lon="-3.56507">
        <ele>257.6</ele>
        <time>2022-05-29T08:33:39Z</time>
      </trkpt>
      <trkpt lat="48.39666" lon="-3.56536">
        <ele>260.4</ele>
        <time>2022-05-29T08:33:51Z</time>
      </trkpt>
      <trkpt lat="48.39653" lon="-3.5655">
        <ele>261.7</ele>
        <time>2022-05-29T08:33:57Z</time>
      </trkpt>
      <trkpt lat="48.3963" lon="-3.56576">
        <ele>264.2</ele>
        <time>2022-05-29T08:34:08Z</time>
      </trkpt>
      <trkpt lat="48.39615" lon="-3.5659">
        <ele>265.9</ele>
        <time>2022-05-29T08:34:15Z</time>
      </trkpt>
      <trkpt lat="48.39591" lon="-3.56613">
        <ele>268.1</ele>
        <time>2022-05-29T08:34:26Z</time>
      </trkpt>
      <trkpt lat="48.39574" lon="-3.56629">
        <ele>269.6</ele>
        <time>2022-05-29T08:34:33Z</time>
      </trkpt>
      <trkpt lat="48.39551" lon="-3.5665">
        <ele>271.3</ele>
        <time>2022-05-29T08:34:42Z</time>
      </trkpt>
      <trkpt lat="48.39528" lon="-3.56669">
        <ele>273.1</ele>
        <time>2022-05-29T08:34:51Z</time>
      </trkpt>
      <trkpt lat="48.39511" lon="-3.56684">
        <ele>274.4</ele>
        <time>2022-05-29T08:34:58Z</time>
      </trkpt>
      <trkpt lat="48.39469" lon="-3.56713">
        <ele>277.2</ele>
        <time>2022-05-29T08:35:14Z</time>
      </trkpt>
      <trkpt lat="48.39466" lon="-3.56714">
        <ele>277.4</ele>
        <time>2022-05-29T08:35:15Z</time>
      </trkpt>
      <trkpt lat="48.39426" lon="-3.56739">
        <ele>280.5</ele>
        <time>2022-05-29T08:35:29Z</time>
      </trkpt>
      <trkpt lat="48.39417" lon="-3.56741">
        <ele>281.1</ele>
        <time>2022-05-29T08:35:32Z</time>
      </trkpt>
      <trkpt lat="48.39381" lon="-3.56746">
        <ele>283.2</ele>
        <time>2022-05-29T08:35:44Z</time>
      </trkpt>
      <trkpt lat="48.39365" lon="-3.56727">
        <ele>284.1</ele>
        <time>2022-05-29T08:35:49Z</time>
      </trkpt>
      <trkpt lat="48.39342" lon="-3.567">
        <ele>284.6</ele>
        <time>2022-05-29T08:35:56Z</time>
      </trkpt>
      <trkpt lat="48.39315" lon="-3.56643">
        <ele>285.3</ele>
        <time>2022-05-29T08:36:06Z</time>
      </trkpt>
      <trkpt lat="48.3929" lon="-3.56584">
        <ele>286.1</ele>
        <time>2022-05-29T08:36:16Z</time>
      </trkpt>
      <trkpt lat="48.39264" lon="-3.56522">
        <ele>286.8</ele>
        <time>2022-05-29T08:36:26Z</time>
      </trkpt>
      <trkpt lat="48.3925" lon="-3.56485">
        <ele>287.1</ele>
        <time>2022-05-29T08:36:31Z</time>
      </trkpt>
      <trkpt lat="48.3924" lon="-3.56455">
        <ele>286.5</ele>
        <time>2022-05-29T08:36:35Z</time>
      </trkpt>
      <trkpt lat="48.39224" lon="-3.5639">
        <ele>285.4</ele>
        <time>2022-05-29T08:36:42Z</time>
      </trkpt>
      <trkpt lat="48.39223" lon="-3.56378">
        <ele>285.2</ele>
        <time>2022-05-29T08:36:43Z</time>
      </trkpt>
      <trkpt lat="48.39217" lon="-3.56319">
        <ele>284.1</ele>
        <time>2022-05-29T08:36:48Z</time>
      </trkpt>
      <trkpt lat="48.39213" lon="-3.56246">
        <ele>282.8</ele>
        <time>2022-05-29T08:36:54Z</time>
      </trkpt>
      <trkpt lat="48.3921" lon="-3.56172">
        <ele>281.6</ele>
        <time>2022-05-29T08:37:00Z</time>
      </trkpt>
      <trkpt lat="48.3921" lon="-3.5616">
        <ele>281.4</ele>
        <time>2022-05-29T08:37:01Z</time>
      </trkpt>
      <trkpt lat="48.39202" lon="-3.56149">
        <ele>281.3</ele>
        <time>2022-05-29T08:37:02Z</time>
      </trkpt>
      <trkpt lat="48.39193" lon="-3.56139">
        <ele>281.2</ele>
        <time>2022-05-29T08:37:03Z</time>
      </trkpt>
      <trkpt lat="48.39187" lon="-3.56071">
        <ele>280.5</ele>
        <time>2022-05-29T08:37:09Z</time>
      </trkpt>
      <trkpt lat="48.3918" lon="-3.56004">
        <ele>279.8</ele>
        <time>2022-05-29T08:37:15Z</time>
      </trkpt>
      <trkpt lat="48.39172" lon="-3.55964">
        <ele>279.4</ele>
        <time>2022-05-29T08:37:19Z</time>
      </trkpt>
      <trkpt lat="48.39167" lon="-3.55935">
        <ele>279.6</ele>
        <time>2022-05-29T08:37:22Z</time>
      </trkpt>
      <trkpt lat="48.39164" lon="-3.55926">
        <ele>279.6</ele>
        <time>2022-05-29T08:37:23Z</time>
      </trkpt>
      <trkpt lat="48.39137" lon="-3.55871">
        <ele>280.1</ele>
        <time>2022-05-29T08:37:30Z</time>
      </trkpt>
      <trkpt lat="48.39111" lon="-3.55813">
        <ele>280.5</ele>
        <time>2022-05-29T08:37:37Z</time>
      </trkpt>
      <trkpt lat="48.39085" lon="-3.55756">
        <ele>280.9</ele>
        <time>2022-05-29T08:37:44Z</time>
      </trkpt>
      <trkpt lat="48.39059" lon="-3.55695">
        <ele>281.4</ele>
        <time>2022-05-29T08:37:51Z</time>
      </trkpt>
      <trkpt lat="48.39033" lon="-3.55637">
        <ele>281.8</ele>
        <time>2022-05-29T08:37:58Z</time>
      </trkpt>
      <trkpt lat="48.39005" lon="-3.55576">
        <ele>282.3</ele>
        <time>2022-05-29T08:38:06Z</time>
      </trkpt>
      <trkpt lat="48.38977" lon="-3.55517">
        <ele>282.9</ele>
        <time>2022-05-29T08:38:15Z</time>
      </trkpt>
      <trkpt lat="48.38971" lon="-3.55505">
        <ele>283</ele>
        <time>2022-05-29T08:38:17Z</time>
      </trkpt>
      <trkpt lat="48.38949" lon="-3.55461">
        <ele>283.8</ele>
        <time>2022-05-29T08:38:24Z</time>
      </trkpt>
      <trkpt lat="48.38941" lon="-3.55444">
        <ele>284.1</ele>
        <time>2022-05-29T08:38:26Z</time>
      </trkpt>
      <trkpt lat="48.38929" lon="-3.5543">
        <ele>284.4</ele>
        <time>2022-05-29T08:38:29Z</time>
      </trkpt>
      <trkpt lat="48.38903" lon="-3.55403">
        <ele>285.2</ele>
        <time>2022-05-29T08:38:35Z</time>
      </trkpt>
      <trkpt lat="48.38863" lon="-3.55371">
        <ele>286.3</ele>
        <time>2022-05-29T08:38:43Z</time>
      </trkpt>
      <trkpt lat="48.38823" lon="-3.55331">
        <ele>287.5</ele>
        <time>2022-05-29T08:38:52Z</time>
      </trkpt>
      <trkpt lat="48.38803" lon="-3.55304">
        <ele>288.1</ele>
        <time>2022-05-29T08:38:57Z</time>
      </trkpt>
      <trkpt lat="48.38788" lon="-3.55282">
        <ele>288.6</ele>
        <time>2022-05-29T08:39:01Z</time>
      </trkpt>
      <trkpt lat="48.38757" lon="-3.55233">
        <ele>289.8</ele>
        <time>2022-05-29T08:39:10Z</time>
      </trkpt>
      <trkpt lat="48.38723" lon="-3.55184">
        <ele>290.7</ele>
        <time>2022-05-29T08:39:19Z</time>
      </trkpt>
      <trkpt lat="48.38694" lon="-3.55134">
        <ele>291.6</ele>
        <time>2022-05-29T08:39:27Z</time>
      </trkpt>
      <trkpt lat="48.38674" lon="-3.55071">
        <ele>292.6</ele>
        <time>2022-05-29T08:39:36Z</time>
      </trkpt>
      <trkpt lat="48.38649" lon="-3.55016">
        <ele>293.5</ele>
        <time>2022-05-29T08:39:45Z</time>
      </trkpt>
      <trkpt lat="48.38646" lon="-3.55009">
        <ele>293.6</ele>
        <time>2022-05-29T08:39:46Z</time>
      </trkpt>
      <trkpt lat="48.38617" lon="-3.54956">
        <ele>294.2</ele>
        <time>2022-05-29T08:39:54Z</time>
      </trkpt>
      <trkpt lat="48.38585" lon="-3.54897">
        <ele>294.9</ele>
        <time>2022-05-29T08:40:03Z</time>
      </trkpt>
      <trkpt lat="48.38554" lon="-3.5484">
        <ele>295.6</ele>
        <time>2022-05-29T08:40:12Z</time>
      </trkpt>
      <trkpt lat="48.38522" lon="-3.54781">
        <ele>296.3</ele>
        <time>2022-05-29T08:40:21Z</time>
      </trkpt>
      <trkpt lat="48.38503" lon="-3.54744">
        <ele>296.6</ele>
        <time>2022-05-29T08:40:26Z</time>
      </trkpt>
      <trkpt lat="48.38492" lon="-3.54723">
        <ele>296.4</ele>
        <time>2022-05-29T08:40:29Z</time>
      </trkpt>
      <trkpt lat="48.38463" lon="-3.54674">
        <ele>295.8</ele>
        <time>2022-05-29T08:40:38Z</time>
      </trkpt>
      <trkpt lat="48.38424" lon="-3.54634">
        <ele>295.4</ele>
        <time>2022-05-29T08:40:45Z</time>
      </trkpt>
      <trkpt lat="48.38407" lon="-3.54604">
        <ele>295.2</ele>
        <time>2022-05-29T08:40:48Z</time>
      </trkpt>
      <trkpt lat="48.38383" lon="-3.54544">
        <ele>294.8</ele>
        <time>2022-05-29T08:40:54Z</time>
      </trkpt>
      <trkpt lat="48.38354" lon="-3.54485">
        <ele>294.3</ele>
        <time>2022-05-29T08:41:01Z</time>
      </trkpt>
      <trkpt lat="48.38339" lon="-3.54465">
        <ele>294</ele>
        <time>2022-05-29T08:41:05Z</time>
      </trkpt>
      <trkpt lat="48.38322" lon="-3.54464">
        <ele>293.7</ele>
        <time>2022-05-29T08:41:08Z</time>
      </trkpt>
      <trkpt lat="48.38315" lon="-3.54466">
        <ele>293.3</ele>
        <time>2022-05-29T08:41:09Z</time>
      </trkpt>
      <trkpt lat="48.38277" lon="-3.54467">
        <ele>291.4</ele>
        <time>2022-05-29T08:41:14Z</time>
      </trkpt>
      <trkpt lat="48.38282" lon="-3.54446">
        <ele>291.4</ele>
        <time>2022-05-29T08:41:15Z</time>
      </trkpt>
      <trkpt lat="48.38274" lon="-3.54408">
        <ele>291.3</ele>
        <time>2022-05-29T08:41:20Z</time>
      </trkpt>
      <trkpt lat="48.38272" lon="-3.544">
        <ele>291.3</ele>
        <time>2022-05-29T08:41:21Z</time>
      </trkpt>
      <trkpt lat="48.38263" lon="-3.54364">
        <ele>291.7</ele>
        <time>2022-05-29T08:41:26Z</time>
      </trkpt>
      <trkpt lat="48.38257" lon="-3.54341">
        <ele>291.6</ele>
        <time>2022-05-29T08:41:29Z</time>
      </trkpt>
      <trkpt lat="48.38232" lon="-3.54278">
        <ele>291.4</ele>
        <time>2022-05-29T08:41:38Z</time>
      </trkpt>
      <trkpt lat="48.38213" lon="-3.54239">
        <ele>291.3</ele>
        <time>2022-05-29T08:41:46Z</time>
      </trkpt>
      <trkpt lat="48.3817" lon="-3.54268">
        <ele>291.1</ele>
        <time>2022-05-29T08:41:53Z</time>
      </trkpt>
      <trkpt lat="48.38162" lon="-3.54274">
        <ele>290.8</ele>
        <time>2022-05-29T08:41:54Z</time>
      </trkpt>
      <trkpt lat="48.38123" lon="-3.54309">
        <ele>288.1</ele>
        <time>2022-05-29T08:41:59Z</time>
      </trkpt>
      <trkpt lat="48.38114" lon="-3.54316">
        <ele>287.6</ele>
        <time>2022-05-29T08:42:00Z</time>
      </trkpt>
      <trkpt lat="48.38077" lon="-3.54341">
        <ele>285.5</ele>
        <time>2022-05-29T08:42:04Z</time>
      </trkpt>
      <trkpt lat="48.38057" lon="-3.54348">
        <ele>284.6</ele>
        <time>2022-05-29T08:42:06Z</time>
      </trkpt>
      <trkpt lat="48.38027" lon="-3.5436">
        <ele>284</ele>
        <time>2022-05-29T08:42:09Z</time>
      </trkpt>
      <trkpt lat="48.37978" lon="-3.54375">
        <ele>282.9</ele>
        <time>2022-05-29T08:42:14Z</time>
      </trkpt>
      <trkpt lat="48.37942" lon="-3.54386">
        <ele>282.2</ele>
        <time>2022-05-29T08:42:18Z</time>
      </trkpt>
      <trkpt lat="48.37933" lon="-3.54388">
        <ele>282.1</ele>
        <time>2022-05-29T08:42:19Z</time>
      </trkpt>
      <trkpt lat="48.37884" lon="-3.54404">
        <ele>282</ele>
        <time>2022-05-29T08:42:25Z</time>
      </trkpt>
      <trkpt lat="48.37847" lon="-3.54416">
        <ele>281.7</ele>
        <time>2022-05-29T08:42:30Z</time>
      </trkpt>
      <trkpt lat="48.3784" lon="-3.54418">
        <ele>281.5</ele>
        <time>2022-05-29T08:42:31Z</time>
      </trkpt>
      <trkpt lat="48.37794" lon="-3.54433">
        <ele>280.2</ele>
        <time>2022-05-29T08:42:37Z</time>
      </trkpt>
      <trkpt lat="48.37743" lon="-3.54453">
        <ele>278.8</ele>
        <time>2022-05-29T08:42:43Z</time>
      </trkpt>
      <trkpt lat="48.3769" lon="-3.54472">
        <ele>277.4</ele>
        <time>2022-05-29T08:42:48Z</time>
      </trkpt>
      <trkpt lat="48.37643" lon="-3.54487">
        <ele>273.8</ele>
        <time>2022-05-29T08:42:52Z</time>
      </trkpt>
      <trkpt lat="48.37619" lon="-3.54493">
        <ele>272.4</ele>
        <time>2022-05-29T08:42:54Z</time>
      </trkpt>
      <trkpt lat="48.37597" lon="-3.54501">
        <ele>272.4</ele>
        <time>2022-05-29T08:42:56Z</time>
      </trkpt>
      <trkpt lat="48.37547" lon="-3.54525">
        <ele>272.2</ele>
        <time>2022-05-29T08:43:01Z</time>
      </trkpt>
      <trkpt lat="48.37508" lon="-3.54552">
        <ele>272.2</ele>
        <time>2022-05-29T08:43:06Z</time>
      </trkpt>
      <trkpt lat="48.37502" lon="-3.54558">
        <ele>272.5</ele>
        <time>2022-05-29T08:43:07Z</time>
      </trkpt>
      <trkpt lat="48.37474" lon="-3.54588">
        <ele>273.8</ele>
        <time>2022-05-29T08:43:12Z</time>
      </trkpt>
      <trkpt lat="48.37463" lon="-3.546">
        <ele>274.4</ele>
        <time>2022-05-29T08:43:14Z</time>
      </trkpt>
      <trkpt lat="48.37447" lon="-3.54624">
        <ele>275.5</ele>
        <time>2022-05-29T08:43:18Z</time>
      </trkpt>
      <trkpt lat="48.37431" lon="-3.54647">
        <ele>276.4</ele>
        <time>2022-05-29T08:43:22Z</time>
      </trkpt>
      <trkpt lat="48.37398" lon="-3.54691">
        <ele>278.2</ele>
        <time>2022-05-29T08:43:30Z</time>
      </trkpt>
      <trkpt lat="48.37394" lon="-3.54696">
        <ele>278.3</ele>
        <time>2022-05-29T08:43:31Z</time>
      </trkpt>
      <trkpt lat="48.37363" lon="-3.54732">
        <ele>279.8</ele>
        <time>2022-05-29T08:43:39Z</time>
      </trkpt>
      <trkpt lat="48.3736" lon="-3.54731">
        <ele>280</ele>
        <time>2022-05-29T08:43:40Z</time>
      </trkpt>
      <trkpt lat="48.37343" lon="-3.54707">
        <ele>280.7</ele>
        <time>2022-05-29T08:43:44Z</time>
      </trkpt>
      <trkpt lat="48.3734" lon="-3.54701">
        <ele>280.9</ele>
        <time>2022-05-29T08:43:45Z</time>
      </trkpt>
      <trkpt lat="48.37337" lon="-3.54685">
        <ele>281.2</ele>
        <time>2022-05-29T08:43:47Z</time>
      </trkpt>
      <trkpt lat="48.37327" lon="-3.54645">
        <ele>282.2</ele>
        <time>2022-05-29T08:43:53Z</time>
      </trkpt>
      <trkpt lat="48.37327" lon="-3.54638">
        <ele>282.4</ele>
        <time>2022-05-29T08:43:54Z</time>
      </trkpt>
      <trkpt lat="48.37328" lon="-3.54631">
        <ele>282.6</ele>
        <time>2022-05-29T08:43:55Z</time>
      </trkpt>
      <trkpt lat="48.37326" lon="-3.54615">
        <ele>283.1</ele>
        <time>2022-05-29T08:43:58Z</time>
      </trkpt>
      <trkpt lat="48.37325" lon="-3.54598">
        <ele>283.4</ele>
        <time>2022-05-29T08:44:02Z</time>
      </trkpt>
      <trkpt lat="48.37326" lon="-3.5461">
        <ele>283.5</ele>
        <time>2022-05-29T08:44:04Z</time>
      </trkpt>
      <trkpt lat="48.37334" lon="-3.54666">
        <ele>282.3</ele>
        <time>2022-05-29T08:44:13Z</time>
      </trkpt>
      <trkpt lat="48.37338" lon="-3.547">
        <ele>281.8</ele>
        <time>2022-05-29T08:44:17Z</time>
      </trkpt>
      <trkpt lat="48.37333" lon="-3.54704">
        <ele>281.6</ele>
        <time>2022-05-29T08:44:18Z</time>
      </trkpt>
      <trkpt lat="48.37313" lon="-3.54706">
        <ele>281.3</ele>
        <time>2022-05-29T08:44:21Z</time>
      </trkpt>
      <trkpt lat="48.37306" lon="-3.54705">
        <ele>281.2</ele>
        <time>2022-05-29T08:44:22Z</time>
      </trkpt>
      <trkpt lat="48.37259" lon="-3.54692">
        <ele>280.5</ele>
        <time>2022-05-29T08:44:29Z</time>
      </trkpt>
      <trkpt lat="48.37237" lon="-3.54684">
        <ele>280.3</ele>
        <time>2022-05-29T08:44:33Z</time>
      </trkpt>
      <trkpt lat="48.37215" lon="-3.54676">
        <ele>281.3</ele>
        <time>2022-05-29T08:44:37Z</time>
      </trkpt>
      <trkpt lat="48.37178" lon="-3.5466">
        <ele>283.2</ele>
        <time>2022-05-29T08:44:45Z</time>
      </trkpt>
      <trkpt lat="48.37169" lon="-3.54655">
        <ele>283.5</ele>
        <time>2022-05-29T08:44:47Z</time>
      </trkpt>
      <trkpt lat="48.37129" lon="-3.54617">
        <ele>285.3</ele>
        <time>2022-05-29T08:44:57Z</time>
      </trkpt>
      <trkpt lat="48.37104" lon="-3.54597">
        <ele>286.2</ele>
        <time>2022-05-29T08:45:03Z</time>
      </trkpt>
      <trkpt lat="48.37086" lon="-3.54583">
        <ele>286.5</ele>
        <time>2022-05-29T08:45:07Z</time>
      </trkpt>
      <trkpt lat="48.37045" lon="-3.5455">
        <ele>287</ele>
        <time>2022-05-29T08:45:15Z</time>
      </trkpt>
      <trkpt lat="48.37001" lon="-3.54523">
        <ele>288</ele>
        <time>2022-05-29T08:45:23Z</time>
      </trkpt>
      <trkpt lat="48.36955" lon="-3.54499">
        <ele>289.4</ele>
        <time>2022-05-29T08:45:33Z</time>
      </trkpt>
      <trkpt lat="48.36908" lon="-3.54475">
        <ele>289.9</ele>
        <time>2022-05-29T08:45:43Z</time>
      </trkpt>
      <trkpt lat="48.36895" lon="-3.5447">
        <ele>289.9</ele>
        <time>2022-05-29T08:45:45Z</time>
      </trkpt>
      <trkpt lat="48.36857" lon="-3.54454">
        <ele>288.2</ele>
        <time>2022-05-29T08:45:51Z</time>
      </trkpt>
      <trkpt lat="48.36819" lon="-3.54432">
        <ele>286.5</ele>
        <time>2022-05-29T08:45:56Z</time>
      </trkpt>
      <trkpt lat="48.3681" lon="-3.54427">
        <ele>285.7</ele>
        <time>2022-05-29T08:45:57Z</time>
      </trkpt>
      <trkpt lat="48.36769" lon="-3.54406">
        <ele>282.5</ele>
        <time>2022-05-29T08:46:01Z</time>
      </trkpt>
      <trkpt lat="48.36756" lon="-3.54405">
        <ele>281.5</ele>
        <time>2022-05-29T08:46:02Z</time>
      </trkpt>
      <trkpt lat="48.3671" lon="-3.54364">
        <ele>276.7</ele>
        <time>2022-05-29T08:46:06Z</time>
      </trkpt>
      <trkpt lat="48.36697" lon="-3.5435">
        <ele>275.2</ele>
        <time>2022-05-29T08:46:07Z</time>
      </trkpt>
      <trkpt lat="48.36687" lon="-3.54334">
        <ele>273.4</ele>
        <time>2022-05-29T08:46:08Z</time>
      </trkpt>
      <trkpt lat="48.36661" lon="-3.54279">
        <ele>267.8</ele>
        <time>2022-05-29T08:46:11Z</time>
      </trkpt>
      <trkpt lat="48.36644" lon="-3.54246">
        <ele>264.5</ele>
        <time>2022-05-29T08:46:13Z</time>
      </trkpt>
      <trkpt lat="48.36639" lon="-3.54226">
        <ele>263.5</ele>
        <time>2022-05-29T08:46:14Z</time>
      </trkpt>
      <trkpt lat="48.3664" lon="-3.54155">
        <ele>260.4</ele>
        <time>2022-05-29T08:46:17Z</time>
      </trkpt>
      <trkpt lat="48.36642" lon="-3.54118">
        <ele>258.9</ele>
        <time>2022-05-29T08:46:19Z</time>
      </trkpt>
      <trkpt lat="48.36642" lon="-3.54101">
        <ele>259</ele>
        <time>2022-05-29T08:46:20Z</time>
      </trkpt>
      <trkpt lat="48.36613" lon="-3.53997">
        <ele>261.3</ele>
        <time>2022-05-29T08:46:29Z</time>
      </trkpt>
      <trkpt lat="48.36613" lon="-3.53997">
        <ele>261.3</ele>
        <time>2022-05-29T08:47:38Z</time>
      </trkpt>
      <trkpt lat="48.3659" lon="-3.53936">
        <ele>263.3</ele>
        <time>2022-05-29T08:47:49Z</time>
      </trkpt>
      <trkpt lat="48.36588" lon="-3.53933">
        <ele>263.5</ele>
        <time>2022-05-29T08:47:51Z</time>
      </trkpt>
      <trkpt lat="48.36557" lon="-3.53874">
        <ele>265</ele>
        <time>2022-05-29T08:48:03Z</time>
      </trkpt>
      <trkpt lat="48.36544" lon="-3.5386">
        <ele>265.2</ele>
        <time>2022-05-29T08:48:06Z</time>
      </trkpt>
      <trkpt lat="48.36517" lon="-3.53832">
        <ele>263.4</ele>
        <time>2022-05-29T08:48:12Z</time>
      </trkpt>
      <trkpt lat="48.36485" lon="-3.53797">
        <ele>261.8</ele>
        <time>2022-05-29T08:48:17Z</time>
      </trkpt>
      <trkpt lat="48.36478" lon="-3.53791">
        <ele>261.3</ele>
        <time>2022-05-29T08:48:18Z</time>
      </trkpt>
      <trkpt lat="48.36441" lon="-3.53759">
        <ele>258.6</ele>
        <time>2022-05-29T08:48:23Z</time>
      </trkpt>
      <trkpt lat="48.36433" lon="-3.53753">
        <ele>258.1</ele>
        <time>2022-05-29T08:48:24Z</time>
      </trkpt>
      <trkpt lat="48.36388" lon="-3.53715">
        <ele>255.3</ele>
        <time>2022-05-29T08:48:29Z</time>
      </trkpt>
      <trkpt lat="48.36378" lon="-3.53707">
        <ele>254.4</ele>
        <time>2022-05-29T08:48:30Z</time>
      </trkpt>
      <trkpt lat="48.36342" lon="-3.5369">
        <ele>251.5</ele>
        <time>2022-05-29T08:48:33Z</time>
      </trkpt>
      <trkpt lat="48.36318" lon="-3.53686">
        <ele>249.4</ele>
        <time>2022-05-29T08:48:35Z</time>
      </trkpt>
      <trkpt lat="48.36292" lon="-3.53677">
        <ele>246.2</ele>
        <time>2022-05-29T08:48:37Z</time>
      </trkpt>
      <trkpt lat="48.36264" lon="-3.5367">
        <ele>243.1</ele>
        <time>2022-05-29T08:48:39Z</time>
      </trkpt>
      <trkpt lat="48.36236" lon="-3.53655">
        <ele>240.1</ele>
        <time>2022-05-29T08:48:41Z</time>
      </trkpt>
      <trkpt lat="48.36208" lon="-3.5364">
        <ele>237.1</ele>
        <time>2022-05-29T08:48:43Z</time>
      </trkpt>
      <trkpt lat="48.36163" lon="-3.5362">
        <ele>232.6</ele>
        <time>2022-05-29T08:48:46Z</time>
      </trkpt>
      <trkpt lat="48.36147" lon="-3.53616">
        <ele>231.1</ele>
        <time>2022-05-29T08:48:47Z</time>
      </trkpt>
      <trkpt lat="48.36132" lon="-3.53615">
        <ele>229.6</ele>
        <time>2022-05-29T08:48:48Z</time>
      </trkpt>
      <trkpt lat="48.36084" lon="-3.53618">
        <ele>225</ele>
        <time>2022-05-29T08:48:51Z</time>
      </trkpt>
      <trkpt lat="48.36053" lon="-3.53621">
        <ele>222.1</ele>
        <time>2022-05-29T08:48:53Z</time>
      </trkpt>
      <trkpt lat="48.36038" lon="-3.53625">
        <ele>220.8</ele>
        <time>2022-05-29T08:48:54Z</time>
      </trkpt>
      <trkpt lat="48.35993" lon="-3.53641">
        <ele>217</ele>
        <time>2022-05-29T08:48:57Z</time>
      </trkpt>
      <trkpt lat="48.35963" lon="-3.5365">
        <ele>214.6</ele>
        <time>2022-05-29T08:48:59Z</time>
      </trkpt>
      <trkpt lat="48.35949" lon="-3.53653">
        <ele>213.8</ele>
        <time>2022-05-29T08:49:00Z</time>
      </trkpt>
      <trkpt lat="48.35893" lon="-3.5366">
        <ele>210.7</ele>
        <time>2022-05-29T08:49:04Z</time>
      </trkpt>
      <trkpt lat="48.3588" lon="-3.53662">
        <ele>210.2</ele>
        <time>2022-05-29T08:49:05Z</time>
      </trkpt>
      <trkpt lat="48.35842" lon="-3.53667">
        <ele>210.1</ele>
        <time>2022-05-29T08:49:08Z</time>
      </trkpt>
      <trkpt lat="48.35797" lon="-3.53678">
        <ele>209.9</ele>
        <time>2022-05-29T08:49:12Z</time>
      </trkpt>
      <trkpt lat="48.35755" lon="-3.53684">
        <ele>209.9</ele>
        <time>2022-05-29T08:49:17Z</time>
      </trkpt>
      <trkpt lat="48.35721" lon="-3.53692">
        <ele>212.4</ele>
        <time>2022-05-29T08:49:23Z</time>
      </trkpt>
      <trkpt lat="48.35709" lon="-3.53694">
        <ele>212.4</ele>
        <time>2022-05-29T08:49:25Z</time>
      </trkpt>
      <trkpt lat="48.35661" lon="-3.53694">
        <ele>212.3</ele>
        <time>2022-05-29T08:49:32Z</time>
      </trkpt>
      <trkpt lat="48.35639" lon="-3.53694">
        <ele>212.1</ele>
        <time>2022-05-29T08:49:35Z</time>
      </trkpt>
      <trkpt lat="48.35615" lon="-3.53694">
        <ele>210.9</ele>
        <time>2022-05-29T08:49:38Z</time>
      </trkpt>
      <trkpt lat="48.35588" lon="-3.53695">
        <ele>209.7</ele>
        <time>2022-05-29T08:49:41Z</time>
      </trkpt>
      <trkpt lat="48.35569" lon="-3.53696">
        <ele>209.1</ele>
        <time>2022-05-29T08:49:43Z</time>
      </trkpt>
      <trkpt lat="48.35519" lon="-3.53701">
        <ele>207.4</ele>
        <time>2022-05-29T08:49:48Z</time>
      </trkpt>
      <trkpt lat="48.35472" lon="-3.53705">
        <ele>205.9</ele>
        <time>2022-05-29T08:49:53Z</time>
      </trkpt>
      <trkpt lat="48.35426" lon="-3.53709">
        <ele>205.7</ele>
        <time>2022-05-29T08:49:58Z</time>
      </trkpt>
      <trkpt lat="48.35417" lon="-3.53709">
        <ele>205.8</ele>
        <time>2022-05-29T08:49:59Z</time>
      </trkpt>
      <trkpt lat="48.35409" lon="-3.5371">
        <ele>206</ele>
        <time>2022-05-29T08:50:00Z</time>
      </trkpt>
      <trkpt lat="48.35401" lon="-3.53713">
        <ele>206.2</ele>
        <time>2022-05-29T08:50:01Z</time>
      </trkpt>
      <trkpt lat="48.35373" lon="-3.53722">
        <ele>207</ele>
        <time>2022-05-29T08:50:05Z</time>
      </trkpt>
      <trkpt lat="48.35354" lon="-3.53729">
        <ele>207.8</ele>
        <time>2022-05-29T08:50:08Z</time>
      </trkpt>
      <trkpt lat="48.35346" lon="-3.53735">
        <ele>208.4</ele>
        <time>2022-05-29T08:50:10Z</time>
      </trkpt>
      <trkpt lat="48.35326" lon="-3.53747">
        <ele>210</ele>
        <time>2022-05-29T08:50:15Z</time>
      </trkpt>
      <trkpt lat="48.35311" lon="-3.53757">
        <ele>211.2</ele>
        <time>2022-05-29T08:50:19Z</time>
      </trkpt>
      <trkpt lat="48.35295" lon="-3.53771">
        <ele>212.7</ele>
        <time>2022-05-29T08:50:24Z</time>
      </trkpt>
      <trkpt lat="48.35288" lon="-3.5378">
        <ele>213.5</ele>
        <time>2022-05-29T08:50:27Z</time>
      </trkpt>
      <trkpt lat="48.35274" lon="-3.53797">
        <ele>214.7</ele>
        <time>2022-05-29T08:50:33Z</time>
      </trkpt>
      <trkpt lat="48.35259" lon="-3.53814">
        <ele>216</ele>
        <time>2022-05-29T08:50:39Z</time>
      </trkpt>
      <trkpt lat="48.35222" lon="-3.53839">
        <ele>218.6</ele>
        <time>2022-05-29T08:50:51Z</time>
      </trkpt>
      <trkpt lat="48.35216" lon="-3.53842">
        <ele>219.1</ele>
        <time>2022-05-29T08:50:53Z</time>
      </trkpt>
      <trkpt lat="48.3517" lon="-3.53865">
        <ele>222.5</ele>
        <time>2022-05-29T08:51:07Z</time>
      </trkpt>
      <trkpt lat="48.35164" lon="-3.53868">
        <ele>222.9</ele>
        <time>2022-05-29T08:51:09Z</time>
      </trkpt>
      <trkpt lat="48.35128" lon="-3.53886">
        <ele>225</ele>
        <time>2022-05-29T08:51:21Z</time>
      </trkpt>
      <trkpt lat="48.35113" lon="-3.53896">
        <ele>226.1</ele>
        <time>2022-05-29T08:51:27Z</time>
      </trkpt>
      <trkpt lat="48.35086" lon="-3.53914">
        <ele>227.7</ele>
        <time>2022-05-29T08:51:38Z</time>
      </trkpt>
      <trkpt lat="48.3507" lon="-3.53929">
        <ele>228.8</ele>
        <time>2022-05-29T08:51:45Z</time>
      </trkpt>
      <trkpt lat="48.35056" lon="-3.53941">
        <ele>229.6</ele>
        <time>2022-05-29T08:51:51Z</time>
      </trkpt>
      <trkpt lat="48.35047" lon="-3.53949">
        <ele>230.4</ele>
        <time>2022-05-29T08:51:55Z</time>
      </trkpt>
      <trkpt lat="48.35018" lon="-3.53982">
        <ele>233.3</ele>
        <time>2022-05-29T08:52:09Z</time>
      </trkpt>
      <trkpt lat="48.35009" lon="-3.53991">
        <ele>234.2</ele>
        <time>2022-05-29T08:52:13Z</time>
      </trkpt>
      <trkpt lat="48.34971" lon="-3.54022">
        <ele>236.9</ele>
        <time>2022-05-29T08:52:25Z</time>
      </trkpt>
      <trkpt lat="48.34968" lon="-3.54025">
        <ele>237.1</ele>
        <time>2022-05-29T08:52:26Z</time>
      </trkpt>
      <trkpt lat="48.34929" lon="-3.54062">
        <ele>240.4</ele>
        <time>2022-05-29T08:52:42Z</time>
      </trkpt>
      <trkpt lat="48.34925" lon="-3.54064">
        <ele>240.6</ele>
        <time>2022-05-29T08:52:43Z</time>
      </trkpt>
      <trkpt lat="48.34884" lon="-3.54094">
        <ele>242.8</ele>
        <time>2022-05-29T08:52:55Z</time>
      </trkpt>
      <trkpt lat="48.34865" lon="-3.54106">
        <ele>244</ele>
        <time>2022-05-29T08:53:01Z</time>
      </trkpt>
      <trkpt lat="48.34843" lon="-3.5412">
        <ele>245.4</ele>
        <time>2022-05-29T08:53:08Z</time>
      </trkpt>
      <trkpt lat="48.3481" lon="-3.54134">
        <ele>247.6</ele>
        <time>2022-05-29T08:53:19Z</time>
      </trkpt>
      <trkpt lat="48.34798" lon="-3.54138">
        <ele>248.7</ele>
        <time>2022-05-29T08:53:23Z</time>
      </trkpt>
      <trkpt lat="48.34774" lon="-3.54144">
        <ele>250.7</ele>
        <time>2022-05-29T08:53:31Z</time>
      </trkpt>
      <trkpt lat="48.34753" lon="-3.5415">
        <ele>252.3</ele>
        <time>2022-05-29T08:53:38Z</time>
      </trkpt>
      <trkpt lat="48.34736" lon="-3.54156">
        <ele>253.4</ele>
        <time>2022-05-29T08:53:43Z</time>
      </trkpt>
      <trkpt lat="48.34705" lon="-3.54166">
        <ele>253.8</ele>
        <time>2022-05-29T08:53:52Z</time>
      </trkpt>
      <trkpt lat="48.34691" lon="-3.54167">
        <ele>253.9</ele>
        <time>2022-05-29T08:53:55Z</time>
      </trkpt>
      <trkpt lat="48.34643" lon="-3.54182">
        <ele>253.4</ele>
        <time>2022-05-29T08:54:00Z</time>
      </trkpt>
      <trkpt lat="48.34612" lon="-3.54188">
        <ele>252.8</ele>
        <time>2022-05-29T08:54:06Z</time>
      </trkpt>
      <trkpt lat="48.34604" lon="-3.54188">
        <ele>252.7</ele>
        <time>2022-05-29T08:54:07Z</time>
      </trkpt>
      <trkpt lat="48.3456" lon="-3.54203">
        <ele>252.1</ele>
        <time>2022-05-29T08:54:13Z</time>
      </trkpt>
      <trkpt lat="48.34521" lon="-3.54216">
        <ele>251.5</ele>
        <time>2022-05-29T08:54:18Z</time>
      </trkpt>
      <trkpt lat="48.34513" lon="-3.54219">
        <ele>251.2</ele>
        <time>2022-05-29T08:54:19Z</time>
      </trkpt>
      <trkpt lat="48.34477" lon="-3.54229">
        <ele>250</ele>
        <time>2022-05-29T08:54:23Z</time>
      </trkpt>
      <trkpt lat="48.34469" lon="-3.54231">
        <ele>249.8</ele>
        <time>2022-05-29T08:54:24Z</time>
      </trkpt>
      <trkpt lat="48.34455" lon="-3.54234">
        <ele>249.5</ele>
        <time>2022-05-29T08:54:26Z</time>
      </trkpt>
      <trkpt lat="48.34429" lon="-3.54246">
        <ele>249</ele>
        <time>2022-05-29T08:54:29Z</time>
      </trkpt>
      <trkpt lat="48.34404" lon="-3.54256">
        <ele>248.8</ele>
        <time>2022-05-29T08:54:32Z</time>
      </trkpt>
      <trkpt lat="48.34388" lon="-3.54261">
        <ele>248.7</ele>
        <time>2022-05-29T08:54:34Z</time>
      </trkpt>
      <trkpt lat="48.3438" lon="-3.54264">
        <ele>248.9</ele>
        <time>2022-05-29T08:54:35Z</time>
      </trkpt>
      <trkpt lat="48.34364" lon="-3.54269">
        <ele>249.2</ele>
        <time>2022-05-29T08:54:37Z</time>
      </trkpt>
      <trkpt lat="48.34349" lon="-3.5427">
        <ele>249.5</ele>
        <time>2022-05-29T08:54:39Z</time>
      </trkpt>
      <trkpt lat="48.34341" lon="-3.5427">
        <ele>249.6</ele>
        <time>2022-05-29T08:54:40Z</time>
      </trkpt>
      <trkpt lat="48.34293" lon="-3.54249">
        <ele>250.6</ele>
        <time>2022-05-29T08:54:47Z</time>
      </trkpt>
      <trkpt lat="48.34267" lon="-3.54234">
        <ele>251.4</ele>
        <time>2022-05-29T08:54:52Z</time>
      </trkpt>
      <trkpt lat="48.34251" lon="-3.54225">
        <ele>252.2</ele>
        <time>2022-05-29T08:54:55Z</time>
      </trkpt>
      <trkpt lat="48.34242" lon="-3.54219">
        <ele>252.7</ele>
        <time>2022-05-29T08:54:57Z</time>
      </trkpt>
      <trkpt lat="48.34238" lon="-3.54217">
        <ele>253</ele>
        <time>2022-05-29T08:54:58Z</time>
      </trkpt>
      <trkpt lat="48.34211" lon="-3.542">
        <ele>254.3</ele>
        <time>2022-05-29T08:55:04Z</time>
      </trkpt>
      <trkpt lat="48.34207" lon="-3.54198">
        <ele>254.6</ele>
        <time>2022-05-29T08:55:05Z</time>
      </trkpt>
      <trkpt lat="48.34186" lon="-3.54185">
        <ele>256</ele>
        <time>2022-05-29T08:55:10Z</time>
      </trkpt>
      <trkpt lat="48.34162" lon="-3.5417">
        <ele>256.9</ele>
        <time>2022-05-29T08:55:16Z</time>
      </trkpt>
      <trkpt lat="48.3412" lon="-3.54143">
        <ele>258.1</ele>
        <time>2022-05-29T08:55:26Z</time>
      </trkpt>
      <trkpt lat="48.3408" lon="-3.54115">
        <ele>258.9</ele>
        <time>2022-05-29T08:55:34Z</time>
      </trkpt>
      <trkpt lat="48.34074" lon="-3.54111">
        <ele>258.8</ele>
        <time>2022-05-29T08:55:35Z</time>
      </trkpt>
      <trkpt lat="48.34031" lon="-3.54087">
        <ele>257.8</ele>
        <time>2022-05-29T08:55:42Z</time>
      </trkpt>
      <trkpt lat="48.34001" lon="-3.54072">
        <ele>257.1</ele>
        <time>2022-05-29T08:55:46Z</time>
      </trkpt>
      <trkpt lat="48.33986" lon="-3.54064">
        <ele>256.2</ele>
        <time>2022-05-29T08:55:48Z</time>
      </trkpt>
      <trkpt lat="48.3395" lon="-3.54051">
        <ele>254.2</ele>
        <time>2022-05-29T08:55:52Z</time>
      </trkpt>
      <trkpt lat="48.3394" lon="-3.54048">
        <ele>253.6</ele>
        <time>2022-05-29T08:55:53Z</time>
      </trkpt>
      <trkpt lat="48.33898" lon="-3.54031">
        <ele>251.1</ele>
        <time>2022-05-29T08:55:57Z</time>
      </trkpt>
      <trkpt lat="48.33887" lon="-3.54028">
        <ele>250.5</ele>
        <time>2022-05-29T08:55:58Z</time>
      </trkpt>
      <trkpt lat="48.33853" lon="-3.54018">
        <ele>249</ele>
        <time>2022-05-29T08:56:01Z</time>
      </trkpt>
      <trkpt lat="48.33819" lon="-3.54008">
        <ele>247.6</ele>
        <time>2022-05-29T08:56:04Z</time>
      </trkpt>
      <trkpt lat="48.33809" lon="-3.54005">
        <ele>247.4</ele>
        <time>2022-05-29T08:56:05Z</time>
      </trkpt>
      <trkpt lat="48.33757" lon="-3.53993">
        <ele>246.6</ele>
        <time>2022-05-29T08:56:10Z</time>
      </trkpt>
      <trkpt lat="48.33709" lon="-3.53983">
        <ele>245.7</ele>
        <time>2022-05-29T08:56:15Z</time>
      </trkpt>
      <trkpt lat="48.337" lon="-3.53982">
        <ele>245.7</ele>
        <time>2022-05-29T08:56:16Z</time>
      </trkpt>
      <trkpt lat="48.33673" lon="-3.5398">
        <ele>245.6</ele>
        <time>2022-05-29T08:56:19Z</time>
      </trkpt>
      <trkpt lat="48.3365" lon="-3.53998">
        <ele>245.7</ele>
        <time>2022-05-29T08:56:22Z</time>
      </trkpt>
      <trkpt lat="48.33628" lon="-3.54015">
        <ele>246.3</ele>
        <time>2022-05-29T08:56:25Z</time>
      </trkpt>
      <trkpt lat="48.33584" lon="-3.5405">
        <ele>247.7</ele>
        <time>2022-05-29T08:56:32Z</time>
      </trkpt>
      <trkpt lat="48.33578" lon="-3.54052">
        <ele>248</ele>
        <time>2022-05-29T08:56:33Z</time>
      </trkpt>
      <trkpt lat="48.33573" lon="-3.54055">
        <ele>248.3</ele>
        <time>2022-05-29T08:56:34Z</time>
      </trkpt>
      <trkpt lat="48.33562" lon="-3.54061">
        <ele>249</ele>
        <time>2022-05-29T08:56:36Z</time>
      </trkpt>
      <trkpt lat="48.33547" lon="-3.54065">
        <ele>250</ele>
        <time>2022-05-29T08:56:39Z</time>
      </trkpt>
      <trkpt lat="48.33515" lon="-3.54072">
        <ele>250.9</ele>
        <time>2022-05-29T08:56:45Z</time>
      </trkpt>
      <trkpt lat="48.33485" lon="-3.5408">
        <ele>251.6</ele>
        <time>2022-05-29T08:56:50Z</time>
      </trkpt>
      <trkpt lat="48.33465" lon="-3.54085">
        <ele>251</ele>
        <time>2022-05-29T08:56:53Z</time>
      </trkpt>
      <trkpt lat="48.3344" lon="-3.54091">
        <ele>250.2</ele>
        <time>2022-05-29T08:56:56Z</time>
      </trkpt>
      <trkpt lat="48.33414" lon="-3.54098">
        <ele>248.1</ele>
        <time>2022-05-29T08:56:59Z</time>
      </trkpt>
      <trkpt lat="48.33383" lon="-3.54108">
        <ele>246.2</ele>
        <time>2022-05-29T08:57:02Z</time>
      </trkpt>
      <trkpt lat="48.33363" lon="-3.54115">
        <ele>245.2</ele>
        <time>2022-05-29T08:57:04Z</time>
      </trkpt>
      <trkpt lat="48.33309" lon="-3.54127">
        <ele>242.9</ele>
        <time>2022-05-29T08:57:09Z</time>
      </trkpt>
      <trkpt lat="48.3326" lon="-3.54132">
        <ele>240.8</ele>
        <time>2022-05-29T08:57:14Z</time>
      </trkpt>
      <trkpt lat="48.33251" lon="-3.54134">
        <ele>240.7</ele>
        <time>2022-05-29T08:57:15Z</time>
      </trkpt>
      <trkpt lat="48.33219" lon="-3.54159">
        <ele>240.5</ele>
        <time>2022-05-29T08:57:19Z</time>
      </trkpt>
      <trkpt lat="48.33213" lon="-3.54172">
        <ele>240.5</ele>
        <time>2022-05-29T08:57:20Z</time>
      </trkpt>
      <trkpt lat="48.33179" lon="-3.54188">
        <ele>240.2</ele>
        <time>2022-05-29T08:57:24Z</time>
      </trkpt>
      <trkpt lat="48.33163" lon="-3.54188">
        <ele>240.1</ele>
        <time>2022-05-29T08:57:26Z</time>
      </trkpt>
      <trkpt lat="48.33132" lon="-3.54186">
        <ele>240</ele>
        <time>2022-05-29T08:57:30Z</time>
      </trkpt>
      <trkpt lat="48.33096" lon="-3.54183">
        <ele>239.8</ele>
        <time>2022-05-29T08:57:35Z</time>
      </trkpt>
      <trkpt lat="48.33045" lon="-3.54195">
        <ele>239.5</ele>
        <time>2022-05-29T08:57:42Z</time>
      </trkpt>
      <trkpt lat="48.33" lon="-3.5421">
        <ele>239.2</ele>
        <time>2022-05-29T08:57:48Z</time>
      </trkpt>
      <trkpt lat="48.32955" lon="-3.54221">
        <ele>239</ele>
        <time>2022-05-29T08:57:54Z</time>
      </trkpt>
      <trkpt lat="48.32905" lon="-3.54237">
        <ele>238.7</ele>
        <time>2022-05-29T08:58:01Z</time>
      </trkpt>
      <trkpt lat="48.32855" lon="-3.54261">
        <ele>238.4</ele>
        <time>2022-05-29T08:58:08Z</time>
      </trkpt>
      <trkpt lat="48.32813" lon="-3.54282">
        <ele>238.3</ele>
        <time>2022-05-29T08:58:13Z</time>
      </trkpt>
      <trkpt lat="48.32805" lon="-3.54289">
        <ele>238.2</ele>
        <time>2022-05-29T08:58:14Z</time>
      </trkpt>
      <trkpt lat="48.32773" lon="-3.54317">
        <ele>237.9</ele>
        <time>2022-05-29T08:58:18Z</time>
      </trkpt>
      <trkpt lat="48.32757" lon="-3.5433">
        <ele>237.8</ele>
        <time>2022-05-29T08:58:20Z</time>
      </trkpt>
      <trkpt lat="48.32732" lon="-3.54349">
        <ele>238</ele>
        <time>2022-05-29T08:58:23Z</time>
      </trkpt>
      <trkpt lat="48.32715" lon="-3.54361">
        <ele>238.1</ele>
        <time>2022-05-29T08:58:25Z</time>
      </trkpt>
      <trkpt lat="48.32682" lon="-3.54373">
        <ele>238.4</ele>
        <time>2022-05-29T08:58:29Z</time>
      </trkpt>
      <trkpt lat="48.32635" lon="-3.5438">
        <ele>238.8</ele>
        <time>2022-05-29T08:58:35Z</time>
      </trkpt>
      <trkpt lat="48.32584" lon="-3.54373">
        <ele>239.3</ele>
        <time>2022-05-29T08:58:43Z</time>
      </trkpt>
      <trkpt lat="48.32535" lon="-3.54366">
        <ele>239.4</ele>
        <time>2022-05-29T08:58:50Z</time>
      </trkpt>
      <trkpt lat="48.32495" lon="-3.54355">
        <ele>239.3</ele>
        <time>2022-05-29T08:58:55Z</time>
      </trkpt>
      <trkpt lat="48.32487" lon="-3.54353">
        <ele>239.2</ele>
        <time>2022-05-29T08:58:56Z</time>
      </trkpt>
      <trkpt lat="48.32436" lon="-3.54331">
        <ele>238.5</ele>
        <time>2022-05-29T08:59:02Z</time>
      </trkpt>
      <trkpt lat="48.32404" lon="-3.5432">
        <ele>238</ele>
        <time>2022-05-29T08:59:06Z</time>
      </trkpt>
      <trkpt lat="48.32394" lon="-3.54325">
        <ele>237.9</ele>
        <time>2022-05-29T08:59:07Z</time>
      </trkpt>
      <trkpt lat="48.32349" lon="-3.54311">
        <ele>237.2</ele>
        <time>2022-05-29T08:59:13Z</time>
      </trkpt>
      <trkpt lat="48.32299" lon="-3.54304">
        <ele>236.4</ele>
        <time>2022-05-29T08:59:19Z</time>
      </trkpt>
      <trkpt lat="48.32253" lon="-3.5429">
        <ele>235.8</ele>
        <time>2022-05-29T08:59:24Z</time>
      </trkpt>
      <trkpt lat="48.32243" lon="-3.54284">
        <ele>235.5</ele>
        <time>2022-05-29T08:59:25Z</time>
      </trkpt>
      <trkpt lat="48.32202" lon="-3.54259">
        <ele>233.7</ele>
        <time>2022-05-29T08:59:29Z</time>
      </trkpt>
      <trkpt lat="48.32182" lon="-3.54246">
        <ele>232.7</ele>
        <time>2022-05-29T08:59:31Z</time>
      </trkpt>
      <trkpt lat="48.32152" lon="-3.54225">
        <ele>231.1</ele>
        <time>2022-05-29T08:59:34Z</time>
      </trkpt>
      <trkpt lat="48.32121" lon="-3.54205">
        <ele>229.6</ele>
        <time>2022-05-29T08:59:37Z</time>
      </trkpt>
      <trkpt lat="48.3209" lon="-3.54192">
        <ele>229.2</ele>
        <time>2022-05-29T08:59:40Z</time>
      </trkpt>
      <trkpt lat="48.32044" lon="-3.54181">
        <ele>228.5</ele>
        <time>2022-05-29T08:59:45Z</time>
      </trkpt>
      <trkpt lat="48.32011" lon="-3.5418">
        <ele>228.2</ele>
        <time>2022-05-29T08:59:49Z</time>
      </trkpt>
      <trkpt lat="48.31996" lon="-3.54178">
        <ele>228.7</ele>
        <time>2022-05-29T08:59:51Z</time>
      </trkpt>
      <trkpt lat="48.31983" lon="-3.54176">
        <ele>229.2</ele>
        <time>2022-05-29T08:59:53Z</time>
      </trkpt>
      <trkpt lat="48.31971" lon="-3.54175">
        <ele>229.7</ele>
        <time>2022-05-29T08:59:55Z</time>
      </trkpt>
      <trkpt lat="48.31938" lon="-3.54173">
        <ele>231.5</ele>
        <time>2022-05-29T09:00:01Z</time>
      </trkpt>
      <trkpt lat="48.3193" lon="-3.54175">
        <ele>232.3</ele>
        <time>2022-05-29T09:00:03Z</time>
      </trkpt>
      <trkpt lat="48.31923" lon="-3.54186">
        <ele>233.1</ele>
        <time>2022-05-29T09:00:05Z</time>
      </trkpt>
      <trkpt lat="48.31895" lon="-3.54198">
        <ele>236.2</ele>
        <time>2022-05-29T09:00:13Z</time>
      </trkpt>
      <trkpt lat="48.31891" lon="-3.542">
        <ele>236.5</ele>
        <time>2022-05-29T09:00:14Z</time>
      </trkpt>
      <trkpt lat="48.31887" lon="-3.54203">
        <ele>236.7</ele>
        <time>2022-05-29T09:00:15Z</time>
      </trkpt>
      <trkpt lat="48.31874" lon="-3.54207">
        <ele>237.5</ele>
        <time>2022-05-29T09:00:18Z</time>
      </trkpt>
      <trkpt lat="48.31848" lon="-3.54221">
        <ele>239.3</ele>
        <time>2022-05-29T09:00:25Z</time>
      </trkpt>
      <trkpt lat="48.31829" lon="-3.5423">
        <ele>240.4</ele>
        <time>2022-05-29T09:00:30Z</time>
      </trkpt>
      <trkpt lat="48.31825" lon="-3.54231">
        <ele>240.6</ele>
        <time>2022-05-29T09:00:31Z</time>
      </trkpt>
      <trkpt lat="48.31782" lon="-3.54239">
        <ele>242.2</ele>
        <time>2022-05-29T09:00:41Z</time>
      </trkpt>
      <trkpt lat="48.31734" lon="-3.54235">
        <ele>243.8</ele>
        <time>2022-05-29T09:00:51Z</time>
      </trkpt>
      <trkpt lat="48.31724" lon="-3.54233">
        <ele>244.1</ele>
        <time>2022-05-29T09:00:53Z</time>
      </trkpt>
      <trkpt lat="48.31714" lon="-3.54231">
        <ele>244.2</ele>
        <time>2022-05-29T09:00:55Z</time>
      </trkpt>
      <trkpt lat="48.31695" lon="-3.54227">
        <ele>244.5</ele>
        <time>2022-05-29T09:00:59Z</time>
      </trkpt>
      <trkpt lat="48.31667" lon="-3.54221">
        <ele>245.5</ele>
        <time>2022-05-29T09:01:05Z</time>
      </trkpt>
      <trkpt lat="48.31638" lon="-3.54216">
        <ele>246.4</ele>
        <time>2022-05-29T09:01:11Z</time>
      </trkpt>
      <trkpt lat="48.31618" lon="-3.54213">
        <ele>246.4</ele>
        <time>2022-05-29T09:01:15Z</time>
      </trkpt>
      <trkpt lat="48.31569" lon="-3.54203">
        <ele>246.5</ele>
        <time>2022-05-29T09:01:23Z</time>
      </trkpt>
      <trkpt lat="48.31526" lon="-3.54191">
        <ele>244.9</ele>
        <time>2022-05-29T09:01:29Z</time>
      </trkpt>
      <trkpt lat="48.31518" lon="-3.54189">
        <ele>244.6</ele>
        <time>2022-05-29T09:01:30Z</time>
      </trkpt>
      <trkpt lat="48.31468" lon="-3.54173">
        <ele>242.5</ele>
        <time>2022-05-29T09:01:36Z</time>
      </trkpt>
      <trkpt lat="48.31451" lon="-3.5417">
        <ele>241.9</ele>
        <time>2022-05-29T09:01:38Z</time>
      </trkpt>
      <trkpt lat="48.31441" lon="-3.54171">
        <ele>241.5</ele>
        <time>2022-05-29T09:01:39Z</time>
      </trkpt>
      <trkpt lat="48.31422" lon="-3.54162">
        <ele>240.7</ele>
        <time>2022-05-29T09:01:41Z</time>
      </trkpt>
      <trkpt lat="48.31393" lon="-3.54149">
        <ele>238.5</ele>
        <time>2022-05-29T09:01:44Z</time>
      </trkpt>
      <trkpt lat="48.31374" lon="-3.54142">
        <ele>237</ele>
        <time>2022-05-29T09:01:46Z</time>
      </trkpt>
      <trkpt lat="48.31318" lon="-3.54139">
        <ele>233.4</ele>
        <time>2022-05-29T09:01:51Z</time>
      </trkpt>
      <trkpt lat="48.31291" lon="-3.54135">
        <ele>231.9</ele>
        <time>2022-05-29T09:01:53Z</time>
      </trkpt>
      <trkpt lat="48.31265" lon="-3.54131">
        <ele>230.1</ele>
        <time>2022-05-29T09:01:55Z</time>
      </trkpt>
      <trkpt lat="48.31212" lon="-3.5412">
        <ele>226.9</ele>
        <time>2022-05-29T09:01:59Z</time>
      </trkpt>
      <trkpt lat="48.31164" lon="-3.54114">
        <ele>224.8</ele>
        <time>2022-05-29T09:02:03Z</time>
      </trkpt>
      <trkpt lat="48.31142" lon="-3.54118">
        <ele>223.8</ele>
        <time>2022-05-29T09:02:05Z</time>
      </trkpt>
      <trkpt lat="48.31112" lon="-3.54141">
        <ele>222.3</ele>
        <time>2022-05-29T09:02:08Z</time>
      </trkpt>
      <trkpt lat="48.31083" lon="-3.54172">
        <ele>220.7</ele>
        <time>2022-05-29T09:02:11Z</time>
      </trkpt>
      <trkpt lat="48.31073" lon="-3.54182">
        <ele>219.9</ele>
        <time>2022-05-29T09:02:12Z</time>
      </trkpt>
      <trkpt lat="48.31033" lon="-3.54223">
        <ele>216.8</ele>
        <time>2022-05-29T09:02:16Z</time>
      </trkpt>
      <trkpt lat="48.31023" lon="-3.54233">
        <ele>216.2</ele>
        <time>2022-05-29T09:02:17Z</time>
      </trkpt>
      <trkpt lat="48.30992" lon="-3.54263">
        <ele>214.6</ele>
        <time>2022-05-29T09:02:20Z</time>
      </trkpt>
      <trkpt lat="48.30961" lon="-3.54293">
        <ele>213.1</ele>
        <time>2022-05-29T09:02:23Z</time>
      </trkpt>
      <trkpt lat="48.30951" lon="-3.54304">
        <ele>212.8</ele>
        <time>2022-05-29T09:02:24Z</time>
      </trkpt>
      <trkpt lat="48.3091" lon="-3.54345">
        <ele>211.5</ele>
        <time>2022-05-29T09:02:28Z</time>
      </trkpt>
      <trkpt lat="48.30871" lon="-3.54383">
        <ele>210.3</ele>
        <time>2022-05-29T09:02:32Z</time>
      </trkpt>
      <trkpt lat="48.30842" lon="-3.54412">
        <ele>209.5</ele>
        <time>2022-05-29T09:02:35Z</time>
      </trkpt>
      <trkpt lat="48.30833" lon="-3.54421">
        <ele>209.4</ele>
        <time>2022-05-29T09:02:36Z</time>
      </trkpt>
      <trkpt lat="48.30789" lon="-3.54465">
        <ele>209</ele>
        <time>2022-05-29T09:02:41Z</time>
      </trkpt>
      <trkpt lat="48.30751" lon="-3.54504">
        <ele>209.3</ele>
        <time>2022-05-29T09:02:46Z</time>
      </trkpt>
      <trkpt lat="48.30744" lon="-3.54511">
        <ele>209.5</ele>
        <time>2022-05-29T09:02:47Z</time>
      </trkpt>
      <trkpt lat="48.30711" lon="-3.54544">
        <ele>210.6</ele>
        <time>2022-05-29T09:02:52Z</time>
      </trkpt>
      <trkpt lat="48.30705" lon="-3.5455">
        <ele>210.8</ele>
        <time>2022-05-29T09:02:53Z</time>
      </trkpt>
      <trkpt lat="48.30669" lon="-3.54588">
        <ele>212</ele>
        <time>2022-05-29T09:02:59Z</time>
      </trkpt>
      <trkpt lat="48.30629" lon="-3.54626">
        <ele>213.4</ele>
        <time>2022-05-29T09:03:06Z</time>
      </trkpt>
      <trkpt lat="48.30604" lon="-3.54651">
        <ele>214.3</ele>
        <time>2022-05-29T09:03:11Z</time>
      </trkpt>
      <trkpt lat="48.3059" lon="-3.54665">
        <ele>214.5</ele>
        <time>2022-05-29T09:03:14Z</time>
      </trkpt>
      <trkpt lat="48.30547" lon="-3.54707">
        <ele>215.2</ele>
        <time>2022-05-29T09:03:23Z</time>
      </trkpt>
      <trkpt lat="48.30509" lon="-3.54744">
        <ele>215.3</ele>
        <time>2022-05-29T09:03:29Z</time>
      </trkpt>
      <trkpt lat="48.30501" lon="-3.54752">
        <ele>214.6</ele>
        <time>2022-05-29T09:03:30Z</time>
      </trkpt>
      <trkpt lat="48.30454" lon="-3.54798">
        <ele>210.8</ele>
        <time>2022-05-29T09:03:35Z</time>
      </trkpt>
      <trkpt lat="48.30409" lon="-3.54842">
        <ele>205</ele>
        <time>2022-05-29T09:03:39Z</time>
      </trkpt>
      <trkpt lat="48.30383" lon="-3.54863">
        <ele>202</ele>
        <time>2022-05-29T09:03:41Z</time>
      </trkpt>
      <trkpt lat="48.30371" lon="-3.54875">
        <ele>200.6</ele>
        <time>2022-05-29T09:03:42Z</time>
      </trkpt>
      <trkpt lat="48.30346" lon="-3.54902">
        <ele>197.6</ele>
        <time>2022-05-29T09:03:44Z</time>
      </trkpt>
      <trkpt lat="48.30305" lon="-3.54942">
        <ele>193.3</ele>
        <time>2022-05-29T09:03:47Z</time>
      </trkpt>
      <trkpt lat="48.30267" lon="-3.54981">
        <ele>189.8</ele>
        <time>2022-05-29T09:03:50Z</time>
      </trkpt>
      <trkpt lat="48.30229" lon="-3.55018">
        <ele>186.4</ele>
        <time>2022-05-29T09:03:53Z</time>
      </trkpt>
      <trkpt lat="48.30182" lon="-3.55065">
        <ele>182.8</ele>
        <time>2022-05-29T09:03:57Z</time>
      </trkpt>
      <trkpt lat="48.3016" lon="-3.55088">
        <ele>181.1</ele>
        <time>2022-05-29T09:03:59Z</time>
      </trkpt>
      <trkpt lat="48.30137" lon="-3.55111">
        <ele>180.1</ele>
        <time>2022-05-29T09:04:01Z</time>
      </trkpt>
      <trkpt lat="48.30114" lon="-3.55132">
        <ele>179.1</ele>
        <time>2022-05-29T09:04:03Z</time>
      </trkpt>
      <trkpt lat="48.30094" lon="-3.55156">
        <ele>177.9</ele>
        <time>2022-05-29T09:04:05Z</time>
      </trkpt>
      <trkpt lat="48.30074" lon="-3.55178">
        <ele>176.1</ele>
        <time>2022-05-29T09:04:07Z</time>
      </trkpt>
      <trkpt lat="48.3004" lon="-3.55212">
        <ele>172.4</ele>
        <time>2022-05-29T09:04:11Z</time>
      </trkpt>
      <trkpt lat="48.30035" lon="-3.55218">
        <ele>171.4</ele>
        <time>2022-05-29T09:04:12Z</time>
      </trkpt>
      <trkpt lat="48.30024" lon="-3.55229">
        <ele>167</ele>
        <time>2022-05-29T09:04:17Z</time>
      </trkpt>
      <trkpt lat="48.3002" lon="-3.55229">
        <ele>166.9</ele>
        <time>2022-05-29T09:04:19Z</time>
      </trkpt>
      <trkpt lat="48.30003" lon="-3.55163">
        <ele>166.2</ele>
        <time>2022-05-29T09:04:28Z</time>
      </trkpt>
      <trkpt lat="48.30001" lon="-3.55155">
        <ele>166.2</ele>
        <time>2022-05-29T09:04:29Z</time>
      </trkpt>
      <trkpt lat="48.29991" lon="-3.55098">
        <ele>166.4</ele>
        <time>2022-05-29T09:04:36Z</time>
      </trkpt>
      <trkpt lat="48.29988" lon="-3.5507">
        <ele>166.5</ele>
        <time>2022-05-29T09:04:39Z</time>
      </trkpt>
      <trkpt lat="48.29976" lon="-3.54995">
        <ele>166.8</ele>
        <time>2022-05-29T09:04:47Z</time>
      </trkpt>
      <trkpt lat="48.29966" lon="-3.54928">
        <ele>167</ele>
        <time>2022-05-29T09:04:54Z</time>
      </trkpt>
      <trkpt lat="48.29954" lon="-3.54859">
        <ele>167.2</ele>
        <time>2022-05-29T09:05:01Z</time>
      </trkpt>
      <trkpt lat="48.29943" lon="-3.54787">
        <ele>167.4</ele>
        <time>2022-05-29T09:05:09Z</time>
      </trkpt>
      <trkpt lat="48.29932" lon="-3.54718">
        <ele>167.7</ele>
        <time>2022-05-29T09:05:17Z</time>
      </trkpt>
      <trkpt lat="48.29928" lon="-3.54705">
        <ele>167.8</ele>
        <time>2022-05-29T09:05:19Z</time>
      </trkpt>
      <trkpt lat="48.29916" lon="-3.54695">
        <ele>167.8</ele>
        <time>2022-05-29T09:05:22Z</time>
      </trkpt>
      <trkpt lat="48.29911" lon="-3.54696">
        <ele>167.9</ele>
        <time>2022-05-29T09:05:24Z</time>
      </trkpt>
      <trkpt lat="48.29902" lon="-3.54718">
        <ele>168</ele>
        <time>2022-05-29T09:05:26Z</time>
      </trkpt>
      <trkpt lat="48.29888" lon="-3.54789">
        <ele>168.2</ele>
        <time>2022-05-29T09:05:34Z</time>
      </trkpt>
      <trkpt lat="48.29877" lon="-3.54856">
        <ele>168.4</ele>
        <time>2022-05-29T09:05:41Z</time>
      </trkpt>
      <trkpt lat="48.29864" lon="-3.54922">
        <ele>168.7</ele>
        <time>2022-05-29T09:05:48Z</time>
      </trkpt>
      <trkpt lat="48.29851" lon="-3.54994">
        <ele>168.9</ele>
        <time>2022-05-29T09:05:56Z</time>
      </trkpt>
      <trkpt lat="48.29839" lon="-3.55034">
        <ele>169.1</ele>
        <time>2022-05-29T09:06:01Z</time>
      </trkpt>
      <trkpt lat="48.29832" lon="-3.55058">
        <ele>169.5</ele>
        <time>2022-05-29T09:06:04Z</time>
      </trkpt>
      <trkpt lat="48.2981" lon="-3.55117">
        <ele>170.6</ele>
        <time>2022-05-29T09:06:12Z</time>
      </trkpt>
      <trkpt lat="48.29788" lon="-3.55167">
        <ele>171.5</ele>
        <time>2022-05-29T09:06:19Z</time>
      </trkpt>
      <trkpt lat="48.29785" lon="-3.55174">
        <ele>171.7</ele>
        <time>2022-05-29T09:06:20Z</time>
      </trkpt>
      <trkpt lat="48.29758" lon="-3.55232">
        <ele>173.1</ele>
        <time>2022-05-29T09:06:29Z</time>
      </trkpt>
      <trkpt lat="48.29752" lon="-3.55244">
        <ele>173.4</ele>
        <time>2022-05-29T09:06:31Z</time>
      </trkpt>
      <trkpt lat="48.29728" lon="-3.55288">
        <ele>174.3</ele>
        <time>2022-05-29T09:06:38Z</time>
      </trkpt>
      <trkpt lat="48.2969" lon="-3.55331">
        <ele>175.6</ele>
        <time>2022-05-29T09:06:47Z</time>
      </trkpt>
      <trkpt lat="48.29656" lon="-3.55356">
        <ele>176.4</ele>
        <time>2022-05-29T09:06:54Z</time>
      </trkpt>
      <trkpt lat="48.29646" lon="-3.55363">
        <ele>176.3</ele>
        <time>2022-05-29T09:06:56Z</time>
      </trkpt>
      <trkpt lat="48.29601" lon="-3.55388">
        <ele>175.7</ele>
        <time>2022-05-29T09:07:04Z</time>
      </trkpt>
      <trkpt lat="48.29555" lon="-3.55411">
        <ele>175.2</ele>
        <time>2022-05-29T09:07:12Z</time>
      </trkpt>
      <trkpt lat="48.29507" lon="-3.55436">
        <ele>174.7</ele>
        <time>2022-05-29T09:07:19Z</time>
      </trkpt>
      <trkpt lat="48.29477" lon="-3.5545">
        <ele>174.4</ele>
        <time>2022-05-29T09:07:23Z</time>
      </trkpt>
      <trkpt lat="48.29463" lon="-3.55457">
        <ele>174.2</ele>
        <time>2022-05-29T09:07:25Z</time>
      </trkpt>
      <trkpt lat="48.29415" lon="-3.5548">
        <ele>173.5</ele>
        <time>2022-05-29T09:07:32Z</time>
      </trkpt>
      <trkpt lat="48.29366" lon="-3.55505">
        <ele>172.8</ele>
        <time>2022-05-29T09:07:39Z</time>
      </trkpt>
      <trkpt lat="48.2932" lon="-3.55529">
        <ele>172.1</ele>
        <time>2022-05-29T09:07:46Z</time>
      </trkpt>
      <trkpt lat="48.29314" lon="-3.55533">
        <ele>172.2</ele>
        <time>2022-05-29T09:07:47Z</time>
      </trkpt>
      <trkpt lat="48.29298" lon="-3.55547">
        <ele>172.6</ele>
        <time>2022-05-29T09:07:50Z</time>
      </trkpt>
      <trkpt lat="48.29278" lon="-3.55581">
        <ele>173.4</ele>
        <time>2022-05-29T09:07:55Z</time>
      </trkpt>
      <trkpt lat="48.29264" lon="-3.55585">
        <ele>173.7</ele>
        <time>2022-05-29T09:07:57Z</time>
      </trkpt>
      <trkpt lat="48.29247" lon="-3.55574">
        <ele>174</ele>
        <time>2022-05-29T09:07:59Z</time>
      </trkpt>
      <trkpt lat="48.29239" lon="-3.55572">
        <ele>173.9</ele>
        <time>2022-05-29T09:08:00Z</time>
      </trkpt>
      <trkpt lat="48.29227" lon="-3.55573">
        <ele>173.8</ele>
        <time>2022-05-29T09:08:02Z</time>
      </trkpt>
      <trkpt lat="48.29223" lon="-3.55565">
        <ele>173.8</ele>
        <time>2022-05-29T09:08:04Z</time>
      </trkpt>
      <trkpt lat="48.29224" lon="-3.55548">
        <ele>173.7</ele>
        <time>2022-05-29T09:08:05Z</time>
      </trkpt>
      <trkpt lat="48.29228" lon="-3.55527">
        <ele>173.7</ele>
        <time>2022-05-29T09:08:06Z</time>
      </trkpt>
      <trkpt lat="48.29246" lon="-3.55513">
        <ele>173.6</ele>
        <time>2022-05-29T09:08:08Z</time>
      </trkpt>
      <trkpt lat="48.29255" lon="-3.55512">
        <ele>173.5</ele>
        <time>2022-05-29T09:08:09Z</time>
      </trkpt>
      <trkpt lat="48.29261" lon="-3.55507">
        <ele>173.5</ele>
        <time>2022-05-29T09:08:11Z</time>
      </trkpt>
      <trkpt lat="48.29264" lon="-3.55509">
        <ele>173.6</ele>
        <time>2022-05-29T09:08:12Z</time>
      </trkpt>
      <trkpt lat="48.29263" lon="-3.55466">
        <ele>174</ele>
        <time>2022-05-29T09:08:16Z</time>
      </trkpt>
      <trkpt lat="48.29247" lon="-3.55427">
        <ele>174.1</ele>
        <time>2022-05-29T09:08:17Z</time>
      </trkpt>
      <trkpt lat="48.29229" lon="-3.55358">
        <ele>174.9</ele>
        <time>2022-05-29T09:08:25Z</time>
      </trkpt>
      <trkpt lat="48.29216" lon="-3.55291">
        <ele>175.8</ele>
        <time>2022-05-29T09:08:34Z</time>
      </trkpt>
      <trkpt lat="48.29215" lon="-3.55285">
        <ele>176</ele>
        <time>2022-05-29T09:08:35Z</time>
      </trkpt>
      <trkpt lat="48.29199" lon="-3.55223">
        <ele>178.7</ele>
        <time>2022-05-29T09:08:45Z</time>
      </trkpt>
      <trkpt lat="48.29196" lon="-3.55213">
        <ele>179.2</ele>
        <time>2022-05-29T09:08:47Z</time>
      </trkpt>
      <trkpt lat="48.29189" lon="-3.55182">
        <ele>180.4</ele>
        <time>2022-05-29T09:08:53Z</time>
      </trkpt>
      <trkpt lat="48.29185" lon="-3.55166">
        <ele>181.2</ele>
        <time>2022-05-29T09:08:56Z</time>
      </trkpt>
      <trkpt lat="48.2918" lon="-3.55118">
        <ele>183.5</ele>
        <time>2022-05-29T09:09:05Z</time>
      </trkpt>
      <trkpt lat="48.29177" lon="-3.55097">
        <ele>184.5</ele>
        <time>2022-05-29T09:09:09Z</time>
      </trkpt>
      <trkpt lat="48.2917" lon="-3.5506">
        <ele>186.7</ele>
        <time>2022-05-29T09:09:17Z</time>
      </trkpt>
      <trkpt lat="48.29164" lon="-3.55028">
        <ele>188.3</ele>
        <time>2022-05-29T09:09:24Z</time>
      </trkpt>
      <trkpt lat="48.2916" lon="-3.55006">
        <ele>189.5</ele>
        <time>2022-05-29T09:09:29Z</time>
      </trkpt>
      <trkpt lat="48.29152" lon="-3.54962">
        <ele>191.8</ele>
        <time>2022-05-29T09:09:39Z</time>
      </trkpt>
      <trkpt lat="48.29144" lon="-3.54927">
        <ele>193.7</ele>
        <time>2022-05-29T09:09:47Z</time>
      </trkpt>
      <trkpt lat="48.29139" lon="-3.54901">
        <ele>195.4</ele>
        <time>2022-05-29T09:09:53Z</time>
      </trkpt>
      <trkpt lat="48.29138" lon="-3.54897">
        <ele>195.6</ele>
        <time>2022-05-29T09:09:54Z</time>
      </trkpt>
      <trkpt lat="48.29134" lon="-3.54875">
        <ele>196.7</ele>
        <time>2022-05-29T09:09:59Z</time>
      </trkpt>
      <trkpt lat="48.29126" lon="-3.54831">
        <ele>198.9</ele>
        <time>2022-05-29T09:10:09Z</time>
      </trkpt>
      <trkpt lat="48.29119" lon="-3.54799">
        <ele>200.7</ele>
        <time>2022-05-29T09:10:17Z</time>
      </trkpt>
      <trkpt lat="48.29111" lon="-3.54767">
        <ele>202.6</ele>
        <time>2022-05-29T09:10:25Z</time>
      </trkpt>
      <trkpt lat="48.29101" lon="-3.54735">
        <ele>204.9</ele>
        <time>2022-05-29T09:10:35Z</time>
      </trkpt>
      <trkpt lat="48.29091" lon="-3.54705">
        <ele>206.6</ele>
        <time>2022-05-29T09:10:44Z</time>
      </trkpt>
      <trkpt lat="48.29078" lon="-3.54673">
        <ele>208.3</ele>
        <time>2022-05-29T09:10:53Z</time>
      </trkpt>
      <trkpt lat="48.29072" lon="-3.54658">
        <ele>208.9</ele>
        <time>2022-05-29T09:10:57Z</time>
      </trkpt>
      <trkpt lat="48.29067" lon="-3.54647">
        <ele>209.4</ele>
        <time>2022-05-29T09:11:00Z</time>
      </trkpt>
      <trkpt lat="48.29033" lon="-3.546">
        <ele>211.7</ele>
        <time>2022-05-29T09:11:15Z</time>
      </trkpt>
      <trkpt lat="48.29026" lon="-3.54591">
        <ele>212</ele>
        <time>2022-05-29T09:11:17Z</time>
      </trkpt>
      <trkpt lat="48.29009" lon="-3.54569">
        <ele>212.6</ele>
        <time>2022-05-29T09:11:22Z</time>
      </trkpt>
      <trkpt lat="48.28993" lon="-3.54551">
        <ele>213.4</ele>
        <time>2022-05-29T09:11:28Z</time>
      </trkpt>
      <trkpt lat="48.2899" lon="-3.54548">
        <ele>213.4</ele>
        <time>2022-05-29T09:11:29Z</time>
      </trkpt>
      <trkpt lat="48.28959" lon="-3.54525">
        <ele>213.4</ele>
        <time>2022-05-29T09:11:38Z</time>
      </trkpt>
      <trkpt lat="48.28952" lon="-3.54526">
        <ele>213.4</ele>
        <time>2022-05-29T09:11:39Z</time>
      </trkpt>
      <trkpt lat="48.28941" lon="-3.54516">
        <ele>213.4</ele>
        <time>2022-05-29T09:11:41Z</time>
      </trkpt>
      <trkpt lat="48.28936" lon="-3.54509">
        <ele>213.4</ele>
        <time>2022-05-29T09:11:42Z</time>
      </trkpt>
      <trkpt lat="48.28893" lon="-3.54484">
        <ele>213.3</ele>
        <time>2022-05-29T09:11:49Z</time>
      </trkpt>
      <trkpt lat="48.28845" lon="-3.5446">
        <ele>213.3</ele>
        <time>2022-05-29T09:11:56Z</time>
      </trkpt>
      <trkpt lat="48.28799" lon="-3.54435">
        <ele>213.3</ele>
        <time>2022-05-29T09:12:03Z</time>
      </trkpt>
      <trkpt lat="48.28754" lon="-3.5441">
        <ele>213.2</ele>
        <time>2022-05-29T09:12:10Z</time>
      </trkpt>
      <trkpt lat="48.28747" lon="-3.54406">
        <ele>213.1</ele>
        <time>2022-05-29T09:12:11Z</time>
      </trkpt>
      <trkpt lat="48.2871" lon="-3.54385">
        <ele>211.8</ele>
        <time>2022-05-29T09:12:16Z</time>
      </trkpt>
      <trkpt lat="48.28664" lon="-3.54357">
        <ele>210.2</ele>
        <time>2022-05-29T09:12:22Z</time>
      </trkpt>
      <trkpt lat="48.28616" lon="-3.54328">
        <ele>208.7</ele>
        <time>2022-05-29T09:12:28Z</time>
      </trkpt>
      <trkpt lat="48.28608" lon="-3.54323">
        <ele>208.4</ele>
        <time>2022-05-29T09:12:29Z</time>
      </trkpt>
      <trkpt lat="48.28567" lon="-3.54299">
        <ele>206.9</ele>
        <time>2022-05-29T09:12:34Z</time>
      </trkpt>
      <trkpt lat="48.28521" lon="-3.54281">
        <ele>205.2</ele>
        <time>2022-05-29T09:12:40Z</time>
      </trkpt>
      <trkpt lat="48.28514" lon="-3.54281">
        <ele>205</ele>
        <time>2022-05-29T09:12:41Z</time>
      </trkpt>
      <trkpt lat="48.28508" lon="-3.54283">
        <ele>205.1</ele>
        <time>2022-05-29T09:12:42Z</time>
      </trkpt>
      <trkpt lat="48.28488" lon="-3.54293">
        <ele>205.1</ele>
        <time>2022-05-29T09:12:45Z</time>
      </trkpt>
      <trkpt lat="48.28479" lon="-3.54313">
        <ele>205.2</ele>
        <time>2022-05-29T09:12:47Z</time>
      </trkpt>
      <trkpt lat="48.28462" lon="-3.54354">
        <ele>205.7</ele>
        <time>2022-05-29T09:12:51Z</time>
      </trkpt>
      <trkpt lat="48.2846" lon="-3.54366">
        <ele>205.8</ele>
        <time>2022-05-29T09:12:52Z</time>
      </trkpt>
      <trkpt lat="48.28435" lon="-3.54424">
        <ele>206.7</ele>
        <time>2022-05-29T09:12:59Z</time>
      </trkpt>
      <trkpt lat="48.28415" lon="-3.5447">
        <ele>207.4</ele>
        <time>2022-05-29T09:13:05Z</time>
      </trkpt>
      <trkpt lat="48.28409" lon="-3.54486">
        <ele>207.8</ele>
        <time>2022-05-29T09:13:07Z</time>
      </trkpt>
      <trkpt lat="48.28386" lon="-3.54547">
        <ele>209.3</ele>
        <time>2022-05-29T09:13:15Z</time>
      </trkpt>
      <trkpt lat="48.28366" lon="-3.54598">
        <ele>210.6</ele>
        <time>2022-05-29T09:13:22Z</time>
      </trkpt>
      <trkpt lat="48.28363" lon="-3.54605">
        <ele>210.9</ele>
        <time>2022-05-29T09:13:23Z</time>
      </trkpt>
      <trkpt lat="48.28341" lon="-3.54666">
        <ele>212.9</ele>
        <time>2022-05-29T09:13:32Z</time>
      </trkpt>
      <trkpt lat="48.28326" lon="-3.54716">
        <ele>214.8</ele>
        <time>2022-05-29T09:13:40Z</time>
      </trkpt>
      <trkpt lat="48.28323" lon="-3.54729">
        <ele>215.4</ele>
        <time>2022-05-29T09:13:42Z</time>
      </trkpt>
      <trkpt lat="48.28317" lon="-3.54751">
        <ele>216.6</ele>
        <time>2022-05-29T09:13:46Z</time>
      </trkpt>
      <trkpt lat="48.28306" lon="-3.54795">
        <ele>218.7</ele>
        <time>2022-05-29T09:13:54Z</time>
      </trkpt>
      <trkpt lat="48.28303" lon="-3.54814">
        <ele>219.7</ele>
        <time>2022-05-29T09:13:58Z</time>
      </trkpt>
      <trkpt lat="48.28295" lon="-3.54858">
        <ele>222.1</ele>
        <time>2022-05-29T09:14:07Z</time>
      </trkpt>
      <trkpt lat="48.28295" lon="-3.54867">
        <ele>222.6</ele>
        <time>2022-05-29T09:14:09Z</time>
      </trkpt>
      <trkpt lat="48.28298" lon="-3.54895">
        <ele>224.1</ele>
        <time>2022-05-29T09:14:15Z</time>
      </trkpt>
      <trkpt lat="48.28287" lon="-3.54916">
        <ele>225.5</ele>
        <time>2022-05-29T09:14:21Z</time>
      </trkpt>
      <trkpt lat="48.28269" lon="-3.54946">
        <ele>227.9</ele>
        <time>2022-05-29T09:14:30Z</time>
      </trkpt>
      <trkpt lat="48.28264" lon="-3.54958">
        <ele>228.7</ele>
        <time>2022-05-29T09:14:33Z</time>
      </trkpt>
      <trkpt lat="48.28245" lon="-3.55004">
        <ele>231.8</ele>
        <time>2022-05-29T09:14:45Z</time>
      </trkpt>
      <trkpt lat="48.28227" lon="-3.55043">
        <ele>234.9</ele>
        <time>2022-05-29T09:14:57Z</time>
      </trkpt>
      <trkpt lat="48.28218" lon="-3.55062">
        <ele>236.1</ele>
        <time>2022-05-29T09:15:03Z</time>
      </trkpt>
      <trkpt lat="48.28197" lon="-3.55102">
        <ele>238.6</ele>
        <time>2022-05-29T09:15:15Z</time>
      </trkpt>
      <trkpt lat="48.2819" lon="-3.55115">
        <ele>239.1</ele>
        <time>2022-05-29T09:15:19Z</time>
      </trkpt>
      <trkpt lat="48.28157" lon="-3.55171">
        <ele>239.9</ele>
        <time>2022-05-29T09:15:28Z</time>
      </trkpt>
      <trkpt lat="48.28145" lon="-3.55191">
        <ele>240.2</ele>
        <time>2022-05-29T09:15:31Z</time>
      </trkpt>
      <trkpt lat="48.28125" lon="-3.55226">
        <ele>239.8</ele>
        <time>2022-05-29T09:15:36Z</time>
      </trkpt>
      <trkpt lat="48.28094" lon="-3.5528">
        <ele>238.8</ele>
        <time>2022-05-29T09:15:44Z</time>
      </trkpt>
      <trkpt lat="48.2807" lon="-3.55315">
        <ele>238.3</ele>
        <time>2022-05-29T09:15:49Z</time>
      </trkpt>
      <trkpt lat="48.28057" lon="-3.55324">
        <ele>237.9</ele>
        <time>2022-05-29T09:15:51Z</time>
      </trkpt>
      <trkpt lat="48.28028" lon="-3.55326">
        <ele>237</ele>
        <time>2022-05-29T09:15:55Z</time>
      </trkpt>
      <trkpt lat="48.28007" lon="-3.55326">
        <ele>236.4</ele>
        <time>2022-05-29T09:15:58Z</time>
      </trkpt>
      <trkpt lat="48.27985" lon="-3.55325">
        <ele>235.8</ele>
        <time>2022-05-29T09:16:01Z</time>
      </trkpt>
      <trkpt lat="48.27956" lon="-3.55323">
        <ele>234.7</ele>
        <time>2022-05-29T09:16:05Z</time>
      </trkpt>
      <trkpt lat="48.27906" lon="-3.55321">
        <ele>232.9</ele>
        <time>2022-05-29T09:16:12Z</time>
      </trkpt>
      <trkpt lat="48.27857" lon="-3.55321">
        <ele>231.1</ele>
        <time>2022-05-29T09:16:19Z</time>
      </trkpt>
      <trkpt lat="48.27842" lon="-3.55327">
        <ele>229.6</ele>
        <time>2022-05-29T09:16:22Z</time>
      </trkpt>
      <trkpt lat="48.27832" lon="-3.55324">
        <ele>228.6</ele>
        <time>2022-05-29T09:16:24Z</time>
      </trkpt>
      <trkpt lat="48.27828" lon="-3.5532">
        <ele>228.1</ele>
        <time>2022-05-29T09:16:25Z</time>
      </trkpt>
      <trkpt lat="48.27814" lon="-3.5529">
        <ele>227.9</ele>
        <time>2022-05-29T09:16:30Z</time>
      </trkpt>
      <trkpt lat="48.2781" lon="-3.55287">
        <ele>227.9</ele>
        <time>2022-05-29T09:16:31Z</time>
      </trkpt>
      <trkpt lat="48.278" lon="-3.55284">
        <ele>227.8</ele>
        <time>2022-05-29T09:16:34Z</time>
      </trkpt>
      <trkpt lat="48.27789" lon="-3.55286">
        <ele>227.6</ele>
        <time>2022-05-29T09:16:37Z</time>
      </trkpt>
      <trkpt lat="48.27774" lon="-3.55274">
        <ele>227.9</ele>
        <time>2022-05-29T09:16:41Z</time>
      </trkpt>
      <trkpt lat="48.27768" lon="-3.55253">
        <ele>228.2</ele>
        <time>2022-05-29T09:16:45Z</time>
      </trkpt>
      <trkpt lat="48.27783" lon="-3.55223">
        <ele>229</ele>
        <time>2022-05-29T09:16:55Z</time>
      </trkpt>
      <trkpt lat="48.27801" lon="-3.55229">
        <ele>229.6</ele>
        <time>2022-05-29T09:17:07Z</time>
      </trkpt>
      <trkpt lat="48.27809" lon="-3.55248">
        <ele>229.3</ele>
        <time>2022-05-29T09:17:11Z</time>
      </trkpt>
      <trkpt lat="48.27814" lon="-3.55275">
        <ele>229</ele>
        <time>2022-05-29T09:17:15Z</time>
      </trkpt>
      <trkpt lat="48.27829" lon="-3.55296">
        <ele>228.7</ele>
        <time>2022-05-29T09:17:19Z</time>
      </trkpt>
      <trkpt lat="48.27847" lon="-3.55309">
        <ele>228.1</ele>
        <time>2022-05-29T09:17:26Z</time>
      </trkpt>
      <trkpt lat="48.27811" lon="-3.55366">
        <ele>226.1</ele>
        <time>2022-05-29T09:17:35Z</time>
      </trkpt>
      <trkpt lat="48.27811" lon="-3.55366">
        <ele>226.1</ele>
        <time>2022-05-29T09:18:58Z</time>
      </trkpt>
      <trkpt lat="48.2779" lon="-3.55384">
        <ele>224.8</ele>
        <time>2022-05-29T09:19:10Z</time>
      </trkpt>
      <trkpt lat="48.27753" lon="-3.55385">
        <ele>224.3</ele>
        <time>2022-05-29T09:19:27Z</time>
      </trkpt>
      <trkpt lat="48.27733" lon="-3.55415">
        <ele>224</ele>
        <time>2022-05-29T09:19:39Z</time>
      </trkpt>
      <trkpt lat="48.27734" lon="-3.55427">
        <ele>223.9</ele>
        <time>2022-05-29T09:19:44Z</time>
      </trkpt>
      <trkpt lat="48.27732" lon="-3.55426">
        <ele>223.8</ele>
        <time>2022-05-29T09:19:46Z</time>
      </trkpt>
      <trkpt lat="48.2774" lon="-3.55405">
        <ele>223.7</ele>
        <time>2022-05-29T09:19:51Z</time>
      </trkpt>
      <trkpt lat="48.27752" lon="-3.55379">
        <ele>224.5</ele>
        <time>2022-05-29T09:19:57Z</time>
      </trkpt>
      <trkpt lat="48.27771" lon="-3.55377">
        <ele>225.4</ele>
        <time>2022-05-29T09:20:03Z</time>
      </trkpt>
      <trkpt lat="48.27775" lon="-3.55377">
        <ele>225.5</ele>
        <time>2022-05-29T09:20:04Z</time>
      </trkpt>
      <trkpt lat="48.27805" lon="-3.55412">
        <ele>225.9</ele>
        <time>2022-05-29T09:20:14Z</time>
      </trkpt>
      <trkpt lat="48.27807" lon="-3.55417">
        <ele>226</ele>
        <time>2022-05-29T09:20:15Z</time>
      </trkpt>
      <trkpt lat="48.2781" lon="-3.55447">
        <ele>225.5</ele>
        <time>2022-05-29T09:20:20Z</time>
      </trkpt>
      <trkpt lat="48.27802" lon="-3.55492">
        <ele>224.9</ele>
        <time>2022-05-29T09:20:26Z</time>
      </trkpt>
      <trkpt lat="48.27783" lon="-3.55555">
        <ele>224.1</ele>
        <time>2022-05-29T09:20:33Z</time>
      </trkpt>
      <trkpt lat="48.27766" lon="-3.55627">
        <ele>222.6</ele>
        <time>2022-05-29T09:20:40Z</time>
      </trkpt>
      <trkpt lat="48.27752" lon="-3.55702">
        <ele>221</ele>
        <time>2022-05-29T09:20:47Z</time>
      </trkpt>
      <trkpt lat="48.27745" lon="-3.55744">
        <ele>220.2</ele>
        <time>2022-05-29T09:20:51Z</time>
      </trkpt>
      <trkpt lat="48.2774" lon="-3.55776">
        <ele>219.6</ele>
        <time>2022-05-29T09:20:54Z</time>
      </trkpt>
      <trkpt lat="48.2773" lon="-3.55844">
        <ele>218.3</ele>
        <time>2022-05-29T09:21:01Z</time>
      </trkpt>
      <trkpt lat="48.27723" lon="-3.55919">
        <ele>217</ele>
        <time>2022-05-29T09:21:08Z</time>
      </trkpt>
      <trkpt lat="48.27723" lon="-3.55929">
        <ele>216.8</ele>
        <time>2022-05-29T09:21:09Z</time>
      </trkpt>
      <trkpt lat="48.27723" lon="-3.55939">
        <ele>216.6</ele>
        <time>2022-05-29T09:21:10Z</time>
      </trkpt>
      <trkpt lat="48.27719" lon="-3.55958">
        <ele>216.4</ele>
        <time>2022-05-29T09:21:12Z</time>
      </trkpt>
      <trkpt lat="48.27715" lon="-3.55989">
        <ele>216</ele>
        <time>2022-05-29T09:21:15Z</time>
      </trkpt>
      <trkpt lat="48.2771" lon="-3.5603">
        <ele>215.3</ele>
        <time>2022-05-29T09:21:19Z</time>
      </trkpt>
      <trkpt lat="48.27703" lon="-3.56103">
        <ele>214.2</ele>
        <time>2022-05-29T09:21:26Z</time>
      </trkpt>
      <trkpt lat="48.27703" lon="-3.56114">
        <ele>214</ele>
        <time>2022-05-29T09:21:27Z</time>
      </trkpt>
      <trkpt lat="48.27701" lon="-3.56178">
        <ele>213.1</ele>
        <time>2022-05-29T09:21:33Z</time>
      </trkpt>
      <trkpt lat="48.277" lon="-3.56252">
        <ele>212.1</ele>
        <time>2022-05-29T09:21:40Z</time>
      </trkpt>
      <trkpt lat="48.27699" lon="-3.5632">
        <ele>211.2</ele>
        <time>2022-05-29T09:21:46Z</time>
      </trkpt>
      <trkpt lat="48.27702" lon="-3.56363">
        <ele>210.7</ele>
        <time>2022-05-29T09:21:50Z</time>
      </trkpt>
      <trkpt lat="48.27711" lon="-3.56394">
        <ele>210.9</ele>
        <time>2022-05-29T09:21:54Z</time>
      </trkpt>
      <trkpt lat="48.27711" lon="-3.56409">
        <ele>211.1</ele>
        <time>2022-05-29T09:21:56Z</time>
      </trkpt>
      <trkpt lat="48.27703" lon="-3.56418">
        <ele>211.3</ele>
        <time>2022-05-29T09:21:58Z</time>
      </trkpt>
      <trkpt lat="48.27706" lon="-3.56491">
        <ele>212.1</ele>
        <time>2022-05-29T09:22:07Z</time>
      </trkpt>
      <trkpt lat="48.27711" lon="-3.5656">
        <ele>213</ele>
        <time>2022-05-29T09:22:18Z</time>
      </trkpt>
      <trkpt lat="48.27716" lon="-3.56606">
        <ele>213.7</ele>
        <time>2022-05-29T09:22:26Z</time>
      </trkpt>
      <trkpt lat="48.27717" lon="-3.56624">
        <ele>214.3</ele>
        <time>2022-05-29T09:22:29Z</time>
      </trkpt>
      <trkpt lat="48.27717" lon="-3.56642">
        <ele>215</ele>
        <time>2022-05-29T09:22:32Z</time>
      </trkpt>
      <trkpt lat="48.27715" lon="-3.56695">
        <ele>216.5</ele>
        <time>2022-05-29T09:22:41Z</time>
      </trkpt>
      <trkpt lat="48.27702" lon="-3.56765">
        <ele>218.8</ele>
        <time>2022-05-29T09:22:55Z</time>
      </trkpt>
      <trkpt lat="48.27701" lon="-3.5677">
        <ele>219</ele>
        <time>2022-05-29T09:22:56Z</time>
      </trkpt>
      <trkpt lat="48.27692" lon="-3.56833">
        <ele>220.7</ele>
        <time>2022-05-29T09:23:08Z</time>
      </trkpt>
      <trkpt lat="48.27685" lon="-3.56869">
        <ele>221.6</ele>
        <time>2022-05-29T09:23:14Z</time>
      </trkpt>
      <trkpt lat="48.2768" lon="-3.569">
        <ele>222.3</ele>
        <time>2022-05-29T09:23:19Z</time>
      </trkpt>
      <trkpt lat="48.27673" lon="-3.56944">
        <ele>223.2</ele>
        <time>2022-05-29T09:23:26Z</time>
      </trkpt>
      <trkpt lat="48.2767" lon="-3.56969">
        <ele>223.6</ele>
        <time>2022-05-29T09:23:30Z</time>
      </trkpt>
      <trkpt lat="48.27668" lon="-3.56982">
        <ele>223.9</ele>
        <time>2022-05-29T09:23:32Z</time>
      </trkpt>
      <trkpt lat="48.27662" lon="-3.5704">
        <ele>224</ele>
        <time>2022-05-29T09:23:41Z</time>
      </trkpt>
      <trkpt lat="48.27656" lon="-3.57107">
        <ele>224</ele>
        <time>2022-05-29T09:23:51Z</time>
      </trkpt>
      <trkpt lat="48.27645" lon="-3.57173">
        <ele>224.1</ele>
        <time>2022-05-29T09:24:01Z</time>
      </trkpt>
      <trkpt lat="48.27639" lon="-3.57208">
        <ele>224.1</ele>
        <time>2022-05-29T09:24:06Z</time>
      </trkpt>
      <trkpt lat="48.27629" lon="-3.57274">
        <ele>224.1</ele>
        <time>2022-05-29T09:24:15Z</time>
      </trkpt>
      <trkpt lat="48.27626" lon="-3.57289">
        <ele>224.1</ele>
        <time>2022-05-29T09:24:17Z</time>
      </trkpt>
      <trkpt lat="48.27627" lon="-3.57304">
        <ele>224.1</ele>
        <time>2022-05-29T09:24:19Z</time>
      </trkpt>
      <trkpt lat="48.2763" lon="-3.5734">
        <ele>225.5</ele>
        <time>2022-05-29T09:24:28Z</time>
      </trkpt>
      <trkpt lat="48.2763" lon="-3.5734">
        <ele>225.5</ele>
        <time>2022-05-29T09:34:20Z</time>
      </trkpt>
      <trkpt lat="48.27639" lon="-3.57287">
        <ele>226.5</ele>
        <time>2022-05-29T09:34:27Z</time>
      </trkpt>
      <trkpt lat="48.27639" lon="-3.57287">
        <ele>226.5</ele>
        <time>2022-05-29T09:35:39Z</time>
      </trkpt>
      <trkpt lat="48.27645" lon="-3.57214">
        <ele>226</ele>
        <time>2022-05-29T09:35:48Z</time>
      </trkpt>
      <trkpt lat="48.27653" lon="-3.57168">
        <ele>225.8</ele>
        <time>2022-05-29T09:36:03Z</time>
      </trkpt>
      <trkpt lat="48.27651" lon="-3.57166">
        <ele>225.7</ele>
        <time>2022-05-29T09:36:07Z</time>
      </trkpt>
      <trkpt lat="48.27667" lon="-3.57031">
        <ele>224.8</ele>
        <time>2022-05-29T09:36:27Z</time>
      </trkpt>
      <trkpt lat="48.27667" lon="-3.57031">
        <ele>224.8</ele>
        <time>2022-05-29T09:38:05Z</time>
      </trkpt>
      <trkpt lat="48.27675" lon="-3.56968">
        <ele>224.1</ele>
        <time>2022-05-29T09:38:11Z</time>
      </trkpt>
      <trkpt lat="48.27684" lon="-3.56896">
        <ele>224</ele>
        <time>2022-05-29T09:38:20Z</time>
      </trkpt>
      <trkpt lat="48.27691" lon="-3.5684">
        <ele>223.8</ele>
        <time>2022-05-29T09:38:27Z</time>
      </trkpt>
      <trkpt lat="48.27694" lon="-3.56824">
        <ele>223.3</ele>
        <time>2022-05-29T09:38:29Z</time>
      </trkpt>
      <trkpt lat="48.27707" lon="-3.56755">
        <ele>221.4</ele>
        <time>2022-05-29T09:38:37Z</time>
      </trkpt>
      <trkpt lat="48.27719" lon="-3.56685">
        <ele>219.8</ele>
        <time>2022-05-29T09:38:44Z</time>
      </trkpt>
      <trkpt lat="48.27721" lon="-3.5663">
        <ele>218.1</ele>
        <time>2022-05-29T09:38:49Z</time>
      </trkpt>
      <trkpt lat="48.27715" lon="-3.5656">
        <ele>216.1</ele>
        <time>2022-05-29T09:38:55Z</time>
      </trkpt>
      <trkpt lat="48.27714" lon="-3.56548">
        <ele>215.9</ele>
        <time>2022-05-29T09:38:56Z</time>
      </trkpt>
      <trkpt lat="48.27708" lon="-3.56488">
        <ele>214.8</ele>
        <time>2022-05-29T09:39:01Z</time>
      </trkpt>
      <trkpt lat="48.27704" lon="-3.56465">
        <ele>214.4</ele>
        <time>2022-05-29T09:39:03Z</time>
      </trkpt>
      <trkpt lat="48.27702" lon="-3.56454">
        <ele>214.2</ele>
        <time>2022-05-29T09:39:04Z</time>
      </trkpt>
      <trkpt lat="48.27702" lon="-3.56421">
        <ele>213.5</ele>
        <time>2022-05-29T09:39:07Z</time>
      </trkpt>
      <trkpt lat="48.27703" lon="-3.56411">
        <ele>213.4</ele>
        <time>2022-05-29T09:39:08Z</time>
      </trkpt>
      <trkpt lat="48.27695" lon="-3.56351">
        <ele>213</ele>
        <time>2022-05-29T09:39:14Z</time>
      </trkpt>
      <trkpt lat="48.27695" lon="-3.56342">
        <ele>213</ele>
        <time>2022-05-29T09:39:15Z</time>
      </trkpt>
      <trkpt lat="48.27693" lon="-3.56293">
        <ele>213.3</ele>
        <time>2022-05-29T09:39:20Z</time>
      </trkpt>
      <trkpt lat="48.27695" lon="-3.56268">
        <ele>213.5</ele>
        <time>2022-05-29T09:39:23Z</time>
      </trkpt>
      <trkpt lat="48.27696" lon="-3.56194">
        <ele>213.9</ele>
        <time>2022-05-29T09:39:32Z</time>
      </trkpt>
      <trkpt lat="48.27698" lon="-3.56148">
        <ele>214.3</ele>
        <time>2022-05-29T09:39:38Z</time>
      </trkpt>
      <trkpt lat="48.27699" lon="-3.56125">
        <ele>214.6</ele>
        <time>2022-05-29T09:39:41Z</time>
      </trkpt>
      <trkpt lat="48.27702" lon="-3.56058">
        <ele>215.7</ele>
        <time>2022-05-29T09:39:50Z</time>
      </trkpt>
      <trkpt lat="48.27702" lon="-3.56051">
        <ele>215.8</ele>
        <time>2022-05-29T09:39:51Z</time>
      </trkpt>
      <trkpt lat="48.27703" lon="-3.56036">
        <ele>216</ele>
        <time>2022-05-29T09:39:53Z</time>
      </trkpt>
      <trkpt lat="48.27709" lon="-3.55995">
        <ele>216.7</ele>
        <time>2022-05-29T09:39:59Z</time>
      </trkpt>
      <trkpt lat="48.27714" lon="-3.55927">
        <ele>217.8</ele>
        <time>2022-05-29T09:40:09Z</time>
      </trkpt>
      <trkpt lat="48.27718" lon="-3.55914">
        <ele>218</ele>
        <time>2022-05-29T09:40:11Z</time>
      </trkpt>
      <trkpt lat="48.27718" lon="-3.55907">
        <ele>218.1</ele>
        <time>2022-05-29T09:40:12Z</time>
      </trkpt>
      <trkpt lat="48.2772" lon="-3.55894">
        <ele>218.4</ele>
        <time>2022-05-29T09:40:14Z</time>
      </trkpt>
      <trkpt lat="48.27723" lon="-3.55875">
        <ele>218.6</ele>
        <time>2022-05-29T09:40:17Z</time>
      </trkpt>
      <trkpt lat="48.27726" lon="-3.55842">
        <ele>218.9</ele>
        <time>2022-05-29T09:40:22Z</time>
      </trkpt>
      <trkpt lat="48.2773" lon="-3.55816">
        <ele>219.3</ele>
        <time>2022-05-29T09:40:26Z</time>
      </trkpt>
      <trkpt lat="48.27736" lon="-3.55783">
        <ele>220.3</ele>
        <time>2022-05-29T09:40:31Z</time>
      </trkpt>
      <trkpt lat="48.27737" lon="-3.55777">
        <ele>220.3</ele>
        <time>2022-05-29T09:40:32Z</time>
      </trkpt>
      <trkpt lat="48.27742" lon="-3.55743">
        <ele>220.3</ele>
        <time>2022-05-29T09:40:37Z</time>
      </trkpt>
      <trkpt lat="48.27747" lon="-3.5571">
        <ele>221.2</ele>
        <time>2022-05-29T09:40:42Z</time>
      </trkpt>
      <trkpt lat="48.27754" lon="-3.55671">
        <ele>222.3</ele>
        <time>2022-05-29T09:40:48Z</time>
      </trkpt>
      <trkpt lat="48.27761" lon="-3.55639">
        <ele>222.8</ele>
        <time>2022-05-29T09:40:53Z</time>
      </trkpt>
      <trkpt lat="48.27762" lon="-3.55633">
        <ele>223</ele>
        <time>2022-05-29T09:40:54Z</time>
      </trkpt>
      <trkpt lat="48.2777" lon="-3.55596">
        <ele>224.4</ele>
        <time>2022-05-29T09:41:00Z</time>
      </trkpt>
      <trkpt lat="48.27776" lon="-3.55572">
        <ele>224.7</ele>
        <time>2022-05-29T09:41:04Z</time>
      </trkpt>
      <trkpt lat="48.27782" lon="-3.55547">
        <ele>225.1</ele>
        <time>2022-05-29T09:41:08Z</time>
      </trkpt>
      <trkpt lat="48.27783" lon="-3.55541">
        <ele>225.2</ele>
        <time>2022-05-29T09:41:09Z</time>
      </trkpt>
      <trkpt lat="48.27787" lon="-3.55522">
        <ele>225.5</ele>
        <time>2022-05-29T09:41:12Z</time>
      </trkpt>
      <trkpt lat="48.27795" lon="-3.55486">
        <ele>226.5</ele>
        <time>2022-05-29T09:41:18Z</time>
      </trkpt>
      <trkpt lat="48.27798" lon="-3.55474">
        <ele>226.7</ele>
        <time>2022-05-29T09:41:20Z</time>
      </trkpt>
      <trkpt lat="48.27815" lon="-3.55404">
        <ele>228.3</ele>
        <time>2022-05-29T09:41:31Z</time>
      </trkpt>
      <trkpt lat="48.27821" lon="-3.55373">
        <ele>228.9</ele>
        <time>2022-05-29T09:41:36Z</time>
      </trkpt>
      <trkpt lat="48.27827" lon="-3.55336">
        <ele>229.5</ele>
        <time>2022-05-29T09:41:42Z</time>
      </trkpt>
      <trkpt lat="48.27818" lon="-3.553">
        <ele>230</ele>
        <time>2022-05-29T09:41:48Z</time>
      </trkpt>
      <trkpt lat="48.27808" lon="-3.55287">
        <ele>230.3</ele>
        <time>2022-05-29T09:41:51Z</time>
      </trkpt>
      <trkpt lat="48.278" lon="-3.55284">
        <ele>230.5</ele>
        <time>2022-05-29T09:41:53Z</time>
      </trkpt>
      <trkpt lat="48.27781" lon="-3.55286">
        <ele>230.8</ele>
        <time>2022-05-29T09:41:57Z</time>
      </trkpt>
      <trkpt lat="48.27769" lon="-3.55259">
        <ele>231.2</ele>
        <time>2022-05-29T09:42:01Z</time>
      </trkpt>
      <trkpt lat="48.2777" lon="-3.55246">
        <ele>231.4</ele>
        <time>2022-05-29T09:42:03Z</time>
      </trkpt>
      <trkpt lat="48.27786" lon="-3.55204">
        <ele>232.1</ele>
        <time>2022-05-29T09:42:11Z</time>
      </trkpt>
      <trkpt lat="48.27781" lon="-3.55164">
        <ele>232.8</ele>
        <time>2022-05-29T09:42:18Z</time>
      </trkpt>
      <trkpt lat="48.27776" lon="-3.55137">
        <ele>233.6</ele>
        <time>2022-05-29T09:42:23Z</time>
      </trkpt>
      <trkpt lat="48.27762" lon="-3.55075">
        <ele>235.8</ele>
        <time>2022-05-29T09:42:35Z</time>
      </trkpt>
      <trkpt lat="48.27761" lon="-3.55069">
        <ele>236</ele>
        <time>2022-05-29T09:42:36Z</time>
      </trkpt>
      <trkpt lat="48.27743" lon="-3.55004">
        <ele>238.4</ele>
        <time>2022-05-29T09:42:49Z</time>
      </trkpt>
      <trkpt lat="48.2774" lon="-3.54995">
        <ele>238.8</ele>
        <time>2022-05-29T09:42:51Z</time>
      </trkpt>
      <trkpt lat="48.27732" lon="-3.54965">
        <ele>239.8</ele>
        <time>2022-05-29T09:42:57Z</time>
      </trkpt>
      <trkpt lat="48.27726" lon="-3.54941">
        <ele>240.7</ele>
        <time>2022-05-29T09:43:02Z</time>
      </trkpt>
      <trkpt lat="48.27711" lon="-3.54879">
        <ele>242.9</ele>
        <time>2022-05-29T09:43:15Z</time>
      </trkpt>
      <trkpt lat="48.2771" lon="-3.54874">
        <ele>243</ele>
        <time>2022-05-29T09:43:16Z</time>
      </trkpt>
      <trkpt lat="48.27702" lon="-3.54803">
        <ele>245.1</ele>
        <time>2022-05-29T09:43:29Z</time>
      </trkpt>
      <trkpt lat="48.27701" lon="-3.54744">
        <ele>246.6</ele>
        <time>2022-05-29T09:43:39Z</time>
      </trkpt>
      <trkpt lat="48.27701" lon="-3.54732">
        <ele>246.9</ele>
        <time>2022-05-29T09:43:41Z</time>
      </trkpt>
      <trkpt lat="48.277" lon="-3.54707">
        <ele>247.3</ele>
        <time>2022-05-29T09:43:45Z</time>
      </trkpt>
      <trkpt lat="48.27699" lon="-3.5467">
        <ele>247.6</ele>
        <time>2022-05-29T09:43:51Z</time>
      </trkpt>
      <trkpt lat="48.27699" lon="-3.54664">
        <ele>247.6</ele>
        <time>2022-05-29T09:43:52Z</time>
      </trkpt>
      <trkpt lat="48.27695" lon="-3.54591">
        <ele>247.6</ele>
        <time>2022-05-29T09:44:03Z</time>
      </trkpt>
      <trkpt lat="48.27693" lon="-3.54518">
        <ele>247.6</ele>
        <time>2022-05-29T09:44:14Z</time>
      </trkpt>
      <trkpt lat="48.27686" lon="-3.54445">
        <ele>247.6</ele>
        <time>2022-05-29T09:44:24Z</time>
      </trkpt>
      <trkpt lat="48.27673" lon="-3.5438">
        <ele>247.6</ele>
        <time>2022-05-29T09:44:32Z</time>
      </trkpt>
      <trkpt lat="48.27648" lon="-3.54318">
        <ele>247.5</ele>
        <time>2022-05-29T09:44:39Z</time>
      </trkpt>
      <trkpt lat="48.27625" lon="-3.54258">
        <ele>245.4</ele>
        <time>2022-05-29T09:44:45Z</time>
      </trkpt>
      <trkpt lat="48.276" lon="-3.54191">
        <ele>242.6</ele>
        <time>2022-05-29T09:44:51Z</time>
      </trkpt>
      <trkpt lat="48.27578" lon="-3.5413">
        <ele>240.2</ele>
        <time>2022-05-29T09:44:56Z</time>
      </trkpt>
      <trkpt lat="48.27574" lon="-3.54117">
        <ele>239.7</ele>
        <time>2022-05-29T09:44:57Z</time>
      </trkpt>
      <trkpt lat="48.27556" lon="-3.54067">
        <ele>237.5</ele>
        <time>2022-05-29T09:45:01Z</time>
      </trkpt>
      <trkpt lat="48.27546" lon="-3.54042">
        <ele>236.4</ele>
        <time>2022-05-29T09:45:03Z</time>
      </trkpt>
      <trkpt lat="48.27532" lon="-3.54004">
        <ele>234.7</ele>
        <time>2022-05-29T09:45:06Z</time>
      </trkpt>
      <trkpt lat="48.2752" lon="-3.53965">
        <ele>233</ele>
        <time>2022-05-29T09:45:09Z</time>
      </trkpt>
      <trkpt lat="48.27515" lon="-3.53953">
        <ele>232.5</ele>
        <time>2022-05-29T09:45:10Z</time>
      </trkpt>
      <trkpt lat="48.27499" lon="-3.53919">
        <ele>231</ele>
        <time>2022-05-29T09:45:13Z</time>
      </trkpt>
      <trkpt lat="48.27493" lon="-3.53892">
        <ele>230</ele>
        <time>2022-05-29T09:45:15Z</time>
      </trkpt>
      <trkpt lat="48.27489" lon="-3.53879">
        <ele>229.6</ele>
        <time>2022-05-29T09:45:16Z</time>
      </trkpt>
      <trkpt lat="48.27463" lon="-3.53817">
        <ele>227.6</ele>
        <time>2022-05-29T09:45:21Z</time>
      </trkpt>
      <trkpt lat="48.27439" lon="-3.53754">
        <ele>225.6</ele>
        <time>2022-05-29T09:45:26Z</time>
      </trkpt>
      <trkpt lat="48.27435" lon="-3.53742">
        <ele>225.2</ele>
        <time>2022-05-29T09:45:27Z</time>
      </trkpt>
      <trkpt lat="48.27417" lon="-3.53693">
        <ele>223.8</ele>
        <time>2022-05-29T09:45:31Z</time>
      </trkpt>
      <trkpt lat="48.2739" lon="-3.53628">
        <ele>221.7</ele>
        <time>2022-05-29T09:45:37Z</time>
      </trkpt>
      <trkpt lat="48.27379" lon="-3.53612">
        <ele>221.1</ele>
        <time>2022-05-29T09:45:39Z</time>
      </trkpt>
      <trkpt lat="48.2736" lon="-3.53599">
        <ele>220.7</ele>
        <time>2022-05-29T09:45:42Z</time>
      </trkpt>
      <trkpt lat="48.27349" lon="-3.53576">
        <ele>220.4</ele>
        <time>2022-05-29T09:45:45Z</time>
      </trkpt>
      <trkpt lat="48.27349" lon="-3.53547">
        <ele>220.2</ele>
        <time>2022-05-29T09:45:48Z</time>
      </trkpt>
      <trkpt lat="48.27356" lon="-3.53519">
        <ele>220</ele>
        <time>2022-05-29T09:45:51Z</time>
      </trkpt>
      <trkpt lat="48.27356" lon="-3.5351">
        <ele>220.1</ele>
        <time>2022-05-29T09:45:52Z</time>
      </trkpt>
      <trkpt lat="48.27348" lon="-3.53447">
        <ele>220.6</ele>
        <time>2022-05-29T09:45:59Z</time>
      </trkpt>
      <trkpt lat="48.27336" lon="-3.53411">
        <ele>220.9</ele>
        <time>2022-05-29T09:46:03Z</time>
      </trkpt>
      <trkpt lat="48.27322" lon="-3.53342">
        <ele>221.4</ele>
        <time>2022-05-29T09:46:11Z</time>
      </trkpt>
      <trkpt lat="48.27306" lon="-3.53272">
        <ele>222.1</ele>
        <time>2022-05-29T09:46:20Z</time>
      </trkpt>
      <trkpt lat="48.27304" lon="-3.53265">
        <ele>222.2</ele>
        <time>2022-05-29T09:46:21Z</time>
      </trkpt>
      <trkpt lat="48.27291" lon="-3.53202">
        <ele>223.5</ele>
        <time>2022-05-29T09:46:30Z</time>
      </trkpt>
      <trkpt lat="48.27287" lon="-3.53181">
        <ele>223.9</ele>
        <time>2022-05-29T09:46:33Z</time>
      </trkpt>
      <trkpt lat="48.27278" lon="-3.5314">
        <ele>225.1</ele>
        <time>2022-05-29T09:46:39Z</time>
      </trkpt>
      <trkpt lat="48.27276" lon="-3.53133">
        <ele>225.2</ele>
        <time>2022-05-29T09:46:40Z</time>
      </trkpt>
      <trkpt lat="48.27259" lon="-3.53063">
        <ele>226.9</ele>
        <time>2022-05-29T09:46:50Z</time>
      </trkpt>
      <trkpt lat="48.27243" lon="-3.53">
        <ele>228.5</ele>
        <time>2022-05-29T09:46:59Z</time>
      </trkpt>
      <trkpt lat="48.27238" lon="-3.52979">
        <ele>228.9</ele>
        <time>2022-05-29T09:47:02Z</time>
      </trkpt>
      <trkpt lat="48.27228" lon="-3.52938">
        <ele>229.5</ele>
        <time>2022-05-29T09:47:08Z</time>
      </trkpt>
      <trkpt lat="48.27227" lon="-3.52932">
        <ele>229.6</ele>
        <time>2022-05-29T09:47:09Z</time>
      </trkpt>
      <trkpt lat="48.2721" lon="-3.52863">
        <ele>231.1</ele>
        <time>2022-05-29T09:47:19Z</time>
      </trkpt>
      <trkpt lat="48.27208" lon="-3.52856">
        <ele>231.3</ele>
        <time>2022-05-29T09:47:20Z</time>
      </trkpt>
      <trkpt lat="48.27194" lon="-3.52799">
        <ele>232.2</ele>
        <time>2022-05-29T09:47:28Z</time>
      </trkpt>
      <trkpt lat="48.27179" lon="-3.52735">
        <ele>233.2</ele>
        <time>2022-05-29T09:47:37Z</time>
      </trkpt>
      <trkpt lat="48.27177" lon="-3.52728">
        <ele>233.3</ele>
        <time>2022-05-29T09:47:38Z</time>
      </trkpt>
      <trkpt lat="48.27161" lon="-3.52668">
        <ele>232.9</ele>
        <time>2022-05-29T09:47:46Z</time>
      </trkpt>
      <trkpt lat="48.27144" lon="-3.52605">
        <ele>232.5</ele>
        <time>2022-05-29T09:47:54Z</time>
      </trkpt>
      <trkpt lat="48.27125" lon="-3.52539">
        <ele>232.2</ele>
        <time>2022-05-29T09:48:02Z</time>
      </trkpt>
      <trkpt lat="48.27103" lon="-3.5247">
        <ele>231.8</ele>
        <time>2022-05-29T09:48:10Z</time>
      </trkpt>
      <trkpt lat="48.27082" lon="-3.52402">
        <ele>231.4</ele>
        <time>2022-05-29T09:48:18Z</time>
      </trkpt>
      <trkpt lat="48.27062" lon="-3.52338">
        <ele>231.1</ele>
        <time>2022-05-29T09:48:26Z</time>
      </trkpt>
      <trkpt lat="48.27042" lon="-3.52271">
        <ele>230.7</ele>
        <time>2022-05-29T09:48:34Z</time>
      </trkpt>
      <trkpt lat="48.27023" lon="-3.52202">
        <ele>230.3</ele>
        <time>2022-05-29T09:48:42Z</time>
      </trkpt>
      <trkpt lat="48.27019" lon="-3.52184">
        <ele>230.2</ele>
        <time>2022-05-29T09:48:44Z</time>
      </trkpt>
      <trkpt lat="48.27005" lon="-3.5213">
        <ele>229</ele>
        <time>2022-05-29T09:48:50Z</time>
      </trkpt>
      <trkpt lat="48.26994" lon="-3.52079">
        <ele>228</ele>
        <time>2022-05-29T09:48:55Z</time>
      </trkpt>
      <trkpt lat="48.2699" lon="-3.52058">
        <ele>227.5</ele>
        <time>2022-05-29T09:48:57Z</time>
      </trkpt>
      <trkpt lat="48.26978" lon="-3.51991">
        <ele>225.7</ele>
        <time>2022-05-29T09:49:03Z</time>
      </trkpt>
      <trkpt lat="48.2697" lon="-3.51944">
        <ele>224.5</ele>
        <time>2022-05-29T09:49:07Z</time>
      </trkpt>
      <trkpt lat="48.26966" lon="-3.51921">
        <ele>223.9</ele>
        <time>2022-05-29T09:49:09Z</time>
      </trkpt>
      <trkpt lat="48.26954" lon="-3.5185">
        <ele>221.9</ele>
        <time>2022-05-29T09:49:15Z</time>
      </trkpt>
      <trkpt lat="48.26949" lon="-3.51801">
        <ele>220.6</ele>
        <time>2022-05-29T09:49:19Z</time>
      </trkpt>
      <trkpt lat="48.26946" lon="-3.51777">
        <ele>220.1</ele>
        <time>2022-05-29T09:49:21Z</time>
      </trkpt>
      <trkpt lat="48.26938" lon="-3.51706">
        <ele>218.6</ele>
        <time>2022-05-29T09:49:27Z</time>
      </trkpt>
      <trkpt lat="48.26932" lon="-3.51658">
        <ele>217.6</ele>
        <time>2022-05-29T09:49:31Z</time>
      </trkpt>
      <trkpt lat="48.26929" lon="-3.51634">
        <ele>217.3</ele>
        <time>2022-05-29T09:49:33Z</time>
      </trkpt>
      <trkpt lat="48.26921" lon="-3.51561">
        <ele>216.1</ele>
        <time>2022-05-29T09:49:39Z</time>
      </trkpt>
      <trkpt lat="48.26914" lon="-3.51488">
        <ele>215</ele>
        <time>2022-05-29T09:49:45Z</time>
      </trkpt>
      <trkpt lat="48.26909" lon="-3.51439">
        <ele>214.2</ele>
        <time>2022-05-29T09:49:49Z</time>
      </trkpt>
      <trkpt lat="48.26906" lon="-3.51414">
        <ele>213.9</ele>
        <time>2022-05-29T09:49:51Z</time>
      </trkpt>
      <trkpt lat="48.26895" lon="-3.51342">
        <ele>212.8</ele>
        <time>2022-05-29T09:49:57Z</time>
      </trkpt>
      <trkpt lat="48.26884" lon="-3.51284">
        <ele>211.8</ele>
        <time>2022-05-29T09:50:02Z</time>
      </trkpt>
      <trkpt lat="48.26869" lon="-3.51227">
        <ele>210.9</ele>
        <time>2022-05-29T09:50:07Z</time>
      </trkpt>
      <trkpt lat="48.26866" lon="-3.51215">
        <ele>210.7</ele>
        <time>2022-05-29T09:50:08Z</time>
      </trkpt>
      <trkpt lat="48.26848" lon="-3.51144">
        <ele>209.4</ele>
        <time>2022-05-29T09:50:14Z</time>
      </trkpt>
      <trkpt lat="48.26827" lon="-3.51073">
        <ele>208.1</ele>
        <time>2022-05-29T09:50:20Z</time>
      </trkpt>
      <trkpt lat="48.26806" lon="-3.51015">
        <ele>207.1</ele>
        <time>2022-05-29T09:50:25Z</time>
      </trkpt>
      <trkpt lat="48.26802" lon="-3.51004">
        <ele>206.9</ele>
        <time>2022-05-29T09:50:26Z</time>
      </trkpt>
      <trkpt lat="48.26776" lon="-3.50936">
        <ele>206.2</ele>
        <time>2022-05-29T09:50:32Z</time>
      </trkpt>
      <trkpt lat="48.26754" lon="-3.50882">
        <ele>205.6</ele>
        <time>2022-05-29T09:50:37Z</time>
      </trkpt>
      <trkpt lat="48.26749" lon="-3.50871">
        <ele>205.5</ele>
        <time>2022-05-29T09:50:38Z</time>
      </trkpt>
      <trkpt lat="48.26726" lon="-3.50809">
        <ele>205.2</ele>
        <time>2022-05-29T09:50:44Z</time>
      </trkpt>
      <trkpt lat="48.26704" lon="-3.50752">
        <ele>204.9</ele>
        <time>2022-05-29T09:50:50Z</time>
      </trkpt>
      <trkpt lat="48.26682" lon="-3.50693">
        <ele>204.6</ele>
        <time>2022-05-29T09:50:58Z</time>
      </trkpt>
      <trkpt lat="48.26681" lon="-3.50686">
        <ele>204.4</ele>
        <time>2022-05-29T09:51:01Z</time>
      </trkpt>
      <trkpt lat="48.26674" lon="-3.50646">
        <ele>203.3</ele>
        <time>2022-05-29T09:51:07Z</time>
      </trkpt>
      <trkpt lat="48.26674" lon="-3.50646">
        <ele>203.3</ele>
        <time>2022-05-29T09:59:11Z</time>
      </trkpt>
      <trkpt lat="48.26652" lon="-3.50616">
        <ele>202.5</ele>
        <time>2022-05-29T09:59:15Z</time>
      </trkpt>
      <trkpt lat="48.26633" lon="-3.50557">
        <ele>202.4</ele>
        <time>2022-05-29T09:59:21Z</time>
      </trkpt>
      <trkpt lat="48.2663" lon="-3.50547">
        <ele>202.4</ele>
        <time>2022-05-29T09:59:22Z</time>
      </trkpt>
      <trkpt lat="48.26612" lon="-3.50484">
        <ele>201.9</ele>
        <time>2022-05-29T09:59:28Z</time>
      </trkpt>
      <trkpt lat="48.2659" lon="-3.50428">
        <ele>201.3</ele>
        <time>2022-05-29T09:59:34Z</time>
      </trkpt>
      <trkpt lat="48.2657" lon="-3.50363">
        <ele>200.7</ele>
        <time>2022-05-29T09:59:42Z</time>
      </trkpt>
      <trkpt lat="48.26568" lon="-3.50355">
        <ele>200.6</ele>
        <time>2022-05-29T09:59:43Z</time>
      </trkpt>
      <trkpt lat="48.26562" lon="-3.50341">
        <ele>201</ele>
        <time>2022-05-29T09:59:45Z</time>
      </trkpt>
      <trkpt lat="48.26556" lon="-3.50316">
        <ele>202.3</ele>
        <time>2022-05-29T09:59:49Z</time>
      </trkpt>
      <trkpt lat="48.26546" lon="-3.50286">
        <ele>203.8</ele>
        <time>2022-05-29T09:59:55Z</time>
      </trkpt>
      <trkpt lat="48.26536" lon="-3.50258">
        <ele>205.1</ele>
        <time>2022-05-29T10:00:01Z</time>
      </trkpt>
      <trkpt lat="48.26535" lon="-3.50253">
        <ele>205.3</ele>
        <time>2022-05-29T10:00:02Z</time>
      </trkpt>
      <trkpt lat="48.26518" lon="-3.50189">
        <ele>207.4</ele>
        <time>2022-05-29T10:00:15Z</time>
      </trkpt>
      <trkpt lat="48.2651" lon="-3.50171">
        <ele>208.1</ele>
        <time>2022-05-29T10:00:19Z</time>
      </trkpt>
      <trkpt lat="48.26508" lon="-3.5016">
        <ele>208.4</ele>
        <time>2022-05-29T10:00:21Z</time>
      </trkpt>
      <trkpt lat="48.26502" lon="-3.50141">
        <ele>209</ele>
        <time>2022-05-29T10:00:25Z</time>
      </trkpt>
      <trkpt lat="48.26486" lon="-3.50099">
        <ele>209.7</ele>
        <time>2022-05-29T10:00:34Z</time>
      </trkpt>
      <trkpt lat="48.26474" lon="-3.50064">
        <ele>210.2</ele>
        <time>2022-05-29T10:00:41Z</time>
      </trkpt>
      <trkpt lat="48.26473" lon="-3.50058">
        <ele>210.3</ele>
        <time>2022-05-29T10:00:42Z</time>
      </trkpt>
      <trkpt lat="48.26457" lon="-3.50009">
        <ele>210.8</ele>
        <time>2022-05-29T10:00:49Z</time>
      </trkpt>
      <trkpt lat="48.2645" lon="-3.49987">
        <ele>210.1</ele>
        <time>2022-05-29T10:00:52Z</time>
      </trkpt>
      <trkpt lat="48.2644" lon="-3.49958">
        <ele>209.3</ele>
        <time>2022-05-29T10:00:55Z</time>
      </trkpt>
      <trkpt lat="48.2643" lon="-3.49928">
        <ele>208.5</ele>
        <time>2022-05-29T10:00:58Z</time>
      </trkpt>
      <trkpt lat="48.2642" lon="-3.49899">
        <ele>207.7</ele>
        <time>2022-05-29T10:01:01Z</time>
      </trkpt>
      <trkpt lat="48.26407" lon="-3.49859">
        <ele>207</ele>
        <time>2022-05-29T10:01:05Z</time>
      </trkpt>
      <trkpt lat="48.26401" lon="-3.4984">
        <ele>206.6</ele>
        <time>2022-05-29T10:01:07Z</time>
      </trkpt>
      <trkpt lat="48.26386" lon="-3.4979">
        <ele>206.3</ele>
        <time>2022-05-29T10:01:12Z</time>
      </trkpt>
      <trkpt lat="48.26367" lon="-3.4973">
        <ele>205.8</ele>
        <time>2022-05-29T10:01:19Z</time>
      </trkpt>
      <trkpt lat="48.26364" lon="-3.49721">
        <ele>205.8</ele>
        <time>2022-05-29T10:01:20Z</time>
      </trkpt>
      <trkpt lat="48.26347" lon="-3.49657">
        <ele>206.7</ele>
        <time>2022-05-29T10:01:28Z</time>
      </trkpt>
      <trkpt lat="48.26329" lon="-3.49587">
        <ele>207.8</ele>
        <time>2022-05-29T10:01:37Z</time>
      </trkpt>
      <trkpt lat="48.26316" lon="-3.49521">
        <ele>208.8</ele>
        <time>2022-05-29T10:01:46Z</time>
      </trkpt>
      <trkpt lat="48.26308" lon="-3.49477">
        <ele>209.6</ele>
        <time>2022-05-29T10:01:53Z</time>
      </trkpt>
      <trkpt lat="48.26307" lon="-3.49471">
        <ele>209.8</ele>
        <time>2022-05-29T10:01:54Z</time>
      </trkpt>
      <trkpt lat="48.26289" lon="-3.49403">
        <ele>212</ele>
        <time>2022-05-29T10:02:06Z</time>
      </trkpt>
      <trkpt lat="48.26282" lon="-3.49376">
        <ele>212.9</ele>
        <time>2022-05-29T10:02:11Z</time>
      </trkpt>
      <trkpt lat="48.26272" lon="-3.49337">
        <ele>214.2</ele>
        <time>2022-05-29T10:02:18Z</time>
      </trkpt>
      <trkpt lat="48.26258" lon="-3.4928">
        <ele>216.2</ele>
        <time>2022-05-29T10:02:28Z</time>
      </trkpt>
      <trkpt lat="48.26257" lon="-3.49274">
        <ele>216.4</ele>
        <time>2022-05-29T10:02:29Z</time>
      </trkpt>
      <trkpt lat="48.26243" lon="-3.49216">
        <ele>218.3</ele>
        <time>2022-05-29T10:02:39Z</time>
      </trkpt>
      <trkpt lat="48.26241" lon="-3.49204">
        <ele>218.7</ele>
        <time>2022-05-29T10:02:41Z</time>
      </trkpt>
      <trkpt lat="48.26233" lon="-3.49174">
        <ele>219.9</ele>
        <time>2022-05-29T10:02:47Z</time>
      </trkpt>
      <trkpt lat="48.26224" lon="-3.4914">
        <ele>221.4</ele>
        <time>2022-05-29T10:02:54Z</time>
      </trkpt>
      <trkpt lat="48.26211" lon="-3.49091">
        <ele>223.9</ele>
        <time>2022-05-29T10:03:05Z</time>
      </trkpt>
      <trkpt lat="48.26207" lon="-3.49074">
        <ele>224.8</ele>
        <time>2022-05-29T10:03:09Z</time>
      </trkpt>
      <trkpt lat="48.26199" lon="-3.49044">
        <ele>226.2</ele>
        <time>2022-05-29T10:03:16Z</time>
      </trkpt>
      <trkpt lat="48.2619" lon="-3.49016">
        <ele>227.7</ele>
        <time>2022-05-29T10:03:23Z</time>
      </trkpt>
      <trkpt lat="48.26182" lon="-3.48992">
        <ele>229.3</ele>
        <time>2022-05-29T10:03:29Z</time>
      </trkpt>
      <trkpt lat="48.26179" lon="-3.48983">
        <ele>229.7</ele>
        <time>2022-05-29T10:03:31Z</time>
      </trkpt>
      <trkpt lat="48.26176" lon="-3.48971">
        <ele>230.2</ele>
        <time>2022-05-29T10:03:34Z</time>
      </trkpt>
      <trkpt lat="48.26159" lon="-3.48918">
        <ele>232.9</ele>
        <time>2022-05-29T10:03:47Z</time>
      </trkpt>
      <trkpt lat="48.26155" lon="-3.48906">
        <ele>233.5</ele>
        <time>2022-05-29T10:03:50Z</time>
      </trkpt>
      <trkpt lat="48.26148" lon="-3.48875">
        <ele>235</ele>
        <time>2022-05-29T10:03:57Z</time>
      </trkpt>
      <trkpt lat="48.26137" lon="-3.48847">
        <ele>236.5</ele>
        <time>2022-05-29T10:04:04Z</time>
      </trkpt>
      <trkpt lat="48.26132" lon="-3.4883">
        <ele>237.3</ele>
        <time>2022-05-29T10:04:08Z</time>
      </trkpt>
      <trkpt lat="48.2613" lon="-3.48821">
        <ele>237.7</ele>
        <time>2022-05-29T10:04:10Z</time>
      </trkpt>
      <trkpt lat="48.26128" lon="-3.48818">
        <ele>237.9</ele>
        <time>2022-05-29T10:04:11Z</time>
      </trkpt>
      <trkpt lat="48.26127" lon="-3.48813">
        <ele>238</ele>
        <time>2022-05-29T10:04:12Z</time>
      </trkpt>
      <trkpt lat="48.26125" lon="-3.48809">
        <ele>238.2</ele>
        <time>2022-05-29T10:04:13Z</time>
      </trkpt>
      <trkpt lat="48.26104" lon="-3.48748">
        <ele>240.7</ele>
        <time>2022-05-29T10:04:27Z</time>
      </trkpt>
      <trkpt lat="48.26096" lon="-3.48725">
        <ele>241.6</ele>
        <time>2022-05-29T10:04:32Z</time>
      </trkpt>
      <trkpt lat="48.26084" lon="-3.48687">
        <ele>242.5</ele>
        <time>2022-05-29T10:04:40Z</time>
      </trkpt>
      <trkpt lat="48.26064" lon="-3.48627">
        <ele>243.7</ele>
        <time>2022-05-29T10:04:51Z</time>
      </trkpt>
      <trkpt lat="48.26055" lon="-3.48596">
        <ele>244.2</ele>
        <time>2022-05-29T10:04:56Z</time>
      </trkpt>
      <trkpt lat="48.26045" lon="-3.48565">
        <ele>244.1</ele>
        <time>2022-05-29T10:05:01Z</time>
      </trkpt>
      <trkpt lat="48.26042" lon="-3.48552">
        <ele>244</ele>
        <time>2022-05-29T10:05:03Z</time>
      </trkpt>
      <trkpt lat="48.26022" lon="-3.4849">
        <ele>243.6</ele>
        <time>2022-05-29T10:05:12Z</time>
      </trkpt>
      <trkpt lat="48.26009" lon="-3.48435">
        <ele>243.3</ele>
        <time>2022-05-29T10:05:19Z</time>
      </trkpt>
      <trkpt lat="48.26007" lon="-3.48427">
        <ele>243.3</ele>
        <time>2022-05-29T10:05:20Z</time>
      </trkpt>
      <trkpt lat="48.25992" lon="-3.48371">
        <ele>241.3</ele>
        <time>2022-05-29T10:05:26Z</time>
      </trkpt>
      <trkpt lat="48.25978" lon="-3.48304">
        <ele>238.8</ele>
        <time>2022-05-29T10:05:32Z</time>
      </trkpt>
      <trkpt lat="48.25968" lon="-3.48239">
        <ele>236.8</ele>
        <time>2022-05-29T10:05:37Z</time>
      </trkpt>
      <trkpt lat="48.25967" lon="-3.48226">
        <ele>236.3</ele>
        <time>2022-05-29T10:05:38Z</time>
      </trkpt>
      <trkpt lat="48.25971" lon="-3.48169">
        <ele>234.1</ele>
        <time>2022-05-29T10:05:42Z</time>
      </trkpt>
      <trkpt lat="48.2598" lon="-3.48111">
        <ele>231.8</ele>
        <time>2022-05-29T10:05:46Z</time>
      </trkpt>
      <trkpt lat="48.25995" lon="-3.48068">
        <ele>230.1</ele>
        <time>2022-05-29T10:05:49Z</time>
      </trkpt>
      <trkpt lat="48.2602" lon="-3.47994">
        <ele>226.1</ele>
        <time>2022-05-29T10:05:54Z</time>
      </trkpt>
      <trkpt lat="48.26026" lon="-3.47979">
        <ele>225.3</ele>
        <time>2022-05-29T10:05:55Z</time>
      </trkpt>
      <trkpt lat="48.26044" lon="-3.47934">
        <ele>223.4</ele>
        <time>2022-05-29T10:05:58Z</time>
      </trkpt>
      <trkpt lat="48.26053" lon="-3.47901">
        <ele>222.1</ele>
        <time>2022-05-29T10:06:00Z</time>
      </trkpt>
      <trkpt lat="48.26061" lon="-3.47868">
        <ele>220.8</ele>
        <time>2022-05-29T10:06:02Z</time>
      </trkpt>
      <trkpt lat="48.26069" lon="-3.47799">
        <ele>218.2</ele>
        <time>2022-05-29T10:06:06Z</time>
      </trkpt>
      <trkpt lat="48.26063" lon="-3.47703">
        <ele>216</ele>
        <time>2022-05-29T10:06:12Z</time>
      </trkpt>
      <trkpt lat="48.26057" lon="-3.47675">
        <ele>215.3</ele>
        <time>2022-05-29T10:06:14Z</time>
      </trkpt>
      <trkpt lat="48.26039" lon="-3.47629">
        <ele>213.9</ele>
        <time>2022-05-29T10:06:18Z</time>
      </trkpt>
      <trkpt lat="48.26029" lon="-3.47606">
        <ele>213.6</ele>
        <time>2022-05-29T10:06:20Z</time>
      </trkpt>
      <trkpt lat="48.26008" lon="-3.47571">
        <ele>213.3</ele>
        <time>2022-05-29T10:06:24Z</time>
      </trkpt>
      <trkpt lat="48.25997" lon="-3.47553">
        <ele>213.4</ele>
        <time>2022-05-29T10:06:26Z</time>
      </trkpt>
      <trkpt lat="48.25977" lon="-3.47525">
        <ele>213.5</ele>
        <time>2022-05-29T10:06:30Z</time>
      </trkpt>
      <trkpt lat="48.25962" lon="-3.47504">
        <ele>213.8</ele>
        <time>2022-05-29T10:06:33Z</time>
      </trkpt>
      <trkpt lat="48.25922" lon="-3.47456">
        <ele>214.8</ele>
        <time>2022-05-29T10:06:41Z</time>
      </trkpt>
      <trkpt lat="48.25888" lon="-3.47405">
        <ele>215.7</ele>
        <time>2022-05-29T10:06:48Z</time>
      </trkpt>
      <trkpt lat="48.25863" lon="-3.47344">
        <ele>216.8</ele>
        <time>2022-05-29T10:06:56Z</time>
      </trkpt>
      <trkpt lat="48.25857" lon="-3.47312">
        <ele>217.3</ele>
        <time>2022-05-29T10:07:00Z</time>
      </trkpt>
      <trkpt lat="48.2585" lon="-3.47271">
        <ele>217.8</ele>
        <time>2022-05-29T10:07:05Z</time>
      </trkpt>
      <trkpt lat="48.25847" lon="-3.47216">
        <ele>218.6</ele>
        <time>2022-05-29T10:07:12Z</time>
      </trkpt>
      <trkpt lat="48.25846" lon="-3.47208">
        <ele>218.8</ele>
        <time>2022-05-29T10:07:13Z</time>
      </trkpt>
      <trkpt lat="48.2584" lon="-3.4714">
        <ele>219.8</ele>
        <time>2022-05-29T10:07:22Z</time>
      </trkpt>
      <trkpt lat="48.25838" lon="-3.47067">
        <ele>220.9</ele>
        <time>2022-05-29T10:07:32Z</time>
      </trkpt>
      <trkpt lat="48.25835" lon="-3.46996">
        <ele>222.1</ele>
        <time>2022-05-29T10:07:42Z</time>
      </trkpt>
      <trkpt lat="48.25831" lon="-3.46927">
        <ele>223</ele>
        <time>2022-05-29T10:07:52Z</time>
      </trkpt>
      <trkpt lat="48.25827" lon="-3.46853">
        <ele>224</ele>
        <time>2022-05-29T10:08:02Z</time>
      </trkpt>
      <trkpt lat="48.25823" lon="-3.46786">
        <ele>224.8</ele>
        <time>2022-05-29T10:08:11Z</time>
      </trkpt>
      <trkpt lat="48.25821" lon="-3.46747">
        <ele>225.3</ele>
        <time>2022-05-29T10:08:16Z</time>
      </trkpt>
      <trkpt lat="48.25819" lon="-3.46716">
        <ele>225.6</ele>
        <time>2022-05-29T10:08:20Z</time>
      </trkpt>
      <trkpt lat="48.25816" lon="-3.46643">
        <ele>226.2</ele>
        <time>2022-05-29T10:08:29Z</time>
      </trkpt>
      <trkpt lat="48.25813" lon="-3.46568">
        <ele>226.8</ele>
        <time>2022-05-29T10:08:38Z</time>
      </trkpt>
      <trkpt lat="48.25812" lon="-3.46501">
        <ele>227.3</ele>
        <time>2022-05-29T10:08:46Z</time>
      </trkpt>
      <trkpt lat="48.25811" lon="-3.46432">
        <ele>227.8</ele>
        <time>2022-05-29T10:08:54Z</time>
      </trkpt>
      <trkpt lat="48.25809" lon="-3.46362">
        <ele>228.3</ele>
        <time>2022-05-29T10:09:02Z</time>
      </trkpt>
      <trkpt lat="48.25808" lon="-3.46344">
        <ele>228.4</ele>
        <time>2022-05-29T10:09:04Z</time>
      </trkpt>
      <trkpt lat="48.25806" lon="-3.46289">
        <ele>228.8</ele>
        <time>2022-05-29T10:09:10Z</time>
      </trkpt>
      <trkpt lat="48.25807" lon="-3.46216">
        <ele>229.4</ele>
        <time>2022-05-29T10:09:18Z</time>
      </trkpt>
      <trkpt lat="48.25806" lon="-3.46144">
        <ele>229.9</ele>
        <time>2022-05-29T10:09:26Z</time>
      </trkpt>
      <trkpt lat="48.25804" lon="-3.46073">
        <ele>230.4</ele>
        <time>2022-05-29T10:09:34Z</time>
      </trkpt>
      <trkpt lat="48.25803" lon="-3.46003">
        <ele>230.9</ele>
        <time>2022-05-29T10:09:42Z</time>
      </trkpt>
      <trkpt lat="48.258" lon="-3.45928">
        <ele>231.5</ele>
        <time>2022-05-29T10:09:51Z</time>
      </trkpt>
      <trkpt lat="48.258" lon="-3.45919">
        <ele>231.6</ele>
        <time>2022-05-29T10:09:52Z</time>
      </trkpt>
      <trkpt lat="48.25798" lon="-3.45852">
        <ele>231.9</ele>
        <time>2022-05-29T10:10:00Z</time>
      </trkpt>
      <trkpt lat="48.25795" lon="-3.45784">
        <ele>232.3</ele>
        <time>2022-05-29T10:10:08Z</time>
      </trkpt>
      <trkpt lat="48.25793" lon="-3.45715">
        <ele>232.7</ele>
        <time>2022-05-29T10:10:16Z</time>
      </trkpt>
      <trkpt lat="48.25789" lon="-3.45646">
        <ele>233.1</ele>
        <time>2022-05-29T10:10:24Z</time>
      </trkpt>
      <trkpt lat="48.25785" lon="-3.45575">
        <ele>233.5</ele>
        <time>2022-05-29T10:10:32Z</time>
      </trkpt>
      <trkpt lat="48.25779" lon="-3.45505">
        <ele>233.8</ele>
        <time>2022-05-29T10:10:40Z</time>
      </trkpt>
      <trkpt lat="48.25774" lon="-3.45434">
        <ele>234.2</ele>
        <time>2022-05-29T10:10:48Z</time>
      </trkpt>
      <trkpt lat="48.25768" lon="-3.45366">
        <ele>234.6</ele>
        <time>2022-05-29T10:10:56Z</time>
      </trkpt>
      <trkpt lat="48.25762" lon="-3.45295">
        <ele>234.1</ele>
        <time>2022-05-29T10:11:04Z</time>
      </trkpt>
      <trkpt lat="48.25757" lon="-3.45218">
        <ele>233.5</ele>
        <time>2022-05-29T10:11:12Z</time>
      </trkpt>
      <trkpt lat="48.25752" lon="-3.45145">
        <ele>233</ele>
        <time>2022-05-29T10:11:19Z</time>
      </trkpt>
      <trkpt lat="48.25752" lon="-3.45133">
        <ele>232.9</ele>
        <time>2022-05-29T10:11:20Z</time>
      </trkpt>
      <trkpt lat="48.25747" lon="-3.45073">
        <ele>231.6</ele>
        <time>2022-05-29T10:11:25Z</time>
      </trkpt>
      <trkpt lat="48.25747" lon="-3.4506">
        <ele>231.3</ele>
        <time>2022-05-29T10:11:26Z</time>
      </trkpt>
      <trkpt lat="48.25743" lon="-3.45006">
        <ele>229.8</ele>
        <time>2022-05-29T10:11:30Z</time>
      </trkpt>
      <trkpt lat="48.25738" lon="-3.44926">
        <ele>227.6</ele>
        <time>2022-05-29T10:11:36Z</time>
      </trkpt>
      <trkpt lat="48.25737" lon="-3.44899">
        <ele>226.9</ele>
        <time>2022-05-29T10:11:38Z</time>
      </trkpt>
      <trkpt lat="48.25734" lon="-3.44847">
        <ele>225.5</ele>
        <time>2022-05-29T10:11:42Z</time>
      </trkpt>
      <trkpt lat="48.2573" lon="-3.44772">
        <ele>223.5</ele>
        <time>2022-05-29T10:11:48Z</time>
      </trkpt>
      <trkpt lat="48.25727" lon="-3.44746">
        <ele>222.8</ele>
        <time>2022-05-29T10:11:50Z</time>
      </trkpt>
      <trkpt lat="48.25721" lon="-3.44698">
        <ele>221.7</ele>
        <time>2022-05-29T10:11:54Z</time>
      </trkpt>
      <trkpt lat="48.25715" lon="-3.44686">
        <ele>221.2</ele>
        <time>2022-05-29T10:11:56Z</time>
      </trkpt>
      <trkpt lat="48.25707" lon="-3.44682">
        <ele>220.9</ele>
        <time>2022-05-29T10:11:57Z</time>
      </trkpt>
      <trkpt lat="48.25685" lon="-3.44663">
        <ele>219.9</ele>
        <time>2022-05-29T10:12:01Z</time>
      </trkpt>
      <trkpt lat="48.25666" lon="-3.44641">
        <ele>219.4</ele>
        <time>2022-05-29T10:12:05Z</time>
      </trkpt>
      <trkpt lat="48.25657" lon="-3.44628">
        <ele>219.2</ele>
        <time>2022-05-29T10:12:07Z</time>
      </trkpt>
      <trkpt lat="48.25638" lon="-3.4462">
        <ele>219</ele>
        <time>2022-05-29T10:12:10Z</time>
      </trkpt>
      <trkpt lat="48.25591" lon="-3.44621">
        <ele>218.3</ele>
        <time>2022-05-29T10:12:17Z</time>
      </trkpt>
      <trkpt lat="48.25548" lon="-3.4462">
        <ele>219.2</ele>
        <time>2022-05-29T10:12:23Z</time>
      </trkpt>
      <trkpt lat="48.25531" lon="-3.44626">
        <ele>219.7</ele>
        <time>2022-05-29T10:12:26Z</time>
      </trkpt>
      <trkpt lat="48.25485" lon="-3.4463">
        <ele>221.2</ele>
        <time>2022-05-29T10:12:35Z</time>
      </trkpt>
      <trkpt lat="48.25439" lon="-3.44634">
        <ele>222.7</ele>
        <time>2022-05-29T10:12:45Z</time>
      </trkpt>
      <trkpt lat="48.25392" lon="-3.44638">
        <ele>224.1</ele>
        <time>2022-05-29T10:12:55Z</time>
      </trkpt>
      <trkpt lat="48.25372" lon="-3.4464">
        <ele>224.7</ele>
        <time>2022-05-29T10:12:59Z</time>
      </trkpt>
      <trkpt lat="48.25347" lon="-3.44643">
        <ele>224.6</ele>
        <time>2022-05-29T10:13:04Z</time>
      </trkpt>
      <trkpt lat="48.25298" lon="-3.44647">
        <ele>224.3</ele>
        <time>2022-05-29T10:13:13Z</time>
      </trkpt>
      <trkpt lat="48.25252" lon="-3.44647">
        <ele>224</ele>
        <time>2022-05-29T10:13:21Z</time>
      </trkpt>
      <trkpt lat="48.25204" lon="-3.44645">
        <ele>223.7</ele>
        <time>2022-05-29T10:13:29Z</time>
      </trkpt>
      <trkpt lat="48.25162" lon="-3.44642">
        <ele>223.5</ele>
        <time>2022-05-29T10:13:35Z</time>
      </trkpt>
      <trkpt lat="48.25155" lon="-3.44641">
        <ele>223.4</ele>
        <time>2022-05-29T10:13:36Z</time>
      </trkpt>
      <trkpt lat="48.25113" lon="-3.44635">
        <ele>222</ele>
        <time>2022-05-29T10:13:41Z</time>
      </trkpt>
      <trkpt lat="48.25104" lon="-3.44634">
        <ele>221.8</ele>
        <time>2022-05-29T10:13:42Z</time>
      </trkpt>
      <trkpt lat="48.25053" lon="-3.4462">
        <ele>220.9</ele>
        <time>2022-05-29T10:13:48Z</time>
      </trkpt>
      <trkpt lat="48.25019" lon="-3.44609">
        <ele>220.2</ele>
        <time>2022-05-29T10:13:53Z</time>
      </trkpt>
      <trkpt lat="48.25005" lon="-3.44604">
        <ele>220.5</ele>
        <time>2022-05-29T10:13:55Z</time>
      </trkpt>
      <trkpt lat="48.24988" lon="-3.44597">
        <ele>221.6</ele>
        <time>2022-05-29T10:13:59Z</time>
      </trkpt>
      <trkpt lat="48.24968" lon="-3.44588">
        <ele>222.9</ele>
        <time>2022-05-29T10:14:04Z</time>
      </trkpt>
      <trkpt lat="48.24959" lon="-3.44585">
        <ele>223.3</ele>
        <time>2022-05-29T10:14:06Z</time>
      </trkpt>
      <trkpt lat="48.24947" lon="-3.44576">
        <ele>223.8</ele>
        <time>2022-05-29T10:14:09Z</time>
      </trkpt>
      <trkpt lat="48.24918" lon="-3.44555">
        <ele>224.8</ele>
        <time>2022-05-29T10:14:16Z</time>
      </trkpt>
      <trkpt lat="48.24874" lon="-3.4453">
        <ele>226.4</ele>
        <time>2022-05-29T10:14:27Z</time>
      </trkpt>
      <trkpt lat="48.24857" lon="-3.44519">
        <ele>227</ele>
        <time>2022-05-29T10:14:31Z</time>
      </trkpt>
      <trkpt lat="48.2483" lon="-3.44503">
        <ele>227.5</ele>
        <time>2022-05-29T10:14:37Z</time>
      </trkpt>
      <trkpt lat="48.24785" lon="-3.44477">
        <ele>228.2</ele>
        <time>2022-05-29T10:14:46Z</time>
      </trkpt>
      <trkpt lat="48.24742" lon="-3.44452">
        <ele>228.9</ele>
        <time>2022-05-29T10:14:54Z</time>
      </trkpt>
      <trkpt lat="48.24727" lon="-3.44444">
        <ele>229.1</ele>
        <time>2022-05-29T10:14:57Z</time>
      </trkpt>
      <trkpt lat="48.24694" lon="-3.44426">
        <ele>229.7</ele>
        <time>2022-05-29T10:15:04Z</time>
      </trkpt>
      <trkpt lat="48.2467" lon="-3.44409">
        <ele>230.1</ele>
        <time>2022-05-29T10:15:09Z</time>
      </trkpt>
      <trkpt lat="48.24652" lon="-3.444">
        <ele>230.4</ele>
        <time>2022-05-29T10:15:13Z</time>
      </trkpt>
      <trkpt lat="48.24643" lon="-3.44395">
        <ele>230.5</ele>
        <time>2022-05-29T10:15:15Z</time>
      </trkpt>
      <trkpt lat="48.24639" lon="-3.44392">
        <ele>230.6</ele>
        <time>2022-05-29T10:15:16Z</time>
      </trkpt>
      <trkpt lat="48.24625" lon="-3.44385">
        <ele>230.8</ele>
        <time>2022-05-29T10:15:19Z</time>
      </trkpt>
      <trkpt lat="48.24599" lon="-3.44372">
        <ele>231.8</ele>
        <time>2022-05-29T10:15:25Z</time>
      </trkpt>
      <trkpt lat="48.2459" lon="-3.44368">
        <ele>232.2</ele>
        <time>2022-05-29T10:15:27Z</time>
      </trkpt>
      <trkpt lat="48.2457" lon="-3.44363">
        <ele>233.1</ele>
        <time>2022-05-29T10:15:31Z</time>
      </trkpt>
      <trkpt lat="48.24545" lon="-3.44357">
        <ele>233.9</ele>
        <time>2022-05-29T10:15:36Z</time>
      </trkpt>
      <trkpt lat="48.24499" lon="-3.44344">
        <ele>235.4</ele>
        <time>2022-05-29T10:15:46Z</time>
      </trkpt>
      <trkpt lat="48.24455" lon="-3.4433">
        <ele>236.8</ele>
        <time>2022-05-29T10:15:55Z</time>
      </trkpt>
      <trkpt lat="48.24451" lon="-3.44328">
        <ele>237</ele>
        <time>2022-05-29T10:15:56Z</time>
      </trkpt>
      <trkpt lat="48.24406" lon="-3.44314">
        <ele>239.2</ele>
        <time>2022-05-29T10:16:07Z</time>
      </trkpt>
      <trkpt lat="48.24386" lon="-3.44308">
        <ele>240.5</ele>
        <time>2022-05-29T10:16:13Z</time>
      </trkpt>
      <trkpt lat="48.24361" lon="-3.44299">
        <ele>242.4</ele>
        <time>2022-05-29T10:16:21Z</time>
      </trkpt>
      <trkpt lat="48.24335" lon="-3.44292">
        <ele>244.4</ele>
        <time>2022-05-29T10:16:29Z</time>
      </trkpt>
      <trkpt lat="48.24315" lon="-3.44287">
        <ele>246</ele>
        <time>2022-05-29T10:16:35Z</time>
      </trkpt>
      <trkpt lat="48.24279" lon="-3.44277">
        <ele>248.4</ele>
        <time>2022-05-29T10:16:47Z</time>
      </trkpt>
      <trkpt lat="48.2427" lon="-3.44274">
        <ele>249.1</ele>
        <time>2022-05-29T10:16:50Z</time>
      </trkpt>
      <trkpt lat="48.24227" lon="-3.4426">
        <ele>252.1</ele>
        <time>2022-05-29T10:17:05Z</time>
      </trkpt>
      <trkpt lat="48.24224" lon="-3.44259">
        <ele>252.3</ele>
        <time>2022-05-29T10:17:06Z</time>
      </trkpt>
      <trkpt lat="48.24179" lon="-3.44246">
        <ele>255.7</ele>
        <time>2022-05-29T10:17:21Z</time>
      </trkpt>
      <trkpt lat="48.24173" lon="-3.44244">
        <ele>256.2</ele>
        <time>2022-05-29T10:17:23Z</time>
      </trkpt>
      <trkpt lat="48.24134" lon="-3.44232">
        <ele>259</ele>
        <time>2022-05-29T10:17:36Z</time>
      </trkpt>
      <trkpt lat="48.24119" lon="-3.44228">
        <ele>260</ele>
        <time>2022-05-29T10:17:41Z</time>
      </trkpt>
      <trkpt lat="48.24101" lon="-3.44222">
        <ele>261.8</ele>
        <time>2022-05-29T10:17:47Z</time>
      </trkpt>
      <trkpt lat="48.24086" lon="-3.44217">
        <ele>262.4</ele>
        <time>2022-05-29T10:17:52Z</time>
      </trkpt>
      <trkpt lat="48.24083" lon="-3.44216">
        <ele>262.6</ele>
        <time>2022-05-29T10:17:53Z</time>
      </trkpt>
      <trkpt lat="48.24042" lon="-3.44203">
        <ele>264.9</ele>
        <time>2022-05-29T10:18:05Z</time>
      </trkpt>
      <trkpt lat="48.24018" lon="-3.44195">
        <ele>266.1</ele>
        <time>2022-05-29T10:18:11Z</time>
      </trkpt>
      <trkpt lat="48.23997" lon="-3.44189">
        <ele>266.6</ele>
        <time>2022-05-29T10:18:16Z</time>
      </trkpt>
      <trkpt lat="48.23992" lon="-3.44188">
        <ele>266.7</ele>
        <time>2022-05-29T10:18:17Z</time>
      </trkpt>
      <trkpt lat="48.23951" lon="-3.44181">
        <ele>265.6</ele>
        <time>2022-05-29T10:18:24Z</time>
      </trkpt>
      <trkpt lat="48.23929" lon="-3.44185">
        <ele>265.1</ele>
        <time>2022-05-29T10:18:27Z</time>
      </trkpt>
      <trkpt lat="48.23921" lon="-3.44187">
        <ele>264.9</ele>
        <time>2022-05-29T10:18:28Z</time>
      </trkpt>
      <trkpt lat="48.23875" lon="-3.44219">
        <ele>263.7</ele>
        <time>2022-05-29T10:18:34Z</time>
      </trkpt>
      <trkpt lat="48.23828" lon="-3.44251">
        <ele>262.4</ele>
        <time>2022-05-29T10:18:40Z</time>
      </trkpt>
      <trkpt lat="48.23803" lon="-3.44273">
        <ele>261.6</ele>
        <time>2022-05-29T10:18:44Z</time>
      </trkpt>
      <trkpt lat="48.23806" lon="-3.44304">
        <ele>261.4</ele>
        <time>2022-05-29T10:18:45Z</time>
      </trkpt>
      <trkpt lat="48.23784" lon="-3.44332">
        <ele>260.3</ele>
        <time>2022-05-29T10:18:49Z</time>
      </trkpt>
      <trkpt lat="48.2374" lon="-3.44349">
        <ele>259</ele>
        <time>2022-05-29T10:18:54Z</time>
      </trkpt>
      <trkpt lat="48.23731" lon="-3.44353">
        <ele>258.8</ele>
        <time>2022-05-29T10:18:55Z</time>
      </trkpt>
      <trkpt lat="48.23719" lon="-3.44346">
        <ele>258.5</ele>
        <time>2022-05-29T10:18:56Z</time>
      </trkpt>
      <trkpt lat="48.23687" lon="-3.44349">
        <ele>258</ele>
        <time>2022-05-29T10:18:59Z</time>
      </trkpt>
      <trkpt lat="48.23661" lon="-3.4435">
        <ele>257.5</ele>
        <time>2022-05-29T10:19:02Z</time>
      </trkpt>
      <trkpt lat="48.23652" lon="-3.44347">
        <ele>257.4</ele>
        <time>2022-05-29T10:19:03Z</time>
      </trkpt>
      <trkpt lat="48.2364" lon="-3.44335">
        <ele>257.6</ele>
        <time>2022-05-29T10:19:05Z</time>
      </trkpt>
      <trkpt lat="48.23633" lon="-3.44331">
        <ele>257.6</ele>
        <time>2022-05-29T10:19:06Z</time>
      </trkpt>
      <trkpt lat="48.2362" lon="-3.44331">
        <ele>257.8</ele>
        <time>2022-05-29T10:19:08Z</time>
      </trkpt>
      <trkpt lat="48.23614" lon="-3.44331">
        <ele>257.8</ele>
        <time>2022-05-29T10:19:09Z</time>
      </trkpt>
      <trkpt lat="48.2361" lon="-3.44334">
        <ele>257.7</ele>
        <time>2022-05-29T10:19:10Z</time>
      </trkpt>
      <trkpt lat="48.23605" lon="-3.44331">
        <ele>257.6</ele>
        <time>2022-05-29T10:19:11Z</time>
      </trkpt>
      <trkpt lat="48.23594" lon="-3.44331">
        <ele>257.5</ele>
        <time>2022-05-29T10:19:13Z</time>
      </trkpt>
      <trkpt lat="48.23593" lon="-3.44339">
        <ele>257.5</ele>
        <time>2022-05-29T10:19:14Z</time>
      </trkpt>
      <trkpt lat="48.23589" lon="-3.44364">
        <ele>257.3</ele>
        <time>2022-05-29T10:19:17Z</time>
      </trkpt>
      <trkpt lat="48.23592" lon="-3.44376">
        <ele>257.2</ele>
        <time>2022-05-29T10:19:19Z</time>
      </trkpt>
      <trkpt lat="48.23599" lon="-3.44387">
        <ele>257.1</ele>
        <time>2022-05-29T10:19:21Z</time>
      </trkpt>
      <trkpt lat="48.23594" lon="-3.44384">
        <ele>256.8</ele>
        <time>2022-05-29T10:19:25Z</time>
      </trkpt>
      <trkpt lat="48.23591" lon="-3.44365">
        <ele>256.7</ele>
        <time>2022-05-29T10:19:27Z</time>
      </trkpt>
      <trkpt lat="48.23589" lon="-3.44365">
        <ele>256.4</ele>
        <time>2022-05-29T10:19:32Z</time>
      </trkpt>
      <trkpt lat="48.23587" lon="-3.44369">
        <ele>256.5</ele>
        <time>2022-05-29T10:19:35Z</time>
      </trkpt>
      <trkpt lat="48.23583" lon="-3.44364">
        <ele>256.6</ele>
        <time>2022-05-29T10:19:38Z</time>
      </trkpt>
      <trkpt lat="48.2358" lon="-3.4436">
        <ele>256.5</ele>
        <time>2022-05-29T10:19:40Z</time>
      </trkpt>
      <trkpt lat="48.23586" lon="-3.44354">
        <ele>256.2</ele>
        <time>2022-05-29T10:19:43Z</time>
      </trkpt>
      <trkpt lat="48.23586" lon="-3.44344">
        <ele>256</ele>
        <time>2022-05-29T10:19:45Z</time>
      </trkpt>
      <trkpt lat="48.23584" lon="-3.44339">
        <ele>255.9</ele>
        <time>2022-05-29T10:19:46Z</time>
      </trkpt>
      <trkpt lat="48.23582" lon="-3.44326">
        <ele>255.7</ele>
        <time>2022-05-29T10:19:48Z</time>
      </trkpt>
      <trkpt lat="48.23548" lon="-3.44285">
        <ele>255.1</ele>
        <time>2022-05-29T10:19:54Z</time>
      </trkpt>
      <trkpt lat="48.23532" lon="-3.44282">
        <ele>255</ele>
        <time>2022-05-29T10:19:55Z</time>
      </trkpt>
      <trkpt lat="48.23515" lon="-3.44209">
        <ele>254.1</ele>
        <time>2022-05-29T10:20:04Z</time>
      </trkpt>
      <trkpt lat="48.23517" lon="-3.44172">
        <ele>253.6</ele>
        <time>2022-05-29T10:20:08Z</time>
      </trkpt>
      <trkpt lat="48.23519" lon="-3.44135">
        <ele>253.3</ele>
        <time>2022-05-29T10:20:12Z</time>
      </trkpt>
      <trkpt lat="48.23521" lon="-3.44116">
        <ele>253.2</ele>
        <time>2022-05-29T10:20:14Z</time>
      </trkpt>
      <trkpt lat="48.23527" lon="-3.44061">
        <ele>253.9</ele>
        <time>2022-05-29T10:20:20Z</time>
      </trkpt>
      <trkpt lat="48.23534" lon="-3.43989">
        <ele>255</ele>
        <time>2022-05-29T10:20:29Z</time>
      </trkpt>
      <trkpt lat="48.23536" lon="-3.43971">
        <ele>255.4</ele>
        <time>2022-05-29T10:20:32Z</time>
      </trkpt>
      <trkpt lat="48.23536" lon="-3.43965">
        <ele>255.6</ele>
        <time>2022-05-29T10:20:33Z</time>
      </trkpt>
      <trkpt lat="48.23534" lon="-3.43938">
        <ele>256.9</ele>
        <time>2022-05-29T10:20:38Z</time>
      </trkpt>
      <trkpt lat="48.23529" lon="-3.43896">
        <ele>258.5</ele>
        <time>2022-05-29T10:20:46Z</time>
      </trkpt>
      <trkpt lat="48.23526" lon="-3.43876">
        <ele>259.2</ele>
        <time>2022-05-29T10:20:49Z</time>
      </trkpt>
      <trkpt lat="48.23518" lon="-3.43836">
        <ele>259.4</ele>
        <time>2022-05-29T10:20:55Z</time>
      </trkpt>
      <trkpt lat="48.23517" lon="-3.43829">
        <ele>259.5</ele>
        <time>2022-05-29T10:20:56Z</time>
      </trkpt>
      <trkpt lat="48.23503" lon="-3.43757">
        <ele>259.9</ele>
        <time>2022-05-29T10:21:05Z</time>
      </trkpt>
      <trkpt lat="48.23492" lon="-3.43688">
        <ele>260.3</ele>
        <time>2022-05-29T10:21:14Z</time>
      </trkpt>
      <trkpt lat="48.23487" lon="-3.43657">
        <ele>260.5</ele>
        <time>2022-05-29T10:21:19Z</time>
      </trkpt>
      <trkpt lat="48.23481" lon="-3.43621">
        <ele>261.7</ele>
        <time>2022-05-29T10:21:25Z</time>
      </trkpt>
      <trkpt lat="48.23466" lon="-3.43556">
        <ele>264.3</ele>
        <time>2022-05-29T10:21:37Z</time>
      </trkpt>
      <trkpt lat="48.2345" lon="-3.43489">
        <ele>265.6</ele>
        <time>2022-05-29T10:21:48Z</time>
      </trkpt>
      <trkpt lat="48.23448" lon="-3.43483">
        <ele>265.7</ele>
        <time>2022-05-29T10:21:49Z</time>
      </trkpt>
      <trkpt lat="48.23432" lon="-3.43427">
        <ele>265.1</ele>
        <time>2022-05-29T10:21:58Z</time>
      </trkpt>
      <trkpt lat="48.23413" lon="-3.43362">
        <ele>264.5</ele>
        <time>2022-05-29T10:22:07Z</time>
      </trkpt>
      <trkpt lat="48.23394" lon="-3.4329">
        <ele>263.9</ele>
        <time>2022-05-29T10:22:15Z</time>
      </trkpt>
      <trkpt lat="48.23382" lon="-3.43249">
        <ele>263.6</ele>
        <time>2022-05-29T10:22:19Z</time>
      </trkpt>
      <trkpt lat="48.23376" lon="-3.43229">
        <ele>263.1</ele>
        <time>2022-05-29T10:22:21Z</time>
      </trkpt>
      <trkpt lat="48.23363" lon="-3.43184">
        <ele>261.8</ele>
        <time>2022-05-29T10:22:25Z</time>
      </trkpt>
      <trkpt lat="48.23356" lon="-3.43161">
        <ele>261.2</ele>
        <time>2022-05-29T10:22:27Z</time>
      </trkpt>
      <trkpt lat="48.23336" lon="-3.43089">
        <ele>259.5</ele>
        <time>2022-05-29T10:22:33Z</time>
      </trkpt>
      <trkpt lat="48.23325" lon="-3.43052">
        <ele>258.7</ele>
        <time>2022-05-29T10:22:36Z</time>
      </trkpt>
      <trkpt lat="48.23315" lon="-3.43015">
        <ele>258.1</ele>
        <time>2022-05-29T10:22:39Z</time>
      </trkpt>
      <trkpt lat="48.23304" lon="-3.42979">
        <ele>257.5</ele>
        <time>2022-05-29T10:22:42Z</time>
      </trkpt>
      <trkpt lat="48.23292" lon="-3.42943">
        <ele>257.3</ele>
        <time>2022-05-29T10:22:45Z</time>
      </trkpt>
      <trkpt lat="48.23269" lon="-3.42874">
        <ele>257</ele>
        <time>2022-05-29T10:22:51Z</time>
      </trkpt>
      <trkpt lat="48.23242" lon="-3.42809">
        <ele>256.6</ele>
        <time>2022-05-29T10:22:58Z</time>
      </trkpt>
      <trkpt lat="48.23235" lon="-3.42793">
        <ele>256.4</ele>
        <time>2022-05-29T10:23:00Z</time>
      </trkpt>
      <trkpt lat="48.23231" lon="-3.42785">
        <ele>256.5</ele>
        <time>2022-05-29T10:23:01Z</time>
      </trkpt>
      <trkpt lat="48.23214" lon="-3.42753">
        <ele>257.6</ele>
        <time>2022-05-29T10:23:06Z</time>
      </trkpt>
      <trkpt lat="48.232" lon="-3.42728">
        <ele>258.8</ele>
        <time>2022-05-29T10:23:10Z</time>
      </trkpt>
      <trkpt lat="48.23194" lon="-3.42718">
        <ele>259.5</ele>
        <time>2022-05-29T10:23:12Z</time>
      </trkpt>
      <trkpt lat="48.23177" lon="-3.42688">
        <ele>260.9</ele>
        <time>2022-05-29T10:23:18Z</time>
      </trkpt>
      <trkpt lat="48.23167" lon="-3.42674">
        <ele>261.6</ele>
        <time>2022-05-29T10:23:21Z</time>
      </trkpt>
      <trkpt lat="48.23164" lon="-3.42669">
        <ele>261.9</ele>
        <time>2022-05-29T10:23:22Z</time>
      </trkpt>
      <trkpt lat="48.23159" lon="-3.42657">
        <ele>262.3</ele>
        <time>2022-05-29T10:23:24Z</time>
      </trkpt>
      <trkpt lat="48.23135" lon="-3.42614">
        <ele>263.3</ele>
        <time>2022-05-29T10:23:32Z</time>
      </trkpt>
      <trkpt lat="48.23127" lon="-3.42595">
        <ele>263.7</ele>
        <time>2022-05-29T10:23:35Z</time>
      </trkpt>
      <trkpt lat="48.23111" lon="-3.42554">
        <ele>263.9</ele>
        <time>2022-05-29T10:23:41Z</time>
      </trkpt>
      <trkpt lat="48.231" lon="-3.42484">
        <ele>264</ele>
        <time>2022-05-29T10:23:49Z</time>
      </trkpt>
      <trkpt lat="48.23091" lon="-3.42419">
        <ele>264.2</ele>
        <time>2022-05-29T10:23:56Z</time>
      </trkpt>
      <trkpt lat="48.2307" lon="-3.42357">
        <ele>264.3</ele>
        <time>2022-05-29T10:24:04Z</time>
      </trkpt>
      <trkpt lat="48.23055" lon="-3.42313">
        <ele>264.5</ele>
        <time>2022-05-29T10:24:11Z</time>
      </trkpt>
      <trkpt lat="48.23049" lon="-3.42294">
        <ele>265</ele>
        <time>2022-05-29T10:24:14Z</time>
      </trkpt>
      <trkpt lat="48.23028" lon="-3.42233">
        <ele>267.6</ele>
        <time>2022-05-29T10:24:26Z</time>
      </trkpt>
      <trkpt lat="48.23023" lon="-3.42218">
        <ele>268.2</ele>
        <time>2022-05-29T10:24:29Z</time>
      </trkpt>
      <trkpt lat="48.23011" lon="-3.42181">
        <ele>269.5</ele>
        <time>2022-05-29T10:24:36Z</time>
      </trkpt>
      <trkpt lat="48.22988" lon="-3.42123">
        <ele>271.3</ele>
        <time>2022-05-29T10:24:47Z</time>
      </trkpt>
      <trkpt lat="48.22982" lon="-3.42107">
        <ele>271.8</ele>
        <time>2022-05-29T10:24:50Z</time>
      </trkpt>
      <trkpt lat="48.22965" lon="-3.42061">
        <ele>273</ele>
        <time>2022-05-29T10:24:59Z</time>
      </trkpt>
      <trkpt lat="48.22963" lon="-3.42055">
        <ele>273.1</ele>
        <time>2022-05-29T10:25:00Z</time>
      </trkpt>
      <trkpt lat="48.22944" lon="-3.42">
        <ele>273.7</ele>
        <time>2022-05-29T10:25:10Z</time>
      </trkpt>
      <trkpt lat="48.22921" lon="-3.41937">
        <ele>274.1</ele>
        <time>2022-05-29T10:25:18Z</time>
      </trkpt>
      <trkpt lat="48.22901" lon="-3.41876">
        <ele>274.6</ele>
        <time>2022-05-29T10:25:26Z</time>
      </trkpt>
      <trkpt lat="48.2288" lon="-3.41816">
        <ele>275</ele>
        <time>2022-05-29T10:25:34Z</time>
      </trkpt>
      <trkpt lat="48.22854" lon="-3.41752">
        <ele>275.5</ele>
        <time>2022-05-29T10:25:42Z</time>
      </trkpt>
      <trkpt lat="48.22823" lon="-3.41694">
        <ele>275.9</ele>
        <time>2022-05-29T10:25:50Z</time>
      </trkpt>
      <trkpt lat="48.2279" lon="-3.4164">
        <ele>276.3</ele>
        <time>2022-05-29T10:25:58Z</time>
      </trkpt>
      <trkpt lat="48.22756" lon="-3.41589">
        <ele>276.8</ele>
        <time>2022-05-29T10:26:07Z</time>
      </trkpt>
      <trkpt lat="48.22724" lon="-3.41541">
        <ele>278.3</ele>
        <time>2022-05-29T10:26:16Z</time>
      </trkpt>
      <trkpt lat="48.2269" lon="-3.41496">
        <ele>279.8</ele>
        <time>2022-05-29T10:26:25Z</time>
      </trkpt>
      <trkpt lat="48.22656" lon="-3.41449">
        <ele>282.7</ele>
        <time>2022-05-29T10:26:36Z</time>
      </trkpt>
      <trkpt lat="48.22653" lon="-3.41445">
        <ele>282.9</ele>
        <time>2022-05-29T10:26:37Z</time>
      </trkpt>
      <trkpt lat="48.22639" lon="-3.41424">
        <ele>284</ele>
        <time>2022-05-29T10:26:42Z</time>
      </trkpt>
      <trkpt lat="48.22622" lon="-3.41399">
        <ele>285.5</ele>
        <time>2022-05-29T10:26:48Z</time>
      </trkpt>
      <trkpt lat="48.22597" lon="-3.41363">
        <ele>288</ele>
        <time>2022-05-29T10:26:58Z</time>
      </trkpt>
      <trkpt lat="48.22589" lon="-3.41352">
        <ele>288.6</ele>
        <time>2022-05-29T10:27:01Z</time>
      </trkpt>
      <trkpt lat="48.22555" lon="-3.41302">
        <ele>291.2</ele>
        <time>2022-05-29T10:27:15Z</time>
      </trkpt>
      <trkpt lat="48.22553" lon="-3.41299">
        <ele>291.4</ele>
        <time>2022-05-29T10:27:16Z</time>
      </trkpt>
      <trkpt lat="48.22521" lon="-3.41252">
        <ele>292.8</ele>
        <time>2022-05-29T10:27:28Z</time>
      </trkpt>
      <trkpt lat="48.22486" lon="-3.41201">
        <ele>294.1</ele>
        <time>2022-05-29T10:27:40Z</time>
      </trkpt>
      <trkpt lat="48.22453" lon="-3.4115">
        <ele>294.7</ele>
        <time>2022-05-29T10:27:50Z</time>
      </trkpt>
      <trkpt lat="48.22423" lon="-3.41095">
        <ele>295.2</ele>
        <time>2022-05-29T10:27:59Z</time>
      </trkpt>
      <trkpt lat="48.22392" lon="-3.41036">
        <ele>295.7</ele>
        <time>2022-05-29T10:28:08Z</time>
      </trkpt>
      <trkpt lat="48.2236" lon="-3.40979">
        <ele>296.2</ele>
        <time>2022-05-29T10:28:17Z</time>
      </trkpt>
      <trkpt lat="48.22331" lon="-3.40923">
        <ele>296.8</ele>
        <time>2022-05-29T10:28:26Z</time>
      </trkpt>
      <trkpt lat="48.22306" lon="-3.40875">
        <ele>297.2</ele>
        <time>2022-05-29T10:28:34Z</time>
      </trkpt>
      <trkpt lat="48.22303" lon="-3.40869">
        <ele>297.3</ele>
        <time>2022-05-29T10:28:35Z</time>
      </trkpt>
      <trkpt lat="48.22288" lon="-3.40841">
        <ele>297.8</ele>
        <time>2022-05-29T10:28:40Z</time>
      </trkpt>
      <trkpt lat="48.22273" lon="-3.40813">
        <ele>298.3</ele>
        <time>2022-05-29T10:28:45Z</time>
      </trkpt>
      <trkpt lat="48.2227" lon="-3.40807">
        <ele>298.4</ele>
        <time>2022-05-29T10:28:46Z</time>
      </trkpt>
      <trkpt lat="48.22253" lon="-3.40775">
        <ele>299.5</ele>
        <time>2022-05-29T10:28:52Z</time>
      </trkpt>
      <trkpt lat="48.22244" lon="-3.40759">
        <ele>300</ele>
        <time>2022-05-29T10:28:55Z</time>
      </trkpt>
      <trkpt lat="48.22214" lon="-3.40701">
        <ele>301.8</ele>
        <time>2022-05-29T10:29:06Z</time>
      </trkpt>
      <trkpt lat="48.22189" lon="-3.40655">
        <ele>303.5</ele>
        <time>2022-05-29T10:29:16Z</time>
      </trkpt>
      <trkpt lat="48.22184" lon="-3.40645">
        <ele>303.9</ele>
        <time>2022-05-29T10:29:18Z</time>
      </trkpt>
      <trkpt lat="48.22154" lon="-3.40589">
        <ele>307.9</ele>
        <time>2022-05-29T10:29:34Z</time>
      </trkpt>
      <trkpt lat="48.22145" lon="-3.40574">
        <ele>309.9</ele>
        <time>2022-05-29T10:29:40Z</time>
      </trkpt>
      <trkpt lat="48.22129" lon="-3.40545">
        <ele>312.8</ele>
        <time>2022-05-29T10:29:52Z</time>
      </trkpt>
      <trkpt lat="48.22124" lon="-3.40537">
        <ele>313.8</ele>
        <time>2022-05-29T10:29:55Z</time>
      </trkpt>
      <trkpt lat="48.22119" lon="-3.4053">
        <ele>314.9</ele>
        <time>2022-05-29T10:29:58Z</time>
      </trkpt>
      <trkpt lat="48.22108" lon="-3.40516">
        <ele>316.1</ele>
        <time>2022-05-29T10:30:04Z</time>
      </trkpt>
      <trkpt lat="48.22093" lon="-3.40497">
        <ele>318.1</ele>
        <time>2022-05-29T10:30:12Z</time>
      </trkpt>
      <trkpt lat="48.22084" lon="-3.40493">
        <ele>319.1</ele>
        <time>2022-05-29T10:30:16Z</time>
      </trkpt>
      <trkpt lat="48.22077" lon="-3.40491">
        <ele>319.5</ele>
        <time>2022-05-29T10:30:19Z</time>
      </trkpt>
      <trkpt lat="48.22074" lon="-3.40485">
        <ele>319.7</ele>
        <time>2022-05-29T10:30:21Z</time>
      </trkpt>
      <trkpt lat="48.22073" lon="-3.40481">
        <ele>319.8</ele>
        <time>2022-05-29T10:30:22Z</time>
      </trkpt>
      <trkpt lat="48.22077" lon="-3.40456">
        <ele>320.2</ele>
        <time>2022-05-29T10:30:28Z</time>
      </trkpt>
      <trkpt lat="48.2208" lon="-3.40436">
        <ele>320.4</ele>
        <time>2022-05-29T10:30:33Z</time>
      </trkpt>
      <trkpt lat="48.22087" lon="-3.40366">
        <ele>320.7</ele>
        <time>2022-05-29T10:30:42Z</time>
      </trkpt>
      <trkpt lat="48.22102" lon="-3.40294">
        <ele>320.9</ele>
        <time>2022-05-29T10:30:49Z</time>
      </trkpt>
      <trkpt lat="48.2212" lon="-3.40224">
        <ele>321.1</ele>
        <time>2022-05-29T10:30:56Z</time>
      </trkpt>
      <trkpt lat="48.22126" lon="-3.40206">
        <ele>321.2</ele>
        <time>2022-05-29T10:30:58Z</time>
      </trkpt>
      <trkpt lat="48.22142" lon="-3.40163">
        <ele>321.3</ele>
        <time>2022-05-29T10:31:03Z</time>
      </trkpt>
      <trkpt lat="48.22171" lon="-3.40103">
        <ele>321.6</ele>
        <time>2022-05-29T10:31:11Z</time>
      </trkpt>
      <trkpt lat="48.22191" lon="-3.40039">
        <ele>321.9</ele>
        <time>2022-05-29T10:31:19Z</time>
      </trkpt>
      <trkpt lat="48.22207" lon="-3.39974">
        <ele>322.1</ele>
        <time>2022-05-29T10:31:28Z</time>
      </trkpt>
      <trkpt lat="48.22211" lon="-3.39948">
        <ele>322.3</ele>
        <time>2022-05-29T10:31:32Z</time>
      </trkpt>
      <trkpt lat="48.22219" lon="-3.39904">
        <ele>323.5</ele>
        <time>2022-05-29T10:31:39Z</time>
      </trkpt>
      <trkpt lat="48.22232" lon="-3.39839">
        <ele>325.3</ele>
        <time>2022-05-29T10:31:49Z</time>
      </trkpt>
      <trkpt lat="48.22233" lon="-3.39832">
        <ele>325.4</ele>
        <time>2022-05-29T10:31:50Z</time>
      </trkpt>
      <trkpt lat="48.22236" lon="-3.3977">
        <ele>325.5</ele>
        <time>2022-05-29T10:32:00Z</time>
      </trkpt>
      <trkpt lat="48.2225" lon="-3.39706">
        <ele>325.1</ele>
        <time>2022-05-29T10:32:07Z</time>
      </trkpt>
      <trkpt lat="48.2225" lon="-3.39706">
        <ele>325.1</ele>
        <time>2022-05-29T11:02:41Z</time>
      </trkpt>
      <trkpt lat="48.22263" lon="-3.39655">
        <ele>324.8</ele>
        <time>2022-05-29T11:02:41Z</time>
      </trkpt>
      <trkpt lat="48.22267" lon="-3.39644">
        <ele>324.8</ele>
        <time>2022-05-29T11:02:43Z</time>
      </trkpt>
      <trkpt lat="48.22282" lon="-3.39572">
        <ele>324.8</ele>
        <time>2022-05-29T11:02:53Z</time>
      </trkpt>
      <trkpt lat="48.22288" lon="-3.39534">
        <ele>324.8</ele>
        <time>2022-05-29T11:02:58Z</time>
      </trkpt>
      <trkpt lat="48.22292" lon="-3.39504">
        <ele>324.8</ele>
        <time>2022-05-29T11:03:02Z</time>
      </trkpt>
      <trkpt lat="48.22294" lon="-3.39431">
        <ele>324.8</ele>
        <time>2022-05-29T11:03:13Z</time>
      </trkpt>
      <trkpt lat="48.22307" lon="-3.39364">
        <ele>324.8</ele>
        <time>2022-05-29T11:03:22Z</time>
      </trkpt>
      <trkpt lat="48.22328" lon="-3.393">
        <ele>324.7</ele>
        <time>2022-05-29T11:03:30Z</time>
      </trkpt>
      <trkpt lat="48.22338" lon="-3.39263">
        <ele>324.5</ele>
        <time>2022-05-29T11:03:34Z</time>
      </trkpt>
      <trkpt lat="48.22343" lon="-3.39243">
        <ele>323.7</ele>
        <time>2022-05-29T11:03:36Z</time>
      </trkpt>
      <trkpt lat="48.22344" lon="-3.39207">
        <ele>322.4</ele>
        <time>2022-05-29T11:03:39Z</time>
      </trkpt>
      <trkpt lat="48.22345" lon="-3.39172">
        <ele>321.1</ele>
        <time>2022-05-29T11:03:42Z</time>
      </trkpt>
      <trkpt lat="48.22344" lon="-3.39096">
        <ele>318.7</ele>
        <time>2022-05-29T11:03:48Z</time>
      </trkpt>
      <trkpt lat="48.22344" lon="-3.39081">
        <ele>318.2</ele>
        <time>2022-05-29T11:03:49Z</time>
      </trkpt>
      <trkpt lat="48.22341" lon="-3.39021">
        <ele>315.8</ele>
        <time>2022-05-29T11:03:53Z</time>
      </trkpt>
      <trkpt lat="48.22339" lon="-3.39005">
        <ele>315.1</ele>
        <time>2022-05-29T11:03:54Z</time>
      </trkpt>
      <trkpt lat="48.2233" lon="-3.3894">
        <ele>311.4</ele>
        <time>2022-05-29T11:03:58Z</time>
      </trkpt>
      <trkpt lat="48.22327" lon="-3.38923">
        <ele>310.7</ele>
        <time>2022-05-29T11:03:59Z</time>
      </trkpt>
      <trkpt lat="48.22316" lon="-3.38873">
        <ele>309.3</ele>
        <time>2022-05-29T11:04:02Z</time>
      </trkpt>
      <trkpt lat="48.22298" lon="-3.38813">
        <ele>307.5</ele>
        <time>2022-05-29T11:04:06Z</time>
      </trkpt>
      <trkpt lat="48.22285" lon="-3.38776">
        <ele>306.5</ele>
        <time>2022-05-29T11:04:09Z</time>
      </trkpt>
      <trkpt lat="48.22276" lon="-3.38754">
        <ele>307.2</ele>
        <time>2022-05-29T11:04:11Z</time>
      </trkpt>
      <trkpt lat="48.22266" lon="-3.38731">
        <ele>308.4</ele>
        <time>2022-05-29T11:04:14Z</time>
      </trkpt>
      <trkpt lat="48.2225" lon="-3.38695">
        <ele>310.6</ele>
        <time>2022-05-29T11:04:19Z</time>
      </trkpt>
      <trkpt lat="48.22233" lon="-3.38625">
        <ele>313.5</ele>
        <time>2022-05-29T11:04:30Z</time>
      </trkpt>
      <trkpt lat="48.22232" lon="-3.38595">
        <ele>314.3</ele>
        <time>2022-05-29T11:04:34Z</time>
      </trkpt>
      <trkpt lat="48.2223" lon="-3.38554">
        <ele>313.2</ele>
        <time>2022-05-29T11:04:39Z</time>
      </trkpt>
      <trkpt lat="48.22227" lon="-3.38488">
        <ele>311.9</ele>
        <time>2022-05-29T11:04:44Z</time>
      </trkpt>
      <trkpt lat="48.22235" lon="-3.38426">
        <ele>308.7</ele>
        <time>2022-05-29T11:04:48Z</time>
      </trkpt>
      <trkpt lat="48.22233" lon="-3.38407">
        <ele>307.6</ele>
        <time>2022-05-29T11:04:49Z</time>
      </trkpt>
      <trkpt lat="48.22226" lon="-3.38349">
        <ele>303.2</ele>
        <time>2022-05-29T11:04:52Z</time>
      </trkpt>
      <trkpt lat="48.22219" lon="-3.3833">
        <ele>301.8</ele>
        <time>2022-05-29T11:04:53Z</time>
      </trkpt>
      <trkpt lat="48.22209" lon="-3.38316">
        <ele>300.4</ele>
        <time>2022-05-29T11:04:54Z</time>
      </trkpt>
      <trkpt lat="48.22184" lon="-3.38296">
        <ele>297.8</ele>
        <time>2022-05-29T11:04:56Z</time>
      </trkpt>
      <trkpt lat="48.22157" lon="-3.38284">
        <ele>295.3</ele>
        <time>2022-05-29T11:04:58Z</time>
      </trkpt>
      <trkpt lat="48.22131" lon="-3.38279">
        <ele>292.9</ele>
        <time>2022-05-29T11:05:00Z</time>
      </trkpt>
      <trkpt lat="48.22105" lon="-3.38273">
        <ele>291.5</ele>
        <time>2022-05-29T11:05:02Z</time>
      </trkpt>
      <trkpt lat="48.22075" lon="-3.3826">
        <ele>289.8</ele>
        <time>2022-05-29T11:05:05Z</time>
      </trkpt>
      <trkpt lat="48.22068" lon="-3.38256">
        <ele>290.1</ele>
        <time>2022-05-29T11:05:06Z</time>
      </trkpt>
      <trkpt lat="48.22063" lon="-3.38247">
        <ele>290.4</ele>
        <time>2022-05-29T11:05:07Z</time>
      </trkpt>
      <trkpt lat="48.22062" lon="-3.38233">
        <ele>290.8</ele>
        <time>2022-05-29T11:05:08Z</time>
      </trkpt>
      <trkpt lat="48.22064" lon="-3.38222">
        <ele>291.1</ele>
        <time>2022-05-29T11:05:09Z</time>
      </trkpt>
      <trkpt lat="48.22063" lon="-3.38201">
        <ele>291.7</ele>
        <time>2022-05-29T11:05:11Z</time>
      </trkpt>
      <trkpt lat="48.2206" lon="-3.38191">
        <ele>292</ele>
        <time>2022-05-29T11:05:12Z</time>
      </trkpt>
      <trkpt lat="48.22057" lon="-3.38182">
        <ele>292.4</ele>
        <time>2022-05-29T11:05:13Z</time>
      </trkpt>
      <trkpt lat="48.22055" lon="-3.38157">
        <ele>293.3</ele>
        <time>2022-05-29T11:05:16Z</time>
      </trkpt>
      <trkpt lat="48.22052" lon="-3.38124">
        <ele>294.1</ele>
        <time>2022-05-29T11:05:20Z</time>
      </trkpt>
      <trkpt lat="48.22037" lon="-3.38097">
        <ele>295</ele>
        <time>2022-05-29T11:05:24Z</time>
      </trkpt>
      <trkpt lat="48.22025" lon="-3.38085">
        <ele>295.2</ele>
        <time>2022-05-29T11:05:26Z</time>
      </trkpt>
      <trkpt lat="48.22012" lon="-3.38074">
        <ele>294.7</ele>
        <time>2022-05-29T11:05:28Z</time>
      </trkpt>
      <trkpt lat="48.21988" lon="-3.38061">
        <ele>293.9</ele>
        <time>2022-05-29T11:05:31Z</time>
      </trkpt>
      <trkpt lat="48.2197" lon="-3.3805">
        <ele>293.1</ele>
        <time>2022-05-29T11:05:33Z</time>
      </trkpt>
      <trkpt lat="48.21955" lon="-3.38028">
        <ele>292.2</ele>
        <time>2022-05-29T11:05:35Z</time>
      </trkpt>
      <trkpt lat="48.21952" lon="-3.38015">
        <ele>291.9</ele>
        <time>2022-05-29T11:05:36Z</time>
      </trkpt>
      <trkpt lat="48.2195" lon="-3.38003">
        <ele>291.9</ele>
        <time>2022-05-29T11:05:37Z</time>
      </trkpt>
      <trkpt lat="48.21944" lon="-3.37937">
        <ele>291.7</ele>
        <time>2022-05-29T11:05:42Z</time>
      </trkpt>
      <trkpt lat="48.21945" lon="-3.37903">
        <ele>291.6</ele>
        <time>2022-05-29T11:05:45Z</time>
      </trkpt>
      <trkpt lat="48.21946" lon="-3.3789">
        <ele>291.6</ele>
        <time>2022-05-29T11:05:46Z</time>
      </trkpt>
      <trkpt lat="48.21946" lon="-3.37879">
        <ele>291.8</ele>
        <time>2022-05-29T11:05:47Z</time>
      </trkpt>
      <trkpt lat="48.2196" lon="-3.37811">
        <ele>292.7</ele>
        <time>2022-05-29T11:05:54Z</time>
      </trkpt>
      <trkpt lat="48.21965" lon="-3.37793">
        <ele>292.9</ele>
        <time>2022-05-29T11:05:56Z</time>
      </trkpt>
      <trkpt lat="48.21978" lon="-3.37741">
        <ele>293.7</ele>
        <time>2022-05-29T11:06:02Z</time>
      </trkpt>
      <trkpt lat="48.21988" lon="-3.37711">
        <ele>294.3</ele>
        <time>2022-05-29T11:06:06Z</time>
      </trkpt>
      <trkpt lat="48.21989" lon="-3.37702">
        <ele>294.4</ele>
        <time>2022-05-29T11:06:07Z</time>
      </trkpt>
      <trkpt lat="48.2201" lon="-3.37641">
        <ele>295.5</ele>
        <time>2022-05-29T11:06:15Z</time>
      </trkpt>
      <trkpt lat="48.22013" lon="-3.37632">
        <ele>295.4</ele>
        <time>2022-05-29T11:06:16Z</time>
      </trkpt>
      <trkpt lat="48.22016" lon="-3.37623">
        <ele>295.2</ele>
        <time>2022-05-29T11:06:17Z</time>
      </trkpt>
      <trkpt lat="48.22037" lon="-3.37549">
        <ele>293.9</ele>
        <time>2022-05-29T11:06:24Z</time>
      </trkpt>
      <trkpt lat="48.22045" lon="-3.37526">
        <ele>293.4</ele>
        <time>2022-05-29T11:06:26Z</time>
      </trkpt>
      <trkpt lat="48.2206" lon="-3.3748">
        <ele>291.9</ele>
        <time>2022-05-29T11:06:30Z</time>
      </trkpt>
      <trkpt lat="48.22064" lon="-3.37469">
        <ele>291.6</ele>
        <time>2022-05-29T11:06:31Z</time>
      </trkpt>
      <trkpt lat="48.22086" lon="-3.37413">
        <ele>290.5</ele>
        <time>2022-05-29T11:06:36Z</time>
      </trkpt>
      <trkpt lat="48.22106" lon="-3.37357">
        <ele>289.3</ele>
        <time>2022-05-29T11:06:41Z</time>
      </trkpt>
      <trkpt lat="48.22109" lon="-3.37346">
        <ele>289.1</ele>
        <time>2022-05-29T11:06:42Z</time>
      </trkpt>
      <trkpt lat="48.22117" lon="-3.37321">
        <ele>288.5</ele>
        <time>2022-05-29T11:06:44Z</time>
      </trkpt>
      <trkpt lat="48.22135" lon="-3.37258">
        <ele>287.2</ele>
        <time>2022-05-29T11:06:49Z</time>
      </trkpt>
      <trkpt lat="48.22145" lon="-3.37233">
        <ele>286.7</ele>
        <time>2022-05-29T11:06:51Z</time>
      </trkpt>
      <trkpt lat="48.22159" lon="-3.37196">
        <ele>286.1</ele>
        <time>2022-05-29T11:06:54Z</time>
      </trkpt>
      <trkpt lat="48.22168" lon="-3.37172">
        <ele>285.9</ele>
        <time>2022-05-29T11:06:56Z</time>
      </trkpt>
      <trkpt lat="48.22172" lon="-3.37161">
        <ele>286</ele>
        <time>2022-05-29T11:06:57Z</time>
      </trkpt>
      <trkpt lat="48.22181" lon="-3.37131">
        <ele>286.4</ele>
        <time>2022-05-29T11:07:00Z</time>
      </trkpt>
      <trkpt lat="48.22183" lon="-3.37121">
        <ele>286.5</ele>
        <time>2022-05-29T11:07:01Z</time>
      </trkpt>
      <trkpt lat="48.2219" lon="-3.37081">
        <ele>287.1</ele>
        <time>2022-05-29T11:07:05Z</time>
      </trkpt>
      <trkpt lat="48.22192" lon="-3.37071">
        <ele>287.2</ele>
        <time>2022-05-29T11:07:06Z</time>
      </trkpt>
      <trkpt lat="48.22203" lon="-3.3702">
        <ele>286.9</ele>
        <time>2022-05-29T11:07:11Z</time>
      </trkpt>
      <trkpt lat="48.22205" lon="-3.37009">
        <ele>286.7</ele>
        <time>2022-05-29T11:07:12Z</time>
      </trkpt>
      <trkpt lat="48.22208" lon="-3.36986">
        <ele>286.4</ele>
        <time>2022-05-29T11:07:14Z</time>
      </trkpt>
      <trkpt lat="48.22204" lon="-3.36917">
        <ele>285.4</ele>
        <time>2022-05-29T11:07:20Z</time>
      </trkpt>
      <trkpt lat="48.222" lon="-3.36894">
        <ele>285.1</ele>
        <time>2022-05-29T11:07:22Z</time>
      </trkpt>
      <trkpt lat="48.22179" lon="-3.36831">
        <ele>284.8</ele>
        <time>2022-05-29T11:07:28Z</time>
      </trkpt>
      <trkpt lat="48.22155" lon="-3.36762">
        <ele>285.4</ele>
        <time>2022-05-29T11:07:35Z</time>
      </trkpt>
      <trkpt lat="48.22131" lon="-3.36698">
        <ele>286.1</ele>
        <time>2022-05-29T11:07:42Z</time>
      </trkpt>
      <trkpt lat="48.22114" lon="-3.36652">
        <ele>286.5</ele>
        <time>2022-05-29T11:07:47Z</time>
      </trkpt>
      <trkpt lat="48.22112" lon="-3.36644">
        <ele>286.6</ele>
        <time>2022-05-29T11:07:48Z</time>
      </trkpt>
      <trkpt lat="48.22096" lon="-3.36605">
        <ele>287.1</ele>
        <time>2022-05-29T11:07:53Z</time>
      </trkpt>
      <trkpt lat="48.22086" lon="-3.36582">
        <ele>287.4</ele>
        <time>2022-05-29T11:07:56Z</time>
      </trkpt>
      <trkpt lat="48.22057" lon="-3.36531">
        <ele>288.2</ele>
        <time>2022-05-29T11:08:03Z</time>
      </trkpt>
      <trkpt lat="48.22053" lon="-3.36525">
        <ele>288.3</ele>
        <time>2022-05-29T11:08:04Z</time>
      </trkpt>
      <trkpt lat="48.22015" lon="-3.36489">
        <ele>289.4</ele>
        <time>2022-05-29T11:08:11Z</time>
      </trkpt>
      <trkpt lat="48.21973" lon="-3.36463">
        <ele>290.9</ele>
        <time>2022-05-29T11:08:20Z</time>
      </trkpt>
      <trkpt lat="48.21959" lon="-3.36454">
        <ele>291.3</ele>
        <time>2022-05-29T11:08:23Z</time>
      </trkpt>
      <trkpt lat="48.21928" lon="-3.36431">
        <ele>291.9</ele>
        <time>2022-05-29T11:08:30Z</time>
      </trkpt>
      <trkpt lat="48.21886" lon="-3.36398">
        <ele>292.5</ele>
        <time>2022-05-29T11:08:38Z</time>
      </trkpt>
      <trkpt lat="48.21866" lon="-3.36375">
        <ele>292.1</ele>
        <time>2022-05-29T11:08:42Z</time>
      </trkpt>
      <trkpt lat="48.21843" lon="-3.36347">
        <ele>291.7</ele>
        <time>2022-05-29T11:08:46Z</time>
      </trkpt>
      <trkpt lat="48.21816" lon="-3.36287">
        <ele>291.1</ele>
        <time>2022-05-29T11:08:52Z</time>
      </trkpt>
      <trkpt lat="48.21787" lon="-3.36222">
        <ele>290.3</ele>
        <time>2022-05-29T11:08:59Z</time>
      </trkpt>
      <trkpt lat="48.21761" lon="-3.36165">
        <ele>289.7</ele>
        <time>2022-05-29T11:09:05Z</time>
      </trkpt>
      <trkpt lat="48.21748" lon="-3.36137">
        <ele>289.4</ele>
        <time>2022-05-29T11:09:08Z</time>
      </trkpt>
      <trkpt lat="48.21735" lon="-3.36109">
        <ele>289.2</ele>
        <time>2022-05-29T11:09:11Z</time>
      </trkpt>
      <trkpt lat="48.21727" lon="-3.36091">
        <ele>289.1</ele>
        <time>2022-05-29T11:09:13Z</time>
      </trkpt>
      <trkpt lat="48.21706" lon="-3.36046">
        <ele>289.3</ele>
        <time>2022-05-29T11:09:18Z</time>
      </trkpt>
      <trkpt lat="48.21683" lon="-3.35987">
        <ele>290.4</ele>
        <time>2022-05-29T11:09:25Z</time>
      </trkpt>
      <trkpt lat="48.21671" lon="-3.35955">
        <ele>291</ele>
        <time>2022-05-29T11:09:29Z</time>
      </trkpt>
      <trkpt lat="48.21658" lon="-3.35923">
        <ele>290.8</ele>
        <time>2022-05-29T11:09:33Z</time>
      </trkpt>
      <trkpt lat="48.21654" lon="-3.35914">
        <ele>290.8</ele>
        <time>2022-05-29T11:09:34Z</time>
      </trkpt>
      <trkpt lat="48.21646" lon="-3.35898">
        <ele>290.8</ele>
        <time>2022-05-29T11:09:36Z</time>
      </trkpt>
      <trkpt lat="48.21628" lon="-3.35881">
        <ele>291</ele>
        <time>2022-05-29T11:09:39Z</time>
      </trkpt>
      <trkpt lat="48.21621" lon="-3.35877">
        <ele>291</ele>
        <time>2022-05-29T11:09:40Z</time>
      </trkpt>
      <trkpt lat="48.21588" lon="-3.35838">
        <ele>291.2</ele>
        <time>2022-05-29T11:09:45Z</time>
      </trkpt>
      <trkpt lat="48.21564" lon="-3.35778">
        <ele>291.5</ele>
        <time>2022-05-29T11:09:52Z</time>
      </trkpt>
      <trkpt lat="48.21562" lon="-3.35772">
        <ele>291.5</ele>
        <time>2022-05-29T11:09:53Z</time>
      </trkpt>
      <trkpt lat="48.21559" lon="-3.35767">
        <ele>291.6</ele>
        <time>2022-05-29T11:09:54Z</time>
      </trkpt>
      <trkpt lat="48.2153" lon="-3.35723">
        <ele>293</ele>
        <time>2022-05-29T11:10:03Z</time>
      </trkpt>
      <trkpt lat="48.21498" lon="-3.35674">
        <ele>294.4</ele>
        <time>2022-05-29T11:10:12Z</time>
      </trkpt>
      <trkpt lat="48.2149" lon="-3.3566">
        <ele>294.6</ele>
        <time>2022-05-29T11:10:14Z</time>
      </trkpt>
      <trkpt lat="48.21482" lon="-3.35647">
        <ele>294.5</ele>
        <time>2022-05-29T11:10:16Z</time>
      </trkpt>
      <trkpt lat="48.21467" lon="-3.35625">
        <ele>294.3</ele>
        <time>2022-05-29T11:10:19Z</time>
      </trkpt>
      <trkpt lat="48.21447" lon="-3.35598">
        <ele>293.8</ele>
        <time>2022-05-29T11:10:23Z</time>
      </trkpt>
      <trkpt lat="48.21421" lon="-3.35578">
        <ele>293.2</ele>
        <time>2022-05-29T11:10:27Z</time>
      </trkpt>
      <trkpt lat="48.21407" lon="-3.35565">
        <ele>292.9</ele>
        <time>2022-05-29T11:10:29Z</time>
      </trkpt>
      <trkpt lat="48.21381" lon="-3.35538">
        <ele>292</ele>
        <time>2022-05-29T11:10:33Z</time>
      </trkpt>
      <trkpt lat="48.21338" lon="-3.35501">
        <ele>290.7</ele>
        <time>2022-05-29T11:10:39Z</time>
      </trkpt>
      <trkpt lat="48.21307" lon="-3.3548">
        <ele>289.9</ele>
        <time>2022-05-29T11:10:43Z</time>
      </trkpt>
      <trkpt lat="48.21299" lon="-3.35481">
        <ele>289.6</ele>
        <time>2022-05-29T11:10:44Z</time>
      </trkpt>
      <trkpt lat="48.21273" lon="-3.3548">
        <ele>289</ele>
        <time>2022-05-29T11:10:47Z</time>
      </trkpt>
      <trkpt lat="48.21264" lon="-3.3548">
        <ele>288.7</ele>
        <time>2022-05-29T11:10:48Z</time>
      </trkpt>
      <trkpt lat="48.21218" lon="-3.35494">
        <ele>287.6</ele>
        <time>2022-05-29T11:10:53Z</time>
      </trkpt>
      <trkpt lat="48.2118" lon="-3.35512">
        <ele>286.7</ele>
        <time>2022-05-29T11:10:57Z</time>
      </trkpt>
      <trkpt lat="48.21162" lon="-3.35514">
        <ele>286.3</ele>
        <time>2022-05-29T11:10:59Z</time>
      </trkpt>
      <trkpt lat="48.21135" lon="-3.35517">
        <ele>285.7</ele>
        <time>2022-05-29T11:11:02Z</time>
      </trkpt>
      <trkpt lat="48.21088" lon="-3.35518">
        <ele>284.8</ele>
        <time>2022-05-29T11:11:07Z</time>
      </trkpt>
      <trkpt lat="48.21069" lon="-3.35522">
        <ele>284.5</ele>
        <time>2022-05-29T11:11:09Z</time>
      </trkpt>
      <trkpt lat="48.2104" lon="-3.35527">
        <ele>284.4</ele>
        <time>2022-05-29T11:11:12Z</time>
      </trkpt>
      <trkpt lat="48.2102" lon="-3.35535">
        <ele>284.1</ele>
        <time>2022-05-29T11:11:14Z</time>
      </trkpt>
      <trkpt lat="48.2099" lon="-3.35546">
        <ele>282.8</ele>
        <time>2022-05-29T11:11:17Z</time>
      </trkpt>
      <trkpt lat="48.20969" lon="-3.35551">
        <ele>281.8</ele>
        <time>2022-05-29T11:11:19Z</time>
      </trkpt>
      <trkpt lat="48.20921" lon="-3.35553">
        <ele>278.5</ele>
        <time>2022-05-29T11:11:23Z</time>
      </trkpt>
      <trkpt lat="48.20909" lon="-3.35555">
        <ele>277.6</ele>
        <time>2022-05-29T11:11:24Z</time>
      </trkpt>
      <trkpt lat="48.20874" lon="-3.35561">
        <ele>274.7</ele>
        <time>2022-05-29T11:11:27Z</time>
      </trkpt>
      <trkpt lat="48.20864" lon="-3.35558">
        <ele>273.8</ele>
        <time>2022-05-29T11:11:28Z</time>
      </trkpt>
      <trkpt lat="48.20854" lon="-3.35549">
        <ele>273.1</ele>
        <time>2022-05-29T11:11:29Z</time>
      </trkpt>
      <trkpt lat="48.20836" lon="-3.35526">
        <ele>272.5</ele>
        <time>2022-05-29T11:11:31Z</time>
      </trkpt>
      <trkpt lat="48.20835" lon="-3.35507">
        <ele>272.1</ele>
        <time>2022-05-29T11:11:32Z</time>
      </trkpt>
      <trkpt lat="48.20842" lon="-3.35435">
        <ele>270.5</ele>
        <time>2022-05-29T11:11:37Z</time>
      </trkpt>
      <trkpt lat="48.20847" lon="-3.35367">
        <ele>268.8</ele>
        <time>2022-05-29T11:11:42Z</time>
      </trkpt>
      <trkpt lat="48.2085" lon="-3.35335">
        <ele>268</ele>
        <time>2022-05-29T11:11:44Z</time>
      </trkpt>
      <trkpt lat="48.20854" lon="-3.35287">
        <ele>266.2</ele>
        <time>2022-05-29T11:11:47Z</time>
      </trkpt>
      <trkpt lat="48.20853" lon="-3.35239">
        <ele>264.5</ele>
        <time>2022-05-29T11:11:50Z</time>
      </trkpt>
      <trkpt lat="48.20844" lon="-3.35206">
        <ele>263.3</ele>
        <time>2022-05-29T11:11:52Z</time>
      </trkpt>
      <trkpt lat="48.20827" lon="-3.35179">
        <ele>262.2</ele>
        <time>2022-05-29T11:11:54Z</time>
      </trkpt>
      <trkpt lat="48.20793" lon="-3.35134">
        <ele>261.2</ele>
        <time>2022-05-29T11:11:58Z</time>
      </trkpt>
      <trkpt lat="48.20758" lon="-3.35082">
        <ele>259.9</ele>
        <time>2022-05-29T11:12:03Z</time>
      </trkpt>
      <trkpt lat="48.20753" lon="-3.35075">
        <ele>260</ele>
        <time>2022-05-29T11:12:04Z</time>
      </trkpt>
      <trkpt lat="48.20735" lon="-3.35048">
        <ele>261.7</ele>
        <time>2022-05-29T11:12:08Z</time>
      </trkpt>
      <trkpt lat="48.20732" lon="-3.35045">
        <ele>262.2</ele>
        <time>2022-05-29T11:12:09Z</time>
      </trkpt>
      <trkpt lat="48.20718" lon="-3.35025">
        <ele>264.6</ele>
        <time>2022-05-29T11:12:14Z</time>
      </trkpt>
      <trkpt lat="48.20703" lon="-3.35001">
        <ele>266.5</ele>
        <time>2022-05-29T11:12:20Z</time>
      </trkpt>
      <trkpt lat="48.20698" lon="-3.34983">
        <ele>267.7</ele>
        <time>2022-05-29T11:12:24Z</time>
      </trkpt>
      <trkpt lat="48.20695" lon="-3.34964">
        <ele>268.7</ele>
        <time>2022-05-29T11:12:28Z</time>
      </trkpt>
      <trkpt lat="48.207" lon="-3.34941">
        <ele>269.7</ele>
        <time>2022-05-29T11:12:32Z</time>
      </trkpt>
      <trkpt lat="48.20717" lon="-3.34913">
        <ele>271.5</ele>
        <time>2022-05-29T11:12:39Z</time>
      </trkpt>
      <trkpt lat="48.20732" lon="-3.3489">
        <ele>272.7</ele>
        <time>2022-05-29T11:12:45Z</time>
      </trkpt>
      <trkpt lat="48.20751" lon="-3.34863">
        <ele>274.2</ele>
        <time>2022-05-29T11:12:52Z</time>
      </trkpt>
      <trkpt lat="48.20757" lon="-3.34855">
        <ele>274.6</ele>
        <time>2022-05-29T11:12:54Z</time>
      </trkpt>
      <trkpt lat="48.20784" lon="-3.34813">
        <ele>276.5</ele>
        <time>2022-05-29T11:13:04Z</time>
      </trkpt>
      <trkpt lat="48.20805" lon="-3.34764">
        <ele>278.3</ele>
        <time>2022-05-29T11:13:14Z</time>
      </trkpt>
      <trkpt lat="48.20806" lon="-3.34759">
        <ele>278.5</ele>
        <time>2022-05-29T11:13:15Z</time>
      </trkpt>
      <trkpt lat="48.20792" lon="-3.34695">
        <ele>281.5</ele>
        <time>2022-05-29T11:13:28Z</time>
      </trkpt>
      <trkpt lat="48.20787" lon="-3.34687">
        <ele>281.9</ele>
        <time>2022-05-29T11:13:30Z</time>
      </trkpt>
      <trkpt lat="48.20772" lon="-3.34658">
        <ele>283.4</ele>
        <time>2022-05-29T11:13:37Z</time>
      </trkpt>
      <trkpt lat="48.20764" lon="-3.34639">
        <ele>284.3</ele>
        <time>2022-05-29T11:13:41Z</time>
      </trkpt>
      <trkpt lat="48.20751" lon="-3.34616">
        <ele>285.4</ele>
        <time>2022-05-29T11:13:46Z</time>
      </trkpt>
      <trkpt lat="48.20734" lon="-3.34584">
        <ele>286.1</ele>
        <time>2022-05-29T11:13:53Z</time>
      </trkpt>
      <trkpt lat="48.2071" lon="-3.34536">
        <ele>286.8</ele>
        <time>2022-05-29T11:14:01Z</time>
      </trkpt>
      <trkpt lat="48.20703" lon="-3.34524">
        <ele>286.6</ele>
        <time>2022-05-29T11:14:03Z</time>
      </trkpt>
      <trkpt lat="48.20671" lon="-3.34481">
        <ele>285.6</ele>
        <time>2022-05-29T11:14:10Z</time>
      </trkpt>
      <trkpt lat="48.20665" lon="-3.34477">
        <ele>285.4</ele>
        <time>2022-05-29T11:14:11Z</time>
      </trkpt>
      <trkpt lat="48.20629" lon="-3.34455">
        <ele>283.6</ele>
        <time>2022-05-29T11:14:17Z</time>
      </trkpt>
      <trkpt lat="48.20604" lon="-3.34444">
        <ele>282.4</ele>
        <time>2022-05-29T11:14:21Z</time>
      </trkpt>
      <trkpt lat="48.20585" lon="-3.34436">
        <ele>281.8</ele>
        <time>2022-05-29T11:14:24Z</time>
      </trkpt>
      <trkpt lat="48.2054" lon="-3.34419">
        <ele>280.4</ele>
        <time>2022-05-29T11:14:31Z</time>
      </trkpt>
      <trkpt lat="48.20517" lon="-3.34397">
        <ele>279.7</ele>
        <time>2022-05-29T11:14:36Z</time>
      </trkpt>
      <trkpt lat="48.20499" lon="-3.3438">
        <ele>280.8</ele>
        <time>2022-05-29T11:14:40Z</time>
      </trkpt>
      <trkpt lat="48.20496" lon="-3.34377">
        <ele>281.1</ele>
        <time>2022-05-29T11:14:41Z</time>
      </trkpt>
      <trkpt lat="48.20493" lon="-3.34373">
        <ele>281.5</ele>
        <time>2022-05-29T11:14:42Z</time>
      </trkpt>
      <trkpt lat="48.20481" lon="-3.34362">
        <ele>282.9</ele>
        <time>2022-05-29T11:14:46Z</time>
      </trkpt>
      <trkpt lat="48.20466" lon="-3.34348">
        <ele>284.1</ele>
        <time>2022-05-29T11:14:51Z</time>
      </trkpt>
      <trkpt lat="48.20438" lon="-3.34321">
        <ele>286.5</ele>
        <time>2022-05-29T11:15:01Z</time>
      </trkpt>
      <trkpt lat="48.20435" lon="-3.34319">
        <ele>286.6</ele>
        <time>2022-05-29T11:15:02Z</time>
      </trkpt>
      <trkpt lat="48.20416" lon="-3.34309">
        <ele>287</ele>
        <time>2022-05-29T11:15:07Z</time>
      </trkpt>
      <trkpt lat="48.20397" lon="-3.34308">
        <ele>287.4</ele>
        <time>2022-05-29T11:15:11Z</time>
      </trkpt>
      <trkpt lat="48.20368" lon="-3.34307">
        <ele>288.4</ele>
        <time>2022-05-29T11:15:17Z</time>
      </trkpt>
      <trkpt lat="48.20352" lon="-3.34305">
        <ele>289.1</ele>
        <time>2022-05-29T11:15:21Z</time>
      </trkpt>
      <trkpt lat="48.20322" lon="-3.34302">
        <ele>290.9</ele>
        <time>2022-05-29T11:15:28Z</time>
      </trkpt>
      <trkpt lat="48.20288" lon="-3.34296">
        <ele>293.2</ele>
        <time>2022-05-29T11:15:37Z</time>
      </trkpt>
      <trkpt lat="48.20266" lon="-3.34295">
        <ele>294.5</ele>
        <time>2022-05-29T11:15:43Z</time>
      </trkpt>
      <trkpt lat="48.2024" lon="-3.34295">
        <ele>295.9</ele>
        <time>2022-05-29T11:15:50Z</time>
      </trkpt>
      <trkpt lat="48.2021" lon="-3.34294">
        <ele>297.5</ele>
        <time>2022-05-29T11:15:58Z</time>
      </trkpt>
      <trkpt lat="48.20191" lon="-3.34293">
        <ele>298.8</ele>
        <time>2022-05-29T11:16:03Z</time>
      </trkpt>
      <trkpt lat="48.20175" lon="-3.34292">
        <ele>300.1</ele>
        <time>2022-05-29T11:16:08Z</time>
      </trkpt>
      <trkpt lat="48.20158" lon="-3.34291">
        <ele>301.3</ele>
        <time>2022-05-29T11:16:13Z</time>
      </trkpt>
      <trkpt lat="48.20145" lon="-3.3429">
        <ele>302.3</ele>
        <time>2022-05-29T11:16:17Z</time>
      </trkpt>
      <trkpt lat="48.20128" lon="-3.34288">
        <ele>303.9</ele>
        <time>2022-05-29T11:16:23Z</time>
      </trkpt>
      <trkpt lat="48.20098" lon="-3.34284">
        <ele>306.5</ele>
        <time>2022-05-29T11:16:33Z</time>
      </trkpt>
      <trkpt lat="48.20084" lon="-3.34284">
        <ele>307.9</ele>
        <time>2022-05-29T11:16:38Z</time>
      </trkpt>
      <trkpt lat="48.20069" lon="-3.34283">
        <ele>309.3</ele>
        <time>2022-05-29T11:16:43Z</time>
      </trkpt>
      <trkpt lat="48.20054" lon="-3.34283">
        <ele>310.3</ele>
        <time>2022-05-29T11:16:48Z</time>
      </trkpt>
      <trkpt lat="48.20051" lon="-3.34283">
        <ele>310.6</ele>
        <time>2022-05-29T11:16:49Z</time>
      </trkpt>
      <trkpt lat="48.2004" lon="-3.34281">
        <ele>311.8</ele>
        <time>2022-05-29T11:16:53Z</time>
      </trkpt>
      <trkpt lat="48.2002" lon="-3.34279">
        <ele>313.3</ele>
        <time>2022-05-29T11:17:00Z</time>
      </trkpt>
      <trkpt lat="48.20011" lon="-3.34279">
        <ele>313.9</ele>
        <time>2022-05-29T11:17:03Z</time>
      </trkpt>
      <trkpt lat="48.20008" lon="-3.34279">
        <ele>314</ele>
        <time>2022-05-29T11:17:04Z</time>
      </trkpt>
      <trkpt lat="48.1996" lon="-3.34288">
        <ele>316.1</ele>
        <time>2022-05-29T11:17:17Z</time>
      </trkpt>
      <trkpt lat="48.19935" lon="-3.34298">
        <ele>317</ele>
        <time>2022-05-29T11:17:23Z</time>
      </trkpt>
      <trkpt lat="48.19914" lon="-3.34306">
        <ele>317.6</ele>
        <time>2022-05-29T11:17:28Z</time>
      </trkpt>
      <trkpt lat="48.19867" lon="-3.34318">
        <ele>317.2</ele>
        <time>2022-05-29T11:17:37Z</time>
      </trkpt>
      <trkpt lat="48.19821" lon="-3.34332">
        <ele>316.8</ele>
        <time>2022-05-29T11:17:45Z</time>
      </trkpt>
      <trkpt lat="48.19793" lon="-3.34325">
        <ele>316.6</ele>
        <time>2022-05-29T11:17:49Z</time>
      </trkpt>
      <trkpt lat="48.19787" lon="-3.34322">
        <ele>316.6</ele>
        <time>2022-05-29T11:17:50Z</time>
      </trkpt>
      <trkpt lat="48.19763" lon="-3.34296">
        <ele>316.4</ele>
        <time>2022-05-29T11:17:54Z</time>
      </trkpt>
      <trkpt lat="48.19714" lon="-3.34276">
        <ele>316.1</ele>
        <time>2022-05-29T11:18:02Z</time>
      </trkpt>
      <trkpt lat="48.19665" lon="-3.34264">
        <ele>315.7</ele>
        <time>2022-05-29T11:18:09Z</time>
      </trkpt>
      <trkpt lat="48.19622" lon="-3.34249">
        <ele>315.5</ele>
        <time>2022-05-29T11:18:15Z</time>
      </trkpt>
      <trkpt lat="48.19615" lon="-3.34247">
        <ele>315.5</ele>
        <time>2022-05-29T11:18:16Z</time>
      </trkpt>
      <trkpt lat="48.19589" lon="-3.3424">
        <ele>315.5</ele>
        <time>2022-05-29T11:18:20Z</time>
      </trkpt>
      <trkpt lat="48.19569" lon="-3.34235">
        <ele>315.8</ele>
        <time>2022-05-29T11:18:23Z</time>
      </trkpt>
      <trkpt lat="48.19519" lon="-3.34229">
        <ele>316.6</ele>
        <time>2022-05-29T11:18:31Z</time>
      </trkpt>
      <trkpt lat="48.19496" lon="-3.3423">
        <ele>316.9</ele>
        <time>2022-05-29T11:18:35Z</time>
      </trkpt>
      <trkpt lat="48.19473" lon="-3.34231">
        <ele>317.2</ele>
        <time>2022-05-29T11:18:39Z</time>
      </trkpt>
      <trkpt lat="48.19428" lon="-3.34232">
        <ele>317.8</ele>
        <time>2022-05-29T11:18:47Z</time>
      </trkpt>
      <trkpt lat="48.19382" lon="-3.34227">
        <ele>318.3</ele>
        <time>2022-05-29T11:18:54Z</time>
      </trkpt>
      <trkpt lat="48.19375" lon="-3.34225">
        <ele>318.3</ele>
        <time>2022-05-29T11:18:55Z</time>
      </trkpt>
      <trkpt lat="48.19362" lon="-3.34221">
        <ele>317.8</ele>
        <time>2022-05-29T11:18:57Z</time>
      </trkpt>
      <trkpt lat="48.19341" lon="-3.34215">
        <ele>317.1</ele>
        <time>2022-05-29T11:19:00Z</time>
      </trkpt>
      <trkpt lat="48.19333" lon="-3.34214">
        <ele>317.1</ele>
        <time>2022-05-29T11:19:01Z</time>
      </trkpt>
      <trkpt lat="48.19325" lon="-3.34213">
        <ele>317.1</ele>
        <time>2022-05-29T11:19:02Z</time>
      </trkpt>
      <trkpt lat="48.19309" lon="-3.34196">
        <ele>317.3</ele>
        <time>2022-05-29T11:19:05Z</time>
      </trkpt>
      <trkpt lat="48.19297" lon="-3.34145">
        <ele>319</ele>
        <time>2022-05-29T11:19:12Z</time>
      </trkpt>
      <trkpt lat="48.19295" lon="-3.34139">
        <ele>319.3</ele>
        <time>2022-05-29T11:19:13Z</time>
      </trkpt>
      <trkpt lat="48.19293" lon="-3.34126">
        <ele>319.8</ele>
        <time>2022-05-29T11:19:15Z</time>
      </trkpt>
      <trkpt lat="48.1929" lon="-3.34095">
        <ele>320.9</ele>
        <time>2022-05-29T11:19:20Z</time>
      </trkpt>
      <trkpt lat="48.19286" lon="-3.34071">
        <ele>321.9</ele>
        <time>2022-05-29T11:19:24Z</time>
      </trkpt>
      <trkpt lat="48.19284" lon="-3.34067">
        <ele>322.1</ele>
        <time>2022-05-29T11:19:25Z</time>
      </trkpt>
      <trkpt lat="48.19274" lon="-3.34046">
        <ele>322.7</ele>
        <time>2022-05-29T11:19:30Z</time>
      </trkpt>
      <trkpt lat="48.19255" lon="-3.3403">
        <ele>323.3</ele>
        <time>2022-05-29T11:19:35Z</time>
      </trkpt>
      <trkpt lat="48.19233" lon="-3.3401">
        <ele>324.1</ele>
        <time>2022-05-29T11:19:41Z</time>
      </trkpt>
      <trkpt lat="48.19218" lon="-3.33999">
        <ele>324.7</ele>
        <time>2022-05-29T11:19:45Z</time>
      </trkpt>
      <trkpt lat="48.1919" lon="-3.33977">
        <ele>326.1</ele>
        <time>2022-05-29T11:19:53Z</time>
      </trkpt>
      <trkpt lat="48.19149" lon="-3.33946">
        <ele>327.9</ele>
        <time>2022-05-29T11:20:04Z</time>
      </trkpt>
      <trkpt lat="48.1914" lon="-3.33938">
        <ele>328.1</ele>
        <time>2022-05-29T11:20:06Z</time>
      </trkpt>
      <trkpt lat="48.19122" lon="-3.33924">
        <ele>328.5</ele>
        <time>2022-05-29T11:20:10Z</time>
      </trkpt>
      <trkpt lat="48.19116" lon="-3.33922">
        <ele>328.5</ele>
        <time>2022-05-29T11:20:11Z</time>
      </trkpt>
      <trkpt lat="48.19095" lon="-3.33916">
        <ele>328</ele>
        <time>2022-05-29T11:20:15Z</time>
      </trkpt>
      <trkpt lat="48.19048" lon="-3.33936">
        <ele>327.1</ele>
        <time>2022-05-29T11:20:22Z</time>
      </trkpt>
      <trkpt lat="48.19021" lon="-3.33949">
        <ele>326.6</ele>
        <time>2022-05-29T11:20:26Z</time>
      </trkpt>
      <trkpt lat="48.19" lon="-3.33959">
        <ele>326.1</ele>
        <time>2022-05-29T11:20:29Z</time>
      </trkpt>
      <trkpt lat="48.18957" lon="-3.33982">
        <ele>325.2</ele>
        <time>2022-05-29T11:20:35Z</time>
      </trkpt>
      <trkpt lat="48.18906" lon="-3.34001">
        <ele>324.3</ele>
        <time>2022-05-29T11:20:41Z</time>
      </trkpt>
      <trkpt lat="48.18861" lon="-3.34008">
        <ele>323.6</ele>
        <time>2022-05-29T11:20:46Z</time>
      </trkpt>
      <trkpt lat="48.18845" lon="-3.34016">
        <ele>323.7</ele>
        <time>2022-05-29T11:20:48Z</time>
      </trkpt>
      <trkpt lat="48.18828" lon="-3.34036">
        <ele>323.8</ele>
        <time>2022-05-29T11:20:51Z</time>
      </trkpt>
      <trkpt lat="48.18804" lon="-3.34062">
        <ele>324.2</ele>
        <time>2022-05-29T11:20:55Z</time>
      </trkpt>
      <trkpt lat="48.18762" lon="-3.34096">
        <ele>324.8</ele>
        <time>2022-05-29T11:21:01Z</time>
      </trkpt>
      <trkpt lat="48.18724" lon="-3.34104">
        <ele>325.2</ele>
        <time>2022-05-29T11:21:06Z</time>
      </trkpt>
      <trkpt lat="48.18689" lon="-3.34107">
        <ele>325.7</ele>
        <time>2022-05-29T11:21:11Z</time>
      </trkpt>
      <trkpt lat="48.18675" lon="-3.34108">
        <ele>325.7</ele>
        <time>2022-05-29T11:21:13Z</time>
      </trkpt>
      <trkpt lat="48.18623" lon="-3.34109">
        <ele>325.6</ele>
        <time>2022-05-29T11:21:20Z</time>
      </trkpt>
      <trkpt lat="48.18615" lon="-3.34109">
        <ele>325.6</ele>
        <time>2022-05-29T11:21:21Z</time>
      </trkpt>
      <trkpt lat="48.18575" lon="-3.34112">
        <ele>325.6</ele>
        <time>2022-05-29T11:21:26Z</time>
      </trkpt>
      <trkpt lat="48.18544" lon="-3.34119">
        <ele>325.5</ele>
        <time>2022-05-29T11:21:30Z</time>
      </trkpt>
      <trkpt lat="48.18502" lon="-3.34143">
        <ele>325.5</ele>
        <time>2022-05-29T11:21:36Z</time>
      </trkpt>
      <trkpt lat="48.18456" lon="-3.34174">
        <ele>325.4</ele>
        <time>2022-05-29T11:21:43Z</time>
      </trkpt>
      <trkpt lat="48.18412" lon="-3.34203">
        <ele>325.3</ele>
        <time>2022-05-29T11:21:49Z</time>
      </trkpt>
      <trkpt lat="48.1837" lon="-3.34231">
        <ele>325.3</ele>
        <time>2022-05-29T11:21:55Z</time>
      </trkpt>
      <trkpt lat="48.18327" lon="-3.34252">
        <ele>325.2</ele>
        <time>2022-05-29T11:22:02Z</time>
      </trkpt>
      <trkpt lat="48.1828" lon="-3.34261">
        <ele>325.1</ele>
        <time>2022-05-29T11:22:10Z</time>
      </trkpt>
      <trkpt lat="48.18232" lon="-3.34261">
        <ele>325</ele>
        <time>2022-05-29T11:22:17Z</time>
      </trkpt>
      <trkpt lat="48.18182" lon="-3.34262">
        <ele>324.9</ele>
        <time>2022-05-29T11:22:23Z</time>
      </trkpt>
      <trkpt lat="48.1814" lon="-3.3426">
        <ele>323.6</ele>
        <time>2022-05-29T11:22:28Z</time>
      </trkpt>
      <trkpt lat="48.18132" lon="-3.34259">
        <ele>323.6</ele>
        <time>2022-05-29T11:22:29Z</time>
      </trkpt>
      <trkpt lat="48.18096" lon="-3.34249">
        <ele>323.5</ele>
        <time>2022-05-29T11:22:33Z</time>
      </trkpt>
      <trkpt lat="48.18078" lon="-3.34244">
        <ele>323.4</ele>
        <time>2022-05-29T11:22:35Z</time>
      </trkpt>
      <trkpt lat="48.18053" lon="-3.34238">
        <ele>323.2</ele>
        <time>2022-05-29T11:22:38Z</time>
      </trkpt>
      <trkpt lat="48.18027" lon="-3.34232">
        <ele>322.8</ele>
        <time>2022-05-29T11:22:41Z</time>
      </trkpt>
      <trkpt lat="48.17976" lon="-3.34222">
        <ele>322</ele>
        <time>2022-05-29T11:22:47Z</time>
      </trkpt>
      <trkpt lat="48.17968" lon="-3.34221">
        <ele>321.9</ele>
        <time>2022-05-29T11:22:48Z</time>
      </trkpt>
      <trkpt lat="48.1795" lon="-3.3422">
        <ele>321.8</ele>
        <time>2022-05-29T11:22:50Z</time>
      </trkpt>
      <trkpt lat="48.17924" lon="-3.34222">
        <ele>321.6</ele>
        <time>2022-05-29T11:22:53Z</time>
      </trkpt>
      <trkpt lat="48.17899" lon="-3.34224">
        <ele>322.1</ele>
        <time>2022-05-29T11:22:56Z</time>
      </trkpt>
      <trkpt lat="48.17854" lon="-3.34224">
        <ele>323.1</ele>
        <time>2022-05-29T11:23:02Z</time>
      </trkpt>
      <trkpt lat="48.17823" lon="-3.34213">
        <ele>324.2</ele>
        <time>2022-05-29T11:23:08Z</time>
      </trkpt>
      <trkpt lat="48.17809" lon="-3.34208">
        <ele>325.4</ele>
        <time>2022-05-29T11:23:11Z</time>
      </trkpt>
      <trkpt lat="48.17803" lon="-3.34204">
        <ele>326.2</ele>
        <time>2022-05-29T11:23:13Z</time>
      </trkpt>
      <trkpt lat="48.17777" lon="-3.34187">
        <ele>329.5</ele>
        <time>2022-05-29T11:23:22Z</time>
      </trkpt>
      <trkpt lat="48.17774" lon="-3.34183">
        <ele>329.9</ele>
        <time>2022-05-29T11:23:23Z</time>
      </trkpt>
      <trkpt lat="48.1775" lon="-3.34163">
        <ele>332.9</ele>
        <time>2022-05-29T11:23:33Z</time>
      </trkpt>
      <trkpt lat="48.17735" lon="-3.3415">
        <ele>334.3</ele>
        <time>2022-05-29T11:23:39Z</time>
      </trkpt>
      <trkpt lat="48.17714" lon="-3.34123">
        <ele>336.4</ele>
        <time>2022-05-29T11:23:48Z</time>
      </trkpt>
      <trkpt lat="48.17687" lon="-3.34066">
        <ele>337.6</ele>
        <time>2022-05-29T11:23:58Z</time>
      </trkpt>
      <trkpt lat="48.17685" lon="-3.34061">
        <ele>337.8</ele>
        <time>2022-05-29T11:23:59Z</time>
      </trkpt>
      <trkpt lat="48.17673" lon="-3.34038">
        <ele>338.3</ele>
        <time>2022-05-29T11:24:04Z</time>
      </trkpt>
      <trkpt lat="48.17653" lon="-3.33996">
        <ele>339.3</ele>
        <time>2022-05-29T11:24:13Z</time>
      </trkpt>
      <trkpt lat="48.17641" lon="-3.33985">
        <ele>339.6</ele>
        <time>2022-05-29T11:24:16Z</time>
      </trkpt>
      <trkpt lat="48.17615" lon="-3.3396">
        <ele>340.3</ele>
        <time>2022-05-29T11:24:23Z</time>
      </trkpt>
      <trkpt lat="48.17605" lon="-3.33951">
        <ele>340.6</ele>
        <time>2022-05-29T11:24:26Z</time>
      </trkpt>
      <trkpt lat="48.17588" lon="-3.33947">
        <ele>341</ele>
        <time>2022-05-29T11:24:30Z</time>
      </trkpt>
      <trkpt lat="48.17569" lon="-3.3393">
        <ele>341.5</ele>
        <time>2022-05-29T11:24:35Z</time>
      </trkpt>
      <trkpt lat="48.17564" lon="-3.33924">
        <ele>341.5</ele>
        <time>2022-05-29T11:24:36Z</time>
      </trkpt>
      <trkpt lat="48.17533" lon="-3.33887">
        <ele>340.7</ele>
        <time>2022-05-29T11:24:42Z</time>
      </trkpt>
      <trkpt lat="48.17506" lon="-3.33862">
        <ele>340.1</ele>
        <time>2022-05-29T11:24:46Z</time>
      </trkpt>
      <trkpt lat="48.17493" lon="-3.33849">
        <ele>339.7</ele>
        <time>2022-05-29T11:24:48Z</time>
      </trkpt>
      <trkpt lat="48.17454" lon="-3.33814">
        <ele>338.3</ele>
        <time>2022-05-29T11:24:54Z</time>
      </trkpt>
      <trkpt lat="48.17406" lon="-3.33781">
        <ele>336.9</ele>
        <time>2022-05-29T11:25:00Z</time>
      </trkpt>
      <trkpt lat="48.17398" lon="-3.33776">
        <ele>336.6</ele>
        <time>2022-05-29T11:25:01Z</time>
      </trkpt>
      <trkpt lat="48.1739" lon="-3.33771">
        <ele>336.3</ele>
        <time>2022-05-29T11:25:02Z</time>
      </trkpt>
      <trkpt lat="48.17358" lon="-3.33761">
        <ele>334.9</ele>
        <time>2022-05-29T11:25:06Z</time>
      </trkpt>
      <trkpt lat="48.17341" lon="-3.33756">
        <ele>333.9</ele>
        <time>2022-05-29T11:25:08Z</time>
      </trkpt>
      <trkpt lat="48.17291" lon="-3.33739">
        <ele>331.6</ele>
        <time>2022-05-29T11:25:13Z</time>
      </trkpt>
      <trkpt lat="48.17256" lon="-3.33726">
        <ele>330.4</ele>
        <time>2022-05-29T11:25:16Z</time>
      </trkpt>
      <trkpt lat="48.17245" lon="-3.33722">
        <ele>330.2</ele>
        <time>2022-05-29T11:25:17Z</time>
      </trkpt>
      <trkpt lat="48.1723" lon="-3.33715">
        <ele>329.8</ele>
        <time>2022-05-29T11:25:19Z</time>
      </trkpt>
      <trkpt lat="48.17223" lon="-3.33705">
        <ele>329.6</ele>
        <time>2022-05-29T11:25:20Z</time>
      </trkpt>
      <trkpt lat="48.17217" lon="-3.33691">
        <ele>329.4</ele>
        <time>2022-05-29T11:25:21Z</time>
      </trkpt>
      <trkpt lat="48.17223" lon="-3.33657">
        <ele>328.6</ele>
        <time>2022-05-29T11:25:26Z</time>
      </trkpt>
      <trkpt lat="48.1723" lon="-3.33622">
        <ele>329.7</ele>
        <time>2022-05-29T11:25:31Z</time>
      </trkpt>
      <trkpt lat="48.17232" lon="-3.33616">
        <ele>330</ele>
        <time>2022-05-29T11:25:32Z</time>
      </trkpt>
      <trkpt lat="48.17236" lon="-3.3359">
        <ele>331.1</ele>
        <time>2022-05-29T11:25:36Z</time>
      </trkpt>
      <trkpt lat="48.17243" lon="-3.33543">
        <ele>331.6</ele>
        <time>2022-05-29T11:25:43Z</time>
      </trkpt>
      <trkpt lat="48.17253" lon="-3.33471">
        <ele>331.9</ele>
        <time>2022-05-29T11:25:51Z</time>
      </trkpt>
      <trkpt lat="48.17263" lon="-3.33406">
        <ele>330.4</ele>
        <time>2022-05-29T11:25:56Z</time>
      </trkpt>
      <trkpt lat="48.17265" lon="-3.33392">
        <ele>329.9</ele>
        <time>2022-05-29T11:25:57Z</time>
      </trkpt>
      <trkpt lat="48.17275" lon="-3.3334">
        <ele>328.2</ele>
        <time>2022-05-29T11:26:01Z</time>
      </trkpt>
      <trkpt lat="48.17277" lon="-3.33327">
        <ele>327.8</ele>
        <time>2022-05-29T11:26:02Z</time>
      </trkpt>
      <trkpt lat="48.17284" lon="-3.33251">
        <ele>325.3</ele>
        <time>2022-05-29T11:26:08Z</time>
      </trkpt>
      <trkpt lat="48.17276" lon="-3.33194">
        <ele>323.7</ele>
        <time>2022-05-29T11:26:12Z</time>
      </trkpt>
      <trkpt lat="48.17275" lon="-3.3318">
        <ele>323.4</ele>
        <time>2022-05-29T11:26:13Z</time>
      </trkpt>
      <trkpt lat="48.17273" lon="-3.33152">
        <ele>322.7</ele>
        <time>2022-05-29T11:26:15Z</time>
      </trkpt>
      <trkpt lat="48.17266" lon="-3.33129">
        <ele>322.1</ele>
        <time>2022-05-29T11:26:17Z</time>
      </trkpt>
      <trkpt lat="48.17264" lon="-3.33091">
        <ele>321.1</ele>
        <time>2022-05-29T11:26:20Z</time>
      </trkpt>
      <trkpt lat="48.1727" lon="-3.33052">
        <ele>320.2</ele>
        <time>2022-05-29T11:26:23Z</time>
      </trkpt>
      <trkpt lat="48.17275" lon="-3.33013">
        <ele>319.8</ele>
        <time>2022-05-29T11:26:26Z</time>
      </trkpt>
      <trkpt lat="48.1728" lon="-3.32991">
        <ele>319.6</ele>
        <time>2022-05-29T11:26:28Z</time>
      </trkpt>
      <trkpt lat="48.17285" lon="-3.32968">
        <ele>319.4</ele>
        <time>2022-05-29T11:26:30Z</time>
      </trkpt>
      <trkpt lat="48.1729" lon="-3.32895">
        <ele>318.7</ele>
        <time>2022-05-29T11:26:36Z</time>
      </trkpt>
      <trkpt lat="48.173" lon="-3.32825">
        <ele>318.1</ele>
        <time>2022-05-29T11:26:42Z</time>
      </trkpt>
      <trkpt lat="48.17302" lon="-3.32813">
        <ele>317.9</ele>
        <time>2022-05-29T11:26:43Z</time>
      </trkpt>
      <trkpt lat="48.17311" lon="-3.32753">
        <ele>317.2</ele>
        <time>2022-05-29T11:26:48Z</time>
      </trkpt>
      <trkpt lat="48.17318" lon="-3.32693">
        <ele>316.5</ele>
        <time>2022-05-29T11:26:53Z</time>
      </trkpt>
      <trkpt lat="48.17319" lon="-3.32681">
        <ele>316.3</ele>
        <time>2022-05-29T11:26:54Z</time>
      </trkpt>
      <trkpt lat="48.17325" lon="-3.32611">
        <ele>315.4</ele>
        <time>2022-05-29T11:27:00Z</time>
      </trkpt>
      <trkpt lat="48.17326" lon="-3.3254">
        <ele>314.4</ele>
        <time>2022-05-29T11:27:06Z</time>
      </trkpt>
      <trkpt lat="48.17328" lon="-3.32462">
        <ele>313.4</ele>
        <time>2022-05-29T11:27:12Z</time>
      </trkpt>
      <trkpt lat="48.17329" lon="-3.3245">
        <ele>313.3</ele>
        <time>2022-05-29T11:27:13Z</time>
      </trkpt>
      <trkpt lat="48.17329" lon="-3.32438">
        <ele>313.3</ele>
        <time>2022-05-29T11:27:14Z</time>
      </trkpt>
      <trkpt lat="48.17328" lon="-3.3239">
        <ele>313.1</ele>
        <time>2022-05-29T11:27:18Z</time>
      </trkpt>
      <trkpt lat="48.17327" lon="-3.32378">
        <ele>313</ele>
        <time>2022-05-29T11:27:19Z</time>
      </trkpt>
      <trkpt lat="48.17316" lon="-3.32304">
        <ele>312.5</ele>
        <time>2022-05-29T11:27:26Z</time>
      </trkpt>
      <trkpt lat="48.17307" lon="-3.32238">
        <ele>311.9</ele>
        <time>2022-05-29T11:27:33Z</time>
      </trkpt>
      <trkpt lat="48.17298" lon="-3.32166">
        <ele>311.3</ele>
        <time>2022-05-29T11:27:41Z</time>
      </trkpt>
      <trkpt lat="48.17285" lon="-3.32098">
        <ele>310.9</ele>
        <time>2022-05-29T11:27:47Z</time>
      </trkpt>
      <trkpt lat="48.17273" lon="-3.32021">
        <ele>310.3</ele>
        <time>2022-05-29T11:27:54Z</time>
      </trkpt>
      <trkpt lat="48.17264" lon="-3.31965">
        <ele>309.7</ele>
        <time>2022-05-29T11:27:58Z</time>
      </trkpt>
      <trkpt lat="48.17261" lon="-3.31949">
        <ele>308.9</ele>
        <time>2022-05-29T11:27:59Z</time>
      </trkpt>
      <trkpt lat="48.17249" lon="-3.31876">
        <ele>305.4</ele>
        <time>2022-05-29T11:28:03Z</time>
      </trkpt>
      <trkpt lat="48.17239" lon="-3.31811">
        <ele>298.9</ele>
        <time>2022-05-29T11:28:07Z</time>
      </trkpt>
      <trkpt lat="48.17247" lon="-3.31788">
        <ele>297.5</ele>
        <time>2022-05-29T11:28:08Z</time>
      </trkpt>
      <trkpt lat="48.17242" lon="-3.31768">
        <ele>296.4</ele>
        <time>2022-05-29T11:28:09Z</time>
      </trkpt>
      <trkpt lat="48.17233" lon="-3.31747">
        <ele>295.2</ele>
        <time>2022-05-29T11:28:10Z</time>
      </trkpt>
      <trkpt lat="48.17194" lon="-3.31684">
        <ele>291.9</ele>
        <time>2022-05-29T11:28:13Z</time>
      </trkpt>
      <trkpt lat="48.17181" lon="-3.31662">
        <ele>291.2</ele>
        <time>2022-05-29T11:28:14Z</time>
      </trkpt>
      <trkpt lat="48.17163" lon="-3.31655">
        <ele>291.1</ele>
        <time>2022-05-29T11:28:15Z</time>
      </trkpt>
      <trkpt lat="48.17147" lon="-3.31658">
        <ele>291</ele>
        <time>2022-05-29T11:28:16Z</time>
      </trkpt>
      <trkpt lat="48.17139" lon="-3.31629">
        <ele>290.9</ele>
        <time>2022-05-29T11:28:18Z</time>
      </trkpt>
      <trkpt lat="48.17128" lon="-3.31562">
        <ele>290.5</ele>
        <time>2022-05-29T11:28:23Z</time>
      </trkpt>
      <trkpt lat="48.17127" lon="-3.3154">
        <ele>290.4</ele>
        <time>2022-05-29T11:28:25Z</time>
      </trkpt>
      <trkpt lat="48.17127" lon="-3.31496">
        <ele>291.1</ele>
        <time>2022-05-29T11:28:29Z</time>
      </trkpt>
      <trkpt lat="48.17125" lon="-3.31481">
        <ele>291.2</ele>
        <time>2022-05-29T11:28:30Z</time>
      </trkpt>
      <trkpt lat="48.17123" lon="-3.31471">
        <ele>291.4</ele>
        <time>2022-05-29T11:28:31Z</time>
      </trkpt>
      <trkpt lat="48.17121" lon="-3.31441">
        <ele>291.8</ele>
        <time>2022-05-29T11:28:34Z</time>
      </trkpt>
      <trkpt lat="48.1711" lon="-3.31389">
        <ele>292.8</ele>
        <time>2022-05-29T11:28:40Z</time>
      </trkpt>
      <trkpt lat="48.17106" lon="-3.31372">
        <ele>293.4</ele>
        <time>2022-05-29T11:28:42Z</time>
      </trkpt>
      <trkpt lat="48.17102" lon="-3.3135">
        <ele>294.2</ele>
        <time>2022-05-29T11:28:45Z</time>
      </trkpt>
      <trkpt lat="48.17102" lon="-3.31308">
        <ele>295.9</ele>
        <time>2022-05-29T11:28:51Z</time>
      </trkpt>
      <trkpt lat="48.17108" lon="-3.31288">
        <ele>296.9</ele>
        <time>2022-05-29T11:28:55Z</time>
      </trkpt>
      <trkpt lat="48.17109" lon="-3.31282">
        <ele>297.1</ele>
        <time>2022-05-29T11:28:56Z</time>
      </trkpt>
      <trkpt lat="48.1711" lon="-3.3123">
        <ele>298.7</ele>
        <time>2022-05-29T11:29:04Z</time>
      </trkpt>
      <trkpt lat="48.17109" lon="-3.31223">
        <ele>298.8</ele>
        <time>2022-05-29T11:29:05Z</time>
      </trkpt>
      <trkpt lat="48.171" lon="-3.31186">
        <ele>298.5</ele>
        <time>2022-05-29T11:29:10Z</time>
      </trkpt>
      <trkpt lat="48.17094" lon="-3.31163">
        <ele>298</ele>
        <time>2022-05-29T11:29:13Z</time>
      </trkpt>
      <trkpt lat="48.17067" lon="-3.31101">
        <ele>297.1</ele>
        <time>2022-05-29T11:29:20Z</time>
      </trkpt>
      <trkpt lat="48.17051" lon="-3.3106">
        <ele>297.1</ele>
        <time>2022-05-29T11:29:25Z</time>
      </trkpt>
      <trkpt lat="48.17044" lon="-3.31043">
        <ele>296.8</ele>
        <time>2022-05-29T11:29:27Z</time>
      </trkpt>
      <trkpt lat="48.17034" lon="-3.31003">
        <ele>296.1</ele>
        <time>2022-05-29T11:29:31Z</time>
      </trkpt>
      <trkpt lat="48.17031" lon="-3.30991">
        <ele>295.9</ele>
        <time>2022-05-29T11:29:32Z</time>
      </trkpt>
      <trkpt lat="48.17022" lon="-3.30958">
        <ele>295.4</ele>
        <time>2022-05-29T11:29:35Z</time>
      </trkpt>
      <trkpt lat="48.17018" lon="-3.30934">
        <ele>295</ele>
        <time>2022-05-29T11:29:37Z</time>
      </trkpt>
      <trkpt lat="48.17029" lon="-3.30907">
        <ele>294.6</ele>
        <time>2022-05-29T11:29:39Z</time>
      </trkpt>
      <trkpt lat="48.17042" lon="-3.30899">
        <ele>294.4</ele>
        <time>2022-05-29T11:29:40Z</time>
      </trkpt>
      <trkpt lat="48.1705" lon="-3.3089">
        <ele>294.2</ele>
        <time>2022-05-29T11:29:41Z</time>
      </trkpt>
      <trkpt lat="48.17057" lon="-3.30882">
        <ele>293.9</ele>
        <time>2022-05-29T11:29:42Z</time>
      </trkpt>
      <trkpt lat="48.17063" lon="-3.30872">
        <ele>293.7</ele>
        <time>2022-05-29T11:29:43Z</time>
      </trkpt>
      <trkpt lat="48.17102" lon="-3.30819">
        <ele>292.4</ele>
        <time>2022-05-29T11:29:49Z</time>
      </trkpt>
      <trkpt lat="48.17107" lon="-3.3081">
        <ele>292.2</ele>
        <time>2022-05-29T11:29:50Z</time>
      </trkpt>
      <trkpt lat="48.17133" lon="-3.30761">
        <ele>291.3</ele>
        <time>2022-05-29T11:29:55Z</time>
      </trkpt>
      <trkpt lat="48.17163" lon="-3.30701">
        <ele>290.2</ele>
        <time>2022-05-29T11:30:01Z</time>
      </trkpt>
      <trkpt lat="48.1719" lon="-3.30634">
        <ele>289.1</ele>
        <time>2022-05-29T11:30:07Z</time>
      </trkpt>
      <trkpt lat="48.17202" lon="-3.306">
        <ele>288.6</ele>
        <time>2022-05-29T11:30:10Z</time>
      </trkpt>
      <trkpt lat="48.17217" lon="-3.30548">
        <ele>288.1</ele>
        <time>2022-05-29T11:30:15Z</time>
      </trkpt>
      <trkpt lat="48.17221" lon="-3.30538">
        <ele>287.9</ele>
        <time>2022-05-29T11:30:16Z</time>
      </trkpt>
      <trkpt lat="48.17241" lon="-3.30498">
        <ele>287.1</ele>
        <time>2022-05-29T11:30:20Z</time>
      </trkpt>
      <trkpt lat="48.17251" lon="-3.30479">
        <ele>287.2</ele>
        <time>2022-05-29T11:30:22Z</time>
      </trkpt>
      <trkpt lat="48.17271" lon="-3.30447">
        <ele>287.6</ele>
        <time>2022-05-29T11:30:26Z</time>
      </trkpt>
      <trkpt lat="48.17284" lon="-3.30425">
        <ele>288.3</ele>
        <time>2022-05-29T11:30:29Z</time>
      </trkpt>
      <trkpt lat="48.17305" lon="-3.30385">
        <ele>290.2</ele>
        <time>2022-05-29T11:30:36Z</time>
      </trkpt>
      <trkpt lat="48.17314" lon="-3.30368">
        <ele>291.2</ele>
        <time>2022-05-29T11:30:39Z</time>
      </trkpt>
      <trkpt lat="48.17325" lon="-3.30339">
        <ele>293.7</ele>
        <time>2022-05-29T11:30:46Z</time>
      </trkpt>
      <trkpt lat="48.17337" lon="-3.3031">
        <ele>295.8</ele>
        <time>2022-05-29T11:30:53Z</time>
      </trkpt>
      <trkpt lat="48.17345" lon="-3.30281">
        <ele>298.2</ele>
        <time>2022-05-29T11:31:01Z</time>
      </trkpt>
      <trkpt lat="48.17352" lon="-3.30252">
        <ele>300.3</ele>
        <time>2022-05-29T11:31:09Z</time>
      </trkpt>
      <trkpt lat="48.17352" lon="-3.30248">
        <ele>300.5</ele>
        <time>2022-05-29T11:31:10Z</time>
      </trkpt>
      <trkpt lat="48.17355" lon="-3.30233">
        <ele>301.6</ele>
        <time>2022-05-29T11:31:14Z</time>
      </trkpt>
      <trkpt lat="48.17355" lon="-3.30224">
        <ele>302.1</ele>
        <time>2022-05-29T11:31:16Z</time>
      </trkpt>
      <trkpt lat="48.17357" lon="-3.30202">
        <ele>303.7</ele>
        <time>2022-05-29T11:31:21Z</time>
      </trkpt>
      <trkpt lat="48.17358" lon="-3.30188">
        <ele>304.2</ele>
        <time>2022-05-29T11:31:24Z</time>
      </trkpt>
      <trkpt lat="48.17359" lon="-3.30177">
        <ele>304.6</ele>
        <time>2022-05-29T11:31:26Z</time>
      </trkpt>
      <trkpt lat="48.17364" lon="-3.3012">
        <ele>306.3</ele>
        <time>2022-05-29T11:31:37Z</time>
      </trkpt>
      <trkpt lat="48.17371" lon="-3.30068">
        <ele>307.7</ele>
        <time>2022-05-29T11:31:46Z</time>
      </trkpt>
      <trkpt lat="48.17373" lon="-3.30051">
        <ele>308.2</ele>
        <time>2022-05-29T11:31:49Z</time>
      </trkpt>
      <trkpt lat="48.17382" lon="-3.29985">
        <ele>309.9</ele>
        <time>2022-05-29T11:32:00Z</time>
      </trkpt>
      <trkpt lat="48.1739" lon="-3.2995">
        <ele>310.8</ele>
        <time>2022-05-29T11:32:06Z</time>
      </trkpt>
      <trkpt lat="48.17396" lon="-3.29922">
        <ele>311.8</ele>
        <time>2022-05-29T11:32:11Z</time>
      </trkpt>
      <trkpt lat="48.17397" lon="-3.29917">
        <ele>312.1</ele>
        <time>2022-05-29T11:32:12Z</time>
      </trkpt>
      <trkpt lat="48.17406" lon="-3.29875">
        <ele>314.5</ele>
        <time>2022-05-29T11:32:21Z</time>
      </trkpt>
      <trkpt lat="48.17411" lon="-3.29852">
        <ele>315.2</ele>
        <time>2022-05-29T11:32:26Z</time>
      </trkpt>
      <trkpt lat="48.17411" lon="-3.29846">
        <ele>315.4</ele>
        <time>2022-05-29T11:32:27Z</time>
      </trkpt>
      <trkpt lat="48.17413" lon="-3.29825">
        <ele>316.3</ele>
        <time>2022-05-29T11:32:31Z</time>
      </trkpt>
      <trkpt lat="48.17421" lon="-3.29769">
        <ele>319.3</ele>
        <time>2022-05-29T11:32:43Z</time>
      </trkpt>
      <trkpt lat="48.17423" lon="-3.2976">
        <ele>319.9</ele>
        <time>2022-05-29T11:32:45Z</time>
      </trkpt>
      <trkpt lat="48.17445" lon="-3.29717">
        <ele>323.5</ele>
        <time>2022-05-29T11:32:58Z</time>
      </trkpt>
      <trkpt lat="48.17449" lon="-3.29702">
        <ele>324.2</ele>
        <time>2022-05-29T11:33:02Z</time>
      </trkpt>
      <trkpt lat="48.17452" lon="-3.29692">
        <ele>324.7</ele>
        <time>2022-05-29T11:33:05Z</time>
      </trkpt>
      <trkpt lat="48.17451" lon="-3.29681">
        <ele>325.2</ele>
        <time>2022-05-29T11:33:08Z</time>
      </trkpt>
      <trkpt lat="48.17449" lon="-3.29678">
        <ele>325.2</ele>
        <time>2022-05-29T11:33:09Z</time>
      </trkpt>
      <trkpt lat="48.17436" lon="-3.2967">
        <ele>325.3</ele>
        <time>2022-05-29T11:33:12Z</time>
      </trkpt>
      <trkpt lat="48.17432" lon="-3.2967">
        <ele>325.2</ele>
        <time>2022-05-29T11:33:13Z</time>
      </trkpt>
      <trkpt lat="48.17415" lon="-3.2967">
        <ele>324.6</ele>
        <time>2022-05-29T11:33:17Z</time>
      </trkpt>
      <trkpt lat="48.1741" lon="-3.2967">
        <ele>324.5</ele>
        <time>2022-05-29T11:33:18Z</time>
      </trkpt>
      <trkpt lat="48.17404" lon="-3.29668">
        <ele>324.3</ele>
        <time>2022-05-29T11:33:19Z</time>
      </trkpt>
      <trkpt lat="48.174" lon="-3.29659">
        <ele>324.2</ele>
        <time>2022-05-29T11:33:20Z</time>
      </trkpt>
      <trkpt lat="48.17399" lon="-3.29639">
        <ele>323.9</ele>
        <time>2022-05-29T11:33:22Z</time>
      </trkpt>
      <trkpt lat="48.17411" lon="-3.29601">
        <ele>323.3</ele>
        <time>2022-05-29T11:33:26Z</time>
      </trkpt>
      <trkpt lat="48.17413" lon="-3.29582">
        <ele>323.1</ele>
        <time>2022-05-29T11:33:28Z</time>
      </trkpt>
      <trkpt lat="48.17418" lon="-3.29534">
        <ele>323</ele>
        <time>2022-05-29T11:33:33Z</time>
      </trkpt>
      <trkpt lat="48.1742" lon="-3.29489">
        <ele>323</ele>
        <time>2022-05-29T11:33:38Z</time>
      </trkpt>
      <trkpt lat="48.17421" lon="-3.29462">
        <ele>323.4</ele>
        <time>2022-05-29T11:33:41Z</time>
      </trkpt>
      <trkpt lat="48.1742" lon="-3.29412">
        <ele>324.2</ele>
        <time>2022-05-29T11:33:47Z</time>
      </trkpt>
      <trkpt lat="48.17418" lon="-3.29405">
        <ele>324.3</ele>
        <time>2022-05-29T11:33:48Z</time>
      </trkpt>
      <trkpt lat="48.17408" lon="-3.29343">
        <ele>326.1</ele>
        <time>2022-05-29T11:33:57Z</time>
      </trkpt>
      <trkpt lat="48.17397" lon="-3.29306">
        <ele>327.4</ele>
        <time>2022-05-29T11:34:03Z</time>
      </trkpt>
      <trkpt lat="48.1739" lon="-3.29283">
        <ele>328.4</ele>
        <time>2022-05-29T11:34:07Z</time>
      </trkpt>
      <trkpt lat="48.17388" lon="-3.29278">
        <ele>328.6</ele>
        <time>2022-05-29T11:34:08Z</time>
      </trkpt>
      <trkpt lat="48.17387" lon="-3.29264">
        <ele>329.2</ele>
        <time>2022-05-29T11:34:10Z</time>
      </trkpt>
      <trkpt lat="48.17383" lon="-3.29249">
        <ele>329.9</ele>
        <time>2022-05-29T11:34:13Z</time>
      </trkpt>
      <trkpt lat="48.17372" lon="-3.29196">
        <ele>331.9</ele>
        <time>2022-05-29T11:34:23Z</time>
      </trkpt>
      <trkpt lat="48.17363" lon="-3.29169">
        <ele>332.2</ele>
        <time>2022-05-29T11:34:28Z</time>
      </trkpt>
      <trkpt lat="48.1735" lon="-3.2913">
        <ele>332.7</ele>
        <time>2022-05-29T11:34:35Z</time>
      </trkpt>
      <trkpt lat="48.17328" lon="-3.29069">
        <ele>333.3</ele>
        <time>2022-05-29T11:34:43Z</time>
      </trkpt>
      <trkpt lat="48.17299" lon="-3.2901">
        <ele>333.9</ele>
        <time>2022-05-29T11:34:51Z</time>
      </trkpt>
      <trkpt lat="48.17268" lon="-3.28968">
        <ele>334.4</ele>
        <time>2022-05-29T11:34:58Z</time>
      </trkpt>
      <trkpt lat="48.17264" lon="-3.28962">
        <ele>334.4</ele>
        <time>2022-05-29T11:34:59Z</time>
      </trkpt>
      <trkpt lat="48.17225" lon="-3.28914">
        <ele>335.1</ele>
        <time>2022-05-29T11:35:08Z</time>
      </trkpt>
      <trkpt lat="48.17188" lon="-3.28868">
        <ele>335.7</ele>
        <time>2022-05-29T11:35:17Z</time>
      </trkpt>
      <trkpt lat="48.17177" lon="-3.28853">
        <ele>336</ele>
        <time>2022-05-29T11:35:20Z</time>
      </trkpt>
      <trkpt lat="48.17151" lon="-3.28819">
        <ele>337.5</ele>
        <time>2022-05-29T11:35:27Z</time>
      </trkpt>
      <trkpt lat="48.17125" lon="-3.28781">
        <ele>339.3</ele>
        <time>2022-05-29T11:35:35Z</time>
      </trkpt>
      <trkpt lat="48.17118" lon="-3.28772">
        <ele>339.8</ele>
        <time>2022-05-29T11:35:37Z</time>
      </trkpt>
      <trkpt lat="48.17109" lon="-3.28761">
        <ele>340.4</ele>
        <time>2022-05-29T11:35:40Z</time>
      </trkpt>
      <trkpt lat="48.17093" lon="-3.28743">
        <ele>341.6</ele>
        <time>2022-05-29T11:35:45Z</time>
      </trkpt>
      <trkpt lat="48.1708" lon="-3.28728">
        <ele>342.5</ele>
        <time>2022-05-29T11:35:49Z</time>
      </trkpt>
      <trkpt lat="48.17038" lon="-3.28696">
        <ele>345.1</ele>
        <time>2022-05-29T11:36:00Z</time>
      </trkpt>
      <trkpt lat="48.16998" lon="-3.28664">
        <ele>347.3</ele>
        <time>2022-05-29T11:36:11Z</time>
      </trkpt>
      <trkpt lat="48.1698" lon="-3.28647">
        <ele>348.3</ele>
        <time>2022-05-29T11:36:16Z</time>
      </trkpt>
      <trkpt lat="48.16959" lon="-3.28626">
        <ele>349.4</ele>
        <time>2022-05-29T11:36:22Z</time>
      </trkpt>
      <trkpt lat="48.16925" lon="-3.28577">
        <ele>351.3</ele>
        <time>2022-05-29T11:36:33Z</time>
      </trkpt>
      <trkpt lat="48.16914" lon="-3.28561">
        <ele>351.8</ele>
        <time>2022-05-29T11:36:36Z</time>
      </trkpt>
      <trkpt lat="48.16893" lon="-3.2853">
        <ele>352.2</ele>
        <time>2022-05-29T11:36:42Z</time>
      </trkpt>
      <trkpt lat="48.16889" lon="-3.28524">
        <ele>352.1</ele>
        <time>2022-05-29T11:36:43Z</time>
      </trkpt>
      <trkpt lat="48.16856" lon="-3.28473">
        <ele>351</ele>
        <time>2022-05-29T11:36:50Z</time>
      </trkpt>
      <trkpt lat="48.16845" lon="-3.28455">
        <ele>350.6</ele>
        <time>2022-05-29T11:36:52Z</time>
      </trkpt>
      <trkpt lat="48.16821" lon="-3.28419">
        <ele>349.3</ele>
        <time>2022-05-29T11:36:56Z</time>
      </trkpt>
      <trkpt lat="48.16807" lon="-3.28401">
        <ele>348.8</ele>
        <time>2022-05-29T11:36:58Z</time>
      </trkpt>
      <trkpt lat="48.16792" lon="-3.28386">
        <ele>348.3</ele>
        <time>2022-05-29T11:37:00Z</time>
      </trkpt>
      <trkpt lat="48.16743" lon="-3.28362">
        <ele>347</ele>
        <time>2022-05-29T11:37:06Z</time>
      </trkpt>
      <trkpt lat="48.16717" lon="-3.28347">
        <ele>346.4</ele>
        <time>2022-05-29T11:37:09Z</time>
      </trkpt>
      <trkpt lat="48.16709" lon="-3.2834">
        <ele>346.1</ele>
        <time>2022-05-29T11:37:10Z</time>
      </trkpt>
      <trkpt lat="48.16672" lon="-3.28294">
        <ele>344.6</ele>
        <time>2022-05-29T11:37:15Z</time>
      </trkpt>
      <trkpt lat="48.16659" lon="-3.28272">
        <ele>344</ele>
        <time>2022-05-29T11:37:17Z</time>
      </trkpt>
      <trkpt lat="48.16647" lon="-3.2825">
        <ele>343.5</ele>
        <time>2022-05-29T11:37:19Z</time>
      </trkpt>
      <trkpt lat="48.16641" lon="-3.28241">
        <ele>343.3</ele>
        <time>2022-05-29T11:37:20Z</time>
      </trkpt>
      <trkpt lat="48.16626" lon="-3.28227">
        <ele>342.9</ele>
        <time>2022-05-29T11:37:22Z</time>
      </trkpt>
      <trkpt lat="48.16583" lon="-3.28199">
        <ele>341.9</ele>
        <time>2022-05-29T11:37:28Z</time>
      </trkpt>
      <trkpt lat="48.16575" lon="-3.28193">
        <ele>341.7</ele>
        <time>2022-05-29T11:37:29Z</time>
      </trkpt>
      <trkpt lat="48.16568" lon="-3.28185">
        <ele>341.6</ele>
        <time>2022-05-29T11:37:30Z</time>
      </trkpt>
      <trkpt lat="48.16559" lon="-3.28175">
        <ele>341.4</ele>
        <time>2022-05-29T11:37:31Z</time>
      </trkpt>
      <trkpt lat="48.1655" lon="-3.28164">
        <ele>341.3</ele>
        <time>2022-05-29T11:37:32Z</time>
      </trkpt>
      <trkpt lat="48.16545" lon="-3.28149">
        <ele>341.1</ele>
        <time>2022-05-29T11:37:33Z</time>
      </trkpt>
      <trkpt lat="48.16544" lon="-3.28133">
        <ele>341</ele>
        <time>2022-05-29T11:37:34Z</time>
      </trkpt>
      <trkpt lat="48.16547" lon="-3.28103">
        <ele>340.8</ele>
        <time>2022-05-29T11:37:36Z</time>
      </trkpt>
      <trkpt lat="48.16563" lon="-3.28055">
        <ele>340.3</ele>
        <time>2022-05-29T11:37:40Z</time>
      </trkpt>
      <trkpt lat="48.16563" lon="-3.28032">
        <ele>340.1</ele>
        <time>2022-05-29T11:37:42Z</time>
      </trkpt>
      <trkpt lat="48.16554" lon="-3.27996">
        <ele>339.7</ele>
        <time>2022-05-29T11:37:45Z</time>
      </trkpt>
      <trkpt lat="48.16522" lon="-3.27939">
        <ele>339.1</ele>
        <time>2022-05-29T11:37:51Z</time>
      </trkpt>
      <trkpt lat="48.16488" lon="-3.27885">
        <ele>338.4</ele>
        <time>2022-05-29T11:37:57Z</time>
      </trkpt>
      <trkpt lat="48.16453" lon="-3.27827">
        <ele>337.7</ele>
        <time>2022-05-29T11:38:03Z</time>
      </trkpt>
      <trkpt lat="48.16442" lon="-3.27791">
        <ele>337.5</ele>
        <time>2022-05-29T11:38:06Z</time>
      </trkpt>
      <trkpt lat="48.16431" lon="-3.27756">
        <ele>337.8</ele>
        <time>2022-05-29T11:38:09Z</time>
      </trkpt>
      <trkpt lat="48.16411" lon="-3.27697">
        <ele>338.3</ele>
        <time>2022-05-29T11:38:15Z</time>
      </trkpt>
      <trkpt lat="48.16409" lon="-3.2769">
        <ele>338.6</ele>
        <time>2022-05-29T11:38:16Z</time>
      </trkpt>
      <trkpt lat="48.16396" lon="-3.27655">
        <ele>340.4</ele>
        <time>2022-05-29T11:38:21Z</time>
      </trkpt>
      <trkpt lat="48.16388" lon="-3.27634">
        <ele>340.6</ele>
        <time>2022-05-29T11:38:24Z</time>
      </trkpt>
      <trkpt lat="48.16362" lon="-3.2758">
        <ele>341</ele>
        <time>2022-05-29T11:38:31Z</time>
      </trkpt>
      <trkpt lat="48.16358" lon="-3.27572">
        <ele>341.1</ele>
        <time>2022-05-29T11:38:32Z</time>
      </trkpt>
      <trkpt lat="48.16347" lon="-3.27556">
        <ele>341.2</ele>
        <time>2022-05-29T11:38:34Z</time>
      </trkpt>
      <trkpt lat="48.1634" lon="-3.27549">
        <ele>341.3</ele>
        <time>2022-05-29T11:38:35Z</time>
      </trkpt>
      <trkpt lat="48.1631" lon="-3.275">
        <ele>341.8</ele>
        <time>2022-05-29T11:38:41Z</time>
      </trkpt>
      <trkpt lat="48.16281" lon="-3.2745">
        <ele>342.3</ele>
        <time>2022-05-29T11:38:48Z</time>
      </trkpt>
      <trkpt lat="48.16271" lon="-3.27435">
        <ele>342.5</ele>
        <time>2022-05-29T11:38:51Z</time>
      </trkpt>
      <trkpt lat="48.16264" lon="-3.27428">
        <ele>342.7</ele>
        <time>2022-05-29T11:38:53Z</time>
      </trkpt>
      <trkpt lat="48.16248" lon="-3.2741">
        <ele>344.3</ele>
        <time>2022-05-29T11:38:58Z</time>
      </trkpt>
      <trkpt lat="48.16231" lon="-3.27392">
        <ele>345.5</ele>
        <time>2022-05-29T11:39:03Z</time>
      </trkpt>
      <trkpt lat="48.16213" lon="-3.27378">
        <ele>346.7</ele>
        <time>2022-05-29T11:39:08Z</time>
      </trkpt>
      <trkpt lat="48.16187" lon="-3.27359">
        <ele>347.6</ele>
        <time>2022-05-29T11:39:15Z</time>
      </trkpt>
      <trkpt lat="48.16152" lon="-3.27334">
        <ele>348.7</ele>
        <time>2022-05-29T11:39:24Z</time>
      </trkpt>
      <trkpt lat="48.16144" lon="-3.27328">
        <ele>348.5</ele>
        <time>2022-05-29T11:39:26Z</time>
      </trkpt>
      <trkpt lat="48.16101" lon="-3.27302">
        <ele>347.5</ele>
        <time>2022-05-29T11:39:34Z</time>
      </trkpt>
      <trkpt lat="48.16054" lon="-3.27276">
        <ele>346.7</ele>
        <time>2022-05-29T11:39:41Z</time>
      </trkpt>
      <trkpt lat="48.16024" lon="-3.27254">
        <ele>346</ele>
        <time>2022-05-29T11:39:45Z</time>
      </trkpt>
      <trkpt lat="48.16008" lon="-3.27242">
        <ele>344.8</ele>
        <time>2022-05-29T11:39:47Z</time>
      </trkpt>
      <trkpt lat="48.15968" lon="-3.27208">
        <ele>341.8</ele>
        <time>2022-05-29T11:39:52Z</time>
      </trkpt>
      <trkpt lat="48.15941" lon="-3.27188">
        <ele>339.8</ele>
        <time>2022-05-29T11:39:55Z</time>
      </trkpt>
      <trkpt lat="48.1593" lon="-3.2718">
        <ele>338.9</ele>
        <time>2022-05-29T11:39:56Z</time>
      </trkpt>
      <trkpt lat="48.15891" lon="-3.27137">
        <ele>335.6</ele>
        <time>2022-05-29T11:40:00Z</time>
      </trkpt>
      <trkpt lat="48.15853" lon="-3.27099">
        <ele>334.9</ele>
        <time>2022-05-29T11:40:04Z</time>
      </trkpt>
      <trkpt lat="48.15815" lon="-3.27059">
        <ele>334.1</ele>
        <time>2022-05-29T11:40:09Z</time>
      </trkpt>
      <trkpt lat="48.15809" lon="-3.27052">
        <ele>334.1</ele>
        <time>2022-05-29T11:40:10Z</time>
      </trkpt>
      <trkpt lat="48.1578" lon="-3.27021">
        <ele>334.9</ele>
        <time>2022-05-29T11:40:15Z</time>
      </trkpt>
      <trkpt lat="48.15775" lon="-3.27015">
        <ele>335.4</ele>
        <time>2022-05-29T11:40:16Z</time>
      </trkpt>
      <trkpt lat="48.15754" lon="-3.26992">
        <ele>337.4</ele>
        <time>2022-05-29T11:40:21Z</time>
      </trkpt>
      <trkpt lat="48.15736" lon="-3.26973">
        <ele>338.2</ele>
        <time>2022-05-29T11:40:25Z</time>
      </trkpt>
      <trkpt lat="48.15698" lon="-3.26937">
        <ele>339.6</ele>
        <time>2022-05-29T11:40:33Z</time>
      </trkpt>
      <trkpt lat="48.15692" lon="-3.26932">
        <ele>339.2</ele>
        <time>2022-05-29T11:40:34Z</time>
      </trkpt>
      <trkpt lat="48.15655" lon="-3.26898">
        <ele>337.1</ele>
        <time>2022-05-29T11:40:39Z</time>
      </trkpt>
      <trkpt lat="48.15647" lon="-3.26891">
        <ele>336.6</ele>
        <time>2022-05-29T11:40:40Z</time>
      </trkpt>
      <trkpt lat="48.15614" lon="-3.2686">
        <ele>334.4</ele>
        <time>2022-05-29T11:40:44Z</time>
      </trkpt>
      <trkpt lat="48.15594" lon="-3.26834">
        <ele>333.8</ele>
        <time>2022-05-29T11:40:47Z</time>
      </trkpt>
      <trkpt lat="48.15578" lon="-3.26778">
        <ele>333.1</ele>
        <time>2022-05-29T11:40:51Z</time>
      </trkpt>
      <trkpt lat="48.15574" lon="-3.26739">
        <ele>332.6</ele>
        <time>2022-05-29T11:40:54Z</time>
      </trkpt>
      <trkpt lat="48.15572" lon="-3.26728">
        <ele>332.6</ele>
        <time>2022-05-29T11:40:55Z</time>
      </trkpt>
      <trkpt lat="48.15563" lon="-3.26679">
        <ele>332.9</ele>
        <time>2022-05-29T11:41:00Z</time>
      </trkpt>
      <trkpt lat="48.15559" lon="-3.2666">
        <ele>333.3</ele>
        <time>2022-05-29T11:41:02Z</time>
      </trkpt>
      <trkpt lat="48.15555" lon="-3.26632">
        <ele>334</ele>
        <time>2022-05-29T11:41:05Z</time>
      </trkpt>
      <trkpt lat="48.15542" lon="-3.2658">
        <ele>335.5</ele>
        <time>2022-05-29T11:41:12Z</time>
      </trkpt>
      <trkpt lat="48.15538" lon="-3.26565">
        <ele>336.1</ele>
        <time>2022-05-29T11:41:14Z</time>
      </trkpt>
      <trkpt lat="48.15533" lon="-3.26542">
        <ele>337.1</ele>
        <time>2022-05-29T11:41:18Z</time>
      </trkpt>
      <trkpt lat="48.15532" lon="-3.26536">
        <ele>337.2</ele>
        <time>2022-05-29T11:41:19Z</time>
      </trkpt>
      <trkpt lat="48.15527" lon="-3.26526">
        <ele>337.4</ele>
        <time>2022-05-29T11:41:21Z</time>
      </trkpt>
      <trkpt lat="48.15523" lon="-3.26517">
        <ele>337.6</ele>
        <time>2022-05-29T11:41:23Z</time>
      </trkpt>
      <trkpt lat="48.15498" lon="-3.2649">
        <ele>338.3</ele>
        <time>2022-05-29T11:41:30Z</time>
      </trkpt>
      <trkpt lat="48.1545" lon="-3.26486">
        <ele>336.9</ele>
        <time>2022-05-29T11:41:39Z</time>
      </trkpt>
      <trkpt lat="48.15399" lon="-3.26486">
        <ele>335.8</ele>
        <time>2022-05-29T11:41:46Z</time>
      </trkpt>
      <trkpt lat="48.15392" lon="-3.26484">
        <ele>335.7</ele>
        <time>2022-05-29T11:41:47Z</time>
      </trkpt>
      <trkpt lat="48.15358" lon="-3.26477">
        <ele>335.5</ele>
        <time>2022-05-29T11:41:52Z</time>
      </trkpt>
      <trkpt lat="48.15352" lon="-3.26475">
        <ele>335.7</ele>
        <time>2022-05-29T11:41:53Z</time>
      </trkpt>
      <trkpt lat="48.15332" lon="-3.26458">
        <ele>336.2</ele>
        <time>2022-05-29T11:41:57Z</time>
      </trkpt>
      <trkpt lat="48.15318" lon="-3.26443">
        <ele>336.7</ele>
        <time>2022-05-29T11:42:00Z</time>
      </trkpt>
      <trkpt lat="48.15308" lon="-3.26425">
        <ele>336.8</ele>
        <time>2022-05-29T11:42:02Z</time>
      </trkpt>
      <trkpt lat="48.15289" lon="-3.26388">
        <ele>335.9</ele>
        <time>2022-05-29T11:42:06Z</time>
      </trkpt>
      <trkpt lat="48.15283" lon="-3.26377">
        <ele>335.5</ele>
        <time>2022-05-29T11:42:07Z</time>
      </trkpt>
      <trkpt lat="48.1526" lon="-3.26331">
        <ele>333.7</ele>
        <time>2022-05-29T11:42:11Z</time>
      </trkpt>
      <trkpt lat="48.15254" lon="-3.26319">
        <ele>333.1</ele>
        <time>2022-05-29T11:42:12Z</time>
      </trkpt>
      <trkpt lat="48.15236" lon="-3.26282">
        <ele>330.9</ele>
        <time>2022-05-29T11:42:15Z</time>
      </trkpt>
      <trkpt lat="48.1523" lon="-3.26268">
        <ele>330.2</ele>
        <time>2022-05-29T11:42:16Z</time>
      </trkpt>
      <trkpt lat="48.15224" lon="-3.26255">
        <ele>329.6</ele>
        <time>2022-05-29T11:42:17Z</time>
      </trkpt>
      <trkpt lat="48.15198" lon="-3.26205">
        <ele>328.2</ele>
        <time>2022-05-29T11:42:21Z</time>
      </trkpt>
      <trkpt lat="48.15168" lon="-3.26145">
        <ele>326.5</ele>
        <time>2022-05-29T11:42:26Z</time>
      </trkpt>
      <trkpt lat="48.15162" lon="-3.26135">
        <ele>326.2</ele>
        <time>2022-05-29T11:42:27Z</time>
      </trkpt>
      <trkpt lat="48.15139" lon="-3.26094">
        <ele>325.7</ele>
        <time>2022-05-29T11:42:31Z</time>
      </trkpt>
      <trkpt lat="48.15135" lon="-3.26086">
        <ele>325.7</ele>
        <time>2022-05-29T11:42:32Z</time>
      </trkpt>
      <trkpt lat="48.15117" lon="-3.26044">
        <ele>327.5</ele>
        <time>2022-05-29T11:42:37Z</time>
      </trkpt>
      <trkpt lat="48.15112" lon="-3.26022">
        <ele>328.8</ele>
        <time>2022-05-29T11:42:40Z</time>
      </trkpt>
      <trkpt lat="48.15106" lon="-3.26011">
        <ele>329.6</ele>
        <time>2022-05-29T11:42:42Z</time>
      </trkpt>
      <trkpt lat="48.15105" lon="-3.26005">
        <ele>329.9</ele>
        <time>2022-05-29T11:42:43Z</time>
      </trkpt>
      <trkpt lat="48.15107" lon="-3.25988">
        <ele>330.8</ele>
        <time>2022-05-29T11:42:46Z</time>
      </trkpt>
      <trkpt lat="48.15093" lon="-3.25952">
        <ele>332.6</ele>
        <time>2022-05-29T11:42:52Z</time>
      </trkpt>
      <trkpt lat="48.15083" lon="-3.25927">
        <ele>332.7</ele>
        <time>2022-05-29T11:42:56Z</time>
      </trkpt>
      <trkpt lat="48.15076" lon="-3.25915">
        <ele>332.8</ele>
        <time>2022-05-29T11:42:58Z</time>
      </trkpt>
      <trkpt lat="48.15057" lon="-3.25884">
        <ele>333</ele>
        <time>2022-05-29T11:43:03Z</time>
      </trkpt>
      <trkpt lat="48.15052" lon="-3.25877">
        <ele>332.8</ele>
        <time>2022-05-29T11:43:04Z</time>
      </trkpt>
      <trkpt lat="48.15017" lon="-3.25828">
        <ele>331.4</ele>
        <time>2022-05-29T11:43:11Z</time>
      </trkpt>
      <trkpt lat="48.14994" lon="-3.25792">
        <ele>330.6</ele>
        <time>2022-05-29T11:43:15Z</time>
      </trkpt>
      <trkpt lat="48.14982" lon="-3.25774">
        <ele>330.4</ele>
        <time>2022-05-29T11:43:17Z</time>
      </trkpt>
      <trkpt lat="48.14971" lon="-3.25756">
        <ele>330.2</ele>
        <time>2022-05-29T11:43:19Z</time>
      </trkpt>
      <trkpt lat="48.14946" lon="-3.25696">
        <ele>329.8</ele>
        <time>2022-05-29T11:43:26Z</time>
      </trkpt>
      <trkpt lat="48.14932" lon="-3.25662">
        <ele>330.9</ele>
        <time>2022-05-29T11:43:31Z</time>
      </trkpt>
      <trkpt lat="48.14921" lon="-3.25634">
        <ele>331.1</ele>
        <time>2022-05-29T11:43:35Z</time>
      </trkpt>
      <trkpt lat="48.14896" lon="-3.25579">
        <ele>331.3</ele>
        <time>2022-05-29T11:43:41Z</time>
      </trkpt>
      <trkpt lat="48.14891" lon="-3.2557">
        <ele>331.1</ele>
        <time>2022-05-29T11:43:42Z</time>
      </trkpt>
      <trkpt lat="48.14865" lon="-3.25542">
        <ele>330.4</ele>
        <time>2022-05-29T11:43:46Z</time>
      </trkpt>
      <trkpt lat="48.14823" lon="-3.25523">
        <ele>329.4</ele>
        <time>2022-05-29T11:43:51Z</time>
      </trkpt>
      <trkpt lat="48.14816" lon="-3.25516">
        <ele>329.2</ele>
        <time>2022-05-29T11:43:52Z</time>
      </trkpt>
      <trkpt lat="48.14808" lon="-3.25512">
        <ele>329</ele>
        <time>2022-05-29T11:43:53Z</time>
      </trkpt>
      <trkpt lat="48.14766" lon="-3.25498">
        <ele>327.8</ele>
        <time>2022-05-29T11:43:58Z</time>
      </trkpt>
      <trkpt lat="48.14744" lon="-3.25471">
        <ele>326.9</ele>
        <time>2022-05-29T11:44:02Z</time>
      </trkpt>
      <trkpt lat="48.14738" lon="-3.25463">
        <ele>326.7</ele>
        <time>2022-05-29T11:44:03Z</time>
      </trkpt>
      <trkpt lat="48.1471" lon="-3.25416">
        <ele>325.5</ele>
        <time>2022-05-29T11:44:08Z</time>
      </trkpt>
      <trkpt lat="48.14704" lon="-3.25406">
        <ele>325.3</ele>
        <time>2022-05-29T11:44:09Z</time>
      </trkpt>
      <trkpt lat="48.14679" lon="-3.25367">
        <ele>324.4</ele>
        <time>2022-05-29T11:44:13Z</time>
      </trkpt>
      <trkpt lat="48.14672" lon="-3.25359">
        <ele>324</ele>
        <time>2022-05-29T11:44:14Z</time>
      </trkpt>
      <trkpt lat="48.14638" lon="-3.25317">
        <ele>322.5</ele>
        <time>2022-05-29T11:44:19Z</time>
      </trkpt>
      <trkpt lat="48.1463" lon="-3.25309">
        <ele>322.2</ele>
        <time>2022-05-29T11:44:20Z</time>
      </trkpt>
      <trkpt lat="48.14575" lon="-3.25269">
        <ele>320.8</ele>
        <time>2022-05-29T11:44:26Z</time>
      </trkpt>
      <trkpt lat="48.14555" lon="-3.25259">
        <ele>320</ele>
        <time>2022-05-29T11:44:29Z</time>
      </trkpt>
      <trkpt lat="48.14534" lon="-3.25251">
        <ele>319</ele>
        <time>2022-05-29T11:44:32Z</time>
      </trkpt>
      <trkpt lat="48.14515" lon="-3.2525">
        <ele>318.3</ele>
        <time>2022-05-29T11:44:34Z</time>
      </trkpt>
      <trkpt lat="48.14496" lon="-3.25248">
        <ele>317.6</ele>
        <time>2022-05-29T11:44:36Z</time>
      </trkpt>
      <trkpt lat="48.1445" lon="-3.25232">
        <ele>316</ele>
        <time>2022-05-29T11:44:41Z</time>
      </trkpt>
      <trkpt lat="48.14402" lon="-3.25216">
        <ele>314.4</ele>
        <time>2022-05-29T11:44:46Z</time>
      </trkpt>
      <trkpt lat="48.14362" lon="-3.25205">
        <ele>313.1</ele>
        <time>2022-05-29T11:44:50Z</time>
      </trkpt>
      <trkpt lat="48.14351" lon="-3.25203">
        <ele>312.8</ele>
        <time>2022-05-29T11:44:51Z</time>
      </trkpt>
      <trkpt lat="48.14299" lon="-3.25191">
        <ele>311.3</ele>
        <time>2022-05-29T11:44:56Z</time>
      </trkpt>
      <trkpt lat="48.1427" lon="-3.25184">
        <ele>310.4</ele>
        <time>2022-05-29T11:44:59Z</time>
      </trkpt>
      <trkpt lat="48.1425" lon="-3.2518">
        <ele>309.9</ele>
        <time>2022-05-29T11:45:01Z</time>
      </trkpt>
      <trkpt lat="48.14239" lon="-3.25179">
        <ele>309.8</ele>
        <time>2022-05-29T11:45:02Z</time>
      </trkpt>
      <trkpt lat="48.14205" lon="-3.25161">
        <ele>309.4</ele>
        <time>2022-05-29T11:45:06Z</time>
      </trkpt>
      <trkpt lat="48.14197" lon="-3.25155">
        <ele>309.3</ele>
        <time>2022-05-29T11:45:07Z</time>
      </trkpt>
      <trkpt lat="48.14166" lon="-3.25126">
        <ele>308.9</ele>
        <time>2022-05-29T11:45:11Z</time>
      </trkpt>
      <trkpt lat="48.14151" lon="-3.25111">
        <ele>308.6</ele>
        <time>2022-05-29T11:45:13Z</time>
      </trkpt>
      <trkpt lat="48.1413" lon="-3.25085">
        <ele>308.2</ele>
        <time>2022-05-29T11:45:16Z</time>
      </trkpt>
      <trkpt lat="48.14116" lon="-3.25067">
        <ele>308.1</ele>
        <time>2022-05-29T11:45:18Z</time>
      </trkpt>
      <trkpt lat="48.14097" lon="-3.2504">
        <ele>307.9</ele>
        <time>2022-05-29T11:45:21Z</time>
      </trkpt>
      <trkpt lat="48.14077" lon="-3.25013">
        <ele>307.7</ele>
        <time>2022-05-29T11:45:24Z</time>
      </trkpt>
      <trkpt lat="48.14038" lon="-3.24963">
        <ele>307.2</ele>
        <time>2022-05-29T11:45:30Z</time>
      </trkpt>
      <trkpt lat="48.14001" lon="-3.24912">
        <ele>306.8</ele>
        <time>2022-05-29T11:45:36Z</time>
      </trkpt>
      <trkpt lat="48.13965" lon="-3.24859">
        <ele>306.3</ele>
        <time>2022-05-29T11:45:42Z</time>
      </trkpt>
      <trkpt lat="48.13944" lon="-3.24814">
        <ele>306</ele>
        <time>2022-05-29T11:45:46Z</time>
      </trkpt>
      <trkpt lat="48.13919" lon="-3.24759">
        <ele>305.6</ele>
        <time>2022-05-29T11:45:51Z</time>
      </trkpt>
      <trkpt lat="48.13888" lon="-3.2472">
        <ele>305.2</ele>
        <time>2022-05-29T11:45:56Z</time>
      </trkpt>
      <trkpt lat="48.13856" lon="-3.24709">
        <ele>304.9</ele>
        <time>2022-05-29T11:46:00Z</time>
      </trkpt>
      <trkpt lat="48.13834" lon="-3.24715">
        <ele>304.7</ele>
        <time>2022-05-29T11:46:03Z</time>
      </trkpt>
      <trkpt lat="48.13811" lon="-3.24718">
        <ele>304.7</ele>
        <time>2022-05-29T11:46:06Z</time>
      </trkpt>
      <trkpt lat="48.13797" lon="-3.24708">
        <ele>304.6</ele>
        <time>2022-05-29T11:46:08Z</time>
      </trkpt>
      <trkpt lat="48.13768" lon="-3.24687">
        <ele>304.1</ele>
        <time>2022-05-29T11:46:12Z</time>
      </trkpt>
      <trkpt lat="48.13743" lon="-3.24654">
        <ele>303.6</ele>
        <time>2022-05-29T11:46:16Z</time>
      </trkpt>
      <trkpt lat="48.13737" lon="-3.24644">
        <ele>303.5</ele>
        <time>2022-05-29T11:46:17Z</time>
      </trkpt>
      <trkpt lat="48.13701" lon="-3.24594">
        <ele>302.8</ele>
        <time>2022-05-29T11:46:23Z</time>
      </trkpt>
      <trkpt lat="48.13661" lon="-3.24549">
        <ele>302.1</ele>
        <time>2022-05-29T11:46:29Z</time>
      </trkpt>
      <trkpt lat="48.13612" lon="-3.24519">
        <ele>301.2</ele>
        <time>2022-05-29T11:46:36Z</time>
      </trkpt>
      <trkpt lat="48.13563" lon="-3.24498">
        <ele>300.5</ele>
        <time>2022-05-29T11:46:42Z</time>
      </trkpt>
      <trkpt lat="48.13535" lon="-3.24488">
        <ele>300.1</ele>
        <time>2022-05-29T11:46:45Z</time>
      </trkpt>
      <trkpt lat="48.13516" lon="-3.24482">
        <ele>299.6</ele>
        <time>2022-05-29T11:46:47Z</time>
      </trkpt>
      <trkpt lat="48.1348" lon="-3.24467">
        <ele>298.5</ele>
        <time>2022-05-29T11:46:51Z</time>
      </trkpt>
      <trkpt lat="48.13471" lon="-3.24464">
        <ele>298.2</ele>
        <time>2022-05-29T11:46:52Z</time>
      </trkpt>
      <trkpt lat="48.13428" lon="-3.24447">
        <ele>296.6</ele>
        <time>2022-05-29T11:46:57Z</time>
      </trkpt>
      <trkpt lat="48.13414" lon="-3.24442">
        <ele>296</ele>
        <time>2022-05-29T11:46:59Z</time>
      </trkpt>
      <trkpt lat="48.13404" lon="-3.2444">
        <ele>295.7</ele>
        <time>2022-05-29T11:47:00Z</time>
      </trkpt>
      <trkpt lat="48.13383" lon="-3.24433">
        <ele>295.1</ele>
        <time>2022-05-29T11:47:02Z</time>
      </trkpt>
      <trkpt lat="48.13361" lon="-3.24428">
        <ele>294.4</ele>
        <time>2022-05-29T11:47:04Z</time>
      </trkpt>
      <trkpt lat="48.1334" lon="-3.24429">
        <ele>293.7</ele>
        <time>2022-05-29T11:47:06Z</time>
      </trkpt>
      <trkpt lat="48.13288" lon="-3.24425">
        <ele>292</ele>
        <time>2022-05-29T11:47:11Z</time>
      </trkpt>
      <trkpt lat="48.13267" lon="-3.24423">
        <ele>291.2</ele>
        <time>2022-05-29T11:47:13Z</time>
      </trkpt>
      <trkpt lat="48.13236" lon="-3.24419">
        <ele>290.1</ele>
        <time>2022-05-29T11:47:16Z</time>
      </trkpt>
      <trkpt lat="48.13181" lon="-3.24402">
        <ele>288.1</ele>
        <time>2022-05-29T11:47:21Z</time>
      </trkpt>
      <trkpt lat="48.13137" lon="-3.24384">
        <ele>286.5</ele>
        <time>2022-05-29T11:47:25Z</time>
      </trkpt>
      <trkpt lat="48.13089" lon="-3.24344">
        <ele>285.2</ele>
        <time>2022-05-29T11:47:30Z</time>
      </trkpt>
      <trkpt lat="48.13047" lon="-3.24299">
        <ele>283.8</ele>
        <time>2022-05-29T11:47:35Z</time>
      </trkpt>
      <trkpt lat="48.13031" lon="-3.24282">
        <ele>283.3</ele>
        <time>2022-05-29T11:47:37Z</time>
      </trkpt>
      <trkpt lat="48.13006" lon="-3.24256">
        <ele>282.7</ele>
        <time>2022-05-29T11:47:40Z</time>
      </trkpt>
      <trkpt lat="48.12983" lon="-3.2423">
        <ele>282.3</ele>
        <time>2022-05-29T11:47:43Z</time>
      </trkpt>
      <trkpt lat="48.12968" lon="-3.24213">
        <ele>282.3</ele>
        <time>2022-05-29T11:47:45Z</time>
      </trkpt>
      <trkpt lat="48.12941" lon="-3.24183">
        <ele>282.4</ele>
        <time>2022-05-29T11:47:49Z</time>
      </trkpt>
      <trkpt lat="48.12928" lon="-3.24168">
        <ele>282.8</ele>
        <time>2022-05-29T11:47:51Z</time>
      </trkpt>
      <trkpt lat="48.12906" lon="-3.24142">
        <ele>283.5</ele>
        <time>2022-05-29T11:47:55Z</time>
      </trkpt>
      <trkpt lat="48.1289" lon="-3.24122">
        <ele>283.9</ele>
        <time>2022-05-29T11:47:58Z</time>
      </trkpt>
      <trkpt lat="48.12857" lon="-3.24068">
        <ele>285</ele>
        <time>2022-05-29T11:48:06Z</time>
      </trkpt>
      <trkpt lat="48.12835" lon="-3.24027">
        <ele>285.5</ele>
        <time>2022-05-29T11:48:11Z</time>
      </trkpt>
      <trkpt lat="48.12826" lon="-3.24011">
        <ele>285.3</ele>
        <time>2022-05-29T11:48:13Z</time>
      </trkpt>
      <trkpt lat="48.12794" lon="-3.23948">
        <ele>284.6</ele>
        <time>2022-05-29T11:48:20Z</time>
      </trkpt>
      <trkpt lat="48.12757" lon="-3.23904">
        <ele>284.1</ele>
        <time>2022-05-29T11:48:26Z</time>
      </trkpt>
      <trkpt lat="48.12719" lon="-3.2388">
        <ele>283.6</ele>
        <time>2022-05-29T11:48:31Z</time>
      </trkpt>
      <trkpt lat="48.12711" lon="-3.23876">
        <ele>283.5</ele>
        <time>2022-05-29T11:48:32Z</time>
      </trkpt>
      <trkpt lat="48.12662" lon="-3.23851">
        <ele>283</ele>
        <time>2022-05-29T11:48:38Z</time>
      </trkpt>
      <trkpt lat="48.12615" lon="-3.23823">
        <ele>282.4</ele>
        <time>2022-05-29T11:48:44Z</time>
      </trkpt>
      <trkpt lat="48.12571" lon="-3.23798">
        <ele>281.9</ele>
        <time>2022-05-29T11:48:50Z</time>
      </trkpt>
      <trkpt lat="48.12563" lon="-3.23794">
        <ele>281.9</ele>
        <time>2022-05-29T11:48:51Z</time>
      </trkpt>
      <trkpt lat="48.12527" lon="-3.23774">
        <ele>282.4</ele>
        <time>2022-05-29T11:48:56Z</time>
      </trkpt>
      <trkpt lat="48.12479" lon="-3.23746">
        <ele>283</ele>
        <time>2022-05-29T11:49:03Z</time>
      </trkpt>
      <trkpt lat="48.12435" lon="-3.23722">
        <ele>283.7</ele>
        <time>2022-05-29T11:49:10Z</time>
      </trkpt>
      <trkpt lat="48.12424" lon="-3.23715">
        <ele>283.9</ele>
        <time>2022-05-29T11:49:12Z</time>
      </trkpt>
      <trkpt lat="48.12393" lon="-3.23693">
        <ele>285.2</ele>
        <time>2022-05-29T11:49:18Z</time>
      </trkpt>
      <trkpt lat="48.12354" lon="-3.23655">
        <ele>286.9</ele>
        <time>2022-05-29T11:49:26Z</time>
      </trkpt>
      <trkpt lat="48.12344" lon="-3.23646">
        <ele>287.3</ele>
        <time>2022-05-29T11:49:28Z</time>
      </trkpt>
      <trkpt lat="48.12314" lon="-3.23619">
        <ele>287.7</ele>
        <time>2022-05-29T11:49:34Z</time>
      </trkpt>
      <trkpt lat="48.12287" lon="-3.23596">
        <ele>287.9</ele>
        <time>2022-05-29T11:49:39Z</time>
      </trkpt>
      <trkpt lat="48.12271" lon="-3.23581">
        <ele>287.6</ele>
        <time>2022-05-29T11:49:42Z</time>
      </trkpt>
      <trkpt lat="48.12192" lon="-3.2351">
        <ele>285.4</ele>
        <time>2022-05-29T11:49:51Z</time>
      </trkpt>
      <trkpt lat="48.12192" lon="-3.2351">
        <ele>285.4</ele>
        <time>2022-05-29T11:50:39Z</time>
      </trkpt>
      <trkpt lat="48.12152" lon="-3.23473">
        <ele>284.1</ele>
        <time>2022-05-29T11:50:45Z</time>
      </trkpt>
      <trkpt lat="48.12146" lon="-3.23469">
        <ele>284</ele>
        <time>2022-05-29T11:50:46Z</time>
      </trkpt>
      <trkpt lat="48.12109" lon="-3.23446">
        <ele>283.2</ele>
        <time>2022-05-29T11:50:52Z</time>
      </trkpt>
      <trkpt lat="48.12075" lon="-3.23433">
        <ele>282.5</ele>
        <time>2022-05-29T11:50:57Z</time>
      </trkpt>
      <trkpt lat="48.12062" lon="-3.23427">
        <ele>282.2</ele>
        <time>2022-05-29T11:50:59Z</time>
      </trkpt>
      <trkpt lat="48.12048" lon="-3.23422">
        <ele>282</ele>
        <time>2022-05-29T11:51:01Z</time>
      </trkpt>
      <trkpt lat="48.12016" lon="-3.23409">
        <ele>281.8</ele>
        <time>2022-05-29T11:51:06Z</time>
      </trkpt>
      <trkpt lat="48.11971" lon="-3.2339">
        <ele>281.5</ele>
        <time>2022-05-29T11:51:13Z</time>
      </trkpt>
      <trkpt lat="48.11924" lon="-3.23371">
        <ele>281.1</ele>
        <time>2022-05-29T11:51:20Z</time>
      </trkpt>
      <trkpt lat="48.1188" lon="-3.23351">
        <ele>280.9</ele>
        <time>2022-05-29T11:51:26Z</time>
      </trkpt>
      <trkpt lat="48.11871" lon="-3.23347">
        <ele>280.7</ele>
        <time>2022-05-29T11:51:27Z</time>
      </trkpt>
      <trkpt lat="48.11827" lon="-3.23329">
        <ele>278.8</ele>
        <time>2022-05-29T11:51:32Z</time>
      </trkpt>
      <trkpt lat="48.11781" lon="-3.23307">
        <ele>276.9</ele>
        <time>2022-05-29T11:51:37Z</time>
      </trkpt>
      <trkpt lat="48.11734" lon="-3.23282">
        <ele>274.6</ele>
        <time>2022-05-29T11:51:42Z</time>
      </trkpt>
      <trkpt lat="48.11697" lon="-3.23261">
        <ele>272.8</ele>
        <time>2022-05-29T11:51:46Z</time>
      </trkpt>
      <trkpt lat="48.11689" lon="-3.23253">
        <ele>272.3</ele>
        <time>2022-05-29T11:51:47Z</time>
      </trkpt>
      <trkpt lat="48.11679" lon="-3.23245">
        <ele>271.9</ele>
        <time>2022-05-29T11:51:48Z</time>
      </trkpt>
      <trkpt lat="48.11637" lon="-3.23213">
        <ele>270.1</ele>
        <time>2022-05-29T11:51:52Z</time>
      </trkpt>
      <trkpt lat="48.1159" lon="-3.23171">
        <ele>267.9</ele>
        <time>2022-05-29T11:51:57Z</time>
      </trkpt>
      <trkpt lat="48.11581" lon="-3.23163">
        <ele>267.5</ele>
        <time>2022-05-29T11:51:58Z</time>
      </trkpt>
      <trkpt lat="48.11546" lon="-3.2313">
        <ele>266.2</ele>
        <time>2022-05-29T11:52:02Z</time>
      </trkpt>
      <trkpt lat="48.11505" lon="-3.2308">
        <ele>264.6</ele>
        <time>2022-05-29T11:52:07Z</time>
      </trkpt>
      <trkpt lat="48.1149" lon="-3.23059">
        <ele>263.9</ele>
        <time>2022-05-29T11:52:09Z</time>
      </trkpt>
      <trkpt lat="48.11481" lon="-3.23049">
        <ele>263.6</ele>
        <time>2022-05-29T11:52:10Z</time>
      </trkpt>
      <trkpt lat="48.11447" lon="-3.2301">
        <ele>262.7</ele>
        <time>2022-05-29T11:52:14Z</time>
      </trkpt>
      <trkpt lat="48.11406" lon="-3.22965">
        <ele>261.6</ele>
        <time>2022-05-29T11:52:19Z</time>
      </trkpt>
      <trkpt lat="48.11383" lon="-3.2294">
        <ele>260.9</ele>
        <time>2022-05-29T11:52:22Z</time>
      </trkpt>
      <trkpt lat="48.11368" lon="-3.22922">
        <ele>260.2</ele>
        <time>2022-05-29T11:52:24Z</time>
      </trkpt>
      <trkpt lat="48.11334" lon="-3.22869">
        <ele>258.6</ele>
        <time>2022-05-29T11:52:29Z</time>
      </trkpt>
      <trkpt lat="48.11327" lon="-3.22858">
        <ele>258.2</ele>
        <time>2022-05-29T11:52:30Z</time>
      </trkpt>
      <trkpt lat="48.11307" lon="-3.22824">
        <ele>257.3</ele>
        <time>2022-05-29T11:52:33Z</time>
      </trkpt>
      <trkpt lat="48.11298" lon="-3.22815">
        <ele>256.8</ele>
        <time>2022-05-29T11:52:34Z</time>
      </trkpt>
      <trkpt lat="48.11288" lon="-3.22809">
        <ele>256.3</ele>
        <time>2022-05-29T11:52:35Z</time>
      </trkpt>
      <trkpt lat="48.11234" lon="-3.22797">
        <ele>253.9</ele>
        <time>2022-05-29T11:52:40Z</time>
      </trkpt>
      <trkpt lat="48.11183" lon="-3.22795">
        <ele>253.3</ele>
        <time>2022-05-29T11:52:45Z</time>
      </trkpt>
      <trkpt lat="48.11138" lon="-3.22793">
        <ele>252.6</ele>
        <time>2022-05-29T11:52:50Z</time>
      </trkpt>
      <trkpt lat="48.11121" lon="-3.22792">
        <ele>252.5</ele>
        <time>2022-05-29T11:52:52Z</time>
      </trkpt>
      <trkpt lat="48.11087" lon="-3.22791">
        <ele>253</ele>
        <time>2022-05-29T11:52:56Z</time>
      </trkpt>
      <trkpt lat="48.11079" lon="-3.2279">
        <ele>253.1</ele>
        <time>2022-05-29T11:52:57Z</time>
      </trkpt>
      <trkpt lat="48.11036" lon="-3.2279">
        <ele>253.1</ele>
        <time>2022-05-29T11:53:02Z</time>
      </trkpt>
      <trkpt lat="48.11028" lon="-3.2279">
        <ele>253.1</ele>
        <time>2022-05-29T11:53:03Z</time>
      </trkpt>
      <trkpt lat="48.10989" lon="-3.22789">
        <ele>252.9</ele>
        <time>2022-05-29T11:53:08Z</time>
      </trkpt>
      <trkpt lat="48.10964" lon="-3.22787">
        <ele>252.8</ele>
        <time>2022-05-29T11:53:11Z</time>
      </trkpt>
      <trkpt lat="48.10957" lon="-3.22786">
        <ele>252.8</ele>
        <time>2022-05-29T11:53:12Z</time>
      </trkpt>
      <trkpt lat="48.10909" lon="-3.22796">
        <ele>252.5</ele>
        <time>2022-05-29T11:53:19Z</time>
      </trkpt>
      <trkpt lat="48.10864" lon="-3.22812">
        <ele>252.3</ele>
        <time>2022-05-29T11:53:25Z</time>
      </trkpt>
      <trkpt lat="48.10814" lon="-3.22836">
        <ele>252.1</ele>
        <time>2022-05-29T11:53:31Z</time>
      </trkpt>
      <trkpt lat="48.10769" lon="-3.22851">
        <ele>251.9</ele>
        <time>2022-05-29T11:53:37Z</time>
      </trkpt>
      <trkpt lat="48.10716" lon="-3.22866">
        <ele>251.7</ele>
        <time>2022-05-29T11:53:43Z</time>
      </trkpt>
      <trkpt lat="48.10667" lon="-3.22877">
        <ele>251.5</ele>
        <time>2022-05-29T11:53:49Z</time>
      </trkpt>
      <trkpt lat="48.10618" lon="-3.22883">
        <ele>251.2</ele>
        <time>2022-05-29T11:53:56Z</time>
      </trkpt>
      <trkpt lat="48.10566" lon="-3.22884">
        <ele>251</ele>
        <time>2022-05-29T11:54:03Z</time>
      </trkpt>
      <trkpt lat="48.10515" lon="-3.22876">
        <ele>250.7</ele>
        <time>2022-05-29T11:54:10Z</time>
      </trkpt>
      <trkpt lat="48.10467" lon="-3.22859">
        <ele>250.5</ele>
        <time>2022-05-29T11:54:16Z</time>
      </trkpt>
      <trkpt lat="48.10423" lon="-3.22828">
        <ele>250.3</ele>
        <time>2022-05-29T11:54:22Z</time>
      </trkpt>
      <trkpt lat="48.10379" lon="-3.22787">
        <ele>250.1</ele>
        <time>2022-05-29T11:54:28Z</time>
      </trkpt>
      <trkpt lat="48.10359" lon="-3.22749">
        <ele>250</ele>
        <time>2022-05-29T11:54:32Z</time>
      </trkpt>
      <trkpt lat="48.10346" lon="-3.22676">
        <ele>249.8</ele>
        <time>2022-05-29T11:54:38Z</time>
      </trkpt>
      <trkpt lat="48.10341" lon="-3.2265">
        <ele>249.6</ele>
        <time>2022-05-29T11:54:40Z</time>
      </trkpt>
      <trkpt lat="48.10336" lon="-3.22623">
        <ele>249</ele>
        <time>2022-05-29T11:54:42Z</time>
      </trkpt>
      <trkpt lat="48.1033" lon="-3.2261">
        <ele>248.8</ele>
        <time>2022-05-29T11:54:43Z</time>
      </trkpt>
      <trkpt lat="48.10314" lon="-3.22593">
        <ele>248.3</ele>
        <time>2022-05-29T11:54:45Z</time>
      </trkpt>
      <trkpt lat="48.10295" lon="-3.22587">
        <ele>248.1</ele>
        <time>2022-05-29T11:54:47Z</time>
      </trkpt>
      <trkpt lat="48.10243" lon="-3.22594">
        <ele>247.5</ele>
        <time>2022-05-29T11:54:53Z</time>
      </trkpt>
      <trkpt lat="48.10219" lon="-3.22605">
        <ele>247.3</ele>
        <time>2022-05-29T11:54:56Z</time>
      </trkpt>
      <trkpt lat="48.10195" lon="-3.22616">
        <ele>247</ele>
        <time>2022-05-29T11:54:59Z</time>
      </trkpt>
      <trkpt lat="48.10154" lon="-3.2266">
        <ele>246.4</ele>
        <time>2022-05-29T11:55:05Z</time>
      </trkpt>
      <trkpt lat="48.10124" lon="-3.22684">
        <ele>246</ele>
        <time>2022-05-29T11:55:09Z</time>
      </trkpt>
      <trkpt lat="48.10098" lon="-3.22691">
        <ele>245.7</ele>
        <time>2022-05-29T11:55:12Z</time>
      </trkpt>
      <trkpt lat="48.1009" lon="-3.22687">
        <ele>245.6</ele>
        <time>2022-05-29T11:55:13Z</time>
      </trkpt>
      <trkpt lat="48.10048" lon="-3.2267">
        <ele>245.2</ele>
        <time>2022-05-29T11:55:18Z</time>
      </trkpt>
      <trkpt lat="48.10012" lon="-3.22645">
        <ele>244.9</ele>
        <time>2022-05-29T11:55:23Z</time>
      </trkpt>
      <trkpt lat="48.10005" lon="-3.2264">
        <ele>244.9</ele>
        <time>2022-05-29T11:55:24Z</time>
      </trkpt>
      <trkpt lat="48.09963" lon="-3.22609">
        <ele>244.8</ele>
        <time>2022-05-29T11:55:30Z</time>
      </trkpt>
      <trkpt lat="48.09921" lon="-3.22577">
        <ele>244.7</ele>
        <time>2022-05-29T11:55:36Z</time>
      </trkpt>
      <trkpt lat="48.0988" lon="-3.22544">
        <ele>244.6</ele>
        <time>2022-05-29T11:55:42Z</time>
      </trkpt>
      <trkpt lat="48.09847" lon="-3.22495">
        <ele>244.5</ele>
        <time>2022-05-29T11:55:48Z</time>
      </trkpt>
      <trkpt lat="48.09842" lon="-3.22489">
        <ele>244.5</ele>
        <time>2022-05-29T11:55:49Z</time>
      </trkpt>
      <trkpt lat="48.09835" lon="-3.22483">
        <ele>244.5</ele>
        <time>2022-05-29T11:55:50Z</time>
      </trkpt>
      <trkpt lat="48.09803" lon="-3.22444">
        <ele>244.4</ele>
        <time>2022-05-29T11:55:56Z</time>
      </trkpt>
      <trkpt lat="48.09758" lon="-3.2242">
        <ele>244.2</ele>
        <time>2022-05-29T11:56:03Z</time>
      </trkpt>
      <trkpt lat="48.09735" lon="-3.22417">
        <ele>244.2</ele>
        <time>2022-05-29T11:56:06Z</time>
      </trkpt>
      <trkpt lat="48.09688" lon="-3.22424">
        <ele>244.1</ele>
        <time>2022-05-29T11:56:12Z</time>
      </trkpt>
      <trkpt lat="48.09673" lon="-3.22427">
        <ele>244</ele>
        <time>2022-05-29T11:56:14Z</time>
      </trkpt>
      <trkpt lat="48.09626" lon="-3.22453">
        <ele>243.9</ele>
        <time>2022-05-29T11:56:20Z</time>
      </trkpt>
      <trkpt lat="48.09582" lon="-3.22473">
        <ele>243.8</ele>
        <time>2022-05-29T11:56:26Z</time>
      </trkpt>
      <trkpt lat="48.09538" lon="-3.22488">
        <ele>243.7</ele>
        <time>2022-05-29T11:56:32Z</time>
      </trkpt>
      <trkpt lat="48.09494" lon="-3.22481">
        <ele>243.6</ele>
        <time>2022-05-29T11:56:38Z</time>
      </trkpt>
      <trkpt lat="48.09459" lon="-3.22452">
        <ele>243.6</ele>
        <time>2022-05-29T11:56:43Z</time>
      </trkpt>
      <trkpt lat="48.09424" lon="-3.22402">
        <ele>243.5</ele>
        <time>2022-05-29T11:56:49Z</time>
      </trkpt>
      <trkpt lat="48.09393" lon="-3.22352">
        <ele>243.4</ele>
        <time>2022-05-29T11:56:55Z</time>
      </trkpt>
      <trkpt lat="48.0936" lon="-3.22305">
        <ele>243.3</ele>
        <time>2022-05-29T11:57:01Z</time>
      </trkpt>
      <trkpt lat="48.0932" lon="-3.22252">
        <ele>243.1</ele>
        <time>2022-05-29T11:57:08Z</time>
      </trkpt>
      <trkpt lat="48.09287" lon="-3.22206">
        <ele>243</ele>
        <time>2022-05-29T11:57:14Z</time>
      </trkpt>
      <trkpt lat="48.09247" lon="-3.22154">
        <ele>242.9</ele>
        <time>2022-05-29T11:57:21Z</time>
      </trkpt>
      <trkpt lat="48.0923" lon="-3.22127">
        <ele>242.9</ele>
        <time>2022-05-29T11:57:24Z</time>
      </trkpt>
      <trkpt lat="48.09219" lon="-3.22107">
        <ele>242.8</ele>
        <time>2022-05-29T11:57:26Z</time>
      </trkpt>
      <trkpt lat="48.09194" lon="-3.22041">
        <ele>242.5</ele>
        <time>2022-05-29T11:57:32Z</time>
      </trkpt>
      <trkpt lat="48.09184" lon="-3.22023">
        <ele>242.5</ele>
        <time>2022-05-29T11:57:34Z</time>
      </trkpt>
      <trkpt lat="48.0917" lon="-3.21996">
        <ele>242.6</ele>
        <time>2022-05-29T11:57:37Z</time>
      </trkpt>
      <trkpt lat="48.09152" lon="-3.21974">
        <ele>242.8</ele>
        <time>2022-05-29T11:57:40Z</time>
      </trkpt>
      <trkpt lat="48.09137" lon="-3.21965">
        <ele>242.9</ele>
        <time>2022-05-29T11:57:42Z</time>
      </trkpt>
      <trkpt lat="48.09129" lon="-3.21963">
        <ele>243</ele>
        <time>2022-05-29T11:57:43Z</time>
      </trkpt>
      <trkpt lat="48.09092" lon="-3.21937">
        <ele>243.3</ele>
        <time>2022-05-29T11:57:48Z</time>
      </trkpt>
      <trkpt lat="48.09077" lon="-3.21911">
        <ele>243.4</ele>
        <time>2022-05-29T11:57:51Z</time>
      </trkpt>
      <trkpt lat="48.09057" lon="-3.21879">
        <ele>243.7</ele>
        <time>2022-05-29T11:57:55Z</time>
      </trkpt>
      <trkpt lat="48.09044" lon="-3.21804">
        <ele>244</ele>
        <time>2022-05-29T11:58:02Z</time>
      </trkpt>
      <trkpt lat="48.09046" lon="-3.21748">
        <ele>243.7</ele>
        <time>2022-05-29T11:58:07Z</time>
      </trkpt>
      <trkpt lat="48.09046" lon="-3.21736">
        <ele>243.6</ele>
        <time>2022-05-29T11:58:08Z</time>
      </trkpt>
      <trkpt lat="48.09045" lon="-3.21713">
        <ele>243.4</ele>
        <time>2022-05-29T11:58:10Z</time>
      </trkpt>
      <trkpt lat="48.09032" lon="-3.2167">
        <ele>243</ele>
        <time>2022-05-29T11:58:14Z</time>
      </trkpt>
      <trkpt lat="48.09" lon="-3.21612">
        <ele>242.3</ele>
        <time>2022-05-29T11:58:21Z</time>
      </trkpt>
      <trkpt lat="48.08964" lon="-3.21555">
        <ele>241.7</ele>
        <time>2022-05-29T11:58:27Z</time>
      </trkpt>
      <trkpt lat="48.08927" lon="-3.215">
        <ele>241.5</ele>
        <time>2022-05-29T11:58:33Z</time>
      </trkpt>
      <trkpt lat="48.08902" lon="-3.21466">
        <ele>241.4</ele>
        <time>2022-05-29T11:58:37Z</time>
      </trkpt>
      <trkpt lat="48.08891" lon="-3.2145">
        <ele>241.7</ele>
        <time>2022-05-29T11:58:39Z</time>
      </trkpt>
      <trkpt lat="48.08854" lon="-3.21408">
        <ele>242.8</ele>
        <time>2022-05-29T11:58:46Z</time>
      </trkpt>
      <trkpt lat="48.08846" lon="-3.21404">
        <ele>243.1</ele>
        <time>2022-05-29T11:58:48Z</time>
      </trkpt>
      <trkpt lat="48.08826" lon="-3.21388">
        <ele>243.7</ele>
        <time>2022-05-29T11:58:52Z</time>
      </trkpt>
      <trkpt lat="48.08805" lon="-3.21371">
        <ele>244.2</ele>
        <time>2022-05-29T11:58:56Z</time>
      </trkpt>
      <trkpt lat="48.08763" lon="-3.21337">
        <ele>245.1</ele>
        <time>2022-05-29T11:59:04Z</time>
      </trkpt>
      <trkpt lat="48.08744" lon="-3.21321">
        <ele>244.7</ele>
        <time>2022-05-29T11:59:07Z</time>
      </trkpt>
      <trkpt lat="48.08738" lon="-3.21313">
        <ele>244.6</ele>
        <time>2022-05-29T11:59:08Z</time>
      </trkpt>
      <trkpt lat="48.08697" lon="-3.21275">
        <ele>243.8</ele>
        <time>2022-05-29T11:59:14Z</time>
      </trkpt>
      <trkpt lat="48.08684" lon="-3.21261">
        <ele>243.6</ele>
        <time>2022-05-29T11:59:16Z</time>
      </trkpt>
      <trkpt lat="48.08658" lon="-3.21233">
        <ele>243.1</ele>
        <time>2022-05-29T11:59:20Z</time>
      </trkpt>
      <trkpt lat="48.08618" lon="-3.21192">
        <ele>242.4</ele>
        <time>2022-05-29T11:59:26Z</time>
      </trkpt>
      <trkpt lat="48.08577" lon="-3.21155">
        <ele>241.7</ele>
        <time>2022-05-29T11:59:32Z</time>
      </trkpt>
      <trkpt lat="48.08532" lon="-3.21119">
        <ele>240.6</ele>
        <time>2022-05-29T11:59:38Z</time>
      </trkpt>
      <trkpt lat="48.08494" lon="-3.2108">
        <ele>239.6</ele>
        <time>2022-05-29T11:59:43Z</time>
      </trkpt>
      <trkpt lat="48.08456" lon="-3.21036">
        <ele>237.4</ele>
        <time>2022-05-29T11:59:48Z</time>
      </trkpt>
      <trkpt lat="48.08417" lon="-3.20985">
        <ele>236</ele>
        <time>2022-05-29T11:59:53Z</time>
      </trkpt>
      <trkpt lat="48.08377" lon="-3.20935">
        <ele>234.7</ele>
        <time>2022-05-29T11:59:58Z</time>
      </trkpt>
      <trkpt lat="48.08335" lon="-3.20888">
        <ele>233.3</ele>
        <time>2022-05-29T12:00:03Z</time>
      </trkpt>
      <trkpt lat="48.08303" lon="-3.20854">
        <ele>232.4</ele>
        <time>2022-05-29T12:00:07Z</time>
      </trkpt>
      <trkpt lat="48.08294" lon="-3.20849">
        <ele>232.3</ele>
        <time>2022-05-29T12:00:08Z</time>
      </trkpt>
      <trkpt lat="48.08256" lon="-3.2083">
        <ele>232.4</ele>
        <time>2022-05-29T12:00:12Z</time>
      </trkpt>
      <trkpt lat="48.08248" lon="-3.20824">
        <ele>232.3</ele>
        <time>2022-05-29T12:00:13Z</time>
      </trkpt>
      <trkpt lat="48.08213" lon="-3.208">
        <ele>232.2</ele>
        <time>2022-05-29T12:00:17Z</time>
      </trkpt>
      <trkpt lat="48.08167" lon="-3.20767">
        <ele>231.9</ele>
        <time>2022-05-29T12:00:23Z</time>
      </trkpt>
      <trkpt lat="48.08123" lon="-3.20739">
        <ele>231.6</ele>
        <time>2022-05-29T12:00:29Z</time>
      </trkpt>
      <trkpt lat="48.08078" lon="-3.20717">
        <ele>231.3</ele>
        <time>2022-05-29T12:00:35Z</time>
      </trkpt>
      <trkpt lat="48.08028" lon="-3.20696">
        <ele>230.9</ele>
        <time>2022-05-29T12:00:42Z</time>
      </trkpt>
      <trkpt lat="48.07981" lon="-3.20677">
        <ele>230.6</ele>
        <time>2022-05-29T12:00:48Z</time>
      </trkpt>
      <trkpt lat="48.07933" lon="-3.20658">
        <ele>230.3</ele>
        <time>2022-05-29T12:00:54Z</time>
      </trkpt>
      <trkpt lat="48.07917" lon="-3.20654">
        <ele>230.2</ele>
        <time>2022-05-29T12:00:56Z</time>
      </trkpt>
      <trkpt lat="48.07908" lon="-3.20651">
        <ele>230.2</ele>
        <time>2022-05-29T12:00:57Z</time>
      </trkpt>
      <trkpt lat="48.07899" lon="-3.20647">
        <ele>230.1</ele>
        <time>2022-05-29T12:00:58Z</time>
      </trkpt>
      <trkpt lat="48.07881" lon="-3.20649">
        <ele>230</ele>
        <time>2022-05-29T12:01:00Z</time>
      </trkpt>
      <trkpt lat="48.07873" lon="-3.20657">
        <ele>230</ele>
        <time>2022-05-29T12:01:01Z</time>
      </trkpt>
      <trkpt lat="48.07866" lon="-3.20668">
        <ele>229.9</ele>
        <time>2022-05-29T12:01:02Z</time>
      </trkpt>
      <trkpt lat="48.07839" lon="-3.207">
        <ele>229.8</ele>
        <time>2022-05-29T12:01:06Z</time>
      </trkpt>
      <trkpt lat="48.07808" lon="-3.20764">
        <ele>229.5</ele>
        <time>2022-05-29T12:01:12Z</time>
      </trkpt>
      <trkpt lat="48.07764" lon="-3.20812">
        <ele>229.2</ele>
        <time>2022-05-29T12:01:18Z</time>
      </trkpt>
      <trkpt lat="48.07726" lon="-3.20853">
        <ele>228.9</ele>
        <time>2022-05-29T12:01:23Z</time>
      </trkpt>
      <trkpt lat="48.07693" lon="-3.20896">
        <ele>228.8</ele>
        <time>2022-05-29T12:01:28Z</time>
      </trkpt>
      <trkpt lat="48.07686" lon="-3.20904">
        <ele>228.8</ele>
        <time>2022-05-29T12:01:29Z</time>
      </trkpt>
      <trkpt lat="48.07649" lon="-3.20945">
        <ele>228.4</ele>
        <time>2022-05-29T12:01:35Z</time>
      </trkpt>
      <trkpt lat="48.07619" lon="-3.20956">
        <ele>228.2</ele>
        <time>2022-05-29T12:01:39Z</time>
      </trkpt>
      <trkpt lat="48.07594" lon="-3.20951">
        <ele>228</ele>
        <time>2022-05-29T12:01:42Z</time>
      </trkpt>
      <trkpt lat="48.07547" lon="-3.20921">
        <ele>227.6</ele>
        <time>2022-05-29T12:01:48Z</time>
      </trkpt>
      <trkpt lat="48.07539" lon="-3.20919">
        <ele>227.6</ele>
        <time>2022-05-29T12:01:49Z</time>
      </trkpt>
      <trkpt lat="48.07522" lon="-3.20916">
        <ele>227.3</ele>
        <time>2022-05-29T12:01:51Z</time>
      </trkpt>
      <trkpt lat="48.07494" lon="-3.20922">
        <ele>227</ele>
        <time>2022-05-29T12:01:54Z</time>
      </trkpt>
      <trkpt lat="48.07472" lon="-3.20945">
        <ele>226.7</ele>
        <time>2022-05-29T12:01:57Z</time>
      </trkpt>
      <trkpt lat="48.07442" lon="-3.20996">
        <ele>226.2</ele>
        <time>2022-05-29T12:02:02Z</time>
      </trkpt>
      <trkpt lat="48.07425" lon="-3.21023">
        <ele>225.8</ele>
        <time>2022-05-29T12:02:05Z</time>
      </trkpt>
      <trkpt lat="48.07407" lon="-3.21051">
        <ele>225.6</ele>
        <time>2022-05-29T12:02:08Z</time>
      </trkpt>
      <trkpt lat="48.0737" lon="-3.21096">
        <ele>225.2</ele>
        <time>2022-05-29T12:02:14Z</time>
      </trkpt>
      <trkpt lat="48.07334" lon="-3.21137">
        <ele>224.8</ele>
        <time>2022-05-29T12:02:20Z</time>
      </trkpt>
      <trkpt lat="48.073" lon="-3.21166">
        <ele>224.3</ele>
        <time>2022-05-29T12:02:26Z</time>
      </trkpt>
      <trkpt lat="48.07291" lon="-3.21168">
        <ele>224.2</ele>
        <time>2022-05-29T12:02:28Z</time>
      </trkpt>
      <trkpt lat="48.07283" lon="-3.21171">
        <ele>224</ele>
        <time>2022-05-29T12:02:30Z</time>
      </trkpt>
      <trkpt lat="48.07247" lon="-3.21138">
        <ele>223.6</ele>
        <time>2022-05-29T12:02:36Z</time>
      </trkpt>
      <trkpt lat="48.07241" lon="-3.21135">
        <ele>223.5</ele>
        <time>2022-05-29T12:02:37Z</time>
      </trkpt>
      <trkpt lat="48.07198" lon="-3.21096">
        <ele>223</ele>
        <time>2022-05-29T12:02:44Z</time>
      </trkpt>
      <trkpt lat="48.0718" lon="-3.21078">
        <ele>222.8</ele>
        <time>2022-05-29T12:02:47Z</time>
      </trkpt>
      <trkpt lat="48.07155" lon="-3.21055">
        <ele>222.6</ele>
        <time>2022-05-29T12:02:51Z</time>
      </trkpt>
      <trkpt lat="48.07143" lon="-3.21049">
        <ele>222.5</ele>
        <time>2022-05-29T12:02:53Z</time>
      </trkpt>
      <trkpt lat="48.07094" lon="-3.21058">
        <ele>222.2</ele>
        <time>2022-05-29T12:03:00Z</time>
      </trkpt>
      <trkpt lat="48.07045" lon="-3.21077">
        <ele>221.9</ele>
        <time>2022-05-29T12:03:07Z</time>
      </trkpt>
      <trkpt lat="48.06998" lon="-3.21092">
        <ele>221.6</ele>
        <time>2022-05-29T12:03:13Z</time>
      </trkpt>
      <trkpt lat="48.06963" lon="-3.21097">
        <ele>221.4</ele>
        <time>2022-05-29T12:03:17Z</time>
      </trkpt>
      <trkpt lat="48.06946" lon="-3.21099">
        <ele>221.3</ele>
        <time>2022-05-29T12:03:19Z</time>
      </trkpt>
      <trkpt lat="48.069" lon="-3.21099">
        <ele>220.9</ele>
        <time>2022-05-29T12:03:24Z</time>
      </trkpt>
      <trkpt lat="48.06847" lon="-3.21088">
        <ele>220.4</ele>
        <time>2022-05-29T12:03:30Z</time>
      </trkpt>
      <trkpt lat="48.06808" lon="-3.21073">
        <ele>220</ele>
        <time>2022-05-29T12:03:35Z</time>
      </trkpt>
      <trkpt lat="48.06792" lon="-3.21055">
        <ele>219.9</ele>
        <time>2022-05-29T12:03:38Z</time>
      </trkpt>
      <trkpt lat="48.06777" lon="-3.21037">
        <ele>220.6</ele>
        <time>2022-05-29T12:03:41Z</time>
      </trkpt>
      <trkpt lat="48.06772" lon="-3.21023">
        <ele>221.1</ele>
        <time>2022-05-29T12:03:43Z</time>
      </trkpt>
      <trkpt lat="48.06771" lon="-3.21016">
        <ele>221.2</ele>
        <time>2022-05-29T12:03:44Z</time>
      </trkpt>
      <trkpt lat="48.06771" lon="-3.20945">
        <ele>223</ele>
        <time>2022-05-29T12:03:54Z</time>
      </trkpt>
      <trkpt lat="48.06779" lon="-3.20907">
        <ele>224.1</ele>
        <time>2022-05-29T12:04:00Z</time>
      </trkpt>
      <trkpt lat="48.0678" lon="-3.20898">
        <ele>224.5</ele>
        <time>2022-05-29T12:04:02Z</time>
      </trkpt>
      <trkpt lat="48.06783" lon="-3.20894">
        <ele>224.6</ele>
        <time>2022-05-29T12:04:03Z</time>
      </trkpt>
      <trkpt lat="48.0678" lon="-3.20893">
        <ele>224.7</ele>
        <time>2022-05-29T12:04:04Z</time>
      </trkpt>
      <trkpt lat="48.06775" lon="-3.20899">
        <ele>225</ele>
        <time>2022-05-29T12:04:07Z</time>
      </trkpt>
      <trkpt lat="48.06776" lon="-3.20899">
        <ele>225.1</ele>
        <time>2022-05-29T12:04:08Z</time>
      </trkpt>
      <trkpt lat="48.0678" lon="-3.20878">
        <ele>225.5</ele>
        <time>2022-05-29T12:04:13Z</time>
      </trkpt>
      <trkpt lat="48.06782" lon="-3.20865">
        <ele>225.9</ele>
        <time>2022-05-29T12:04:16Z</time>
      </trkpt>
      <trkpt lat="48.06781" lon="-3.20841">
        <ele>226.4</ele>
        <time>2022-05-29T12:04:20Z</time>
      </trkpt>
      <trkpt lat="48.06777" lon="-3.20835">
        <ele>226.6</ele>
        <time>2022-05-29T12:04:21Z</time>
      </trkpt>
      <trkpt lat="48.06778" lon="-3.20763">
        <ele>228</ele>
        <time>2022-05-29T12:04:32Z</time>
      </trkpt>
      <trkpt lat="48.06775" lon="-3.20733">
        <ele>228.8</ele>
        <time>2022-05-29T12:04:38Z</time>
      </trkpt>
      <trkpt lat="48.06771" lon="-3.20713">
        <ele>229.7</ele>
        <time>2022-05-29T12:04:42Z</time>
      </trkpt>
      <trkpt lat="48.06759" lon="-3.20697">
        <ele>230.6</ele>
        <time>2022-05-29T12:04:46Z</time>
      </trkpt>
      <trkpt lat="48.06755" lon="-3.20688">
        <ele>231</ele>
        <time>2022-05-29T12:04:48Z</time>
      </trkpt>
      <trkpt lat="48.06751" lon="-3.20681">
        <ele>231.4</ele>
        <time>2022-05-29T12:04:50Z</time>
      </trkpt>
      <trkpt lat="48.06756" lon="-3.20661">
        <ele>232</ele>
        <time>2022-05-29T12:04:53Z</time>
      </trkpt>
      <trkpt lat="48.06769" lon="-3.20616">
        <ele>232.9</ele>
        <time>2022-05-29T12:05:00Z</time>
      </trkpt>
      <trkpt lat="48.06773" lon="-3.20599">
        <ele>233.5</ele>
        <time>2022-05-29T12:05:04Z</time>
      </trkpt>
      <trkpt lat="48.06765" lon="-3.20593">
        <ele>233.8</ele>
        <time>2022-05-29T12:05:07Z</time>
      </trkpt>
      <trkpt lat="48.06759" lon="-3.20591">
        <ele>233.9</ele>
        <time>2022-05-29T12:05:08Z</time>
      </trkpt>
      <trkpt lat="48.06718" lon="-3.20574">
        <ele>234.4</ele>
        <time>2022-05-29T12:05:15Z</time>
      </trkpt>
      <trkpt lat="48.06677" lon="-3.2055">
        <ele>234.8</ele>
        <time>2022-05-29T12:05:23Z</time>
      </trkpt>
      <trkpt lat="48.06636" lon="-3.20521">
        <ele>235.4</ele>
        <time>2022-05-29T12:05:32Z</time>
      </trkpt>
      <trkpt lat="48.06603" lon="-3.20498">
        <ele>236</ele>
        <time>2022-05-29T12:05:43Z</time>
      </trkpt>
      <trkpt lat="48.06601" lon="-3.20495">
        <ele>236.1</ele>
        <time>2022-05-29T12:05:44Z</time>
      </trkpt>
      <trkpt lat="48.06599" lon="-3.20494">
        <ele>236.1</ele>
        <time>2022-05-29T12:05:45Z</time>
      </trkpt>
      <trkpt lat="48.06596" lon="-3.20492">
        <ele>236.2</ele>
        <time>2022-05-29T12:05:46Z</time>
      </trkpt>
      <trkpt lat="48.06592" lon="-3.20481">
        <ele>236.4</ele>
        <time>2022-05-29T12:05:48Z</time>
      </trkpt>
      <trkpt lat="48.06583" lon="-3.20459">
        <ele>237.3</ele>
        <time>2022-05-29T12:05:52Z</time>
      </trkpt>
      <trkpt lat="48.0658" lon="-3.20454">
        <ele>237.5</ele>
        <time>2022-05-29T12:05:53Z</time>
      </trkpt>
      <trkpt lat="48.06552" lon="-3.20407">
        <ele>239.6</ele>
        <time>2022-05-29T12:06:04Z</time>
      </trkpt>
      <trkpt lat="48.06527" lon="-3.20375">
        <ele>241.2</ele>
        <time>2022-05-29T12:06:12Z</time>
      </trkpt>
      <trkpt lat="48.06525" lon="-3.2037">
        <ele>241.4</ele>
        <time>2022-05-29T12:06:13Z</time>
      </trkpt>
      <trkpt lat="48.06518" lon="-3.20362">
        <ele>241.7</ele>
        <time>2022-05-29T12:06:15Z</time>
      </trkpt>
      <trkpt lat="48.06486" lon="-3.20324">
        <ele>242.1</ele>
        <time>2022-05-29T12:06:25Z</time>
      </trkpt>
      <trkpt lat="48.06448" lon="-3.20279">
        <ele>240.6</ele>
        <time>2022-05-29T12:06:34Z</time>
      </trkpt>
      <trkpt lat="48.06412" lon="-3.20247">
        <ele>239.6</ele>
        <time>2022-05-29T12:06:40Z</time>
      </trkpt>
      <trkpt lat="48.06405" lon="-3.20242">
        <ele>239.2</ele>
        <time>2022-05-29T12:06:41Z</time>
      </trkpt>
      <trkpt lat="48.06358" lon="-3.20212">
        <ele>237</ele>
        <time>2022-05-29T12:06:47Z</time>
      </trkpt>
      <trkpt lat="48.06333" lon="-3.20193">
        <ele>236</ele>
        <time>2022-05-29T12:06:50Z</time>
      </trkpt>
      <trkpt lat="48.06316" lon="-3.20179">
        <ele>235.5</ele>
        <time>2022-05-29T12:06:52Z</time>
      </trkpt>
      <trkpt lat="48.06281" lon="-3.20137">
        <ele>234.3</ele>
        <time>2022-05-29T12:06:57Z</time>
      </trkpt>
      <trkpt lat="48.06263" lon="-3.20115">
        <ele>233.8</ele>
        <time>2022-05-29T12:07:00Z</time>
      </trkpt>
      <trkpt lat="48.06246" lon="-3.20093">
        <ele>234.2</ele>
        <time>2022-05-29T12:07:03Z</time>
      </trkpt>
      <trkpt lat="48.06236" lon="-3.2008">
        <ele>234.5</ele>
        <time>2022-05-29T12:07:05Z</time>
      </trkpt>
      <trkpt lat="48.06227" lon="-3.2007">
        <ele>234.9</ele>
        <time>2022-05-29T12:07:07Z</time>
      </trkpt>
      <trkpt lat="48.06218" lon="-3.20047">
        <ele>235.5</ele>
        <time>2022-05-29T12:07:10Z</time>
      </trkpt>
      <trkpt lat="48.06203" lon="-3.20011">
        <ele>236.4</ele>
        <time>2022-05-29T12:07:15Z</time>
      </trkpt>
      <trkpt lat="48.06175" lon="-3.19953">
        <ele>238.3</ele>
        <time>2022-05-29T12:07:26Z</time>
      </trkpt>
      <trkpt lat="48.06164" lon="-3.19936">
        <ele>239</ele>
        <time>2022-05-29T12:07:30Z</time>
      </trkpt>
      <trkpt lat="48.06127" lon="-3.19888">
        <ele>240.9</ele>
        <time>2022-05-29T12:07:41Z</time>
      </trkpt>
      <trkpt lat="48.06101" lon="-3.19842">
        <ele>242.4</ele>
        <time>2022-05-29T12:07:50Z</time>
      </trkpt>
      <trkpt lat="48.06098" lon="-3.19836">
        <ele>242.5</ele>
        <time>2022-05-29T12:07:51Z</time>
      </trkpt>
      <trkpt lat="48.06087" lon="-3.19811">
        <ele>242.8</ele>
        <time>2022-05-29T12:07:55Z</time>
      </trkpt>
      <trkpt lat="48.06078" lon="-3.19792">
        <ele>243</ele>
        <time>2022-05-29T12:07:58Z</time>
      </trkpt>
      <trkpt lat="48.06052" lon="-3.19735">
        <ele>243.6</ele>
        <time>2022-05-29T12:08:06Z</time>
      </trkpt>
      <trkpt lat="48.06025" lon="-3.19673">
        <ele>244.3</ele>
        <time>2022-05-29T12:08:15Z</time>
      </trkpt>
      <trkpt lat="48.06022" lon="-3.19667">
        <ele>244.4</ele>
        <time>2022-05-29T12:08:16Z</time>
      </trkpt>
      <trkpt lat="48.05998" lon="-3.19618">
        <ele>246.5</ele>
        <time>2022-05-29T12:08:25Z</time>
      </trkpt>
      <trkpt lat="48.05988" lon="-3.19605">
        <ele>247.1</ele>
        <time>2022-05-29T12:08:28Z</time>
      </trkpt>
      <trkpt lat="48.05977" lon="-3.19593">
        <ele>247.8</ele>
        <time>2022-05-29T12:08:31Z</time>
      </trkpt>
      <trkpt lat="48.05951" lon="-3.19564">
        <ele>248.6</ele>
        <time>2022-05-29T12:08:38Z</time>
      </trkpt>
      <trkpt lat="48.05938" lon="-3.19549">
        <ele>248.9</ele>
        <time>2022-05-29T12:08:41Z</time>
      </trkpt>
      <trkpt lat="48.05911" lon="-3.1952">
        <ele>248.3</ele>
        <time>2022-05-29T12:08:47Z</time>
      </trkpt>
      <trkpt lat="48.0589" lon="-3.19498">
        <ele>247.9</ele>
        <time>2022-05-29T12:08:51Z</time>
      </trkpt>
      <trkpt lat="48.05858" lon="-3.19472">
        <ele>247.3</ele>
        <time>2022-05-29T12:08:56Z</time>
      </trkpt>
      <trkpt lat="48.05844" lon="-3.19461">
        <ele>246.6</ele>
        <time>2022-05-29T12:08:58Z</time>
      </trkpt>
      <trkpt lat="48.0582" lon="-3.19447">
        <ele>245.6</ele>
        <time>2022-05-29T12:09:01Z</time>
      </trkpt>
      <trkpt lat="48.05795" lon="-3.19434">
        <ele>244.6</ele>
        <time>2022-05-29T12:09:04Z</time>
      </trkpt>
      <trkpt lat="48.05743" lon="-3.19412">
        <ele>242.7</ele>
        <time>2022-05-29T12:09:10Z</time>
      </trkpt>
      <trkpt lat="48.05705" lon="-3.19407">
        <ele>241.4</ele>
        <time>2022-05-29T12:09:14Z</time>
      </trkpt>
      <trkpt lat="48.05684" lon="-3.19409">
        <ele>240.8</ele>
        <time>2022-05-29T12:09:16Z</time>
      </trkpt>
      <trkpt lat="48.05673" lon="-3.19408">
        <ele>240.7</ele>
        <time>2022-05-29T12:09:17Z</time>
      </trkpt>
      <trkpt lat="48.0562" lon="-3.19393">
        <ele>240.3</ele>
        <time>2022-05-29T12:09:22Z</time>
      </trkpt>
      <trkpt lat="48.05592" lon="-3.19371">
        <ele>239.9</ele>
        <time>2022-05-29T12:09:26Z</time>
      </trkpt>
      <trkpt lat="48.05579" lon="-3.1936">
        <ele>239.7</ele>
        <time>2022-05-29T12:09:28Z</time>
      </trkpt>
      <trkpt lat="48.05542" lon="-3.19321">
        <ele>239.1</ele>
        <time>2022-05-29T12:09:34Z</time>
      </trkpt>
      <trkpt lat="48.05509" lon="-3.19295">
        <ele>238.6</ele>
        <time>2022-05-29T12:09:39Z</time>
      </trkpt>
      <trkpt lat="48.05502" lon="-3.19288">
        <ele>238.4</ele>
        <time>2022-05-29T12:09:40Z</time>
      </trkpt>
      <trkpt lat="48.05494" lon="-3.19283">
        <ele>238.4</ele>
        <time>2022-05-29T12:09:41Z</time>
      </trkpt>
      <trkpt lat="48.05454" lon="-3.19257">
        <ele>238</ele>
        <time>2022-05-29T12:09:46Z</time>
      </trkpt>
      <trkpt lat="48.05418" lon="-3.19233">
        <ele>237.8</ele>
        <time>2022-05-29T12:09:51Z</time>
      </trkpt>
      <trkpt lat="48.05412" lon="-3.19227">
        <ele>237.8</ele>
        <time>2022-05-29T12:09:52Z</time>
      </trkpt>
      <trkpt lat="48.05349" lon="-3.19145">
        <ele>239.1</ele>
        <time>2022-05-29T12:09:58Z</time>
      </trkpt>
      <trkpt lat="48.05349" lon="-3.19145">
        <ele>239.1</ele>
        <time>2022-05-29T12:10:43Z</time>
      </trkpt>
      <trkpt lat="48.05316" lon="-3.19094">
        <ele>240.1</ele>
        <time>2022-05-29T12:10:52Z</time>
      </trkpt>
      <trkpt lat="48.05276" lon="-3.19054">
        <ele>240.5</ele>
        <time>2022-05-29T12:11:02Z</time>
      </trkpt>
      <trkpt lat="48.05238" lon="-3.19017">
        <ele>240.8</ele>
        <time>2022-05-29T12:11:10Z</time>
      </trkpt>
      <trkpt lat="48.052" lon="-3.18983">
        <ele>241.2</ele>
        <time>2022-05-29T12:11:18Z</time>
      </trkpt>
      <trkpt lat="48.05195" lon="-3.18978">
        <ele>241.3</ele>
        <time>2022-05-29T12:11:19Z</time>
      </trkpt>
      <trkpt lat="48.05175" lon="-3.18958">
        <ele>241.6</ele>
        <time>2022-05-29T12:11:23Z</time>
      </trkpt>
      <trkpt lat="48.05155" lon="-3.18937">
        <ele>241</ele>
        <time>2022-05-29T12:11:27Z</time>
      </trkpt>
      <trkpt lat="48.05116" lon="-3.18901">
        <ele>240.1</ele>
        <time>2022-05-29T12:11:33Z</time>
      </trkpt>
      <trkpt lat="48.05109" lon="-3.18894">
        <ele>239.7</ele>
        <time>2022-05-29T12:11:34Z</time>
      </trkpt>
      <trkpt lat="48.05078" lon="-3.18864">
        <ele>238.1</ele>
        <time>2022-05-29T12:11:38Z</time>
      </trkpt>
      <trkpt lat="48.0507" lon="-3.18857">
        <ele>237.4</ele>
        <time>2022-05-29T12:11:39Z</time>
      </trkpt>
      <trkpt lat="48.05037" lon="-3.18823">
        <ele>234.9</ele>
        <time>2022-05-29T12:11:43Z</time>
      </trkpt>
      <trkpt lat="48.05029" lon="-3.18815">
        <ele>234.1</ele>
        <time>2022-05-29T12:11:44Z</time>
      </trkpt>
      <trkpt lat="48.04999" lon="-3.18773">
        <ele>231.3</ele>
        <time>2022-05-29T12:11:48Z</time>
      </trkpt>
      <trkpt lat="48.04996" lon="-3.18758">
        <ele>231.2</ele>
        <time>2022-05-29T12:11:49Z</time>
      </trkpt>
      <trkpt lat="48.04995" lon="-3.18716">
        <ele>230.7</ele>
        <time>2022-05-29T12:11:52Z</time>
      </trkpt>
      <trkpt lat="48.05005" lon="-3.18645">
        <ele>229.8</ele>
        <time>2022-05-29T12:11:58Z</time>
      </trkpt>
      <trkpt lat="48.05017" lon="-3.18586">
        <ele>229.4</ele>
        <time>2022-05-29T12:12:03Z</time>
      </trkpt>
      <trkpt lat="48.05019" lon="-3.18574">
        <ele>229.2</ele>
        <time>2022-05-29T12:12:04Z</time>
      </trkpt>
      <trkpt lat="48.05028" lon="-3.18522">
        <ele>228.2</ele>
        <time>2022-05-29T12:12:08Z</time>
      </trkpt>
      <trkpt lat="48.05032" lon="-3.18497">
        <ele>227.5</ele>
        <time>2022-05-29T12:12:10Z</time>
      </trkpt>
      <trkpt lat="48.05041" lon="-3.18446">
        <ele>226.1</ele>
        <time>2022-05-29T12:12:14Z</time>
      </trkpt>
      <trkpt lat="48.05047" lon="-3.18378">
        <ele>224.4</ele>
        <time>2022-05-29T12:12:19Z</time>
      </trkpt>
      <trkpt lat="48.05044" lon="-3.18318">
        <ele>223.1</ele>
        <time>2022-05-29T12:12:23Z</time>
      </trkpt>
      <trkpt lat="48.05037" lon="-3.18241">
        <ele>222.4</ele>
        <time>2022-05-29T12:12:28Z</time>
      </trkpt>
      <trkpt lat="48.05036" lon="-3.18186">
        <ele>221.8</ele>
        <time>2022-05-29T12:12:32Z</time>
      </trkpt>
      <trkpt lat="48.05043" lon="-3.18166">
        <ele>221.6</ele>
        <time>2022-05-29T12:12:34Z</time>
      </trkpt>
      <trkpt lat="48.05057" lon="-3.18125">
        <ele>222.5</ele>
        <time>2022-05-29T12:12:38Z</time>
      </trkpt>
      <trkpt lat="48.0506" lon="-3.18116">
        <ele>222.7</ele>
        <time>2022-05-29T12:12:39Z</time>
      </trkpt>
      <trkpt lat="48.05072" lon="-3.18078">
        <ele>222.7</ele>
        <time>2022-05-29T12:12:43Z</time>
      </trkpt>
      <trkpt lat="48.05077" lon="-3.18015">
        <ele>222.8</ele>
        <time>2022-05-29T12:12:49Z</time>
      </trkpt>
      <trkpt lat="48.05068" lon="-3.17949">
        <ele>223.7</ele>
        <time>2022-05-29T12:12:56Z</time>
      </trkpt>
      <trkpt lat="48.05056" lon="-3.17887">
        <ele>224.8</ele>
        <time>2022-05-29T12:13:04Z</time>
      </trkpt>
      <trkpt lat="48.05054" lon="-3.1788">
        <ele>225</ele>
        <time>2022-05-29T12:13:05Z</time>
      </trkpt>
      <trkpt lat="48.05031" lon="-3.17818">
        <ele>226.8</ele>
        <time>2022-05-29T12:13:15Z</time>
      </trkpt>
      <trkpt lat="48.05017" lon="-3.17794">
        <ele>227.8</ele>
        <time>2022-05-29T12:13:20Z</time>
      </trkpt>
      <trkpt lat="48.05013" lon="-3.1779">
        <ele>227.9</ele>
        <time>2022-05-29T12:13:21Z</time>
      </trkpt>
      <trkpt lat="48.05008" lon="-3.17778">
        <ele>228.3</ele>
        <time>2022-05-29T12:13:23Z</time>
      </trkpt>
      <trkpt lat="48.05004" lon="-3.17772">
        <ele>228.4</ele>
        <time>2022-05-29T12:13:24Z</time>
      </trkpt>
      <trkpt lat="48.04994" lon="-3.17696">
        <ele>228.4</ele>
        <time>2022-05-29T12:13:34Z</time>
      </trkpt>
      <trkpt lat="48.04989" lon="-3.1763">
        <ele>225.8</ele>
        <time>2022-05-29T12:13:39Z</time>
      </trkpt>
      <trkpt lat="48.04988" lon="-3.17617">
        <ele>225.8</ele>
        <time>2022-05-29T12:13:40Z</time>
      </trkpt>
      <trkpt lat="48.04978" lon="-3.1756">
        <ele>225.8</ele>
        <time>2022-05-29T12:13:45Z</time>
      </trkpt>
      <trkpt lat="48.04964" lon="-3.17541">
        <ele>225.9</ele>
        <time>2022-05-29T12:13:49Z</time>
      </trkpt>
      <trkpt lat="48.0495" lon="-3.17522">
        <ele>227.1</ele>
        <time>2022-05-29T12:13:53Z</time>
      </trkpt>
      <trkpt lat="48.04945" lon="-3.17519">
        <ele>227.4</ele>
        <time>2022-05-29T12:13:54Z</time>
      </trkpt>
      <trkpt lat="48.0492" lon="-3.17502">
        <ele>227.7</ele>
        <time>2022-05-29T12:13:59Z</time>
      </trkpt>
      <trkpt lat="48.04905" lon="-3.17493">
        <ele>227.4</ele>
        <time>2022-05-29T12:14:02Z</time>
      </trkpt>
      <trkpt lat="48.04895" lon="-3.17484">
        <ele>227.1</ele>
        <time>2022-05-29T12:14:04Z</time>
      </trkpt>
      <trkpt lat="48.04879" lon="-3.17457">
        <ele>226.1</ele>
        <time>2022-05-29T12:14:07Z</time>
      </trkpt>
      <trkpt lat="48.04874" lon="-3.17436">
        <ele>225.4</ele>
        <time>2022-05-29T12:14:09Z</time>
      </trkpt>
      <trkpt lat="48.04871" lon="-3.17427">
        <ele>225.2</ele>
        <time>2022-05-29T12:14:10Z</time>
      </trkpt>
      <trkpt lat="48.04857" lon="-3.17393">
        <ele>224.6</ele>
        <time>2022-05-29T12:14:14Z</time>
      </trkpt>
      <trkpt lat="48.04846" lon="-3.17368">
        <ele>225</ele>
        <time>2022-05-29T12:14:17Z</time>
      </trkpt>
      <trkpt lat="48.04839" lon="-3.17354">
        <ele>225.2</ele>
        <time>2022-05-29T12:14:19Z</time>
      </trkpt>
      <trkpt lat="48.04816" lon="-3.17311">
        <ele>225.5</ele>
        <time>2022-05-29T12:14:25Z</time>
      </trkpt>
      <trkpt lat="48.04795" lon="-3.17248">
        <ele>225.9</ele>
        <time>2022-05-29T12:14:32Z</time>
      </trkpt>
      <trkpt lat="48.04794" lon="-3.17176">
        <ele>226.3</ele>
        <time>2022-05-29T12:14:39Z</time>
      </trkpt>
      <trkpt lat="48.048" lon="-3.17122">
        <ele>226.7</ele>
        <time>2022-05-29T12:14:45Z</time>
      </trkpt>
      <trkpt lat="48.04788" lon="-3.17052">
        <ele>227.2</ele>
        <time>2022-05-29T12:14:53Z</time>
      </trkpt>
      <trkpt lat="48.04767" lon="-3.16988">
        <ele>227.7</ele>
        <time>2022-05-29T12:15:01Z</time>
      </trkpt>
      <trkpt lat="48.04736" lon="-3.1694">
        <ele>228.1</ele>
        <time>2022-05-29T12:15:09Z</time>
      </trkpt>
      <trkpt lat="48.04726" lon="-3.16932">
        <ele>228.3</ele>
        <time>2022-05-29T12:15:11Z</time>
      </trkpt>
      <trkpt lat="48.04722" lon="-3.16928">
        <ele>228.4</ele>
        <time>2022-05-29T12:15:12Z</time>
      </trkpt>
      <trkpt lat="48.04698" lon="-3.16906">
        <ele>229.1</ele>
        <time>2022-05-29T12:15:17Z</time>
      </trkpt>
      <trkpt lat="48.04683" lon="-3.16893">
        <ele>229.1</ele>
        <time>2022-05-29T12:15:20Z</time>
      </trkpt>
      <trkpt lat="48.0467" lon="-3.16886">
        <ele>229.1</ele>
        <time>2022-05-29T12:15:22Z</time>
      </trkpt>
      <trkpt lat="48.04638" lon="-3.1687">
        <ele>228.1</ele>
        <time>2022-05-29T12:15:27Z</time>
      </trkpt>
      <trkpt lat="48.04599" lon="-3.16857">
        <ele>227.3</ele>
        <time>2022-05-29T12:15:32Z</time>
      </trkpt>
      <trkpt lat="48.04592" lon="-3.16854">
        <ele>227.3</ele>
        <time>2022-05-29T12:15:33Z</time>
      </trkpt>
      <trkpt lat="48.04568" lon="-3.16836">
        <ele>227.4</ele>
        <time>2022-05-29T12:15:37Z</time>
      </trkpt>
      <trkpt lat="48.0455" lon="-3.16824">
        <ele>227.9</ele>
        <time>2022-05-29T12:15:40Z</time>
      </trkpt>
      <trkpt lat="48.0451" lon="-3.16793">
        <ele>229</ele>
        <time>2022-05-29T12:15:48Z</time>
      </trkpt>
      <trkpt lat="48.04464" lon="-3.16776">
        <ele>230.1</ele>
        <time>2022-05-29T12:15:56Z</time>
      </trkpt>
      <trkpt lat="48.04458" lon="-3.16774">
        <ele>230.2</ele>
        <time>2022-05-29T12:15:57Z</time>
      </trkpt>
      <trkpt lat="48.04428" lon="-3.1676">
        <ele>230.4</ele>
        <time>2022-05-29T12:16:02Z</time>
      </trkpt>
      <trkpt lat="48.04415" lon="-3.16754">
        <ele>230.5</ele>
        <time>2022-05-29T12:16:04Z</time>
      </trkpt>
      <trkpt lat="48.04371" lon="-3.16733">
        <ele>230.7</ele>
        <time>2022-05-29T12:16:10Z</time>
      </trkpt>
      <trkpt lat="48.04337" lon="-3.16717">
        <ele>230.8</ele>
        <time>2022-05-29T12:16:15Z</time>
      </trkpt>
      <trkpt lat="48.04294" lon="-3.16701">
        <ele>231</ele>
        <time>2022-05-29T12:16:21Z</time>
      </trkpt>
      <trkpt lat="48.04265" lon="-3.16679">
        <ele>231.1</ele>
        <time>2022-05-29T12:16:26Z</time>
      </trkpt>
      <trkpt lat="48.0426" lon="-3.16677">
        <ele>231.1</ele>
        <time>2022-05-29T12:16:27Z</time>
      </trkpt>
      <trkpt lat="48.04217" lon="-3.16644">
        <ele>231.4</ele>
        <time>2022-05-29T12:16:35Z</time>
      </trkpt>
      <trkpt lat="48.04169" lon="-3.16626">
        <ele>231.6</ele>
        <time>2022-05-29T12:16:43Z</time>
      </trkpt>
      <trkpt lat="48.04122" lon="-3.16632">
        <ele>231.8</ele>
        <time>2022-05-29T12:16:50Z</time>
      </trkpt>
      <trkpt lat="48.04077" lon="-3.16646">
        <ele>232</ele>
        <time>2022-05-29T12:16:57Z</time>
      </trkpt>
      <trkpt lat="48.04032" lon="-3.16661">
        <ele>232.2</ele>
        <time>2022-05-29T12:17:04Z</time>
      </trkpt>
      <trkpt lat="48.03992" lon="-3.16677">
        <ele>232.3</ele>
        <time>2022-05-29T12:17:10Z</time>
      </trkpt>
      <trkpt lat="48.03986" lon="-3.16683">
        <ele>232.4</ele>
        <time>2022-05-29T12:17:11Z</time>
      </trkpt>
      <trkpt lat="48.03941" lon="-3.16708">
        <ele>232.6</ele>
        <time>2022-05-29T12:17:18Z</time>
      </trkpt>
      <trkpt lat="48.03895" lon="-3.16718">
        <ele>232.7</ele>
        <time>2022-05-29T12:17:24Z</time>
      </trkpt>
      <trkpt lat="48.03847" lon="-3.16712">
        <ele>233</ele>
        <time>2022-05-29T12:17:32Z</time>
      </trkpt>
      <trkpt lat="48.03836" lon="-3.16708">
        <ele>233</ele>
        <time>2022-05-29T12:17:34Z</time>
      </trkpt>
      <trkpt lat="48.03825" lon="-3.16704">
        <ele>233.2</ele>
        <time>2022-05-29T12:17:36Z</time>
      </trkpt>
      <trkpt lat="48.03809" lon="-3.16694">
        <ele>233.4</ele>
        <time>2022-05-29T12:17:39Z</time>
      </trkpt>
      <trkpt lat="48.03783" lon="-3.16679">
        <ele>233.7</ele>
        <time>2022-05-29T12:17:44Z</time>
      </trkpt>
      <trkpt lat="48.0374" lon="-3.16656">
        <ele>234.4</ele>
        <time>2022-05-29T12:17:52Z</time>
      </trkpt>
      <trkpt lat="48.03723" lon="-3.16651">
        <ele>234.6</ele>
        <time>2022-05-29T12:17:55Z</time>
      </trkpt>
      <trkpt lat="48.03674" lon="-3.16644">
        <ele>235.3</ele>
        <time>2022-05-29T12:18:04Z</time>
      </trkpt>
      <trkpt lat="48.03629" lon="-3.16639">
        <ele>236</ele>
        <time>2022-05-29T12:18:13Z</time>
      </trkpt>
      <trkpt lat="48.03599" lon="-3.1662">
        <ele>236.4</ele>
        <time>2022-05-29T12:18:19Z</time>
      </trkpt>
      <trkpt lat="48.03584" lon="-3.1661">
        <ele>236.3</ele>
        <time>2022-05-29T12:18:22Z</time>
      </trkpt>
      <trkpt lat="48.03579" lon="-3.16608">
        <ele>236.3</ele>
        <time>2022-05-29T12:18:23Z</time>
      </trkpt>
      <trkpt lat="48.03574" lon="-3.16607">
        <ele>236.3</ele>
        <time>2022-05-29T12:18:24Z</time>
      </trkpt>
      <trkpt lat="48.03532" lon="-3.16574">
        <ele>237.4</ele>
        <time>2022-05-29T12:18:32Z</time>
      </trkpt>
      <trkpt lat="48.03518" lon="-3.16564">
        <ele>237.8</ele>
        <time>2022-05-29T12:18:35Z</time>
      </trkpt>
      <trkpt lat="48.0349" lon="-3.16545">
        <ele>239.1</ele>
        <time>2022-05-29T12:18:41Z</time>
      </trkpt>
      <trkpt lat="48.03447" lon="-3.16507">
        <ele>241.1</ele>
        <time>2022-05-29T12:18:51Z</time>
      </trkpt>
      <trkpt lat="48.03418" lon="-3.16454">
        <ele>242.2</ele>
        <time>2022-05-29T12:19:00Z</time>
      </trkpt>
      <trkpt lat="48.03398" lon="-3.16427">
        <ele>242.8</ele>
        <time>2022-05-29T12:19:05Z</time>
      </trkpt>
      <trkpt lat="48.03365" lon="-3.16411">
        <ele>243.5</ele>
        <time>2022-05-29T12:19:11Z</time>
      </trkpt>
      <trkpt lat="48.03354" lon="-3.16406">
        <ele>243.4</ele>
        <time>2022-05-29T12:19:13Z</time>
      </trkpt>
      <trkpt lat="48.03336" lon="-3.164">
        <ele>243.2</ele>
        <time>2022-05-29T12:19:16Z</time>
      </trkpt>
      <trkpt lat="48.03291" lon="-3.16388">
        <ele>242.8</ele>
        <time>2022-05-29T12:19:23Z</time>
      </trkpt>
      <trkpt lat="48.03242" lon="-3.1637">
        <ele>242.4</ele>
        <time>2022-05-29T12:19:30Z</time>
      </trkpt>
      <trkpt lat="48.03235" lon="-3.16368">
        <ele>242.4</ele>
        <time>2022-05-29T12:19:31Z</time>
      </trkpt>
      <trkpt lat="48.03212" lon="-3.16362">
        <ele>242.1</ele>
        <time>2022-05-29T12:19:34Z</time>
      </trkpt>
      <trkpt lat="48.03166" lon="-3.16363">
        <ele>241.5</ele>
        <time>2022-05-29T12:19:40Z</time>
      </trkpt>
      <trkpt lat="48.03159" lon="-3.16363">
        <ele>241.5</ele>
        <time>2022-05-29T12:19:41Z</time>
      </trkpt>
      <trkpt lat="48.03115" lon="-3.16363">
        <ele>241.9</ele>
        <time>2022-05-29T12:19:47Z</time>
      </trkpt>
      <trkpt lat="48.03067" lon="-3.16364">
        <ele>242.4</ele>
        <time>2022-05-29T12:19:54Z</time>
      </trkpt>
      <trkpt lat="48.03048" lon="-3.16359">
        <ele>242.6</ele>
        <time>2022-05-29T12:19:57Z</time>
      </trkpt>
      <trkpt lat="48.0303" lon="-3.1635">
        <ele>242.8</ele>
        <time>2022-05-29T12:20:00Z</time>
      </trkpt>
      <trkpt lat="48.02992" lon="-3.16309">
        <ele>243.3</ele>
        <time>2022-05-29T12:20:07Z</time>
      </trkpt>
      <trkpt lat="48.02955" lon="-3.16257">
        <ele>243.8</ele>
        <time>2022-05-29T12:20:15Z</time>
      </trkpt>
      <trkpt lat="48.02918" lon="-3.16205">
        <ele>244.4</ele>
        <time>2022-05-29T12:20:23Z</time>
      </trkpt>
      <trkpt lat="48.02905" lon="-3.16188">
        <ele>244.6</ele>
        <time>2022-05-29T12:20:26Z</time>
      </trkpt>
      <trkpt lat="48.02886" lon="-3.16166">
        <ele>245.3</ele>
        <time>2022-05-29T12:20:30Z</time>
      </trkpt>
      <trkpt lat="48.0288" lon="-3.16162">
        <ele>245.4</ele>
        <time>2022-05-29T12:20:31Z</time>
      </trkpt>
      <trkpt lat="48.02842" lon="-3.16133">
        <ele>245.3</ele>
        <time>2022-05-29T12:20:38Z</time>
      </trkpt>
      <trkpt lat="48.02816" lon="-3.16108">
        <ele>245.1</ele>
        <time>2022-05-29T12:20:42Z</time>
      </trkpt>
      <trkpt lat="48.02803" lon="-3.16096">
        <ele>244.7</ele>
        <time>2022-05-29T12:20:44Z</time>
      </trkpt>
      <trkpt lat="48.02783" lon="-3.16075">
        <ele>244.1</ele>
        <time>2022-05-29T12:20:47Z</time>
      </trkpt>
      <trkpt lat="48.02763" lon="-3.16055">
        <ele>243.9</ele>
        <time>2022-05-29T12:20:50Z</time>
      </trkpt>
      <trkpt lat="48.02719" lon="-3.16016">
        <ele>243.3</ele>
        <time>2022-05-29T12:20:57Z</time>
      </trkpt>
      <trkpt lat="48.02713" lon="-3.16011">
        <ele>243.3</ele>
        <time>2022-05-29T12:20:58Z</time>
      </trkpt>
      <trkpt lat="48.02684" lon="-3.15985">
        <ele>244.1</ele>
        <time>2022-05-29T12:21:03Z</time>
      </trkpt>
      <trkpt lat="48.02669" lon="-3.15966">
        <ele>244.6</ele>
        <time>2022-05-29T12:21:06Z</time>
      </trkpt>
      <trkpt lat="48.02663" lon="-3.15947">
        <ele>244.9</ele>
        <time>2022-05-29T12:21:08Z</time>
      </trkpt>
      <trkpt lat="48.02652" lon="-3.15872">
        <ele>245.5</ele>
        <time>2022-05-29T12:21:16Z</time>
      </trkpt>
      <trkpt lat="48.0265" lon="-3.15853">
        <ele>245.7</ele>
        <time>2022-05-29T12:21:18Z</time>
      </trkpt>
      <trkpt lat="48.02644" lon="-3.15815">
        <ele>246.1</ele>
        <time>2022-05-29T12:21:22Z</time>
      </trkpt>
      <trkpt lat="48.02635" lon="-3.158">
        <ele>246.2</ele>
        <time>2022-05-29T12:21:24Z</time>
      </trkpt>
      <trkpt lat="48.02593" lon="-3.15757">
        <ele>247</ele>
        <time>2022-05-29T12:21:32Z</time>
      </trkpt>
      <trkpt lat="48.02588" lon="-3.15756">
        <ele>247.1</ele>
        <time>2022-05-29T12:21:33Z</time>
      </trkpt>
      <trkpt lat="48.02561" lon="-3.15753">
        <ele>248.1</ele>
        <time>2022-05-29T12:21:38Z</time>
      </trkpt>
      <trkpt lat="48.02545" lon="-3.15751">
        <ele>248.6</ele>
        <time>2022-05-29T12:21:41Z</time>
      </trkpt>
      <trkpt lat="48.02534" lon="-3.15751">
        <ele>248.9</ele>
        <time>2022-05-29T12:21:43Z</time>
      </trkpt>
      <trkpt lat="48.02499" lon="-3.1575">
        <ele>250.4</ele>
        <time>2022-05-29T12:21:50Z</time>
      </trkpt>
      <trkpt lat="48.02451" lon="-3.15741">
        <ele>252.2</ele>
        <time>2022-05-29T12:21:59Z</time>
      </trkpt>
      <trkpt lat="48.02432" lon="-3.15732">
        <ele>253.1</ele>
        <time>2022-05-29T12:22:03Z</time>
      </trkpt>
      <trkpt lat="48.02407" lon="-3.15722">
        <ele>254.1</ele>
        <time>2022-05-29T12:22:08Z</time>
      </trkpt>
      <trkpt lat="48.02374" lon="-3.15711">
        <ele>255.9</ele>
        <time>2022-05-29T12:22:16Z</time>
      </trkpt>
      <trkpt lat="48.02366" lon="-3.1571">
        <ele>256.3</ele>
        <time>2022-05-29T12:22:18Z</time>
      </trkpt>
      <trkpt lat="48.02345" lon="-3.15707">
        <ele>257.4</ele>
        <time>2022-05-29T12:22:23Z</time>
      </trkpt>
      <trkpt lat="48.02329" lon="-3.15703">
        <ele>258.3</ele>
        <time>2022-05-29T12:22:27Z</time>
      </trkpt>
      <trkpt lat="48.0229" lon="-3.15672">
        <ele>260.4</ele>
        <time>2022-05-29T12:22:37Z</time>
      </trkpt>
      <trkpt lat="48.02286" lon="-3.15669">
        <ele>260.7</ele>
        <time>2022-05-29T12:22:38Z</time>
      </trkpt>
      <trkpt lat="48.02267" lon="-3.15657">
        <ele>262.2</ele>
        <time>2022-05-29T12:22:43Z</time>
      </trkpt>
      <trkpt lat="48.02248" lon="-3.15643">
        <ele>263</ele>
        <time>2022-05-29T12:22:48Z</time>
      </trkpt>
      <trkpt lat="48.02243" lon="-3.1564">
        <ele>263.1</ele>
        <time>2022-05-29T12:22:49Z</time>
      </trkpt>
      <trkpt lat="48.02217" lon="-3.15616">
        <ele>263.5</ele>
        <time>2022-05-29T12:22:55Z</time>
      </trkpt>
      <trkpt lat="48.02208" lon="-3.15608">
        <ele>263.3</ele>
        <time>2022-05-29T12:22:57Z</time>
      </trkpt>
      <trkpt lat="48.02189" lon="-3.15587">
        <ele>263.1</ele>
        <time>2022-05-29T12:23:01Z</time>
      </trkpt>
      <trkpt lat="48.02161" lon="-3.15525">
        <ele>262.5</ele>
        <time>2022-05-29T12:23:09Z</time>
      </trkpt>
      <trkpt lat="48.0214" lon="-3.15481">
        <ele>262.1</ele>
        <time>2022-05-29T12:23:15Z</time>
      </trkpt>
      <trkpt lat="48.02101" lon="-3.15445">
        <ele>261.6</ele>
        <time>2022-05-29T12:23:22Z</time>
      </trkpt>
      <trkpt lat="48.02072" lon="-3.15415">
        <ele>261.2</ele>
        <time>2022-05-29T12:23:26Z</time>
      </trkpt>
      <trkpt lat="48.02058" lon="-3.15399">
        <ele>260.3</ele>
        <time>2022-05-29T12:23:28Z</time>
      </trkpt>
      <trkpt lat="48.02038" lon="-3.15366">
        <ele>259.1</ele>
        <time>2022-05-29T12:23:31Z</time>
      </trkpt>
      <trkpt lat="48.02025" lon="-3.15343">
        <ele>258.2</ele>
        <time>2022-05-29T12:23:33Z</time>
      </trkpt>
      <trkpt lat="48.02016" lon="-3.15315">
        <ele>257.3</ele>
        <time>2022-05-29T12:23:35Z</time>
      </trkpt>
      <trkpt lat="48.02011" lon="-3.15285">
        <ele>256.3</ele>
        <time>2022-05-29T12:23:37Z</time>
      </trkpt>
      <trkpt lat="48.02009" lon="-3.15222">
        <ele>254.5</ele>
        <time>2022-05-29T12:23:41Z</time>
      </trkpt>
      <trkpt lat="48.02009" lon="-3.15207">
        <ele>254</ele>
        <time>2022-05-29T12:23:42Z</time>
      </trkpt>
      <trkpt lat="48.02005" lon="-3.15137">
        <ele>251.6</ele>
        <time>2022-05-29T12:23:47Z</time>
      </trkpt>
      <trkpt lat="48.02004" lon="-3.15111">
        <ele>250.6</ele>
        <time>2022-05-29T12:23:49Z</time>
      </trkpt>
      <trkpt lat="48.01993" lon="-3.15085">
        <ele>249.6</ele>
        <time>2022-05-29T12:23:51Z</time>
      </trkpt>
      <trkpt lat="48.01945" lon="-3.15042">
        <ele>246.7</ele>
        <time>2022-05-29T12:23:56Z</time>
      </trkpt>
      <trkpt lat="48.01892" lon="-3.15005">
        <ele>243.7</ele>
        <time>2022-05-29T12:24:01Z</time>
      </trkpt>
      <trkpt lat="48.01867" lon="-3.14994">
        <ele>242.7</ele>
        <time>2022-05-29T12:24:03Z</time>
      </trkpt>
      <trkpt lat="48.01816" lon="-3.1499">
        <ele>240.5</ele>
        <time>2022-05-29T12:24:07Z</time>
      </trkpt>
      <trkpt lat="48.01807" lon="-3.14987">
        <ele>240</ele>
        <time>2022-05-29T12:24:08Z</time>
      </trkpt>
      <trkpt lat="48.01784" lon="-3.14966">
        <ele>238.3</ele>
        <time>2022-05-29T12:24:11Z</time>
      </trkpt>
      <trkpt lat="48.01776" lon="-3.14957">
        <ele>237.6</ele>
        <time>2022-05-29T12:24:12Z</time>
      </trkpt>
      <trkpt lat="48.01745" lon="-3.14923">
        <ele>235.5</ele>
        <time>2022-05-29T12:24:15Z</time>
      </trkpt>
      <trkpt lat="48.01733" lon="-3.14918">
        <ele>234.9</ele>
        <time>2022-05-29T12:24:16Z</time>
      </trkpt>
      <trkpt lat="48.01721" lon="-3.14914">
        <ele>234.6</ele>
        <time>2022-05-29T12:24:17Z</time>
      </trkpt>
      <trkpt lat="48.01698" lon="-3.14916">
        <ele>233.9</ele>
        <time>2022-05-29T12:24:19Z</time>
      </trkpt>
      <trkpt lat="48.01678" lon="-3.14924">
        <ele>233.1</ele>
        <time>2022-05-29T12:24:21Z</time>
      </trkpt>
      <trkpt lat="48.01655" lon="-3.14925">
        <ele>232.4</ele>
        <time>2022-05-29T12:24:23Z</time>
      </trkpt>
      <trkpt lat="48.01624" lon="-3.14932">
        <ele>231.3</ele>
        <time>2022-05-29T12:24:26Z</time>
      </trkpt>
      <trkpt lat="48.01573" lon="-3.14931">
        <ele>229</ele>
        <time>2022-05-29T12:24:31Z</time>
      </trkpt>
      <trkpt lat="48.01552" lon="-3.14926">
        <ele>228.1</ele>
        <time>2022-05-29T12:24:33Z</time>
      </trkpt>
      <trkpt lat="48.01541" lon="-3.14919">
        <ele>227.7</ele>
        <time>2022-05-29T12:24:34Z</time>
      </trkpt>
      <trkpt lat="48.0152" lon="-3.14899">
        <ele>226.7</ele>
        <time>2022-05-29T12:24:36Z</time>
      </trkpt>
      <trkpt lat="48.01509" lon="-3.14891">
        <ele>226.1</ele>
        <time>2022-05-29T12:24:37Z</time>
      </trkpt>
      <trkpt lat="48.01464" lon="-3.14865">
        <ele>223.6</ele>
        <time>2022-05-29T12:24:41Z</time>
      </trkpt>
      <trkpt lat="48.01442" lon="-3.14843">
        <ele>222.2</ele>
        <time>2022-05-29T12:24:43Z</time>
      </trkpt>
      <trkpt lat="48.01434" lon="-3.14827">
        <ele>221.6</ele>
        <time>2022-05-29T12:24:44Z</time>
      </trkpt>
      <trkpt lat="48.0143" lon="-3.14807">
        <ele>220.9</ele>
        <time>2022-05-29T12:24:45Z</time>
      </trkpt>
      <trkpt lat="48.01427" lon="-3.14733">
        <ele>218.2</ele>
        <time>2022-05-29T12:24:49Z</time>
      </trkpt>
      <trkpt lat="48.01425" lon="-3.14695">
        <ele>216.9</ele>
        <time>2022-05-29T12:24:51Z</time>
      </trkpt>
      <trkpt lat="48.01423" lon="-3.14676">
        <ele>216.2</ele>
        <time>2022-05-29T12:24:52Z</time>
      </trkpt>
      <trkpt lat="48.01405" lon="-3.14604">
        <ele>213.5</ele>
        <time>2022-05-29T12:24:56Z</time>
      </trkpt>
      <trkpt lat="48.01398" lon="-3.1455">
        <ele>211.5</ele>
        <time>2022-05-29T12:24:59Z</time>
      </trkpt>
      <trkpt lat="48.014" lon="-3.14513">
        <ele>210.2</ele>
        <time>2022-05-29T12:25:01Z</time>
      </trkpt>
      <trkpt lat="48.01399" lon="-3.14495">
        <ele>209.5</ele>
        <time>2022-05-29T12:25:02Z</time>
      </trkpt>
      <trkpt lat="48.01391" lon="-3.14459">
        <ele>208.1</ele>
        <time>2022-05-29T12:25:04Z</time>
      </trkpt>
      <trkpt lat="48.01376" lon="-3.14428">
        <ele>206.8</ele>
        <time>2022-05-29T12:25:06Z</time>
      </trkpt>
      <trkpt lat="48.01362" lon="-3.14397">
        <ele>205.5</ele>
        <time>2022-05-29T12:25:08Z</time>
      </trkpt>
      <trkpt lat="48.01351" lon="-3.14363">
        <ele>204.2</ele>
        <time>2022-05-29T12:25:10Z</time>
      </trkpt>
      <trkpt lat="48.01348" lon="-3.14342">
        <ele>203.5</ele>
        <time>2022-05-29T12:25:11Z</time>
      </trkpt>
      <trkpt lat="48.01347" lon="-3.14321">
        <ele>202.6</ele>
        <time>2022-05-29T12:25:12Z</time>
      </trkpt>
      <trkpt lat="48.01354" lon="-3.14267">
        <ele>199.8</ele>
        <time>2022-05-29T12:25:15Z</time>
      </trkpt>
      <trkpt lat="48.01357" lon="-3.1425">
        <ele>198.9</ele>
        <time>2022-05-29T12:25:16Z</time>
      </trkpt>
      <trkpt lat="48.01365" lon="-3.14172">
        <ele>195.9</ele>
        <time>2022-05-29T12:25:20Z</time>
      </trkpt>
      <trkpt lat="48.01366" lon="-3.14152">
        <ele>195.1</ele>
        <time>2022-05-29T12:25:21Z</time>
      </trkpt>
      <trkpt lat="48.01371" lon="-3.14091">
        <ele>193</ele>
        <time>2022-05-29T12:25:24Z</time>
      </trkpt>
      <trkpt lat="48.0137" lon="-3.14051">
        <ele>191.5</ele>
        <time>2022-05-29T12:25:26Z</time>
      </trkpt>
      <trkpt lat="48.01369" lon="-3.14012">
        <ele>189.8</ele>
        <time>2022-05-29T12:25:28Z</time>
      </trkpt>
      <trkpt lat="48.01364" lon="-3.13961">
        <ele>187.6</ele>
        <time>2022-05-29T12:25:31Z</time>
      </trkpt>
      <trkpt lat="48.01343" lon="-3.13908">
        <ele>187.1</ele>
        <time>2022-05-29T12:25:35Z</time>
      </trkpt>
      <trkpt lat="48.01328" lon="-3.13889">
        <ele>186.9</ele>
        <time>2022-05-29T12:25:37Z</time>
      </trkpt>
      <trkpt lat="48.01293" lon="-3.13866">
        <ele>186.6</ele>
        <time>2022-05-29T12:25:41Z</time>
      </trkpt>
      <trkpt lat="48.01284" lon="-3.13862">
        <ele>186.9</ele>
        <time>2022-05-29T12:25:42Z</time>
      </trkpt>
      <trkpt lat="48.01239" lon="-3.13847">
        <ele>188.3</ele>
        <time>2022-05-29T12:25:47Z</time>
      </trkpt>
      <trkpt lat="48.01214" lon="-3.13828">
        <ele>189.3</ele>
        <time>2022-05-29T12:25:51Z</time>
      </trkpt>
      <trkpt lat="48.01208" lon="-3.13824">
        <ele>189.2</ele>
        <time>2022-05-29T12:25:52Z</time>
      </trkpt>
      <trkpt lat="48.01201" lon="-3.1382">
        <ele>189.1</ele>
        <time>2022-05-29T12:25:53Z</time>
      </trkpt>
      <trkpt lat="48.01183" lon="-3.138">
        <ele>188.9</ele>
        <time>2022-05-29T12:25:56Z</time>
      </trkpt>
      <trkpt lat="48.01172" lon="-3.13785">
        <ele>188.6</ele>
        <time>2022-05-29T12:25:58Z</time>
      </trkpt>
      <trkpt lat="48.01158" lon="-3.13754">
        <ele>188.3</ele>
        <time>2022-05-29T12:26:01Z</time>
      </trkpt>
      <trkpt lat="48.01151" lon="-3.13728">
        <ele>188.1</ele>
        <time>2022-05-29T12:26:03Z</time>
      </trkpt>
      <trkpt lat="48.01145" lon="-3.13677">
        <ele>187.8</ele>
        <time>2022-05-29T12:26:07Z</time>
      </trkpt>
      <trkpt lat="48.01122" lon="-3.13619">
        <ele>187.4</ele>
        <time>2022-05-29T12:26:12Z</time>
      </trkpt>
      <trkpt lat="48.01116" lon="-3.13614">
        <ele>187.3</ele>
        <time>2022-05-29T12:26:13Z</time>
      </trkpt>
      <trkpt lat="48.01079" lon="-3.13561">
        <ele>186.7</ele>
        <time>2022-05-29T12:26:20Z</time>
      </trkpt>
      <trkpt lat="48.01046" lon="-3.13509">
        <ele>186.2</ele>
        <time>2022-05-29T12:26:26Z</time>
      </trkpt>
      <trkpt lat="48.01028" lon="-3.13445">
        <ele>185.8</ele>
        <time>2022-05-29T12:26:31Z</time>
      </trkpt>
      <trkpt lat="48.01018" lon="-3.13404">
        <ele>185.6</ele>
        <time>2022-05-29T12:26:34Z</time>
      </trkpt>
      <trkpt lat="48.01009" lon="-3.13378">
        <ele>185.3</ele>
        <time>2022-05-29T12:26:36Z</time>
      </trkpt>
      <trkpt lat="48.00996" lon="-3.1334">
        <ele>184.2</ele>
        <time>2022-05-29T12:26:39Z</time>
      </trkpt>
      <trkpt lat="48.00991" lon="-3.13313">
        <ele>183.4</ele>
        <time>2022-05-29T12:26:41Z</time>
      </trkpt>
      <trkpt lat="48.0099" lon="-3.13299">
        <ele>183</ele>
        <time>2022-05-29T12:26:42Z</time>
      </trkpt>
      <trkpt lat="48.00997" lon="-3.13222">
        <ele>180.7</ele>
        <time>2022-05-29T12:26:47Z</time>
      </trkpt>
      <trkpt lat="48.00998" lon="-3.13205">
        <ele>180.2</ele>
        <time>2022-05-29T12:26:48Z</time>
      </trkpt>
      <trkpt lat="48.00997" lon="-3.13157">
        <ele>179</ele>
        <time>2022-05-29T12:26:51Z</time>
      </trkpt>
      <trkpt lat="48.00996" lon="-3.13126">
        <ele>178.6</ele>
        <time>2022-05-29T12:26:53Z</time>
      </trkpt>
      <trkpt lat="48.00988" lon="-3.13068">
        <ele>178</ele>
        <time>2022-05-29T12:26:57Z</time>
      </trkpt>
      <trkpt lat="48.00969" lon="-3.13008">
        <ele>177.2</ele>
        <time>2022-05-29T12:27:02Z</time>
      </trkpt>
      <trkpt lat="48.00965" lon="-3.12996">
        <ele>177</ele>
        <time>2022-05-29T12:27:03Z</time>
      </trkpt>
      <trkpt lat="48.00939" lon="-3.12927">
        <ele>176</ele>
        <time>2022-05-29T12:27:09Z</time>
      </trkpt>
      <trkpt lat="48.00917" lon="-3.12868">
        <ele>175.2</ele>
        <time>2022-05-29T12:27:14Z</time>
      </trkpt>
      <trkpt lat="48.00893" lon="-3.128">
        <ele>174.2</ele>
        <time>2022-05-29T12:27:20Z</time>
      </trkpt>
      <trkpt lat="48.00883" lon="-3.12769">
        <ele>173.9</ele>
        <time>2022-05-29T12:27:23Z</time>
      </trkpt>
      <trkpt lat="48.00874" lon="-3.12738">
        <ele>174.3</ele>
        <time>2022-05-29T12:27:26Z</time>
      </trkpt>
      <trkpt lat="48.00853" lon="-3.12674">
        <ele>175.3</ele>
        <time>2022-05-29T12:27:33Z</time>
      </trkpt>
      <trkpt lat="48.00837" lon="-3.12628">
        <ele>176</ele>
        <time>2022-05-29T12:27:38Z</time>
      </trkpt>
      <trkpt lat="48.00832" lon="-3.12627">
        <ele>176.2</ele>
        <time>2022-05-29T12:27:40Z</time>
      </trkpt>
      <trkpt lat="48.00802" lon="-3.12647">
        <ele>176.6</ele>
        <time>2022-05-29T12:27:48Z</time>
      </trkpt>
      <trkpt lat="48.00799" lon="-3.1265">
        <ele>176.5</ele>
        <time>2022-05-29T12:27:49Z</time>
      </trkpt>
      <trkpt lat="48.00759" lon="-3.12694">
        <ele>176</ele>
        <time>2022-05-29T12:27:59Z</time>
      </trkpt>
      <trkpt lat="48.0075" lon="-3.12708">
        <ele>175.9</ele>
        <time>2022-05-29T12:28:01Z</time>
      </trkpt>
      <trkpt lat="48.00747" lon="-3.12732">
        <ele>175.8</ele>
        <time>2022-05-29T12:28:03Z</time>
      </trkpt>
      <trkpt lat="48.00751" lon="-3.12804">
        <ele>175.5</ele>
        <time>2022-05-29T12:28:09Z</time>
      </trkpt>
      <trkpt lat="48.00754" lon="-3.12868">
        <ele>175.1</ele>
        <time>2022-05-29T12:28:16Z</time>
      </trkpt>
      <trkpt lat="48.00742" lon="-3.12906">
        <ele>174.9</ele>
        <time>2022-05-29T12:28:21Z</time>
      </trkpt>
      <trkpt lat="48.00717" lon="-3.12957">
        <ele>174.5</ele>
        <time>2022-05-29T12:28:27Z</time>
      </trkpt>
      <trkpt lat="48.00715" lon="-3.12967">
        <ele>174.5</ele>
        <time>2022-05-29T12:28:28Z</time>
      </trkpt>
      <trkpt lat="48.007" lon="-3.13013">
        <ele>174.2</ele>
        <time>2022-05-29T12:28:33Z</time>
      </trkpt>
      <trkpt lat="48.00694" lon="-3.13032">
        <ele>174.1</ele>
        <time>2022-05-29T12:28:35Z</time>
      </trkpt>
      <trkpt lat="48.00684" lon="-3.13063">
        <ele>173.9</ele>
        <time>2022-05-29T12:28:38Z</time>
      </trkpt>
      <trkpt lat="48.00674" lon="-3.13095">
        <ele>173.5</ele>
        <time>2022-05-29T12:28:41Z</time>
      </trkpt>
      <trkpt lat="48.00654" lon="-3.13167">
        <ele>172.8</ele>
        <time>2022-05-29T12:28:47Z</time>
      </trkpt>
      <trkpt lat="48.00625" lon="-3.13232">
        <ele>172.1</ele>
        <time>2022-05-29T12:28:53Z</time>
      </trkpt>
      <trkpt lat="48.00595" lon="-3.13275">
        <ele>171.6</ele>
        <time>2022-05-29T12:28:58Z</time>
      </trkpt>
      <trkpt lat="48.0059" lon="-3.13284">
        <ele>171.5</ele>
        <time>2022-05-29T12:28:59Z</time>
      </trkpt>
      <trkpt lat="48.00555" lon="-3.13339">
        <ele>170.9</ele>
        <time>2022-05-29T12:29:05Z</time>
      </trkpt>
      <trkpt lat="48.00536" lon="-3.13366">
        <ele>170.7</ele>
        <time>2022-05-29T12:29:09Z</time>
      </trkpt>
      <trkpt lat="48.00521" lon="-3.13386">
        <ele>172</ele>
        <time>2022-05-29T12:29:12Z</time>
      </trkpt>
      <trkpt lat="48.00512" lon="-3.13399">
        <ele>172.6</ele>
        <time>2022-05-29T12:29:14Z</time>
      </trkpt>
      <trkpt lat="48.00498" lon="-3.13418">
        <ele>172.4</ele>
        <time>2022-05-29T12:29:17Z</time>
      </trkpt>
      <trkpt lat="48.00468" lon="-3.13443">
        <ele>172.2</ele>
        <time>2022-05-29T12:29:22Z</time>
      </trkpt>
      <trkpt lat="48.00461" lon="-3.13449">
        <ele>172.1</ele>
        <time>2022-05-29T12:29:23Z</time>
      </trkpt>
      <trkpt lat="48.00445" lon="-3.13455">
        <ele>171.9</ele>
        <time>2022-05-29T12:29:25Z</time>
      </trkpt>
      <trkpt lat="48.00413" lon="-3.13468">
        <ele>170.9</ele>
        <time>2022-05-29T12:29:29Z</time>
      </trkpt>
      <trkpt lat="48.00404" lon="-3.13473">
        <ele>170.6</ele>
        <time>2022-05-29T12:29:30Z</time>
      </trkpt>
      <trkpt lat="48.00369" lon="-3.13489">
        <ele>169.4</ele>
        <time>2022-05-29T12:29:34Z</time>
      </trkpt>
      <trkpt lat="48.00361" lon="-3.13491">
        <ele>169.1</ele>
        <time>2022-05-29T12:29:35Z</time>
      </trkpt>
      <trkpt lat="48.00321" lon="-3.13498">
        <ele>168.4</ele>
        <time>2022-05-29T12:29:40Z</time>
      </trkpt>
      <trkpt lat="48.00305" lon="-3.13495">
        <ele>168.3</ele>
        <time>2022-05-29T12:29:42Z</time>
      </trkpt>
      <trkpt lat="48.00278" lon="-3.13494">
        <ele>168.1</ele>
        <time>2022-05-29T12:29:45Z</time>
      </trkpt>
      <trkpt lat="48.00251" lon="-3.13493">
        <ele>167.4</ele>
        <time>2022-05-29T12:29:48Z</time>
      </trkpt>
      <trkpt lat="48.00232" lon="-3.13489">
        <ele>166.9</ele>
        <time>2022-05-29T12:29:50Z</time>
      </trkpt>
      <trkpt lat="48.00204" lon="-3.13483">
        <ele>166.6</ele>
        <time>2022-05-29T12:29:53Z</time>
      </trkpt>
      <trkpt lat="48.0016" lon="-3.13469">
        <ele>166.1</ele>
        <time>2022-05-29T12:29:58Z</time>
      </trkpt>
      <trkpt lat="48.00111" lon="-3.13452">
        <ele>165.5</ele>
        <time>2022-05-29T12:30:04Z</time>
      </trkpt>
      <trkpt lat="48.00104" lon="-3.13449">
        <ele>165.4</ele>
        <time>2022-05-29T12:30:05Z</time>
      </trkpt>
      <trkpt lat="48.00068" lon="-3.13435">
        <ele>165.2</ele>
        <time>2022-05-29T12:30:10Z</time>
      </trkpt>
      <trkpt lat="48.00022" lon="-3.13431">
        <ele>164.8</ele>
        <time>2022-05-29T12:30:18Z</time>
      </trkpt>
      <trkpt lat="47.99997" lon="-3.13441">
        <ele>164.6</ele>
        <time>2022-05-29T12:30:22Z</time>
      </trkpt>
      <trkpt lat="47.99967" lon="-3.13462">
        <ele>164.5</ele>
        <time>2022-05-29T12:30:26Z</time>
      </trkpt>
      <trkpt lat="47.99948" lon="-3.13466">
        <ele>164.4</ele>
        <time>2022-05-29T12:30:28Z</time>
      </trkpt>
      <trkpt lat="47.9993" lon="-3.13465">
        <ele>164.4</ele>
        <time>2022-05-29T12:30:30Z</time>
      </trkpt>
      <trkpt lat="47.99903" lon="-3.13463">
        <ele>164.8</ele>
        <time>2022-05-29T12:30:33Z</time>
      </trkpt>
      <trkpt lat="47.9989" lon="-3.13464">
        <ele>165.1</ele>
        <time>2022-05-29T12:30:35Z</time>
      </trkpt>
      <trkpt lat="47.99861" lon="-3.13458">
        <ele>165.9</ele>
        <time>2022-05-29T12:30:40Z</time>
      </trkpt>
      <trkpt lat="47.99844" lon="-3.13454">
        <ele>167.2</ele>
        <time>2022-05-29T12:30:43Z</time>
      </trkpt>
      <trkpt lat="47.99835" lon="-3.13453">
        <ele>167.9</ele>
        <time>2022-05-29T12:30:45Z</time>
      </trkpt>
      <trkpt lat="47.99797" lon="-3.13446">
        <ele>168.2</ele>
        <time>2022-05-29T12:30:53Z</time>
      </trkpt>
      <trkpt lat="47.99785" lon="-3.13444">
        <ele>168.1</ele>
        <time>2022-05-29T12:30:55Z</time>
      </trkpt>
      <trkpt lat="47.99754" lon="-3.13436">
        <ele>167</ele>
        <time>2022-05-29T12:31:00Z</time>
      </trkpt>
      <trkpt lat="47.99747" lon="-3.13431">
        <ele>166.7</ele>
        <time>2022-05-29T12:31:01Z</time>
      </trkpt>
      <trkpt lat="47.99698" lon="-3.13411">
        <ele>165</ele>
        <time>2022-05-29T12:31:07Z</time>
      </trkpt>
      <trkpt lat="47.99671" lon="-3.13396">
        <ele>164.3</ele>
        <time>2022-05-29T12:31:10Z</time>
      </trkpt>
      <trkpt lat="47.99654" lon="-3.13387">
        <ele>164.7</ele>
        <time>2022-05-29T12:31:12Z</time>
      </trkpt>
      <trkpt lat="47.99614" lon="-3.13364">
        <ele>166.3</ele>
        <time>2022-05-29T12:31:20Z</time>
      </trkpt>
      <trkpt lat="47.99613" lon="-3.13361">
        <ele>166.6</ele>
        <time>2022-05-29T12:31:21Z</time>
      </trkpt>
      <trkpt lat="47.99593" lon="-3.13351">
        <ele>170.8</ele>
        <time>2022-05-29T12:31:32Z</time>
      </trkpt>
      <trkpt lat="47.99574" lon="-3.13342">
        <ele>173.9</ele>
        <time>2022-05-29T12:31:42Z</time>
      </trkpt>
      <trkpt lat="47.99569" lon="-3.13339">
        <ele>174.7</ele>
        <time>2022-05-29T12:31:45Z</time>
      </trkpt>
      <trkpt lat="47.9955" lon="-3.13329">
        <ele>178</ele>
        <time>2022-05-29T12:31:57Z</time>
      </trkpt>
      <trkpt lat="47.99541" lon="-3.13324">
        <ele>179.2</ele>
        <time>2022-05-29T12:32:02Z</time>
      </trkpt>
      <trkpt lat="47.99533" lon="-3.1332">
        <ele>180.8</ele>
        <time>2022-05-29T12:32:07Z</time>
      </trkpt>
      <trkpt lat="47.99527" lon="-3.13316">
        <ele>181.8</ele>
        <time>2022-05-29T12:32:11Z</time>
      </trkpt>
      <trkpt lat="47.9952" lon="-3.1331">
        <ele>183.1</ele>
        <time>2022-05-29T12:32:16Z</time>
      </trkpt>
      <trkpt lat="47.99508" lon="-3.13304">
        <ele>184.5</ele>
        <time>2022-05-29T12:32:22Z</time>
      </trkpt>
      <trkpt lat="47.99485" lon="-3.13293">
        <ele>186.8</ele>
        <time>2022-05-29T12:32:34Z</time>
      </trkpt>
      <trkpt lat="47.99481" lon="-3.13289">
        <ele>187.2</ele>
        <time>2022-05-29T12:32:36Z</time>
      </trkpt>
      <trkpt lat="47.99464" lon="-3.1328">
        <ele>188.4</ele>
        <time>2022-05-29T12:32:42Z</time>
      </trkpt>
      <trkpt lat="47.99438" lon="-3.13267">
        <ele>189.6</ele>
        <time>2022-05-29T12:32:51Z</time>
      </trkpt>
      <trkpt lat="47.99406" lon="-3.13248">
        <ele>190.9</ele>
        <time>2022-05-29T12:33:01Z</time>
      </trkpt>
      <trkpt lat="47.99403" lon="-3.13246">
        <ele>191.1</ele>
        <time>2022-05-29T12:33:02Z</time>
      </trkpt>
      <trkpt lat="47.99386" lon="-3.13238">
        <ele>191.8</ele>
        <time>2022-05-29T12:33:07Z</time>
      </trkpt>
      <trkpt lat="47.99364" lon="-3.13226">
        <ele>192.8</ele>
        <time>2022-05-29T12:33:14Z</time>
      </trkpt>
      <trkpt lat="47.99324" lon="-3.13203">
        <ele>194.5</ele>
        <time>2022-05-29T12:33:26Z</time>
      </trkpt>
      <trkpt lat="47.99317" lon="-3.13199">
        <ele>194.8</ele>
        <time>2022-05-29T12:33:28Z</time>
      </trkpt>
      <trkpt lat="47.99297" lon="-3.13189">
        <ele>195.8</ele>
        <time>2022-05-29T12:33:34Z</time>
      </trkpt>
      <trkpt lat="47.9928" lon="-3.1318">
        <ele>195.9</ele>
        <time>2022-05-29T12:33:39Z</time>
      </trkpt>
      <trkpt lat="47.99244" lon="-3.13164">
        <ele>194.6</ele>
        <time>2022-05-29T12:33:49Z</time>
      </trkpt>
      <trkpt lat="47.99222" lon="-3.13173">
        <ele>194.1</ele>
        <time>2022-05-29T12:33:53Z</time>
      </trkpt>
      <trkpt lat="47.99215" lon="-3.13182">
        <ele>193.7</ele>
        <time>2022-05-29T12:33:54Z</time>
      </trkpt>
      <trkpt lat="47.99189" lon="-3.13197">
        <ele>191.6</ele>
        <time>2022-05-29T12:33:57Z</time>
      </trkpt>
      <trkpt lat="47.99179" lon="-3.13201">
        <ele>190.9</ele>
        <time>2022-05-29T12:33:58Z</time>
      </trkpt>
      <trkpt lat="47.99169" lon="-3.13208">
        <ele>190</ele>
        <time>2022-05-29T12:33:59Z</time>
      </trkpt>
      <trkpt lat="47.99149" lon="-3.1322">
        <ele>188.2</ele>
        <time>2022-05-29T12:34:01Z</time>
      </trkpt>
      <trkpt lat="47.99122" lon="-3.13244">
        <ele>185.5</ele>
        <time>2022-05-29T12:34:04Z</time>
      </trkpt>
      <trkpt lat="47.99104" lon="-3.1326">
        <ele>184.4</ele>
        <time>2022-05-29T12:34:06Z</time>
      </trkpt>
      <trkpt lat="47.99086" lon="-3.13277">
        <ele>183.3</ele>
        <time>2022-05-29T12:34:08Z</time>
      </trkpt>
      <trkpt lat="47.99052" lon="-3.13314">
        <ele>181.2</ele>
        <time>2022-05-29T12:34:12Z</time>
      </trkpt>
      <trkpt lat="47.99029" lon="-3.1333">
        <ele>179.9</ele>
        <time>2022-05-29T12:34:14Z</time>
      </trkpt>
      <trkpt lat="47.99006" lon="-3.13336">
        <ele>177.7</ele>
        <time>2022-05-29T12:34:16Z</time>
      </trkpt>
      <trkpt lat="47.98971" lon="-3.13329">
        <ele>174.5</ele>
        <time>2022-05-29T12:34:19Z</time>
      </trkpt>
      <trkpt lat="47.98938" lon="-3.13312">
        <ele>171.6</ele>
        <time>2022-05-29T12:34:22Z</time>
      </trkpt>
      <trkpt lat="47.9892" lon="-3.13295">
        <ele>169.9</ele>
        <time>2022-05-29T12:34:24Z</time>
      </trkpt>
      <trkpt lat="47.98911" lon="-3.13286">
        <ele>169.6</ele>
        <time>2022-05-29T12:34:25Z</time>
      </trkpt>
      <trkpt lat="47.9887" lon="-3.13232">
        <ele>167.9</ele>
        <time>2022-05-29T12:34:30Z</time>
      </trkpt>
      <trkpt lat="47.98835" lon="-3.1318">
        <ele>166.1</ele>
        <time>2022-05-29T12:34:35Z</time>
      </trkpt>
      <trkpt lat="47.9881" lon="-3.13142">
        <ele>164.9</ele>
        <time>2022-05-29T12:34:39Z</time>
      </trkpt>
      <trkpt lat="47.98804" lon="-3.13133">
        <ele>165</ele>
        <time>2022-05-29T12:34:40Z</time>
      </trkpt>
      <trkpt lat="47.9879" lon="-3.13118">
        <ele>165.2</ele>
        <time>2022-05-29T12:34:42Z</time>
      </trkpt>
      <trkpt lat="47.98783" lon="-3.13113">
        <ele>165.3</ele>
        <time>2022-05-29T12:34:43Z</time>
      </trkpt>
      <trkpt lat="47.98747" lon="-3.13085">
        <ele>166</ele>
        <time>2022-05-29T12:34:49Z</time>
      </trkpt>
      <trkpt lat="47.98742" lon="-3.13081">
        <ele>166.4</ele>
        <time>2022-05-29T12:34:50Z</time>
      </trkpt>
      <trkpt lat="47.98727" lon="-3.13068">
        <ele>168.3</ele>
        <time>2022-05-29T12:34:54Z</time>
      </trkpt>
      <trkpt lat="47.98723" lon="-3.13065">
        <ele>168.5</ele>
        <time>2022-05-29T12:34:55Z</time>
      </trkpt>
      <trkpt lat="47.98716" lon="-3.13063">
        <ele>169</ele>
        <time>2022-05-29T12:34:57Z</time>
      </trkpt>
      <trkpt lat="47.98713" lon="-3.13064">
        <ele>169.3</ele>
        <time>2022-05-29T12:34:58Z</time>
      </trkpt>
      <trkpt lat="47.98688" lon="-3.13055">
        <ele>170.7</ele>
        <time>2022-05-29T12:35:04Z</time>
      </trkpt>
      <trkpt lat="47.98663" lon="-3.13059">
        <ele>170.8</ele>
        <time>2022-05-29T12:35:09Z</time>
      </trkpt>
      <trkpt lat="47.98637" lon="-3.13065">
        <ele>169.1</ele>
        <time>2022-05-29T12:35:14Z</time>
      </trkpt>
      <trkpt lat="47.98592" lon="-3.13088">
        <ele>165.2</ele>
        <time>2022-05-29T12:35:19Z</time>
      </trkpt>
      <trkpt lat="47.9854" lon="-3.13113">
        <ele>159.2</ele>
        <time>2022-05-29T12:35:24Z</time>
      </trkpt>
      <trkpt lat="47.9852" lon="-3.13119">
        <ele>159</ele>
        <time>2022-05-29T12:35:26Z</time>
      </trkpt>
      <trkpt lat="47.98475" lon="-3.13115">
        <ele>158.3</ele>
        <time>2022-05-29T12:35:32Z</time>
      </trkpt>
      <trkpt lat="47.98448" lon="-3.13103">
        <ele>157.9</ele>
        <time>2022-05-29T12:35:36Z</time>
      </trkpt>
      <trkpt lat="47.9844" lon="-3.13098">
        <ele>157.7</ele>
        <time>2022-05-29T12:35:37Z</time>
      </trkpt>
      <trkpt lat="47.98406" lon="-3.13061">
        <ele>157</ele>
        <time>2022-05-29T12:35:41Z</time>
      </trkpt>
      <trkpt lat="47.98387" lon="-3.13021">
        <ele>156.5</ele>
        <time>2022-05-29T12:35:44Z</time>
      </trkpt>
      <trkpt lat="47.98383" lon="-3.13007">
        <ele>156.2</ele>
        <time>2022-05-29T12:35:46Z</time>
      </trkpt>
      <trkpt lat="47.98367" lon="-3.12962">
        <ele>155.5</ele>
        <time>2022-05-29T12:35:50Z</time>
      </trkpt>
      <trkpt lat="47.98366" lon="-3.12948">
        <ele>155.3</ele>
        <time>2022-05-29T12:35:51Z</time>
      </trkpt>
      <trkpt lat="47.98361" lon="-3.12906">
        <ele>154.9</ele>
        <time>2022-05-29T12:35:54Z</time>
      </trkpt>
      <trkpt lat="47.98361" lon="-3.12836">
        <ele>154</ele>
        <time>2022-05-29T12:36:00Z</time>
      </trkpt>
      <trkpt lat="47.98361" lon="-3.12825">
        <ele>154</ele>
        <time>2022-05-29T12:36:01Z</time>
      </trkpt>
      <trkpt lat="47.98362" lon="-3.12772">
        <ele>154.3</ele>
        <time>2022-05-29T12:36:06Z</time>
      </trkpt>
      <trkpt lat="47.98362" lon="-3.12762">
        <ele>154.4</ele>
        <time>2022-05-29T12:36:07Z</time>
      </trkpt>
      <trkpt lat="47.98362" lon="-3.12744">
        <ele>154.5</ele>
        <time>2022-05-29T12:36:09Z</time>
      </trkpt>
      <trkpt lat="47.98364" lon="-3.12676">
        <ele>155.1</ele>
        <time>2022-05-29T12:36:15Z</time>
      </trkpt>
      <trkpt lat="47.98371" lon="-3.12627">
        <ele>155.5</ele>
        <time>2022-05-29T12:36:20Z</time>
      </trkpt>
      <trkpt lat="47.98395" lon="-3.12571">
        <ele>156.5</ele>
        <time>2022-05-29T12:36:31Z</time>
      </trkpt>
      <trkpt lat="47.98414" lon="-3.12538">
        <ele>160</ele>
        <time>2022-05-29T12:36:41Z</time>
      </trkpt>
      <trkpt lat="47.9842" lon="-3.12483">
        <ele>164</ele>
        <time>2022-05-29T12:36:56Z</time>
      </trkpt>
      <trkpt lat="47.98421" lon="-3.12472">
        <ele>164.8</ele>
        <time>2022-05-29T12:36:59Z</time>
      </trkpt>
      <trkpt lat="47.98425" lon="-3.12427">
        <ele>167.8</ele>
        <time>2022-05-29T12:37:11Z</time>
      </trkpt>
      <trkpt lat="47.98427" lon="-3.12408">
        <ele>169</ele>
        <time>2022-05-29T12:37:16Z</time>
      </trkpt>
      <trkpt lat="47.98427" lon="-3.12405">
        <ele>169.2</ele>
        <time>2022-05-29T12:37:17Z</time>
      </trkpt>
      <trkpt lat="47.98429" lon="-3.12394">
        <ele>170.1</ele>
        <time>2022-05-29T12:37:21Z</time>
      </trkpt>
      <trkpt lat="47.98431" lon="-3.1238">
        <ele>171.6</ele>
        <time>2022-05-29T12:37:26Z</time>
      </trkpt>
      <trkpt lat="47.98437" lon="-3.12347">
        <ele>174.6</ele>
        <time>2022-05-29T12:37:38Z</time>
      </trkpt>
      <trkpt lat="47.98439" lon="-3.12339">
        <ele>175.3</ele>
        <time>2022-05-29T12:37:41Z</time>
      </trkpt>
      <trkpt lat="47.98444" lon="-3.12304">
        <ele>178.2</ele>
        <time>2022-05-29T12:37:53Z</time>
      </trkpt>
      <trkpt lat="47.98447" lon="-3.12287">
        <ele>179.5</ele>
        <time>2022-05-29T12:37:59Z</time>
      </trkpt>
      <trkpt lat="47.98451" lon="-3.12272">
        <ele>180.9</ele>
        <time>2022-05-29T12:38:05Z</time>
      </trkpt>
      <trkpt lat="47.98451" lon="-3.12264">
        <ele>181.5</ele>
        <time>2022-05-29T12:38:08Z</time>
      </trkpt>
      <trkpt lat="47.98454" lon="-3.12228">
        <ele>184.6</ele>
        <time>2022-05-29T12:38:21Z</time>
      </trkpt>
      <trkpt lat="47.98454" lon="-3.12222">
        <ele>185.1</ele>
        <time>2022-05-29T12:38:23Z</time>
      </trkpt>
      <trkpt lat="47.98453" lon="-3.12208">
        <ele>186.4</ele>
        <time>2022-05-29T12:38:28Z</time>
      </trkpt>
      <trkpt lat="47.98453" lon="-3.12195">
        <ele>187.3</ele>
        <time>2022-05-29T12:38:33Z</time>
      </trkpt>
      <trkpt lat="47.98453" lon="-3.12177">
        <ele>188.9</ele>
        <time>2022-05-29T12:38:39Z</time>
      </trkpt>
      <trkpt lat="47.98449" lon="-3.12162">
        <ele>189.8</ele>
        <time>2022-05-29T12:38:43Z</time>
      </trkpt>
      <trkpt lat="47.98447" lon="-3.12158">
        <ele>189.9</ele>
        <time>2022-05-29T12:38:44Z</time>
      </trkpt>
      <trkpt lat="47.98437" lon="-3.12144">
        <ele>190.4</ele>
        <time>2022-05-29T12:38:48Z</time>
      </trkpt>
      <trkpt lat="47.98424" lon="-3.12125">
        <ele>190.5</ele>
        <time>2022-05-29T12:38:53Z</time>
      </trkpt>
      <trkpt lat="47.98413" lon="-3.1211">
        <ele>188.8</ele>
        <time>2022-05-29T12:38:57Z</time>
      </trkpt>
      <trkpt lat="47.98391" lon="-3.12077">
        <ele>186.1</ele>
        <time>2022-05-29T12:39:03Z</time>
      </trkpt>
      <trkpt lat="47.98388" lon="-3.12068">
        <ele>185.2</ele>
        <time>2022-05-29T12:39:04Z</time>
      </trkpt>
      <trkpt lat="47.98386" lon="-3.12033">
        <ele>181.3</ele>
        <time>2022-05-29T12:39:08Z</time>
      </trkpt>
      <trkpt lat="47.98381" lon="-3.12007">
        <ele>177</ele>
        <time>2022-05-29T12:39:11Z</time>
      </trkpt>
      <trkpt lat="47.9836" lon="-3.11999">
        <ele>174.4</ele>
        <time>2022-05-29T12:39:13Z</time>
      </trkpt>
      <trkpt lat="47.98307" lon="-3.1201">
        <ele>169.8</ele>
        <time>2022-05-29T12:39:18Z</time>
      </trkpt>
      <trkpt lat="47.98278" lon="-3.12015">
        <ele>166.3</ele>
        <time>2022-05-29T12:39:21Z</time>
      </trkpt>
      <trkpt lat="47.98258" lon="-3.12007">
        <ele>164</ele>
        <time>2022-05-29T12:39:23Z</time>
      </trkpt>
      <trkpt lat="47.98239" lon="-3.11997">
        <ele>161.9</ele>
        <time>2022-05-29T12:39:25Z</time>
      </trkpt>
      <trkpt lat="47.98215" lon="-3.11969">
        <ele>158.8</ele>
        <time>2022-05-29T12:39:28Z</time>
      </trkpt>
      <trkpt lat="47.98198" lon="-3.1195">
        <ele>157.8</ele>
        <time>2022-05-29T12:39:30Z</time>
      </trkpt>
      <trkpt lat="47.98166" lon="-3.11913">
        <ele>155.8</ele>
        <time>2022-05-29T12:39:34Z</time>
      </trkpt>
      <trkpt lat="47.98158" lon="-3.11904">
        <ele>155.5</ele>
        <time>2022-05-29T12:39:35Z</time>
      </trkpt>
      <trkpt lat="47.98117" lon="-3.11867">
        <ele>153.9</ele>
        <time>2022-05-29T12:39:40Z</time>
      </trkpt>
      <trkpt lat="47.98076" lon="-3.11832">
        <ele>152.5</ele>
        <time>2022-05-29T12:39:45Z</time>
      </trkpt>
      <trkpt lat="47.98039" lon="-3.11798">
        <ele>151.7</ele>
        <time>2022-05-29T12:39:50Z</time>
      </trkpt>
      <trkpt lat="47.98032" lon="-3.11791">
        <ele>151.6</ele>
        <time>2022-05-29T12:39:51Z</time>
      </trkpt>
      <trkpt lat="47.98003" lon="-3.11768">
        <ele>151.3</ele>
        <time>2022-05-29T12:39:55Z</time>
      </trkpt>
      <trkpt lat="47.97995" lon="-3.11763">
        <ele>151.3</ele>
        <time>2022-05-29T12:39:56Z</time>
      </trkpt>
      <trkpt lat="47.97943" lon="-3.11744">
        <ele>150.9</ele>
        <time>2022-05-29T12:40:02Z</time>
      </trkpt>
      <trkpt lat="47.97936" lon="-3.11743">
        <ele>150.9</ele>
        <time>2022-05-29T12:40:03Z</time>
      </trkpt>
      <trkpt lat="47.97919" lon="-3.11738">
        <ele>150.7</ele>
        <time>2022-05-29T12:40:06Z</time>
      </trkpt>
      <trkpt lat="47.9791" lon="-3.11709">
        <ele>150.6</ele>
        <time>2022-05-29T12:40:08Z</time>
      </trkpt>
      <trkpt lat="47.97924" lon="-3.11637">
        <ele>150.1</ele>
        <time>2022-05-29T12:40:16Z</time>
      </trkpt>
      <trkpt lat="47.97933" lon="-3.11601">
        <ele>149.9</ele>
        <time>2022-05-29T12:40:20Z</time>
      </trkpt>
      <trkpt lat="47.97929" lon="-3.11585">
        <ele>149.7</ele>
        <time>2022-05-29T12:40:23Z</time>
      </trkpt>
      <trkpt lat="47.97882" lon="-3.11555">
        <ele>149.4</ele>
        <time>2022-05-29T12:40:29Z</time>
      </trkpt>
      <trkpt lat="47.97832" lon="-3.11528">
        <ele>149</ele>
        <time>2022-05-29T12:40:36Z</time>
      </trkpt>
      <trkpt lat="47.9779" lon="-3.11502">
        <ele>148.6</ele>
        <time>2022-05-29T12:40:42Z</time>
      </trkpt>
      <trkpt lat="47.97748" lon="-3.11471">
        <ele>148.3</ele>
        <time>2022-05-29T12:40:48Z</time>
      </trkpt>
      <trkpt lat="47.97735" lon="-3.1146">
        <ele>148.2</ele>
        <time>2022-05-29T12:40:50Z</time>
      </trkpt>
      <trkpt lat="47.97709" lon="-3.11438">
        <ele>148.3</ele>
        <time>2022-05-29T12:40:54Z</time>
      </trkpt>
      <trkpt lat="47.9767" lon="-3.1141">
        <ele>148.4</ele>
        <time>2022-05-29T12:41:00Z</time>
      </trkpt>
      <trkpt lat="47.97657" lon="-3.11394">
        <ele>148.5</ele>
        <time>2022-05-29T12:41:03Z</time>
      </trkpt>
      <trkpt lat="47.97644" lon="-3.11381">
        <ele>148.5</ele>
        <time>2022-05-29T12:41:06Z</time>
      </trkpt>
      <trkpt lat="47.97628" lon="-3.11317">
        <ele>148.6</ele>
        <time>2022-05-29T12:41:13Z</time>
      </trkpt>
      <trkpt lat="47.97611" lon="-3.11248">
        <ele>148.8</ele>
        <time>2022-05-29T12:41:21Z</time>
      </trkpt>
      <trkpt lat="47.97603" lon="-3.11214">
        <ele>148.9</ele>
        <time>2022-05-29T12:41:25Z</time>
      </trkpt>
      <trkpt lat="47.97594" lon="-3.1118">
        <ele>149.8</ele>
        <time>2022-05-29T12:41:29Z</time>
      </trkpt>
      <trkpt lat="47.97581" lon="-3.11128">
        <ele>151.3</ele>
        <time>2022-05-29T12:41:36Z</time>
      </trkpt>
      <trkpt lat="47.97579" lon="-3.11122">
        <ele>151.5</ele>
        <time>2022-05-29T12:41:37Z</time>
      </trkpt>
      <trkpt lat="47.97563" lon="-3.11064">
        <ele>153.6</ele>
        <time>2022-05-29T12:41:47Z</time>
      </trkpt>
      <trkpt lat="47.97562" lon="-3.11058">
        <ele>153.8</ele>
        <time>2022-05-29T12:41:48Z</time>
      </trkpt>
      <trkpt lat="47.97554" lon="-3.11027">
        <ele>154.7</ele>
        <time>2022-05-29T12:41:53Z</time>
      </trkpt>
      <trkpt lat="47.97545" lon="-3.1099">
        <ele>155.4</ele>
        <time>2022-05-29T12:41:59Z</time>
      </trkpt>
      <trkpt lat="47.97539" lon="-3.10962">
        <ele>155.9</ele>
        <time>2022-05-29T12:42:03Z</time>
      </trkpt>
      <trkpt lat="47.97536" lon="-3.10948">
        <ele>156.1</ele>
        <time>2022-05-29T12:42:05Z</time>
      </trkpt>
      <trkpt lat="47.97518" lon="-3.10883">
        <ele>156.8</ele>
        <time>2022-05-29T12:42:14Z</time>
      </trkpt>
      <trkpt lat="47.97503" lon="-3.10819">
        <ele>157.6</ele>
        <time>2022-05-29T12:42:23Z</time>
      </trkpt>
      <trkpt lat="47.97487" lon="-3.10752">
        <ele>158.4</ele>
        <time>2022-05-29T12:42:32Z</time>
      </trkpt>
      <trkpt lat="47.97481" lon="-3.10721">
        <ele>158.7</ele>
        <time>2022-05-29T12:42:36Z</time>
      </trkpt>
      <trkpt lat="47.97478" lon="-3.1068">
        <ele>159.2</ele>
        <time>2022-05-29T12:42:41Z</time>
      </trkpt>
      <trkpt lat="47.9748" lon="-3.1067">
        <ele>159.4</ele>
        <time>2022-05-29T12:42:43Z</time>
      </trkpt>
      <trkpt lat="47.97485" lon="-3.10644">
        <ele>161.1</ele>
        <time>2022-05-29T12:42:48Z</time>
      </trkpt>
      <trkpt lat="47.9749" lon="-3.10619">
        <ele>162.8</ele>
        <time>2022-05-29T12:42:53Z</time>
      </trkpt>
      <trkpt lat="47.97491" lon="-3.10614">
        <ele>163.1</ele>
        <time>2022-05-29T12:42:54Z</time>
      </trkpt>
      <trkpt lat="47.9751" lon="-3.10563">
        <ele>166.6</ele>
        <time>2022-05-29T12:43:07Z</time>
      </trkpt>
      <trkpt lat="47.97512" lon="-3.1056">
        <ele>166.8</ele>
        <time>2022-05-29T12:43:08Z</time>
      </trkpt>
      <trkpt lat="47.97514" lon="-3.10556">
        <ele>167</ele>
        <time>2022-05-29T12:43:09Z</time>
      </trkpt>
      <trkpt lat="47.97519" lon="-3.10542">
        <ele>167.9</ele>
        <time>2022-05-29T12:43:13Z</time>
      </trkpt>
      <trkpt lat="47.97532" lon="-3.10503">
        <ele>170.3</ele>
        <time>2022-05-29T12:43:24Z</time>
      </trkpt>
      <trkpt lat="47.97531" lon="-3.10496">
        <ele>170.8</ele>
        <time>2022-05-29T12:43:26Z</time>
      </trkpt>
      <trkpt lat="47.97531" lon="-3.10494">
        <ele>171</ele>
        <time>2022-05-29T12:43:27Z</time>
      </trkpt>
      <trkpt lat="47.97527" lon="-3.10491">
        <ele>171.1</ele>
        <time>2022-05-29T12:43:28Z</time>
      </trkpt>
      <trkpt lat="47.97487" lon="-3.10462">
        <ele>171</ele>
        <time>2022-05-29T12:43:38Z</time>
      </trkpt>
      <trkpt lat="47.97463" lon="-3.10445">
        <ele>169.7</ele>
        <time>2022-05-29T12:43:43Z</time>
      </trkpt>
      <trkpt lat="47.97443" lon="-3.10431">
        <ele>169.6</ele>
        <time>2022-05-29T12:43:47Z</time>
      </trkpt>
      <trkpt lat="47.97402" lon="-3.10406">
        <ele>169.3</ele>
        <time>2022-05-29T12:43:54Z</time>
      </trkpt>
      <trkpt lat="47.97396" lon="-3.10403">
        <ele>169.2</ele>
        <time>2022-05-29T12:43:55Z</time>
      </trkpt>
      <trkpt lat="47.97352" lon="-3.10383">
        <ele>168.4</ele>
        <time>2022-05-29T12:44:02Z</time>
      </trkpt>
      <trkpt lat="47.97321" lon="-3.10363">
        <ele>167.8</ele>
        <time>2022-05-29T12:44:07Z</time>
      </trkpt>
      <trkpt lat="47.97284" lon="-3.10321">
        <ele>167.1</ele>
        <time>2022-05-29T12:44:14Z</time>
      </trkpt>
      <trkpt lat="47.97276" lon="-3.10318">
        <ele>166.9</ele>
        <time>2022-05-29T12:44:15Z</time>
      </trkpt>
      <trkpt lat="47.97237" lon="-3.103">
        <ele>165.5</ele>
        <time>2022-05-29T12:44:20Z</time>
      </trkpt>
      <trkpt lat="47.97187" lon="-3.10284">
        <ele>163.6</ele>
        <time>2022-05-29T12:44:26Z</time>
      </trkpt>
      <trkpt lat="47.97151" lon="-3.10273">
        <ele>162.2</ele>
        <time>2022-05-29T12:44:30Z</time>
      </trkpt>
      <trkpt lat="47.97141" lon="-3.1027">
        <ele>161.7</ele>
        <time>2022-05-29T12:44:31Z</time>
      </trkpt>
      <trkpt lat="47.97111" lon="-3.10262">
        <ele>160.2</ele>
        <time>2022-05-29T12:44:34Z</time>
      </trkpt>
      <trkpt lat="47.97065" lon="-3.10247">
        <ele>157.4</ele>
        <time>2022-05-29T12:44:40Z</time>
      </trkpt>
      <trkpt lat="47.97065" lon="-3.10223">
        <ele>157.2</ele>
        <time>2022-05-29T12:44:41Z</time>
      </trkpt>
      <trkpt lat="47.97075" lon="-3.10152">
        <ele>156.1</ele>
        <time>2022-05-29T12:44:48Z</time>
      </trkpt>
      <trkpt lat="47.97077" lon="-3.10139">
        <ele>155.9</ele>
        <time>2022-05-29T12:44:50Z</time>
      </trkpt>
      <trkpt lat="47.97082" lon="-3.10107">
        <ele>157.5</ele>
        <time>2022-05-29T12:44:55Z</time>
      </trkpt>
      <trkpt lat="47.97086" lon="-3.10081">
        <ele>158.3</ele>
        <time>2022-05-29T12:44:59Z</time>
      </trkpt>
      <trkpt lat="47.97087" lon="-3.10073">
        <ele>158.5</ele>
        <time>2022-05-29T12:45:00Z</time>
      </trkpt>
      <trkpt lat="47.97091" lon="-3.10037">
        <ele>159</ele>
        <time>2022-05-29T12:45:05Z</time>
      </trkpt>
      <trkpt lat="47.97094" lon="-3.10014">
        <ele>158.6</ele>
        <time>2022-05-29T12:45:08Z</time>
      </trkpt>
      <trkpt lat="47.97096" lon="-3.09995">
        <ele>158.3</ele>
        <time>2022-05-29T12:45:10Z</time>
      </trkpt>
      <trkpt lat="47.97102" lon="-3.09949">
        <ele>157.8</ele>
        <time>2022-05-29T12:45:15Z</time>
      </trkpt>
      <trkpt lat="47.97103" lon="-3.09941">
        <ele>157.8</ele>
        <time>2022-05-29T12:45:16Z</time>
      </trkpt>
      <trkpt lat="47.97107" lon="-3.09914">
        <ele>158.2</ele>
        <time>2022-05-29T12:45:20Z</time>
      </trkpt>
      <trkpt lat="47.97113" lon="-3.09881">
        <ele>160.1</ele>
        <time>2022-05-29T12:45:25Z</time>
      </trkpt>
      <trkpt lat="47.97114" lon="-3.09875">
        <ele>160.4</ele>
        <time>2022-05-29T12:45:26Z</time>
      </trkpt>
      <trkpt lat="47.97117" lon="-3.0985">
        <ele>161.4</ele>
        <time>2022-05-29T12:45:30Z</time>
      </trkpt>
      <trkpt lat="47.97122" lon="-3.0982">
        <ele>162.3</ele>
        <time>2022-05-29T12:45:35Z</time>
      </trkpt>
      <trkpt lat="47.97124" lon="-3.09808">
        <ele>162.3</ele>
        <time>2022-05-29T12:45:37Z</time>
      </trkpt>
      <trkpt lat="47.97133" lon="-3.09746">
        <ele>162.4</ele>
        <time>2022-05-29T12:45:45Z</time>
      </trkpt>
      <trkpt lat="47.97134" lon="-3.09739">
        <ele>162.6</ele>
        <time>2022-05-29T12:45:46Z</time>
      </trkpt>
      <trkpt lat="47.97144" lon="-3.0968">
        <ele>163.7</ele>
        <time>2022-05-29T12:45:54Z</time>
      </trkpt>
      <trkpt lat="47.97147" lon="-3.09667">
        <ele>163.9</ele>
        <time>2022-05-29T12:45:56Z</time>
      </trkpt>
      <trkpt lat="47.97146" lon="-3.09635">
        <ele>164.6</ele>
        <time>2022-05-29T12:46:01Z</time>
      </trkpt>
      <trkpt lat="47.97143" lon="-3.09597">
        <ele>165.3</ele>
        <time>2022-05-29T12:46:07Z</time>
      </trkpt>
      <trkpt lat="47.97131" lon="-3.09528">
        <ele>166.2</ele>
        <time>2022-05-29T12:46:16Z</time>
      </trkpt>
      <trkpt lat="47.97114" lon="-3.09459">
        <ele>164.8</ele>
        <time>2022-05-29T12:46:23Z</time>
      </trkpt>
      <trkpt lat="47.971" lon="-3.09426">
        <ele>164.1</ele>
        <time>2022-05-29T12:46:26Z</time>
      </trkpt>
      <trkpt lat="47.97086" lon="-3.09393">
        <ele>162.6</ele>
        <time>2022-05-29T12:46:29Z</time>
      </trkpt>
      <trkpt lat="47.97075" lon="-3.09369">
        <ele>161.6</ele>
        <time>2022-05-29T12:46:31Z</time>
      </trkpt>
      <trkpt lat="47.97057" lon="-3.09332">
        <ele>160.1</ele>
        <time>2022-05-29T12:46:34Z</time>
      </trkpt>
      <trkpt lat="47.97029" lon="-3.09271">
        <ele>157.4</ele>
        <time>2022-05-29T12:46:39Z</time>
      </trkpt>
      <trkpt lat="47.97017" lon="-3.09246">
        <ele>156.4</ele>
        <time>2022-05-29T12:46:41Z</time>
      </trkpt>
      <trkpt lat="47.96998" lon="-3.09208">
        <ele>154.7</ele>
        <time>2022-05-29T12:46:44Z</time>
      </trkpt>
      <trkpt lat="47.96967" lon="-3.09143">
        <ele>151.9</ele>
        <time>2022-05-29T12:46:49Z</time>
      </trkpt>
      <trkpt lat="47.96955" lon="-3.09117">
        <ele>151.1</ele>
        <time>2022-05-29T12:46:51Z</time>
      </trkpt>
      <trkpt lat="47.96937" lon="-3.0908">
        <ele>151.7</ele>
        <time>2022-05-29T12:46:54Z</time>
      </trkpt>
      <trkpt lat="47.9692" lon="-3.09053">
        <ele>152.5</ele>
        <time>2022-05-29T12:46:58Z</time>
      </trkpt>
      <trkpt lat="47.96912" lon="-3.09036">
        <ele>153.3</ele>
        <time>2022-05-29T12:47:01Z</time>
      </trkpt>
      <trkpt lat="47.96899" lon="-3.09008">
        <ele>155.6</ele>
        <time>2022-05-29T12:47:06Z</time>
      </trkpt>
      <trkpt lat="47.96893" lon="-3.08997">
        <ele>156.1</ele>
        <time>2022-05-29T12:47:08Z</time>
      </trkpt>
      <trkpt lat="47.96876" lon="-3.08961">
        <ele>158</ele>
        <time>2022-05-29T12:47:16Z</time>
      </trkpt>
      <trkpt lat="47.96867" lon="-3.08942">
        <ele>158.4</ele>
        <time>2022-05-29T12:47:20Z</time>
      </trkpt>
      <trkpt lat="47.96855" lon="-3.08908">
        <ele>159</ele>
        <time>2022-05-29T12:47:26Z</time>
      </trkpt>
      <trkpt lat="47.96853" lon="-3.08902">
        <ele>158.9</ele>
        <time>2022-05-29T12:47:27Z</time>
      </trkpt>
      <trkpt lat="47.96845" lon="-3.08889">
        <ele>158.7</ele>
        <time>2022-05-29T12:47:29Z</time>
      </trkpt>
      <trkpt lat="47.96831" lon="-3.08819">
        <ele>157.7</ele>
        <time>2022-05-29T12:47:37Z</time>
      </trkpt>
      <trkpt lat="47.96821" lon="-3.08751">
        <ele>156.8</ele>
        <time>2022-05-29T12:47:44Z</time>
      </trkpt>
      <trkpt lat="47.96819" lon="-3.0873">
        <ele>156.6</ele>
        <time>2022-05-29T12:47:46Z</time>
      </trkpt>
      <trkpt lat="47.96813" lon="-3.0868">
        <ele>157</ele>
        <time>2022-05-29T12:47:51Z</time>
      </trkpt>
      <trkpt lat="47.96809" lon="-3.08647">
        <ele>157.5</ele>
        <time>2022-05-29T12:47:56Z</time>
      </trkpt>
      <trkpt lat="47.96805" lon="-3.08614">
        <ele>159.5</ele>
        <time>2022-05-29T12:48:01Z</time>
      </trkpt>
      <trkpt lat="47.96804" lon="-3.08608">
        <ele>159.8</ele>
        <time>2022-05-29T12:48:02Z</time>
      </trkpt>
      <trkpt lat="47.96801" lon="-3.08578">
        <ele>160.8</ele>
        <time>2022-05-29T12:48:07Z</time>
      </trkpt>
      <trkpt lat="47.96796" lon="-3.08545">
        <ele>162.1</ele>
        <time>2022-05-29T12:48:13Z</time>
      </trkpt>
      <trkpt lat="47.96791" lon="-3.08512">
        <ele>163.9</ele>
        <time>2022-05-29T12:48:19Z</time>
      </trkpt>
      <trkpt lat="47.96785" lon="-3.08492">
        <ele>165</ele>
        <time>2022-05-29T12:48:23Z</time>
      </trkpt>
      <trkpt lat="47.96779" lon="-3.08484">
        <ele>165.3</ele>
        <time>2022-05-29T12:48:24Z</time>
      </trkpt>
      <trkpt lat="47.96739" lon="-3.08476">
        <ele>168.8</ele>
        <time>2022-05-29T12:48:38Z</time>
      </trkpt>
      <trkpt lat="47.96733" lon="-3.08475">
        <ele>169.3</ele>
        <time>2022-05-29T12:48:40Z</time>
      </trkpt>
      <trkpt lat="47.96701" lon="-3.08458">
        <ele>172</ele>
        <time>2022-05-29T12:48:52Z</time>
      </trkpt>
      <trkpt lat="47.96699" lon="-3.08455">
        <ele>172.2</ele>
        <time>2022-05-29T12:48:53Z</time>
      </trkpt>
      <trkpt lat="47.96679" lon="-3.08426">
        <ele>175</ele>
        <time>2022-05-29T12:49:03Z</time>
      </trkpt>
      <trkpt lat="47.9667" lon="-3.08412">
        <ele>176.2</ele>
        <time>2022-05-29T12:49:08Z</time>
      </trkpt>
      <trkpt lat="47.96661" lon="-3.08396">
        <ele>177.8</ele>
        <time>2022-05-29T12:49:14Z</time>
      </trkpt>
      <trkpt lat="47.96659" lon="-3.08394">
        <ele>178</ele>
        <time>2022-05-29T12:49:15Z</time>
      </trkpt>
      <trkpt lat="47.96655" lon="-3.08387">
        <ele>178.8</ele>
        <time>2022-05-29T12:49:18Z</time>
      </trkpt>
      <trkpt lat="47.96646" lon="-3.08376">
        <ele>180.6</ele>
        <time>2022-05-29T12:49:23Z</time>
      </trkpt>
      <trkpt lat="47.96642" lon="-3.0837">
        <ele>181.3</ele>
        <time>2022-05-29T12:49:26Z</time>
      </trkpt>
      <trkpt lat="47.96633" lon="-3.08354">
        <ele>182.8</ele>
        <time>2022-05-29T12:49:33Z</time>
      </trkpt>
      <trkpt lat="47.96627" lon="-3.08343">
        <ele>184.2</ele>
        <time>2022-05-29T12:49:38Z</time>
      </trkpt>
      <trkpt lat="47.96613" lon="-3.08318">
        <ele>186.9</ele>
        <time>2022-05-29T12:49:49Z</time>
      </trkpt>
      <trkpt lat="47.96607" lon="-3.08308">
        <ele>187.9</ele>
        <time>2022-05-29T12:49:53Z</time>
      </trkpt>
      <trkpt lat="47.96593" lon="-3.08283">
        <ele>190.7</ele>
        <time>2022-05-29T12:50:03Z</time>
      </trkpt>
      <trkpt lat="47.96588" lon="-3.08276">
        <ele>191.3</ele>
        <time>2022-05-29T12:50:06Z</time>
      </trkpt>
      <trkpt lat="47.96583" lon="-3.08269">
        <ele>192</ele>
        <time>2022-05-29T12:50:09Z</time>
      </trkpt>
      <trkpt lat="47.96581" lon="-3.08266">
        <ele>192.2</ele>
        <time>2022-05-29T12:50:10Z</time>
      </trkpt>
      <trkpt lat="47.96563" lon="-3.08205">
        <ele>195.4</ele>
        <time>2022-05-29T12:50:25Z</time>
      </trkpt>
      <trkpt lat="47.96562" lon="-3.082">
        <ele>195.4</ele>
        <time>2022-05-29T12:50:26Z</time>
      </trkpt>
      <trkpt lat="47.96556" lon="-3.08177">
        <ele>195.7</ele>
        <time>2022-05-29T12:50:30Z</time>
      </trkpt>
      <trkpt lat="47.96546" lon="-3.08136">
        <ele>195.2</ele>
        <time>2022-05-29T12:50:37Z</time>
      </trkpt>
      <trkpt lat="47.96534" lon="-3.08066">
        <ele>194.6</ele>
        <time>2022-05-29T12:50:45Z</time>
      </trkpt>
      <trkpt lat="47.96531" lon="-3.08014">
        <ele>194.3</ele>
        <time>2022-05-29T12:50:50Z</time>
      </trkpt>
      <trkpt lat="47.96529" lon="-3.07994">
        <ele>194.1</ele>
        <time>2022-05-29T12:50:52Z</time>
      </trkpt>
      <trkpt lat="47.96525" lon="-3.07923">
        <ele>193.6</ele>
        <time>2022-05-29T12:50:59Z</time>
      </trkpt>
      <trkpt lat="47.96526" lon="-3.07871">
        <ele>193.1</ele>
        <time>2022-05-29T12:51:05Z</time>
      </trkpt>
      <trkpt lat="47.96526" lon="-3.07853">
        <ele>193</ele>
        <time>2022-05-29T12:51:07Z</time>
      </trkpt>
      <trkpt lat="47.96525" lon="-3.07784">
        <ele>192.7</ele>
        <time>2022-05-29T12:51:15Z</time>
      </trkpt>
      <trkpt lat="47.96517" lon="-3.07712">
        <ele>192.4</ele>
        <time>2022-05-29T12:51:23Z</time>
      </trkpt>
      <trkpt lat="47.96489" lon="-3.07656">
        <ele>192.2</ele>
        <time>2022-05-29T12:51:31Z</time>
      </trkpt>
      <trkpt lat="47.96471" lon="-3.07628">
        <ele>192</ele>
        <time>2022-05-29T12:51:35Z</time>
      </trkpt>
      <trkpt lat="47.96457" lon="-3.07607">
        <ele>191.3</ele>
        <time>2022-05-29T12:51:38Z</time>
      </trkpt>
      <trkpt lat="47.96448" lon="-3.07591">
        <ele>190.8</ele>
        <time>2022-05-29T12:51:40Z</time>
      </trkpt>
      <trkpt lat="47.96443" lon="-3.07583">
        <ele>190.5</ele>
        <time>2022-05-29T12:51:41Z</time>
      </trkpt>
      <trkpt lat="47.96412" lon="-3.07526">
        <ele>188.4</ele>
        <time>2022-05-29T12:51:48Z</time>
      </trkpt>
      <trkpt lat="47.96408" lon="-3.07472">
        <ele>187.2</ele>
        <time>2022-05-29T12:51:52Z</time>
      </trkpt>
      <trkpt lat="47.96413" lon="-3.07429">
        <ele>186.2</ele>
        <time>2022-05-29T12:51:55Z</time>
      </trkpt>
      <trkpt lat="47.96416" lon="-3.07401">
        <ele>185.4</ele>
        <time>2022-05-29T12:51:57Z</time>
      </trkpt>
      <trkpt lat="47.9643" lon="-3.07334">
        <ele>183.3</ele>
        <time>2022-05-29T12:52:02Z</time>
      </trkpt>
      <trkpt lat="47.96437" lon="-3.073">
        <ele>182.2</ele>
        <time>2022-05-29T12:52:05Z</time>
      </trkpt>
      <trkpt lat="47.96434" lon="-3.0728">
        <ele>181.3</ele>
        <time>2022-05-29T12:52:08Z</time>
      </trkpt>
      <trkpt lat="47.9643" lon="-3.07279">
        <ele>181</ele>
        <time>2022-05-29T12:52:09Z</time>
      </trkpt>
      <trkpt lat="47.96399" lon="-3.07298">
        <ele>179</ele>
        <time>2022-05-29T12:52:16Z</time>
      </trkpt>
      <trkpt lat="47.96385" lon="-3.07308">
        <ele>178.8</ele>
        <time>2022-05-29T12:52:19Z</time>
      </trkpt>
      <trkpt lat="47.96376" lon="-3.07322">
        <ele>178.7</ele>
        <time>2022-05-29T12:52:21Z</time>
      </trkpt>
      <trkpt lat="47.96353" lon="-3.07358">
        <ele>177.9</ele>
        <time>2022-05-29T12:52:26Z</time>
      </trkpt>
      <trkpt lat="47.96324" lon="-3.0741">
        <ele>176.9</ele>
        <time>2022-05-29T12:52:32Z</time>
      </trkpt>
      <trkpt lat="47.96305" lon="-3.07448">
        <ele>176.2</ele>
        <time>2022-05-29T12:52:36Z</time>
      </trkpt>
      <trkpt lat="47.96295" lon="-3.07468">
        <ele>175.7</ele>
        <time>2022-05-29T12:52:38Z</time>
      </trkpt>
      <trkpt lat="47.96268" lon="-3.07523">
        <ele>174.5</ele>
        <time>2022-05-29T12:52:43Z</time>
      </trkpt>
      <trkpt lat="47.9624" lon="-3.0758">
        <ele>173.3</ele>
        <time>2022-05-29T12:52:48Z</time>
      </trkpt>
      <trkpt lat="47.96223" lon="-3.07613">
        <ele>172.6</ele>
        <time>2022-05-29T12:52:51Z</time>
      </trkpt>
      <trkpt lat="47.96212" lon="-3.07634">
        <ele>172.7</ele>
        <time>2022-05-29T12:52:53Z</time>
      </trkpt>
      <trkpt lat="47.96198" lon="-3.07661">
        <ele>172.8</ele>
        <time>2022-05-29T12:52:56Z</time>
      </trkpt>
      <trkpt lat="47.96182" lon="-3.07687">
        <ele>173.3</ele>
        <time>2022-05-29T12:52:59Z</time>
      </trkpt>
      <trkpt lat="47.96171" lon="-3.07697">
        <ele>173.4</ele>
        <time>2022-05-29T12:53:01Z</time>
      </trkpt>
      <trkpt lat="47.96147" lon="-3.07719">
        <ele>172.9</ele>
        <time>2022-05-29T12:53:05Z</time>
      </trkpt>
      <trkpt lat="47.96102" lon="-3.07739">
        <ele>171.9</ele>
        <time>2022-05-29T12:53:11Z</time>
      </trkpt>
      <trkpt lat="47.96055" lon="-3.07753">
        <ele>169.7</ele>
        <time>2022-05-29T12:53:16Z</time>
      </trkpt>
      <trkpt lat="47.96002" lon="-3.0777">
        <ele>166.9</ele>
        <time>2022-05-29T12:53:21Z</time>
      </trkpt>
      <trkpt lat="47.95958" lon="-3.07776">
        <ele>164.7</ele>
        <time>2022-05-29T12:53:25Z</time>
      </trkpt>
      <trkpt lat="47.95946" lon="-3.07771">
        <ele>164.2</ele>
        <time>2022-05-29T12:53:26Z</time>
      </trkpt>
      <trkpt lat="47.95934" lon="-3.07768">
        <ele>163.6</ele>
        <time>2022-05-29T12:53:27Z</time>
      </trkpt>
      <trkpt lat="47.95923" lon="-3.07765">
        <ele>163</ele>
        <time>2022-05-29T12:53:28Z</time>
      </trkpt>
      <trkpt lat="47.95911" lon="-3.07761">
        <ele>162.4</ele>
        <time>2022-05-29T12:53:29Z</time>
      </trkpt>
      <trkpt lat="47.95887" lon="-3.07757">
        <ele>161.2</ele>
        <time>2022-05-29T12:53:31Z</time>
      </trkpt>
      <trkpt lat="47.95842" lon="-3.07755">
        <ele>158.8</ele>
        <time>2022-05-29T12:53:35Z</time>
      </trkpt>
      <trkpt lat="47.9583" lon="-3.07754">
        <ele>158.1</ele>
        <time>2022-05-29T12:53:36Z</time>
      </trkpt>
      <trkpt lat="47.95795" lon="-3.0775">
        <ele>156</ele>
        <time>2022-05-29T12:53:39Z</time>
      </trkpt>
      <trkpt lat="47.95771" lon="-3.07744">
        <ele>154.7</ele>
        <time>2022-05-29T12:53:41Z</time>
      </trkpt>
      <trkpt lat="47.95747" lon="-3.07737">
        <ele>153.3</ele>
        <time>2022-05-29T12:53:43Z</time>
      </trkpt>
      <trkpt lat="47.95712" lon="-3.07726">
        <ele>151.2</ele>
        <time>2022-05-29T12:53:46Z</time>
      </trkpt>
      <trkpt lat="47.957" lon="-3.07723">
        <ele>150.5</ele>
        <time>2022-05-29T12:53:47Z</time>
      </trkpt>
      <trkpt lat="47.95661" lon="-3.07723">
        <ele>148.6</ele>
        <time>2022-05-29T12:53:50Z</time>
      </trkpt>
      <trkpt lat="47.95609" lon="-3.07736">
        <ele>145.9</ele>
        <time>2022-05-29T12:53:54Z</time>
      </trkpt>
      <trkpt lat="47.95584" lon="-3.07742">
        <ele>144.9</ele>
        <time>2022-05-29T12:53:56Z</time>
      </trkpt>
      <trkpt lat="47.95573" lon="-3.07739">
        <ele>145.1</ele>
        <time>2022-05-29T12:53:57Z</time>
      </trkpt>
      <trkpt lat="47.95563" lon="-3.07729">
        <ele>145.3</ele>
        <time>2022-05-29T12:53:58Z</time>
      </trkpt>
      <trkpt lat="47.95548" lon="-3.0772">
        <ele>145.6</ele>
        <time>2022-05-29T12:54:00Z</time>
      </trkpt>
      <trkpt lat="47.95533" lon="-3.0765">
        <ele>146.6</ele>
        <time>2022-05-29T12:54:06Z</time>
      </trkpt>
      <trkpt lat="47.95513" lon="-3.07615">
        <ele>148.4</ele>
        <time>2022-05-29T12:54:12Z</time>
      </trkpt>
      <trkpt lat="47.95503" lon="-3.07599">
        <ele>149.1</ele>
        <time>2022-05-29T12:54:15Z</time>
      </trkpt>
      <trkpt lat="47.95495" lon="-3.07594">
        <ele>149.5</ele>
        <time>2022-05-29T12:54:17Z</time>
      </trkpt>
      <trkpt lat="47.95477" lon="-3.07584">
        <ele>151.1</ele>
        <time>2022-05-29T12:54:22Z</time>
      </trkpt>
      <trkpt lat="47.95459" lon="-3.07574">
        <ele>152.2</ele>
        <time>2022-05-29T12:54:27Z</time>
      </trkpt>
      <trkpt lat="47.95402" lon="-3.07535">
        <ele>155.4</ele>
        <time>2022-05-29T12:54:36Z</time>
      </trkpt>
      <trkpt lat="47.95402" lon="-3.07535">
        <ele>155.4</ele>
        <time>2022-05-29T12:55:42Z</time>
      </trkpt>
      <trkpt lat="47.95365" lon="-3.07497">
        <ele>157.3</ele>
        <time>2022-05-29T12:55:49Z</time>
      </trkpt>
      <trkpt lat="47.95356" lon="-3.07481">
        <ele>157.5</ele>
        <time>2022-05-29T12:55:53Z</time>
      </trkpt>
      <trkpt lat="47.95337" lon="-3.07444">
        <ele>159.3</ele>
        <time>2022-05-29T12:56:02Z</time>
      </trkpt>
      <trkpt lat="47.95307" lon="-3.07387">
        <ele>161.5</ele>
        <time>2022-05-29T12:56:13Z</time>
      </trkpt>
      <trkpt lat="47.95287" lon="-3.07346">
        <ele>163.6</ele>
        <time>2022-05-29T12:56:22Z</time>
      </trkpt>
      <trkpt lat="47.95287" lon="-3.0734">
        <ele>163.8</ele>
        <time>2022-05-29T12:56:23Z</time>
      </trkpt>
      <trkpt lat="47.95275" lon="-3.07316">
        <ele>165.2</ele>
        <time>2022-05-29T12:56:29Z</time>
      </trkpt>
      <trkpt lat="47.95259" lon="-3.07285">
        <ele>166.4</ele>
        <time>2022-05-29T12:56:37Z</time>
      </trkpt>
      <trkpt lat="47.9523" lon="-3.07229">
        <ele>168.3</ele>
        <time>2022-05-29T12:56:50Z</time>
      </trkpt>
      <trkpt lat="47.95216" lon="-3.07202">
        <ele>168.8</ele>
        <time>2022-05-29T12:56:55Z</time>
      </trkpt>
      <trkpt lat="47.95201" lon="-3.07175">
        <ele>167.9</ele>
        <time>2022-05-29T12:57:00Z</time>
      </trkpt>
      <trkpt lat="47.9518" lon="-3.07136">
        <ele>166.9</ele>
        <time>2022-05-29T12:57:05Z</time>
      </trkpt>
      <trkpt lat="47.95171" lon="-3.07119">
        <ele>166.1</ele>
        <time>2022-05-29T12:57:07Z</time>
      </trkpt>
      <trkpt lat="47.95153" lon="-3.07091">
        <ele>164.8</ele>
        <time>2022-05-29T12:57:10Z</time>
      </trkpt>
      <trkpt lat="47.95147" lon="-3.07082">
        <ele>164.2</ele>
        <time>2022-05-29T12:57:11Z</time>
      </trkpt>
      <trkpt lat="47.95109" lon="-3.07037">
        <ele>161.5</ele>
        <time>2022-05-29T12:57:16Z</time>
      </trkpt>
      <trkpt lat="47.95076" lon="-3.07">
        <ele>159.3</ele>
        <time>2022-05-29T12:57:20Z</time>
      </trkpt>
      <trkpt lat="47.95067" lon="-3.06991">
        <ele>158.7</ele>
        <time>2022-05-29T12:57:21Z</time>
      </trkpt>
      <trkpt lat="47.95028" lon="-3.06956">
        <ele>156.4</ele>
        <time>2022-05-29T12:57:25Z</time>
      </trkpt>
      <trkpt lat="47.9498" lon="-3.06917">
        <ele>153.4</ele>
        <time>2022-05-29T12:57:30Z</time>
      </trkpt>
      <trkpt lat="47.9493" lon="-3.06879">
        <ele>150.3</ele>
        <time>2022-05-29T12:57:35Z</time>
      </trkpt>
      <trkpt lat="47.94882" lon="-3.06839">
        <ele>147.5</ele>
        <time>2022-05-29T12:57:40Z</time>
      </trkpt>
      <trkpt lat="47.94851" lon="-3.06812">
        <ele>145.9</ele>
        <time>2022-05-29T12:57:43Z</time>
      </trkpt>
      <trkpt lat="47.94834" lon="-3.06787">
        <ele>144.7</ele>
        <time>2022-05-29T12:57:45Z</time>
      </trkpt>
      <trkpt lat="47.94817" lon="-3.06761">
        <ele>143.1</ele>
        <time>2022-05-29T12:57:47Z</time>
      </trkpt>
      <trkpt lat="47.94794" lon="-3.06719">
        <ele>140.9</ele>
        <time>2022-05-29T12:57:50Z</time>
      </trkpt>
      <trkpt lat="47.94787" lon="-3.06705">
        <ele>140.6</ele>
        <time>2022-05-29T12:57:51Z</time>
      </trkpt>
      <trkpt lat="47.94758" lon="-3.06652">
        <ele>139.7</ele>
        <time>2022-05-29T12:57:55Z</time>
      </trkpt>
      <trkpt lat="47.94728" lon="-3.06596">
        <ele>138.5</ele>
        <time>2022-05-29T12:58:00Z</time>
      </trkpt>
      <trkpt lat="47.94721" lon="-3.06586">
        <ele>138.2</ele>
        <time>2022-05-29T12:58:02Z</time>
      </trkpt>
      <trkpt lat="47.94714" lon="-3.06586">
        <ele>137.7</ele>
        <time>2022-05-29T12:58:05Z</time>
      </trkpt>
      <trkpt lat="47.94713" lon="-3.06598">
        <ele>137</ele>
        <time>2022-05-29T12:58:07Z</time>
      </trkpt>
      <trkpt lat="47.94695" lon="-3.06623">
        <ele>136.2</ele>
        <time>2022-05-29T12:58:09Z</time>
      </trkpt>
      <trkpt lat="47.94691" lon="-3.06632">
        <ele>135.9</ele>
        <time>2022-05-29T12:58:10Z</time>
      </trkpt>
      <trkpt lat="47.94663" lon="-3.06683">
        <ele>134.5</ele>
        <time>2022-05-29T12:58:16Z</time>
      </trkpt>
      <trkpt lat="47.94643" lon="-3.06718">
        <ele>133.6</ele>
        <time>2022-05-29T12:58:20Z</time>
      </trkpt>
      <trkpt lat="47.94633" lon="-3.06736">
        <ele>133.5</ele>
        <time>2022-05-29T12:58:22Z</time>
      </trkpt>
      <trkpt lat="47.94618" lon="-3.06758">
        <ele>133.3</ele>
        <time>2022-05-29T12:58:25Z</time>
      </trkpt>
      <trkpt lat="47.94599" lon="-3.06786">
        <ele>133.3</ele>
        <time>2022-05-29T12:58:29Z</time>
      </trkpt>
      <trkpt lat="47.94556" lon="-3.06826">
        <ele>133.2</ele>
        <time>2022-05-29T12:58:37Z</time>
      </trkpt>
      <trkpt lat="47.94515" lon="-3.06855">
        <ele>133.1</ele>
        <time>2022-05-29T12:58:44Z</time>
      </trkpt>
      <trkpt lat="47.94469" lon="-3.06877">
        <ele>133.1</ele>
        <time>2022-05-29T12:58:52Z</time>
      </trkpt>
      <trkpt lat="47.94424" lon="-3.06904">
        <ele>133</ele>
        <time>2022-05-29T12:58:59Z</time>
      </trkpt>
      <trkpt lat="47.94376" lon="-3.06923">
        <ele>133</ele>
        <time>2022-05-29T12:59:06Z</time>
      </trkpt>
      <trkpt lat="47.94327" lon="-3.06938">
        <ele>132.9</ele>
        <time>2022-05-29T12:59:13Z</time>
      </trkpt>
      <trkpt lat="47.94279" lon="-3.06948">
        <ele>132.9</ele>
        <time>2022-05-29T12:59:20Z</time>
      </trkpt>
      <trkpt lat="47.9423" lon="-3.06961">
        <ele>132.8</ele>
        <time>2022-05-29T12:59:27Z</time>
      </trkpt>
      <trkpt lat="47.94183" lon="-3.06982">
        <ele>132.8</ele>
        <time>2022-05-29T12:59:34Z</time>
      </trkpt>
      <trkpt lat="47.94137" lon="-3.07006">
        <ele>132.7</ele>
        <time>2022-05-29T12:59:41Z</time>
      </trkpt>
      <trkpt lat="47.94093" lon="-3.07038">
        <ele>132.6</ele>
        <time>2022-05-29T12:59:48Z</time>
      </trkpt>
      <trkpt lat="47.94055" lon="-3.07079">
        <ele>132.6</ele>
        <time>2022-05-29T12:59:55Z</time>
      </trkpt>
      <trkpt lat="47.94013" lon="-3.07122">
        <ele>132.5</ele>
        <time>2022-05-29T13:00:03Z</time>
      </trkpt>
      <trkpt lat="47.93971" lon="-3.07162">
        <ele>132.5</ele>
        <time>2022-05-29T13:00:10Z</time>
      </trkpt>
      <trkpt lat="47.93926" lon="-3.072">
        <ele>132.4</ele>
        <time>2022-05-29T13:00:17Z</time>
      </trkpt>
      <trkpt lat="47.93881" lon="-3.07235">
        <ele>132.4</ele>
        <time>2022-05-29T13:00:24Z</time>
      </trkpt>
      <trkpt lat="47.93835" lon="-3.07261">
        <ele>132.3</ele>
        <time>2022-05-29T13:00:31Z</time>
      </trkpt>
      <trkpt lat="47.93789" lon="-3.07279">
        <ele>132.3</ele>
        <time>2022-05-29T13:00:38Z</time>
      </trkpt>
      <trkpt lat="47.93741" lon="-3.07294">
        <ele>132.2</ele>
        <time>2022-05-29T13:00:45Z</time>
      </trkpt>
      <trkpt lat="47.93693" lon="-3.07309">
        <ele>132.2</ele>
        <time>2022-05-29T13:00:52Z</time>
      </trkpt>
      <trkpt lat="47.93646" lon="-3.07317">
        <ele>132.1</ele>
        <time>2022-05-29T13:00:59Z</time>
      </trkpt>
      <trkpt lat="47.93596" lon="-3.07329">
        <ele>132</ele>
        <time>2022-05-29T13:01:06Z</time>
      </trkpt>
      <trkpt lat="47.93544" lon="-3.07338">
        <ele>132</ele>
        <time>2022-05-29T13:01:13Z</time>
      </trkpt>
      <trkpt lat="47.93499" lon="-3.07345">
        <ele>131.9</ele>
        <time>2022-05-29T13:01:19Z</time>
      </trkpt>
      <trkpt lat="47.93449" lon="-3.07356">
        <ele>131.9</ele>
        <time>2022-05-29T13:01:26Z</time>
      </trkpt>
      <trkpt lat="47.93403" lon="-3.07362">
        <ele>131.8</ele>
        <time>2022-05-29T13:01:33Z</time>
      </trkpt>
      <trkpt lat="47.93352" lon="-3.07367">
        <ele>131.8</ele>
        <time>2022-05-29T13:01:41Z</time>
      </trkpt>
      <trkpt lat="47.93301" lon="-3.07372">
        <ele>131.7</ele>
        <time>2022-05-29T13:01:48Z</time>
      </trkpt>
      <trkpt lat="47.93251" lon="-3.07375">
        <ele>131.7</ele>
        <time>2022-05-29T13:01:55Z</time>
      </trkpt>
      <trkpt lat="47.93203" lon="-3.07376">
        <ele>131.6</ele>
        <time>2022-05-29T13:02:02Z</time>
      </trkpt>
      <trkpt lat="47.93154" lon="-3.07376">
        <ele>131.6</ele>
        <time>2022-05-29T13:02:09Z</time>
      </trkpt>
      <trkpt lat="47.93108" lon="-3.07375">
        <ele>131.5</ele>
        <time>2022-05-29T13:02:16Z</time>
      </trkpt>
      <trkpt lat="47.93059" lon="-3.07371">
        <ele>131.4</ele>
        <time>2022-05-29T13:02:23Z</time>
      </trkpt>
      <trkpt lat="47.93009" lon="-3.07355">
        <ele>131.4</ele>
        <time>2022-05-29T13:02:30Z</time>
      </trkpt>
      <trkpt lat="47.92964" lon="-3.07338">
        <ele>131.3</ele>
        <time>2022-05-29T13:02:37Z</time>
      </trkpt>
      <trkpt lat="47.92914" lon="-3.07323">
        <ele>131.3</ele>
        <time>2022-05-29T13:02:45Z</time>
      </trkpt>
      <trkpt lat="47.92878" lon="-3.07313">
        <ele>131.2</ele>
        <time>2022-05-29T13:02:51Z</time>
      </trkpt>
      <trkpt lat="47.92866" lon="-3.07306">
        <ele>131.2</ele>
        <time>2022-05-29T13:02:53Z</time>
      </trkpt>
      <trkpt lat="47.92829" lon="-3.07296">
        <ele>131.2</ele>
        <time>2022-05-29T13:03:00Z</time>
      </trkpt>
      <trkpt lat="47.92814" lon="-3.0729">
        <ele>131.1</ele>
        <time>2022-05-29T13:03:02Z</time>
      </trkpt>
      <trkpt lat="47.92764" lon="-3.07296">
        <ele>131.1</ele>
        <time>2022-05-29T13:03:09Z</time>
      </trkpt>
      <trkpt lat="47.92719" lon="-3.07312">
        <ele>131</ele>
        <time>2022-05-29T13:03:15Z</time>
      </trkpt>
      <trkpt lat="47.92673" lon="-3.07337">
        <ele>131</ele>
        <time>2022-05-29T13:03:22Z</time>
      </trkpt>
      <trkpt lat="47.92632" lon="-3.07373">
        <ele>130.9</ele>
        <time>2022-05-29T13:03:29Z</time>
      </trkpt>
      <trkpt lat="47.92596" lon="-3.07415">
        <ele>130.9</ele>
        <time>2022-05-29T13:03:36Z</time>
      </trkpt>
      <trkpt lat="47.92563" lon="-3.07462">
        <ele>130.8</ele>
        <time>2022-05-29T13:03:43Z</time>
      </trkpt>
      <trkpt lat="47.92531" lon="-3.07515">
        <ele>130.8</ele>
        <time>2022-05-29T13:03:50Z</time>
      </trkpt>
      <trkpt lat="47.92497" lon="-3.07566">
        <ele>130.7</ele>
        <time>2022-05-29T13:03:57Z</time>
      </trkpt>
      <trkpt lat="47.92461" lon="-3.07618">
        <ele>130.7</ele>
        <time>2022-05-29T13:04:04Z</time>
      </trkpt>
      <trkpt lat="47.92419" lon="-3.07652">
        <ele>130.6</ele>
        <time>2022-05-29T13:04:11Z</time>
      </trkpt>
      <trkpt lat="47.92376" lon="-3.07687">
        <ele>130.6</ele>
        <time>2022-05-29T13:04:18Z</time>
      </trkpt>
      <trkpt lat="47.9233" lon="-3.07708">
        <ele>130.5</ele>
        <time>2022-05-29T13:04:25Z</time>
      </trkpt>
      <trkpt lat="47.92285" lon="-3.07735">
        <ele>130.5</ele>
        <time>2022-05-29T13:04:32Z</time>
      </trkpt>
      <trkpt lat="47.92239" lon="-3.07765">
        <ele>130.4</ele>
        <time>2022-05-29T13:04:40Z</time>
      </trkpt>
      <trkpt lat="47.92199" lon="-3.07799">
        <ele>130.3</ele>
        <time>2022-05-29T13:04:47Z</time>
      </trkpt>
      <trkpt lat="47.92161" lon="-3.07843">
        <ele>130.3</ele>
        <time>2022-05-29T13:04:54Z</time>
      </trkpt>
      <trkpt lat="47.9212" lon="-3.07886">
        <ele>130.2</ele>
        <time>2022-05-29T13:05:01Z</time>
      </trkpt>
      <trkpt lat="47.9208" lon="-3.07929">
        <ele>130.2</ele>
        <time>2022-05-29T13:05:08Z</time>
      </trkpt>
      <trkpt lat="47.92042" lon="-3.07968">
        <ele>130.1</ele>
        <time>2022-05-29T13:05:15Z</time>
      </trkpt>
      <trkpt lat="47.92005" lon="-3.08009">
        <ele>130.1</ele>
        <time>2022-05-29T13:05:23Z</time>
      </trkpt>
      <trkpt lat="47.91982" lon="-3.08028">
        <ele>130</ele>
        <time>2022-05-29T13:05:29Z</time>
      </trkpt>
      <trkpt lat="47.91979" lon="-3.08026">
        <ele>130.1</ele>
        <time>2022-05-29T13:05:30Z</time>
      </trkpt>
      <trkpt lat="47.91969" lon="-3.08016">
        <ele>130.6</ele>
        <time>2022-05-29T13:05:34Z</time>
      </trkpt>
      <trkpt lat="47.91949" lon="-3.07989">
        <ele>131.4</ele>
        <time>2022-05-29T13:05:39Z</time>
      </trkpt>
      <trkpt lat="47.9194" lon="-3.07995">
        <ele>131.5</ele>
        <time>2022-05-29T13:05:40Z</time>
      </trkpt>
      <trkpt lat="47.91936" lon="-3.08">
        <ele>131.6</ele>
        <time>2022-05-29T13:05:41Z</time>
      </trkpt>
      <trkpt lat="47.91925" lon="-3.08009">
        <ele>131.8</ele>
        <time>2022-05-29T13:05:43Z</time>
      </trkpt>
      <trkpt lat="47.91917" lon="-3.08022">
        <ele>132</ele>
        <time>2022-05-29T13:05:44Z</time>
      </trkpt>
      <trkpt lat="47.91909" lon="-3.08022">
        <ele>132.7</ele>
        <time>2022-05-29T13:05:50Z</time>
      </trkpt>
      <trkpt lat="47.91894" lon="-3.08024">
        <ele>133.8</ele>
        <time>2022-05-29T13:05:55Z</time>
      </trkpt>
      <trkpt lat="47.91887" lon="-3.08019">
        <ele>134.6</ele>
        <time>2022-05-29T13:05:59Z</time>
      </trkpt>
      <trkpt lat="47.91865" lon="-3.07961">
        <ele>136.8</ele>
        <time>2022-05-29T13:06:10Z</time>
      </trkpt>
      <trkpt lat="47.91846" lon="-3.07895">
        <ele>140.3</ele>
        <time>2022-05-29T13:06:25Z</time>
      </trkpt>
      <trkpt lat="47.91843" lon="-3.07826">
        <ele>142.6</ele>
        <time>2022-05-29T13:06:39Z</time>
      </trkpt>
      <trkpt lat="47.91843" lon="-3.07799">
        <ele>143.6</ele>
        <time>2022-05-29T13:06:45Z</time>
      </trkpt>
      <trkpt lat="47.91842" lon="-3.07781">
        <ele>144.1</ele>
        <time>2022-05-29T13:06:49Z</time>
      </trkpt>
      <trkpt lat="47.91832" lon="-3.0776">
        <ele>144.6</ele>
        <time>2022-05-29T13:06:53Z</time>
      </trkpt>
      <trkpt lat="47.918" lon="-3.07747">
        <ele>145.7</ele>
        <time>2022-05-29T13:07:01Z</time>
      </trkpt>
      <trkpt lat="47.91788" lon="-3.07743">
        <ele>146.1</ele>
        <time>2022-05-29T13:07:04Z</time>
      </trkpt>
      <trkpt lat="47.91744" lon="-3.07726">
        <ele>147.3</ele>
        <time>2022-05-29T13:07:14Z</time>
      </trkpt>
      <trkpt lat="47.91698" lon="-3.07707">
        <ele>148.7</ele>
        <time>2022-05-29T13:07:26Z</time>
      </trkpt>
      <trkpt lat="47.91695" lon="-3.07706">
        <ele>148.9</ele>
        <time>2022-05-29T13:07:27Z</time>
      </trkpt>
      <trkpt lat="47.91663" lon="-3.07694">
        <ele>151.6</ele>
        <time>2022-05-29T13:07:37Z</time>
      </trkpt>
      <trkpt lat="47.91607" lon="-3.07673">
        <ele>151.3</ele>
        <time>2022-05-29T13:07:41Z</time>
      </trkpt>
      <trkpt lat="47.91607" lon="-3.07673">
        <ele>151.3</ele>
        <time>2022-05-29T13:10:17Z</time>
      </trkpt>
      <trkpt lat="47.91561" lon="-3.07656">
        <ele>150.6</ele>
        <time>2022-05-29T13:10:29Z</time>
      </trkpt>
      <trkpt lat="47.91512" lon="-3.07637">
        <ele>150.5</ele>
        <time>2022-05-29T13:10:38Z</time>
      </trkpt>
      <trkpt lat="47.91465" lon="-3.07619">
        <ele>150.1</ele>
        <time>2022-05-29T13:10:46Z</time>
      </trkpt>
      <trkpt lat="47.91455" lon="-3.07615">
        <ele>150</ele>
        <time>2022-05-29T13:10:48Z</time>
      </trkpt>
      <trkpt lat="47.91421" lon="-3.07602">
        <ele>149.5</ele>
        <time>2022-05-29T13:10:55Z</time>
      </trkpt>
      <trkpt lat="47.9141" lon="-3.07598">
        <ele>149.3</ele>
        <time>2022-05-29T13:10:57Z</time>
      </trkpt>
      <trkpt lat="47.91376" lon="-3.07587">
        <ele>148.8</ele>
        <time>2022-05-29T13:11:03Z</time>
      </trkpt>
      <trkpt lat="47.91336" lon="-3.07583">
        <ele>148.3</ele>
        <time>2022-05-29T13:11:08Z</time>
      </trkpt>
      <trkpt lat="47.91328" lon="-3.07582">
        <ele>148</ele>
        <time>2022-05-29T13:11:09Z</time>
      </trkpt>
      <trkpt lat="47.91319" lon="-3.07579">
        <ele>147.6</ele>
        <time>2022-05-29T13:11:10Z</time>
      </trkpt>
      <trkpt lat="47.91302" lon="-3.07569">
        <ele>146.5</ele>
        <time>2022-05-29T13:11:13Z</time>
      </trkpt>
      <trkpt lat="47.91296" lon="-3.07573">
        <ele>146.1</ele>
        <time>2022-05-29T13:11:14Z</time>
      </trkpt>
      <trkpt lat="47.9128" lon="-3.07574">
        <ele>145.5</ele>
        <time>2022-05-29T13:11:16Z</time>
      </trkpt>
      <trkpt lat="47.91241" lon="-3.07566">
        <ele>143.4</ele>
        <time>2022-05-29T13:11:23Z</time>
      </trkpt>
      <trkpt lat="47.91236" lon="-3.07565">
        <ele>143.3</ele>
        <time>2022-05-29T13:11:24Z</time>
      </trkpt>
      <trkpt lat="47.9122" lon="-3.07568">
        <ele>142.6</ele>
        <time>2022-05-29T13:11:28Z</time>
      </trkpt>
      <trkpt lat="47.9119" lon="-3.07572">
        <ele>140.9</ele>
        <time>2022-05-29T13:11:35Z</time>
      </trkpt>
      <trkpt lat="47.91144" lon="-3.0758">
        <ele>138.8</ele>
        <time>2022-05-29T13:11:44Z</time>
      </trkpt>
      <trkpt lat="47.91108" lon="-3.07585">
        <ele>137.7</ele>
        <time>2022-05-29T13:11:48Z</time>
      </trkpt>
      <trkpt lat="47.91091" lon="-3.07588">
        <ele>136.8</ele>
        <time>2022-05-29T13:11:50Z</time>
      </trkpt>
      <trkpt lat="47.91047" lon="-3.07591">
        <ele>133.9</ele>
        <time>2022-05-29T13:11:56Z</time>
      </trkpt>
      <trkpt lat="47.91034" lon="-3.0758">
        <ele>133.1</ele>
        <time>2022-05-29T13:11:58Z</time>
      </trkpt>
      <trkpt lat="47.91002" lon="-3.07552">
        <ele>132.5</ele>
        <time>2022-05-29T13:12:03Z</time>
      </trkpt>
      <trkpt lat="47.9097" lon="-3.07527">
        <ele>131.9</ele>
        <time>2022-05-29T13:12:08Z</time>
      </trkpt>
      <trkpt lat="47.90957" lon="-3.07518">
        <ele>132.1</ele>
        <time>2022-05-29T13:12:10Z</time>
      </trkpt>
      <trkpt lat="47.90911" lon="-3.07502">
        <ele>133</ele>
        <time>2022-05-29T13:12:18Z</time>
      </trkpt>
      <trkpt lat="47.90882" lon="-3.07505">
        <ele>133.5</ele>
        <time>2022-05-29T13:12:23Z</time>
      </trkpt>
      <trkpt lat="47.90865" lon="-3.07508">
        <ele>134</ele>
        <time>2022-05-29T13:12:26Z</time>
      </trkpt>
      <trkpt lat="47.9082" lon="-3.07516">
        <ele>135.7</ele>
        <time>2022-05-29T13:12:36Z</time>
      </trkpt>
      <trkpt lat="47.90791" lon="-3.07532">
        <ele>136.9</ele>
        <time>2022-05-29T13:12:43Z</time>
      </trkpt>
      <trkpt lat="47.90779" lon="-3.07541">
        <ele>137.3</ele>
        <time>2022-05-29T13:12:46Z</time>
      </trkpt>
      <trkpt lat="47.90775" lon="-3.07547">
        <ele>137.5</ele>
        <time>2022-05-29T13:12:47Z</time>
      </trkpt>
      <trkpt lat="47.90731" lon="-3.07576">
        <ele>139.2</ele>
        <time>2022-05-29T13:12:58Z</time>
      </trkpt>
      <trkpt lat="47.90713" lon="-3.0759">
        <ele>140</ele>
        <time>2022-05-29T13:13:03Z</time>
      </trkpt>
      <trkpt lat="47.9069" lon="-3.07606">
        <ele>140.6</ele>
        <time>2022-05-29T13:13:09Z</time>
      </trkpt>
      <trkpt lat="47.90669" lon="-3.07622">
        <ele>140.9</ele>
        <time>2022-05-29T13:13:14Z</time>
      </trkpt>
      <trkpt lat="47.90647" lon="-3.07638">
        <ele>140.2</ele>
        <time>2022-05-29T13:13:19Z</time>
      </trkpt>
      <trkpt lat="47.90605" lon="-3.07668">
        <ele>139.3</ele>
        <time>2022-05-29T13:13:26Z</time>
      </trkpt>
      <trkpt lat="47.90564" lon="-3.07689">
        <ele>138.5</ele>
        <time>2022-05-29T13:13:31Z</time>
      </trkpt>
      <trkpt lat="47.90555" lon="-3.07692">
        <ele>138.2</ele>
        <time>2022-05-29T13:13:32Z</time>
      </trkpt>
      <trkpt lat="47.9052" lon="-3.07703">
        <ele>136.9</ele>
        <time>2022-05-29T13:13:36Z</time>
      </trkpt>
      <trkpt lat="47.90502" lon="-3.07708">
        <ele>136</ele>
        <time>2022-05-29T13:13:38Z</time>
      </trkpt>
      <trkpt lat="47.90452" lon="-3.07714">
        <ele>133.9</ele>
        <time>2022-05-29T13:13:43Z</time>
      </trkpt>
      <trkpt lat="47.90422" lon="-3.0771">
        <ele>132.7</ele>
        <time>2022-05-29T13:13:46Z</time>
      </trkpt>
      <trkpt lat="47.90403" lon="-3.07707">
        <ele>132.3</ele>
        <time>2022-05-29T13:13:48Z</time>
      </trkpt>
      <trkpt lat="47.90356" lon="-3.07691">
        <ele>131.1</ele>
        <time>2022-05-29T13:13:54Z</time>
      </trkpt>
      <trkpt lat="47.90342" lon="-3.07683">
        <ele>130.8</ele>
        <time>2022-05-29T13:13:56Z</time>
      </trkpt>
      <trkpt lat="47.90334" lon="-3.0768">
        <ele>130.8</ele>
        <time>2022-05-29T13:13:57Z</time>
      </trkpt>
      <trkpt lat="47.90303" lon="-3.0767">
        <ele>130.7</ele>
        <time>2022-05-29T13:14:01Z</time>
      </trkpt>
      <trkpt lat="47.90288" lon="-3.07665">
        <ele>130.7</ele>
        <time>2022-05-29T13:14:03Z</time>
      </trkpt>
      <trkpt lat="47.90268" lon="-3.07653">
        <ele>130.8</ele>
        <time>2022-05-29T13:14:06Z</time>
      </trkpt>
      <trkpt lat="47.90223" lon="-3.07633">
        <ele>130.8</ele>
        <time>2022-05-29T13:14:12Z</time>
      </trkpt>
      <trkpt lat="47.90173" lon="-3.07617">
        <ele>130.9</ele>
        <time>2022-05-29T13:14:18Z</time>
      </trkpt>
      <trkpt lat="47.90123" lon="-3.07608">
        <ele>131</ele>
        <time>2022-05-29T13:14:25Z</time>
      </trkpt>
      <trkpt lat="47.90074" lon="-3.07602">
        <ele>131.1</ele>
        <time>2022-05-29T13:14:31Z</time>
      </trkpt>
      <trkpt lat="47.90026" lon="-3.07605">
        <ele>131.2</ele>
        <time>2022-05-29T13:14:37Z</time>
      </trkpt>
      <trkpt lat="47.89979" lon="-3.07612">
        <ele>131.2</ele>
        <time>2022-05-29T13:14:43Z</time>
      </trkpt>
      <trkpt lat="47.89933" lon="-3.07625">
        <ele>131.3</ele>
        <time>2022-05-29T13:14:49Z</time>
      </trkpt>
      <trkpt lat="47.89887" lon="-3.07634">
        <ele>131.4</ele>
        <time>2022-05-29T13:14:55Z</time>
      </trkpt>
      <trkpt lat="47.89841" lon="-3.07642">
        <ele>131.4</ele>
        <time>2022-05-29T13:15:01Z</time>
      </trkpt>
      <trkpt lat="47.8979" lon="-3.07652">
        <ele>131.5</ele>
        <time>2022-05-29T13:15:08Z</time>
      </trkpt>
      <trkpt lat="47.89742" lon="-3.07659">
        <ele>131.6</ele>
        <time>2022-05-29T13:15:15Z</time>
      </trkpt>
      <trkpt lat="47.89697" lon="-3.07665">
        <ele>131.7</ele>
        <time>2022-05-29T13:15:22Z</time>
      </trkpt>
      <trkpt lat="47.8965" lon="-3.07669">
        <ele>131.8</ele>
        <time>2022-05-29T13:15:29Z</time>
      </trkpt>
      <trkpt lat="47.89601" lon="-3.07671">
        <ele>131.9</ele>
        <time>2022-05-29T13:15:36Z</time>
      </trkpt>
      <trkpt lat="47.89579" lon="-3.07671">
        <ele>131.9</ele>
        <time>2022-05-29T13:15:39Z</time>
      </trkpt>
      <trkpt lat="47.89572" lon="-3.07669">
        <ele>131.9</ele>
        <time>2022-05-29T13:15:40Z</time>
      </trkpt>
      <trkpt lat="47.89527" lon="-3.07672">
        <ele>132</ele>
        <time>2022-05-29T13:15:46Z</time>
      </trkpt>
      <trkpt lat="47.89476" lon="-3.07674">
        <ele>132.1</ele>
        <time>2022-05-29T13:15:53Z</time>
      </trkpt>
      <trkpt lat="47.89428" lon="-3.07678">
        <ele>132.2</ele>
        <time>2022-05-29T13:16:00Z</time>
      </trkpt>
      <trkpt lat="47.89377" lon="-3.07687">
        <ele>132.3</ele>
        <time>2022-05-29T13:16:07Z</time>
      </trkpt>
      <trkpt lat="47.89327" lon="-3.07696">
        <ele>132.3</ele>
        <time>2022-05-29T13:16:14Z</time>
      </trkpt>
      <trkpt lat="47.89281" lon="-3.07708">
        <ele>132.4</ele>
        <time>2022-05-29T13:16:20Z</time>
      </trkpt>
      <trkpt lat="47.8923" lon="-3.07721">
        <ele>132.5</ele>
        <time>2022-05-29T13:16:27Z</time>
      </trkpt>
      <trkpt lat="47.89191" lon="-3.07726">
        <ele>132.6</ele>
        <time>2022-05-29T13:16:33Z</time>
      </trkpt>
      <trkpt lat="47.89148" lon="-3.07722">
        <ele>132.7</ele>
        <time>2022-05-29T13:16:40Z</time>
      </trkpt>
      <trkpt lat="47.89104" lon="-3.07696">
        <ele>132.8</ele>
        <time>2022-05-29T13:16:48Z</time>
      </trkpt>
      <trkpt lat="47.89056" lon="-3.07665">
        <ele>132.8</ele>
        <time>2022-05-29T13:16:54Z</time>
      </trkpt>
      <trkpt lat="47.89015" lon="-3.07632">
        <ele>132.9</ele>
        <time>2022-05-29T13:17:00Z</time>
      </trkpt>
      <trkpt lat="47.88973" lon="-3.07595">
        <ele>133</ele>
        <time>2022-05-29T13:17:07Z</time>
      </trkpt>
      <trkpt lat="47.88947" lon="-3.07578">
        <ele>133.2</ele>
        <time>2022-05-29T13:17:12Z</time>
      </trkpt>
      <trkpt lat="47.88931" lon="-3.07567">
        <ele>134</ele>
        <time>2022-05-29T13:17:15Z</time>
      </trkpt>
      <trkpt lat="47.88922" lon="-3.0756">
        <ele>134.6</ele>
        <time>2022-05-29T13:17:17Z</time>
      </trkpt>
      <trkpt lat="47.88899" lon="-3.07542">
        <ele>135.3</ele>
        <time>2022-05-29T13:17:22Z</time>
      </trkpt>
      <trkpt lat="47.88857" lon="-3.07515">
        <ele>137.5</ele>
        <time>2022-05-29T13:17:31Z</time>
      </trkpt>
      <trkpt lat="47.88824" lon="-3.07493">
        <ele>139.4</ele>
        <time>2022-05-29T13:17:39Z</time>
      </trkpt>
      <trkpt lat="47.88811" lon="-3.07484">
        <ele>140.3</ele>
        <time>2022-05-29T13:17:42Z</time>
      </trkpt>
      <trkpt lat="47.88801" lon="-3.07478">
        <ele>140.8</ele>
        <time>2022-05-29T13:17:44Z</time>
      </trkpt>
      <trkpt lat="47.88776" lon="-3.07461">
        <ele>141.5</ele>
        <time>2022-05-29T13:17:49Z</time>
      </trkpt>
      <trkpt lat="47.88766" lon="-3.07455">
        <ele>141.6</ele>
        <time>2022-05-29T13:17:51Z</time>
      </trkpt>
      <trkpt lat="47.88751" lon="-3.07446">
        <ele>141.8</ele>
        <time>2022-05-29T13:17:54Z</time>
      </trkpt>
      <trkpt lat="47.8872" lon="-3.07427">
        <ele>141.4</ele>
        <time>2022-05-29T13:18:00Z</time>
      </trkpt>
      <trkpt lat="47.88699" lon="-3.07413">
        <ele>141.1</ele>
        <time>2022-05-29T13:18:04Z</time>
      </trkpt>
      <trkpt lat="47.88689" lon="-3.07404">
        <ele>141</ele>
        <time>2022-05-29T13:18:06Z</time>
      </trkpt>
      <trkpt lat="47.88643" lon="-3.07377">
        <ele>140.5</ele>
        <time>2022-05-29T13:18:13Z</time>
      </trkpt>
      <trkpt lat="47.88635" lon="-3.07373">
        <ele>140.4</ele>
        <time>2022-05-29T13:18:14Z</time>
      </trkpt>
      <trkpt lat="47.88593" lon="-3.07349">
        <ele>138.8</ele>
        <time>2022-05-29T13:18:19Z</time>
      </trkpt>
      <trkpt lat="47.88542" lon="-3.07322">
        <ele>137.1</ele>
        <time>2022-05-29T13:18:24Z</time>
      </trkpt>
      <trkpt lat="47.88495" lon="-3.07294">
        <ele>135.4</ele>
        <time>2022-05-29T13:18:29Z</time>
      </trkpt>
      <trkpt lat="47.88456" lon="-3.07269">
        <ele>135.4</ele>
        <time>2022-05-29T13:18:34Z</time>
      </trkpt>
      <trkpt lat="47.88449" lon="-3.07265">
        <ele>135.4</ele>
        <time>2022-05-29T13:18:35Z</time>
      </trkpt>
      <trkpt lat="47.88423" lon="-3.07249">
        <ele>135.7</ele>
        <time>2022-05-29T13:18:39Z</time>
      </trkpt>
      <trkpt lat="47.88404" lon="-3.07239">
        <ele>136.4</ele>
        <time>2022-05-29T13:18:42Z</time>
      </trkpt>
      <trkpt lat="47.88395" lon="-3.07235">
        <ele>136.9</ele>
        <time>2022-05-29T13:18:44Z</time>
      </trkpt>
      <trkpt lat="47.88373" lon="-3.07226">
        <ele>139.3</ele>
        <time>2022-05-29T13:18:49Z</time>
      </trkpt>
      <trkpt lat="47.8836" lon="-3.07221">
        <ele>140</ele>
        <time>2022-05-29T13:18:52Z</time>
      </trkpt>
      <trkpt lat="47.88334" lon="-3.07214">
        <ele>141.8</ele>
        <time>2022-05-29T13:18:59Z</time>
      </trkpt>
      <trkpt lat="47.88316" lon="-3.07208">
        <ele>143.4</ele>
        <time>2022-05-29T13:19:04Z</time>
      </trkpt>
      <trkpt lat="47.88313" lon="-3.07207">
        <ele>143.6</ele>
        <time>2022-05-29T13:19:05Z</time>
      </trkpt>
      <trkpt lat="47.88286" lon="-3.07198">
        <ele>145.5</ele>
        <time>2022-05-29T13:19:14Z</time>
      </trkpt>
      <trkpt lat="47.88268" lon="-3.07193">
        <ele>146.7</ele>
        <time>2022-05-29T13:19:20Z</time>
      </trkpt>
      <trkpt lat="47.88238" lon="-3.07189">
        <ele>148.8</ele>
        <time>2022-05-29T13:19:30Z</time>
      </trkpt>
      <trkpt lat="47.88221" lon="-3.07187">
        <ele>150.6</ele>
        <time>2022-05-29T13:19:36Z</time>
      </trkpt>
      <trkpt lat="47.88205" lon="-3.07184">
        <ele>152</ele>
        <time>2022-05-29T13:19:41Z</time>
      </trkpt>
      <trkpt lat="47.88175" lon="-3.07178">
        <ele>154.4</ele>
        <time>2022-05-29T13:19:51Z</time>
      </trkpt>
      <trkpt lat="47.88137" lon="-3.07169">
        <ele>157.5</ele>
        <time>2022-05-29T13:20:04Z</time>
      </trkpt>
      <trkpt lat="47.88132" lon="-3.07167">
        <ele>158</ele>
        <time>2022-05-29T13:20:06Z</time>
      </trkpt>
      <trkpt lat="47.88091" lon="-3.07151">
        <ele>161.1</ele>
        <time>2022-05-29T13:20:21Z</time>
      </trkpt>
      <trkpt lat="47.88077" lon="-3.07142">
        <ele>162.2</ele>
        <time>2022-05-29T13:20:26Z</time>
      </trkpt>
      <trkpt lat="47.88047" lon="-3.07123">
        <ele>164.8</ele>
        <time>2022-05-29T13:20:37Z</time>
      </trkpt>
      <trkpt lat="47.88038" lon="-3.07112">
        <ele>165.7</ele>
        <time>2022-05-29T13:20:41Z</time>
      </trkpt>
      <trkpt lat="47.88025" lon="-3.071">
        <ele>166.8</ele>
        <time>2022-05-29T13:20:46Z</time>
      </trkpt>
      <trkpt lat="47.88013" lon="-3.07087">
        <ele>167.9</ele>
        <time>2022-05-29T13:20:51Z</time>
      </trkpt>
      <trkpt lat="47.88009" lon="-3.07082">
        <ele>168.3</ele>
        <time>2022-05-29T13:20:53Z</time>
      </trkpt>
      <trkpt lat="47.87976" lon="-3.07049">
        <ele>171.1</ele>
        <time>2022-05-29T13:21:06Z</time>
      </trkpt>
      <trkpt lat="47.87971" lon="-3.07044">
        <ele>171.4</ele>
        <time>2022-05-29T13:21:08Z</time>
      </trkpt>
      <trkpt lat="47.87933" lon="-3.07003">
        <ele>173.5</ele>
        <time>2022-05-29T13:21:21Z</time>
      </trkpt>
      <trkpt lat="47.87917" lon="-3.06988">
        <ele>174.3</ele>
        <time>2022-05-29T13:21:26Z</time>
      </trkpt>
      <trkpt lat="47.87894" lon="-3.06969">
        <ele>175</ele>
        <time>2022-05-29T13:21:33Z</time>
      </trkpt>
      <trkpt lat="47.87887" lon="-3.06961">
        <ele>175.4</ele>
        <time>2022-05-29T13:21:37Z</time>
      </trkpt>
      <trkpt lat="47.87884" lon="-3.06954">
        <ele>175.4</ele>
        <time>2022-05-29T13:21:39Z</time>
      </trkpt>
      <trkpt lat="47.87886" lon="-3.06937">
        <ele>175.3</ele>
        <time>2022-05-29T13:21:41Z</time>
      </trkpt>
      <trkpt lat="47.87906" lon="-3.06875">
        <ele>175.3</ele>
        <time>2022-05-29T13:21:52Z</time>
      </trkpt>
      <trkpt lat="47.87925" lon="-3.06826">
        <ele>175.2</ele>
        <time>2022-05-29T13:22:00Z</time>
      </trkpt>
      <trkpt lat="47.87944" lon="-3.06768">
        <ele>175.1</ele>
        <time>2022-05-29T13:22:08Z</time>
      </trkpt>
      <trkpt lat="47.87962" lon="-3.06699">
        <ele>175.1</ele>
        <time>2022-05-29T13:22:16Z</time>
      </trkpt>
      <trkpt lat="47.87965" lon="-3.06677">
        <ele>175</ele>
        <time>2022-05-29T13:22:18Z</time>
      </trkpt>
      <trkpt lat="47.87974" lon="-3.06623">
        <ele>173.6</ele>
        <time>2022-05-29T13:22:23Z</time>
      </trkpt>
      <trkpt lat="47.8798" lon="-3.06569">
        <ele>172.3</ele>
        <time>2022-05-29T13:22:28Z</time>
      </trkpt>
      <trkpt lat="47.87983" lon="-3.06547">
        <ele>171.7</ele>
        <time>2022-05-29T13:22:30Z</time>
      </trkpt>
      <trkpt lat="47.87992" lon="-3.06472">
        <ele>169.7</ele>
        <time>2022-05-29T13:22:36Z</time>
      </trkpt>
      <trkpt lat="47.88001" lon="-3.06396">
        <ele>167.8</ele>
        <time>2022-05-29T13:22:42Z</time>
      </trkpt>
      <trkpt lat="47.88003" lon="-3.06383">
        <ele>167.5</ele>
        <time>2022-05-29T13:22:43Z</time>
      </trkpt>
      <trkpt lat="47.8801" lon="-3.06318">
        <ele>165.9</ele>
        <time>2022-05-29T13:22:48Z</time>
      </trkpt>
      <trkpt lat="47.88014" lon="-3.06252">
        <ele>164.2</ele>
        <time>2022-05-29T13:22:53Z</time>
      </trkpt>
      <trkpt lat="47.8801" lon="-3.0618">
        <ele>162.6</ele>
        <time>2022-05-29T13:22:58Z</time>
      </trkpt>
      <trkpt lat="47.88002" lon="-3.06117">
        <ele>161.1</ele>
        <time>2022-05-29T13:23:03Z</time>
      </trkpt>
      <trkpt lat="47.88" lon="-3.06105">
        <ele>161.1</ele>
        <time>2022-05-29T13:23:04Z</time>
      </trkpt>
      <trkpt lat="47.87994" lon="-3.06059">
        <ele>160.9</ele>
        <time>2022-05-29T13:23:08Z</time>
      </trkpt>
      <trkpt lat="47.87992" lon="-3.06037">
        <ele>161.4</ele>
        <time>2022-05-29T13:23:10Z</time>
      </trkpt>
      <trkpt lat="47.87987" lon="-3.0597">
        <ele>162.9</ele>
        <time>2022-05-29T13:23:17Z</time>
      </trkpt>
      <trkpt lat="47.87987" lon="-3.05962">
        <ele>163.1</ele>
        <time>2022-05-29T13:23:18Z</time>
      </trkpt>
      <trkpt lat="47.87983" lon="-3.05926">
        <ele>164.6</ele>
        <time>2022-05-29T13:23:23Z</time>
      </trkpt>
      <trkpt lat="47.87981" lon="-3.05904">
        <ele>165.3</ele>
        <time>2022-05-29T13:23:26Z</time>
      </trkpt>
      <trkpt lat="47.87979" lon="-3.05858">
        <ele>167</ele>
        <time>2022-05-29T13:23:33Z</time>
      </trkpt>
      <trkpt lat="47.87977" lon="-3.05831">
        <ele>167.8</ele>
        <time>2022-05-29T13:23:37Z</time>
      </trkpt>
      <trkpt lat="47.87969" lon="-3.05764">
        <ele>169.6</ele>
        <time>2022-05-29T13:23:47Z</time>
      </trkpt>
      <trkpt lat="47.87963" lon="-3.05743">
        <ele>170.1</ele>
        <time>2022-05-29T13:23:50Z</time>
      </trkpt>
      <trkpt lat="47.87953" lon="-3.057">
        <ele>170.5</ele>
        <time>2022-05-29T13:23:56Z</time>
      </trkpt>
      <trkpt lat="47.87944" lon="-3.05665">
        <ele>170.7</ele>
        <time>2022-05-29T13:24:00Z</time>
      </trkpt>
      <trkpt lat="47.87935" lon="-3.05629">
        <ele>170.2</ele>
        <time>2022-05-29T13:24:04Z</time>
      </trkpt>
      <trkpt lat="47.8792" lon="-3.05558">
        <ele>169.3</ele>
        <time>2022-05-29T13:24:11Z</time>
      </trkpt>
      <trkpt lat="47.87909" lon="-3.05488">
        <ele>168.5</ele>
        <time>2022-05-29T13:24:18Z</time>
      </trkpt>
      <trkpt lat="47.87901" lon="-3.05409">
        <ele>167.5</ele>
        <time>2022-05-29T13:24:25Z</time>
      </trkpt>
      <trkpt lat="47.87895" lon="-3.05342">
        <ele>164.8</ele>
        <time>2022-05-29T13:24:30Z</time>
      </trkpt>
      <trkpt lat="47.87889" lon="-3.053">
        <ele>162.8</ele>
        <time>2022-05-29T13:24:33Z</time>
      </trkpt>
      <trkpt lat="47.87884" lon="-3.05285">
        <ele>162.1</ele>
        <time>2022-05-29T13:24:34Z</time>
      </trkpt>
      <trkpt lat="47.87883" lon="-3.0527">
        <ele>161.6</ele>
        <time>2022-05-29T13:24:35Z</time>
      </trkpt>
      <trkpt lat="47.87877" lon="-3.05208">
        <ele>160</ele>
        <time>2022-05-29T13:24:39Z</time>
      </trkpt>
      <trkpt lat="47.87861" lon="-3.05139">
        <ele>158.1</ele>
        <time>2022-05-29T13:24:44Z</time>
      </trkpt>
      <trkpt lat="47.87858" lon="-3.05127">
        <ele>157.9</ele>
        <time>2022-05-29T13:24:45Z</time>
      </trkpt>
      <trkpt lat="47.87846" lon="-3.05072">
        <ele>157.9</ele>
        <time>2022-05-29T13:24:50Z</time>
      </trkpt>
      <trkpt lat="47.87839" lon="-3.05023">
        <ele>159</ele>
        <time>2022-05-29T13:24:55Z</time>
      </trkpt>
      <trkpt lat="47.87836" lon="-3.05004">
        <ele>159.3</ele>
        <time>2022-05-29T13:24:57Z</time>
      </trkpt>
      <trkpt lat="47.87832" lon="-3.04973">
        <ele>159.6</ele>
        <time>2022-05-29T13:25:00Z</time>
      </trkpt>
      <trkpt lat="47.87829" lon="-3.04951">
        <ele>159.4</ele>
        <time>2022-05-29T13:25:02Z</time>
      </trkpt>
      <trkpt lat="47.87829" lon="-3.04915">
        <ele>159.2</ele>
        <time>2022-05-29T13:25:05Z</time>
      </trkpt>
      <trkpt lat="47.87828" lon="-3.04879">
        <ele>158.6</ele>
        <time>2022-05-29T13:25:08Z</time>
      </trkpt>
      <trkpt lat="47.8783" lon="-3.04804">
        <ele>157.5</ele>
        <time>2022-05-29T13:25:14Z</time>
      </trkpt>
      <trkpt lat="47.87831" lon="-3.04793">
        <ele>157.4</ele>
        <time>2022-05-29T13:25:15Z</time>
      </trkpt>
      <trkpt lat="47.87835" lon="-3.0475">
        <ele>157.5</ele>
        <time>2022-05-29T13:25:19Z</time>
      </trkpt>
      <trkpt lat="47.87835" lon="-3.04742">
        <ele>157.7</ele>
        <time>2022-05-29T13:25:20Z</time>
      </trkpt>
      <trkpt lat="47.87837" lon="-3.04702">
        <ele>159.1</ele>
        <time>2022-05-29T13:25:25Z</time>
      </trkpt>
      <trkpt lat="47.87837" lon="-3.04679">
        <ele>160</ele>
        <time>2022-05-29T13:25:28Z</time>
      </trkpt>
      <trkpt lat="47.87838" lon="-3.04666">
        <ele>160.6</ele>
        <time>2022-05-29T13:25:30Z</time>
      </trkpt>
      <trkpt lat="47.87841" lon="-3.04608">
        <ele>162.5</ele>
        <time>2022-05-29T13:25:39Z</time>
      </trkpt>
      <trkpt lat="47.87842" lon="-3.04601">
        <ele>162.6</ele>
        <time>2022-05-29T13:25:40Z</time>
      </trkpt>
      <trkpt lat="47.87846" lon="-3.04536">
        <ele>163.3</ele>
        <time>2022-05-29T13:25:49Z</time>
      </trkpt>
      <trkpt lat="47.87847" lon="-3.04518">
        <ele>163.5</ele>
        <time>2022-05-29T13:25:51Z</time>
      </trkpt>
      <trkpt lat="47.87848" lon="-3.04482">
        <ele>163.8</ele>
        <time>2022-05-29T13:25:55Z</time>
      </trkpt>
      <trkpt lat="47.87849" lon="-3.04455">
        <ele>164</ele>
        <time>2022-05-29T13:25:58Z</time>
      </trkpt>
      <trkpt lat="47.87853" lon="-3.04446">
        <ele>164.1</ele>
        <time>2022-05-29T13:25:59Z</time>
      </trkpt>
      <trkpt lat="47.87859" lon="-3.0438">
        <ele>164.6</ele>
        <time>2022-05-29T13:26:06Z</time>
      </trkpt>
      <trkpt lat="47.87858" lon="-3.0437">
        <ele>164.7</ele>
        <time>2022-05-29T13:26:07Z</time>
      </trkpt>
      <trkpt lat="47.87855" lon="-3.0436">
        <ele>164.7</ele>
        <time>2022-05-29T13:26:08Z</time>
      </trkpt>
      <trkpt lat="47.87859" lon="-3.0429">
        <ele>165.5</ele>
        <time>2022-05-29T13:26:17Z</time>
      </trkpt>
      <trkpt lat="47.87857" lon="-3.04257">
        <ele>166.8</ele>
        <time>2022-05-29T13:26:22Z</time>
      </trkpt>
      <trkpt lat="47.87855" lon="-3.04225">
        <ele>167.6</ele>
        <time>2022-05-29T13:26:27Z</time>
      </trkpt>
      <trkpt lat="47.87854" lon="-3.04218">
        <ele>167.7</ele>
        <time>2022-05-29T13:26:28Z</time>
      </trkpt>
      <trkpt lat="47.87851" lon="-3.04186">
        <ele>167.8</ele>
        <time>2022-05-29T13:26:32Z</time>
      </trkpt>
      <trkpt lat="47.87846" lon="-3.04145">
        <ele>167.2</ele>
        <time>2022-05-29T13:26:37Z</time>
      </trkpt>
      <trkpt lat="47.87839" lon="-3.04073">
        <ele>166.3</ele>
        <time>2022-05-29T13:26:44Z</time>
      </trkpt>
      <trkpt lat="47.87836" lon="-3.0404">
        <ele>166</ele>
        <time>2022-05-29T13:26:47Z</time>
      </trkpt>
      <trkpt lat="47.87832" lon="-3.04006">
        <ele>165.6</ele>
        <time>2022-05-29T13:26:50Z</time>
      </trkpt>
      <trkpt lat="47.87825" lon="-3.03935">
        <ele>164.9</ele>
        <time>2022-05-29T13:26:56Z</time>
      </trkpt>
      <trkpt lat="47.87825" lon="-3.03924">
        <ele>164.7</ele>
        <time>2022-05-29T13:26:57Z</time>
      </trkpt>
      <trkpt lat="47.87821" lon="-3.03865">
        <ele>163.8</ele>
        <time>2022-05-29T13:27:02Z</time>
      </trkpt>
      <trkpt lat="47.87818" lon="-3.03796">
        <ele>163.6</ele>
        <time>2022-05-29T13:27:08Z</time>
      </trkpt>
      <trkpt lat="47.87818" lon="-3.03754">
        <ele>163.6</ele>
        <time>2022-05-29T13:27:12Z</time>
      </trkpt>
      <trkpt lat="47.87817" lon="-3.03723">
        <ele>164</ele>
        <time>2022-05-29T13:27:15Z</time>
      </trkpt>
      <trkpt lat="47.87816" lon="-3.03663">
        <ele>165</ele>
        <time>2022-05-29T13:27:22Z</time>
      </trkpt>
      <trkpt lat="47.87816" lon="-3.03655">
        <ele>165.2</ele>
        <time>2022-05-29T13:27:23Z</time>
      </trkpt>
      <trkpt lat="47.87814" lon="-3.03587">
        <ele>166.4</ele>
        <time>2022-05-29T13:27:32Z</time>
      </trkpt>
      <trkpt lat="47.87813" lon="-3.03579">
        <ele>166.5</ele>
        <time>2022-05-29T13:27:33Z</time>
      </trkpt>
      <trkpt lat="47.87812" lon="-3.03543">
        <ele>166.9</ele>
        <time>2022-05-29T13:27:37Z</time>
      </trkpt>
      <trkpt lat="47.87812" lon="-3.03506">
        <ele>166</ele>
        <time>2022-05-29T13:27:41Z</time>
      </trkpt>
      <trkpt lat="47.87811" lon="-3.03439">
        <ele>164.6</ele>
        <time>2022-05-29T13:27:47Z</time>
      </trkpt>
      <trkpt lat="47.87808" lon="-3.03379">
        <ele>163.6</ele>
        <time>2022-05-29T13:27:52Z</time>
      </trkpt>
      <trkpt lat="47.87807" lon="-3.03366">
        <ele>163.3</ele>
        <time>2022-05-29T13:27:53Z</time>
      </trkpt>
      <trkpt lat="47.87802" lon="-3.03316">
        <ele>162.5</ele>
        <time>2022-05-29T13:27:57Z</time>
      </trkpt>
      <trkpt lat="47.87799" lon="-3.03291">
        <ele>161.8</ele>
        <time>2022-05-29T13:27:59Z</time>
      </trkpt>
      <trkpt lat="47.87794" lon="-3.03264">
        <ele>161.2</ele>
        <time>2022-05-29T13:28:01Z</time>
      </trkpt>
      <trkpt lat="47.87791" lon="-3.0325">
        <ele>160.9</ele>
        <time>2022-05-29T13:28:02Z</time>
      </trkpt>
      <trkpt lat="47.87778" lon="-3.03198">
        <ele>160</ele>
        <time>2022-05-29T13:28:06Z</time>
      </trkpt>
      <trkpt lat="47.87763" lon="-3.03127">
        <ele>158.6</ele>
        <time>2022-05-29T13:28:12Z</time>
      </trkpt>
      <trkpt lat="47.87761" lon="-3.03115">
        <ele>158.4</ele>
        <time>2022-05-29T13:28:13Z</time>
      </trkpt>
      <trkpt lat="47.87754" lon="-3.03081">
        <ele>158.2</ele>
        <time>2022-05-29T13:28:16Z</time>
      </trkpt>
      <trkpt lat="47.87749" lon="-3.03061">
        <ele>158.1</ele>
        <time>2022-05-29T13:28:18Z</time>
      </trkpt>
      <trkpt lat="47.87736" lon="-3.03011">
        <ele>159.4</ele>
        <time>2022-05-29T13:28:23Z</time>
      </trkpt>
      <trkpt lat="47.87725" lon="-3.02974">
        <ele>160.7</ele>
        <time>2022-05-29T13:28:28Z</time>
      </trkpt>
      <trkpt lat="47.87716" lon="-3.02944">
        <ele>162</ele>
        <time>2022-05-29T13:28:32Z</time>
      </trkpt>
      <trkpt lat="47.87712" lon="-3.02925">
        <ele>163</ele>
        <time>2022-05-29T13:28:35Z</time>
      </trkpt>
      <trkpt lat="47.87705" lon="-3.02907">
        <ele>163.9</ele>
        <time>2022-05-29T13:28:38Z</time>
      </trkpt>
      <trkpt lat="47.87695" lon="-3.02876">
        <ele>164.5</ele>
        <time>2022-05-29T13:28:43Z</time>
      </trkpt>
      <trkpt lat="47.87691" lon="-3.02864">
        <ele>164.6</ele>
        <time>2022-05-29T13:28:45Z</time>
      </trkpt>
      <trkpt lat="47.87677" lon="-3.02822">
        <ele>165</ele>
        <time>2022-05-29T13:28:51Z</time>
      </trkpt>
      <trkpt lat="47.8767" lon="-3.02807">
        <ele>165</ele>
        <time>2022-05-29T13:28:53Z</time>
      </trkpt>
      <trkpt lat="47.87664" lon="-3.0279">
        <ele>164.7</ele>
        <time>2022-05-29T13:28:55Z</time>
      </trkpt>
      <trkpt lat="47.87642" lon="-3.02721">
        <ele>163.6</ele>
        <time>2022-05-29T13:29:02Z</time>
      </trkpt>
      <trkpt lat="47.87639" lon="-3.0271">
        <ele>163.3</ele>
        <time>2022-05-29T13:29:03Z</time>
      </trkpt>
      <trkpt lat="47.8762" lon="-3.02658">
        <ele>161.6</ele>
        <time>2022-05-29T13:29:08Z</time>
      </trkpt>
      <trkpt lat="47.87596" lon="-3.02602">
        <ele>159.8</ele>
        <time>2022-05-29T13:29:13Z</time>
      </trkpt>
      <trkpt lat="47.87591" lon="-3.02592">
        <ele>159.5</ele>
        <time>2022-05-29T13:29:14Z</time>
      </trkpt>
      <trkpt lat="47.87569" lon="-3.02555">
        <ele>158.1</ele>
        <time>2022-05-29T13:29:18Z</time>
      </trkpt>
      <trkpt lat="47.87556" lon="-3.02533">
        <ele>157.1</ele>
        <time>2022-05-29T13:29:21Z</time>
      </trkpt>
      <trkpt lat="47.87566" lon="-3.02512">
        <ele>156.6</ele>
        <time>2022-05-29T13:29:23Z</time>
      </trkpt>
      <trkpt lat="47.87576" lon="-3.02495">
        <ele>156.7</ele>
        <time>2022-05-29T13:29:25Z</time>
      </trkpt>
      <trkpt lat="47.87577" lon="-3.02489">
        <ele>156.7</ele>
        <time>2022-05-29T13:29:26Z</time>
      </trkpt>
      <trkpt lat="47.87571" lon="-3.02476">
        <ele>156.7</ele>
        <time>2022-05-29T13:29:27Z</time>
      </trkpt>
      <trkpt lat="47.8757" lon="-3.02468">
        <ele>156.8</ele>
        <time>2022-05-29T13:29:28Z</time>
      </trkpt>
      <trkpt lat="47.87562" lon="-3.02406">
        <ele>158.3</ele>
        <time>2022-05-29T13:29:36Z</time>
      </trkpt>
      <trkpt lat="47.8756" lon="-3.02392">
        <ele>158.7</ele>
        <time>2022-05-29T13:29:38Z</time>
      </trkpt>
      <trkpt lat="47.87552" lon="-3.02336">
        <ele>160.7</ele>
        <time>2022-05-29T13:29:46Z</time>
      </trkpt>
      <trkpt lat="47.87547" lon="-3.02301">
        <ele>162.5</ele>
        <time>2022-05-29T13:29:53Z</time>
      </trkpt>
      <trkpt lat="47.87542" lon="-3.02271">
        <ele>164.1</ele>
        <time>2022-05-29T13:29:59Z</time>
      </trkpt>
      <trkpt lat="47.8754" lon="-3.02248">
        <ele>165.5</ele>
        <time>2022-05-29T13:30:04Z</time>
      </trkpt>
      <trkpt lat="47.87538" lon="-3.02234">
        <ele>166.3</ele>
        <time>2022-05-29T13:30:07Z</time>
      </trkpt>
      <trkpt lat="47.87532" lon="-3.02183">
        <ele>170</ele>
        <time>2022-05-29T13:30:20Z</time>
      </trkpt>
      <trkpt lat="47.87531" lon="-3.02171">
        <ele>170.5</ele>
        <time>2022-05-29T13:30:23Z</time>
      </trkpt>
      <trkpt lat="47.87532" lon="-3.02163">
        <ele>170.9</ele>
        <time>2022-05-29T13:30:25Z</time>
      </trkpt>
      <trkpt lat="47.87531" lon="-3.02144">
        <ele>171.9</ele>
        <time>2022-05-29T13:30:30Z</time>
      </trkpt>
      <trkpt lat="47.87528" lon="-3.02107">
        <ele>174.8</ele>
        <time>2022-05-29T13:30:40Z</time>
      </trkpt>
      <trkpt lat="47.87527" lon="-3.02092">
        <ele>175.8</ele>
        <time>2022-05-29T13:30:44Z</time>
      </trkpt>
      <trkpt lat="47.87526" lon="-3.02046">
        <ele>178.6</ele>
        <time>2022-05-29T13:30:55Z</time>
      </trkpt>
      <trkpt lat="47.87525" lon="-3.02025">
        <ele>179.3</ele>
        <time>2022-05-29T13:31:00Z</time>
      </trkpt>
      <trkpt lat="47.87523" lon="-3.01987">
        <ele>180.7</ele>
        <time>2022-05-29T13:31:10Z</time>
      </trkpt>
      <trkpt lat="47.87524" lon="-3.01983">
        <ele>180.6</ele>
        <time>2022-05-29T13:31:11Z</time>
      </trkpt>
      <trkpt lat="47.87549" lon="-3.01923">
        <ele>180</ele>
        <time>2022-05-29T13:31:24Z</time>
      </trkpt>
      <trkpt lat="47.87549" lon="-3.01916">
        <ele>180</ele>
        <time>2022-05-29T13:31:25Z</time>
      </trkpt>
      <trkpt lat="47.87546" lon="-3.01912">
        <ele>179.9</ele>
        <time>2022-05-29T13:31:26Z</time>
      </trkpt>
      <trkpt lat="47.87542" lon="-3.01911">
        <ele>179.9</ele>
        <time>2022-05-29T13:31:27Z</time>
      </trkpt>
      <trkpt lat="47.87539" lon="-3.01913">
        <ele>179.8</ele>
        <time>2022-05-29T13:31:28Z</time>
      </trkpt>
      <trkpt lat="47.87532" lon="-3.01911">
        <ele>179.7</ele>
        <time>2022-05-29T13:31:30Z</time>
      </trkpt>
      <trkpt lat="47.87517" lon="-3.01907">
        <ele>179.9</ele>
        <time>2022-05-29T13:31:35Z</time>
      </trkpt>
      <trkpt lat="47.87501" lon="-3.01904">
        <ele>180.3</ele>
        <time>2022-05-29T13:31:43Z</time>
      </trkpt>
      <trkpt lat="47.87501" lon="-3.01904">
        <ele>180.3</ele>
        <time>2022-05-29T13:32:13Z</time>
      </trkpt>
      <trkpt lat="47.87503" lon="-3.01906">
        <ele>181.3</ele>
        <time>2022-05-29T13:32:16Z</time>
      </trkpt>
      <trkpt lat="47.87508" lon="-3.01906">
        <ele>181.4</ele>
        <time>2022-05-29T13:32:18Z</time>
      </trkpt>
      <trkpt lat="47.87517" lon="-3.01909">
        <ele>181.6</ele>
        <time>2022-05-29T13:32:21Z</time>
      </trkpt>
      <trkpt lat="47.87531" lon="-3.01914">
        <ele>181.6</ele>
        <time>2022-05-29T13:32:26Z</time>
      </trkpt>
      <trkpt lat="47.87548" lon="-3.01919">
        <ele>180.7</ele>
        <time>2022-05-29T13:32:32Z</time>
      </trkpt>
      <trkpt lat="47.87548" lon="-3.01911">
        <ele>180</ele>
        <time>2022-05-29T13:32:36Z</time>
      </trkpt>
      <trkpt lat="47.87559" lon="-3.01862">
        <ele>178</ele>
        <time>2022-05-29T13:32:41Z</time>
      </trkpt>
      <trkpt lat="47.87564" lon="-3.01795">
        <ele>175.7</ele>
        <time>2022-05-29T13:32:47Z</time>
      </trkpt>
      <trkpt lat="47.87572" lon="-3.0174">
        <ele>174.2</ele>
        <time>2022-05-29T13:32:51Z</time>
      </trkpt>
      <trkpt lat="47.87573" lon="-3.01729">
        <ele>174</ele>
        <time>2022-05-29T13:32:52Z</time>
      </trkpt>
      <trkpt lat="47.87576" lon="-3.01671">
        <ele>172.3</ele>
        <time>2022-05-29T13:33:01Z</time>
      </trkpt>
      <trkpt lat="47.87577" lon="-3.01659">
        <ele>172.6</ele>
        <time>2022-05-29T13:33:03Z</time>
      </trkpt>
      <trkpt lat="47.87578" lon="-3.0164">
        <ele>173.1</ele>
        <time>2022-05-29T13:33:06Z</time>
      </trkpt>
      <trkpt lat="47.87577" lon="-3.01628">
        <ele>173.5</ele>
        <time>2022-05-29T13:33:08Z</time>
      </trkpt>
      <trkpt lat="47.87575" lon="-3.01622">
        <ele>173.7</ele>
        <time>2022-05-29T13:33:09Z</time>
      </trkpt>
      <trkpt lat="47.87575" lon="-3.01612">
        <ele>174.1</ele>
        <time>2022-05-29T13:33:11Z</time>
      </trkpt>
      <trkpt lat="47.87574" lon="-3.01578">
        <ele>175.5</ele>
        <time>2022-05-29T13:33:18Z</time>
      </trkpt>
      <trkpt lat="47.87555" lon="-3.01541">
        <ele>177.2</ele>
        <time>2022-05-29T13:33:27Z</time>
      </trkpt>
      <trkpt lat="47.87552" lon="-3.01527">
        <ele>178</ele>
        <time>2022-05-29T13:33:31Z</time>
      </trkpt>
      <trkpt lat="47.87548" lon="-3.01509">
        <ele>179.5</ele>
        <time>2022-05-29T13:33:36Z</time>
      </trkpt>
      <trkpt lat="47.87541" lon="-3.01477">
        <ele>182.3</ele>
        <time>2022-05-29T13:33:45Z</time>
      </trkpt>
      <trkpt lat="47.8754" lon="-3.01473">
        <ele>182.6</ele>
        <time>2022-05-29T13:33:46Z</time>
      </trkpt>
      <trkpt lat="47.87538" lon="-3.01456">
        <ele>184</ele>
        <time>2022-05-29T13:33:51Z</time>
      </trkpt>
      <trkpt lat="47.87535" lon="-3.01439">
        <ele>185.9</ele>
        <time>2022-05-29T13:33:56Z</time>
      </trkpt>
      <trkpt lat="47.87531" lon="-3.01407">
        <ele>188</ele>
        <time>2022-05-29T13:34:05Z</time>
      </trkpt>
      <trkpt lat="47.8753" lon="-3.01403">
        <ele>188.2</ele>
        <time>2022-05-29T13:34:06Z</time>
      </trkpt>
      <trkpt lat="47.87525" lon="-3.01335">
        <ele>189.8</ele>
        <time>2022-05-29T13:34:21Z</time>
      </trkpt>
      <trkpt lat="47.87524" lon="-3.01324">
        <ele>190</ele>
        <time>2022-05-29T13:34:23Z</time>
      </trkpt>
      <trkpt lat="47.87521" lon="-3.01265">
        <ele>191.3</ele>
        <time>2022-05-29T13:34:33Z</time>
      </trkpt>
      <trkpt lat="47.87518" lon="-3.01233">
        <ele>191</ele>
        <time>2022-05-29T13:34:38Z</time>
      </trkpt>
      <trkpt lat="47.87516" lon="-3.01227">
        <ele>190.7</ele>
        <time>2022-05-29T13:34:39Z</time>
      </trkpt>
      <trkpt lat="47.87488" lon="-3.01166">
        <ele>188.7</ele>
        <time>2022-05-29T13:34:47Z</time>
      </trkpt>
      <trkpt lat="47.87484" lon="-3.01155">
        <ele>188.4</ele>
        <time>2022-05-29T13:34:48Z</time>
      </trkpt>
      <trkpt lat="47.87465" lon="-3.01103">
        <ele>186.6</ele>
        <time>2022-05-29T13:34:53Z</time>
      </trkpt>
      <trkpt lat="47.8745" lon="-3.01031">
        <ele>185.1</ele>
        <time>2022-05-29T13:34:59Z</time>
      </trkpt>
      <trkpt lat="47.8744" lon="-3.00998">
        <ele>184.4</ele>
        <time>2022-05-29T13:35:02Z</time>
      </trkpt>
      <trkpt lat="47.87428" lon="-3.00992">
        <ele>184.2</ele>
        <time>2022-05-29T13:35:03Z</time>
      </trkpt>
      <trkpt lat="47.8741" lon="-3.00931">
        <ele>182.6</ele>
        <time>2022-05-29T13:35:09Z</time>
      </trkpt>
      <trkpt lat="47.87371" lon="-3.00875">
        <ele>180.8</ele>
        <time>2022-05-29T13:35:16Z</time>
      </trkpt>
      <trkpt lat="47.87337" lon="-3.00831">
        <ele>179.5</ele>
        <time>2022-05-29T13:35:21Z</time>
      </trkpt>
      <trkpt lat="47.87323" lon="-3.00805">
        <ele>178.7</ele>
        <time>2022-05-29T13:35:23Z</time>
      </trkpt>
      <trkpt lat="47.87302" lon="-3.00766">
        <ele>176.3</ele>
        <time>2022-05-29T13:35:26Z</time>
      </trkpt>
      <trkpt lat="47.87287" lon="-3.00737">
        <ele>174.5</ele>
        <time>2022-05-29T13:35:28Z</time>
      </trkpt>
      <trkpt lat="47.87272" lon="-3.0071">
        <ele>172.4</ele>
        <time>2022-05-29T13:35:30Z</time>
      </trkpt>
      <trkpt lat="47.87248" lon="-3.00681">
        <ele>169.2</ele>
        <time>2022-05-29T13:35:33Z</time>
      </trkpt>
      <trkpt lat="47.87233" lon="-3.00664">
        <ele>167.3</ele>
        <time>2022-05-29T13:35:35Z</time>
      </trkpt>
      <trkpt lat="47.87231" lon="-3.00659">
        <ele>166.3</ele>
        <time>2022-05-29T13:35:36Z</time>
      </trkpt>
      <trkpt lat="47.8723" lon="-3.00655">
        <ele>165.4</ele>
        <time>2022-05-29T13:35:37Z</time>
      </trkpt>
      <trkpt lat="47.8723" lon="-3.0065">
        <ele>164.7</ele>
        <time>2022-05-29T13:35:38Z</time>
      </trkpt>
      <trkpt lat="47.87234" lon="-3.00638">
        <ele>164.5</ele>
        <time>2022-05-29T13:35:39Z</time>
      </trkpt>
      <trkpt lat="47.87246" lon="-3.00563">
        <ele>162.9</ele>
        <time>2022-05-29T13:35:47Z</time>
      </trkpt>
      <trkpt lat="47.87256" lon="-3.00507">
        <ele>161.9</ele>
        <time>2022-05-29T13:35:53Z</time>
      </trkpt>
      <trkpt lat="47.87257" lon="-3.00499">
        <ele>162.1</ele>
        <time>2022-05-29T13:35:54Z</time>
      </trkpt>
      <trkpt lat="47.87261" lon="-3.00477">
        <ele>163.1</ele>
        <time>2022-05-29T13:35:58Z</time>
      </trkpt>
      <trkpt lat="47.87264" lon="-3.00461">
        <ele>164.2</ele>
        <time>2022-05-29T13:36:01Z</time>
      </trkpt>
      <trkpt lat="47.87266" lon="-3.00453">
        <ele>164.9</ele>
        <time>2022-05-29T13:36:03Z</time>
      </trkpt>
      <trkpt lat="47.87278" lon="-3.00396">
        <ele>168.4</ele>
        <time>2022-05-29T13:36:16Z</time>
      </trkpt>
      <trkpt lat="47.87281" lon="-3.00383">
        <ele>169.2</ele>
        <time>2022-05-29T13:36:19Z</time>
      </trkpt>
      <trkpt lat="47.8729" lon="-3.00335">
        <ele>171.6</ele>
        <time>2022-05-29T13:36:30Z</time>
      </trkpt>
      <trkpt lat="47.87291" lon="-3.0033">
        <ele>171.7</ele>
        <time>2022-05-29T13:36:31Z</time>
      </trkpt>
      <trkpt lat="47.87298" lon="-3.00292">
        <ele>172.5</ele>
        <time>2022-05-29T13:36:40Z</time>
      </trkpt>
      <trkpt lat="47.87303" lon="-3.00261">
        <ele>172.2</ele>
        <time>2022-05-29T13:36:47Z</time>
      </trkpt>
      <trkpt lat="47.87293" lon="-3.00188">
        <ele>171.7</ele>
        <time>2022-05-29T13:36:57Z</time>
      </trkpt>
      <trkpt lat="47.87289" lon="-3.00179">
        <ele>171.7</ele>
        <time>2022-05-29T13:36:58Z</time>
      </trkpt>
      <trkpt lat="47.87294" lon="-3.00165">
        <ele>171.7</ele>
        <time>2022-05-29T13:36:59Z</time>
      </trkpt>
      <trkpt lat="47.87286" lon="-3.00104">
        <ele>171.4</ele>
        <time>2022-05-29T13:37:05Z</time>
      </trkpt>
      <trkpt lat="47.87285" lon="-3.00094">
        <ele>171.3</ele>
        <time>2022-05-29T13:37:06Z</time>
      </trkpt>
      <trkpt lat="47.87277" lon="-3.00025">
        <ele>170.7</ele>
        <time>2022-05-29T13:37:13Z</time>
      </trkpt>
      <trkpt lat="47.87272" lon="-2.99978">
        <ele>170.2</ele>
        <time>2022-05-29T13:37:19Z</time>
      </trkpt>
      <trkpt lat="47.87275" lon="-2.9997">
        <ele>170</ele>
        <time>2022-05-29T13:37:21Z</time>
      </trkpt>
      <trkpt lat="47.87285" lon="-2.99962">
        <ele>169.8</ele>
        <time>2022-05-29T13:37:25Z</time>
      </trkpt>
      <trkpt lat="47.87289" lon="-2.99958">
        <ele>170.2</ele>
        <time>2022-05-29T13:37:27Z</time>
      </trkpt>
      <trkpt lat="47.87289" lon="-2.99946">
        <ele>170.8</ele>
        <time>2022-05-29T13:37:30Z</time>
      </trkpt>
      <trkpt lat="47.87256" lon="-2.99899">
        <ele>171.3</ele>
        <time>2022-05-29T13:37:40Z</time>
      </trkpt>
      <trkpt lat="47.87253" lon="-2.99895">
        <ele>171.2</ele>
        <time>2022-05-29T13:37:41Z</time>
      </trkpt>
      <trkpt lat="47.87211" lon="-2.99853">
        <ele>170.3</ele>
        <time>2022-05-29T13:37:50Z</time>
      </trkpt>
      <trkpt lat="47.87163" lon="-2.99832">
        <ele>169.5</ele>
        <time>2022-05-29T13:37:59Z</time>
      </trkpt>
      <trkpt lat="47.87119" lon="-2.99809">
        <ele>168.6</ele>
        <time>2022-05-29T13:38:08Z</time>
      </trkpt>
      <trkpt lat="47.87075" lon="-2.99785">
        <ele>167.8</ele>
        <time>2022-05-29T13:38:17Z</time>
      </trkpt>
      <trkpt lat="47.87019" lon="-2.99744">
        <ele>165.1</ele>
        <time>2022-05-29T13:38:26Z</time>
      </trkpt>
      <trkpt lat="47.87019" lon="-2.99744">
        <ele>165.1</ele>
        <time>2022-05-29T13:42:43Z</time>
      </trkpt>
      <trkpt lat="47.86977" lon="-2.99711">
        <ele>162.7</ele>
        <time>2022-05-29T13:42:47Z</time>
      </trkpt>
      <trkpt lat="47.86971" lon="-2.99711">
        <ele>162.7</ele>
        <time>2022-05-29T13:42:48Z</time>
      </trkpt>
      <trkpt lat="47.86964" lon="-2.99712">
        <ele>162.7</ele>
        <time>2022-05-29T13:42:49Z</time>
      </trkpt>
      <trkpt lat="47.86952" lon="-2.99704">
        <ele>162.7</ele>
        <time>2022-05-29T13:42:51Z</time>
      </trkpt>
      <trkpt lat="47.86918" lon="-2.9968">
        <ele>161.9</ele>
        <time>2022-05-29T13:42:57Z</time>
      </trkpt>
      <trkpt lat="47.86872" lon="-2.99649">
        <ele>160.8</ele>
        <time>2022-05-29T13:43:05Z</time>
      </trkpt>
      <trkpt lat="47.86845" lon="-2.99631">
        <ele>160.1</ele>
        <time>2022-05-29T13:43:11Z</time>
      </trkpt>
      <trkpt lat="47.86827" lon="-2.9962">
        <ele>160.5</ele>
        <time>2022-05-29T13:43:15Z</time>
      </trkpt>
      <trkpt lat="47.86823" lon="-2.99613">
        <ele>160.6</ele>
        <time>2022-05-29T13:43:16Z</time>
      </trkpt>
      <trkpt lat="47.8682" lon="-2.99604">
        <ele>160.7</ele>
        <time>2022-05-29T13:43:17Z</time>
      </trkpt>
      <trkpt lat="47.86774" lon="-2.99578">
        <ele>161.5</ele>
        <time>2022-05-29T13:43:26Z</time>
      </trkpt>
      <trkpt lat="47.86746" lon="-2.99567">
        <ele>161.9</ele>
        <time>2022-05-29T13:43:31Z</time>
      </trkpt>
      <trkpt lat="47.86729" lon="-2.99561">
        <ele>161.7</ele>
        <time>2022-05-29T13:43:34Z</time>
      </trkpt>
      <trkpt lat="47.86715" lon="-2.99556">
        <ele>161.5</ele>
        <time>2022-05-29T13:43:36Z</time>
      </trkpt>
      <trkpt lat="47.86681" lon="-2.99543">
        <ele>160.2</ele>
        <time>2022-05-29T13:43:41Z</time>
      </trkpt>
      <trkpt lat="47.86641" lon="-2.99528">
        <ele>158.8</ele>
        <time>2022-05-29T13:43:46Z</time>
      </trkpt>
      <trkpt lat="47.86633" lon="-2.99523">
        <ele>158.3</ele>
        <time>2022-05-29T13:43:47Z</time>
      </trkpt>
      <trkpt lat="47.8661" lon="-2.99505">
        <ele>156.6</ele>
        <time>2022-05-29T13:43:50Z</time>
      </trkpt>
      <trkpt lat="47.86602" lon="-2.99496">
        <ele>156.1</ele>
        <time>2022-05-29T13:43:51Z</time>
      </trkpt>
      <trkpt lat="47.86582" lon="-2.99476">
        <ele>155.1</ele>
        <time>2022-05-29T13:43:53Z</time>
      </trkpt>
      <trkpt lat="47.86577" lon="-2.99458">
        <ele>154.7</ele>
        <time>2022-05-29T13:43:54Z</time>
      </trkpt>
      <trkpt lat="47.86576" lon="-2.99422">
        <ele>153.7</ele>
        <time>2022-05-29T13:43:56Z</time>
      </trkpt>
      <trkpt lat="47.86588" lon="-2.99344">
        <ele>151.3</ele>
        <time>2022-05-29T13:44:01Z</time>
      </trkpt>
      <trkpt lat="47.86594" lon="-2.99289">
        <ele>148.8</ele>
        <time>2022-05-29T13:44:05Z</time>
      </trkpt>
      <trkpt lat="47.86594" lon="-2.99273">
        <ele>148.2</ele>
        <time>2022-05-29T13:44:06Z</time>
      </trkpt>
      <trkpt lat="47.86594" lon="-2.99225">
        <ele>146.4</ele>
        <time>2022-05-29T13:44:09Z</time>
      </trkpt>
      <trkpt lat="47.86588" lon="-2.99192">
        <ele>145.2</ele>
        <time>2022-05-29T13:44:11Z</time>
      </trkpt>
      <trkpt lat="47.86571" lon="-2.99147">
        <ele>143.5</ele>
        <time>2022-05-29T13:44:14Z</time>
      </trkpt>
      <trkpt lat="47.86536" lon="-2.99088">
        <ele>140.7</ele>
        <time>2022-05-29T13:44:19Z</time>
      </trkpt>
      <trkpt lat="47.86521" lon="-2.99066">
        <ele>139.7</ele>
        <time>2022-05-29T13:44:21Z</time>
      </trkpt>
      <trkpt lat="47.865" lon="-2.99034">
        <ele>139</ele>
        <time>2022-05-29T13:44:24Z</time>
      </trkpt>
      <trkpt lat="47.86464" lon="-2.98977">
        <ele>137.8</ele>
        <time>2022-05-29T13:44:30Z</time>
      </trkpt>
      <trkpt lat="47.86459" lon="-2.98968">
        <ele>137.6</ele>
        <time>2022-05-29T13:44:31Z</time>
      </trkpt>
      <trkpt lat="47.86432" lon="-2.98924">
        <ele>137.8</ele>
        <time>2022-05-29T13:44:36Z</time>
      </trkpt>
      <trkpt lat="47.86427" lon="-2.98916">
        <ele>137.8</ele>
        <time>2022-05-29T13:44:37Z</time>
      </trkpt>
      <trkpt lat="47.86416" lon="-2.98899">
        <ele>137.9</ele>
        <time>2022-05-29T13:44:39Z</time>
      </trkpt>
      <trkpt lat="47.86383" lon="-2.98843">
        <ele>138.4</ele>
        <time>2022-05-29T13:44:46Z</time>
      </trkpt>
      <trkpt lat="47.86369" lon="-2.98809">
        <ele>138.7</ele>
        <time>2022-05-29T13:44:50Z</time>
      </trkpt>
      <trkpt lat="47.86357" lon="-2.98779">
        <ele>139</ele>
        <time>2022-05-29T13:44:54Z</time>
      </trkpt>
      <trkpt lat="47.86345" lon="-2.98748">
        <ele>139.2</ele>
        <time>2022-05-29T13:44:58Z</time>
      </trkpt>
      <trkpt lat="47.86326" lon="-2.987">
        <ele>139.6</ele>
        <time>2022-05-29T13:45:04Z</time>
      </trkpt>
      <trkpt lat="47.8632" lon="-2.98684">
        <ele>140</ele>
        <time>2022-05-29T13:45:06Z</time>
      </trkpt>
      <trkpt lat="47.86297" lon="-2.98625">
        <ele>141.6</ele>
        <time>2022-05-29T13:45:14Z</time>
      </trkpt>
      <trkpt lat="47.86273" lon="-2.9856">
        <ele>142.9</ele>
        <time>2022-05-29T13:45:24Z</time>
      </trkpt>
      <trkpt lat="47.86262" lon="-2.98526">
        <ele>143.6</ele>
        <time>2022-05-29T13:45:29Z</time>
      </trkpt>
      <trkpt lat="47.86254" lon="-2.98499">
        <ele>144.1</ele>
        <time>2022-05-29T13:45:33Z</time>
      </trkpt>
      <trkpt lat="47.86247" lon="-2.98459">
        <ele>144.9</ele>
        <time>2022-05-29T13:45:39Z</time>
      </trkpt>
      <trkpt lat="47.86244" lon="-2.98439">
        <ele>145.3</ele>
        <time>2022-05-29T13:45:42Z</time>
      </trkpt>
      <trkpt lat="47.86244" lon="-2.98425">
        <ele>145.5</ele>
        <time>2022-05-29T13:45:44Z</time>
      </trkpt>
      <trkpt lat="47.86234" lon="-2.98354">
        <ele>146.8</ele>
        <time>2022-05-29T13:45:54Z</time>
      </trkpt>
      <trkpt lat="47.8623" lon="-2.98314">
        <ele>147.3</ele>
        <time>2022-05-29T13:45:59Z</time>
      </trkpt>
      <trkpt lat="47.86228" lon="-2.98298">
        <ele>147.2</ele>
        <time>2022-05-29T13:46:01Z</time>
      </trkpt>
      <trkpt lat="47.86225" lon="-2.98251">
        <ele>146.8</ele>
        <time>2022-05-29T13:46:07Z</time>
      </trkpt>
      <trkpt lat="47.86222" lon="-2.98244">
        <ele>146.7</ele>
        <time>2022-05-29T13:46:08Z</time>
      </trkpt>
      <trkpt lat="47.86216" lon="-2.98167">
        <ele>146.1</ele>
        <time>2022-05-29T13:46:16Z</time>
      </trkpt>
      <trkpt lat="47.8621" lon="-2.98097">
        <ele>145.7</ele>
        <time>2022-05-29T13:46:22Z</time>
      </trkpt>
      <trkpt lat="47.86207" lon="-2.98073">
        <ele>145.5</ele>
        <time>2022-05-29T13:46:24Z</time>
      </trkpt>
      <trkpt lat="47.86206" lon="-2.98061">
        <ele>145.2</ele>
        <time>2022-05-29T13:46:25Z</time>
      </trkpt>
      <trkpt lat="47.86205" lon="-2.98037">
        <ele>144.6</ele>
        <time>2022-05-29T13:46:27Z</time>
      </trkpt>
      <trkpt lat="47.86202" lon="-2.98013">
        <ele>144.1</ele>
        <time>2022-05-29T13:46:29Z</time>
      </trkpt>
      <trkpt lat="47.86197" lon="-2.97967">
        <ele>143.8</ele>
        <time>2022-05-29T13:46:33Z</time>
      </trkpt>
      <trkpt lat="47.86197" lon="-2.97956">
        <ele>143.8</ele>
        <time>2022-05-29T13:46:34Z</time>
      </trkpt>
      <trkpt lat="47.86192" lon="-2.97901">
        <ele>143.7</ele>
        <time>2022-05-29T13:46:39Z</time>
      </trkpt>
      <trkpt lat="47.86192" lon="-2.97889">
        <ele>143.4</ele>
        <time>2022-05-29T13:46:40Z</time>
      </trkpt>
      <trkpt lat="47.86194" lon="-2.97813">
        <ele>141.9</ele>
        <time>2022-05-29T13:46:46Z</time>
      </trkpt>
      <trkpt lat="47.86203" lon="-2.97773">
        <ele>141.1</ele>
        <time>2022-05-29T13:46:49Z</time>
      </trkpt>
      <trkpt lat="47.86209" lon="-2.97747">
        <ele>140.6</ele>
        <time>2022-05-29T13:46:51Z</time>
      </trkpt>
      <trkpt lat="47.86228" lon="-2.97685">
        <ele>139.4</ele>
        <time>2022-05-29T13:46:56Z</time>
      </trkpt>
      <trkpt lat="47.86247" lon="-2.97628">
        <ele>138.3</ele>
        <time>2022-05-29T13:47:01Z</time>
      </trkpt>
      <trkpt lat="47.86258" lon="-2.97569">
        <ele>138.2</ele>
        <time>2022-05-29T13:47:06Z</time>
      </trkpt>
      <trkpt lat="47.8626" lon="-2.97558">
        <ele>138.3</ele>
        <time>2022-05-29T13:47:07Z</time>
      </trkpt>
      <trkpt lat="47.86261" lon="-2.9749">
        <ele>138.8</ele>
        <time>2022-05-29T13:47:13Z</time>
      </trkpt>
      <trkpt lat="47.86244" lon="-2.9742">
        <ele>139.4</ele>
        <time>2022-05-29T13:47:20Z</time>
      </trkpt>
      <trkpt lat="47.86219" lon="-2.97361">
        <ele>139.9</ele>
        <time>2022-05-29T13:47:27Z</time>
      </trkpt>
      <trkpt lat="47.86196" lon="-2.97301">
        <ele>140.5</ele>
        <time>2022-05-29T13:47:34Z</time>
      </trkpt>
      <trkpt lat="47.86176" lon="-2.97233">
        <ele>141.2</ele>
        <time>2022-05-29T13:47:43Z</time>
      </trkpt>
      <trkpt lat="47.86172" lon="-2.97211">
        <ele>141.5</ele>
        <time>2022-05-29T13:47:46Z</time>
      </trkpt>
      <trkpt lat="47.86165" lon="-2.97166">
        <ele>142.8</ele>
        <time>2022-05-29T13:47:52Z</time>
      </trkpt>
      <trkpt lat="47.86164" lon="-2.97152">
        <ele>143.2</ele>
        <time>2022-05-29T13:47:54Z</time>
      </trkpt>
      <trkpt lat="47.86161" lon="-2.97105">
        <ele>144.7</ele>
        <time>2022-05-29T13:48:01Z</time>
      </trkpt>
      <trkpt lat="47.86159" lon="-2.97085">
        <ele>145.2</ele>
        <time>2022-05-29T13:48:04Z</time>
      </trkpt>
      <trkpt lat="47.86152" lon="-2.97017">
        <ele>147.1</ele>
        <time>2022-05-29T13:48:15Z</time>
      </trkpt>
      <trkpt lat="47.86147" lon="-2.96981">
        <ele>148.2</ele>
        <time>2022-05-29T13:48:21Z</time>
      </trkpt>
      <trkpt lat="47.86143" lon="-2.9695">
        <ele>148.9</ele>
        <time>2022-05-29T13:48:26Z</time>
      </trkpt>
      <trkpt lat="47.86135" lon="-2.96883">
        <ele>150.6</ele>
        <time>2022-05-29T13:48:37Z</time>
      </trkpt>
      <trkpt lat="47.86132" lon="-2.96858">
        <ele>151.2</ele>
        <time>2022-05-29T13:48:41Z</time>
      </trkpt>
      <trkpt lat="47.86129" lon="-2.96825">
        <ele>151.8</ele>
        <time>2022-05-29T13:48:46Z</time>
      </trkpt>
      <trkpt lat="47.86128" lon="-2.96812">
        <ele>152.1</ele>
        <time>2022-05-29T13:48:48Z</time>
      </trkpt>
      <trkpt lat="47.86129" lon="-2.96792">
        <ele>152.6</ele>
        <time>2022-05-29T13:48:51Z</time>
      </trkpt>
      <trkpt lat="47.86131" lon="-2.96752">
        <ele>153.1</ele>
        <time>2022-05-29T13:48:57Z</time>
      </trkpt>
      <trkpt lat="47.86132" lon="-2.96746">
        <ele>153.4</ele>
        <time>2022-05-29T13:48:58Z</time>
      </trkpt>
      <trkpt lat="47.86139" lon="-2.96722">
        <ele>154.2</ele>
        <time>2022-05-29T13:49:02Z</time>
      </trkpt>
      <trkpt lat="47.86152" lon="-2.9668">
        <ele>155.1</ele>
        <time>2022-05-29T13:49:09Z</time>
      </trkpt>
      <trkpt lat="47.8616" lon="-2.96664">
        <ele>155.5</ele>
        <time>2022-05-29T13:49:12Z</time>
      </trkpt>
      <trkpt lat="47.86179" lon="-2.96625">
        <ele>156.4</ele>
        <time>2022-05-29T13:49:19Z</time>
      </trkpt>
      <trkpt lat="47.862" lon="-2.96583">
        <ele>157.3</ele>
        <time>2022-05-29T13:49:27Z</time>
      </trkpt>
      <trkpt lat="47.86206" lon="-2.96567">
        <ele>157.6</ele>
        <time>2022-05-29T13:49:30Z</time>
      </trkpt>
      <trkpt lat="47.86203" lon="-2.96554">
        <ele>157.9</ele>
        <time>2022-05-29T13:49:32Z</time>
      </trkpt>
      <trkpt lat="47.86194" lon="-2.96546">
        <ele>158.1</ele>
        <time>2022-05-29T13:49:34Z</time>
      </trkpt>
      <trkpt lat="47.86179" lon="-2.96543">
        <ele>158.3</ele>
        <time>2022-05-29T13:49:37Z</time>
      </trkpt>
      <trkpt lat="47.86131" lon="-2.96553">
        <ele>157.1</ele>
        <time>2022-05-29T13:49:45Z</time>
      </trkpt>
      <trkpt lat="47.86083" lon="-2.96562">
        <ele>156</ele>
        <time>2022-05-29T13:49:52Z</time>
      </trkpt>
      <trkpt lat="47.86049" lon="-2.96564">
        <ele>154.2</ele>
        <time>2022-05-29T13:49:56Z</time>
      </trkpt>
      <trkpt lat="47.8604" lon="-2.96559">
        <ele>153.6</ele>
        <time>2022-05-29T13:49:57Z</time>
      </trkpt>
      <trkpt lat="47.86032" lon="-2.96552">
        <ele>153</ele>
        <time>2022-05-29T13:49:58Z</time>
      </trkpt>
      <trkpt lat="47.86019" lon="-2.9653">
        <ele>151.7</ele>
        <time>2022-05-29T13:50:00Z</time>
      </trkpt>
      <trkpt lat="47.86014" lon="-2.96518">
        <ele>151.1</ele>
        <time>2022-05-29T13:50:01Z</time>
      </trkpt>
      <trkpt lat="47.86009" lon="-2.96506">
        <ele>150.7</ele>
        <time>2022-05-29T13:50:02Z</time>
      </trkpt>
      <trkpt lat="47.86008" lon="-2.96483">
        <ele>151</ele>
        <time>2022-05-29T13:50:04Z</time>
      </trkpt>
      <trkpt lat="47.86006" lon="-2.96413">
        <ele>151.9</ele>
        <time>2022-05-29T13:50:11Z</time>
      </trkpt>
      <trkpt lat="47.86006" lon="-2.96404">
        <ele>152</ele>
        <time>2022-05-29T13:50:12Z</time>
      </trkpt>
      <trkpt lat="47.86006" lon="-2.96339">
        <ele>152.8</ele>
        <time>2022-05-29T13:50:19Z</time>
      </trkpt>
      <trkpt lat="47.86006" lon="-2.96313">
        <ele>153</ele>
        <time>2022-05-29T13:50:22Z</time>
      </trkpt>
      <trkpt lat="47.86007" lon="-2.96269">
        <ele>152.3</ele>
        <time>2022-05-29T13:50:27Z</time>
      </trkpt>
      <trkpt lat="47.86012" lon="-2.96204">
        <ele>151.4</ele>
        <time>2022-05-29T13:50:34Z</time>
      </trkpt>
      <trkpt lat="47.86009" lon="-2.96194">
        <ele>151.3</ele>
        <time>2022-05-29T13:50:35Z</time>
      </trkpt>
      <trkpt lat="47.86007" lon="-2.96171">
        <ele>150.9</ele>
        <time>2022-05-29T13:50:37Z</time>
      </trkpt>
      <trkpt lat="47.86002" lon="-2.96136">
        <ele>149.6</ele>
        <time>2022-05-29T13:50:40Z</time>
      </trkpt>
      <trkpt lat="47.85998" lon="-2.96124">
        <ele>149.2</ele>
        <time>2022-05-29T13:50:41Z</time>
      </trkpt>
      <trkpt lat="47.85996" lon="-2.96111">
        <ele>148.8</ele>
        <time>2022-05-29T13:50:42Z</time>
      </trkpt>
      <trkpt lat="47.8599" lon="-2.96086">
        <ele>148</ele>
        <time>2022-05-29T13:50:44Z</time>
      </trkpt>
      <trkpt lat="47.85978" lon="-2.96052">
        <ele>146.8</ele>
        <time>2022-05-29T13:50:47Z</time>
      </trkpt>
      <trkpt lat="47.85973" lon="-2.96001">
        <ele>145.3</ele>
        <time>2022-05-29T13:50:51Z</time>
      </trkpt>
      <trkpt lat="47.8597" lon="-2.9599">
        <ele>145</ele>
        <time>2022-05-29T13:50:52Z</time>
      </trkpt>
      <trkpt lat="47.85959" lon="-2.95931">
        <ele>144.1</ele>
        <time>2022-05-29T13:50:57Z</time>
      </trkpt>
      <trkpt lat="47.85952" lon="-2.95875">
        <ele>143.2</ele>
        <time>2022-05-29T13:51:02Z</time>
      </trkpt>
      <trkpt lat="47.8595" lon="-2.95865">
        <ele>143.2</ele>
        <time>2022-05-29T13:51:03Z</time>
      </trkpt>
      <trkpt lat="47.85942" lon="-2.95813">
        <ele>143.4</ele>
        <time>2022-05-29T13:51:08Z</time>
      </trkpt>
      <trkpt lat="47.85938" lon="-2.95793">
        <ele>143.6</ele>
        <time>2022-05-29T13:51:10Z</time>
      </trkpt>
      <trkpt lat="47.85928" lon="-2.95724">
        <ele>144.7</ele>
        <time>2022-05-29T13:51:18Z</time>
      </trkpt>
      <trkpt lat="47.85919" lon="-2.95656">
        <ele>145.9</ele>
        <time>2022-05-29T13:51:27Z</time>
      </trkpt>
      <trkpt lat="47.85918" lon="-2.95649">
        <ele>146</ele>
        <time>2022-05-29T13:51:28Z</time>
      </trkpt>
      <trkpt lat="47.85914" lon="-2.95609">
        <ele>146.5</ele>
        <time>2022-05-29T13:51:33Z</time>
      </trkpt>
      <trkpt lat="47.85908" lon="-2.95569">
        <ele>147</ele>
        <time>2022-05-29T13:51:38Z</time>
      </trkpt>
      <trkpt lat="47.85902" lon="-2.95538">
        <ele>147.1</ele>
        <time>2022-05-29T13:51:42Z</time>
      </trkpt>
      <trkpt lat="47.8588" lon="-2.95472">
        <ele>147.3</ele>
        <time>2022-05-29T13:51:51Z</time>
      </trkpt>
      <trkpt lat="47.85872" lon="-2.95429">
        <ele>147.4</ele>
        <time>2022-05-29T13:51:56Z</time>
      </trkpt>
      <trkpt lat="47.85874" lon="-2.9542">
        <ele>147.4</ele>
        <time>2022-05-29T13:51:57Z</time>
      </trkpt>
      <trkpt lat="47.85902" lon="-2.95364">
        <ele>147.6</ele>
        <time>2022-05-29T13:52:04Z</time>
      </trkpt>
      <trkpt lat="47.85928" lon="-2.95296">
        <ele>147.8</ele>
        <time>2022-05-29T13:52:12Z</time>
      </trkpt>
      <trkpt lat="47.8595" lon="-2.95236">
        <ele>147.9</ele>
        <time>2022-05-29T13:52:18Z</time>
      </trkpt>
      <trkpt lat="47.85976" lon="-2.95173">
        <ele>148.1</ele>
        <time>2022-05-29T13:52:25Z</time>
      </trkpt>
      <trkpt lat="47.85999" lon="-2.9511">
        <ele>148.3</ele>
        <time>2022-05-29T13:52:32Z</time>
      </trkpt>
      <trkpt lat="47.86014" lon="-2.95046">
        <ele>148.4</ele>
        <time>2022-05-29T13:52:40Z</time>
      </trkpt>
      <trkpt lat="47.86018" lon="-2.95037">
        <ele>148.5</ele>
        <time>2022-05-29T13:52:42Z</time>
      </trkpt>
      <trkpt lat="47.86023" lon="-2.94991">
        <ele>148.7</ele>
        <time>2022-05-29T13:52:49Z</time>
      </trkpt>
      <trkpt lat="47.86042" lon="-2.94918">
        <ele>148.9</ele>
        <time>2022-05-29T13:52:59Z</time>
      </trkpt>
      <trkpt lat="47.86057" lon="-2.94845">
        <ele>149.1</ele>
        <time>2022-05-29T13:53:06Z</time>
      </trkpt>
      <trkpt lat="47.8607" lon="-2.94795">
        <ele>149.2</ele>
        <time>2022-05-29T13:53:11Z</time>
      </trkpt>
      <trkpt lat="47.86077" lon="-2.9473">
        <ele>149.3</ele>
        <time>2022-05-29T13:53:18Z</time>
      </trkpt>
      <trkpt lat="47.86081" lon="-2.9466">
        <ele>149.5</ele>
        <time>2022-05-29T13:53:26Z</time>
      </trkpt>
      <trkpt lat="47.86089" lon="-2.94594">
        <ele>149.7</ele>
        <time>2022-05-29T13:53:34Z</time>
      </trkpt>
      <trkpt lat="47.86089" lon="-2.94588">
        <ele>149.8</ele>
        <time>2022-05-29T13:53:36Z</time>
      </trkpt>
      <trkpt lat="47.86088" lon="-2.94562">
        <ele>149.9</ele>
        <time>2022-05-29T13:53:46Z</time>
      </trkpt>
      <trkpt lat="47.86054" lon="-2.9461">
        <ele>150.2</ele>
        <time>2022-05-29T13:53:51Z</time>
      </trkpt>
      <trkpt lat="47.86022" lon="-2.94662">
        <ele>150.4</ele>
        <time>2022-05-29T13:53:57Z</time>
      </trkpt>
      <trkpt lat="47.86018" lon="-2.94675">
        <ele>150.5</ele>
        <time>2022-05-29T13:53:59Z</time>
      </trkpt>
      <trkpt lat="47.86018" lon="-2.94687">
        <ele>150.7</ele>
        <time>2022-05-29T13:54:01Z</time>
      </trkpt>
      <trkpt lat="47.86018" lon="-2.9474">
        <ele>151.8</ele>
        <time>2022-05-29T13:54:10Z</time>
      </trkpt>
      <trkpt lat="47.85994" lon="-2.94765">
        <ele>152.5</ele>
        <time>2022-05-29T13:54:16Z</time>
      </trkpt>
      <trkpt lat="47.85987" lon="-2.94773">
        <ele>152.5</ele>
        <time>2022-05-29T13:54:18Z</time>
      </trkpt>
      <trkpt lat="47.85965" lon="-2.94807">
        <ele>152.3</ele>
        <time>2022-05-29T13:54:25Z</time>
      </trkpt>
      <trkpt lat="47.85935" lon="-2.94831">
        <ele>152.3</ele>
        <time>2022-05-29T13:54:29Z</time>
      </trkpt>
      <trkpt lat="47.85888" lon="-2.94831">
        <ele>152.1</ele>
        <time>2022-05-29T13:54:36Z</time>
      </trkpt>
      <trkpt lat="47.85838" lon="-2.94825">
        <ele>151.9</ele>
        <time>2022-05-29T13:54:43Z</time>
      </trkpt>
      <trkpt lat="47.85819" lon="-2.94822">
        <ele>151.9</ele>
        <time>2022-05-29T13:54:46Z</time>
      </trkpt>
      <trkpt lat="47.85789" lon="-2.94817">
        <ele>151.5</ele>
        <time>2022-05-29T13:54:51Z</time>
      </trkpt>
      <trkpt lat="47.85763" lon="-2.94812">
        <ele>151.2</ele>
        <time>2022-05-29T13:54:56Z</time>
      </trkpt>
      <trkpt lat="47.85747" lon="-2.94809">
        <ele>151.7</ele>
        <time>2022-05-29T13:54:59Z</time>
      </trkpt>
      <trkpt lat="47.85719" lon="-2.94779">
        <ele>152.7</ele>
        <time>2022-05-29T13:55:06Z</time>
      </trkpt>
      <trkpt lat="47.85708" lon="-2.94766">
        <ele>153.3</ele>
        <time>2022-05-29T13:55:09Z</time>
      </trkpt>
      <trkpt lat="47.85683" lon="-2.94729">
        <ele>154.7</ele>
        <time>2022-05-29T13:55:17Z</time>
      </trkpt>
      <trkpt lat="47.85666" lon="-2.94705">
        <ele>155.9</ele>
        <time>2022-05-29T13:55:23Z</time>
      </trkpt>
      <trkpt lat="47.85659" lon="-2.94698">
        <ele>156.2</ele>
        <time>2022-05-29T13:55:25Z</time>
      </trkpt>
      <trkpt lat="47.85656" lon="-2.94695">
        <ele>156.4</ele>
        <time>2022-05-29T13:55:26Z</time>
      </trkpt>
      <trkpt lat="47.85655" lon="-2.94688">
        <ele>156.6</ele>
        <time>2022-05-29T13:55:27Z</time>
      </trkpt>
      <trkpt lat="47.85646" lon="-2.94671">
        <ele>157.3</ele>
        <time>2022-05-29T13:55:31Z</time>
      </trkpt>
      <trkpt lat="47.85644" lon="-2.94658">
        <ele>157.7</ele>
        <time>2022-05-29T13:55:33Z</time>
      </trkpt>
      <trkpt lat="47.85641" lon="-2.94653">
        <ele>157.9</ele>
        <time>2022-05-29T13:55:34Z</time>
      </trkpt>
      <trkpt lat="47.85632" lon="-2.94604">
        <ele>159.5</ele>
        <time>2022-05-29T13:55:43Z</time>
      </trkpt>
      <trkpt lat="47.85628" lon="-2.94588">
        <ele>159.9</ele>
        <time>2022-05-29T13:55:46Z</time>
      </trkpt>
      <trkpt lat="47.85613" lon="-2.94554">
        <ele>160.6</ele>
        <time>2022-05-29T13:55:53Z</time>
      </trkpt>
      <trkpt lat="47.85583" lon="-2.94503">
        <ele>161.2</ele>
        <time>2022-05-29T13:56:03Z</time>
      </trkpt>
      <trkpt lat="47.85547" lon="-2.94472">
        <ele>161.8</ele>
        <time>2022-05-29T13:56:13Z</time>
      </trkpt>
      <trkpt lat="47.85542" lon="-2.94469">
        <ele>161.9</ele>
        <time>2022-05-29T13:56:14Z</time>
      </trkpt>
      <trkpt lat="47.85519" lon="-2.94462">
        <ele>162.2</ele>
        <time>2022-05-29T13:56:18Z</time>
      </trkpt>
      <trkpt lat="47.85494" lon="-2.94476">
        <ele>162.5</ele>
        <time>2022-05-29T13:56:23Z</time>
      </trkpt>
      <trkpt lat="47.85469" lon="-2.94509">
        <ele>162.9</ele>
        <time>2022-05-29T13:56:30Z</time>
      </trkpt>
      <trkpt lat="47.85456" lon="-2.94522">
        <ele>163.2</ele>
        <time>2022-05-29T13:56:36Z</time>
      </trkpt>
      <trkpt lat="47.85456" lon="-2.9452">
        <ele>163.3</ele>
        <time>2022-05-29T13:56:37Z</time>
      </trkpt>
      <trkpt lat="47.85468" lon="-2.94512">
        <ele>163.6</ele>
        <time>2022-05-29T13:56:42Z</time>
      </trkpt>
      <trkpt lat="47.85488" lon="-2.94477">
        <ele>164</ele>
        <time>2022-05-29T13:56:50Z</time>
      </trkpt>
      <trkpt lat="47.85489" lon="-2.94463">
        <ele>164.1</ele>
        <time>2022-05-29T13:56:52Z</time>
      </trkpt>
      <trkpt lat="47.85483" lon="-2.94457">
        <ele>164.2</ele>
        <time>2022-05-29T13:56:53Z</time>
      </trkpt>
      <trkpt lat="47.85473" lon="-2.94455">
        <ele>164.3</ele>
        <time>2022-05-29T13:56:54Z</time>
      </trkpt>
      <trkpt lat="47.8546" lon="-2.94417">
        <ele>164.9</ele>
        <time>2022-05-29T13:57:03Z</time>
      </trkpt>
      <trkpt lat="47.85452" lon="-2.94396">
        <ele>166.4</ele>
        <time>2022-05-29T13:57:08Z</time>
      </trkpt>
      <trkpt lat="47.85426" lon="-2.94344">
        <ele>170.3</ele>
        <time>2022-05-29T13:57:25Z</time>
      </trkpt>
      <trkpt lat="47.85424" lon="-2.94341">
        <ele>170.4</ele>
        <time>2022-05-29T13:57:26Z</time>
      </trkpt>
      <trkpt lat="47.8539" lon="-2.94295">
        <ele>171.5</ele>
        <time>2022-05-29T13:57:38Z</time>
      </trkpt>
      <trkpt lat="47.85383" lon="-2.94285">
        <ele>171.7</ele>
        <time>2022-05-29T13:57:40Z</time>
      </trkpt>
      <trkpt lat="47.85361" lon="-2.94255">
        <ele>171.9</ele>
        <time>2022-05-29T13:57:46Z</time>
      </trkpt>
      <trkpt lat="47.85338" lon="-2.94197">
        <ele>172.4</ele>
        <time>2022-05-29T13:57:55Z</time>
      </trkpt>
      <trkpt lat="47.85298" lon="-2.94157">
        <ele>172.9</ele>
        <time>2022-05-29T13:58:05Z</time>
      </trkpt>
      <trkpt lat="47.85252" lon="-2.94137">
        <ele>173.3</ele>
        <time>2022-05-29T13:58:14Z</time>
      </trkpt>
      <trkpt lat="47.85247" lon="-2.94136">
        <ele>173.4</ele>
        <time>2022-05-29T13:58:15Z</time>
      </trkpt>
      <trkpt lat="47.85224" lon="-2.94127">
        <ele>174</ele>
        <time>2022-05-29T13:58:20Z</time>
      </trkpt>
      <trkpt lat="47.85205" lon="-2.9412">
        <ele>174.8</ele>
        <time>2022-05-29T13:58:24Z</time>
      </trkpt>
      <trkpt lat="47.85201" lon="-2.94118">
        <ele>175</ele>
        <time>2022-05-29T13:58:25Z</time>
      </trkpt>
      <trkpt lat="47.8516" lon="-2.94102">
        <ele>177.1</ele>
        <time>2022-05-29T13:58:35Z</time>
      </trkpt>
      <trkpt lat="47.85141" lon="-2.94096">
        <ele>178.1</ele>
        <time>2022-05-29T13:58:40Z</time>
      </trkpt>
      <trkpt lat="47.85115" lon="-2.94089">
        <ele>179.8</ele>
        <time>2022-05-29T13:58:47Z</time>
      </trkpt>
      <trkpt lat="47.85085" lon="-2.94084">
        <ele>181.7</ele>
        <time>2022-05-29T13:58:55Z</time>
      </trkpt>
      <trkpt lat="47.85077" lon="-2.94083">
        <ele>182.1</ele>
        <time>2022-05-29T13:58:57Z</time>
      </trkpt>
      <trkpt lat="47.8507" lon="-2.94082">
        <ele>182.5</ele>
        <time>2022-05-29T13:58:59Z</time>
      </trkpt>
      <trkpt lat="47.85021" lon="-2.94077">
        <ele>184.6</ele>
        <time>2022-05-29T13:59:11Z</time>
      </trkpt>
      <trkpt lat="47.85004" lon="-2.94075">
        <ele>185.3</ele>
        <time>2022-05-29T13:59:15Z</time>
      </trkpt>
      <trkpt lat="47.84974" lon="-2.94072">
        <ele>186</ele>
        <time>2022-05-29T13:59:22Z</time>
      </trkpt>
      <trkpt lat="47.84962" lon="-2.94068">
        <ele>186.3</ele>
        <time>2022-05-29T13:59:25Z</time>
      </trkpt>
      <trkpt lat="47.84937" lon="-2.94061">
        <ele>187.3</ele>
        <time>2022-05-29T13:59:31Z</time>
      </trkpt>
      <trkpt lat="47.84929" lon="-2.94059">
        <ele>187.4</ele>
        <time>2022-05-29T13:59:33Z</time>
      </trkpt>
      <trkpt lat="47.84895" lon="-2.94067">
        <ele>187.9</ele>
        <time>2022-05-29T13:59:41Z</time>
      </trkpt>
      <trkpt lat="47.84882" lon="-2.9407">
        <ele>188.4</ele>
        <time>2022-05-29T13:59:44Z</time>
      </trkpt>
      <trkpt lat="47.84853" lon="-2.94072">
        <ele>189.7</ele>
        <time>2022-05-29T13:59:51Z</time>
      </trkpt>
      <trkpt lat="47.84836" lon="-2.94073">
        <ele>190.6</ele>
        <time>2022-05-29T13:59:55Z</time>
      </trkpt>
      <trkpt lat="47.84802" lon="-2.94076">
        <ele>193</ele>
        <time>2022-05-29T14:00:06Z</time>
      </trkpt>
      <trkpt lat="47.8479" lon="-2.94077">
        <ele>194</ele>
        <time>2022-05-29T14:00:10Z</time>
      </trkpt>
      <trkpt lat="47.84775" lon="-2.94082">
        <ele>195.6</ele>
        <time>2022-05-29T14:00:16Z</time>
      </trkpt>
      <trkpt lat="47.84745" lon="-2.94091">
        <ele>199.3</ele>
        <time>2022-05-29T14:00:29Z</time>
      </trkpt>
      <trkpt lat="47.8474" lon="-2.94093">
        <ele>199.8</ele>
        <time>2022-05-29T14:00:31Z</time>
      </trkpt>
      <trkpt lat="47.84705" lon="-2.94102">
        <ele>203.8</ele>
        <time>2022-05-29T14:00:46Z</time>
      </trkpt>
      <trkpt lat="47.847" lon="-2.94104">
        <ele>204.4</ele>
        <time>2022-05-29T14:00:48Z</time>
      </trkpt>
      <trkpt lat="47.84691" lon="-2.94107">
        <ele>205.2</ele>
        <time>2022-05-29T14:00:51Z</time>
      </trkpt>
      <trkpt lat="47.84675" lon="-2.94112">
        <ele>206.1</ele>
        <time>2022-05-29T14:00:56Z</time>
      </trkpt>
      <trkpt lat="47.84652" lon="-2.94119">
        <ele>207.2</ele>
        <time>2022-05-29T14:01:03Z</time>
      </trkpt>
      <trkpt lat="47.84606" lon="-2.94129">
        <ele>209.2</ele>
        <time>2022-05-29T14:01:15Z</time>
      </trkpt>
      <trkpt lat="47.84585" lon="-2.94135">
        <ele>210</ele>
        <time>2022-05-29T14:01:20Z</time>
      </trkpt>
      <trkpt lat="47.84561" lon="-2.94143">
        <ele>210.9</ele>
        <time>2022-05-29T14:01:26Z</time>
      </trkpt>
      <trkpt lat="47.84515" lon="-2.94157">
        <ele>212.1</ele>
        <time>2022-05-29T14:01:36Z</time>
      </trkpt>
      <trkpt lat="47.84469" lon="-2.94175">
        <ele>210.3</ele>
        <time>2022-05-29T14:01:44Z</time>
      </trkpt>
      <trkpt lat="47.84434" lon="-2.94187">
        <ele>209.3</ele>
        <time>2022-05-29T14:01:48Z</time>
      </trkpt>
      <trkpt lat="47.84416" lon="-2.94193">
        <ele>208.6</ele>
        <time>2022-05-29T14:01:50Z</time>
      </trkpt>
      <trkpt lat="47.84378" lon="-2.94207">
        <ele>206.9</ele>
        <time>2022-05-29T14:01:54Z</time>
      </trkpt>
      <trkpt lat="47.84369" lon="-2.9421">
        <ele>206.4</ele>
        <time>2022-05-29T14:01:55Z</time>
      </trkpt>
      <trkpt lat="47.84341" lon="-2.94221">
        <ele>204.9</ele>
        <time>2022-05-29T14:01:58Z</time>
      </trkpt>
      <trkpt lat="47.84332" lon="-2.94225">
        <ele>204.4</ele>
        <time>2022-05-29T14:01:59Z</time>
      </trkpt>
      <trkpt lat="47.84323" lon="-2.94228">
        <ele>203.9</ele>
        <time>2022-05-29T14:02:00Z</time>
      </trkpt>
      <trkpt lat="47.84285" lon="-2.94236">
        <ele>202.7</ele>
        <time>2022-05-29T14:02:04Z</time>
      </trkpt>
      <trkpt lat="47.84234" lon="-2.94242">
        <ele>200.9</ele>
        <time>2022-05-29T14:02:10Z</time>
      </trkpt>
      <trkpt lat="47.8422" lon="-2.94242">
        <ele>200.4</ele>
        <time>2022-05-29T14:02:12Z</time>
      </trkpt>
      <trkpt lat="47.84186" lon="-2.94241">
        <ele>201</ele>
        <time>2022-05-29T14:02:17Z</time>
      </trkpt>
      <trkpt lat="47.84179" lon="-2.94242">
        <ele>201.2</ele>
        <time>2022-05-29T14:02:18Z</time>
      </trkpt>
      <trkpt lat="47.8414" lon="-2.94245">
        <ele>202.4</ele>
        <time>2022-05-29T14:02:24Z</time>
      </trkpt>
      <trkpt lat="47.84091" lon="-2.94247">
        <ele>204.3</ele>
        <time>2022-05-29T14:02:33Z</time>
      </trkpt>
      <trkpt lat="47.84043" lon="-2.9425">
        <ele>206.1</ele>
        <time>2022-05-29T14:02:42Z</time>
      </trkpt>
      <trkpt lat="47.83995" lon="-2.94253">
        <ele>207.5</ele>
        <time>2022-05-29T14:02:51Z</time>
      </trkpt>
      <trkpt lat="47.83944" lon="-2.94255">
        <ele>208.7</ele>
        <time>2022-05-29T14:03:00Z</time>
      </trkpt>
      <trkpt lat="47.83896" lon="-2.94254">
        <ele>207.6</ele>
        <time>2022-05-29T14:03:08Z</time>
      </trkpt>
      <trkpt lat="47.83868" lon="-2.94255">
        <ele>207.1</ele>
        <time>2022-05-29T14:03:12Z</time>
      </trkpt>
      <trkpt lat="47.83847" lon="-2.94255">
        <ele>206.2</ele>
        <time>2022-05-29T14:03:15Z</time>
      </trkpt>
      <trkpt lat="47.83798" lon="-2.94258">
        <ele>204.4</ele>
        <time>2022-05-29T14:03:21Z</time>
      </trkpt>
      <trkpt lat="47.83772" lon="-2.9426">
        <ele>203.5</ele>
        <time>2022-05-29T14:03:24Z</time>
      </trkpt>
      <trkpt lat="47.83744" lon="-2.94261">
        <ele>202.2</ele>
        <time>2022-05-29T14:03:27Z</time>
      </trkpt>
      <trkpt lat="47.83703" lon="-2.94254">
        <ele>200.6</ele>
        <time>2022-05-29T14:03:31Z</time>
      </trkpt>
      <trkpt lat="47.83676" lon="-2.94237">
        <ele>199.8</ele>
        <time>2022-05-29T14:03:33Z</time>
      </trkpt>
      <trkpt lat="47.83663" lon="-2.9422">
        <ele>199.4</ele>
        <time>2022-05-29T14:03:34Z</time>
      </trkpt>
      <trkpt lat="47.83663" lon="-2.94194">
        <ele>198.9</ele>
        <time>2022-05-29T14:03:35Z</time>
      </trkpt>
      <trkpt lat="47.83666" lon="-2.94162">
        <ele>198.2</ele>
        <time>2022-05-29T14:03:36Z</time>
      </trkpt>
      <trkpt lat="47.83662" lon="-2.94137">
        <ele>197.6</ele>
        <time>2022-05-29T14:03:37Z</time>
      </trkpt>
      <trkpt lat="47.83654" lon="-2.94112">
        <ele>196.4</ele>
        <time>2022-05-29T14:03:39Z</time>
      </trkpt>
      <trkpt lat="47.83654" lon="-2.94113">
        <ele>196.1</ele>
        <time>2022-05-29T14:03:40Z</time>
      </trkpt>
      <trkpt lat="47.83659" lon="-2.94115">
        <ele>196.1</ele>
        <time>2022-05-29T14:03:42Z</time>
      </trkpt>
      <trkpt lat="47.83652" lon="-2.94129">
        <ele>196.1</ele>
        <time>2022-05-29T14:03:45Z</time>
      </trkpt>
      <trkpt lat="47.83624" lon="-2.94147">
        <ele>196.1</ele>
        <time>2022-05-29T14:03:46Z</time>
      </trkpt>
      <trkpt lat="47.83605" lon="-2.94176">
        <ele>196.3</ele>
        <time>2022-05-29T14:03:51Z</time>
      </trkpt>
      <trkpt lat="47.8359" lon="-2.94197">
        <ele>197.9</ele>
        <time>2022-05-29T14:03:55Z</time>
      </trkpt>
      <trkpt lat="47.83583" lon="-2.942">
        <ele>198.6</ele>
        <time>2022-05-29T14:03:57Z</time>
      </trkpt>
      <trkpt lat="47.83547" lon="-2.94216">
        <ele>201.4</ele>
        <time>2022-05-29T14:04:07Z</time>
      </trkpt>
      <trkpt lat="47.8354" lon="-2.94215">
        <ele>202</ele>
        <time>2022-05-29T14:04:09Z</time>
      </trkpt>
      <trkpt lat="47.835" lon="-2.94211">
        <ele>204.8</ele>
        <time>2022-05-29T14:04:20Z</time>
      </trkpt>
      <trkpt lat="47.83497" lon="-2.9421">
        <ele>205</ele>
        <time>2022-05-29T14:04:21Z</time>
      </trkpt>
      <trkpt lat="47.83478" lon="-2.94207">
        <ele>206.4</ele>
        <time>2022-05-29T14:04:27Z</time>
      </trkpt>
      <trkpt lat="47.83455" lon="-2.94204">
        <ele>208.2</ele>
        <time>2022-05-29T14:04:34Z</time>
      </trkpt>
      <trkpt lat="47.8342" lon="-2.94205">
        <ele>210.8</ele>
        <time>2022-05-29T14:04:45Z</time>
      </trkpt>
      <trkpt lat="47.83408" lon="-2.94205">
        <ele>211.6</ele>
        <time>2022-05-29T14:04:49Z</time>
      </trkpt>
      <trkpt lat="47.83389" lon="-2.94204">
        <ele>212.9</ele>
        <time>2022-05-29T14:04:55Z</time>
      </trkpt>
      <trkpt lat="47.83382" lon="-2.94205">
        <ele>213.3</ele>
        <time>2022-05-29T14:04:57Z</time>
      </trkpt>
      <trkpt lat="47.83365" lon="-2.94189">
        <ele>214.6</ele>
        <time>2022-05-29T14:05:03Z</time>
      </trkpt>
      <trkpt lat="47.83343" lon="-2.94167">
        <ele>216.3</ele>
        <time>2022-05-29T14:05:11Z</time>
      </trkpt>
      <trkpt lat="47.83318" lon="-2.94138">
        <ele>218.4</ele>
        <time>2022-05-29T14:05:21Z</time>
      </trkpt>
      <trkpt lat="47.83278" lon="-2.94139">
        <ele>221.4</ele>
        <time>2022-05-29T14:05:33Z</time>
      </trkpt>
      <trkpt lat="47.83271" lon="-2.9414">
        <ele>221.9</ele>
        <time>2022-05-29T14:05:35Z</time>
      </trkpt>
      <trkpt lat="47.83245" lon="-2.94153">
        <ele>223.7</ele>
        <time>2022-05-29T14:05:44Z</time>
      </trkpt>
      <trkpt lat="47.83227" lon="-2.94162">
        <ele>224.2</ele>
        <time>2022-05-29T14:05:50Z</time>
      </trkpt>
      <trkpt lat="47.83207" lon="-2.9417">
        <ele>223.9</ele>
        <time>2022-05-29T14:05:57Z</time>
      </trkpt>
      <trkpt lat="47.83195" lon="-2.94166">
        <ele>223.8</ele>
        <time>2022-05-29T14:06:00Z</time>
      </trkpt>
      <trkpt lat="47.83148" lon="-2.94163">
        <ele>223.5</ele>
        <time>2022-05-29T14:06:09Z</time>
      </trkpt>
      <trkpt lat="47.83098" lon="-2.94158">
        <ele>223.3</ele>
        <time>2022-05-29T14:06:17Z</time>
      </trkpt>
      <trkpt lat="47.83087" lon="-2.94156">
        <ele>223.3</ele>
        <time>2022-05-29T14:06:19Z</time>
      </trkpt>
      <trkpt lat="47.83075" lon="-2.94155">
        <ele>223.7</ele>
        <time>2022-05-29T14:06:21Z</time>
      </trkpt>
      <trkpt lat="47.83054" lon="-2.94155">
        <ele>224.4</ele>
        <time>2022-05-29T14:06:25Z</time>
      </trkpt>
      <trkpt lat="47.83027" lon="-2.94156">
        <ele>225.2</ele>
        <time>2022-05-29T14:06:30Z</time>
      </trkpt>
      <trkpt lat="47.83023" lon="-2.94156">
        <ele>225.5</ele>
        <time>2022-05-29T14:06:31Z</time>
      </trkpt>
      <trkpt lat="47.82996" lon="-2.94156">
        <ele>227.4</ele>
        <time>2022-05-29T14:06:37Z</time>
      </trkpt>
      <trkpt lat="47.82979" lon="-2.94156">
        <ele>228.3</ele>
        <time>2022-05-29T14:06:41Z</time>
      </trkpt>
      <trkpt lat="47.82946" lon="-2.94158">
        <ele>230.2</ele>
        <time>2022-05-29T14:06:49Z</time>
      </trkpt>
      <trkpt lat="47.8293" lon="-2.94158">
        <ele>231.4</ele>
        <time>2022-05-29T14:06:53Z</time>
      </trkpt>
      <trkpt lat="47.82922" lon="-2.94159">
        <ele>232</ele>
        <time>2022-05-29T14:06:55Z</time>
      </trkpt>
      <trkpt lat="47.82899" lon="-2.94161">
        <ele>233.1</ele>
        <time>2022-05-29T14:07:01Z</time>
      </trkpt>
      <trkpt lat="47.82884" lon="-2.94163">
        <ele>234.1</ele>
        <time>2022-05-29T14:07:05Z</time>
      </trkpt>
      <trkpt lat="47.82855" lon="-2.94166">
        <ele>236.1</ele>
        <time>2022-05-29T14:07:13Z</time>
      </trkpt>
      <trkpt lat="47.82837" lon="-2.94168">
        <ele>236.9</ele>
        <time>2022-05-29T14:07:18Z</time>
      </trkpt>
      <trkpt lat="47.82791" lon="-2.94172">
        <ele>238.8</ele>
        <time>2022-05-29T14:07:29Z</time>
      </trkpt>
      <trkpt lat="47.82781" lon="-2.94173">
        <ele>239.1</ele>
        <time>2022-05-29T14:07:31Z</time>
      </trkpt>
      <trkpt lat="47.82753" lon="-2.94176">
        <ele>239.7</ele>
        <time>2022-05-29T14:07:37Z</time>
      </trkpt>
      <trkpt lat="47.82743" lon="-2.94176">
        <ele>239.8</ele>
        <time>2022-05-29T14:07:39Z</time>
      </trkpt>
      <trkpt lat="47.82725" lon="-2.94176">
        <ele>240.2</ele>
        <time>2022-05-29T14:07:43Z</time>
      </trkpt>
      <trkpt lat="47.82676" lon="-2.94184">
        <ele>241.1</ele>
        <time>2022-05-29T14:07:53Z</time>
      </trkpt>
      <trkpt lat="47.82631" lon="-2.94188">
        <ele>241.9</ele>
        <time>2022-05-29T14:08:02Z</time>
      </trkpt>
      <trkpt lat="47.82602" lon="-2.9419">
        <ele>242.4</ele>
        <time>2022-05-29T14:08:08Z</time>
      </trkpt>
      <trkpt lat="47.82583" lon="-2.94192">
        <ele>242.7</ele>
        <time>2022-05-29T14:08:12Z</time>
      </trkpt>
      <trkpt lat="47.82555" lon="-2.94194">
        <ele>243</ele>
        <time>2022-05-29T14:08:18Z</time>
      </trkpt>
      <trkpt lat="47.82506" lon="-2.942">
        <ele>243.5</ele>
        <time>2022-05-29T14:08:28Z</time>
      </trkpt>
      <trkpt lat="47.82475" lon="-2.94203">
        <ele>243.8</ele>
        <time>2022-05-29T14:08:34Z</time>
      </trkpt>
      <trkpt lat="47.8247" lon="-2.94204">
        <ele>243.9</ele>
        <time>2022-05-29T14:08:35Z</time>
      </trkpt>
      <trkpt lat="47.8242" lon="-2.94209">
        <ele>244.4</ele>
        <time>2022-05-29T14:08:45Z</time>
      </trkpt>
      <trkpt lat="47.82375" lon="-2.94212">
        <ele>244.8</ele>
        <time>2022-05-29T14:08:53Z</time>
      </trkpt>
      <trkpt lat="47.82327" lon="-2.94217">
        <ele>245.3</ele>
        <time>2022-05-29T14:09:04Z</time>
      </trkpt>
      <trkpt lat="47.82281" lon="-2.94221">
        <ele>245.8</ele>
        <time>2022-05-29T14:09:14Z</time>
      </trkpt>
      <trkpt lat="47.82264" lon="-2.94223">
        <ele>246</ele>
        <time>2022-05-29T14:09:18Z</time>
      </trkpt>
      <trkpt lat="47.82234" lon="-2.94226">
        <ele>245.7</ele>
        <time>2022-05-29T14:09:25Z</time>
      </trkpt>
      <trkpt lat="47.82188" lon="-2.9423">
        <ele>245.3</ele>
        <time>2022-05-29T14:09:33Z</time>
      </trkpt>
      <trkpt lat="47.82139" lon="-2.94235">
        <ele>245</ele>
        <time>2022-05-29T14:09:40Z</time>
      </trkpt>
      <trkpt lat="47.82125" lon="-2.94237">
        <ele>244.9</ele>
        <time>2022-05-29T14:09:42Z</time>
      </trkpt>
      <trkpt lat="47.82092" lon="-2.9424">
        <ele>244.7</ele>
        <time>2022-05-29T14:09:47Z</time>
      </trkpt>
      <trkpt lat="47.8206" lon="-2.94246">
        <ele>244.7</ele>
        <time>2022-05-29T14:09:53Z</time>
      </trkpt>
      <trkpt lat="47.82045" lon="-2.94249">
        <ele>245.3</ele>
        <time>2022-05-29T14:09:56Z</time>
      </trkpt>
      <trkpt lat="47.82033" lon="-2.94257">
        <ele>246</ele>
        <time>2022-05-29T14:09:59Z</time>
      </trkpt>
      <trkpt lat="47.82002" lon="-2.94277">
        <ele>248</ele>
        <time>2022-05-29T14:10:07Z</time>
      </trkpt>
      <trkpt lat="47.81989" lon="-2.94286">
        <ele>249</ele>
        <time>2022-05-29T14:10:11Z</time>
      </trkpt>
      <trkpt lat="47.81964" lon="-2.94303">
        <ele>250</ele>
        <time>2022-05-29T14:10:19Z</time>
      </trkpt>
      <trkpt lat="47.81956" lon="-2.9431">
        <ele>250.4</ele>
        <time>2022-05-29T14:10:22Z</time>
      </trkpt>
      <trkpt lat="47.8194" lon="-2.94319">
        <ele>250.9</ele>
        <time>2022-05-29T14:10:26Z</time>
      </trkpt>
      <trkpt lat="47.81892" lon="-2.94355">
        <ele>249.6</ele>
        <time>2022-05-29T14:10:33Z</time>
      </trkpt>
      <trkpt lat="47.81892" lon="-2.94355">
        <ele>249.6</ele>
        <time>2022-05-29T14:12:22Z</time>
      </trkpt>
      <trkpt lat="47.81858" lon="-2.9438">
        <ele>247.9</ele>
        <time>2022-05-29T14:12:24Z</time>
      </trkpt>
      <trkpt lat="47.81813" lon="-2.94411">
        <ele>247.4</ele>
        <time>2022-05-29T14:12:34Z</time>
      </trkpt>
      <trkpt lat="47.8177" lon="-2.94437">
        <ele>245.4</ele>
        <time>2022-05-29T14:12:41Z</time>
      </trkpt>
      <trkpt lat="47.81734" lon="-2.94465">
        <ele>243.9</ele>
        <time>2022-05-29T14:12:46Z</time>
      </trkpt>
      <trkpt lat="47.81726" lon="-2.94471">
        <ele>243.6</ele>
        <time>2022-05-29T14:12:47Z</time>
      </trkpt>
      <trkpt lat="47.81685" lon="-2.945">
        <ele>242.2</ele>
        <time>2022-05-29T14:12:52Z</time>
      </trkpt>
      <trkpt lat="47.81646" lon="-2.94533">
        <ele>240.7</ele>
        <time>2022-05-29T14:12:57Z</time>
      </trkpt>
      <trkpt lat="47.81638" lon="-2.94539">
        <ele>240.4</ele>
        <time>2022-05-29T14:12:58Z</time>
      </trkpt>
      <trkpt lat="47.816" lon="-2.94568">
        <ele>238.9</ele>
        <time>2022-05-29T14:13:03Z</time>
      </trkpt>
      <trkpt lat="47.81592" lon="-2.94574">
        <ele>238.7</ele>
        <time>2022-05-29T14:13:04Z</time>
      </trkpt>
      <trkpt lat="47.81555" lon="-2.94603">
        <ele>237.4</ele>
        <time>2022-05-29T14:13:09Z</time>
      </trkpt>
      <trkpt lat="47.81509" lon="-2.94639">
        <ele>236</ele>
        <time>2022-05-29T14:13:15Z</time>
      </trkpt>
      <trkpt lat="47.81471" lon="-2.94677">
        <ele>234.3</ele>
        <time>2022-05-29T14:13:22Z</time>
      </trkpt>
      <trkpt lat="47.81469" lon="-2.94687">
        <ele>234.1</ele>
        <time>2022-05-29T14:13:25Z</time>
      </trkpt>
      <trkpt lat="47.81462" lon="-2.9469">
        <ele>234</ele>
        <time>2022-05-29T14:13:27Z</time>
      </trkpt>
      <trkpt lat="47.81459" lon="-2.94693">
        <ele>233.9</ele>
        <time>2022-05-29T14:13:28Z</time>
      </trkpt>
      <trkpt lat="47.81456" lon="-2.94697">
        <ele>233.9</ele>
        <time>2022-05-29T14:13:29Z</time>
      </trkpt>
      <trkpt lat="47.81451" lon="-2.94699">
        <ele>233.9</ele>
        <time>2022-05-29T14:13:30Z</time>
      </trkpt>
      <trkpt lat="47.81435" lon="-2.94714">
        <ele>233.9</ele>
        <time>2022-05-29T14:13:34Z</time>
      </trkpt>
      <trkpt lat="47.81411" lon="-2.94737">
        <ele>234.5</ele>
        <time>2022-05-29T14:13:40Z</time>
      </trkpt>
      <trkpt lat="47.81372" lon="-2.94777">
        <ele>235.4</ele>
        <time>2022-05-29T14:13:50Z</time>
      </trkpt>
      <trkpt lat="47.81368" lon="-2.9479">
        <ele>235.5</ele>
        <time>2022-05-29T14:13:52Z</time>
      </trkpt>
      <trkpt lat="47.81351" lon="-2.94844">
        <ele>235.5</ele>
        <time>2022-05-29T14:14:00Z</time>
      </trkpt>
      <trkpt lat="47.81345" lon="-2.94872">
        <ele>235.5</ele>
        <time>2022-05-29T14:14:03Z</time>
      </trkpt>
      <trkpt lat="47.81338" lon="-2.9491">
        <ele>236.1</ele>
        <time>2022-05-29T14:14:07Z</time>
      </trkpt>
      <trkpt lat="47.81328" lon="-2.94967">
        <ele>237.2</ele>
        <time>2022-05-29T14:14:14Z</time>
      </trkpt>
      <trkpt lat="47.81326" lon="-2.94975">
        <ele>237.3</ele>
        <time>2022-05-29T14:14:15Z</time>
      </trkpt>
      <trkpt lat="47.81313" lon="-2.9504">
        <ele>238.3</ele>
        <time>2022-05-29T14:14:24Z</time>
      </trkpt>
      <trkpt lat="47.81306" lon="-2.95059">
        <ele>238.7</ele>
        <time>2022-05-29T14:14:27Z</time>
      </trkpt>
      <trkpt lat="47.81297" lon="-2.95073">
        <ele>238.9</ele>
        <time>2022-05-29T14:14:29Z</time>
      </trkpt>
      <trkpt lat="47.81293" lon="-2.95081">
        <ele>239</ele>
        <time>2022-05-29T14:14:30Z</time>
      </trkpt>
      <trkpt lat="47.81283" lon="-2.95094">
        <ele>239.1</ele>
        <time>2022-05-29T14:14:32Z</time>
      </trkpt>
      <trkpt lat="47.81252" lon="-2.95132">
        <ele>238.3</ele>
        <time>2022-05-29T14:14:38Z</time>
      </trkpt>
      <trkpt lat="47.81209" lon="-2.95176">
        <ele>237.5</ele>
        <time>2022-05-29T14:14:44Z</time>
      </trkpt>
      <trkpt lat="47.81172" lon="-2.95218">
        <ele>235.9</ele>
        <time>2022-05-29T14:14:49Z</time>
      </trkpt>
      <trkpt lat="47.81164" lon="-2.95227">
        <ele>235.6</ele>
        <time>2022-05-29T14:14:50Z</time>
      </trkpt>
      <trkpt lat="47.81131" lon="-2.95263">
        <ele>234</ele>
        <time>2022-05-29T14:14:54Z</time>
      </trkpt>
      <trkpt lat="47.81092" lon="-2.95309">
        <ele>232</ele>
        <time>2022-05-29T14:14:59Z</time>
      </trkpt>
      <trkpt lat="47.8107" lon="-2.95338">
        <ele>230.9</ele>
        <time>2022-05-29T14:15:02Z</time>
      </trkpt>
      <trkpt lat="47.81056" lon="-2.95357">
        <ele>230.7</ele>
        <time>2022-05-29T14:15:04Z</time>
      </trkpt>
      <trkpt lat="47.81031" lon="-2.95401">
        <ele>230.1</ele>
        <time>2022-05-29T14:15:08Z</time>
      </trkpt>
      <trkpt lat="47.81025" lon="-2.95412">
        <ele>229.5</ele>
        <time>2022-05-29T14:15:09Z</time>
      </trkpt>
      <trkpt lat="47.80999" lon="-2.95472">
        <ele>226.3</ele>
        <time>2022-05-29T14:15:14Z</time>
      </trkpt>
      <trkpt lat="47.80978" lon="-2.95529">
        <ele>223.8</ele>
        <time>2022-05-29T14:15:18Z</time>
      </trkpt>
      <trkpt lat="47.80968" lon="-2.95562">
        <ele>222.3</ele>
        <time>2022-05-29T14:15:20Z</time>
      </trkpt>
      <trkpt lat="47.80958" lon="-2.95594">
        <ele>219.8</ele>
        <time>2022-05-29T14:15:22Z</time>
      </trkpt>
      <trkpt lat="47.80935" lon="-2.95632">
        <ele>216</ele>
        <time>2022-05-29T14:15:25Z</time>
      </trkpt>
      <trkpt lat="47.80927" lon="-2.95638">
        <ele>214.6</ele>
        <time>2022-05-29T14:15:26Z</time>
      </trkpt>
      <trkpt lat="47.80895" lon="-2.95658">
        <ele>208.9</ele>
        <time>2022-05-29T14:15:30Z</time>
      </trkpt>
      <trkpt lat="47.80887" lon="-2.95663">
        <ele>206.4</ele>
        <time>2022-05-29T14:15:32Z</time>
      </trkpt>
      <trkpt lat="47.80886" lon="-2.95672">
        <ele>205.3</ele>
        <time>2022-05-29T14:15:34Z</time>
      </trkpt>
      <trkpt lat="47.80892" lon="-2.95707">
        <ele>203.3</ele>
        <time>2022-05-29T14:15:38Z</time>
      </trkpt>
      <trkpt lat="47.80899" lon="-2.95743">
        <ele>203.1</ele>
        <time>2022-05-29T14:15:42Z</time>
      </trkpt>
      <trkpt lat="47.80901" lon="-2.95761">
        <ele>202.9</ele>
        <time>2022-05-29T14:15:44Z</time>
      </trkpt>
      <trkpt lat="47.80898" lon="-2.95781">
        <ele>202.8</ele>
        <time>2022-05-29T14:15:46Z</time>
      </trkpt>
      <trkpt lat="47.80885" lon="-2.95817">
        <ele>202.3</ele>
        <time>2022-05-29T14:15:50Z</time>
      </trkpt>
      <trkpt lat="47.80868" lon="-2.95848">
        <ele>200.9</ele>
        <time>2022-05-29T14:15:53Z</time>
      </trkpt>
      <trkpt lat="47.80851" lon="-2.95884">
        <ele>199.2</ele>
        <time>2022-05-29T14:15:56Z</time>
      </trkpt>
      <trkpt lat="47.80839" lon="-2.95909">
        <ele>197.4</ele>
        <time>2022-05-29T14:15:58Z</time>
      </trkpt>
      <trkpt lat="47.80811" lon="-2.95966">
        <ele>193.6</ele>
        <time>2022-05-29T14:16:02Z</time>
      </trkpt>
      <trkpt lat="47.80796" lon="-2.95997">
        <ele>191.5</ele>
        <time>2022-05-29T14:16:04Z</time>
      </trkpt>
      <trkpt lat="47.80774" lon="-2.96045">
        <ele>188.1</ele>
        <time>2022-05-29T14:16:07Z</time>
      </trkpt>
      <trkpt lat="47.80766" lon="-2.96062">
        <ele>186.8</ele>
        <time>2022-05-29T14:16:08Z</time>
      </trkpt>
      <trkpt lat="47.80733" lon="-2.96131">
        <ele>181.5</ele>
        <time>2022-05-29T14:16:12Z</time>
      </trkpt>
      <trkpt lat="47.80724" lon="-2.96149">
        <ele>180</ele>
        <time>2022-05-29T14:16:13Z</time>
      </trkpt>
      <trkpt lat="47.80698" lon="-2.96203">
        <ele>174.9</ele>
        <time>2022-05-29T14:16:16Z</time>
      </trkpt>
      <trkpt lat="47.8067" lon="-2.96259">
        <ele>169.8</ele>
        <time>2022-05-29T14:16:19Z</time>
      </trkpt>
      <trkpt lat="47.80649" lon="-2.96293">
        <ele>166.9</ele>
        <time>2022-05-29T14:16:21Z</time>
      </trkpt>
      <trkpt lat="47.80612" lon="-2.96334">
        <ele>162.4</ele>
        <time>2022-05-29T14:16:24Z</time>
      </trkpt>
      <trkpt lat="47.80604" lon="-2.96347">
        <ele>161.2</ele>
        <time>2022-05-29T14:16:25Z</time>
      </trkpt>
      <trkpt lat="47.80583" lon="-2.96383">
        <ele>158.1</ele>
        <time>2022-05-29T14:16:28Z</time>
      </trkpt>
      <trkpt lat="47.80575" lon="-2.96397">
        <ele>155.4</ele>
        <time>2022-05-29T14:16:31Z</time>
      </trkpt>
      <trkpt lat="47.80572" lon="-2.96404">
        <ele>155</ele>
        <time>2022-05-29T14:16:33Z</time>
      </trkpt>
      <trkpt lat="47.80566" lon="-2.96403">
        <ele>153.4</ele>
        <time>2022-05-29T14:16:42Z</time>
      </trkpt>
      <trkpt lat="47.80562" lon="-2.96399">
        <ele>153.4</ele>
        <time>2022-05-29T14:16:43Z</time>
      </trkpt>
      <trkpt lat="47.80537" lon="-2.96376">
        <ele>154.1</ele>
        <time>2022-05-29T14:16:49Z</time>
      </trkpt>
      <trkpt lat="47.80526" lon="-2.96363">
        <ele>154.5</ele>
        <time>2022-05-29T14:16:52Z</time>
      </trkpt>
      <trkpt lat="47.80496" lon="-2.96312">
        <ele>155.6</ele>
        <time>2022-05-29T14:17:02Z</time>
      </trkpt>
      <trkpt lat="47.80462" lon="-2.96262">
        <ele>156.5</ele>
        <time>2022-05-29T14:17:11Z</time>
      </trkpt>
      <trkpt lat="47.80434" lon="-2.96239">
        <ele>157.4</ele>
        <time>2022-05-29T14:17:19Z</time>
      </trkpt>
      <trkpt lat="47.8042" lon="-2.96228">
        <ele>158.1</ele>
        <time>2022-05-29T14:17:23Z</time>
      </trkpt>
      <trkpt lat="47.8038" lon="-2.96184">
        <ele>160</ele>
        <time>2022-05-29T14:17:35Z</time>
      </trkpt>
      <trkpt lat="47.80371" lon="-2.96173">
        <ele>160.2</ele>
        <time>2022-05-29T14:17:37Z</time>
      </trkpt>
      <trkpt lat="47.80344" lon="-2.96138">
        <ele>159.4</ele>
        <time>2022-05-29T14:17:43Z</time>
      </trkpt>
      <trkpt lat="47.80313" lon="-2.96096">
        <ele>158.6</ele>
        <time>2022-05-29T14:17:49Z</time>
      </trkpt>
      <trkpt lat="47.80308" lon="-2.96088">
        <ele>158.3</ele>
        <time>2022-05-29T14:17:50Z</time>
      </trkpt>
      <trkpt lat="47.80285" lon="-2.96045">
        <ele>157</ele>
        <time>2022-05-29T14:17:55Z</time>
      </trkpt>
      <trkpt lat="47.80268" lon="-2.95978">
        <ele>155.4</ele>
        <time>2022-05-29T14:18:01Z</time>
      </trkpt>
      <trkpt lat="47.80249" lon="-2.95908">
        <ele>153.9</ele>
        <time>2022-05-29T14:18:07Z</time>
      </trkpt>
      <trkpt lat="47.80231" lon="-2.95838">
        <ele>153.5</ele>
        <time>2022-05-29T14:18:14Z</time>
      </trkpt>
      <trkpt lat="47.80223" lon="-2.95807">
        <ele>153.4</ele>
        <time>2022-05-29T14:18:18Z</time>
      </trkpt>
      <trkpt lat="47.80211" lon="-2.95769">
        <ele>154.4</ele>
        <time>2022-05-29T14:18:23Z</time>
      </trkpt>
      <trkpt lat="47.80193" lon="-2.9572">
        <ele>154.5</ele>
        <time>2022-05-29T14:18:29Z</time>
      </trkpt>
      <trkpt lat="47.80187" lon="-2.95704">
        <ele>154.7</ele>
        <time>2022-05-29T14:18:31Z</time>
      </trkpt>
      <trkpt lat="47.80152" lon="-2.95652">
        <ele>155.5</ele>
        <time>2022-05-29T14:18:39Z</time>
      </trkpt>
      <trkpt lat="47.80115" lon="-2.95612">
        <ele>156.3</ele>
        <time>2022-05-29T14:18:47Z</time>
      </trkpt>
      <trkpt lat="47.80072" lon="-2.95577">
        <ele>157.2</ele>
        <time>2022-05-29T14:18:56Z</time>
      </trkpt>
      <trkpt lat="47.80035" lon="-2.95544">
        <ele>157.9</ele>
        <time>2022-05-29T14:19:04Z</time>
      </trkpt>
      <trkpt lat="47.8003" lon="-2.95539">
        <ele>158</ele>
        <time>2022-05-29T14:19:05Z</time>
      </trkpt>
      <trkpt lat="47.8001" lon="-2.95511">
        <ele>158.3</ele>
        <time>2022-05-29T14:19:10Z</time>
      </trkpt>
      <trkpt lat="47.79997" lon="-2.95493">
        <ele>158.1</ele>
        <time>2022-05-29T14:19:13Z</time>
      </trkpt>
      <trkpt lat="47.79965" lon="-2.95442">
        <ele>157.6</ele>
        <time>2022-05-29T14:19:20Z</time>
      </trkpt>
      <trkpt lat="47.7993" lon="-2.95386">
        <ele>157.1</ele>
        <time>2022-05-29T14:19:27Z</time>
      </trkpt>
      <trkpt lat="47.79898" lon="-2.95331">
        <ele>156.6</ele>
        <time>2022-05-29T14:19:34Z</time>
      </trkpt>
      <trkpt lat="47.79869" lon="-2.95283">
        <ele>156</ele>
        <time>2022-05-29T14:19:40Z</time>
      </trkpt>
      <trkpt lat="47.79865" lon="-2.95275">
        <ele>155.8</ele>
        <time>2022-05-29T14:19:41Z</time>
      </trkpt>
      <trkpt lat="47.79841" lon="-2.95233">
        <ele>154.9</ele>
        <time>2022-05-29T14:19:48Z</time>
      </trkpt>
      <trkpt lat="47.79832" lon="-2.95235">
        <ele>154.8</ele>
        <time>2022-05-29T14:19:49Z</time>
      </trkpt>
      <trkpt lat="47.7979" lon="-2.95216">
        <ele>153.8</ele>
        <time>2022-05-29T14:19:56Z</time>
      </trkpt>
      <trkpt lat="47.7978" lon="-2.95198">
        <ele>153.5</ele>
        <time>2022-05-29T14:19:58Z</time>
      </trkpt>
      <trkpt lat="47.79772" lon="-2.9518">
        <ele>152.8</ele>
        <time>2022-05-29T14:20:00Z</time>
      </trkpt>
      <trkpt lat="47.79766" lon="-2.95139">
        <ele>151.7</ele>
        <time>2022-05-29T14:20:04Z</time>
      </trkpt>
      <trkpt lat="47.79762" lon="-2.95109">
        <ele>151.6</ele>
        <time>2022-05-29T14:20:07Z</time>
      </trkpt>
      <trkpt lat="47.79757" lon="-2.95083">
        <ele>151.4</ele>
        <time>2022-05-29T14:20:10Z</time>
      </trkpt>
      <trkpt lat="47.7975" lon="-2.95053">
        <ele>149.9</ele>
        <time>2022-05-29T14:20:14Z</time>
      </trkpt>
      <trkpt lat="47.79741" lon="-2.95046">
        <ele>148.4</ele>
        <time>2022-05-29T14:20:18Z</time>
      </trkpt>
      <trkpt lat="47.79731" lon="-2.95058">
        <ele>147.5</ele>
        <time>2022-05-29T14:20:21Z</time>
      </trkpt>
      <trkpt lat="47.79715" lon="-2.95079">
        <ele>147.4</ele>
        <time>2022-05-29T14:20:26Z</time>
      </trkpt>
      <trkpt lat="47.79705" lon="-2.95091">
        <ele>147.4</ele>
        <time>2022-05-29T14:20:29Z</time>
      </trkpt>
      <trkpt lat="47.79691" lon="-2.95103">
        <ele>147.5</ele>
        <time>2022-05-29T14:20:32Z</time>
      </trkpt>
      <trkpt lat="47.79668" lon="-2.95125">
        <ele>147.9</ele>
        <time>2022-05-29T14:20:37Z</time>
      </trkpt>
      <trkpt lat="47.79636" lon="-2.95175">
        <ele>148.5</ele>
        <time>2022-05-29T14:20:45Z</time>
      </trkpt>
      <trkpt lat="47.79609" lon="-2.95229">
        <ele>149.1</ele>
        <time>2022-05-29T14:20:53Z</time>
      </trkpt>
      <trkpt lat="47.79581" lon="-2.95286">
        <ele>149.6</ele>
        <time>2022-05-29T14:21:00Z</time>
      </trkpt>
      <trkpt lat="47.79553" lon="-2.9535">
        <ele>150.1</ele>
        <time>2022-05-29T14:21:07Z</time>
      </trkpt>
      <trkpt lat="47.7953" lon="-2.95411">
        <ele>150.7</ele>
        <time>2022-05-29T14:21:14Z</time>
      </trkpt>
      <trkpt lat="47.7951" lon="-2.95475">
        <ele>151.2</ele>
        <time>2022-05-29T14:21:21Z</time>
      </trkpt>
      <trkpt lat="47.79488" lon="-2.95537">
        <ele>151.7</ele>
        <time>2022-05-29T14:21:28Z</time>
      </trkpt>
      <trkpt lat="47.79486" lon="-2.95545">
        <ele>151.8</ele>
        <time>2022-05-29T14:21:29Z</time>
      </trkpt>
      <trkpt lat="47.79485" lon="-2.95563">
        <ele>152</ele>
        <time>2022-05-29T14:21:31Z</time>
      </trkpt>
      <trkpt lat="47.7948" lon="-2.95615">
        <ele>152.6</ele>
        <time>2022-05-29T14:21:38Z</time>
      </trkpt>
      <trkpt lat="47.79479" lon="-2.95629">
        <ele>153.2</ele>
        <time>2022-05-29T14:21:40Z</time>
      </trkpt>
      <trkpt lat="47.79478" lon="-2.95686">
        <ele>156.2</ele>
        <time>2022-05-29T14:21:50Z</time>
      </trkpt>
      <trkpt lat="47.79477" lon="-2.95697">
        <ele>156.7</ele>
        <time>2022-05-29T14:21:52Z</time>
      </trkpt>
      <trkpt lat="47.79466" lon="-2.95743">
        <ele>159</ele>
        <time>2022-05-29T14:22:02Z</time>
      </trkpt>
      <trkpt lat="47.79463" lon="-2.95746">
        <ele>159.2</ele>
        <time>2022-05-29T14:22:03Z</time>
      </trkpt>
      <trkpt lat="47.79436" lon="-2.95792">
        <ele>161.5</ele>
        <time>2022-05-29T14:22:15Z</time>
      </trkpt>
      <trkpt lat="47.79428" lon="-2.95803">
        <ele>162.1</ele>
        <time>2022-05-29T14:22:18Z</time>
      </trkpt>
      <trkpt lat="47.79423" lon="-2.95811">
        <ele>162.5</ele>
        <time>2022-05-29T14:22:20Z</time>
      </trkpt>
      <trkpt lat="47.79415" lon="-2.95827">
        <ele>163.2</ele>
        <time>2022-05-29T14:22:24Z</time>
      </trkpt>
      <trkpt lat="47.79384" lon="-2.95874">
        <ele>165.7</ele>
        <time>2022-05-29T14:22:37Z</time>
      </trkpt>
      <trkpt lat="47.79374" lon="-2.95884">
        <ele>168.6</ele>
        <time>2022-05-29T14:22:45Z</time>
      </trkpt>
      <trkpt lat="47.79374" lon="-2.95884">
        <ele>168.6</ele>
        <time>2022-05-29T14:23:06Z</time>
      </trkpt>
      <trkpt lat="47.79366" lon="-2.9589">
        <ele>171.3</ele>
        <time>2022-05-29T14:23:07Z</time>
      </trkpt>
      <trkpt lat="47.79369" lon="-2.95859">
        <ele>173.8</ele>
        <time>2022-05-29T14:23:17Z</time>
      </trkpt>
      <trkpt lat="47.79366" lon="-2.95851">
        <ele>174.3</ele>
        <time>2022-05-29T14:23:19Z</time>
      </trkpt>
      <trkpt lat="47.7935" lon="-2.95807">
        <ele>177.2</ele>
        <time>2022-05-29T14:23:31Z</time>
      </trkpt>
      <trkpt lat="47.79329" lon="-2.95807">
        <ele>178.6</ele>
        <time>2022-05-29T14:23:37Z</time>
      </trkpt>
      <trkpt lat="47.79303" lon="-2.95806">
        <ele>178.9</ele>
        <time>2022-05-29T14:23:44Z</time>
      </trkpt>
      <trkpt lat="47.79279" lon="-2.95809">
        <ele>179</ele>
        <time>2022-05-29T14:23:49Z</time>
      </trkpt>
      <trkpt lat="47.79255" lon="-2.95812">
        <ele>178.4</ele>
        <time>2022-05-29T14:23:54Z</time>
      </trkpt>
      <trkpt lat="47.79224" lon="-2.95806">
        <ele>177.7</ele>
        <time>2022-05-29T14:24:00Z</time>
      </trkpt>
      <trkpt lat="47.79219" lon="-2.95803">
        <ele>177.7</ele>
        <time>2022-05-29T14:24:01Z</time>
      </trkpt>
      <trkpt lat="47.79187" lon="-2.95785">
        <ele>177.5</ele>
        <time>2022-05-29T14:24:07Z</time>
      </trkpt>
      <trkpt lat="47.79182" lon="-2.95782">
        <ele>177.5</ele>
        <time>2022-05-29T14:24:08Z</time>
      </trkpt>
      <trkpt lat="47.79137" lon="-2.95755">
        <ele>177.3</ele>
        <time>2022-05-29T14:24:16Z</time>
      </trkpt>
      <trkpt lat="47.79093" lon="-2.95729">
        <ele>177.1</ele>
        <time>2022-05-29T14:24:24Z</time>
      </trkpt>
      <trkpt lat="47.79049" lon="-2.95701">
        <ele>176.9</ele>
        <time>2022-05-29T14:24:32Z</time>
      </trkpt>
      <trkpt lat="47.79005" lon="-2.95674">
        <ele>176.7</ele>
        <time>2022-05-29T14:24:40Z</time>
      </trkpt>
      <trkpt lat="47.78956" lon="-2.95648">
        <ele>176.5</ele>
        <time>2022-05-29T14:24:47Z</time>
      </trkpt>
      <trkpt lat="47.78911" lon="-2.95641">
        <ele>176.3</ele>
        <time>2022-05-29T14:24:53Z</time>
      </trkpt>
      <trkpt lat="47.78868" lon="-2.95646">
        <ele>176.3</ele>
        <time>2022-05-29T14:24:59Z</time>
      </trkpt>
      <trkpt lat="47.7886" lon="-2.95647">
        <ele>176.4</ele>
        <time>2022-05-29T14:25:00Z</time>
      </trkpt>
      <trkpt lat="47.78824" lon="-2.95655">
        <ele>176.8</ele>
        <time>2022-05-29T14:25:05Z</time>
      </trkpt>
      <trkpt lat="47.78781" lon="-2.95679">
        <ele>177.3</ele>
        <time>2022-05-29T14:25:12Z</time>
      </trkpt>
      <trkpt lat="47.78759" lon="-2.95692">
        <ele>177.9</ele>
        <time>2022-05-29T14:25:17Z</time>
      </trkpt>
      <trkpt lat="47.78738" lon="-2.95704">
        <ele>179.5</ele>
        <time>2022-05-29T14:25:22Z</time>
      </trkpt>
      <trkpt lat="47.78735" lon="-2.95706">
        <ele>179.8</ele>
        <time>2022-05-29T14:25:23Z</time>
      </trkpt>
      <trkpt lat="47.78701" lon="-2.95726">
        <ele>183.2</ele>
        <time>2022-05-29T14:25:35Z</time>
      </trkpt>
      <trkpt lat="47.78696" lon="-2.95729">
        <ele>183.8</ele>
        <time>2022-05-29T14:25:37Z</time>
      </trkpt>
      <trkpt lat="47.78672" lon="-2.95743">
        <ele>186.5</ele>
        <time>2022-05-29T14:25:47Z</time>
      </trkpt>
      <trkpt lat="47.78651" lon="-2.95755">
        <ele>189.1</ele>
        <time>2022-05-29T14:25:56Z</time>
      </trkpt>
      <trkpt lat="47.78641" lon="-2.95761">
        <ele>189.9</ele>
        <time>2022-05-29T14:25:59Z</time>
      </trkpt>
      <trkpt lat="47.78607" lon="-2.95781">
        <ele>192.1</ele>
        <time>2022-05-29T14:26:09Z</time>
      </trkpt>
      <trkpt lat="47.78599" lon="-2.95787">
        <ele>192.5</ele>
        <time>2022-05-29T14:26:11Z</time>
      </trkpt>
      <trkpt lat="47.78577" lon="-2.95805">
        <ele>193.1</ele>
        <time>2022-05-29T14:26:17Z</time>
      </trkpt>
      <trkpt lat="47.78565" lon="-2.95814">
        <ele>193.3</ele>
        <time>2022-05-29T14:26:20Z</time>
      </trkpt>
      <trkpt lat="47.78534" lon="-2.95834">
        <ele>193.8</ele>
        <time>2022-05-29T14:26:28Z</time>
      </trkpt>
      <trkpt lat="47.78511" lon="-2.95853">
        <ele>194.4</ele>
        <time>2022-05-29T14:26:35Z</time>
      </trkpt>
      <trkpt lat="47.78495" lon="-2.95867">
        <ele>195.7</ele>
        <time>2022-05-29T14:26:40Z</time>
      </trkpt>
      <trkpt lat="47.78475" lon="-2.95875">
        <ele>197.5</ele>
        <time>2022-05-29T14:26:47Z</time>
      </trkpt>
      <trkpt lat="47.78457" lon="-2.95881">
        <ele>198.9</ele>
        <time>2022-05-29T14:26:53Z</time>
      </trkpt>
      <trkpt lat="47.78438" lon="-2.95873">
        <ele>200.2</ele>
        <time>2022-05-29T14:26:59Z</time>
      </trkpt>
      <trkpt lat="47.78432" lon="-2.95869">
        <ele>200.5</ele>
        <time>2022-05-29T14:27:01Z</time>
      </trkpt>
      <trkpt lat="47.78398" lon="-2.9582">
        <ele>202</ele>
        <time>2022-05-29T14:27:12Z</time>
      </trkpt>
      <trkpt lat="47.78379" lon="-2.95791">
        <ele>202.6</ele>
        <time>2022-05-29T14:27:17Z</time>
      </trkpt>
      <trkpt lat="47.78364" lon="-2.95768">
        <ele>202</ele>
        <time>2022-05-29T14:27:21Z</time>
      </trkpt>
      <trkpt lat="47.78325" lon="-2.95713">
        <ele>200.9</ele>
        <time>2022-05-29T14:27:29Z</time>
      </trkpt>
      <trkpt lat="47.78288" lon="-2.95657">
        <ele>198.9</ele>
        <time>2022-05-29T14:27:35Z</time>
      </trkpt>
      <trkpt lat="47.78255" lon="-2.95607">
        <ele>197.4</ele>
        <time>2022-05-29T14:27:40Z</time>
      </trkpt>
      <trkpt lat="47.78217" lon="-2.95554">
        <ele>195.5</ele>
        <time>2022-05-29T14:27:46Z</time>
      </trkpt>
      <trkpt lat="47.78211" lon="-2.95545">
        <ele>195.4</ele>
        <time>2022-05-29T14:27:47Z</time>
      </trkpt>
      <trkpt lat="47.78184" lon="-2.95505">
        <ele>195.8</ele>
        <time>2022-05-29T14:27:52Z</time>
      </trkpt>
      <trkpt lat="47.78179" lon="-2.95498">
        <ele>195.9</ele>
        <time>2022-05-29T14:27:53Z</time>
      </trkpt>
      <trkpt lat="47.78149" lon="-2.95457">
        <ele>196.9</ele>
        <time>2022-05-29T14:27:59Z</time>
      </trkpt>
      <trkpt lat="47.78117" lon="-2.95408">
        <ele>198.4</ele>
        <time>2022-05-29T14:28:07Z</time>
      </trkpt>
      <trkpt lat="47.7808" lon="-2.95357">
        <ele>200.1</ele>
        <time>2022-05-29T14:28:16Z</time>
      </trkpt>
      <trkpt lat="47.78075" lon="-2.95352">
        <ele>200.2</ele>
        <time>2022-05-29T14:28:17Z</time>
      </trkpt>
      <trkpt lat="47.78044" lon="-2.95323">
        <ele>200.2</ele>
        <time>2022-05-29T14:28:23Z</time>
      </trkpt>
      <trkpt lat="47.78026" lon="-2.95318">
        <ele>199.9</ele>
        <time>2022-05-29T14:28:26Z</time>
      </trkpt>
      <trkpt lat="47.78019" lon="-2.95317">
        <ele>199.8</ele>
        <time>2022-05-29T14:28:27Z</time>
      </trkpt>
      <trkpt lat="47.78013" lon="-2.95316">
        <ele>199.6</ele>
        <time>2022-05-29T14:28:28Z</time>
      </trkpt>
      <trkpt lat="47.77968" lon="-2.95314">
        <ele>198.8</ele>
        <time>2022-05-29T14:28:35Z</time>
      </trkpt>
      <trkpt lat="47.77919" lon="-2.95308">
        <ele>198</ele>
        <time>2022-05-29T14:28:42Z</time>
      </trkpt>
      <trkpt lat="47.77872" lon="-2.95284">
        <ele>197.1</ele>
        <time>2022-05-29T14:28:49Z</time>
      </trkpt>
      <trkpt lat="47.77858" lon="-2.95272">
        <ele>196.7</ele>
        <time>2022-05-29T14:28:51Z</time>
      </trkpt>
      <trkpt lat="47.77834" lon="-2.95257">
        <ele>195.4</ele>
        <time>2022-05-29T14:28:54Z</time>
      </trkpt>
      <trkpt lat="47.77814" lon="-2.95258">
        <ele>194.5</ele>
        <time>2022-05-29T14:28:56Z</time>
      </trkpt>
      <trkpt lat="47.77783" lon="-2.95259">
        <ele>192.5</ele>
        <time>2022-05-29T14:28:59Z</time>
      </trkpt>
      <trkpt lat="47.77749" lon="-2.95259">
        <ele>190.6</ele>
        <time>2022-05-29T14:29:02Z</time>
      </trkpt>
      <trkpt lat="47.77738" lon="-2.95259">
        <ele>190</ele>
        <time>2022-05-29T14:29:03Z</time>
      </trkpt>
      <trkpt lat="47.77715" lon="-2.95258">
        <ele>188.8</ele>
        <time>2022-05-29T14:29:05Z</time>
      </trkpt>
      <trkpt lat="47.77704" lon="-2.95257">
        <ele>188.3</ele>
        <time>2022-05-29T14:29:06Z</time>
      </trkpt>
      <trkpt lat="47.77649" lon="-2.9526">
        <ele>185.4</ele>
        <time>2022-05-29T14:29:11Z</time>
      </trkpt>
      <trkpt lat="47.77624" lon="-2.9525">
        <ele>184.2</ele>
        <time>2022-05-29T14:29:13Z</time>
      </trkpt>
      <trkpt lat="47.77613" lon="-2.95239">
        <ele>183.4</ele>
        <time>2022-05-29T14:29:14Z</time>
      </trkpt>
      <trkpt lat="47.7758" lon="-2.95205">
        <ele>179.8</ele>
        <time>2022-05-29T14:29:17Z</time>
      </trkpt>
      <trkpt lat="47.77547" lon="-2.95172">
        <ele>176.1</ele>
        <time>2022-05-29T14:29:20Z</time>
      </trkpt>
      <trkpt lat="47.77535" lon="-2.95159">
        <ele>174.5</ele>
        <time>2022-05-29T14:29:21Z</time>
      </trkpt>
      <trkpt lat="47.77488" lon="-2.95107">
        <ele>168.2</ele>
        <time>2022-05-29T14:29:25Z</time>
      </trkpt>
      <trkpt lat="47.77475" lon="-2.95094">
        <ele>166.6</ele>
        <time>2022-05-29T14:29:26Z</time>
      </trkpt>
      <trkpt lat="47.77451" lon="-2.95067">
        <ele>163.6</ele>
        <time>2022-05-29T14:29:28Z</time>
      </trkpt>
      <trkpt lat="47.77439" lon="-2.95053">
        <ele>162</ele>
        <time>2022-05-29T14:29:29Z</time>
      </trkpt>
      <trkpt lat="47.77397" lon="-2.95016">
        <ele>157.7</ele>
        <time>2022-05-29T14:29:32Z</time>
      </trkpt>
      <trkpt lat="47.77355" lon="-2.94983">
        <ele>154.7</ele>
        <time>2022-05-29T14:29:35Z</time>
      </trkpt>
      <trkpt lat="47.77319" lon="-2.94965">
        <ele>152.1</ele>
        <time>2022-05-29T14:29:38Z</time>
      </trkpt>
      <trkpt lat="47.77308" lon="-2.94959">
        <ele>152.1</ele>
        <time>2022-05-29T14:29:39Z</time>
      </trkpt>
      <trkpt lat="47.77297" lon="-2.94957">
        <ele>152.1</ele>
        <time>2022-05-29T14:29:40Z</time>
      </trkpt>
      <trkpt lat="47.77286" lon="-2.94957">
        <ele>152</ele>
        <time>2022-05-29T14:29:41Z</time>
      </trkpt>
      <trkpt lat="47.77244" lon="-2.9495">
        <ele>152</ele>
        <time>2022-05-29T14:29:45Z</time>
      </trkpt>
      <trkpt lat="47.772" lon="-2.94949">
        <ele>151.7</ele>
        <time>2022-05-29T14:29:50Z</time>
      </trkpt>
      <trkpt lat="47.77191" lon="-2.9495">
        <ele>151.4</ele>
        <time>2022-05-29T14:29:51Z</time>
      </trkpt>
      <trkpt lat="47.77172" lon="-2.94951">
        <ele>150.7</ele>
        <time>2022-05-29T14:29:53Z</time>
      </trkpt>
      <trkpt lat="47.77153" lon="-2.94955">
        <ele>150</ele>
        <time>2022-05-29T14:29:55Z</time>
      </trkpt>
      <trkpt lat="47.77144" lon="-2.94968">
        <ele>149.6</ele>
        <time>2022-05-29T14:29:56Z</time>
      </trkpt>
      <trkpt lat="47.77138" lon="-2.94981">
        <ele>149.3</ele>
        <time>2022-05-29T14:29:57Z</time>
      </trkpt>
      <trkpt lat="47.77107" lon="-2.95011">
        <ele>147.9</ele>
        <time>2022-05-29T14:30:01Z</time>
      </trkpt>
      <trkpt lat="47.77095" lon="-2.95014">
        <ele>147.7</ele>
        <time>2022-05-29T14:30:02Z</time>
      </trkpt>
      <trkpt lat="47.77085" lon="-2.95016">
        <ele>147.7</ele>
        <time>2022-05-29T14:30:03Z</time>
      </trkpt>
      <trkpt lat="47.77036" lon="-2.9502">
        <ele>147.5</ele>
        <time>2022-05-29T14:30:09Z</time>
      </trkpt>
      <trkpt lat="47.76999" lon="-2.95027">
        <ele>147.4</ele>
        <time>2022-05-29T14:30:14Z</time>
      </trkpt>
      <trkpt lat="47.76985" lon="-2.9503">
        <ele>147.4</ele>
        <time>2022-05-29T14:30:16Z</time>
      </trkpt>
      <trkpt lat="47.7694" lon="-2.95032">
        <ele>147.3</ele>
        <time>2022-05-29T14:30:24Z</time>
      </trkpt>
      <trkpt lat="47.76933" lon="-2.9502">
        <ele>147.3</ele>
        <time>2022-05-29T14:30:25Z</time>
      </trkpt>
      <trkpt lat="47.76925" lon="-2.94953">
        <ele>147.2</ele>
        <time>2022-05-29T14:30:33Z</time>
      </trkpt>
      <trkpt lat="47.76918" lon="-2.94899">
        <ele>147.1</ele>
        <time>2022-05-29T14:30:38Z</time>
      </trkpt>
      <trkpt lat="47.76916" lon="-2.94888">
        <ele>147.1</ele>
        <time>2022-05-29T14:30:39Z</time>
      </trkpt>
      <trkpt lat="47.76913" lon="-2.94815">
        <ele>147</ele>
        <time>2022-05-29T14:30:46Z</time>
      </trkpt>
      <trkpt lat="47.76915" lon="-2.94785">
        <ele>146.9</ele>
        <time>2022-05-29T14:30:49Z</time>
      </trkpt>
      <trkpt lat="47.76931" lon="-2.94745">
        <ele>146.9</ele>
        <time>2022-05-29T14:30:54Z</time>
      </trkpt>
      <trkpt lat="47.76941" lon="-2.94722">
        <ele>147.2</ele>
        <time>2022-05-29T14:30:57Z</time>
      </trkpt>
      <trkpt lat="47.76963" lon="-2.94682">
        <ele>147.9</ele>
        <time>2022-05-29T14:31:03Z</time>
      </trkpt>
      <trkpt lat="47.76969" lon="-2.94669">
        <ele>148.1</ele>
        <time>2022-05-29T14:31:05Z</time>
      </trkpt>
      <trkpt lat="47.76992" lon="-2.94626">
        <ele>149.3</ele>
        <time>2022-05-29T14:31:12Z</time>
      </trkpt>
      <trkpt lat="47.76996" lon="-2.94607">
        <ele>149.8</ele>
        <time>2022-05-29T14:31:15Z</time>
      </trkpt>
      <trkpt lat="47.76996" lon="-2.94598">
        <ele>150.1</ele>
        <time>2022-05-29T14:31:17Z</time>
      </trkpt>
      <trkpt lat="47.76995" lon="-2.94596">
        <ele>150.2</ele>
        <time>2022-05-29T14:31:18Z</time>
      </trkpt>
      <trkpt lat="47.76957" lon="-2.94568">
        <ele>151.5</ele>
        <time>2022-05-29T14:31:28Z</time>
      </trkpt>
      <trkpt lat="47.76934" lon="-2.94524">
        <ele>152.4</ele>
        <time>2022-05-29T14:31:35Z</time>
      </trkpt>
      <trkpt lat="47.76928" lon="-2.94511">
        <ele>152.2</ele>
        <time>2022-05-29T14:31:37Z</time>
      </trkpt>
      <trkpt lat="47.76905" lon="-2.94449">
        <ele>151.7</ele>
        <time>2022-05-29T14:31:46Z</time>
      </trkpt>
      <trkpt lat="47.76883" lon="-2.9439">
        <ele>151.3</ele>
        <time>2022-05-29T14:31:53Z</time>
      </trkpt>
      <trkpt lat="47.7686" lon="-2.94326">
        <ele>150.8</ele>
        <time>2022-05-29T14:32:01Z</time>
      </trkpt>
      <trkpt lat="47.76837" lon="-2.94264">
        <ele>150.3</ele>
        <time>2022-05-29T14:32:08Z</time>
      </trkpt>
      <trkpt lat="47.76819" lon="-2.94225">
        <ele>150.1</ele>
        <time>2022-05-29T14:32:12Z</time>
      </trkpt>
      <trkpt lat="47.76813" lon="-2.94221">
        <ele>150</ele>
        <time>2022-05-29T14:32:13Z</time>
      </trkpt>
      <trkpt lat="47.76785" lon="-2.94215">
        <ele>149.8</ele>
        <time>2022-05-29T14:32:17Z</time>
      </trkpt>
      <trkpt lat="47.76765" lon="-2.9421">
        <ele>149.6</ele>
        <time>2022-05-29T14:32:20Z</time>
      </trkpt>
      <trkpt lat="47.76752" lon="-2.94201">
        <ele>149.7</ele>
        <time>2022-05-29T14:32:23Z</time>
      </trkpt>
      <trkpt lat="47.76745" lon="-2.94188">
        <ele>150.3</ele>
        <time>2022-05-29T14:32:25Z</time>
      </trkpt>
      <trkpt lat="47.76734" lon="-2.94169">
        <ele>151.2</ele>
        <time>2022-05-29T14:32:28Z</time>
      </trkpt>
      <trkpt lat="47.76732" lon="-2.9416">
        <ele>151.5</ele>
        <time>2022-05-29T14:32:29Z</time>
      </trkpt>
      <trkpt lat="47.76723" lon="-2.94124">
        <ele>152.5</ele>
        <time>2022-05-29T14:32:33Z</time>
      </trkpt>
      <trkpt lat="47.76716" lon="-2.94111">
        <ele>153</ele>
        <time>2022-05-29T14:32:35Z</time>
      </trkpt>
      <trkpt lat="47.76708" lon="-2.94067">
        <ele>154.2</ele>
        <time>2022-05-29T14:32:41Z</time>
      </trkpt>
      <trkpt lat="47.76704" lon="-2.94045">
        <ele>155</ele>
        <time>2022-05-29T14:32:44Z</time>
      </trkpt>
      <trkpt lat="47.76696" lon="-2.94028">
        <ele>155.7</ele>
        <time>2022-05-29T14:32:47Z</time>
      </trkpt>
      <trkpt lat="47.76681" lon="-2.93989">
        <ele>157.2</ele>
        <time>2022-05-29T14:32:53Z</time>
      </trkpt>
      <trkpt lat="47.76673" lon="-2.93969">
        <ele>157.9</ele>
        <time>2022-05-29T14:32:56Z</time>
      </trkpt>
      <trkpt lat="47.76665" lon="-2.93952">
        <ele>158.6</ele>
        <time>2022-05-29T14:32:59Z</time>
      </trkpt>
      <trkpt lat="47.76646" lon="-2.93913">
        <ele>160.3</ele>
        <time>2022-05-29T14:33:06Z</time>
      </trkpt>
      <trkpt lat="47.76628" lon="-2.9386">
        <ele>162.5</ele>
        <time>2022-05-29T14:33:15Z</time>
      </trkpt>
      <trkpt lat="47.76624" lon="-2.93849">
        <ele>163</ele>
        <time>2022-05-29T14:33:17Z</time>
      </trkpt>
      <trkpt lat="47.76614" lon="-2.93829">
        <ele>164</ele>
        <time>2022-05-29T14:33:21Z</time>
      </trkpt>
      <trkpt lat="47.76599" lon="-2.93799">
        <ele>164.9</ele>
        <time>2022-05-29T14:33:27Z</time>
      </trkpt>
      <trkpt lat="47.76597" lon="-2.93795">
        <ele>165.1</ele>
        <time>2022-05-29T14:33:28Z</time>
      </trkpt>
      <trkpt lat="47.76561" lon="-2.93751">
        <ele>167.9</ele>
        <time>2022-05-29T14:33:40Z</time>
      </trkpt>
      <trkpt lat="47.76546" lon="-2.93734">
        <ele>169</ele>
        <time>2022-05-29T14:33:45Z</time>
      </trkpt>
      <trkpt lat="47.76523" lon="-2.93707">
        <ele>170.4</ele>
        <time>2022-05-29T14:33:53Z</time>
      </trkpt>
      <trkpt lat="47.76495" lon="-2.9367">
        <ele>172.1</ele>
        <time>2022-05-29T14:34:03Z</time>
      </trkpt>
      <trkpt lat="47.76487" lon="-2.93658">
        <ele>172.7</ele>
        <time>2022-05-29T14:34:06Z</time>
      </trkpt>
      <trkpt lat="47.76477" lon="-2.93641">
        <ele>173.5</ele>
        <time>2022-05-29T14:34:10Z</time>
      </trkpt>
      <trkpt lat="47.76466" lon="-2.93627">
        <ele>174.3</ele>
        <time>2022-05-29T14:34:14Z</time>
      </trkpt>
      <trkpt lat="47.7645" lon="-2.93596">
        <ele>175.7</ele>
        <time>2022-05-29T14:34:21Z</time>
      </trkpt>
      <trkpt lat="47.76437" lon="-2.9357">
        <ele>176.9</ele>
        <time>2022-05-29T14:34:27Z</time>
      </trkpt>
      <trkpt lat="47.76418" lon="-2.93532">
        <ele>178.5</ele>
        <time>2022-05-29T14:34:35Z</time>
      </trkpt>
      <trkpt lat="47.76406" lon="-2.93517">
        <ele>179.2</ele>
        <time>2022-05-29T14:34:39Z</time>
      </trkpt>
      <trkpt lat="47.7639" lon="-2.93498">
        <ele>179.8</ele>
        <time>2022-05-29T14:34:44Z</time>
      </trkpt>
      <trkpt lat="47.76359" lon="-2.93475">
        <ele>180.5</ele>
        <time>2022-05-29T14:34:51Z</time>
      </trkpt>
      <trkpt lat="47.76349" lon="-2.93469">
        <ele>180</ele>
        <time>2022-05-29T14:34:53Z</time>
      </trkpt>
      <trkpt lat="47.76329" lon="-2.9346">
        <ele>179.3</ele>
        <time>2022-05-29T14:34:56Z</time>
      </trkpt>
      <trkpt lat="47.76286" lon="-2.9343">
        <ele>177.9</ele>
        <time>2022-05-29T14:35:02Z</time>
      </trkpt>
      <trkpt lat="47.76278" lon="-2.93424">
        <ele>177.7</ele>
        <time>2022-05-29T14:35:03Z</time>
      </trkpt>
      <trkpt lat="47.76241" lon="-2.93396">
        <ele>176.6</ele>
        <time>2022-05-29T14:35:08Z</time>
      </trkpt>
      <trkpt lat="47.76203" lon="-2.93352">
        <ele>175.3</ele>
        <time>2022-05-29T14:35:14Z</time>
      </trkpt>
      <trkpt lat="47.76164" lon="-2.93309">
        <ele>174.6</ele>
        <time>2022-05-29T14:35:20Z</time>
      </trkpt>
      <trkpt lat="47.76126" lon="-2.93267">
        <ele>173.8</ele>
        <time>2022-05-29T14:35:26Z</time>
      </trkpt>
      <trkpt lat="47.76086" lon="-2.93228">
        <ele>173.3</ele>
        <time>2022-05-29T14:35:32Z</time>
      </trkpt>
      <trkpt lat="47.76058" lon="-2.93205">
        <ele>172.9</ele>
        <time>2022-05-29T14:35:36Z</time>
      </trkpt>
      <trkpt lat="47.76004" lon="-2.93177">
        <ele>172.4</ele>
        <time>2022-05-29T14:35:43Z</time>
      </trkpt>
      <trkpt lat="47.75997" lon="-2.93174">
        <ele>172.4</ele>
        <time>2022-05-29T14:35:44Z</time>
      </trkpt>
      <trkpt lat="47.75958" lon="-2.93157">
        <ele>174</ele>
        <time>2022-05-29T14:35:50Z</time>
      </trkpt>
      <trkpt lat="47.75947" lon="-2.9315">
        <ele>174.9</ele>
        <time>2022-05-29T14:35:52Z</time>
      </trkpt>
      <trkpt lat="47.75931" lon="-2.93124">
        <ele>176.5</ele>
        <time>2022-05-29T14:35:56Z</time>
      </trkpt>
      <trkpt lat="47.75915" lon="-2.93099">
        <ele>177.6</ele>
        <time>2022-05-29T14:36:00Z</time>
      </trkpt>
      <trkpt lat="47.75885" lon="-2.93054">
        <ele>179.5</ele>
        <time>2022-05-29T14:36:08Z</time>
      </trkpt>
      <trkpt lat="47.75881" lon="-2.93048">
        <ele>179.7</ele>
        <time>2022-05-29T14:36:09Z</time>
      </trkpt>
      <trkpt lat="47.75863" lon="-2.93018">
        <ele>180.3</ele>
        <time>2022-05-29T14:36:14Z</time>
      </trkpt>
      <trkpt lat="47.75848" lon="-2.92994">
        <ele>180.8</ele>
        <time>2022-05-29T14:36:18Z</time>
      </trkpt>
      <trkpt lat="47.75815" lon="-2.92943">
        <ele>181.7</ele>
        <time>2022-05-29T14:36:26Z</time>
      </trkpt>
      <trkpt lat="47.75779" lon="-2.92895">
        <ele>181.2</ele>
        <time>2022-05-29T14:36:34Z</time>
      </trkpt>
      <trkpt lat="47.75756" lon="-2.92878">
        <ele>180.9</ele>
        <time>2022-05-29T14:36:38Z</time>
      </trkpt>
      <trkpt lat="47.75709" lon="-2.92871">
        <ele>180.4</ele>
        <time>2022-05-29T14:36:45Z</time>
      </trkpt>
      <trkpt lat="47.75663" lon="-2.9287">
        <ele>179.9</ele>
        <time>2022-05-29T14:36:52Z</time>
      </trkpt>
      <trkpt lat="47.75614" lon="-2.92892">
        <ele>179.4</ele>
        <time>2022-05-29T14:36:59Z</time>
      </trkpt>
      <trkpt lat="47.75592" lon="-2.92905">
        <ele>179</ele>
        <time>2022-05-29T14:37:02Z</time>
      </trkpt>
      <trkpt lat="47.75569" lon="-2.92919">
        <ele>177.6</ele>
        <time>2022-05-29T14:37:05Z</time>
      </trkpt>
      <trkpt lat="47.75525" lon="-2.92945">
        <ele>175.4</ele>
        <time>2022-05-29T14:37:10Z</time>
      </trkpt>
      <trkpt lat="47.75495" lon="-2.9296">
        <ele>174.1</ele>
        <time>2022-05-29T14:37:13Z</time>
      </trkpt>
      <trkpt lat="47.75475" lon="-2.92969">
        <ele>173.5</ele>
        <time>2022-05-29T14:37:15Z</time>
      </trkpt>
      <trkpt lat="47.75424" lon="-2.92992">
        <ele>171.9</ele>
        <time>2022-05-29T14:37:20Z</time>
      </trkpt>
      <trkpt lat="47.75394" lon="-2.93005">
        <ele>171.2</ele>
        <time>2022-05-29T14:37:23Z</time>
      </trkpt>
      <trkpt lat="47.75375" lon="-2.93013">
        <ele>171.1</ele>
        <time>2022-05-29T14:37:25Z</time>
      </trkpt>
      <trkpt lat="47.75337" lon="-2.93031">
        <ele>171.1</ele>
        <time>2022-05-29T14:37:29Z</time>
      </trkpt>
      <trkpt lat="47.75328" lon="-2.93035">
        <ele>171.2</ele>
        <time>2022-05-29T14:37:30Z</time>
      </trkpt>
      <trkpt lat="47.75292" lon="-2.9305">
        <ele>171.7</ele>
        <time>2022-05-29T14:37:34Z</time>
      </trkpt>
      <trkpt lat="47.75268" lon="-2.93044">
        <ele>172</ele>
        <time>2022-05-29T14:37:37Z</time>
      </trkpt>
      <trkpt lat="47.7524" lon="-2.93021">
        <ele>172.5</ele>
        <time>2022-05-29T14:37:41Z</time>
      </trkpt>
      <trkpt lat="47.7523" lon="-2.93005">
        <ele>172.7</ele>
        <time>2022-05-29T14:37:43Z</time>
      </trkpt>
      <trkpt lat="47.75204" lon="-2.92949">
        <ele>173.5</ele>
        <time>2022-05-29T14:37:49Z</time>
      </trkpt>
      <trkpt lat="47.75178" lon="-2.92893">
        <ele>174.3</ele>
        <time>2022-05-29T14:37:56Z</time>
      </trkpt>
      <trkpt lat="47.7515" lon="-2.92838">
        <ele>175.2</ele>
        <time>2022-05-29T14:38:04Z</time>
      </trkpt>
      <trkpt lat="47.75147" lon="-2.92832">
        <ele>175.4</ele>
        <time>2022-05-29T14:38:05Z</time>
      </trkpt>
      <trkpt lat="47.75121" lon="-2.92783">
        <ele>176.4</ele>
        <time>2022-05-29T14:38:14Z</time>
      </trkpt>
      <trkpt lat="47.75089" lon="-2.92727">
        <ele>177.6</ele>
        <time>2022-05-29T14:38:24Z</time>
      </trkpt>
      <trkpt lat="47.75074" lon="-2.92699">
        <ele>178.2</ele>
        <time>2022-05-29T14:38:29Z</time>
      </trkpt>
      <trkpt lat="47.75059" lon="-2.92671">
        <ele>178</ele>
        <time>2022-05-29T14:38:34Z</time>
      </trkpt>
      <trkpt lat="47.7503" lon="-2.92619">
        <ele>177.8</ele>
        <time>2022-05-29T14:38:43Z</time>
      </trkpt>
      <trkpt lat="47.75001" lon="-2.92566">
        <ele>177.6</ele>
        <time>2022-05-29T14:38:51Z</time>
      </trkpt>
      <trkpt lat="47.74971" lon="-2.92512">
        <ele>177.5</ele>
        <time>2022-05-29T14:38:59Z</time>
      </trkpt>
      <trkpt lat="47.74939" lon="-2.92459">
        <ele>177.3</ele>
        <time>2022-05-29T14:39:07Z</time>
      </trkpt>
      <trkpt lat="47.74905" lon="-2.92402">
        <ele>177.1</ele>
        <time>2022-05-29T14:39:14Z</time>
      </trkpt>
      <trkpt lat="47.74895" lon="-2.92384">
        <ele>176.9</ele>
        <time>2022-05-29T14:39:16Z</time>
      </trkpt>
      <trkpt lat="47.74874" lon="-2.92346">
        <ele>175.8</ele>
        <time>2022-05-29T14:39:20Z</time>
      </trkpt>
      <trkpt lat="47.74841" lon="-2.92297">
        <ele>174.3</ele>
        <time>2022-05-29T14:39:25Z</time>
      </trkpt>
      <trkpt lat="47.74807" lon="-2.92268">
        <ele>173.2</ele>
        <time>2022-05-29T14:39:29Z</time>
      </trkpt>
      <trkpt lat="47.74781" lon="-2.92254">
        <ele>172.3</ele>
        <time>2022-05-29T14:39:32Z</time>
      </trkpt>
      <trkpt lat="47.74774" lon="-2.92245">
        <ele>171.9</ele>
        <time>2022-05-29T14:39:33Z</time>
      </trkpt>
      <trkpt lat="47.74743" lon="-2.92208">
        <ele>170</ele>
        <time>2022-05-29T14:39:37Z</time>
      </trkpt>
      <trkpt lat="47.74703" lon="-2.92157">
        <ele>167.6</ele>
        <time>2022-05-29T14:39:42Z</time>
      </trkpt>
      <trkpt lat="47.7468" lon="-2.92125">
        <ele>166.1</ele>
        <time>2022-05-29T14:39:45Z</time>
      </trkpt>
      <trkpt lat="47.74672" lon="-2.92115">
        <ele>165.5</ele>
        <time>2022-05-29T14:39:46Z</time>
      </trkpt>
      <trkpt lat="47.74657" lon="-2.92092">
        <ele>164.3</ele>
        <time>2022-05-29T14:39:48Z</time>
      </trkpt>
      <trkpt lat="47.7465" lon="-2.9208">
        <ele>163.7</ele>
        <time>2022-05-29T14:39:49Z</time>
      </trkpt>
      <trkpt lat="47.74643" lon="-2.92067">
        <ele>163.2</ele>
        <time>2022-05-29T14:39:50Z</time>
      </trkpt>
      <trkpt lat="47.74636" lon="-2.92055">
        <ele>162.6</ele>
        <time>2022-05-29T14:39:51Z</time>
      </trkpt>
      <trkpt lat="47.74608" lon="-2.92006">
        <ele>160.3</ele>
        <time>2022-05-29T14:39:55Z</time>
      </trkpt>
      <trkpt lat="47.74593" lon="-2.91981">
        <ele>159.4</ele>
        <time>2022-05-29T14:39:57Z</time>
      </trkpt>
      <trkpt lat="47.74586" lon="-2.9197">
        <ele>159.3</ele>
        <time>2022-05-29T14:39:58Z</time>
      </trkpt>
      <trkpt lat="47.74554" lon="-2.9192">
        <ele>158.6</ele>
        <time>2022-05-29T14:40:03Z</time>
      </trkpt>
      <trkpt lat="47.7452" lon="-2.91865">
        <ele>157.9</ele>
        <time>2022-05-29T14:40:09Z</time>
      </trkpt>
      <trkpt lat="47.74492" lon="-2.91828">
        <ele>158.7</ele>
        <time>2022-05-29T14:40:14Z</time>
      </trkpt>
      <trkpt lat="47.74474" lon="-2.91816">
        <ele>159.1</ele>
        <time>2022-05-29T14:40:17Z</time>
      </trkpt>
      <trkpt lat="47.74425" lon="-2.91809">
        <ele>160.2</ele>
        <time>2022-05-29T14:40:24Z</time>
      </trkpt>
      <trkpt lat="47.74407" lon="-2.91807">
        <ele>160.7</ele>
        <time>2022-05-29T14:40:27Z</time>
      </trkpt>
      <trkpt lat="47.74377" lon="-2.91804">
        <ele>162.2</ele>
        <time>2022-05-29T14:40:32Z</time>
      </trkpt>
      <trkpt lat="47.7434" lon="-2.91802">
        <ele>164.2</ele>
        <time>2022-05-29T14:40:39Z</time>
      </trkpt>
      <trkpt lat="47.74329" lon="-2.91801">
        <ele>164.8</ele>
        <time>2022-05-29T14:40:41Z</time>
      </trkpt>
      <trkpt lat="47.74284" lon="-2.91805">
        <ele>167.9</ele>
        <time>2022-05-29T14:40:51Z</time>
      </trkpt>
      <trkpt lat="47.74258" lon="-2.91807">
        <ele>169.1</ele>
        <time>2022-05-29T14:40:57Z</time>
      </trkpt>
      <trkpt lat="47.7424" lon="-2.9181">
        <ele>169.6</ele>
        <time>2022-05-29T14:41:01Z</time>
      </trkpt>
      <trkpt lat="47.74219" lon="-2.9182">
        <ele>170.2</ele>
        <time>2022-05-29T14:41:06Z</time>
      </trkpt>
      <trkpt lat="47.74196" lon="-2.91831">
        <ele>169.2</ele>
        <time>2022-05-29T14:41:09Z</time>
      </trkpt>
      <trkpt lat="47.74196" lon="-2.91831">
        <ele>169.2</ele>
        <time>2022-05-29T14:42:06Z</time>
      </trkpt>
      <trkpt lat="47.74177" lon="-2.91842">
        <ele>168.1</ele>
        <time>2022-05-29T14:42:06Z</time>
      </trkpt>
      <trkpt lat="47.74146" lon="-2.91799">
        <ele>167.7</ele>
        <time>2022-05-29T14:42:17Z</time>
      </trkpt>
      <trkpt lat="47.74145" lon="-2.91787">
        <ele>167.7</ele>
        <time>2022-05-29T14:42:18Z</time>
      </trkpt>
      <trkpt lat="47.74145" lon="-2.91781">
        <ele>167.6</ele>
        <time>2022-05-29T14:42:19Z</time>
      </trkpt>
      <trkpt lat="47.74128" lon="-2.91734">
        <ele>167.1</ele>
        <time>2022-05-29T14:42:25Z</time>
      </trkpt>
      <trkpt lat="47.74098" lon="-2.91691">
        <ele>164.5</ele>
        <time>2022-05-29T14:42:30Z</time>
      </trkpt>
      <trkpt lat="47.74091" lon="-2.91683">
        <ele>164.1</ele>
        <time>2022-05-29T14:42:31Z</time>
      </trkpt>
      <trkpt lat="47.74062" lon="-2.91648">
        <ele>163</ele>
        <time>2022-05-29T14:42:35Z</time>
      </trkpt>
      <trkpt lat="47.74056" lon="-2.91639">
        <ele>162.7</ele>
        <time>2022-05-29T14:42:36Z</time>
      </trkpt>
      <trkpt lat="47.74034" lon="-2.91609">
        <ele>161</ele>
        <time>2022-05-29T14:42:42Z</time>
      </trkpt>
      <trkpt lat="47.7403" lon="-2.91606">
        <ele>160.8</ele>
        <time>2022-05-29T14:42:43Z</time>
      </trkpt>
      <trkpt lat="47.74023" lon="-2.91608">
        <ele>160.7</ele>
        <time>2022-05-29T14:42:44Z</time>
      </trkpt>
      <trkpt lat="47.74014" lon="-2.9161">
        <ele>160.6</ele>
        <time>2022-05-29T14:42:45Z</time>
      </trkpt>
      <trkpt lat="47.73986" lon="-2.91602">
        <ele>160.2</ele>
        <time>2022-05-29T14:42:49Z</time>
      </trkpt>
      <trkpt lat="47.73965" lon="-2.91596">
        <ele>160.1</ele>
        <time>2022-05-29T14:42:52Z</time>
      </trkpt>
      <trkpt lat="47.73927" lon="-2.91579">
        <ele>159.9</ele>
        <time>2022-05-29T14:42:58Z</time>
      </trkpt>
      <trkpt lat="47.73875" lon="-2.91553">
        <ele>159.7</ele>
        <time>2022-05-29T14:43:07Z</time>
      </trkpt>
      <trkpt lat="47.73829" lon="-2.9153">
        <ele>159.5</ele>
        <time>2022-05-29T14:43:15Z</time>
      </trkpt>
      <trkpt lat="47.73786" lon="-2.91511">
        <ele>159.3</ele>
        <time>2022-05-29T14:43:22Z</time>
      </trkpt>
      <trkpt lat="47.73738" lon="-2.91489">
        <ele>159.1</ele>
        <time>2022-05-29T14:43:29Z</time>
      </trkpt>
      <trkpt lat="47.7369" lon="-2.91472">
        <ele>158.9</ele>
        <time>2022-05-29T14:43:36Z</time>
      </trkpt>
      <trkpt lat="47.7365" lon="-2.91465">
        <ele>158.7</ele>
        <time>2022-05-29T14:43:42Z</time>
      </trkpt>
      <trkpt lat="47.7363" lon="-2.91467">
        <ele>158.7</ele>
        <time>2022-05-29T14:43:45Z</time>
      </trkpt>
      <trkpt lat="47.73589" lon="-2.91458">
        <ele>158.5</ele>
        <time>2022-05-29T14:43:51Z</time>
      </trkpt>
      <trkpt lat="47.73546" lon="-2.91459">
        <ele>158.3</ele>
        <time>2022-05-29T14:43:57Z</time>
      </trkpt>
      <trkpt lat="47.73531" lon="-2.91464">
        <ele>158.3</ele>
        <time>2022-05-29T14:43:59Z</time>
      </trkpt>
      <trkpt lat="47.73478" lon="-2.91463">
        <ele>158.1</ele>
        <time>2022-05-29T14:44:06Z</time>
      </trkpt>
      <trkpt lat="47.73427" lon="-2.91456">
        <ele>157.9</ele>
        <time>2022-05-29T14:44:13Z</time>
      </trkpt>
      <trkpt lat="47.73384" lon="-2.91429">
        <ele>157.7</ele>
        <time>2022-05-29T14:44:19Z</time>
      </trkpt>
      <trkpt lat="47.73337" lon="-2.91401">
        <ele>157.6</ele>
        <time>2022-05-29T14:44:25Z</time>
      </trkpt>
      <trkpt lat="47.73297" lon="-2.91377">
        <ele>157.4</ele>
        <time>2022-05-29T14:44:30Z</time>
      </trkpt>
      <trkpt lat="47.73289" lon="-2.91372">
        <ele>157.4</ele>
        <time>2022-05-29T14:44:31Z</time>
      </trkpt>
      <trkpt lat="47.7325" lon="-2.91345">
        <ele>157.1</ele>
        <time>2022-05-29T14:44:36Z</time>
      </trkpt>
      <trkpt lat="47.73243" lon="-2.9134">
        <ele>157</ele>
        <time>2022-05-29T14:44:37Z</time>
      </trkpt>
      <trkpt lat="47.73199" lon="-2.91311">
        <ele>156.2</ele>
        <time>2022-05-29T14:44:43Z</time>
      </trkpt>
      <trkpt lat="47.73154" lon="-2.91282">
        <ele>155.4</ele>
        <time>2022-05-29T14:44:49Z</time>
      </trkpt>
      <trkpt lat="47.73123" lon="-2.91264">
        <ele>154.8</ele>
        <time>2022-05-29T14:44:53Z</time>
      </trkpt>
      <trkpt lat="47.73107" lon="-2.91254">
        <ele>154.5</ele>
        <time>2022-05-29T14:44:55Z</time>
      </trkpt>
      <trkpt lat="47.73062" lon="-2.91218">
        <ele>153.5</ele>
        <time>2022-05-29T14:45:01Z</time>
      </trkpt>
      <trkpt lat="47.73016" lon="-2.91187">
        <ele>152.4</ele>
        <time>2022-05-29T14:45:07Z</time>
      </trkpt>
      <trkpt lat="47.72983" lon="-2.91163">
        <ele>151.8</ele>
        <time>2022-05-29T14:45:11Z</time>
      </trkpt>
      <trkpt lat="47.72974" lon="-2.91157">
        <ele>151.7</ele>
        <time>2022-05-29T14:45:12Z</time>
      </trkpt>
      <trkpt lat="47.72931" lon="-2.91127">
        <ele>151</ele>
        <time>2022-05-29T14:45:17Z</time>
      </trkpt>
      <trkpt lat="47.72888" lon="-2.91101">
        <ele>150.3</ele>
        <time>2022-05-29T14:45:22Z</time>
      </trkpt>
      <trkpt lat="47.72881" lon="-2.91099">
        <ele>150.3</ele>
        <time>2022-05-29T14:45:23Z</time>
      </trkpt>
      <trkpt lat="47.72842" lon="-2.9109">
        <ele>151</ele>
        <time>2022-05-29T14:45:28Z</time>
      </trkpt>
      <trkpt lat="47.72812" lon="-2.91089">
        <ele>151.5</ele>
        <time>2022-05-29T14:45:32Z</time>
      </trkpt>
      <trkpt lat="47.72805" lon="-2.91089">
        <ele>151.6</ele>
        <time>2022-05-29T14:45:33Z</time>
      </trkpt>
      <trkpt lat="47.72757" lon="-2.91105">
        <ele>152.6</ele>
        <time>2022-05-29T14:45:40Z</time>
      </trkpt>
      <trkpt lat="47.72726" lon="-2.91121">
        <ele>153.2</ele>
        <time>2022-05-29T14:45:45Z</time>
      </trkpt>
      <trkpt lat="47.72713" lon="-2.91127">
        <ele>153.5</ele>
        <time>2022-05-29T14:45:47Z</time>
      </trkpt>
      <trkpt lat="47.72693" lon="-2.91134">
        <ele>154</ele>
        <time>2022-05-29T14:45:50Z</time>
      </trkpt>
      <trkpt lat="47.72649" lon="-2.91157">
        <ele>155</ele>
        <time>2022-05-29T14:45:57Z</time>
      </trkpt>
      <trkpt lat="47.72604" lon="-2.91179">
        <ele>156</ele>
        <time>2022-05-29T14:46:04Z</time>
      </trkpt>
      <trkpt lat="47.72571" lon="-2.91195">
        <ele>156.7</ele>
        <time>2022-05-29T14:46:09Z</time>
      </trkpt>
      <trkpt lat="47.72558" lon="-2.91202">
        <ele>156.8</ele>
        <time>2022-05-29T14:46:11Z</time>
      </trkpt>
      <trkpt lat="47.72551" lon="-2.91204">
        <ele>156.9</ele>
        <time>2022-05-29T14:46:12Z</time>
      </trkpt>
      <trkpt lat="47.72505" lon="-2.91229">
        <ele>157.2</ele>
        <time>2022-05-29T14:46:19Z</time>
      </trkpt>
      <trkpt lat="47.72464" lon="-2.91249">
        <ele>157.5</ele>
        <time>2022-05-29T14:46:25Z</time>
      </trkpt>
      <trkpt lat="47.72409" lon="-2.91276">
        <ele>157.9</ele>
        <time>2022-05-29T14:46:33Z</time>
      </trkpt>
      <trkpt lat="47.72361" lon="-2.913">
        <ele>158.3</ele>
        <time>2022-05-29T14:46:40Z</time>
      </trkpt>
      <trkpt lat="47.7232" lon="-2.9132">
        <ele>158.6</ele>
        <time>2022-05-29T14:46:46Z</time>
      </trkpt>
      <trkpt lat="47.72308" lon="-2.91319">
        <ele>158.7</ele>
        <time>2022-05-29T14:46:48Z</time>
      </trkpt>
      <trkpt lat="47.72295" lon="-2.91286">
        <ele>158.8</ele>
        <time>2022-05-29T14:46:51Z</time>
      </trkpt>
      <trkpt lat="47.72265" lon="-2.91258">
        <ele>159.1</ele>
        <time>2022-05-29T14:46:56Z</time>
      </trkpt>
      <trkpt lat="47.72258" lon="-2.91255">
        <ele>159.1</ele>
        <time>2022-05-29T14:46:57Z</time>
      </trkpt>
      <trkpt lat="47.72244" lon="-2.9125">
        <ele>159.2</ele>
        <time>2022-05-29T14:46:59Z</time>
      </trkpt>
      <trkpt lat="47.72188" lon="-2.9125">
        <ele>159.6</ele>
        <time>2022-05-29T14:47:07Z</time>
      </trkpt>
      <trkpt lat="47.72146" lon="-2.91254">
        <ele>159.9</ele>
        <time>2022-05-29T14:47:13Z</time>
      </trkpt>
      <trkpt lat="47.72139" lon="-2.91254">
        <ele>160</ele>
        <time>2022-05-29T14:47:14Z</time>
      </trkpt>
      <trkpt lat="47.72098" lon="-2.91258">
        <ele>160.6</ele>
        <time>2022-05-29T14:47:20Z</time>
      </trkpt>
      <trkpt lat="47.72049" lon="-2.91262">
        <ele>161.4</ele>
        <time>2022-05-29T14:47:27Z</time>
      </trkpt>
      <trkpt lat="47.71995" lon="-2.91269">
        <ele>162.3</ele>
        <time>2022-05-29T14:47:35Z</time>
      </trkpt>
      <trkpt lat="47.71981" lon="-2.91271">
        <ele>162.5</ele>
        <time>2022-05-29T14:47:37Z</time>
      </trkpt>
      <trkpt lat="47.71939" lon="-2.91265">
        <ele>163.2</ele>
        <time>2022-05-29T14:47:43Z</time>
      </trkpt>
      <trkpt lat="47.71924" lon="-2.91264">
        <ele>163.1</ele>
        <time>2022-05-29T14:47:45Z</time>
      </trkpt>
      <trkpt lat="47.71895" lon="-2.91251">
        <ele>163</ele>
        <time>2022-05-29T14:47:49Z</time>
      </trkpt>
      <trkpt lat="47.71862" lon="-2.91224">
        <ele>162.7</ele>
        <time>2022-05-29T14:47:54Z</time>
      </trkpt>
      <trkpt lat="47.71856" lon="-2.91218">
        <ele>162.7</ele>
        <time>2022-05-29T14:47:55Z</time>
      </trkpt>
      <trkpt lat="47.71825" lon="-2.91184">
        <ele>162.4</ele>
        <time>2022-05-29T14:48:00Z</time>
      </trkpt>
      <trkpt lat="47.71805" lon="-2.91162">
        <ele>162.3</ele>
        <time>2022-05-29T14:48:03Z</time>
      </trkpt>
      <trkpt lat="47.71769" lon="-2.91113">
        <ele>161.9</ele>
        <time>2022-05-29T14:48:09Z</time>
      </trkpt>
      <trkpt lat="47.71762" lon="-2.91105">
        <ele>161.9</ele>
        <time>2022-05-29T14:48:10Z</time>
      </trkpt>
      <trkpt lat="47.71756" lon="-2.91097">
        <ele>161.8</ele>
        <time>2022-05-29T14:48:11Z</time>
      </trkpt>
      <trkpt lat="47.7171" lon="-2.91039">
        <ele>161.4</ele>
        <time>2022-05-29T14:48:18Z</time>
      </trkpt>
      <trkpt lat="47.71679" lon="-2.91">
        <ele>161.1</ele>
        <time>2022-05-29T14:48:23Z</time>
      </trkpt>
      <trkpt lat="47.71673" lon="-2.90992">
        <ele>161</ele>
        <time>2022-05-29T14:48:24Z</time>
      </trkpt>
      <trkpt lat="47.71642" lon="-2.90954">
        <ele>160.5</ele>
        <time>2022-05-29T14:48:29Z</time>
      </trkpt>
      <trkpt lat="47.71605" lon="-2.90908">
        <ele>159.8</ele>
        <time>2022-05-29T14:48:35Z</time>
      </trkpt>
      <trkpt lat="47.71564" lon="-2.90859">
        <ele>159.2</ele>
        <time>2022-05-29T14:48:41Z</time>
      </trkpt>
      <trkpt lat="47.71557" lon="-2.9085">
        <ele>159.1</ele>
        <time>2022-05-29T14:48:42Z</time>
      </trkpt>
      <trkpt lat="47.71528" lon="-2.90813">
        <ele>157.9</ele>
        <time>2022-05-29T14:48:46Z</time>
      </trkpt>
      <trkpt lat="47.71491" lon="-2.9077">
        <ele>156.3</ele>
        <time>2022-05-29T14:48:51Z</time>
      </trkpt>
      <trkpt lat="47.71471" lon="-2.90744">
        <ele>155.3</ele>
        <time>2022-05-29T14:48:54Z</time>
      </trkpt>
      <trkpt lat="47.71452" lon="-2.90719">
        <ele>155</ele>
        <time>2022-05-29T14:48:57Z</time>
      </trkpt>
      <trkpt lat="47.71433" lon="-2.90692">
        <ele>154.9</ele>
        <time>2022-05-29T14:49:00Z</time>
      </trkpt>
      <trkpt lat="47.71416" lon="-2.90664">
        <ele>154.5</ele>
        <time>2022-05-29T14:49:03Z</time>
      </trkpt>
      <trkpt lat="47.71387" lon="-2.90612">
        <ele>153.9</ele>
        <time>2022-05-29T14:49:08Z</time>
      </trkpt>
      <trkpt lat="47.7136" lon="-2.90558">
        <ele>153.3</ele>
        <time>2022-05-29T14:49:13Z</time>
      </trkpt>
      <trkpt lat="47.71332" lon="-2.90497">
        <ele>152.7</ele>
        <time>2022-05-29T14:49:19Z</time>
      </trkpt>
      <trkpt lat="47.71303" lon="-2.90443">
        <ele>154.5</ele>
        <time>2022-05-29T14:49:27Z</time>
      </trkpt>
      <trkpt lat="47.71294" lon="-2.90425">
        <ele>155.2</ele>
        <time>2022-05-29T14:49:30Z</time>
      </trkpt>
      <trkpt lat="47.71271" lon="-2.90385">
        <ele>157.2</ele>
        <time>2022-05-29T14:49:37Z</time>
      </trkpt>
      <trkpt lat="47.71257" lon="-2.90364">
        <ele>158.4</ele>
        <time>2022-05-29T14:49:41Z</time>
      </trkpt>
      <trkpt lat="47.71239" lon="-2.90337">
        <ele>159.2</ele>
        <time>2022-05-29T14:49:46Z</time>
      </trkpt>
      <trkpt lat="47.71235" lon="-2.90332">
        <ele>159.4</ele>
        <time>2022-05-29T14:49:47Z</time>
      </trkpt>
      <trkpt lat="47.7121" lon="-2.90302">
        <ele>159.4</ele>
        <time>2022-05-29T14:49:52Z</time>
      </trkpt>
      <trkpt lat="47.712" lon="-2.9029">
        <ele>159.4</ele>
        <time>2022-05-29T14:49:54Z</time>
      </trkpt>
      <trkpt lat="47.71162" lon="-2.90249">
        <ele>159.6</ele>
        <time>2022-05-29T14:50:01Z</time>
      </trkpt>
      <trkpt lat="47.7112" lon="-2.90205">
        <ele>159.8</ele>
        <time>2022-05-29T14:50:08Z</time>
      </trkpt>
      <trkpt lat="47.71083" lon="-2.90169">
        <ele>160</ele>
        <time>2022-05-29T14:50:14Z</time>
      </trkpt>
      <trkpt lat="47.71046" lon="-2.90129">
        <ele>160.2</ele>
        <time>2022-05-29T14:50:20Z</time>
      </trkpt>
      <trkpt lat="47.71005" lon="-2.90086">
        <ele>160.4</ele>
        <time>2022-05-29T14:50:27Z</time>
      </trkpt>
      <trkpt lat="47.70982" lon="-2.90062">
        <ele>160.5</ele>
        <time>2022-05-29T14:50:31Z</time>
      </trkpt>
      <trkpt lat="47.70976" lon="-2.90057">
        <ele>160.5</ele>
        <time>2022-05-29T14:50:32Z</time>
      </trkpt>
      <trkpt lat="47.70965" lon="-2.90045">
        <ele>160.6</ele>
        <time>2022-05-29T14:50:34Z</time>
      </trkpt>
      <trkpt lat="47.70922" lon="-2.9001">
        <ele>160.8</ele>
        <time>2022-05-29T14:50:41Z</time>
      </trkpt>
      <trkpt lat="47.70904" lon="-2.89992">
        <ele>160.9</ele>
        <time>2022-05-29T14:50:44Z</time>
      </trkpt>
      <trkpt lat="47.70855" lon="-2.89969">
        <ele>161.1</ele>
        <time>2022-05-29T14:50:51Z</time>
      </trkpt>
      <trkpt lat="47.70806" lon="-2.89952">
        <ele>161.3</ele>
        <time>2022-05-29T14:50:58Z</time>
      </trkpt>
      <trkpt lat="47.70792" lon="-2.89947">
        <ele>161.3</ele>
        <time>2022-05-29T14:51:00Z</time>
      </trkpt>
      <trkpt lat="47.70764" lon="-2.89945">
        <ele>161.4</ele>
        <time>2022-05-29T14:51:04Z</time>
      </trkpt>
      <trkpt lat="47.70758" lon="-2.89943">
        <ele>161.5</ele>
        <time>2022-05-29T14:51:05Z</time>
      </trkpt>
      <trkpt lat="47.70712" lon="-2.89931">
        <ele>161.7</ele>
        <time>2022-05-29T14:51:12Z</time>
      </trkpt>
      <trkpt lat="47.70663" lon="-2.89925">
        <ele>161.9</ele>
        <time>2022-05-29T14:51:19Z</time>
      </trkpt>
      <trkpt lat="47.70642" lon="-2.89924">
        <ele>162</ele>
        <time>2022-05-29T14:51:22Z</time>
      </trkpt>
      <trkpt lat="47.70635" lon="-2.89922">
        <ele>162</ele>
        <time>2022-05-29T14:51:23Z</time>
      </trkpt>
      <trkpt lat="47.70588" lon="-2.89931">
        <ele>162.2</ele>
        <time>2022-05-29T14:51:30Z</time>
      </trkpt>
      <trkpt lat="47.70541" lon="-2.89954">
        <ele>162.4</ele>
        <time>2022-05-29T14:51:37Z</time>
      </trkpt>
      <trkpt lat="47.70521" lon="-2.89964">
        <ele>162.5</ele>
        <time>2022-05-29T14:51:40Z</time>
      </trkpt>
      <trkpt lat="47.70494" lon="-2.89978">
        <ele>162.4</ele>
        <time>2022-05-29T14:51:44Z</time>
      </trkpt>
      <trkpt lat="47.70448" lon="-2.89994">
        <ele>162.2</ele>
        <time>2022-05-29T14:51:50Z</time>
      </trkpt>
      <trkpt lat="47.70401" lon="-2.90002">
        <ele>162</ele>
        <time>2022-05-29T14:51:56Z</time>
      </trkpt>
      <trkpt lat="47.70354" lon="-2.9001">
        <ele>161.8</ele>
        <time>2022-05-29T14:52:02Z</time>
      </trkpt>
      <trkpt lat="47.70309" lon="-2.90019">
        <ele>161.6</ele>
        <time>2022-05-29T14:52:08Z</time>
      </trkpt>
      <trkpt lat="47.7026" lon="-2.90032">
        <ele>161.4</ele>
        <time>2022-05-29T14:52:14Z</time>
      </trkpt>
      <trkpt lat="47.70218" lon="-2.90043">
        <ele>161.2</ele>
        <time>2022-05-29T14:52:19Z</time>
      </trkpt>
      <trkpt lat="47.7021" lon="-2.90045">
        <ele>161.2</ele>
        <time>2022-05-29T14:52:20Z</time>
      </trkpt>
      <trkpt lat="47.70171" lon="-2.90037">
        <ele>161.4</ele>
        <time>2022-05-29T14:52:25Z</time>
      </trkpt>
      <trkpt lat="47.70163" lon="-2.90035">
        <ele>161.3</ele>
        <time>2022-05-29T14:52:26Z</time>
      </trkpt>
      <trkpt lat="47.70118" lon="-2.90013">
        <ele>160.7</ele>
        <time>2022-05-29T14:52:32Z</time>
      </trkpt>
      <trkpt lat="47.70081" lon="-2.89976">
        <ele>160.1</ele>
        <time>2022-05-29T14:52:38Z</time>
      </trkpt>
      <trkpt lat="47.70042" lon="-2.89933">
        <ele>159.4</ele>
        <time>2022-05-29T14:52:44Z</time>
      </trkpt>
      <trkpt lat="47.70005" lon="-2.89894">
        <ele>158.9</ele>
        <time>2022-05-29T14:52:49Z</time>
      </trkpt>
      <trkpt lat="47.69973" lon="-2.89863">
        <ele>158.5</ele>
        <time>2022-05-29T14:52:53Z</time>
      </trkpt>
      <trkpt lat="47.69957" lon="-2.89847">
        <ele>158.3</ele>
        <time>2022-05-29T14:52:55Z</time>
      </trkpt>
      <trkpt lat="47.69934" lon="-2.89822">
        <ele>157.9</ele>
        <time>2022-05-29T14:52:58Z</time>
      </trkpt>
      <trkpt lat="47.69893" lon="-2.89778">
        <ele>157.2</ele>
        <time>2022-05-29T14:53:04Z</time>
      </trkpt>
      <trkpt lat="47.69875" lon="-2.89755">
        <ele>156.8</ele>
        <time>2022-05-29T14:53:07Z</time>
      </trkpt>
      <trkpt lat="47.69862" lon="-2.89743">
        <ele>156.9</ele>
        <time>2022-05-29T14:53:09Z</time>
      </trkpt>
      <trkpt lat="47.69857" lon="-2.89736">
        <ele>157.1</ele>
        <time>2022-05-29T14:53:10Z</time>
      </trkpt>
      <trkpt lat="47.69851" lon="-2.89729">
        <ele>157.2</ele>
        <time>2022-05-29T14:53:11Z</time>
      </trkpt>
      <trkpt lat="47.69813" lon="-2.89689">
        <ele>158.1</ele>
        <time>2022-05-29T14:53:18Z</time>
      </trkpt>
      <trkpt lat="47.69809" lon="-2.89684">
        <ele>158.2</ele>
        <time>2022-05-29T14:53:19Z</time>
      </trkpt>
      <trkpt lat="47.698" lon="-2.89677">
        <ele>158.5</ele>
        <time>2022-05-29T14:53:21Z</time>
      </trkpt>
      <trkpt lat="47.69784" lon="-2.89691">
        <ele>159.1</ele>
        <time>2022-05-29T14:53:24Z</time>
      </trkpt>
      <trkpt lat="47.69741" lon="-2.89731">
        <ele>160.8</ele>
        <time>2022-05-29T14:53:33Z</time>
      </trkpt>
      <trkpt lat="47.69704" lon="-2.8978">
        <ele>162.5</ele>
        <time>2022-05-29T14:53:42Z</time>
      </trkpt>
      <trkpt lat="47.69674" lon="-2.89777">
        <ele>164.2</ele>
        <time>2022-05-29T14:53:43Z</time>
      </trkpt>
      <trkpt lat="47.69674" lon="-2.89777">
        <ele>164.2</ele>
        <time>2022-05-29T14:54:13Z</time>
      </trkpt>
      <trkpt lat="47.69647" lon="-2.8977">
        <ele>165.6</ele>
        <time>2022-05-29T14:54:16Z</time>
      </trkpt>
      <trkpt lat="47.69634" lon="-2.89748">
        <ele>165.7</ele>
        <time>2022-05-29T14:54:19Z</time>
      </trkpt>
      <trkpt lat="47.69617" lon="-2.89721">
        <ele>165.6</ele>
        <time>2022-05-29T14:54:23Z</time>
      </trkpt>
      <trkpt lat="47.69595" lon="-2.89682">
        <ele>165.6</ele>
        <time>2022-05-29T14:54:28Z</time>
      </trkpt>
      <trkpt lat="47.69587" lon="-2.89666">
        <ele>165.4</ele>
        <time>2022-05-29T14:54:30Z</time>
      </trkpt>
      <trkpt lat="47.69567" lon="-2.89634">
        <ele>164.8</ele>
        <time>2022-05-29T14:54:34Z</time>
      </trkpt>
      <trkpt lat="47.69551" lon="-2.89609">
        <ele>163.4</ele>
        <time>2022-05-29T14:54:37Z</time>
      </trkpt>
      <trkpt lat="47.69527" lon="-2.89578">
        <ele>161.6</ele>
        <time>2022-05-29T14:54:41Z</time>
      </trkpt>
      <trkpt lat="47.69492" lon="-2.89528">
        <ele>160.5</ele>
        <time>2022-05-29T14:54:49Z</time>
      </trkpt>
      <trkpt lat="47.69477" lon="-2.89505">
        <ele>160.1</ele>
        <time>2022-05-29T14:54:52Z</time>
      </trkpt>
      <trkpt lat="47.69457" lon="-2.89473">
        <ele>160.1</ele>
        <time>2022-05-29T14:54:56Z</time>
      </trkpt>
      <trkpt lat="47.69423" lon="-2.89421">
        <ele>160.3</ele>
        <time>2022-05-29T14:55:02Z</time>
      </trkpt>
      <trkpt lat="47.6939" lon="-2.89368">
        <ele>160.4</ele>
        <time>2022-05-29T14:55:08Z</time>
      </trkpt>
      <trkpt lat="47.69358" lon="-2.89313">
        <ele>160.6</ele>
        <time>2022-05-29T14:55:14Z</time>
      </trkpt>
      <trkpt lat="47.69328" lon="-2.89258">
        <ele>160.8</ele>
        <time>2022-05-29T14:55:20Z</time>
      </trkpt>
      <trkpt lat="47.693" lon="-2.89199">
        <ele>160.9</ele>
        <time>2022-05-29T14:55:26Z</time>
      </trkpt>
      <trkpt lat="47.6927" lon="-2.89141">
        <ele>161.1</ele>
        <time>2022-05-29T14:55:32Z</time>
      </trkpt>
      <trkpt lat="47.69265" lon="-2.89131">
        <ele>161.1</ele>
        <time>2022-05-29T14:55:33Z</time>
      </trkpt>
      <trkpt lat="47.69228" lon="-2.8909">
        <ele>161.3</ele>
        <time>2022-05-29T14:55:40Z</time>
      </trkpt>
      <trkpt lat="47.69202" lon="-2.89068">
        <ele>161.4</ele>
        <time>2022-05-29T14:55:45Z</time>
      </trkpt>
      <trkpt lat="47.69151" lon="-2.89049">
        <ele>161.6</ele>
        <time>2022-05-29T14:55:52Z</time>
      </trkpt>
      <trkpt lat="47.69106" lon="-2.89031">
        <ele>160.5</ele>
        <time>2022-05-29T14:55:58Z</time>
      </trkpt>
      <trkpt lat="47.69091" lon="-2.89025">
        <ele>160.1</ele>
        <time>2022-05-29T14:56:00Z</time>
      </trkpt>
      <trkpt lat="47.69055" lon="-2.88984">
        <ele>158.9</ele>
        <time>2022-05-29T14:56:06Z</time>
      </trkpt>
      <trkpt lat="47.69013" lon="-2.88944">
        <ele>157.8</ele>
        <time>2022-05-29T14:56:12Z</time>
      </trkpt>
      <trkpt lat="47.6899" lon="-2.88923">
        <ele>157.2</ele>
        <time>2022-05-29T14:56:15Z</time>
      </trkpt>
      <trkpt lat="47.68942" lon="-2.88887">
        <ele>156.2</ele>
        <time>2022-05-29T14:56:20Z</time>
      </trkpt>
      <trkpt lat="47.68917" lon="-2.88855">
        <ele>154.9</ele>
        <time>2022-05-29T14:56:23Z</time>
      </trkpt>
      <trkpt lat="47.68891" lon="-2.888">
        <ele>153.1</ele>
        <time>2022-05-29T14:56:27Z</time>
      </trkpt>
      <trkpt lat="47.68869" lon="-2.88738">
        <ele>151.2</ele>
        <time>2022-05-29T14:56:31Z</time>
      </trkpt>
      <trkpt lat="47.68863" lon="-2.88723">
        <ele>150.7</ele>
        <time>2022-05-29T14:56:32Z</time>
      </trkpt>
      <trkpt lat="47.68852" lon="-2.88691">
        <ele>149.1</ele>
        <time>2022-05-29T14:56:34Z</time>
      </trkpt>
      <trkpt lat="47.68844" lon="-2.88676">
        <ele>148.2</ele>
        <time>2022-05-29T14:56:35Z</time>
      </trkpt>
      <trkpt lat="47.68824" lon="-2.88627">
        <ele>145.5</ele>
        <time>2022-05-29T14:56:38Z</time>
      </trkpt>
      <trkpt lat="47.68818" lon="-2.88609">
        <ele>144.7</ele>
        <time>2022-05-29T14:56:39Z</time>
      </trkpt>
      <trkpt lat="47.68793" lon="-2.88539">
        <ele>142.2</ele>
        <time>2022-05-29T14:56:43Z</time>
      </trkpt>
      <trkpt lat="47.68787" lon="-2.88521">
        <ele>141.6</ele>
        <time>2022-05-29T14:56:44Z</time>
      </trkpt>
      <trkpt lat="47.68769" lon="-2.88467">
        <ele>138.9</ele>
        <time>2022-05-29T14:56:47Z</time>
      </trkpt>
      <trkpt lat="47.68764" lon="-2.88447">
        <ele>137.9</ele>
        <time>2022-05-29T14:56:48Z</time>
      </trkpt>
      <trkpt lat="47.68764" lon="-2.88408">
        <ele>136</ele>
        <time>2022-05-29T14:56:50Z</time>
      </trkpt>
      <trkpt lat="47.68773" lon="-2.88356">
        <ele>135.2</ele>
        <time>2022-05-29T14:56:53Z</time>
      </trkpt>
      <trkpt lat="47.68782" lon="-2.88296">
        <ele>134.7</ele>
        <time>2022-05-29T14:56:57Z</time>
      </trkpt>
      <trkpt lat="47.68784" lon="-2.88284">
        <ele>134.5</ele>
        <time>2022-05-29T14:56:58Z</time>
      </trkpt>
      <trkpt lat="47.68785" lon="-2.88274">
        <ele>134.4</ele>
        <time>2022-05-29T14:56:59Z</time>
      </trkpt>
      <trkpt lat="47.68781" lon="-2.88262">
        <ele>134.1</ele>
        <time>2022-05-29T14:57:01Z</time>
      </trkpt>
      <trkpt lat="47.68775" lon="-2.88258">
        <ele>134</ele>
        <time>2022-05-29T14:57:02Z</time>
      </trkpt>
      <trkpt lat="47.68736" lon="-2.88246">
        <ele>134.5</ele>
        <time>2022-05-29T14:57:07Z</time>
      </trkpt>
      <trkpt lat="47.68696" lon="-2.88239">
        <ele>135.4</ele>
        <time>2022-05-29T14:57:14Z</time>
      </trkpt>
      <trkpt lat="47.68685" lon="-2.88237">
        <ele>135.8</ele>
        <time>2022-05-29T14:57:16Z</time>
      </trkpt>
      <trkpt lat="47.68671" lon="-2.88237">
        <ele>136.9</ele>
        <time>2022-05-29T14:57:20Z</time>
      </trkpt>
      <trkpt lat="47.68637" lon="-2.88237">
        <ele>139.5</ele>
        <time>2022-05-29T14:57:30Z</time>
      </trkpt>
      <trkpt lat="47.6863" lon="-2.8824">
        <ele>140.1</ele>
        <time>2022-05-29T14:57:32Z</time>
      </trkpt>
      <trkpt lat="47.68592" lon="-2.88258">
        <ele>142.1</ele>
        <time>2022-05-29T14:57:43Z</time>
      </trkpt>
      <trkpt lat="47.68552" lon="-2.88273">
        <ele>143.4</ele>
        <time>2022-05-29T14:57:50Z</time>
      </trkpt>
      <trkpt lat="47.68546" lon="-2.88276">
        <ele>143.6</ele>
        <time>2022-05-29T14:57:51Z</time>
      </trkpt>
      <trkpt lat="47.6852" lon="-2.88286">
        <ele>144.1</ele>
        <time>2022-05-29T14:57:56Z</time>
      </trkpt>
      <trkpt lat="47.68515" lon="-2.88288">
        <ele>144.2</ele>
        <time>2022-05-29T14:57:57Z</time>
      </trkpt>
      <trkpt lat="47.68465" lon="-2.88292">
        <ele>144.9</ele>
        <time>2022-05-29T14:58:06Z</time>
      </trkpt>
      <trkpt lat="47.68415" lon="-2.88293">
        <ele>145.6</ele>
        <time>2022-05-29T14:58:15Z</time>
      </trkpt>
      <trkpt lat="47.68367" lon="-2.88296">
        <ele>146.3</ele>
        <time>2022-05-29T14:58:23Z</time>
      </trkpt>
      <trkpt lat="47.6832" lon="-2.88304">
        <ele>147</ele>
        <time>2022-05-29T14:58:31Z</time>
      </trkpt>
      <trkpt lat="47.68274" lon="-2.88319">
        <ele>147.6</ele>
        <time>2022-05-29T14:58:39Z</time>
      </trkpt>
      <trkpt lat="47.68254" lon="-2.88325">
        <ele>147.9</ele>
        <time>2022-05-29T14:58:43Z</time>
      </trkpt>
      <trkpt lat="47.68225" lon="-2.88334">
        <ele>149.2</ele>
        <time>2022-05-29T14:58:49Z</time>
      </trkpt>
      <trkpt lat="47.68178" lon="-2.8835">
        <ele>151.6</ele>
        <time>2022-05-29T14:59:00Z</time>
      </trkpt>
      <trkpt lat="47.68174" lon="-2.88351">
        <ele>151.9</ele>
        <time>2022-05-29T14:59:01Z</time>
      </trkpt>
      <trkpt lat="47.68133" lon="-2.88362">
        <ele>154.1</ele>
        <time>2022-05-29T14:59:11Z</time>
      </trkpt>
      <trkpt lat="47.68098" lon="-2.88357">
        <ele>155.8</ele>
        <time>2022-05-29T14:59:19Z</time>
      </trkpt>
      <trkpt lat="47.68085" lon="-2.88355">
        <ele>156.2</ele>
        <time>2022-05-29T14:59:22Z</time>
      </trkpt>
      <trkpt lat="47.6806" lon="-2.88344">
        <ele>156.7</ele>
        <time>2022-05-29T14:59:27Z</time>
      </trkpt>
      <trkpt lat="47.6804" lon="-2.88325">
        <ele>157.1</ele>
        <time>2022-05-29T14:59:31Z</time>
      </trkpt>
      <trkpt lat="47.68035" lon="-2.8832">
        <ele>157.2</ele>
        <time>2022-05-29T14:59:32Z</time>
      </trkpt>
      <trkpt lat="47.68031" lon="-2.88314">
        <ele>157.2</ele>
        <time>2022-05-29T14:59:33Z</time>
      </trkpt>
      <trkpt lat="47.67988" lon="-2.88271">
        <ele>157.2</ele>
        <time>2022-05-29T14:59:41Z</time>
      </trkpt>
      <trkpt lat="47.6795" lon="-2.88233">
        <ele>157.3</ele>
        <time>2022-05-29T14:59:48Z</time>
      </trkpt>
      <trkpt lat="47.67909" lon="-2.88193">
        <ele>157.3</ele>
        <time>2022-05-29T14:59:56Z</time>
      </trkpt>
      <trkpt lat="47.67865" lon="-2.88154">
        <ele>157.3</ele>
        <time>2022-05-29T15:00:04Z</time>
      </trkpt>
      <trkpt lat="47.67823" lon="-2.88113">
        <ele>157.3</ele>
        <time>2022-05-29T15:00:12Z</time>
      </trkpt>
      <trkpt lat="47.67786" lon="-2.88076">
        <ele>157.4</ele>
        <time>2022-05-29T15:00:19Z</time>
      </trkpt>
      <trkpt lat="47.67748" lon="-2.88036">
        <ele>157.4</ele>
        <time>2022-05-29T15:00:26Z</time>
      </trkpt>
      <trkpt lat="47.67737" lon="-2.88023">
        <ele>157.4</ele>
        <time>2022-05-29T15:00:28Z</time>
      </trkpt>
      <trkpt lat="47.67731" lon="-2.88018">
        <ele>157.4</ele>
        <time>2022-05-29T15:00:29Z</time>
      </trkpt>
      <trkpt lat="47.67697" lon="-2.87965">
        <ele>157.4</ele>
        <time>2022-05-29T15:00:36Z</time>
      </trkpt>
      <trkpt lat="47.67672" lon="-2.87901">
        <ele>157.5</ele>
        <time>2022-05-29T15:00:43Z</time>
      </trkpt>
      <trkpt lat="47.67651" lon="-2.87832">
        <ele>157.5</ele>
        <time>2022-05-29T15:00:50Z</time>
      </trkpt>
      <trkpt lat="47.67626" lon="-2.87767">
        <ele>157.5</ele>
        <time>2022-05-29T15:00:57Z</time>
      </trkpt>
      <trkpt lat="47.67609" lon="-2.87696">
        <ele>157.5</ele>
        <time>2022-05-29T15:01:04Z</time>
      </trkpt>
      <trkpt lat="47.67601" lon="-2.8765">
        <ele>157.5</ele>
        <time>2022-05-29T15:01:09Z</time>
      </trkpt>
      <trkpt lat="47.67592" lon="-2.87579">
        <ele>157.6</ele>
        <time>2022-05-29T15:01:16Z</time>
      </trkpt>
      <trkpt lat="47.67586" lon="-2.87504">
        <ele>157.6</ele>
        <time>2022-05-29T15:01:23Z</time>
      </trkpt>
      <trkpt lat="47.67581" lon="-2.8743">
        <ele>157.6</ele>
        <time>2022-05-29T15:01:30Z</time>
      </trkpt>
      <trkpt lat="47.67573" lon="-2.87361">
        <ele>157.6</ele>
        <time>2022-05-29T15:01:37Z</time>
      </trkpt>
      <trkpt lat="47.67551" lon="-2.87284">
        <ele>157.7</ele>
        <time>2022-05-29T15:01:46Z</time>
      </trkpt>
      <trkpt lat="47.67518" lon="-2.87234">
        <ele>157.7</ele>
        <time>2022-05-29T15:01:54Z</time>
      </trkpt>
      <trkpt lat="47.67497" lon="-2.87215">
        <ele>157.7</ele>
        <time>2022-05-29T15:01:58Z</time>
      </trkpt>
      <trkpt lat="47.67465" lon="-2.87196">
        <ele>157.7</ele>
        <time>2022-05-29T15:02:04Z</time>
      </trkpt>
      <trkpt lat="47.67438" lon="-2.87188">
        <ele>157.8</ele>
        <time>2022-05-29T15:02:08Z</time>
      </trkpt>
      <trkpt lat="47.67432" lon="-2.87185">
        <ele>157.8</ele>
        <time>2022-05-29T15:02:09Z</time>
      </trkpt>
      <trkpt lat="47.67404" lon="-2.87187">
        <ele>157.8</ele>
        <time>2022-05-29T15:02:13Z</time>
      </trkpt>
      <trkpt lat="47.67353" lon="-2.87197">
        <ele>157.8</ele>
        <time>2022-05-29T15:02:20Z</time>
      </trkpt>
      <trkpt lat="47.67303" lon="-2.87208">
        <ele>157.8</ele>
        <time>2022-05-29T15:02:27Z</time>
      </trkpt>
      <trkpt lat="47.67264" lon="-2.87213">
        <ele>157.8</ele>
        <time>2022-05-29T15:02:32Z</time>
      </trkpt>
      <trkpt lat="47.6722" lon="-2.87226">
        <ele>157.3</ele>
        <time>2022-05-29T15:02:37Z</time>
      </trkpt>
      <trkpt lat="47.6717" lon="-2.87239">
        <ele>156.8</ele>
        <time>2022-05-29T15:02:43Z</time>
      </trkpt>
      <trkpt lat="47.6714" lon="-2.87248">
        <ele>156.5</ele>
        <time>2022-05-29T15:02:47Z</time>
      </trkpt>
      <trkpt lat="47.67124" lon="-2.87251">
        <ele>156.6</ele>
        <time>2022-05-29T15:02:49Z</time>
      </trkpt>
      <trkpt lat="47.67078" lon="-2.87256">
        <ele>157</ele>
        <time>2022-05-29T15:02:55Z</time>
      </trkpt>
      <trkpt lat="47.67063" lon="-2.87251">
        <ele>157.1</ele>
        <time>2022-05-29T15:02:57Z</time>
      </trkpt>
      <trkpt lat="47.67034" lon="-2.87242">
        <ele>157.4</ele>
        <time>2022-05-29T15:03:01Z</time>
      </trkpt>
      <trkpt lat="47.67001" lon="-2.87222">
        <ele>157.7</ele>
        <time>2022-05-29T15:03:06Z</time>
      </trkpt>
      <trkpt lat="47.66956" lon="-2.87193">
        <ele>158.2</ele>
        <time>2022-05-29T15:03:13Z</time>
      </trkpt>
      <trkpt lat="47.6692" lon="-2.87168">
        <ele>158.9</ele>
        <time>2022-05-29T15:03:19Z</time>
      </trkpt>
      <trkpt lat="47.66914" lon="-2.87164">
        <ele>159.1</ele>
        <time>2022-05-29T15:03:20Z</time>
      </trkpt>
      <trkpt lat="47.66883" lon="-2.87145">
        <ele>159.8</ele>
        <time>2022-05-29T15:03:25Z</time>
      </trkpt>
      <trkpt lat="47.66871" lon="-2.87137">
        <ele>159.8</ele>
        <time>2022-05-29T15:03:27Z</time>
      </trkpt>
      <trkpt lat="47.66846" lon="-2.8712">
        <ele>159.8</ele>
        <time>2022-05-29T15:03:31Z</time>
      </trkpt>
      <trkpt lat="47.66826" lon="-2.87108">
        <ele>159.9</ele>
        <time>2022-05-29T15:03:34Z</time>
      </trkpt>
      <trkpt lat="47.66781" lon="-2.87089">
        <ele>160.2</ele>
        <time>2022-05-29T15:03:41Z</time>
      </trkpt>
      <trkpt lat="47.66735" lon="-2.87076">
        <ele>160.5</ele>
        <time>2022-05-29T15:03:48Z</time>
      </trkpt>
      <trkpt lat="47.6669" lon="-2.87063">
        <ele>160.8</ele>
        <time>2022-05-29T15:03:55Z</time>
      </trkpt>
      <trkpt lat="47.66644" lon="-2.87051">
        <ele>161</ele>
        <time>2022-05-29T15:04:02Z</time>
      </trkpt>
      <trkpt lat="47.66596" lon="-2.87037">
        <ele>161.3</ele>
        <time>2022-05-29T15:04:09Z</time>
      </trkpt>
      <trkpt lat="47.66546" lon="-2.8702">
        <ele>161.6</ele>
        <time>2022-05-29T15:04:16Z</time>
      </trkpt>
      <trkpt lat="47.66498" lon="-2.87005">
        <ele>161.8</ele>
        <time>2022-05-29T15:04:22Z</time>
      </trkpt>
      <trkpt lat="47.66454" lon="-2.86985">
        <ele>162.1</ele>
        <time>2022-05-29T15:04:28Z</time>
      </trkpt>
      <trkpt lat="47.66413" lon="-2.86959">
        <ele>162.3</ele>
        <time>2022-05-29T15:04:34Z</time>
      </trkpt>
      <trkpt lat="47.66368" lon="-2.86929">
        <ele>162.6</ele>
        <time>2022-05-29T15:04:41Z</time>
      </trkpt>
      <trkpt lat="47.66323" lon="-2.86898">
        <ele>162.9</ele>
        <time>2022-05-29T15:04:48Z</time>
      </trkpt>
      <trkpt lat="47.66305" lon="-2.86886">
        <ele>163</ele>
        <time>2022-05-29T15:04:51Z</time>
      </trkpt>
      <trkpt lat="47.66281" lon="-2.8687">
        <ele>163.1</ele>
        <time>2022-05-29T15:04:55Z</time>
      </trkpt>
      <trkpt lat="47.66238" lon="-2.86844">
        <ele>163.5</ele>
        <time>2022-05-29T15:05:03Z</time>
      </trkpt>
      <trkpt lat="47.66199" lon="-2.8683">
        <ele>163.7</ele>
        <time>2022-05-29T15:05:09Z</time>
      </trkpt>
      <trkpt lat="47.66134" lon="-2.86798">
        <ele>164.5</ele>
        <time>2022-05-29T15:05:14Z</time>
      </trkpt>
      <trkpt lat="47.66134" lon="-2.86798">
        <ele>164.5</ele>
        <time>2022-05-29T15:06:43Z</time>
      </trkpt>
      <trkpt lat="47.66095" lon="-2.86765">
        <ele>165.2</ele>
        <time>2022-05-29T15:06:49Z</time>
      </trkpt>
      <trkpt lat="47.6609" lon="-2.86697">
        <ele>165</ele>
        <time>2022-05-29T15:06:57Z</time>
      </trkpt>
      <trkpt lat="47.66085" lon="-2.86622">
        <ele>164.7</ele>
        <time>2022-05-29T15:07:05Z</time>
      </trkpt>
      <trkpt lat="47.6608" lon="-2.86551">
        <ele>164.5</ele>
        <time>2022-05-29T15:07:13Z</time>
      </trkpt>
      <trkpt lat="47.66078" lon="-2.8648">
        <ele>164.3</ele>
        <time>2022-05-29T15:07:21Z</time>
      </trkpt>
      <trkpt lat="47.66081" lon="-2.86374">
        <ele>164.4</ele>
        <time>2022-05-29T15:07:31Z</time>
      </trkpt>
      <trkpt lat="47.66081" lon="-2.86374">
        <ele>164.4</ele>
        <time>2022-05-29T15:08:47Z</time>
      </trkpt>
      <trkpt lat="47.66083" lon="-2.86339">
        <ele>164.8</ele>
        <time>2022-05-29T15:08:47Z</time>
      </trkpt>
      <trkpt lat="47.66084" lon="-2.86269">
        <ele>164.9</ele>
        <time>2022-05-29T15:08:56Z</time>
      </trkpt>
      <trkpt lat="47.66088" lon="-2.86223">
        <ele>164.9</ele>
        <time>2022-05-29T15:09:01Z</time>
      </trkpt>
      <trkpt lat="47.66102" lon="-2.86189">
        <ele>165</ele>
        <time>2022-05-29T15:09:05Z</time>
      </trkpt>
      <trkpt lat="47.66135" lon="-2.86144">
        <ele>165</ele>
        <time>2022-05-29T15:09:12Z</time>
      </trkpt>
      <trkpt lat="47.66157" lon="-2.86083">
        <ele>165.1</ele>
        <time>2022-05-29T15:09:21Z</time>
      </trkpt>
      <trkpt lat="47.66151" lon="-2.86064">
        <ele>165.3</ele>
        <time>2022-05-29T15:09:24Z</time>
      </trkpt>
      <trkpt lat="47.66147" lon="-2.86052">
        <ele>166.1</ele>
        <time>2022-05-29T15:09:26Z</time>
      </trkpt>
      <trkpt lat="47.66129" lon="-2.86036">
        <ele>167.4</ele>
        <time>2022-05-29T15:09:30Z</time>
      </trkpt>
      <trkpt lat="47.66115" lon="-2.86025">
        <ele>167.8</ele>
        <time>2022-05-29T15:09:33Z</time>
      </trkpt>
      <trkpt lat="47.66105" lon="-2.86023">
        <ele>168.1</ele>
        <time>2022-05-29T15:09:35Z</time>
      </trkpt>
      <trkpt lat="47.661" lon="-2.86021">
        <ele>168.2</ele>
        <time>2022-05-29T15:09:36Z</time>
      </trkpt>
      <trkpt lat="47.66095" lon="-2.86019">
        <ele>168.3</ele>
        <time>2022-05-29T15:09:37Z</time>
      </trkpt>
      <trkpt lat="47.66067" lon="-2.86017">
        <ele>168.8</ele>
        <time>2022-05-29T15:09:42Z</time>
      </trkpt>
      <trkpt lat="47.66045" lon="-2.86016">
        <ele>168.2</ele>
        <time>2022-05-29T15:09:46Z</time>
      </trkpt>
      <trkpt lat="47.6602" lon="-2.86007">
        <ele>167.6</ele>
        <time>2022-05-29T15:09:50Z</time>
      </trkpt>
      <trkpt lat="47.65992" lon="-2.85977">
        <ele>166.8</ele>
        <time>2022-05-29T15:09:55Z</time>
      </trkpt>
      <trkpt lat="47.65965" lon="-2.85942">
        <ele>166</ele>
        <time>2022-05-29T15:10:00Z</time>
      </trkpt>
      <trkpt lat="47.65958" lon="-2.85943">
        <ele>165.9</ele>
        <time>2022-05-29T15:10:01Z</time>
      </trkpt>
      <trkpt lat="47.65951" lon="-2.85948">
        <ele>165.7</ele>
        <time>2022-05-29T15:10:02Z</time>
      </trkpt>
      <trkpt lat="47.65946" lon="-2.85957">
        <ele>165.5</ele>
        <time>2022-05-29T15:10:03Z</time>
      </trkpt>
      <trkpt lat="47.65943" lon="-2.85978">
        <ele>165.2</ele>
        <time>2022-05-29T15:10:05Z</time>
      </trkpt>
      <trkpt lat="47.65945" lon="-2.85987">
        <ele>165.2</ele>
        <time>2022-05-29T15:10:06Z</time>
      </trkpt>
      <trkpt lat="47.65956" lon="-2.86042">
        <ele>165.3</ele>
        <time>2022-05-29T15:10:12Z</time>
      </trkpt>
      <trkpt lat="47.6598" lon="-2.86088">
        <ele>165.3</ele>
        <time>2022-05-29T15:10:18Z</time>
      </trkpt>
      <trkpt lat="47.66015" lon="-2.86131">
        <ele>164.2</ele>
        <time>2022-05-29T15:10:25Z</time>
      </trkpt>
      <trkpt lat="47.66019" lon="-2.86142">
        <ele>163.9</ele>
        <time>2022-05-29T15:10:27Z</time>
      </trkpt>
      <trkpt lat="47.66016" lon="-2.86148">
        <ele>163.7</ele>
        <time>2022-05-29T15:10:28Z</time>
      </trkpt>
      <trkpt lat="47.66011" lon="-2.8615">
        <ele>163.5</ele>
        <time>2022-05-29T15:10:29Z</time>
      </trkpt>
      <trkpt lat="47.66006" lon="-2.86149">
        <ele>163.4</ele>
        <time>2022-05-29T15:10:30Z</time>
      </trkpt>
      <trkpt lat="47.65992" lon="-2.86149">
        <ele>163.3</ele>
        <time>2022-05-29T15:10:33Z</time>
      </trkpt>
      <trkpt lat="47.65988" lon="-2.86158">
        <ele>163.2</ele>
        <time>2022-05-29T15:10:35Z</time>
      </trkpt>
      <trkpt lat="47.65987" lon="-2.86165">
        <ele>163.2</ele>
        <time>2022-05-29T15:10:36Z</time>
      </trkpt>
      <trkpt lat="47.65985" lon="-2.86192">
        <ele>163.5</ele>
        <time>2022-05-29T15:10:40Z</time>
      </trkpt>
      <trkpt lat="47.65978" lon="-2.86198">
        <ele>163.6</ele>
        <time>2022-05-29T15:10:42Z</time>
      </trkpt>
      <trkpt lat="47.6597" lon="-2.86196">
        <ele>163.8</ele>
        <time>2022-05-29T15:10:45Z</time>
      </trkpt>
    </trkseg>
  </trk>
</gpx>